<?xml version='1.0' encoding='UTF-8'?><gpx version="1.1" creator="JPX - https://github.com/jenetics/jpx" xmlns="http://www.topografix.com/GPX/1/1"><trk><trkseg><trkpt lat="39.1986414" lon="16.3144971"><ele>622.0</ele><time>2026-04-12T07:30:51.166Z</time></trkpt><trkpt lat="39.1985575" lon="16.3144871"><ele>622.0</ele><time>2026-04-12T07:30:54.231Z</time></trkpt><trkpt lat="39.1984879" lon="16.3144304"><ele>622.0</ele><time>2026-04-12T07:30:56.207Z</time></trkpt><trkpt lat="39.1984111" lon="16.3143212"><ele>622.0</ele><time>2026-04-12T07:31:00.166Z</time></trkpt><trkpt lat="39.1983407" lon="16.3142464"><ele>622.0</ele><time>2026-04-12T07:31:02.165Z</time></trkpt><trkpt lat="39.1982856" lon="16.3141933"><ele>622.0</ele><time>2026-04-12T07:31:03.888Z</time></trkpt><trkpt lat="39.1982284" lon="16.3142406"><ele>618.0</ele><time>2026-04-12T07:31:52.939Z</time></trkpt><trkpt lat="39.1978945" lon="16.3142538"><ele>614.0</ele><time>2026-04-12T07:31:54.915Z</time></trkpt><trkpt lat="39.1976651" lon="16.3142674"><ele>614.0</ele><time>2026-04-12T07:31:55.902Z</time></trkpt><trkpt lat="39.1977287" lon="16.3142729"><ele>614.0</ele><time>2026-04-12T07:32:31.895Z</time></trkpt><trkpt lat="39.1977965" lon="16.3142507"><ele>614.0</ele><time>2026-04-12T07:32:42.881Z</time></trkpt><trkpt lat="39.1978727" lon="16.3142298"><ele>614.0</ele><time>2026-04-12T07:32:51.881Z</time></trkpt><trkpt lat="39.1976461" lon="16.3142173"><ele>614.0</ele><time>2026-04-12T07:33:09.881Z</time></trkpt><trkpt lat="39.197578" lon="16.3142118"><ele>614.0</ele><time>2026-04-12T07:33:11.951Z</time></trkpt><trkpt lat="39.1975133" lon="16.3142303"><ele>614.0</ele><time>2026-04-12T07:33:19.881Z</time></trkpt><trkpt lat="39.1975758" lon="16.3142185"><ele>614.0</ele><time>2026-04-12T07:34:16.917Z</time></trkpt><trkpt lat="39.1976395" lon="16.3141959"><ele>614.0</ele><time>2026-04-12T07:35:32.881Z</time></trkpt><trkpt lat="39.1977693" lon="16.3141841"><ele>614.0</ele><time>2026-04-12T07:35:44.054Z</time></trkpt><trkpt lat="39.1983731" lon="16.3144047"><ele>618.0</ele><time>2026-04-12T07:35:50.419Z</time></trkpt><trkpt lat="39.1981866" lon="16.3145112"><ele>622.0</ele><time>2026-04-12T07:35:56.762Z</time></trkpt><trkpt lat="39.1987115" lon="16.3145403"><ele>614.0</ele><time>2026-04-12T07:36:03.119Z</time></trkpt><trkpt lat="39.1977476" lon="16.3143316"><ele>622.0</ele><time>2026-04-12T07:36:34.866Z</time></trkpt><trkpt lat="39.1985036" lon="16.3144993"><ele>622.0</ele><time>2026-04-12T07:36:41.283Z</time></trkpt><trkpt lat="39.1986556" lon="16.3145487"><ele>622.0</ele><time>2026-04-12T07:36:47.596Z</time></trkpt><trkpt lat="39.1983493" lon="16.3144907"><ele>622.0</ele><time>2026-04-12T07:37:00.325Z</time></trkpt><trkpt lat="39.1986984" lon="16.3145328"><ele>622.0</ele><time>2026-04-12T07:37:06.583Z</time></trkpt><trkpt lat="39.1986952" lon="16.3144224"><ele>622.0</ele><time>2026-04-12T07:38:05.833Z</time></trkpt><trkpt lat="39.1986819" lon="16.3143285"><ele>622.0</ele><time>2026-04-12T07:38:11.23Z</time></trkpt><trkpt lat="39.1986582" lon="16.314198"><ele>622.0</ele><time>2026-04-12T07:38:17.272Z</time></trkpt><trkpt lat="39.1986348" lon="16.3139905"><ele>622.0</ele><time>2026-04-12T07:38:18.448Z</time></trkpt><trkpt lat="39.198621" lon="16.3138685"><ele>622.0</ele><time>2026-04-12T07:38:19.531Z</time></trkpt><trkpt lat="39.1986066" lon="16.3137372"><ele>621.8000000000001</ele><time>2026-04-12T07:38:22.967Z</time></trkpt><trkpt lat="39.1985967" lon="16.3136484"><ele>621.6</ele><time>2026-04-12T07:38:29.05Z</time></trkpt><trkpt lat="39.1985513" lon="16.3135721"><ele>621.4000000000001</ele><time>2026-04-12T07:38:31.789Z</time></trkpt><trkpt lat="39.1985018" lon="16.3134897"><ele>621.2</ele><time>2026-04-12T07:38:36.813Z</time></trkpt><trkpt lat="39.1984694" lon="16.3134161"><ele>621.0</ele><time>2026-04-12T07:38:47.148Z</time></trkpt><trkpt lat="39.1983862" lon="16.3128415"><ele>624.0</ele><time>2026-04-12T07:39:19.296Z</time></trkpt><trkpt lat="39.1982014" lon="16.3119843"><ele>623.3333333333334</ele><time>2026-04-12T07:39:22.091Z</time></trkpt><trkpt lat="39.1981365" lon="16.3117137"><ele>622.6666666666667</ele><time>2026-04-12T07:39:23.389Z</time></trkpt><trkpt lat="39.1980906" lon="16.3115068"><ele>622.0</ele><time>2026-04-12T07:39:24.771Z</time></trkpt><trkpt lat="39.1980587" lon="16.3113212"><ele>622.0</ele><time>2026-04-12T07:39:25.888Z</time></trkpt><trkpt lat="39.198039" lon="16.3111918"><ele>622.0</ele><time>2026-04-12T07:39:26.91Z</time></trkpt><trkpt lat="39.1980192" lon="16.3110653"><ele>622.0</ele><time>2026-04-12T07:39:29.01Z</time></trkpt><trkpt lat="39.1979968" lon="16.3109734"><ele>622.0</ele><time>2026-04-12T07:39:33.71Z</time></trkpt><trkpt lat="39.1980525" lon="16.3079"><ele>637.0</ele><time>2026-04-12T07:39:45.492Z</time></trkpt><trkpt lat="39.1984386" lon="16.3074207"><ele>637.0</ele><time>2026-04-12T07:39:52.949Z</time></trkpt><trkpt lat="39.1985392" lon="16.307262"><ele>637.0</ele><time>2026-04-12T07:39:54.171Z</time></trkpt><trkpt lat="39.1985888" lon="16.3071888"><ele>637.0</ele><time>2026-04-12T07:39:55.528Z</time></trkpt><trkpt lat="39.1986356" lon="16.3071091"><ele>637.0</ele><time>2026-04-12T07:39:57.948Z</time></trkpt><trkpt lat="39.1992983" lon="16.3048417"><ele>641.5</ele><time>2026-04-12T07:40:09.881Z</time></trkpt><trkpt lat="39.199345" lon="16.3047717"><ele>646.0</ele><time>2026-04-12T07:40:11.881Z</time></trkpt><trkpt lat="39.199005" lon="16.3031383"><ele>653.3333333333334</ele><time>2026-04-12T07:40:16.88Z</time></trkpt><trkpt lat="39.1989733" lon="16.302935"><ele>660.6666666666666</ele><time>2026-04-12T07:40:17.881Z</time></trkpt><trkpt lat="39.1989317" lon="16.3027"><ele>668.0</ele><time>2026-04-12T07:40:18.881Z</time></trkpt><trkpt lat="39.1971977" lon="16.2962398"><ele>699.0</ele><time>2026-04-12T07:41:22.834Z</time></trkpt><trkpt lat="39.1972867" lon="16.2977483"><ele>700.0</ele><time>2026-04-12T07:41:25.882Z</time></trkpt><trkpt lat="39.19727" lon="16.2970933"><ele>699.0</ele><time>2026-04-12T07:41:27.883Z</time></trkpt><trkpt lat="39.1973933" lon="16.2966317"><ele>698.0</ele><time>2026-04-12T07:41:29.883Z</time></trkpt><trkpt lat="39.197505" lon="16.296425"><ele>698.75</ele><time>2026-04-12T07:41:30.883Z</time></trkpt><trkpt lat="39.1975833" lon="16.2962617"><ele>699.5</ele><time>2026-04-12T07:41:31.882Z</time></trkpt><trkpt lat="39.1976267" lon="16.2960833"><ele>700.25</ele><time>2026-04-12T07:41:32.883Z</time></trkpt><trkpt lat="39.1976683" lon="16.2959017"><ele>701.0</ele><time>2026-04-12T07:41:33.883Z</time></trkpt><trkpt lat="39.1977117" lon="16.2957467"><ele>699.75</ele><time>2026-04-12T07:41:34.883Z</time></trkpt><trkpt lat="39.1977617" lon="16.29558"><ele>698.5</ele><time>2026-04-12T07:41:35.883Z</time></trkpt><trkpt lat="39.1978133" lon="16.29543"><ele>697.25</ele><time>2026-04-12T07:41:36.883Z</time></trkpt><trkpt lat="39.1978633" lon="16.295285"><ele>696.0</ele><time>2026-04-12T07:41:37.883Z</time></trkpt><trkpt lat="39.1979067" lon="16.2951417"><ele>696.0</ele><time>2026-04-12T07:41:38.882Z</time></trkpt><trkpt lat="39.197955" lon="16.2950033"><ele>696.0</ele><time>2026-04-12T07:41:39.883Z</time></trkpt><trkpt lat="39.1980117" lon="16.294875"><ele>696.0</ele><time>2026-04-12T07:41:40.883Z</time></trkpt><trkpt lat="39.198065" lon="16.2947417"><ele>696.0</ele><time>2026-04-12T07:41:41.883Z</time></trkpt><trkpt lat="39.1981167" lon="16.29461"><ele>694.75</ele><time>2026-04-12T07:41:42.882Z</time></trkpt><trkpt lat="39.1981667" lon="16.2944783"><ele>693.5</ele><time>2026-04-12T07:41:43.883Z</time></trkpt><trkpt lat="39.1982833" lon="16.2943867"><ele>692.25</ele><time>2026-04-12T07:41:44.883Z</time></trkpt><trkpt lat="39.1983883" lon="16.2942883"><ele>691.0</ele><time>2026-04-12T07:41:45.883Z</time></trkpt><trkpt lat="39.1985017" lon="16.2941983"><ele>691.0</ele><time>2026-04-12T07:41:46.882Z</time></trkpt><trkpt lat="39.1986067" lon="16.294105"><ele>691.0</ele><time>2026-04-12T07:41:47.883Z</time></trkpt><trkpt lat="39.19877" lon="16.2940267"><ele>691.0</ele><time>2026-04-12T07:41:48.882Z</time></trkpt><trkpt lat="39.1989" lon="16.293935"><ele>687.0</ele><time>2026-04-12T07:41:49.883Z</time></trkpt><trkpt lat="39.1990283" lon="16.2938367"><ele>683.0</ele><time>2026-04-12T07:41:50.882Z</time></trkpt><trkpt lat="39.1991433" lon="16.2937317"><ele>679.0</ele><time>2026-04-12T07:41:51.882Z</time></trkpt><trkpt lat="39.1992483" lon="16.2936167"><ele>675.0</ele><time>2026-04-12T07:41:52.882Z</time></trkpt><trkpt lat="39.1993467" lon="16.2935067"><ele>675.0</ele><time>2026-04-12T07:41:53.882Z</time></trkpt><trkpt lat="39.1995567" lon="16.2934683"><ele>675.0</ele><time>2026-04-12T07:41:54.882Z</time></trkpt><trkpt lat="39.1997067" lon="16.29339"><ele>675.0</ele><time>2026-04-12T07:41:55.883Z</time></trkpt><trkpt lat="39.1998317" lon="16.2932883"><ele>674.75</ele><time>2026-04-12T07:41:56.882Z</time></trkpt><trkpt lat="39.1999183" lon="16.293175"><ele>674.5</ele><time>2026-04-12T07:41:57.882Z</time></trkpt><trkpt lat="39.200005" lon="16.2930617"><ele>674.25</ele><time>2026-04-12T07:41:58.882Z</time></trkpt><trkpt lat="39.200095" lon="16.292955"><ele>674.0</ele><time>2026-04-12T07:41:59.882Z</time></trkpt><trkpt lat="39.200185" lon="16.292845"><ele>674.0</ele><time>2026-04-12T07:42:00.882Z</time></trkpt><trkpt lat="39.2002767" lon="16.2927317"><ele>674.0</ele><time>2026-04-12T07:42:01.882Z</time></trkpt><trkpt lat="39.20038" lon="16.2926067"><ele>674.0</ele><time>2026-04-12T07:42:02.883Z</time></trkpt><trkpt lat="39.2004767" lon="16.2924717"><ele>674.0</ele><time>2026-04-12T07:42:03.883Z</time></trkpt><trkpt lat="39.2005667" lon="16.2923433"><ele>673.5</ele><time>2026-04-12T07:42:04.883Z</time></trkpt><trkpt lat="39.200665" lon="16.2922167"><ele>673.0</ele><time>2026-04-12T07:42:05.883Z</time></trkpt><trkpt lat="39.2007583" lon="16.2920917"><ele>672.5</ele><time>2026-04-12T07:42:06.883Z</time></trkpt><trkpt lat="39.2008367" lon="16.2919533"><ele>672.0</ele><time>2026-04-12T07:42:07.883Z</time></trkpt><trkpt lat="39.200915" lon="16.2918233"><ele>675.0</ele><time>2026-04-12T07:42:08.883Z</time></trkpt><trkpt lat="39.2009968" lon="16.2916922"><ele>678.0</ele><time>2026-04-12T07:42:09.883Z</time></trkpt><trkpt lat="39.2010874" lon="16.2915641"><ele>681.0</ele><time>2026-04-12T07:42:10.883Z</time></trkpt><trkpt lat="39.2011786" lon="16.2914441"><ele>684.0</ele><time>2026-04-12T07:42:11.883Z</time></trkpt><trkpt lat="39.2012689" lon="16.2913266"><ele>684.0</ele><time>2026-04-12T07:42:12.883Z</time></trkpt><trkpt lat="39.2013566" lon="16.2912064"><ele>684.0</ele><time>2026-04-12T07:42:13.883Z</time></trkpt><trkpt lat="39.2014411" lon="16.2910911"><ele>684.0</ele><time>2026-04-12T07:42:14.883Z</time></trkpt><trkpt lat="39.2015223" lon="16.2909835"><ele>684.0</ele><time>2026-04-12T07:42:15.883Z</time></trkpt><trkpt lat="39.201597" lon="16.290884"><ele>684.5</ele><time>2026-04-12T07:42:16.882Z</time></trkpt><trkpt lat="39.2016599" lon="16.2907814"><ele>685.0</ele><time>2026-04-12T07:42:17.883Z</time></trkpt><trkpt lat="39.2017222" lon="16.2906821"><ele>685.5</ele><time>2026-04-12T07:42:18.883Z</time></trkpt><trkpt lat="39.2017857" lon="16.2906077"><ele>686.0</ele><time>2026-04-12T07:42:19.883Z</time></trkpt><trkpt lat="39.2018253" lon="16.2905351"><ele>686.5</ele><time>2026-04-12T07:42:20.883Z</time></trkpt><trkpt lat="39.2018803" lon="16.290457"><ele>687.0</ele><time>2026-04-12T07:42:21.883Z</time></trkpt><trkpt lat="39.2019379" lon="16.290378"><ele>685.6666666666666</ele><time>2026-04-12T07:42:22.883Z</time></trkpt><trkpt lat="39.2019878" lon="16.2902881"><ele>684.3333333333334</ele><time>2026-04-12T07:42:23.883Z</time></trkpt><trkpt lat="39.2020259" lon="16.2901912"><ele>683.0</ele><time>2026-04-12T07:42:24.883Z</time></trkpt><trkpt lat="39.2020613" lon="16.2900957"><ele>681.6666666666667</ele><time>2026-04-12T07:42:25.883Z</time></trkpt><trkpt lat="39.2020996" lon="16.2900008"><ele>680.3333333333334</ele><time>2026-04-12T07:42:26.883Z</time></trkpt><trkpt lat="39.2021435" lon="16.2898936"><ele>679.0</ele><time>2026-04-12T07:42:27.883Z</time></trkpt><trkpt lat="39.2021944" lon="16.2897835"><ele>677.4000000000001</ele><time>2026-04-12T07:42:28.883Z</time></trkpt><trkpt lat="39.2022438" lon="16.2896654"><ele>675.8</ele><time>2026-04-12T07:42:29.883Z</time></trkpt><trkpt lat="39.2022589" lon="16.2895225"><ele>674.2</ele><time>2026-04-12T07:42:30.883Z</time></trkpt><trkpt lat="39.2022856" lon="16.2893921"><ele>672.5999999999999</ele><time>2026-04-12T07:42:31.883Z</time></trkpt><trkpt lat="39.2023027" lon="16.2892537"><ele>671.0</ele><time>2026-04-12T07:42:32.883Z</time></trkpt><trkpt lat="39.2023246" lon="16.2891092"><ele>671.25</ele><time>2026-04-12T07:42:33.883Z</time></trkpt><trkpt lat="39.2023496" lon="16.2889515"><ele>671.5</ele><time>2026-04-12T07:42:34.882Z</time></trkpt><trkpt lat="39.2023533" lon="16.2887778"><ele>671.75</ele><time>2026-04-12T07:42:35.883Z</time></trkpt><trkpt lat="39.2023703" lon="16.2885997"><ele>672.0</ele><time>2026-04-12T07:42:36.883Z</time></trkpt><trkpt lat="39.2023906" lon="16.2884258"><ele>672.0</ele><time>2026-04-12T07:42:37.883Z</time></trkpt><trkpt lat="39.2024173" lon="16.2882525"><ele>672.0</ele><time>2026-04-12T07:42:38.882Z</time></trkpt><trkpt lat="39.2024506" lon="16.2880682"><ele>672.0</ele><time>2026-04-12T07:42:39.883Z</time></trkpt><trkpt lat="39.2024818" lon="16.2878856"><ele>672.0</ele><time>2026-04-12T07:42:40.883Z</time></trkpt><trkpt lat="39.2025123" lon="16.2877027"><ele>670.5</ele><time>2026-04-12T07:42:41.883Z</time></trkpt><trkpt lat="39.2025451" lon="16.28752"><ele>669.0</ele><time>2026-04-12T07:42:42.882Z</time></trkpt><trkpt lat="39.2025697" lon="16.2873453"><ele>667.5</ele><time>2026-04-12T07:42:43.882Z</time></trkpt><trkpt lat="39.2025977" lon="16.2871755"><ele>666.0</ele><time>2026-04-12T07:42:44.882Z</time></trkpt><trkpt lat="39.2026261" lon="16.2870162"><ele>663.75</ele><time>2026-04-12T07:42:45.883Z</time></trkpt><trkpt lat="39.2026508" lon="16.2868575"><ele>661.5</ele><time>2026-04-12T07:42:46.883Z</time></trkpt><trkpt lat="39.2026842" lon="16.2867023"><ele>659.25</ele><time>2026-04-12T07:42:47.883Z</time></trkpt><trkpt lat="39.2027216" lon="16.2865708"><ele>657.0</ele><time>2026-04-12T07:42:48.883Z</time></trkpt><trkpt lat="39.2027675" lon="16.2864519"><ele>654.5</ele><time>2026-04-12T07:42:49.882Z</time></trkpt><trkpt lat="39.2028231" lon="16.2863313"><ele>652.0</ele><time>2026-04-12T07:42:50.882Z</time></trkpt><trkpt lat="39.2029022" lon="16.2862118"><ele>649.5</ele><time>2026-04-12T07:42:51.883Z</time></trkpt><trkpt lat="39.2029805" lon="16.2861032"><ele>647.0</ele><time>2026-04-12T07:42:52.883Z</time></trkpt><trkpt lat="39.2030727" lon="16.2859977"><ele>647.0</ele><time>2026-04-12T07:42:53.883Z</time></trkpt><trkpt lat="39.2031281" lon="16.2858835"><ele>647.0</ele><time>2026-04-12T07:42:54.883Z</time></trkpt><trkpt lat="39.2031862" lon="16.285773"><ele>647.0</ele><time>2026-04-12T07:42:55.882Z</time></trkpt><trkpt lat="39.2032476" lon="16.2856664"><ele>647.0</ele><time>2026-04-12T07:42:56.883Z</time></trkpt><trkpt lat="39.2033105" lon="16.2855598"><ele>647.0</ele><time>2026-04-12T07:42:57.883Z</time></trkpt><trkpt lat="39.2034374" lon="16.2854794"><ele>647.2</ele><time>2026-04-12T07:42:58.882Z</time></trkpt><trkpt lat="39.2035109" lon="16.2854024"><ele>647.4000000000001</ele><time>2026-04-12T07:42:59.883Z</time></trkpt><trkpt lat="39.203568" lon="16.2852813"><ele>647.5999999999999</ele><time>2026-04-12T07:43:00.883Z</time></trkpt><trkpt lat="39.2036046" lon="16.2851392"><ele>647.8</ele><time>2026-04-12T07:43:01.883Z</time></trkpt><trkpt lat="39.2036499" lon="16.2850119"><ele>648.0</ele><time>2026-04-12T07:43:02.883Z</time></trkpt><trkpt lat="39.2036704" lon="16.2848969"><ele>648.0</ele><time>2026-04-12T07:43:03.883Z</time></trkpt><trkpt lat="39.2036912" lon="16.2847636"><ele>648.0</ele><time>2026-04-12T07:43:04.883Z</time></trkpt><trkpt lat="39.2037117" lon="16.2846517"><ele>648.0</ele><time>2026-04-12T07:43:05.883Z</time></trkpt><trkpt lat="39.2037244" lon="16.2845011"><ele>648.0</ele><time>2026-04-12T07:43:07.883Z</time></trkpt><trkpt lat="39.2037428" lon="16.2843413"><ele>648.0</ele><time>2026-04-12T07:43:09.883Z</time></trkpt><trkpt lat="39.2037569" lon="16.2841646"><ele>647.0</ele><time>2026-04-12T07:43:11.883Z</time></trkpt><trkpt lat="39.2037654" lon="16.2840691"><ele>646.0</ele><time>2026-04-12T07:43:12.883Z</time></trkpt><trkpt lat="39.2037773" lon="16.2839746"><ele>645.0</ele><time>2026-04-12T07:43:13.883Z</time></trkpt><trkpt lat="39.2037926" lon="16.2838854"><ele>644.0</ele><time>2026-04-12T07:43:14.883Z</time></trkpt><trkpt lat="39.2038428" lon="16.2838227"><ele>643.0</ele><time>2026-04-12T07:43:15.883Z</time></trkpt><trkpt lat="39.2038776" lon="16.2836893"><ele>642.0</ele><time>2026-04-12T07:43:17.883Z</time></trkpt><trkpt lat="39.204033" lon="16.2836102"><ele>640.6666666666666</ele><time>2026-04-12T07:43:19.883Z</time></trkpt><trkpt lat="39.2041609" lon="16.2836118"><ele>639.3333333333334</ele><time>2026-04-12T07:43:20.883Z</time></trkpt><trkpt lat="39.2042499" lon="16.2836218"><ele>638.0</ele><time>2026-04-12T07:43:21.883Z</time></trkpt><trkpt lat="39.2041961" lon="16.2835619"><ele>636.6666666666667</ele><time>2026-04-12T07:43:25.883Z</time></trkpt><trkpt lat="39.2041192" lon="16.2835315"><ele>635.3333333333334</ele><time>2026-04-12T07:43:26.883Z</time></trkpt><trkpt lat="39.2040521" lon="16.2834899"><ele>634.0</ele><time>2026-04-12T07:43:27.883Z</time></trkpt><trkpt lat="39.2039434" lon="16.2834234"><ele>633.3333333333334</ele><time>2026-04-12T07:43:29.883Z</time></trkpt><trkpt lat="39.2037476" lon="16.2833386"><ele>632.6666666666666</ele><time>2026-04-12T07:43:31.883Z</time></trkpt><trkpt lat="39.2035636" lon="16.2832785"><ele>632.0</ele><time>2026-04-12T07:43:32.883Z</time></trkpt><trkpt lat="39.2034698" lon="16.2832377"><ele>632.0</ele><time>2026-04-12T07:43:33.883Z</time></trkpt><trkpt lat="39.2033458" lon="16.2831395"><ele>632.0</ele><time>2026-04-12T07:43:34.882Z</time></trkpt><trkpt lat="39.203232" lon="16.2830327"><ele>632.0</ele><time>2026-04-12T07:43:35.883Z</time></trkpt><trkpt lat="39.2031235" lon="16.2829091"><ele>632.0</ele><time>2026-04-12T07:43:36.883Z</time></trkpt><trkpt lat="39.203019" lon="16.2827745"><ele>629.4</ele><time>2026-04-12T07:43:37.883Z</time></trkpt><trkpt lat="39.2029259" lon="16.282666"><ele>626.8000000000001</ele><time>2026-04-12T07:43:38.883Z</time></trkpt><trkpt lat="39.2028382" lon="16.2825865"><ele>624.2</ele><time>2026-04-12T07:43:39.883Z</time></trkpt><trkpt lat="39.2027536" lon="16.2824933"><ele>621.6</ele><time>2026-04-12T07:43:40.883Z</time></trkpt><trkpt lat="39.2026712" lon="16.28241"><ele>619.0</ele><time>2026-04-12T07:43:41.883Z</time></trkpt><trkpt lat="39.2025982" lon="16.2823457"><ele>619.0</ele><time>2026-04-12T07:43:42.883Z</time></trkpt><trkpt lat="39.2025178" lon="16.2822918"><ele>619.0</ele><time>2026-04-12T07:43:43.882Z</time></trkpt><trkpt lat="39.2024205" lon="16.2822396"><ele>619.0</ele><time>2026-04-12T07:43:44.882Z</time></trkpt><trkpt lat="39.2023194" lon="16.2822001"><ele>619.0</ele><time>2026-04-12T07:43:45.882Z</time></trkpt><trkpt lat="39.2022128" lon="16.2822757"><ele>619.0</ele><time>2026-04-12T07:43:46.882Z</time></trkpt><trkpt lat="39.2020951" lon="16.2823506"><ele>617.0</ele><time>2026-04-12T07:43:47.883Z</time></trkpt><trkpt lat="39.2019658" lon="16.2823943"><ele>615.0</ele><time>2026-04-12T07:43:48.883Z</time></trkpt><trkpt lat="39.201835" lon="16.2824617"><ele>613.0</ele><time>2026-04-12T07:43:49.883Z</time></trkpt><trkpt lat="39.2017267" lon="16.2824983"><ele>611.0</ele><time>2026-04-12T07:43:50.883Z</time></trkpt><trkpt lat="39.2016267" lon="16.2825383"><ele>611.0</ele><time>2026-04-12T07:43:51.883Z</time></trkpt><trkpt lat="39.201545" lon="16.2826017"><ele>611.0</ele><time>2026-04-12T07:43:52.883Z</time></trkpt><trkpt lat="39.2014733" lon="16.2826883"><ele>611.0</ele><time>2026-04-12T07:43:53.883Z</time></trkpt><trkpt lat="39.201405" lon="16.2827517"><ele>611.0</ele><time>2026-04-12T07:43:54.883Z</time></trkpt><trkpt lat="39.2013317" lon="16.2826983"><ele>611.0</ele><time>2026-04-12T07:43:56.883Z</time></trkpt><trkpt lat="39.2012583" lon="16.2826167"><ele>611.2</ele><time>2026-04-12T07:43:58.883Z</time></trkpt><trkpt lat="39.2012133" lon="16.2825567"><ele>611.4000000000001</ele><time>2026-04-12T07:43:59.883Z</time></trkpt><trkpt lat="39.20119" lon="16.28245"><ele>611.6</ele><time>2026-04-12T07:44:00.883Z</time></trkpt><trkpt lat="39.2012617" lon="16.2822517"><ele>611.8000000000001</ele><time>2026-04-12T07:44:01.883Z</time></trkpt><trkpt lat="39.20132" lon="16.282125"><ele>612.0</ele><time>2026-04-12T07:44:02.883Z</time></trkpt><trkpt lat="39.2013633" lon="16.28203"><ele>610.3333333333334</ele><time>2026-04-12T07:44:03.883Z</time></trkpt><trkpt lat="39.2013867" lon="16.28193"><ele>608.6666666666666</ele><time>2026-04-12T07:44:04.883Z</time></trkpt><trkpt lat="39.201405" lon="16.2818217"><ele>607.0</ele><time>2026-04-12T07:44:05.883Z</time></trkpt><trkpt lat="39.2013667" lon="16.28173"><ele>605.3333333333333</ele><time>2026-04-12T07:44:06.882Z</time></trkpt><trkpt lat="39.2013183" lon="16.28167"><ele>603.6666666666666</ele><time>2026-04-12T07:44:07.883Z</time></trkpt><trkpt lat="39.2012517" lon="16.2816133"><ele>602.0</ele><time>2026-04-12T07:44:08.883Z</time></trkpt><trkpt lat="39.2011617" lon="16.2815117"><ele>601.75</ele><time>2026-04-12T07:44:10.883Z</time></trkpt><trkpt lat="39.2010383" lon="16.2814267"><ele>601.5</ele><time>2026-04-12T07:44:12.883Z</time></trkpt><trkpt lat="39.2009217" lon="16.2813817"><ele>601.25</ele><time>2026-04-12T07:44:13.883Z</time></trkpt><trkpt lat="39.2007867" lon="16.2813583"><ele>601.0</ele><time>2026-04-12T07:44:14.883Z</time></trkpt><trkpt lat="39.2007067" lon="16.2813433"><ele>601.8333333333334</ele><time>2026-04-12T07:44:15.882Z</time></trkpt><trkpt lat="39.200635" lon="16.28139"><ele>602.6666666666667</ele><time>2026-04-12T07:44:16.882Z</time></trkpt><trkpt lat="39.2005583" lon="16.281405"><ele>603.5</ele><time>2026-04-12T07:44:17.883Z</time></trkpt><trkpt lat="39.2004933" lon="16.281465"><ele>604.3333333333334</ele><time>2026-04-12T07:44:18.883Z</time></trkpt><trkpt lat="39.2004333" lon="16.2816017"><ele>605.1666666666666</ele><time>2026-04-12T07:44:19.883Z</time></trkpt><trkpt lat="39.2003833" lon="16.28169"><ele>606.0</ele><time>2026-04-12T07:44:20.883Z</time></trkpt><trkpt lat="39.2017267" lon="16.2824983"><ele>607.0</ele><time>2026-04-12T07:43:50.883Z</time></trkpt><trkpt lat="39.2016267" lon="16.2825383"><ele>608.0</ele><time>2026-04-12T07:43:51.883Z</time></trkpt><trkpt lat="39.201545" lon="16.2826017"><ele>609.0</ele><time>2026-04-12T07:43:52.883Z</time></trkpt><trkpt lat="39.2014733" lon="16.2826883"><ele>610.0</ele><time>2026-04-12T07:43:53.883Z</time></trkpt><trkpt lat="39.201405" lon="16.2827517"><ele>611.0</ele><time>2026-04-12T07:43:54.883Z</time></trkpt><trkpt lat="39.2013317" lon="16.2826983"><ele>611.2</ele><time>2026-04-12T07:43:56.883Z</time></trkpt><trkpt lat="39.2012583" lon="16.2826167"><ele>611.4000000000001</ele><time>2026-04-12T07:43:58.883Z</time></trkpt><trkpt lat="39.2012133" lon="16.2825567"><ele>611.6</ele><time>2026-04-12T07:43:59.883Z</time></trkpt><trkpt lat="39.20119" lon="16.28245"><ele>611.8000000000001</ele><time>2026-04-12T07:44:00.883Z</time></trkpt><trkpt lat="39.2012617" lon="16.2822517"><ele>612.0</ele><time>2026-04-12T07:44:01.883Z</time></trkpt><trkpt lat="39.20132" lon="16.282125"><ele>610.3333333333334</ele><time>2026-04-12T07:44:02.883Z</time></trkpt><trkpt lat="39.2013633" lon="16.28203"><ele>608.6666666666666</ele><time>2026-04-12T07:44:03.883Z</time></trkpt><trkpt lat="39.2013867" lon="16.28193"><ele>607.0</ele><time>2026-04-12T07:44:04.883Z</time></trkpt><trkpt lat="39.201405" lon="16.2818217"><ele>605.3333333333333</ele><time>2026-04-12T07:44:05.883Z</time></trkpt><trkpt lat="39.2013667" lon="16.28173"><ele>603.6666666666666</ele><time>2026-04-12T07:44:06.882Z</time></trkpt><trkpt lat="39.2013183" lon="16.28167"><ele>602.0</ele><time>2026-04-12T07:44:07.883Z</time></trkpt><trkpt lat="39.2012517" lon="16.2816133"><ele>602.0</ele><time>2026-04-12T07:44:08.883Z</time></trkpt><trkpt lat="39.2011617" lon="16.2815117"><ele>602.0</ele><time>2026-04-12T07:44:10.883Z</time></trkpt><trkpt lat="39.2010383" lon="16.2814267"><ele>602.0</ele><time>2026-04-12T07:44:12.883Z</time></trkpt><trkpt lat="39.2009217" lon="16.2813817"><ele>602.0</ele><time>2026-04-12T07:44:13.883Z</time></trkpt><trkpt lat="39.2007867" lon="16.2813583"><ele>601.8333333333333</ele><time>2026-04-12T07:44:14.883Z</time></trkpt><trkpt lat="39.2007067" lon="16.2813433"><ele>601.6666666666666</ele><time>2026-04-12T07:44:15.882Z</time></trkpt><trkpt lat="39.200635" lon="16.28139"><ele>601.5</ele><time>2026-04-12T07:44:16.882Z</time></trkpt><trkpt lat="39.2005583" lon="16.281405"><ele>601.3333333333334</ele><time>2026-04-12T07:44:17.883Z</time></trkpt><trkpt lat="39.2004933" lon="16.281465"><ele>601.1666666666667</ele><time>2026-04-12T07:44:18.883Z</time></trkpt><trkpt lat="39.2004333" lon="16.2816017"><ele>601.0</ele><time>2026-04-12T07:44:19.883Z</time></trkpt><trkpt lat="39.2003833" lon="16.28169"><ele>601.8333333333334</ele><time>2026-04-12T07:44:20.883Z</time></trkpt><trkpt lat="39.20032" lon="16.2817417"><ele>602.6666666666667</ele><time>2026-04-12T07:44:21.883Z</time></trkpt><trkpt lat="39.2002533" lon="16.2817683"><ele>603.5</ele><time>2026-04-12T07:44:22.883Z</time></trkpt><trkpt lat="39.2001667" lon="16.2817567"><ele>604.3333333333334</ele><time>2026-04-12T07:44:23.883Z</time></trkpt><trkpt lat="39.20009" lon="16.2816783"><ele>605.1666666666666</ele><time>2026-04-12T07:44:24.882Z</time></trkpt><trkpt lat="39.200025" lon="16.2816233"><ele>606.0</ele><time>2026-04-12T07:44:25.883Z</time></trkpt><trkpt lat="39.1999467" lon="16.28153"><ele>606.0</ele><time>2026-04-12T07:44:27.883Z</time></trkpt><trkpt lat="39.1999367" lon="16.2814417"><ele>606.0</ele><time>2026-04-12T07:44:28.883Z</time></trkpt><trkpt lat="39.19993" lon="16.28133"><ele>606.0</ele><time>2026-04-12T07:44:29.883Z</time></trkpt><trkpt lat="39.199925" lon="16.2811983"><ele>606.0</ele><time>2026-04-12T07:44:30.882Z</time></trkpt><trkpt lat="39.19992" lon="16.2810867"><ele>606.0</ele><time>2026-04-12T07:44:31.883Z</time></trkpt><trkpt lat="39.19991" lon="16.2809533"><ele>606.0</ele><time>2026-04-12T07:44:32.883Z</time></trkpt><trkpt lat="39.1999" lon="16.28085"><ele>606.4</ele><time>2026-04-12T07:44:33.883Z</time></trkpt><trkpt lat="39.199905" lon="16.280735"><ele>606.8</ele><time>2026-04-12T07:44:34.882Z</time></trkpt><trkpt lat="39.19992" lon="16.2806517"><ele>607.1999999999999</ele><time>2026-04-12T07:44:35.883Z</time></trkpt><trkpt lat="39.200025" lon="16.2804967"><ele>607.6</ele><time>2026-04-12T07:44:37.883Z</time></trkpt><trkpt lat="39.2001067" lon="16.2804517"><ele>608.0</ele><time>2026-04-12T07:44:38.883Z</time></trkpt><trkpt lat="39.2001867" lon="16.280405"><ele>609.8</ele><time>2026-04-12T07:44:39.882Z</time></trkpt><trkpt lat="39.2002383" lon="16.2803133"><ele>611.5999999999999</ele><time>2026-04-12T07:44:41.883Z</time></trkpt><trkpt lat="39.2001467" lon="16.2802783"><ele>613.4000000000001</ele><time>2026-04-12T07:44:43.883Z</time></trkpt><trkpt lat="39.2000717" lon="16.2802517"><ele>615.2</ele><time>2026-04-12T07:44:44.883Z</time></trkpt><trkpt lat="39.199985" lon="16.28023"><ele>617.0</ele><time>2026-04-12T07:44:45.883Z</time></trkpt><trkpt lat="39.19985" lon="16.28022"><ele>618.5</ele><time>2026-04-12T07:44:46.883Z</time></trkpt><trkpt lat="39.1996967" lon="16.28022"><ele>620.0</ele><time>2026-04-12T07:44:47.883Z</time></trkpt><trkpt lat="39.1995583" lon="16.2802217"><ele>621.5</ele><time>2026-04-12T07:44:48.883Z</time></trkpt><trkpt lat="39.199425" lon="16.2802383"><ele>623.0</ele><time>2026-04-12T07:44:49.883Z</time></trkpt><trkpt lat="39.1993083" lon="16.280265"><ele>623.0</ele><time>2026-04-12T07:44:50.883Z</time></trkpt><trkpt lat="39.1991933" lon="16.2802783"><ele>623.0</ele><time>2026-04-12T07:44:51.882Z</time></trkpt><trkpt lat="39.1990733" lon="16.280305"><ele>623.0</ele><time>2026-04-12T07:44:52.883Z</time></trkpt><trkpt lat="39.19897" lon="16.28032"><ele>623.0</ele><time>2026-04-12T07:44:53.883Z</time></trkpt><trkpt lat="39.19887" lon="16.280345"><ele>623.0</ele><time>2026-04-12T07:44:54.882Z</time></trkpt><trkpt lat="39.1987733" lon="16.2803567"><ele>623.6</ele><time>2026-04-12T07:44:55.883Z</time></trkpt><trkpt lat="39.1986917" lon="16.280355"><ele>624.1999999999999</ele><time>2026-04-12T07:44:56.883Z</time></trkpt><trkpt lat="39.1985591" lon="16.2802789"><ele>624.8</ele><time>2026-04-12T07:44:58.883Z</time></trkpt><trkpt lat="39.1984671" lon="16.280182"><ele>625.4</ele><time>2026-04-12T07:44:59.883Z</time></trkpt><trkpt lat="39.1983836" lon="16.2801156"><ele>626.0</ele><time>2026-04-12T07:45:00.883Z</time></trkpt><trkpt lat="39.1982903" lon="16.2800036"><ele>626.0</ele><time>2026-04-12T07:45:01.883Z</time></trkpt><trkpt lat="39.198195" lon="16.279866"><ele>626.0</ele><time>2026-04-12T07:45:02.883Z</time></trkpt><trkpt lat="39.198086" lon="16.2797261"><ele>626.0</ele><time>2026-04-12T07:45:03.882Z</time></trkpt><trkpt lat="39.1979719" lon="16.2796012"><ele>626.0</ele><time>2026-04-12T07:45:04.883Z</time></trkpt><trkpt lat="39.1978606" lon="16.2794906"><ele>629.0</ele><time>2026-04-12T07:45:05.883Z</time></trkpt><trkpt lat="39.1977523" lon="16.2793846"><ele>632.0</ele><time>2026-04-12T07:45:06.883Z</time></trkpt><trkpt lat="39.1976425" lon="16.2792865"><ele>635.0</ele><time>2026-04-12T07:45:07.883Z</time></trkpt><trkpt lat="39.1975584" lon="16.279157"><ele>638.0</ele><time>2026-04-12T07:45:08.882Z</time></trkpt><trkpt lat="39.1974834" lon="16.2790262"><ele>640.5</ele><time>2026-04-12T07:45:09.883Z</time></trkpt><trkpt lat="39.19739" lon="16.2789187"><ele>643.0</ele><time>2026-04-12T07:45:10.883Z</time></trkpt><trkpt lat="39.1973066" lon="16.2788041"><ele>645.5</ele><time>2026-04-12T07:45:11.883Z</time></trkpt><trkpt lat="39.197219" lon="16.2786857"><ele>648.0</ele><time>2026-04-12T07:45:12.883Z</time></trkpt><trkpt lat="39.1971151" lon="16.2785899"><ele>648.0</ele><time>2026-04-12T07:45:13.883Z</time></trkpt><trkpt lat="39.1970107" lon="16.2784906"><ele>648.0</ele><time>2026-04-12T07:45:14.883Z</time></trkpt><trkpt lat="39.1969068" lon="16.2784078"><ele>648.0</ele><time>2026-04-12T07:45:15.883Z</time></trkpt><trkpt lat="39.196803" lon="16.2783422"><ele>648.0</ele><time>2026-04-12T07:45:16.883Z</time></trkpt><trkpt lat="39.1966982" lon="16.2782848"><ele>648.0</ele><time>2026-04-12T07:45:17.882Z</time></trkpt><trkpt lat="39.1966052" lon="16.2782308"><ele>648.0</ele><time>2026-04-12T07:45:18.883Z</time></trkpt><trkpt lat="39.1964959" lon="16.2781738"><ele>648.0</ele><time>2026-04-12T07:45:19.883Z</time></trkpt><trkpt lat="39.1963804" lon="16.2781164"><ele>648.0</ele><time>2026-04-12T07:45:20.883Z</time></trkpt><trkpt lat="39.1962632" lon="16.2780537"><ele>650.5</ele><time>2026-04-12T07:45:21.883Z</time></trkpt><trkpt lat="39.1961482" lon="16.2779801"><ele>653.0</ele><time>2026-04-12T07:45:22.883Z</time></trkpt><trkpt lat="39.1960378" lon="16.2778951"><ele>655.5</ele><time>2026-04-12T07:45:23.883Z</time></trkpt><trkpt lat="39.1959313" lon="16.2777982"><ele>658.0</ele><time>2026-04-12T07:45:24.883Z</time></trkpt><trkpt lat="39.1958221" lon="16.2776883"><ele>658.0</ele><time>2026-04-12T07:45:25.883Z</time></trkpt><trkpt lat="39.1957134" lon="16.2775789"><ele>658.0</ele><time>2026-04-12T07:45:26.883Z</time></trkpt><trkpt lat="39.195615" lon="16.2774654"><ele>658.0</ele><time>2026-04-12T07:45:27.883Z</time></trkpt><trkpt lat="39.1955161" lon="16.2773453"><ele>658.0</ele><time>2026-04-12T07:45:28.883Z</time></trkpt><trkpt lat="39.1954026" lon="16.2772227"><ele>660.5</ele><time>2026-04-12T07:45:29.883Z</time></trkpt><trkpt lat="39.1952965" lon="16.2771034"><ele>663.0</ele><time>2026-04-12T07:45:30.883Z</time></trkpt><trkpt lat="39.1951683" lon="16.276975"><ele>665.5</ele><time>2026-04-12T07:45:31.882Z</time></trkpt><trkpt lat="39.195065" lon="16.2768567"><ele>668.0</ele><time>2026-04-12T07:45:32.883Z</time></trkpt><trkpt lat="39.1949817" lon="16.276745"><ele>668.0</ele><time>2026-04-12T07:45:33.883Z</time></trkpt><trkpt lat="39.1949067" lon="16.2766417"><ele>668.0</ele><time>2026-04-12T07:45:34.883Z</time></trkpt><trkpt lat="39.1948283" lon="16.2765167"><ele>668.0</ele><time>2026-04-12T07:45:35.883Z</time></trkpt><trkpt lat="39.1947417" lon="16.2764"><ele>668.0</ele><time>2026-04-12T07:45:36.883Z</time></trkpt><trkpt lat="39.1946583" lon="16.2762767"><ele>669.25</ele><time>2026-04-12T07:45:37.882Z</time></trkpt><trkpt lat="39.19458" lon="16.27617"><ele>670.5</ele><time>2026-04-12T07:45:38.883Z</time></trkpt><trkpt lat="39.194505" lon="16.2760717"><ele>671.75</ele><time>2026-04-12T07:45:39.883Z</time></trkpt><trkpt lat="39.194425" lon="16.2759683"><ele>673.0</ele><time>2026-04-12T07:45:40.883Z</time></trkpt><trkpt lat="39.19434" lon="16.2758617"><ele>673.0</ele><time>2026-04-12T07:45:41.883Z</time></trkpt><trkpt lat="39.1942567" lon="16.27574"><ele>673.0</ele><time>2026-04-12T07:45:42.883Z</time></trkpt><trkpt lat="39.1941767" lon="16.2756117"><ele>673.0</ele><time>2026-04-12T07:45:43.883Z</time></trkpt><trkpt lat="39.19409" lon="16.2754767"><ele>673.0</ele><time>2026-04-12T07:45:44.883Z</time></trkpt><trkpt lat="39.1940117" lon="16.2753433"><ele>674.5</ele><time>2026-04-12T07:45:45.883Z</time></trkpt><trkpt lat="39.1939267" lon="16.2752083"><ele>676.0</ele><time>2026-04-12T07:45:46.883Z</time></trkpt><trkpt lat="39.1938333" lon="16.27508"><ele>677.5</ele><time>2026-04-12T07:45:47.882Z</time></trkpt><trkpt lat="39.1937433" lon="16.274975"><ele>679.0</ele><time>2026-04-12T07:45:48.882Z</time></trkpt><trkpt lat="39.1936483" lon="16.27488"><ele>679.0</ele><time>2026-04-12T07:45:49.882Z</time></trkpt><trkpt lat="39.1935417" lon="16.2747983"><ele>679.0</ele><time>2026-04-12T07:45:50.883Z</time></trkpt><trkpt lat="39.1934417" lon="16.2747067"><ele>679.0</ele><time>2026-04-12T07:45:51.883Z</time></trkpt><trkpt lat="39.193335" lon="16.2746417"><ele>679.0</ele><time>2026-04-12T07:45:52.883Z</time></trkpt><trkpt lat="39.1932467" lon="16.27458"><ele>680.3333333333334</ele><time>2026-04-12T07:45:53.883Z</time></trkpt><trkpt lat="39.1931833" lon="16.274495"><ele>681.6666666666667</ele><time>2026-04-12T07:45:54.883Z</time></trkpt><trkpt lat="39.193105" lon="16.2744333"><ele>683.0</ele><time>2026-04-12T07:45:55.883Z</time></trkpt><trkpt lat="39.193035" lon="16.2743817"><ele>684.3333333333334</ele><time>2026-04-12T07:45:56.883Z</time></trkpt><trkpt lat="39.19298" lon="16.2743067"><ele>685.6666666666666</ele><time>2026-04-12T07:45:57.883Z</time></trkpt><trkpt lat="39.1930417" lon="16.274225"><ele>687.0</ele><time>2026-04-12T07:45:58.882Z</time></trkpt><trkpt lat="39.19303" lon="16.27414"><ele>687.0</ele><time>2026-04-12T07:45:59.883Z</time></trkpt><trkpt lat="39.1930433" lon="16.2740567"><ele>687.0</ele><time>2026-04-12T07:46:00.883Z</time></trkpt><trkpt lat="39.19309" lon="16.2739583"><ele>687.0</ele><time>2026-04-12T07:46:01.882Z</time></trkpt><trkpt lat="39.1931717" lon="16.2738533"><ele>687.0</ele><time>2026-04-12T07:46:02.883Z</time></trkpt><trkpt lat="39.193235" lon="16.273735"><ele>687.0</ele><time>2026-04-12T07:46:03.882Z</time></trkpt><trkpt lat="39.1933083" lon="16.273615"><ele>689.4000000000001</ele><time>2026-04-12T07:46:04.883Z</time></trkpt><trkpt lat="39.19338" lon="16.2734717"><ele>691.8000000000001</ele><time>2026-04-12T07:46:05.882Z</time></trkpt><trkpt lat="39.1934233" lon="16.2733467"><ele>694.2</ele><time>2026-04-12T07:46:06.883Z</time></trkpt><trkpt lat="39.1934483" lon="16.2732267"><ele>696.6</ele><time>2026-04-12T07:46:07.883Z</time></trkpt><trkpt lat="39.193455" lon="16.2731083"><ele>699.0</ele><time>2026-04-12T07:46:08.882Z</time></trkpt><trkpt lat="39.19346" lon="16.273"><ele>700.8000000000001</ele><time>2026-04-12T07:46:09.883Z</time></trkpt><trkpt lat="39.1934333" lon="16.2729017"><ele>702.6</ele><time>2026-04-12T07:46:10.883Z</time></trkpt><trkpt lat="39.1934133" lon="16.27281"><ele>704.4</ele><time>2026-04-12T07:46:11.883Z</time></trkpt><trkpt lat="39.1932967" lon="16.2727333"><ele>706.2</ele><time>2026-04-12T07:46:12.882Z</time></trkpt><trkpt lat="39.1931417" lon="16.27267"><ele>708.0</ele><time>2026-04-12T07:46:13.883Z</time></trkpt><trkpt lat="39.192985" lon="16.2726167"><ele>708.0</ele><time>2026-04-12T07:46:14.883Z</time></trkpt><trkpt lat="39.1928667" lon="16.2725667"><ele>708.0</ele><time>2026-04-12T07:46:15.883Z</time></trkpt><trkpt lat="39.19277" lon="16.272525"><ele>708.0</ele><time>2026-04-12T07:46:16.883Z</time></trkpt><trkpt lat="39.1926583" lon="16.2724983"><ele>708.0</ele><time>2026-04-12T07:46:17.883Z</time></trkpt><trkpt lat="39.1925367" lon="16.2725"><ele>708.0</ele><time>2026-04-12T07:46:18.883Z</time></trkpt><trkpt lat="39.19246" lon="16.2724333"><ele>708.0</ele><time>2026-04-12T07:46:20.883Z</time></trkpt><trkpt lat="39.19252" lon="16.272345"><ele>708.0</ele><time>2026-04-12T07:46:23.882Z</time></trkpt><trkpt lat="39.1925867" lon="16.27231"><ele>708.0</ele><time>2026-04-12T07:46:24.883Z</time></trkpt><trkpt lat="39.192675" lon="16.2722717"><ele>708.0</ele><time>2026-04-12T07:46:25.883Z</time></trkpt><trkpt lat="39.192765" lon="16.2722167"><ele>708.0</ele><time>2026-04-12T07:46:26.883Z</time></trkpt><trkpt lat="39.1928617" lon="16.2721617"><ele>710.75</ele><time>2026-04-12T07:46:27.883Z</time></trkpt><trkpt lat="39.19296" lon="16.272085"><ele>713.5</ele><time>2026-04-12T07:46:28.882Z</time></trkpt><trkpt lat="39.193045" lon="16.272025"><ele>716.25</ele><time>2026-04-12T07:46:29.883Z</time></trkpt><trkpt lat="39.1931333" lon="16.2719417"><ele>719.0</ele><time>2026-04-12T07:46:30.883Z</time></trkpt><trkpt lat="39.1932417" lon="16.2718367"><ele>719.25</ele><time>2026-04-12T07:46:31.883Z</time></trkpt><trkpt lat="39.1933333" lon="16.2717267"><ele>719.5</ele><time>2026-04-12T07:46:32.883Z</time></trkpt><trkpt lat="39.1934133" lon="16.2716133"><ele>719.75</ele><time>2026-04-12T07:46:33.882Z</time></trkpt><trkpt lat="39.193495" lon="16.27149"><ele>720.0</ele><time>2026-04-12T07:46:34.883Z</time></trkpt><trkpt lat="39.193575" lon="16.2713683"><ele>722.0</ele><time>2026-04-12T07:46:35.883Z</time></trkpt><trkpt lat="39.1936567" lon="16.2712617"><ele>724.0</ele><time>2026-04-12T07:46:36.882Z</time></trkpt><trkpt lat="39.1937317" lon="16.2711383"><ele>726.0</ele><time>2026-04-12T07:46:37.882Z</time></trkpt><trkpt lat="39.1938083" lon="16.27102"><ele>728.0</ele><time>2026-04-12T07:46:38.882Z</time></trkpt><trkpt lat="39.1938617" lon="16.27089"><ele>728.0</ele><time>2026-04-12T07:46:39.883Z</time></trkpt><trkpt lat="39.1939333" lon="16.270745"><ele>728.0</ele><time>2026-04-12T07:46:40.883Z</time></trkpt><trkpt lat="39.19401" lon="16.270605"><ele>728.0</ele><time>2026-04-12T07:46:41.883Z</time></trkpt><trkpt lat="39.1940767" lon="16.2704533"><ele>728.0</ele><time>2026-04-12T07:46:42.883Z</time></trkpt><trkpt lat="39.1941583" lon="16.2703067"><ele>729.25</ele><time>2026-04-12T07:46:43.882Z</time></trkpt><trkpt lat="39.1942483" lon="16.2701633"><ele>730.5</ele><time>2026-04-12T07:46:44.883Z</time></trkpt><trkpt lat="39.194335" lon="16.2700167"><ele>731.75</ele><time>2026-04-12T07:46:45.883Z</time></trkpt><trkpt lat="39.1944183" lon="16.2698617"><ele>733.0</ele><time>2026-04-12T07:46:46.883Z</time></trkpt><trkpt lat="39.1945" lon="16.2697117"><ele>734.6666666666667</ele><time>2026-04-12T07:46:47.882Z</time></trkpt><trkpt lat="39.1946067" lon="16.2695433"><ele>736.3333333333334</ele><time>2026-04-12T07:46:48.882Z</time></trkpt><trkpt lat="39.1946967" lon="16.2693683"><ele>738.0</ele><time>2026-04-12T07:46:49.882Z</time></trkpt><trkpt lat="39.19478" lon="16.2691933"><ele>739.0</ele><time>2026-04-12T07:46:50.883Z</time></trkpt><trkpt lat="39.1948633" lon="16.2690283"><ele>740.0</ele><time>2026-04-12T07:46:51.883Z</time></trkpt><trkpt lat="39.19494" lon="16.2688667"><ele>741.0</ele><time>2026-04-12T07:46:52.883Z</time></trkpt><trkpt lat="39.19501" lon="16.2687133"><ele>742.0</ele><time>2026-04-12T07:46:53.882Z</time></trkpt><trkpt lat="39.19509" lon="16.2685683"><ele>742.0</ele><time>2026-04-12T07:46:54.883Z</time></trkpt><trkpt lat="39.195165" lon="16.2684217"><ele>742.0</ele><time>2026-04-12T07:46:55.883Z</time></trkpt><trkpt lat="39.1952533" lon="16.26829"><ele>742.0</ele><time>2026-04-12T07:46:56.882Z</time></trkpt><trkpt lat="39.1953567" lon="16.2682233"><ele>742.0</ele><time>2026-04-12T07:46:57.883Z</time></trkpt><trkpt lat="39.195475" lon="16.2681783"><ele>742.0</ele><time>2026-04-12T07:46:58.883Z</time></trkpt><trkpt lat="39.1956133" lon="16.2681317"><ele>742.0</ele><time>2026-04-12T07:46:59.882Z</time></trkpt><trkpt lat="39.19571" lon="16.268065"><ele>742.0</ele><time>2026-04-12T07:47:00.883Z</time></trkpt><trkpt lat="39.1958233" lon="16.268"><ele>742.0</ele><time>2026-04-12T07:47:01.883Z</time></trkpt><trkpt lat="39.1959383" lon="16.2679183"><ele>740.0</ele><time>2026-04-12T07:47:02.883Z</time></trkpt><trkpt lat="39.1960583" lon="16.26785"><ele>738.0</ele><time>2026-04-12T07:47:03.883Z</time></trkpt><trkpt lat="39.1961983" lon="16.2678067"><ele>736.0</ele><time>2026-04-12T07:47:04.883Z</time></trkpt><trkpt lat="39.1963167" lon="16.26774"><ele>734.0</ele><time>2026-04-12T07:47:05.883Z</time></trkpt><trkpt lat="39.1964383" lon="16.2676567"><ele>734.6666666666666</ele><time>2026-04-12T07:47:06.883Z</time></trkpt><trkpt lat="39.19657" lon="16.2675683"><ele>735.3333333333334</ele><time>2026-04-12T07:47:07.883Z</time></trkpt><trkpt lat="39.196705" lon="16.267475"><ele>736.0</ele><time>2026-04-12T07:47:08.883Z</time></trkpt><trkpt lat="39.19684" lon="16.267375"><ele>737.6666666666667</ele><time>2026-04-12T07:47:09.883Z</time></trkpt><trkpt lat="39.196965" lon="16.2672617"><ele>739.3333333333334</ele><time>2026-04-12T07:47:10.883Z</time></trkpt><trkpt lat="39.1970917" lon="16.2671417"><ele>741.0</ele><time>2026-04-12T07:47:11.883Z</time></trkpt><trkpt lat="39.1972117" lon="16.2670433"><ele>741.0</ele><time>2026-04-12T07:47:12.883Z</time></trkpt><trkpt lat="39.1973283" lon="16.2669233"><ele>741.0</ele><time>2026-04-12T07:47:13.883Z</time></trkpt><trkpt lat="39.1974483" lon="16.2667983"><ele>741.0</ele><time>2026-04-12T07:47:14.883Z</time></trkpt><trkpt lat="39.1975583" lon="16.266685"><ele>741.0</ele><time>2026-04-12T07:47:15.882Z</time></trkpt><trkpt lat="39.197665" lon="16.26656"><ele>745.75</ele><time>2026-04-12T07:47:16.883Z</time></trkpt><trkpt lat="39.19776" lon="16.2664183"><ele>750.5</ele><time>2026-04-12T07:47:17.882Z</time></trkpt><trkpt lat="39.197845" lon="16.26628"><ele>755.25</ele><time>2026-04-12T07:47:18.882Z</time></trkpt><trkpt lat="39.19792" lon="16.2661417"><ele>760.0</ele><time>2026-04-12T07:47:19.883Z</time></trkpt><trkpt lat="39.1979983" lon="16.266015"><ele>760.0</ele><time>2026-04-12T07:47:20.882Z</time></trkpt><trkpt lat="39.1980583" lon="16.2658633"><ele>760.0</ele><time>2026-04-12T07:47:21.883Z</time></trkpt><trkpt lat="39.1980967" lon="16.265685"><ele>760.0</ele><time>2026-04-12T07:47:22.883Z</time></trkpt><trkpt lat="39.1981467" lon="16.2655067"><ele>760.0</ele><time>2026-04-12T07:47:23.882Z</time></trkpt><trkpt lat="39.1982233" lon="16.2653467"><ele>761.6666666666667</ele><time>2026-04-12T07:47:24.882Z</time></trkpt><trkpt lat="39.1983033" lon="16.2651833"><ele>763.3333333333334</ele><time>2026-04-12T07:47:25.882Z</time></trkpt><trkpt lat="39.1983983" lon="16.2650233"><ele>765.0</ele><time>2026-04-12T07:47:26.883Z</time></trkpt><trkpt lat="39.1984767" lon="16.2648633"><ele>767.5</ele><time>2026-04-12T07:47:27.883Z</time></trkpt><trkpt lat="39.1985483" lon="16.2646917"><ele>770.0</ele><time>2026-04-12T07:47:28.882Z</time></trkpt><trkpt lat="39.19862" lon="16.264535"><ele>772.5</ele><time>2026-04-12T07:47:29.883Z</time></trkpt><trkpt lat="39.198665" lon="16.2643667"><ele>775.0</ele><time>2026-04-12T07:47:30.883Z</time></trkpt><trkpt lat="39.1987317" lon="16.2642183"><ele>775.0</ele><time>2026-04-12T07:47:31.883Z</time></trkpt><trkpt lat="39.198805" lon="16.2640667"><ele>775.0</ele><time>2026-04-12T07:47:32.883Z</time></trkpt><trkpt lat="39.198875" lon="16.2639183"><ele>775.0</ele><time>2026-04-12T07:47:33.883Z</time></trkpt><trkpt lat="39.1989333" lon="16.2637517"><ele>775.0</ele><time>2026-04-12T07:47:34.882Z</time></trkpt><trkpt lat="39.19901" lon="16.2636017"><ele>776.75</ele><time>2026-04-12T07:47:35.883Z</time></trkpt><trkpt lat="39.1991033" lon="16.2634617"><ele>778.5</ele><time>2026-04-12T07:47:36.883Z</time></trkpt><trkpt lat="39.19919" lon="16.2633317"><ele>780.25</ele><time>2026-04-12T07:47:37.883Z</time></trkpt><trkpt lat="39.1992683" lon="16.2632"><ele>782.0</ele><time>2026-04-12T07:47:38.883Z</time></trkpt><trkpt lat="39.1993617" lon="16.2630517"><ele>788.0</ele><time>2026-04-12T07:47:39.882Z</time></trkpt><trkpt lat="39.1994683" lon="16.2629133"><ele>794.0</ele><time>2026-04-12T07:47:40.883Z</time></trkpt><trkpt lat="39.1995867" lon="16.2627967"><ele>800.0</ele><time>2026-04-12T07:47:41.883Z</time></trkpt><trkpt lat="39.1997133" lon="16.2626867"><ele>800.0</ele><time>2026-04-12T07:47:42.883Z</time></trkpt><trkpt lat="39.199825" lon="16.2626183"><ele>800.0</ele><time>2026-04-12T07:47:43.882Z</time></trkpt><trkpt lat="39.1999433" lon="16.262525"><ele>800.0</ele><time>2026-04-12T07:47:44.883Z</time></trkpt><trkpt lat="39.200055" lon="16.2624267"><ele>800.0</ele><time>2026-04-12T07:47:45.883Z</time></trkpt><trkpt lat="39.2001967" lon="16.2623983"><ele>798.5</ele><time>2026-04-12T07:47:46.883Z</time></trkpt><trkpt lat="39.2002916" lon="16.2624568"><ele>797.0</ele><time>2026-04-12T07:47:47.882Z</time></trkpt><trkpt lat="39.2004016" lon="16.2625037"><ele>795.5</ele><time>2026-04-12T07:47:48.883Z</time></trkpt><trkpt lat="39.2005184" lon="16.2625442"><ele>794.0</ele><time>2026-04-12T07:47:49.883Z</time></trkpt><trkpt lat="39.2006549" lon="16.2625882"><ele>793.5</ele><time>2026-04-12T07:47:50.883Z</time></trkpt><trkpt lat="39.2007955" lon="16.2626251"><ele>793.0</ele><time>2026-04-12T07:47:51.883Z</time></trkpt><trkpt lat="39.200938" lon="16.2626703"><ele>792.5</ele><time>2026-04-12T07:47:52.883Z</time></trkpt><trkpt lat="39.2010732" lon="16.2626961"><ele>792.0</ele><time>2026-04-12T07:47:53.883Z</time></trkpt><trkpt lat="39.2012173" lon="16.2627101"><ele>792.0</ele><time>2026-04-12T07:47:54.883Z</time></trkpt><trkpt lat="39.2013458" lon="16.262698"><ele>792.0</ele><time>2026-04-12T07:47:55.883Z</time></trkpt><trkpt lat="39.2014802" lon="16.2626975"><ele>792.0</ele><time>2026-04-12T07:47:56.883Z</time></trkpt><trkpt lat="39.2015973" lon="16.2626501"><ele>792.0</ele><time>2026-04-12T07:47:57.882Z</time></trkpt><trkpt lat="39.2017129" lon="16.2625943"><ele>791.0</ele><time>2026-04-12T07:47:58.882Z</time></trkpt><trkpt lat="39.2018119" lon="16.2625286"><ele>790.0</ele><time>2026-04-12T07:47:59.883Z</time></trkpt><trkpt lat="39.2019099" lon="16.2624745"><ele>789.0</ele><time>2026-04-12T07:48:00.882Z</time></trkpt><trkpt lat="39.2020257" lon="16.262429"><ele>788.0</ele><time>2026-04-12T07:48:01.882Z</time></trkpt><trkpt lat="39.2021547" lon="16.2623839"><ele>788.0</ele><time>2026-04-12T07:48:02.883Z</time></trkpt><trkpt lat="39.2022853" lon="16.2623547"><ele>788.0</ele><time>2026-04-12T07:48:03.883Z</time></trkpt><trkpt lat="39.2024027" lon="16.2623455"><ele>788.0</ele><time>2026-04-12T07:48:04.882Z</time></trkpt><trkpt lat="39.2025231" lon="16.2623276"><ele>788.0</ele><time>2026-04-12T07:48:05.883Z</time></trkpt><trkpt lat="39.2026113" lon="16.2623488"><ele>788.5999999999999</ele><time>2026-04-12T07:48:06.883Z</time></trkpt><trkpt lat="39.2027105" lon="16.2623605"><ele>789.1999999999999</ele><time>2026-04-12T07:48:07.882Z</time></trkpt><trkpt lat="39.2028109" lon="16.2623783"><ele>789.8</ele><time>2026-04-12T07:48:08.882Z</time></trkpt><trkpt lat="39.2029036" lon="16.2624106"><ele>790.4</ele><time>2026-04-12T07:48:09.883Z</time></trkpt><trkpt lat="39.2029938" lon="16.2624574"><ele>791.0</ele><time>2026-04-12T07:48:10.883Z</time></trkpt><trkpt lat="39.2030797" lon="16.2625207"><ele>791.0</ele><time>2026-04-12T07:48:11.883Z</time></trkpt><trkpt lat="39.2031067" lon="16.262715"><ele>791.0</ele><time>2026-04-12T07:48:12.882Z</time></trkpt><trkpt lat="39.2031141" lon="16.2628846"><ele>791.0</ele><time>2026-04-12T07:48:13.883Z</time></trkpt><trkpt lat="39.2031147" lon="16.2630756"><ele>791.0</ele><time>2026-04-12T07:48:14.883Z</time></trkpt><trkpt lat="39.203152" lon="16.263193"><ele>792.8</ele><time>2026-04-12T07:48:15.882Z</time></trkpt><trkpt lat="39.2032344" lon="16.2632713"><ele>794.5999999999999</ele><time>2026-04-12T07:48:16.883Z</time></trkpt><trkpt lat="39.2033335" lon="16.2633373"><ele>796.4</ele><time>2026-04-12T07:48:17.883Z</time></trkpt><trkpt lat="39.2034316" lon="16.2633933"><ele>798.2</ele><time>2026-04-12T07:48:18.883Z</time></trkpt><trkpt lat="39.2035359" lon="16.2634245"><ele>800.0</ele><time>2026-04-12T07:48:19.883Z</time></trkpt><trkpt lat="39.2036546" lon="16.2634601"><ele>800.0</ele><time>2026-04-12T07:48:20.883Z</time></trkpt><trkpt lat="39.2037858" lon="16.2634939"><ele>800.0</ele><time>2026-04-12T07:48:21.883Z</time></trkpt><trkpt lat="39.2039126" lon="16.2635186"><ele>800.0</ele><time>2026-04-12T07:48:22.883Z</time></trkpt><trkpt lat="39.2040241" lon="16.2635225"><ele>800.0</ele><time>2026-04-12T07:48:23.883Z</time></trkpt><trkpt lat="39.2041306" lon="16.2635066"><ele>801.4</ele><time>2026-04-12T07:48:24.883Z</time></trkpt><trkpt lat="39.204222" lon="16.2634933"><ele>802.8</ele><time>2026-04-12T07:48:25.882Z</time></trkpt><trkpt lat="39.2043003" lon="16.2634548"><ele>804.2</ele><time>2026-04-12T07:48:26.883Z</time></trkpt><trkpt lat="39.2043819" lon="16.2633995"><ele>805.6</ele><time>2026-04-12T07:48:27.883Z</time></trkpt><trkpt lat="39.2044704" lon="16.2633635"><ele>807.0</ele><time>2026-04-12T07:48:28.882Z</time></trkpt><trkpt lat="39.2045708" lon="16.2633514"><ele>807.0</ele><time>2026-04-12T07:48:29.882Z</time></trkpt><trkpt lat="39.2046786" lon="16.2633565"><ele>807.0</ele><time>2026-04-12T07:48:30.883Z</time></trkpt><trkpt lat="39.2047806" lon="16.2633885"><ele>807.0</ele><time>2026-04-12T07:48:31.882Z</time></trkpt><trkpt lat="39.2048669" lon="16.2634339"><ele>807.0</ele><time>2026-04-12T07:48:32.882Z</time></trkpt><trkpt lat="39.2049117" lon="16.263506"><ele>807.0</ele><time>2026-04-12T07:48:33.882Z</time></trkpt><trkpt lat="39.2049477" lon="16.2636151"><ele>807.0</ele><time>2026-04-12T07:48:34.883Z</time></trkpt><trkpt lat="39.2050271" lon="16.26374"><ele>807.0</ele><time>2026-04-12T07:48:35.883Z</time></trkpt><trkpt lat="39.2051431" lon="16.2638261"><ele>807.0</ele><time>2026-04-12T07:48:36.882Z</time></trkpt><trkpt lat="39.2052679" lon="16.2638527"><ele>807.0</ele><time>2026-04-12T07:48:40.883Z</time></trkpt><trkpt lat="39.2053575" lon="16.2638471"><ele>807.0</ele><time>2026-04-12T07:48:41.883Z</time></trkpt><trkpt lat="39.2054243" lon="16.2638263"><ele>807.0</ele><time>2026-04-12T07:48:42.883Z</time></trkpt><trkpt lat="39.2054837" lon="16.2637935"><ele>807.0</ele><time>2026-04-12T07:48:43.883Z</time></trkpt><trkpt lat="39.205532" lon="16.2637322"><ele>807.0</ele><time>2026-04-12T07:48:44.883Z</time></trkpt><trkpt lat="39.2055216" lon="16.2635621"><ele>807.0</ele><time>2026-04-12T07:48:46.883Z</time></trkpt><trkpt lat="39.2055061" lon="16.2634693"><ele>807.0</ele><time>2026-04-12T07:48:47.883Z</time></trkpt><trkpt lat="39.2055199" lon="16.2633887"><ele>807.0</ele><time>2026-04-12T07:48:48.883Z</time></trkpt><trkpt lat="39.2055432" lon="16.2633035"><ele>807.0</ele><time>2026-04-12T07:48:49.882Z</time></trkpt><trkpt lat="39.2055732" lon="16.2632012"><ele>807.0</ele><time>2026-04-12T07:48:50.883Z</time></trkpt><trkpt lat="39.2055988" lon="16.2630902"><ele>807.0</ele><time>2026-04-12T07:48:51.883Z</time></trkpt><trkpt lat="39.2056228" lon="16.262992"><ele>807.0</ele><time>2026-04-12T07:48:52.883Z</time></trkpt><trkpt lat="39.205638" lon="16.2629008"><ele>807.0</ele><time>2026-04-12T07:48:53.883Z</time></trkpt><trkpt lat="39.2056539" lon="16.2628106"><ele>810.4285714285714</ele><time>2026-04-12T07:48:54.883Z</time></trkpt><trkpt lat="39.2056688" lon="16.2627244"><ele>813.8571428571429</ele><time>2026-04-12T07:48:55.883Z</time></trkpt><trkpt lat="39.2056947" lon="16.262633"><ele>817.2857142857142</ele><time>2026-04-12T07:48:56.882Z</time></trkpt><trkpt lat="39.2057276" lon="16.2625439"><ele>820.7142857142858</ele><time>2026-04-12T07:48:57.883Z</time></trkpt><trkpt lat="39.2057285" lon="16.2624593"><ele>824.1428571428571</ele><time>2026-04-12T07:48:58.882Z</time></trkpt><trkpt lat="39.2057205" lon="16.2623733"><ele>827.5714285714286</ele><time>2026-04-12T07:48:59.882Z</time></trkpt><trkpt lat="39.2057114" lon="16.2622844"><ele>831.0</ele><time>2026-04-12T07:49:00.882Z</time></trkpt><trkpt lat="39.2056982" lon="16.2621935"><ele>832.6666666666666</ele><time>2026-04-12T07:49:01.883Z</time></trkpt><trkpt lat="39.2056878" lon="16.2621018"><ele>834.3333333333333</ele><time>2026-04-12T07:49:02.883Z</time></trkpt><trkpt lat="39.2056581" lon="16.2619991"><ele>836.0</ele><time>2026-04-12T07:49:03.883Z</time></trkpt><trkpt lat="39.2056293" lon="16.2618883"><ele>837.6666666666666</ele><time>2026-04-12T07:49:04.882Z</time></trkpt><trkpt lat="39.2056085" lon="16.2618014"><ele>839.3333333333333</ele><time>2026-04-12T07:49:05.883Z</time></trkpt><trkpt lat="39.2055749" lon="16.2617162"><ele>841.0</ele><time>2026-04-12T07:49:06.882Z</time></trkpt><trkpt lat="39.2055343" lon="16.2616353"><ele>841.0</ele><time>2026-04-12T07:49:07.883Z</time></trkpt><trkpt lat="39.2055193" lon="16.261549"><ele>841.0</ele><time>2026-04-12T07:49:08.883Z</time></trkpt><trkpt lat="39.2055118" lon="16.2614626"><ele>841.0</ele><time>2026-04-12T07:49:09.882Z</time></trkpt><trkpt lat="39.2055103" lon="16.2613263"><ele>841.0</ele><time>2026-04-12T07:49:11.882Z</time></trkpt><trkpt lat="39.2054992" lon="16.2611958"><ele>841.0</ele><time>2026-04-12T07:49:13.882Z</time></trkpt><trkpt lat="39.2054981" lon="16.2610577"><ele>844.4</ele><time>2026-04-12T07:49:15.882Z</time></trkpt><trkpt lat="39.2055358" lon="16.2609579"><ele>847.8</ele><time>2026-04-12T07:49:17.883Z</time></trkpt><trkpt lat="39.2056184" lon="16.2609214"><ele>851.1999999999999</ele><time>2026-04-12T07:49:19.882Z</time></trkpt><trkpt lat="39.2057034" lon="16.2608384"><ele>854.5999999999999</ele><time>2026-04-12T07:49:21.883Z</time></trkpt><trkpt lat="39.2058386" lon="16.2608095"><ele>858.0</ele><time>2026-04-12T07:49:23.883Z</time></trkpt><trkpt lat="39.2059209" lon="16.2607949"><ele>858.0</ele><time>2026-04-12T07:49:25.883Z</time></trkpt><trkpt lat="39.2058667" lon="16.2607"><ele>858.0</ele><time>2026-04-12T07:49:29.883Z</time></trkpt><trkpt lat="39.2058133" lon="16.2606567"><ele>858.0</ele><time>2026-04-12T07:49:30.883Z</time></trkpt><trkpt lat="39.20576" lon="16.26061"><ele>858.0</ele><time>2026-04-12T07:49:31.882Z</time></trkpt><trkpt lat="39.2056917" lon="16.2604867"><ele>858.0</ele><time>2026-04-12T07:49:33.883Z</time></trkpt><trkpt lat="39.2056233" lon="16.2604333"><ele>858.0</ele><time>2026-04-12T07:49:34.883Z</time></trkpt><trkpt lat="39.2055783" lon="16.260365"><ele>861.1666666666666</ele><time>2026-04-12T07:49:35.883Z</time></trkpt><trkpt lat="39.205535" lon="16.260295"><ele>864.3333333333333</ele><time>2026-04-12T07:49:36.883Z</time></trkpt><trkpt lat="39.2055" lon="16.2602133"><ele>867.5</ele><time>2026-04-12T07:49:37.883Z</time></trkpt><trkpt lat="39.205475" lon="16.2601317"><ele>870.6666666666666</ele><time>2026-04-12T07:49:38.883Z</time></trkpt><trkpt lat="39.2054483" lon="16.2599717"><ele>873.8333333333333</ele><time>2026-04-12T07:49:40.883Z</time></trkpt><trkpt lat="39.2054433" lon="16.25989"><ele>877.0</ele><time>2026-04-12T07:49:41.883Z</time></trkpt><trkpt lat="39.2054917" lon="16.2597383"><ele>878.6</ele><time>2026-04-12T07:49:43.882Z</time></trkpt><trkpt lat="39.2055283" lon="16.259615"><ele>880.2</ele><time>2026-04-12T07:49:44.883Z</time></trkpt><trkpt lat="39.2055467" lon="16.2594617"><ele>881.8</ele><time>2026-04-12T07:49:45.883Z</time></trkpt><trkpt lat="39.2055667" lon="16.2593367"><ele>883.4</ele><time>2026-04-12T07:49:46.883Z</time></trkpt><trkpt lat="39.2055883" lon="16.2592183"><ele>885.0</ele><time>2026-04-12T07:49:47.883Z</time></trkpt><trkpt lat="39.20563" lon="16.2591367"><ele>885.0</ele><time>2026-04-12T07:49:48.883Z</time></trkpt><trkpt lat="39.2056617" lon="16.259045"><ele>885.0</ele><time>2026-04-12T07:49:49.883Z</time></trkpt><trkpt lat="39.205675" lon="16.2589483"><ele>885.0</ele><time>2026-04-12T07:49:50.883Z</time></trkpt><trkpt lat="39.2056883" lon="16.258835"><ele>885.0</ele><time>2026-04-12T07:49:51.883Z</time></trkpt><trkpt lat="39.2057083" lon="16.2587317"><ele>885.0</ele><time>2026-04-12T07:49:52.883Z</time></trkpt><trkpt lat="39.2057217" lon="16.2586183"><ele>885.0</ele><time>2026-04-12T07:49:53.883Z</time></trkpt><trkpt lat="39.2057267" lon="16.2584933"><ele>885.1666666666666</ele><time>2026-04-12T07:49:54.883Z</time></trkpt><trkpt lat="39.2057317" lon="16.2583767"><ele>885.3333333333333</ele><time>2026-04-12T07:49:55.883Z</time></trkpt><trkpt lat="39.2057317" lon="16.2582667"><ele>885.5</ele><time>2026-04-12T07:49:56.883Z</time></trkpt><trkpt lat="39.2057217" lon="16.2581567"><ele>885.6666666666666</ele><time>2026-04-12T07:49:57.883Z</time></trkpt><trkpt lat="39.2057233" lon="16.2580467"><ele>885.8333333333333</ele><time>2026-04-12T07:49:58.882Z</time></trkpt><trkpt lat="39.2057" lon="16.2579517"><ele>886.0</ele><time>2026-04-12T07:49:59.883Z</time></trkpt><trkpt lat="39.2056867" lon="16.2578417"><ele>885.1999999999999</ele><time>2026-04-12T07:50:00.882Z</time></trkpt><trkpt lat="39.20569" lon="16.2577067"><ele>884.3999999999999</ele><time>2026-04-12T07:50:02.883Z</time></trkpt><trkpt lat="39.2056617" lon="16.2576017"><ele>883.6</ele><time>2026-04-12T07:50:04.882Z</time></trkpt><trkpt lat="39.2056383" lon="16.2574733"><ele>882.8</ele><time>2026-04-12T07:50:06.883Z</time></trkpt><trkpt lat="39.2055717" lon="16.2574117"><ele>882.0</ele><time>2026-04-12T07:50:07.882Z</time></trkpt><trkpt lat="39.20552" lon="16.2573283"><ele>888.0</ele><time>2026-04-12T07:50:08.882Z</time></trkpt><trkpt lat="39.2054633" lon="16.2572467"><ele>894.0</ele><time>2026-04-12T07:50:09.882Z</time></trkpt><trkpt lat="39.205335" lon="16.25705"><ele>900.0</ele><time>2026-04-12T07:50:11.882Z</time></trkpt><trkpt lat="39.2053033" lon="16.25695"><ele>906.0</ele><time>2026-04-12T07:50:13.882Z</time></trkpt><trkpt lat="39.20525" lon="16.2568683"><ele>906.0</ele><time>2026-04-12T07:50:15.883Z</time></trkpt><trkpt lat="39.2051883" lon="16.2568333"><ele>905.9999999999999</ele><time>2026-04-12T07:50:17.883Z</time></trkpt><trkpt lat="39.20508" lon="16.256845"><ele>905.9999999999999</ele><time>2026-04-12T07:50:20.882Z</time></trkpt><trkpt lat="39.2051383" lon="16.25692"><ele>906.0</ele><time>2026-04-12T07:50:24.882Z</time></trkpt><trkpt lat="39.205215" lon="16.2568867"><ele>906.0</ele><time>2026-04-12T07:50:27.883Z</time></trkpt><trkpt lat="39.20537" lon="16.2568483"><ele>906.0</ele><time>2026-04-12T07:50:29.883Z</time></trkpt><trkpt lat="39.2054817" lon="16.256825"><ele>905.9999999999999</ele><time>2026-04-12T07:50:31.883Z</time></trkpt><trkpt lat="39.2055967" lon="16.2567933"><ele>905.9999999999999</ele><time>2026-04-12T07:50:33.883Z</time></trkpt><trkpt lat="39.205665" lon="16.2567767"><ele>906.0</ele><time>2026-04-12T07:50:34.882Z</time></trkpt><trkpt lat="39.205745" lon="16.2567683"><ele>906.0</ele><time>2026-04-12T07:50:35.882Z</time></trkpt><trkpt lat="39.2058183" lon="16.2567583"><ele>905.3333333333334</ele><time>2026-04-12T07:50:36.883Z</time></trkpt><trkpt lat="39.205895" lon="16.2567683"><ele>904.6666666666667</ele><time>2026-04-12T07:50:37.882Z</time></trkpt><trkpt lat="39.2059683" lon="16.2567733"><ele>904.0</ele><time>2026-04-12T07:50:38.883Z</time></trkpt><trkpt lat="39.206065" lon="16.256775"><ele>903.3333333333334</ele><time>2026-04-12T07:50:39.883Z</time></trkpt><trkpt lat="39.206155" lon="16.2567617"><ele>902.6666666666667</ele><time>2026-04-12T07:50:40.883Z</time></trkpt><trkpt lat="39.206235" lon="16.256775"><ele>902.0</ele><time>2026-04-12T07:50:41.882Z</time></trkpt><trkpt lat="39.20633" lon="16.256765"><ele>902.0000000000001</ele><time>2026-04-12T07:50:42.883Z</time></trkpt><trkpt lat="39.2064117" lon="16.2567733"><ele>902.0</ele><time>2026-04-12T07:50:43.883Z</time></trkpt><trkpt lat="39.20647" lon="16.2567417"><ele>902.0</ele><time>2026-04-12T07:50:44.883Z</time></trkpt><trkpt lat="39.206565" lon="16.2567167"><ele>902.0</ele><time>2026-04-12T07:50:46.883Z</time></trkpt><trkpt lat="39.20661" lon="16.2566483"><ele>902.0000000000001</ele><time>2026-04-12T07:50:48.883Z</time></trkpt><trkpt lat="39.2066783" lon="16.2566017"><ele>902.0</ele><time>2026-04-12T07:50:50.883Z</time></trkpt><trkpt lat="39.2067717" lon="16.2565467"><ele>907.2</ele><time>2026-04-12T07:50:52.883Z</time></trkpt><trkpt lat="39.206865" lon="16.2564267"><ele>912.4000000000001</ele><time>2026-04-12T07:50:54.883Z</time></trkpt><trkpt lat="39.2069183" lon="16.256335"><ele>917.5999999999999</ele><time>2026-04-12T07:50:55.882Z</time></trkpt><trkpt lat="39.2069683" lon="16.2562417"><ele>922.8</ele><time>2026-04-12T07:50:56.883Z</time></trkpt><trkpt lat="39.2070183" lon="16.2561417"><ele>928.0</ele><time>2026-04-12T07:50:57.883Z</time></trkpt><trkpt lat="39.2070617" lon="16.2560733"><ele>928.0</ele><time>2026-04-12T07:50:58.882Z</time></trkpt><trkpt lat="39.2071367" lon="16.2560167"><ele>928.0</ele><time>2026-04-12T07:50:59.883Z</time></trkpt><trkpt lat="39.2072" lon="16.2559417"><ele>928.0</ele><time>2026-04-12T07:51:00.882Z</time></trkpt><trkpt lat="39.207265" lon="16.2558533"><ele>928.0</ele><time>2026-04-12T07:51:01.882Z</time></trkpt><trkpt lat="39.2073317" lon="16.2557517"><ele>928.0</ele><time>2026-04-12T07:51:02.882Z</time></trkpt><trkpt lat="39.2073933" lon="16.2556567"><ele>929.5999999999999</ele><time>2026-04-12T07:51:03.883Z</time></trkpt><trkpt lat="39.20746" lon="16.2555717"><ele>931.1999999999999</ele><time>2026-04-12T07:51:04.883Z</time></trkpt><trkpt lat="39.2075283" lon="16.2554833"><ele>932.8</ele><time>2026-04-12T07:51:05.882Z</time></trkpt><trkpt lat="39.2075967" lon="16.2554033"><ele>934.4</ele><time>2026-04-12T07:51:06.882Z</time></trkpt><trkpt lat="39.2076633" lon="16.255345"><ele>936.0</ele><time>2026-04-12T07:51:07.883Z</time></trkpt><trkpt lat="39.207775" lon="16.2552367"><ele>936.0</ele><time>2026-04-12T07:51:09.883Z</time></trkpt><trkpt lat="39.2078433" lon="16.2551717"><ele>936.0</ele><time>2026-04-12T07:51:10.883Z</time></trkpt><trkpt lat="39.2079333" lon="16.255125"><ele>936.0</ele><time>2026-04-12T07:51:12.883Z</time></trkpt><trkpt lat="39.20789" lon="16.255065"><ele>936.0</ele><time>2026-04-12T07:51:14.883Z</time></trkpt><trkpt lat="39.2078633" lon="16.25498"><ele>936.0</ele><time>2026-04-12T07:51:16.883Z</time></trkpt><trkpt lat="39.2078467" lon="16.254845"><ele>936.0</ele><time>2026-04-12T07:51:18.883Z</time></trkpt><trkpt lat="39.207885" lon="16.2547417"><ele>938.1666666666666</ele><time>2026-04-12T07:51:20.883Z</time></trkpt><trkpt lat="39.207915" lon="16.25466"><ele>940.3333333333333</ele><time>2026-04-12T07:51:21.883Z</time></trkpt><trkpt lat="39.2079433" lon="16.2545767"><ele>942.5</ele><time>2026-04-12T07:51:22.883Z</time></trkpt><trkpt lat="39.2079733" lon="16.2545017"><ele>944.6666666666666</ele><time>2026-04-12T07:51:23.883Z</time></trkpt><trkpt lat="39.2079783" lon="16.2544183"><ele>946.8333333333333</ele><time>2026-04-12T07:51:24.883Z</time></trkpt><trkpt lat="39.2079467" lon="16.25429"><ele>949.0</ele><time>2026-04-12T07:51:25.882Z</time></trkpt><trkpt lat="39.2079133" lon="16.2541217"><ele>949.0</ele><time>2026-04-12T07:51:26.883Z</time></trkpt><trkpt lat="39.2078817" lon="16.2539833"><ele>949.0</ele><time>2026-04-12T07:51:27.883Z</time></trkpt><trkpt lat="39.207845" lon="16.2538283"><ele>949.0</ele><time>2026-04-12T07:51:28.883Z</time></trkpt><trkpt lat="39.2078133" lon="16.253685"><ele>949.0</ele><time>2026-04-12T07:51:29.883Z</time></trkpt><trkpt lat="39.2077567" lon="16.25354"><ele>949.8000000000001</ele><time>2026-04-12T07:51:30.882Z</time></trkpt><trkpt lat="39.2076917" lon="16.2533933"><ele>950.6000000000001</ele><time>2026-04-12T07:51:31.882Z</time></trkpt><trkpt lat="39.20766" lon="16.2532733"><ele>951.4</ele><time>2026-04-12T07:51:32.883Z</time></trkpt><trkpt lat="39.207635" lon="16.2531583"><ele>952.2</ele><time>2026-04-12T07:51:33.882Z</time></trkpt><trkpt lat="39.2076067" lon="16.253025"><ele>953.0</ele><time>2026-04-12T07:51:34.883Z</time></trkpt><trkpt lat="39.2075883" lon="16.2528967"><ele>953.0000000000001</ele><time>2026-04-12T07:51:35.883Z</time></trkpt><trkpt lat="39.2075683" lon="16.252785"><ele>953.0</ele><time>2026-04-12T07:51:36.883Z</time></trkpt><trkpt lat="39.207555" lon="16.25268"><ele>953.0</ele><time>2026-04-12T07:51:37.883Z</time></trkpt><trkpt lat="39.2075417" lon="16.2525767"><ele>953.0</ele><time>2026-04-12T07:51:38.883Z</time></trkpt><trkpt lat="39.2075083" lon="16.2524867"><ele>953.0000000000001</ele><time>2026-04-12T07:51:39.883Z</time></trkpt><trkpt lat="39.2074833" lon="16.2524083"><ele>953.0</ele><time>2026-04-12T07:51:40.883Z</time></trkpt><trkpt lat="39.2075033" lon="16.2524917"><ele>953.0</ele><time>2026-04-12T07:51:41.883Z</time></trkpt><trkpt lat="39.20749" lon="16.252585"><ele>953.0</ele><time>2026-04-12T07:51:42.883Z</time></trkpt><trkpt lat="39.20757" lon="16.2525817"><ele>953.0</ele><time>2026-04-12T07:53:00.882Z</time></trkpt><trkpt lat="39.2075783" lon="16.25248"><ele>953.0</ele><time>2026-04-12T07:53:03.883Z</time></trkpt><trkpt lat="39.2075183" lon="16.25228"><ele>953.0</ele><time>2026-04-12T07:53:05.883Z</time></trkpt><trkpt lat="39.2074717" lon="16.252125"><ele>951.8333333333334</ele><time>2026-04-12T07:53:06.882Z</time></trkpt><trkpt lat="39.2074467" lon="16.252015"><ele>950.6666666666667</ele><time>2026-04-12T07:53:07.883Z</time></trkpt><trkpt lat="39.2074117" lon="16.25192"><ele>949.5</ele><time>2026-04-12T07:53:08.883Z</time></trkpt><trkpt lat="39.207375" lon="16.2518383"><ele>948.3333333333333</ele><time>2026-04-12T07:53:09.883Z</time></trkpt><trkpt lat="39.2073283" lon="16.2517617"><ele>947.1666666666666</ele><time>2026-04-12T07:53:10.883Z</time></trkpt><trkpt lat="39.2072483" lon="16.2516367"><ele>946.0</ele><time>2026-04-12T07:53:11.882Z</time></trkpt><trkpt lat="39.2071717" lon="16.2515533"><ele>949.1999999999999</ele><time>2026-04-12T07:53:12.882Z</time></trkpt><trkpt lat="39.207085" lon="16.251485"><ele>952.3999999999999</ele><time>2026-04-12T07:53:13.883Z</time></trkpt><trkpt lat="39.20701" lon="16.25139"><ele>955.6</ele><time>2026-04-12T07:53:14.882Z</time></trkpt><trkpt lat="39.20694" lon="16.2513017"><ele>958.8</ele><time>2026-04-12T07:53:15.882Z</time></trkpt><trkpt lat="39.2068567" lon="16.2512"><ele>962.0</ele><time>2026-04-12T07:53:16.883Z</time></trkpt><trkpt lat="39.2068133" lon="16.2511067"><ele>962.0000000000001</ele><time>2026-04-12T07:53:17.882Z</time></trkpt><trkpt lat="39.2067783" lon="16.2510017"><ele>962.0</ele><time>2026-04-12T07:53:18.882Z</time></trkpt><trkpt lat="39.206735" lon="16.2508983"><ele>962.0</ele><time>2026-04-12T07:53:19.883Z</time></trkpt><trkpt lat="39.2067033" lon="16.2507867"><ele>962.0</ele><time>2026-04-12T07:53:20.883Z</time></trkpt><trkpt lat="39.20669" lon="16.2506783"><ele>962.0000000000001</ele><time>2026-04-12T07:53:21.882Z</time></trkpt><trkpt lat="39.2066867" lon="16.25057"><ele>962.0</ele><time>2026-04-12T07:53:22.883Z</time></trkpt><trkpt lat="39.2066567" lon="16.2504767"><ele>961.4000000000001</ele><time>2026-04-12T07:53:23.882Z</time></trkpt><trkpt lat="39.206605" lon="16.2503283"><ele>960.8000000000001</ele><time>2026-04-12T07:53:25.883Z</time></trkpt><trkpt lat="39.2065417" lon="16.250225"><ele>960.2</ele><time>2026-04-12T07:53:27.882Z</time></trkpt><trkpt lat="39.206455" lon="16.2501617"><ele>959.6</ele><time>2026-04-12T07:53:29.882Z</time></trkpt><trkpt lat="39.206385" lon="16.25014"><ele>959.0</ele><time>2026-04-12T07:53:30.883Z</time></trkpt><trkpt lat="39.2063233" lon="16.2501167"><ele>961.0000000000001</ele><time>2026-04-12T07:53:31.883Z</time></trkpt><trkpt lat="39.2062567" lon="16.2501217"><ele>963.0</ele><time>2026-04-12T07:53:32.883Z</time></trkpt><trkpt lat="39.2061833" lon="16.250085"><ele>965.0</ele><time>2026-04-12T07:53:33.883Z</time></trkpt><trkpt lat="39.2061133" lon="16.25016"><ele>967.0</ele><time>2026-04-12T07:53:35.883Z</time></trkpt><trkpt lat="39.2060567" lon="16.2502"><ele>969.0000000000001</ele><time>2026-04-12T07:53:37.883Z</time></trkpt><trkpt lat="39.20601" lon="16.2502783"><ele>971.0</ele><time>2026-04-12T07:53:38.883Z</time></trkpt><trkpt lat="39.20594" lon="16.2503517"><ele>971.0000000000001</ele><time>2026-04-12T07:53:39.882Z</time></trkpt><trkpt lat="39.2058833" lon="16.2504033"><ele>971.0</ele><time>2026-04-12T07:53:40.883Z</time></trkpt><trkpt lat="39.2058267" lon="16.2504667"><ele>971.0</ele><time>2026-04-12T07:53:41.882Z</time></trkpt><trkpt lat="39.2057733" lon="16.2505233"><ele>971.0</ele><time>2026-04-12T07:53:42.883Z</time></trkpt><trkpt lat="39.205725" lon="16.2505817"><ele>971.0000000000001</ele><time>2026-04-12T07:53:43.883Z</time></trkpt><trkpt lat="39.20567" lon="16.2506367"><ele>971.0</ele><time>2026-04-12T07:53:44.883Z</time></trkpt><trkpt lat="39.2055767" lon="16.2507433"><ele>976.3333333333334</ele><time>2026-04-12T07:53:46.883Z</time></trkpt><trkpt lat="39.2055683" lon="16.2508683"><ele>981.6666666666667</ele><time>2026-04-12T07:53:47.883Z</time></trkpt><trkpt lat="39.205535" lon="16.2510083"><ele>987.0</ele><time>2026-04-12T07:53:49.883Z</time></trkpt><trkpt lat="39.2055067" lon="16.2510883"><ele>992.3333333333333</ele><time>2026-04-12T07:53:50.883Z</time></trkpt><trkpt lat="39.20549" lon="16.2511733"><ele>997.6666666666666</ele><time>2026-04-12T07:53:51.883Z</time></trkpt><trkpt lat="39.2054733" lon="16.2513033"><ele>1003.0</ele><time>2026-04-12T07:53:53.883Z</time></trkpt><trkpt lat="39.2054867" lon="16.25142"><ele>1002.8</ele><time>2026-04-12T07:53:55.883Z</time></trkpt><trkpt lat="39.2055233" lon="16.251535"><ele>1002.5999999999999</ele><time>2026-04-12T07:53:57.883Z</time></trkpt><trkpt lat="39.2055833" lon="16.2516333"><ele>1002.4000000000001</ele><time>2026-04-12T07:53:58.883Z</time></trkpt><trkpt lat="39.205645" lon="16.2517083"><ele>1002.2</ele><time>2026-04-12T07:53:59.883Z</time></trkpt><trkpt lat="39.2057117" lon="16.2517883"><ele>1002.0</ele><time>2026-04-12T07:54:01.883Z</time></trkpt><trkpt lat="39.2058517" lon="16.2518933"><ele>998.6</ele><time>2026-04-12T07:54:03.883Z</time></trkpt><trkpt lat="39.2059433" lon="16.2519067"><ele>995.2</ele><time>2026-04-12T07:54:04.883Z</time></trkpt><trkpt lat="39.2060333" lon="16.25193"><ele>991.8</ele><time>2026-04-12T07:54:05.882Z</time></trkpt><trkpt lat="39.206135" lon="16.25198"><ele>988.4</ele><time>2026-04-12T07:54:06.882Z</time></trkpt><trkpt lat="39.2062067" lon="16.252025"><ele>985.0</ele><time>2026-04-12T07:54:07.883Z</time></trkpt><trkpt lat="39.2063267" lon="16.2520867"><ele>985.0</ele><time>2026-04-12T07:54:08.883Z</time></trkpt><trkpt lat="39.2064267" lon="16.2521567"><ele>985.0</ele><time>2026-04-12T07:54:09.883Z</time></trkpt><trkpt lat="39.2065583" lon="16.2522433"><ele>985.0</ele><time>2026-04-12T07:54:10.883Z</time></trkpt><trkpt lat="39.206615" lon="16.2523233"><ele>985.0</ele><time>2026-04-12T07:54:11.883Z</time></trkpt><trkpt lat="39.2066367" lon="16.2524267"><ele>985.0</ele><time>2026-04-12T07:54:12.883Z</time></trkpt><trkpt lat="39.2065933" lon="16.252505"><ele>984.0</ele><time>2026-04-12T07:54:13.883Z</time></trkpt><trkpt lat="39.2065667" lon="16.2526083"><ele>983.0</ele><time>2026-04-12T07:54:14.883Z</time></trkpt><trkpt lat="39.2065967" lon="16.2527117"><ele>982.0</ele><time>2026-04-12T07:54:15.883Z</time></trkpt><trkpt lat="39.2065833" lon="16.25283"><ele>981.0</ele><time>2026-04-12T07:54:16.883Z</time></trkpt><trkpt lat="39.2065367" lon="16.2529667"><ele>980.0</ele><time>2026-04-12T07:54:17.883Z</time></trkpt><trkpt lat="39.2064683" lon="16.253075"><ele>983.1666666666667</ele><time>2026-04-12T07:54:18.883Z</time></trkpt><trkpt lat="39.2064117" lon="16.25318"><ele>986.3333333333334</ele><time>2026-04-12T07:54:19.883Z</time></trkpt><trkpt lat="39.206365" lon="16.2532717"><ele>989.5</ele><time>2026-04-12T07:54:20.883Z</time></trkpt><trkpt lat="39.20632" lon="16.2533417"><ele>992.6666666666667</ele><time>2026-04-12T07:54:21.883Z</time></trkpt><trkpt lat="39.20627" lon="16.2534267"><ele>995.8333333333334</ele><time>2026-04-12T07:54:22.882Z</time></trkpt><trkpt lat="39.2062267" lon="16.2535133"><ele>999.0</ele><time>2026-04-12T07:54:23.882Z</time></trkpt><trkpt lat="39.2061167" lon="16.2535783"><ele>999.0</ele><time>2026-04-12T07:54:24.883Z</time></trkpt><trkpt lat="39.2060017" lon="16.2535883"><ele>999.0000000000001</ele><time>2026-04-12T07:54:25.883Z</time></trkpt><trkpt lat="39.2059133" lon="16.25358"><ele>999.0000000000001</ele><time>2026-04-12T07:54:26.883Z</time></trkpt><trkpt lat="39.20583" lon="16.253565"><ele>999.0</ele><time>2026-04-12T07:54:27.883Z</time></trkpt><trkpt lat="39.20574" lon="16.253525"><ele>999.0</ele><time>2026-04-12T07:54:28.883Z</time></trkpt><trkpt lat="39.20566" lon="16.253485"><ele>999.4000000000001</ele><time>2026-04-12T07:54:29.882Z</time></trkpt><trkpt lat="39.2055783" lon="16.2534333"><ele>999.8000000000001</ele><time>2026-04-12T07:54:30.883Z</time></trkpt><trkpt lat="39.2055183" lon="16.2533817"><ele>1000.1999999999999</ele><time>2026-04-12T07:54:31.883Z</time></trkpt><trkpt lat="39.2054667" lon="16.2533183"><ele>1000.5999999999999</ele><time>2026-04-12T07:54:32.882Z</time></trkpt><trkpt lat="39.205415" lon="16.2531567"><ele>1001.0</ele><time>2026-04-12T07:54:33.882Z</time></trkpt><trkpt lat="39.2054133" lon="16.2530417"><ele>1002.1666666666667</ele><time>2026-04-12T07:54:34.883Z</time></trkpt><trkpt lat="39.20538" lon="16.2529283"><ele>1003.3333333333334</ele><time>2026-04-12T07:54:35.883Z</time></trkpt><trkpt lat="39.2053117" lon="16.252805"><ele>1004.5</ele><time>2026-04-12T07:54:37.883Z</time></trkpt><trkpt lat="39.20525" lon="16.25273"><ele>1005.6666666666667</ele><time>2026-04-12T07:54:39.883Z</time></trkpt><trkpt lat="39.2051833" lon="16.2526733"><ele>1006.8333333333334</ele><time>2026-04-12T07:54:41.883Z</time></trkpt><trkpt lat="39.2051167" lon="16.2526417"><ele>1008.0</ele><time>2026-04-12T07:54:43.883Z</time></trkpt><trkpt lat="39.2050467" lon="16.25261"><ele>1008.0</ele><time>2026-04-12T07:54:48.882Z</time></trkpt><trkpt lat="39.2051383" lon="16.25268"><ele>1008.0</ele><time>2026-04-12T07:55:00.883Z</time></trkpt><trkpt lat="39.20527" lon="16.2527183"><ele>1008.0</ele><time>2026-04-12T07:55:02.882Z</time></trkpt><trkpt lat="39.205365" lon="16.2527333"><ele>1008.0</ele><time>2026-04-12T07:55:03.883Z</time></trkpt><trkpt lat="39.2052583" lon="16.25278"><ele>1008.0</ele><time>2026-04-12T07:55:17.883Z</time></trkpt><trkpt lat="39.205175" lon="16.2527933"><ele>1008.0</ele><time>2026-04-12T07:55:18.883Z</time></trkpt><trkpt lat="39.2051483" lon="16.252715"><ele>1008.0</ele><time>2026-04-12T07:55:26.882Z</time></trkpt><trkpt lat="39.205215" lon="16.252645"><ele>1008.0</ele><time>2026-04-12T07:55:29.883Z</time></trkpt><trkpt lat="39.20528" lon="16.2526817"><ele>1008.0</ele><time>2026-04-12T07:55:31.883Z</time></trkpt><trkpt lat="39.20536" lon="16.2527683"><ele>1008.0</ele><time>2026-04-12T07:55:33.883Z</time></trkpt><trkpt lat="39.2054083" lon="16.2528783"><ele>1008.0</ele><time>2026-04-12T07:55:34.882Z</time></trkpt><trkpt lat="39.2054283" lon="16.2529667"><ele>1008.0</ele><time>2026-04-12T07:55:35.883Z</time></trkpt><trkpt lat="39.2054633" lon="16.253055"><ele>1008.0</ele><time>2026-04-12T07:55:36.883Z</time></trkpt><trkpt lat="39.20553" lon="16.2531983"><ele>1008.0</ele><time>2026-04-12T07:55:38.882Z</time></trkpt><trkpt lat="39.2055683" lon="16.2532733"><ele>1008.0</ele><time>2026-04-12T07:55:39.882Z</time></trkpt><trkpt lat="39.2056467" lon="16.2533683"><ele>1006.5</ele><time>2026-04-12T07:55:41.882Z</time></trkpt><trkpt lat="39.2057017" lon="16.25341"><ele>1005.0</ele><time>2026-04-12T07:55:42.882Z</time></trkpt><trkpt lat="39.2058233" lon="16.2534867"><ele>1003.5</ele><time>2026-04-12T07:55:44.883Z</time></trkpt><trkpt lat="39.2058983" lon="16.2535117"><ele>1002.0</ele><time>2026-04-12T07:55:45.883Z</time></trkpt><trkpt lat="39.20597" lon="16.2535217"><ele>1000.5</ele><time>2026-04-12T07:55:46.883Z</time></trkpt><trkpt lat="39.2060483" lon="16.253525"><ele>999.0</ele><time>2026-04-12T07:55:47.883Z</time></trkpt><trkpt lat="39.2061783" lon="16.2534883"><ele>999.0</ele><time>2026-04-12T07:55:49.883Z</time></trkpt><trkpt lat="39.2062533" lon="16.2534667"><ele>999.0000000000001</ele><time>2026-04-12T07:55:50.882Z</time></trkpt><trkpt lat="39.20632" lon="16.253425"><ele>999.0</ele><time>2026-04-12T07:55:51.883Z</time></trkpt><trkpt lat="39.2063883" lon="16.2533833"><ele>999.0</ele><time>2026-04-12T07:55:52.882Z</time></trkpt><trkpt lat="39.2064533" lon="16.25336"><ele>999.0000000000001</ele><time>2026-04-12T07:55:53.883Z</time></trkpt><trkpt lat="39.2065167" lon="16.25331"><ele>999.0</ele><time>2026-04-12T07:55:54.883Z</time></trkpt><trkpt lat="39.2065733" lon="16.2532533"><ele>999.0</ele><time>2026-04-12T07:55:55.883Z</time></trkpt><trkpt lat="39.2066283" lon="16.2531833"><ele>996.2857142857143</ele><time>2026-04-12T07:55:56.882Z</time></trkpt><trkpt lat="39.206675" lon="16.253115"><ele>993.5714285714287</ele><time>2026-04-12T07:55:57.883Z</time></trkpt><trkpt lat="39.2067233" lon="16.2530433"><ele>990.8571428571429</ele><time>2026-04-12T07:55:58.883Z</time></trkpt><trkpt lat="39.2067583" lon="16.25297"><ele>988.1428571428571</ele><time>2026-04-12T07:55:59.883Z</time></trkpt><trkpt lat="39.2067883" lon="16.2528917"><ele>985.4285714285714</ele><time>2026-04-12T07:56:00.882Z</time></trkpt><trkpt lat="39.2068083" lon="16.252805"><ele>982.7142857142858</ele><time>2026-04-12T07:56:01.882Z</time></trkpt><trkpt lat="39.2068133" lon="16.2527167"><ele>980.0</ele><time>2026-04-12T07:56:02.883Z</time></trkpt><trkpt lat="39.20683" lon="16.2526167"><ele>980.0</ele><time>2026-04-12T07:56:03.883Z</time></trkpt><trkpt lat="39.2068017" lon="16.2525183"><ele>980.0</ele><time>2026-04-12T07:56:04.883Z</time></trkpt><trkpt lat="39.2067417" lon="16.2524467"><ele>980.0</ele><time>2026-04-12T07:56:05.883Z</time></trkpt><trkpt lat="39.20655" lon="16.2523317"><ele>980.0</ele><time>2026-04-12T07:56:06.882Z</time></trkpt><trkpt lat="39.206475" lon="16.2522683"><ele>980.8333333333334</ele><time>2026-04-12T07:56:07.883Z</time></trkpt><trkpt lat="39.2064183" lon="16.25222"><ele>981.6666666666667</ele><time>2026-04-12T07:56:09.883Z</time></trkpt><trkpt lat="39.2063717" lon="16.2523433"><ele>982.5</ele><time>2026-04-12T07:56:21.883Z</time></trkpt><trkpt lat="39.2063933" lon="16.2524867"><ele>983.3333333333333</ele><time>2026-04-12T07:56:25.883Z</time></trkpt><trkpt lat="39.2063967" lon="16.2525717"><ele>984.1666666666666</ele><time>2026-04-12T07:56:26.883Z</time></trkpt><trkpt lat="39.2063967" lon="16.25268"><ele>985.0</ele><time>2026-04-12T07:56:27.883Z</time></trkpt><trkpt lat="39.2063767" lon="16.25283"><ele>988.0</ele><time>2026-04-12T07:56:29.882Z</time></trkpt><trkpt lat="39.2063567" lon="16.2529083"><ele>991.0</ele><time>2026-04-12T07:56:30.883Z</time></trkpt><trkpt lat="39.2063233" lon="16.25306"><ele>994.0</ele><time>2026-04-12T07:56:32.883Z</time></trkpt><trkpt lat="39.2063" lon="16.2531933"><ele>997.0</ele><time>2026-04-12T07:56:34.883Z</time></trkpt><trkpt lat="39.206235" lon="16.253705"><ele>997.5</ele><time>2026-04-12T07:56:43.882Z</time></trkpt><trkpt lat="39.206165" lon="16.25365"><ele>998.0</ele><time>2026-04-12T07:56:44.883Z</time></trkpt><trkpt lat="39.2060733" lon="16.2535917"><ele>998.5</ele><time>2026-04-12T07:56:45.883Z</time></trkpt><trkpt lat="39.205975" lon="16.253485"><ele>999.0</ele><time>2026-04-12T07:56:48.883Z</time></trkpt><trkpt lat="39.2058583" lon="16.2533883"><ele>999.0</ele><time>2026-04-12T07:56:50.882Z</time></trkpt><trkpt lat="39.2057233" lon="16.2532967"><ele>999.0</ele><time>2026-04-12T07:56:55.883Z</time></trkpt><trkpt lat="39.205315" lon="16.2532"><ele>1003.5</ele><time>2026-04-12T07:57:00.881Z</time></trkpt><trkpt lat="39.2049833" lon="16.2528633"><ele>1008.0</ele><time>2026-04-12T07:57:01.882Z</time></trkpt><trkpt lat="39.204735" lon="16.2528783"><ele>1010.75</ele><time>2026-04-12T07:57:02.881Z</time></trkpt><trkpt lat="39.2045667" lon="16.25283"><ele>1013.5</ele><time>2026-04-12T07:57:03.882Z</time></trkpt><trkpt lat="39.204435" lon="16.2528"><ele>1016.25</ele><time>2026-04-12T07:57:04.881Z</time></trkpt><trkpt lat="39.20433" lon="16.2527817"><ele>1019.0</ele><time>2026-04-12T07:57:05.881Z</time></trkpt><trkpt lat="39.2042467" lon="16.2527683"><ele>1019.0</ele><time>2026-04-12T07:57:06.882Z</time></trkpt><trkpt lat="39.204125" lon="16.2527333"><ele>1019.0</ele><time>2026-04-12T07:57:07.882Z</time></trkpt><trkpt lat="39.203995" lon="16.25269"><ele>1019.0</ele><time>2026-04-12T07:57:08.882Z</time></trkpt><trkpt lat="39.20388" lon="16.252675"><ele>1019.0</ele><time>2026-04-12T07:57:09.882Z</time></trkpt><trkpt lat="39.2037633" lon="16.2526667"><ele>1018.4000000000001</ele><time>2026-04-12T07:57:10.882Z</time></trkpt><trkpt lat="39.2036517" lon="16.2526583"><ele>1017.8000000000001</ele><time>2026-04-12T07:57:11.881Z</time></trkpt><trkpt lat="39.203535" lon="16.252645"><ele>1017.1999999999999</ele><time>2026-04-12T07:57:12.881Z</time></trkpt><trkpt lat="39.2034483" lon="16.2526583"><ele>1016.5999999999999</ele><time>2026-04-12T07:57:13.881Z</time></trkpt><trkpt lat="39.2033333" lon="16.2526217"><ele>1016.0</ele><time>2026-04-12T07:57:15.882Z</time></trkpt><trkpt lat="39.20325" lon="16.252525"><ele>1016.0</ele><time>2026-04-12T07:57:17.881Z</time></trkpt><trkpt lat="39.20323" lon="16.2523583"><ele>1016.0</ele><time>2026-04-12T07:57:19.881Z</time></trkpt><trkpt lat="39.2032617" lon="16.25223"><ele>1016.0</ele><time>2026-04-12T07:57:20.881Z</time></trkpt><trkpt lat="39.2032983" lon="16.25208"><ele>1016.0</ele><time>2026-04-12T07:57:21.882Z</time></trkpt><trkpt lat="39.20331" lon="16.25194"><ele>1017.5999999999999</ele><time>2026-04-12T07:57:22.882Z</time></trkpt><trkpt lat="39.2032917" lon="16.2518133"><ele>1019.1999999999999</ele><time>2026-04-12T07:57:23.882Z</time></trkpt><trkpt lat="39.2032783" lon="16.2516867"><ele>1020.8000000000001</ele><time>2026-04-12T07:57:24.881Z</time></trkpt><trkpt lat="39.2032717" lon="16.2515683"><ele>1022.4000000000001</ele><time>2026-04-12T07:57:25.882Z</time></trkpt><trkpt lat="39.2032483" lon="16.251485"><ele>1024.0</ele><time>2026-04-12T07:57:26.881Z</time></trkpt><trkpt lat="39.2032783" lon="16.2513717"><ele>1025.4</ele><time>2026-04-12T07:57:28.882Z</time></trkpt><trkpt lat="39.203335" lon="16.2513267"><ele>1026.8000000000002</ele><time>2026-04-12T07:57:30.882Z</time></trkpt><trkpt lat="39.2034417" lon="16.2513067"><ele>1028.1999999999998</ele><time>2026-04-12T07:57:32.882Z</time></trkpt><trkpt lat="39.20342" lon="16.25118"><ele>1029.6</ele><time>2026-04-12T07:57:45.882Z</time></trkpt><trkpt lat="39.203405" lon="16.251065"><ele>1031.0</ele><time>2026-04-12T07:57:48.882Z</time></trkpt><trkpt lat="39.203365" lon="16.2509533"><ele>1031.0</ele><time>2026-04-12T07:57:56.882Z</time></trkpt><trkpt lat="39.2032883" lon="16.2508483"><ele>1031.0</ele><time>2026-04-12T07:57:57.882Z</time></trkpt><trkpt lat="39.2032317" lon="16.25078"><ele>1031.0</ele><time>2026-04-12T07:57:58.882Z</time></trkpt><trkpt lat="39.2031633" lon="16.2506967"><ele>1031.0</ele><time>2026-04-12T07:57:59.882Z</time></trkpt><trkpt lat="39.2030867" lon="16.2506"><ele>1031.0</ele><time>2026-04-12T07:58:00.881Z</time></trkpt><trkpt lat="39.2029717" lon="16.2504533"><ele>1028.6</ele><time>2026-04-12T07:58:01.882Z</time></trkpt><trkpt lat="39.2029067" lon="16.2503967"><ele>1026.1999999999998</ele><time>2026-04-12T07:58:02.882Z</time></trkpt><trkpt lat="39.20283" lon="16.25033"><ele>1023.8000000000001</ele><time>2026-04-12T07:58:03.882Z</time></trkpt><trkpt lat="39.2027533" lon="16.250275"><ele>1021.4000000000001</ele><time>2026-04-12T07:58:04.882Z</time></trkpt><trkpt lat="39.202635" lon="16.2502067"><ele>1019.0</ele><time>2026-04-12T07:58:06.881Z</time></trkpt><trkpt lat="39.202575" lon="16.250155"><ele>1019.0</ele><time>2026-04-12T07:58:07.882Z</time></trkpt><trkpt lat="39.202525" lon="16.2500983"><ele>1019.0000000000001</ele><time>2026-04-12T07:58:08.882Z</time></trkpt><trkpt lat="39.2025917" lon="16.2499867"><ele>1019.0000000000001</ele><time>2026-04-12T07:58:10.882Z</time></trkpt><trkpt lat="39.2026383" lon="16.2498983"><ele>1019.0</ele><time>2026-04-12T07:58:11.882Z</time></trkpt><trkpt lat="39.2026967" lon="16.24979"><ele>1019.0</ele><time>2026-04-12T07:58:12.881Z</time></trkpt><trkpt lat="39.202745" lon="16.2496933"><ele>1017.6666666666667</ele><time>2026-04-12T07:58:13.882Z</time></trkpt><trkpt lat="39.2028217" lon="16.2496233"><ele>1016.3333333333334</ele><time>2026-04-12T07:58:14.882Z</time></trkpt><trkpt lat="39.2028833" lon="16.2495483"><ele>1015.0</ele><time>2026-04-12T07:58:15.882Z</time></trkpt><trkpt lat="39.2029233" lon="16.2494817"><ele>1013.6666666666667</ele><time>2026-04-12T07:58:16.882Z</time></trkpt><trkpt lat="39.2029333" lon="16.2493867"><ele>1012.3333333333334</ele><time>2026-04-12T07:58:17.882Z</time></trkpt><trkpt lat="39.202925" lon="16.2492667"><ele>1011.0</ele><time>2026-04-12T07:58:18.881Z</time></trkpt><trkpt lat="39.2029033" lon="16.2491333"><ele>1011.0</ele><time>2026-04-12T07:58:19.882Z</time></trkpt><trkpt lat="39.202855" lon="16.2489617"><ele>1010.9999999999999</ele><time>2026-04-12T07:58:20.882Z</time></trkpt><trkpt lat="39.2028367" lon="16.2488333"><ele>1010.9999999999999</ele><time>2026-04-12T07:58:21.882Z</time></trkpt><trkpt lat="39.202815" lon="16.2487167"><ele>1011.0</ele><time>2026-04-12T07:58:22.882Z</time></trkpt><trkpt lat="39.2027917" lon="16.2486017"><ele>1011.0</ele><time>2026-04-12T07:58:23.882Z</time></trkpt><trkpt lat="39.2027733" lon="16.2485017"><ele>1011.0</ele><time>2026-04-12T07:58:24.881Z</time></trkpt><trkpt lat="39.202735" lon="16.2483833"><ele>1010.9999999999999</ele><time>2026-04-12T07:58:25.881Z</time></trkpt><trkpt lat="39.2026933" lon="16.2482567"><ele>1010.9999999999999</ele><time>2026-04-12T07:58:26.882Z</time></trkpt><trkpt lat="39.20264" lon="16.248115"><ele>1011.0</ele><time>2026-04-12T07:58:27.882Z</time></trkpt><trkpt lat="39.202615" lon="16.2479817"><ele>1011.0</ele><time>2026-04-12T07:58:28.881Z</time></trkpt><trkpt lat="39.2025917" lon="16.2478467"><ele>1012.75</ele><time>2026-04-12T07:58:29.881Z</time></trkpt><trkpt lat="39.2025317" lon="16.24767"><ele>1014.5</ele><time>2026-04-12T07:58:30.882Z</time></trkpt><trkpt lat="39.2025233" lon="16.247535"><ele>1016.25</ele><time>2026-04-12T07:58:31.882Z</time></trkpt><trkpt lat="39.202475" lon="16.2473917"><ele>1018.0</ele><time>2026-04-12T07:58:32.882Z</time></trkpt><trkpt lat="39.20246" lon="16.247275"><ele>1022.4999999999999</ele><time>2026-04-12T07:58:33.882Z</time></trkpt><trkpt lat="39.202525" lon="16.2472167"><ele>1027.0</ele><time>2026-04-12T07:58:34.882Z</time></trkpt><trkpt lat="39.2025883" lon="16.2471733"><ele>1031.5</ele><time>2026-04-12T07:58:35.881Z</time></trkpt><trkpt lat="39.202655" lon="16.2471567"><ele>1036.0</ele><time>2026-04-12T07:58:36.882Z</time></trkpt><trkpt lat="39.2027567" lon="16.2471183"><ele>1040.5</ele><time>2026-04-12T07:58:38.882Z</time></trkpt><trkpt lat="39.202865" lon="16.24707"><ele>1045.0</ele><time>2026-04-12T07:58:40.882Z</time></trkpt><trkpt lat="39.2029367" lon="16.2470467"><ele>1045.0</ele><time>2026-04-12T07:58:41.882Z</time></trkpt><trkpt lat="39.2030117" lon="16.2470217"><ele>1045.0</ele><time>2026-04-12T07:58:42.882Z</time></trkpt><trkpt lat="39.20309" lon="16.2470133"><ele>1045.0</ele><time>2026-04-12T07:58:43.882Z</time></trkpt><trkpt lat="39.2031783" lon="16.2470267"><ele>1045.0</ele><time>2026-04-12T07:58:44.882Z</time></trkpt><trkpt lat="39.2032833" lon="16.2470233"><ele>1045.0</ele><time>2026-04-12T07:58:45.882Z</time></trkpt><trkpt lat="39.2034167" lon="16.2470467"><ele>1043.75</ele><time>2026-04-12T07:58:46.882Z</time></trkpt><trkpt lat="39.2035083" lon="16.247055"><ele>1042.5</ele><time>2026-04-12T07:58:47.882Z</time></trkpt><trkpt lat="39.2036633" lon="16.2470917"><ele>1041.25</ele><time>2026-04-12T07:58:48.882Z</time></trkpt><trkpt lat="39.20376" lon="16.2471117"><ele>1040.0</ele><time>2026-04-12T07:58:49.881Z</time></trkpt><trkpt lat="39.2038917" lon="16.2471467"><ele>1040.0</ele><time>2026-04-12T07:58:51.881Z</time></trkpt><trkpt lat="39.2039567" lon="16.2471767"><ele>1040.0</ele><time>2026-04-12T07:58:52.882Z</time></trkpt><trkpt lat="39.2040217" lon="16.2472517"><ele>1040.0</ele><time>2026-04-12T07:58:54.881Z</time></trkpt><trkpt lat="39.2040983" lon="16.247265"><ele>1040.0</ele><time>2026-04-12T07:58:55.881Z</time></trkpt><trkpt lat="39.2041783" lon="16.2472717"><ele>1040.0</ele><time>2026-04-12T07:58:56.882Z</time></trkpt><trkpt lat="39.204285" lon="16.2472817"><ele>1040.0</ele><time>2026-04-12T07:58:57.881Z</time></trkpt><trkpt lat="39.2044267" lon="16.2473317"><ele>1036.6</ele><time>2026-04-12T07:58:58.882Z</time></trkpt><trkpt lat="39.2045583" lon="16.2473517"><ele>1033.2</ele><time>2026-04-12T07:58:59.882Z</time></trkpt><trkpt lat="39.2046717" lon="16.2473383"><ele>1029.8</ele><time>2026-04-12T07:59:00.882Z</time></trkpt><trkpt lat="39.20476" lon="16.2473283"><ele>1026.4</ele><time>2026-04-12T07:59:01.881Z</time></trkpt><trkpt lat="39.2048467" lon="16.2473233"><ele>1023.0</ele><time>2026-04-12T07:59:02.882Z</time></trkpt><trkpt lat="39.2049317" lon="16.247315"><ele>1023.0</ele><time>2026-04-12T07:59:03.882Z</time></trkpt><trkpt lat="39.205" lon="16.24731"><ele>1023.0</ele><time>2026-04-12T07:59:04.881Z</time></trkpt><trkpt lat="39.20507" lon="16.2473383"><ele>1023.0</ele><time>2026-04-12T07:59:05.882Z</time></trkpt><trkpt lat="39.2051367" lon="16.247395"><ele>1023.0</ele><time>2026-04-12T07:59:06.882Z</time></trkpt><trkpt lat="39.2051967" lon="16.2474833"><ele>1023.0</ele><time>2026-04-12T07:59:07.882Z</time></trkpt><trkpt lat="39.2052917" lon="16.2475133"><ele>1023.0</ele><time>2026-04-12T07:59:08.882Z</time></trkpt><trkpt lat="39.2053633" lon="16.24763"><ele>1023.0</ele><time>2026-04-12T07:59:09.882Z</time></trkpt><trkpt lat="39.2054617" lon="16.24766"><ele>1023.0</ele><time>2026-04-12T07:59:10.882Z</time></trkpt><trkpt lat="39.2055483" lon="16.2477067"><ele>1023.0</ele><time>2026-04-12T07:59:11.881Z</time></trkpt><trkpt lat="39.20563" lon="16.2477217"><ele>1023.0</ele><time>2026-04-12T07:59:12.882Z</time></trkpt><trkpt lat="39.2057167" lon="16.247715"><ele>1023.0</ele><time>2026-04-12T07:59:13.882Z</time></trkpt><trkpt lat="39.20582" lon="16.2476867"><ele>1025.5</ele><time>2026-04-12T07:59:14.881Z</time></trkpt><trkpt lat="39.2059267" lon="16.2476783"><ele>1028.0</ele><time>2026-04-12T07:59:15.882Z</time></trkpt><trkpt lat="39.2060417" lon="16.2476617"><ele>1030.5</ele><time>2026-04-12T07:59:16.881Z</time></trkpt><trkpt lat="39.206165" lon="16.2476417"><ele>1033.0</ele><time>2026-04-12T07:59:17.882Z</time></trkpt><trkpt lat="39.2062717" lon="16.247615"><ele>1033.0</ele><time>2026-04-12T07:59:18.882Z</time></trkpt><trkpt lat="39.2063667" lon="16.2475767"><ele>1033.0</ele><time>2026-04-12T07:59:19.882Z</time></trkpt><trkpt lat="39.2064517" lon="16.2475217"><ele>1033.0</ele><time>2026-04-12T07:59:20.882Z</time></trkpt><trkpt lat="39.20653" lon="16.2474617"><ele>1033.0</ele><time>2026-04-12T07:59:21.882Z</time></trkpt><trkpt lat="39.206615" lon="16.2474117"><ele>1033.0</ele><time>2026-04-12T07:59:22.882Z</time></trkpt><trkpt lat="39.2066767" lon="16.2473467"><ele>1034.1666666666665</ele><time>2026-04-12T07:59:23.882Z</time></trkpt><trkpt lat="39.2067317" lon="16.2472717"><ele>1035.3333333333333</ele><time>2026-04-12T07:59:24.882Z</time></trkpt><trkpt lat="39.2067933" lon="16.2472183"><ele>1036.5</ele><time>2026-04-12T07:59:25.882Z</time></trkpt><trkpt lat="39.2068517" lon="16.2471567"><ele>1037.6666666666667</ele><time>2026-04-12T07:59:26.882Z</time></trkpt><trkpt lat="39.20691" lon="16.247085"><ele>1038.8333333333335</ele><time>2026-04-12T07:59:27.882Z</time></trkpt><trkpt lat="39.2069683" lon="16.247005"><ele>1040.0</ele><time>2026-04-12T07:59:28.881Z</time></trkpt><trkpt lat="39.20698" lon="16.2469"><ele>1040.0000000000002</ele><time>2026-04-12T07:59:29.882Z</time></trkpt><trkpt lat="39.2070333" lon="16.2468383"><ele>1040.0</ele><time>2026-04-12T07:59:30.881Z</time></trkpt><trkpt lat="39.2070833" lon="16.2467733"><ele>1040.0</ele><time>2026-04-12T07:59:31.882Z</time></trkpt><trkpt lat="39.207135" lon="16.2467217"><ele>1040.0</ele><time>2026-04-12T07:59:32.882Z</time></trkpt><trkpt lat="39.207185" lon="16.246665"><ele>1040.0</ele><time>2026-04-12T07:59:33.882Z</time></trkpt><trkpt lat="39.2072383" lon="16.2466067"><ele>1040.0000000000002</ele><time>2026-04-12T07:59:34.882Z</time></trkpt><trkpt lat="39.2073283" lon="16.2465517"><ele>1040.0</ele><time>2026-04-12T07:59:36.881Z</time></trkpt><trkpt lat="39.2074883" lon="16.24667"><ele>1039.0</ele><time>2026-04-12T07:59:38.881Z</time></trkpt><trkpt lat="39.20763" lon="16.2468317"><ele>1038.0</ele><time>2026-04-12T07:59:39.882Z</time></trkpt><trkpt lat="39.2077467" lon="16.247005"><ele>1037.0</ele><time>2026-04-12T07:59:40.882Z</time></trkpt><trkpt lat="39.207855" lon="16.247105"><ele>1037.0</ele><time>2026-04-12T07:59:41.882Z</time></trkpt><trkpt lat="39.2079367" lon="16.2471217"><ele>1037.0</ele><time>2026-04-12T07:59:42.882Z</time></trkpt><trkpt lat="39.2080267" lon="16.2471217"><ele>1037.0</ele><time>2026-04-12T07:59:43.882Z</time></trkpt><trkpt lat="39.2081067" lon="16.2471083"><ele>1037.0</ele><time>2026-04-12T07:59:44.882Z</time></trkpt><trkpt lat="39.208195" lon="16.247005"><ele>1037.0</ele><time>2026-04-12T07:59:45.881Z</time></trkpt><trkpt lat="39.2082783" lon="16.246925"><ele>1037.6</ele><time>2026-04-12T07:59:46.881Z</time></trkpt><trkpt lat="39.2083283" lon="16.2468317"><ele>1038.2</ele><time>2026-04-12T07:59:47.882Z</time></trkpt><trkpt lat="39.2083767" lon="16.2466683"><ele>1038.8</ele><time>2026-04-12T07:59:49.882Z</time></trkpt><trkpt lat="39.2083967" lon="16.2465667"><ele>1039.4</ele><time>2026-04-12T07:59:50.882Z</time></trkpt><trkpt lat="39.2084033" lon="16.2464767"><ele>1040.0</ele><time>2026-04-12T07:59:51.881Z</time></trkpt><trkpt lat="39.2084133" lon="16.2463583"><ele>1040.0</ele><time>2026-04-12T07:59:53.881Z</time></trkpt><trkpt lat="39.2084" lon="16.2462783"><ele>1040.0</ele><time>2026-04-12T07:59:55.882Z</time></trkpt><trkpt lat="39.2083" lon="16.2464317"><ele>1040.0</ele><time>2026-04-12T08:00:01.882Z</time></trkpt><trkpt lat="39.2082217" lon="16.2465217"><ele>1040.0</ele><time>2026-04-12T08:00:03.882Z</time></trkpt><trkpt lat="39.2082067" lon="16.2466933"><ele>1039.5</ele><time>2026-04-12T08:00:05.882Z</time></trkpt><trkpt lat="39.2081233" lon="16.2467883"><ele>1039.0</ele><time>2026-04-12T08:00:07.882Z</time></trkpt><trkpt lat="39.2080417" lon="16.2467683"><ele>1038.5</ele><time>2026-04-12T08:00:08.882Z</time></trkpt><trkpt lat="39.207985" lon="16.2467167"><ele>1038.0</ele><time>2026-04-12T08:00:10.881Z</time></trkpt><trkpt lat="39.20794" lon="16.2466183"><ele>1037.5</ele><time>2026-04-12T08:00:12.882Z</time></trkpt><trkpt lat="39.2079067" lon="16.2465033"><ele>1037.0</ele><time>2026-04-12T08:00:14.881Z</time></trkpt><trkpt lat="39.207885" lon="16.2463583"><ele>1039.4</ele><time>2026-04-12T08:00:16.882Z</time></trkpt><trkpt lat="39.2079033" lon="16.2462383"><ele>1041.8000000000002</ele><time>2026-04-12T08:00:17.882Z</time></trkpt><trkpt lat="39.2079267" lon="16.2461083"><ele>1044.2</ele><time>2026-04-12T08:00:18.881Z</time></trkpt><trkpt lat="39.2079633" lon="16.2459567"><ele>1046.6000000000001</ele><time>2026-04-12T08:00:19.882Z</time></trkpt><trkpt lat="39.2080233" lon="16.24585"><ele>1049.0</ele><time>2026-04-12T08:00:20.882Z</time></trkpt><trkpt lat="39.208075" lon="16.2457467"><ele>1049.0</ele><time>2026-04-12T08:00:21.882Z</time></trkpt><trkpt lat="39.2081083" lon="16.245645"><ele>1049.0</ele><time>2026-04-12T08:00:22.882Z</time></trkpt><trkpt lat="39.2081533" lon="16.2455417"><ele>1049.0</ele><time>2026-04-12T08:00:23.881Z</time></trkpt><trkpt lat="39.2081967" lon="16.24544"><ele>1049.0</ele><time>2026-04-12T08:00:24.882Z</time></trkpt><trkpt lat="39.2082267" lon="16.2453367"><ele>1049.0</ele><time>2026-04-12T08:00:25.882Z</time></trkpt><trkpt lat="39.208255" lon="16.2452283"><ele>1049.0</ele><time>2026-04-12T08:00:26.881Z</time></trkpt><trkpt lat="39.2082667" lon="16.2451183"><ele>1047.4</ele><time>2026-04-12T08:00:27.882Z</time></trkpt><trkpt lat="39.2081867" lon="16.24496"><ele>1045.8000000000002</ele><time>2026-04-12T08:00:28.881Z</time></trkpt><trkpt lat="39.2081683" lon="16.2448383"><ele>1044.1999999999998</ele><time>2026-04-12T08:00:29.882Z</time></trkpt><trkpt lat="39.2081" lon="16.2447583"><ele>1042.6</ele><time>2026-04-12T08:00:30.881Z</time></trkpt><trkpt lat="39.2080517" lon="16.2447017"><ele>1041.0</ele><time>2026-04-12T08:00:31.882Z</time></trkpt><trkpt lat="39.2079817" lon="16.2446633"><ele>1040.6</ele><time>2026-04-12T08:00:32.882Z</time></trkpt><trkpt lat="39.2079017" lon="16.2446533"><ele>1040.1999999999998</ele><time>2026-04-12T08:00:33.881Z</time></trkpt><trkpt lat="39.2077817" lon="16.2447183"><ele>1039.8000000000002</ele><time>2026-04-12T08:00:35.882Z</time></trkpt><trkpt lat="39.2076733" lon="16.2448217"><ele>1039.4</ele><time>2026-04-12T08:00:36.882Z</time></trkpt><trkpt lat="39.2075983" lon="16.2448867"><ele>1039.0</ele><time>2026-04-12T08:00:37.882Z</time></trkpt><trkpt lat="39.207485" lon="16.2449083"><ele>1042.2</ele><time>2026-04-12T08:00:39.882Z</time></trkpt><trkpt lat="39.2074133" lon="16.24494"><ele>1045.4</ele><time>2026-04-12T08:00:40.882Z</time></trkpt><trkpt lat="39.2073267" lon="16.2449733"><ele>1048.6</ele><time>2026-04-12T08:00:41.881Z</time></trkpt><trkpt lat="39.2072317" lon="16.2450117"><ele>1051.8</ele><time>2026-04-12T08:00:42.882Z</time></trkpt><trkpt lat="39.2070917" lon="16.245075"><ele>1055.0</ele><time>2026-04-12T08:00:43.882Z</time></trkpt><trkpt lat="39.2069933" lon="16.245075"><ele>1057.0</ele><time>2026-04-12T08:00:44.882Z</time></trkpt><trkpt lat="39.2069" lon="16.2450517"><ele>1059.0</ele><time>2026-04-12T08:00:45.882Z</time></trkpt><trkpt lat="39.2067467" lon="16.24502"><ele>1061.0</ele><time>2026-04-12T08:00:46.881Z</time></trkpt><trkpt lat="39.2066133" lon="16.2449817"><ele>1063.0</ele><time>2026-04-12T08:00:47.881Z</time></trkpt><trkpt lat="39.2064333" lon="16.2449667"><ele>1066.5</ele><time>2026-04-12T08:00:48.882Z</time></trkpt><trkpt lat="39.206155" lon="16.2449367"><ele>1070.0</ele><time>2026-04-12T08:00:49.882Z</time></trkpt><trkpt lat="39.205975" lon="16.2448617"><ele>1068.75</ele><time>2026-04-12T08:00:50.882Z</time></trkpt><trkpt lat="39.2058367" lon="16.2447917"><ele>1067.5</ele><time>2026-04-12T08:00:51.882Z</time></trkpt><trkpt lat="39.205705" lon="16.244705"><ele>1066.25</ele><time>2026-04-12T08:00:52.882Z</time></trkpt><trkpt lat="39.2056017" lon="16.2446283"><ele>1065.0</ele><time>2026-04-12T08:00:53.882Z</time></trkpt><trkpt lat="39.205505" lon="16.2445633"><ele>1068.0</ele><time>2026-04-12T08:00:54.882Z</time></trkpt><trkpt lat="39.2054417" lon="16.2444683"><ele>1071.0</ele><time>2026-04-12T08:00:55.882Z</time></trkpt><trkpt lat="39.205355" lon="16.2443967"><ele>1074.0</ele><time>2026-04-12T08:00:56.882Z</time></trkpt><trkpt lat="39.2052667" lon="16.2443067"><ele>1077.0</ele><time>2026-04-12T08:00:57.882Z</time></trkpt><trkpt lat="39.2051683" lon="16.2442283"><ele>1080.0</ele><time>2026-04-12T08:00:58.882Z</time></trkpt><trkpt lat="39.20506" lon="16.2441633"><ele>1080.0</ele><time>2026-04-12T08:00:59.882Z</time></trkpt><trkpt lat="39.2049667" lon="16.2441067"><ele>1080.0</ele><time>2026-04-12T08:01:00.882Z</time></trkpt><trkpt lat="39.2048783" lon="16.2440567"><ele>1080.0</ele><time>2026-04-12T08:01:01.881Z</time></trkpt><trkpt lat="39.2048033" lon="16.2440117"><ele>1080.0</ele><time>2026-04-12T08:01:02.881Z</time></trkpt><trkpt lat="39.2047117" lon="16.2439567"><ele>1080.0</ele><time>2026-04-12T08:01:03.882Z</time></trkpt><trkpt lat="39.2045967" lon="16.2439733"><ele>1081.25</ele><time>2026-04-12T08:01:04.881Z</time></trkpt><trkpt lat="39.2044767" lon="16.2440283"><ele>1082.5</ele><time>2026-04-12T08:01:05.882Z</time></trkpt><trkpt lat="39.2043533" lon="16.2440383"><ele>1083.75</ele><time>2026-04-12T08:01:06.882Z</time></trkpt><trkpt lat="39.2042267" lon="16.24406"><ele>1085.0</ele><time>2026-04-12T08:01:07.881Z</time></trkpt><trkpt lat="39.2040833" lon="16.2440917"><ele>1085.0</ele><time>2026-04-12T08:01:08.882Z</time></trkpt><trkpt lat="39.203955" lon="16.2440867"><ele>1085.0</ele><time>2026-04-12T08:01:09.882Z</time></trkpt><trkpt lat="39.2038333" lon="16.244065"><ele>1085.0</ele><time>2026-04-12T08:01:10.882Z</time></trkpt><trkpt lat="39.2037" lon="16.2440533"><ele>1085.0</ele><time>2026-04-12T08:01:11.882Z</time></trkpt><trkpt lat="39.2035783" lon="16.244015"><ele>1088.5</ele><time>2026-04-12T08:01:12.882Z</time></trkpt><trkpt lat="39.203465" lon="16.2439467"><ele>1092.0</ele><time>2026-04-12T08:01:13.882Z</time></trkpt><trkpt lat="39.2033483" lon="16.243865"><ele>1095.5</ele><time>2026-04-12T08:01:14.882Z</time></trkpt><trkpt lat="39.20327" lon="16.243765"><ele>1099.0</ele><time>2026-04-12T08:01:15.882Z</time></trkpt><trkpt lat="39.20319" lon="16.243655"><ele>1099.4</ele><time>2026-04-12T08:01:16.881Z</time></trkpt><trkpt lat="39.2031133" lon="16.243535"><ele>1099.8000000000002</ele><time>2026-04-12T08:01:17.882Z</time></trkpt><trkpt lat="39.2030417" lon="16.2434467"><ele>1100.1999999999998</ele><time>2026-04-12T08:01:18.881Z</time></trkpt><trkpt lat="39.2029483" lon="16.243375"><ele>1100.6</ele><time>2026-04-12T08:01:19.881Z</time></trkpt><trkpt lat="39.20285" lon="16.2433117"><ele>1101.0</ele><time>2026-04-12T08:01:20.882Z</time></trkpt><trkpt lat="39.2027533" lon="16.243265"><ele>1101.0</ele><time>2026-04-12T08:01:21.881Z</time></trkpt><trkpt lat="39.20266" lon="16.2432433"><ele>1101.0</ele><time>2026-04-12T08:01:22.882Z</time></trkpt><trkpt lat="39.202565" lon="16.2432"><ele>1101.0</ele><time>2026-04-12T08:01:23.882Z</time></trkpt><trkpt lat="39.2024767" lon="16.2431467"><ele>1101.0</ele><time>2026-04-12T08:01:24.882Z</time></trkpt><trkpt lat="39.2024067" lon="16.2430883"><ele>1101.0</ele><time>2026-04-12T08:01:25.881Z</time></trkpt><trkpt lat="39.2023617" lon="16.243"><ele>1104.6</ele><time>2026-04-12T08:01:26.881Z</time></trkpt><trkpt lat="39.2023233" lon="16.24284"><ele>1108.1999999999998</ele><time>2026-04-12T08:01:28.881Z</time></trkpt><trkpt lat="39.2024117" lon="16.242785"><ele>1111.8000000000002</ele><time>2026-04-12T08:01:29.881Z</time></trkpt><trkpt lat="39.202375" lon="16.2427033"><ele>1115.4</ele><time>2026-04-12T08:01:30.881Z</time></trkpt><trkpt lat="39.2023183" lon="16.2426183"><ele>1119.0</ele><time>2026-04-12T08:01:31.882Z</time></trkpt><trkpt lat="39.20224" lon="16.242545"><ele>1120.8333333333333</ele><time>2026-04-12T08:01:32.882Z</time></trkpt><trkpt lat="39.202185" lon="16.24245"><ele>1122.6666666666667</ele><time>2026-04-12T08:01:33.882Z</time></trkpt><trkpt lat="39.202125" lon="16.242405"><ele>1124.5</ele><time>2026-04-12T08:01:34.881Z</time></trkpt><trkpt lat="39.2020733" lon="16.242325"><ele>1126.3333333333335</ele><time>2026-04-12T08:01:35.882Z</time></trkpt><trkpt lat="39.2020317" lon="16.24225"><ele>1128.1666666666667</ele><time>2026-04-12T08:01:36.881Z</time></trkpt><trkpt lat="39.2020033" lon="16.242175"><ele>1130.0</ele><time>2026-04-12T08:01:37.882Z</time></trkpt><trkpt lat="39.2022267" lon="16.2422633"><ele>1126.3333333333335</ele><time>2026-04-12T08:01:41.882Z</time></trkpt><trkpt lat="39.2024533" lon="16.2424067"><ele>1122.6666666666667</ele><time>2026-04-12T08:01:42.882Z</time></trkpt><trkpt lat="39.2025717" lon="16.2425033"><ele>1119.0</ele><time>2026-04-12T08:01:43.882Z</time></trkpt><trkpt lat="39.2026617" lon="16.2425717"><ele>1119.0</ele><time>2026-04-12T08:01:44.881Z</time></trkpt><trkpt lat="39.2027567" lon="16.242585"><ele>1119.0</ele><time>2026-04-12T08:01:45.882Z</time></trkpt><trkpt lat="39.20283" lon="16.2426033"><ele>1119.0</ele><time>2026-04-12T08:01:46.882Z</time></trkpt><trkpt lat="39.2029267" lon="16.24253"><ele>1119.0</ele><time>2026-04-12T08:01:47.882Z</time></trkpt><trkpt lat="39.2030083" lon="16.2424633"><ele>1119.0</ele><time>2026-04-12T08:01:48.882Z</time></trkpt><trkpt lat="39.203075" lon="16.2424283"><ele>1119.0</ele><time>2026-04-12T08:01:49.882Z</time></trkpt><trkpt lat="39.2031167" lon="16.2423633"><ele>1119.0</ele><time>2026-04-12T08:01:50.882Z</time></trkpt><trkpt lat="39.2030433" lon="16.2422283"><ele>1119.0</ele><time>2026-04-12T08:01:51.881Z</time></trkpt><trkpt lat="39.202955" lon="16.2421383"><ele>1119.0</ele><time>2026-04-12T08:01:52.882Z</time></trkpt><trkpt lat="39.2028217" lon="16.2420533"><ele>1122.0</ele><time>2026-04-12T08:01:53.882Z</time></trkpt><trkpt lat="39.2026883" lon="16.2419867"><ele>1125.0</ele><time>2026-04-12T08:01:54.881Z</time></trkpt><trkpt lat="39.2025483" lon="16.2419233"><ele>1128.0</ele><time>2026-04-12T08:01:55.882Z</time></trkpt><trkpt lat="39.2024467" lon="16.2418517"><ele>1131.0</ele><time>2026-04-12T08:01:56.882Z</time></trkpt><trkpt lat="39.20235" lon="16.2417733"><ele>1133.75</ele><time>2026-04-12T08:01:57.882Z</time></trkpt><trkpt lat="39.2022667" lon="16.241695"><ele>1136.5</ele><time>2026-04-12T08:01:58.882Z</time></trkpt><trkpt lat="39.2021733" lon="16.2416217"><ele>1139.25</ele><time>2026-04-12T08:01:59.882Z</time></trkpt><trkpt lat="39.20208" lon="16.24156"><ele>1142.0</ele><time>2026-04-12T08:02:00.882Z</time></trkpt><trkpt lat="39.2019383" lon="16.2414517"><ele>1144.0</ele><time>2026-04-12T08:02:01.881Z</time></trkpt><trkpt lat="39.2018283" lon="16.2413817"><ele>1146.0</ele><time>2026-04-12T08:02:02.882Z</time></trkpt><trkpt lat="39.201665" lon="16.2413283"><ele>1148.0</ele><time>2026-04-12T08:02:03.882Z</time></trkpt><trkpt lat="39.201545" lon="16.2413267"><ele>1150.0</ele><time>2026-04-12T08:02:04.882Z</time></trkpt><trkpt lat="39.2014333" lon="16.2413867"><ele>1146.8</ele><time>2026-04-12T08:02:05.881Z</time></trkpt><trkpt lat="39.2013567" lon="16.2415083"><ele>1143.6</ele><time>2026-04-12T08:02:06.882Z</time></trkpt><trkpt lat="39.2012783" lon="16.241595"><ele>1140.4</ele><time>2026-04-12T08:02:07.882Z</time></trkpt><trkpt lat="39.2012167" lon="16.24168"><ele>1137.2</ele><time>2026-04-12T08:02:08.882Z</time></trkpt><trkpt lat="39.2011417" lon="16.24173"><ele>1134.0</ele><time>2026-04-12T08:02:09.882Z</time></trkpt><trkpt lat="39.20103" lon="16.2417117"><ele>1134.0</ele><time>2026-04-12T08:02:11.881Z</time></trkpt><trkpt lat="39.2009533" lon="16.2415067"><ele>1134.0</ele><time>2026-04-12T08:02:13.882Z</time></trkpt><trkpt lat="39.2009133" lon="16.241395"><ele>1134.0</ele><time>2026-04-12T08:02:14.881Z</time></trkpt><trkpt lat="39.2008683" lon="16.2412533"><ele>1134.0</ele><time>2026-04-12T08:02:15.882Z</time></trkpt><trkpt lat="39.2008267" lon="16.2410633"><ele>1138.0</ele><time>2026-04-12T08:02:16.882Z</time></trkpt><trkpt lat="39.200795" lon="16.2409183"><ele>1142.0</ele><time>2026-04-12T08:02:17.882Z</time></trkpt><trkpt lat="39.20074" lon="16.2407567"><ele>1146.0</ele><time>2026-04-12T08:02:18.882Z</time></trkpt><trkpt lat="39.2006933" lon="16.24061"><ele>1150.0</ele><time>2026-04-12T08:02:19.882Z</time></trkpt><trkpt lat="39.20069" lon="16.2404617"><ele>1150.2</ele><time>2026-04-12T08:02:20.882Z</time></trkpt><trkpt lat="39.200665" lon="16.240305"><ele>1150.4</ele><time>2026-04-12T08:02:21.882Z</time></trkpt><trkpt lat="39.20064" lon="16.2401783"><ele>1150.6</ele><time>2026-04-12T08:02:22.882Z</time></trkpt><trkpt lat="39.2006083" lon="16.2400583"><ele>1150.8</ele><time>2026-04-12T08:02:23.881Z</time></trkpt><trkpt lat="39.2005633" lon="16.239955"><ele>1151.0</ele><time>2026-04-12T08:02:24.882Z</time></trkpt><trkpt lat="39.20049" lon="16.239855"><ele>1152.5</ele><time>2026-04-12T08:02:25.882Z</time></trkpt><trkpt lat="39.2004067" lon="16.2397467"><ele>1154.0</ele><time>2026-04-12T08:02:26.882Z</time></trkpt><trkpt lat="39.2003267" lon="16.23965"><ele>1155.5</ele><time>2026-04-12T08:02:27.881Z</time></trkpt><trkpt lat="39.2002333" lon="16.2395283"><ele>1157.0</ele><time>2026-04-12T08:02:28.881Z</time></trkpt><trkpt lat="39.2001517" lon="16.2394233"><ele>1157.0</ele><time>2026-04-12T08:02:29.882Z</time></trkpt><trkpt lat="39.20006" lon="16.2393067"><ele>1157.0</ele><time>2026-04-12T08:02:30.881Z</time></trkpt><trkpt lat="39.19998" lon="16.2392117"><ele>1157.0</ele><time>2026-04-12T08:02:31.881Z</time></trkpt><trkpt lat="39.1999083" lon="16.2390883"><ele>1157.0</ele><time>2026-04-12T08:02:32.882Z</time></trkpt><trkpt lat="39.1998367" lon="16.23896"><ele>1162.0</ele><time>2026-04-12T08:02:33.882Z</time></trkpt><trkpt lat="39.1997667" lon="16.238835"><ele>1167.0</ele><time>2026-04-12T08:02:34.882Z</time></trkpt><trkpt lat="39.1996933" lon="16.2386917"><ele>1172.0</ele><time>2026-04-12T08:02:35.882Z</time></trkpt><trkpt lat="39.1996283" lon="16.238555"><ele>1177.0</ele><time>2026-04-12T08:02:36.882Z</time></trkpt><trkpt lat="39.1995683" lon="16.238415"><ele>1177.0</ele><time>2026-04-12T08:02:37.882Z</time></trkpt><trkpt lat="39.1995117" lon="16.2382733"><ele>1177.0</ele><time>2026-04-12T08:02:38.882Z</time></trkpt><trkpt lat="39.1994633" lon="16.2381267"><ele>1177.0</ele><time>2026-04-12T08:02:39.882Z</time></trkpt><trkpt lat="39.1994217" lon="16.237975"><ele>1177.0</ele><time>2026-04-12T08:02:40.882Z</time></trkpt><trkpt lat="39.1993817" lon="16.2378283"><ele>1176.5</ele><time>2026-04-12T08:02:41.882Z</time></trkpt><trkpt lat="39.1993433" lon="16.237655"><ele>1176.0</ele><time>2026-04-12T08:02:42.881Z</time></trkpt><trkpt lat="39.1993017" lon="16.2374967"><ele>1175.5</ele><time>2026-04-12T08:02:43.882Z</time></trkpt><trkpt lat="39.1992583" lon="16.237325"><ele>1175.0</ele><time>2026-04-12T08:02:44.882Z</time></trkpt><trkpt lat="39.1991967" lon="16.23717"><ele>1174.75</ele><time>2026-04-12T08:02:45.882Z</time></trkpt><trkpt lat="39.1991367" lon="16.2370217"><ele>1174.5</ele><time>2026-04-12T08:02:46.882Z</time></trkpt><trkpt lat="39.19906" lon="16.2368817"><ele>1174.25</ele><time>2026-04-12T08:02:47.882Z</time></trkpt><trkpt lat="39.1990033" lon="16.2367383"><ele>1174.0</ele><time>2026-04-12T08:02:48.881Z</time></trkpt><trkpt lat="39.1989333" lon="16.23665"><ele>1174.0</ele><time>2026-04-12T08:02:49.881Z</time></trkpt><trkpt lat="39.198875" lon="16.2365383"><ele>1174.0</ele><time>2026-04-12T08:02:50.881Z</time></trkpt><trkpt lat="39.1988083" lon="16.236435"><ele>1174.0</ele><time>2026-04-12T08:02:51.881Z</time></trkpt><trkpt lat="39.1987533" lon="16.2363183"><ele>1174.0</ele><time>2026-04-12T08:02:52.881Z</time></trkpt><trkpt lat="39.198685" lon="16.2362317"><ele>1174.0</ele><time>2026-04-12T08:02:53.882Z</time></trkpt><trkpt lat="39.1986083" lon="16.236155"><ele>1167.6000000000001</ele><time>2026-04-12T08:02:54.882Z</time></trkpt><trkpt lat="39.1985317" lon="16.2360767"><ele>1161.2</ele><time>2026-04-12T08:02:55.882Z</time></trkpt><trkpt lat="39.1984567" lon="16.236"><ele>1154.8000000000002</ele><time>2026-04-12T08:02:56.882Z</time></trkpt><trkpt lat="39.1983733" lon="16.2359567"><ele>1148.4</ele><time>2026-04-12T08:02:57.882Z</time></trkpt><trkpt lat="39.1982817" lon="16.23592"><ele>1142.0</ele><time>2026-04-12T08:02:58.882Z</time></trkpt><trkpt lat="39.1981733" lon="16.2359183"><ele>1146.6666666666667</ele><time>2026-04-12T08:02:59.881Z</time></trkpt><trkpt lat="39.1980917" lon="16.2358567"><ele>1151.3333333333333</ele><time>2026-04-12T08:03:00.882Z</time></trkpt><trkpt lat="39.1980083" lon="16.235805"><ele>1156.0</ele><time>2026-04-12T08:03:01.882Z</time></trkpt><trkpt lat="39.19747" lon="16.2365733"><ele>1155.3333333333333</ele><time>2026-04-12T08:03:02.882Z</time></trkpt><trkpt lat="39.19732" lon="16.23678"><ele>1154.6666666666667</ele><time>2026-04-12T08:03:03.882Z</time></trkpt><trkpt lat="39.1972267" lon="16.2370367"><ele>1154.0</ele><time>2026-04-12T08:03:04.882Z</time></trkpt><trkpt lat="39.1971267" lon="16.23723"><ele>1159.2</ele><time>2026-04-12T08:03:05.882Z</time></trkpt><trkpt lat="39.197035" lon="16.2373417"><ele>1164.4</ele><time>2026-04-12T08:03:06.881Z</time></trkpt><trkpt lat="39.1969317" lon="16.2373967"><ele>1169.6</ele><time>2026-04-12T08:03:07.882Z</time></trkpt><trkpt lat="39.1968483" lon="16.2374133"><ele>1174.8</ele><time>2026-04-12T08:03:08.881Z</time></trkpt><trkpt lat="39.1967767" lon="16.237425"><ele>1180.0</ele><time>2026-04-12T08:03:09.882Z</time></trkpt><trkpt lat="39.1966683" lon="16.237405"><ele>1180.0</ele><time>2026-04-12T08:03:11.881Z</time></trkpt><trkpt lat="39.196585" lon="16.23733"><ele>1180.0</ele><time>2026-04-12T08:03:13.882Z</time></trkpt><trkpt lat="39.1965417" lon="16.2372533"><ele>1180.0</ele><time>2026-04-12T08:03:14.882Z</time></trkpt><trkpt lat="39.1964633" lon="16.2372017"><ele>1180.0</ele><time>2026-04-12T08:03:15.882Z</time></trkpt><trkpt lat="39.1963783" lon="16.2371467"><ele>1180.0</ele><time>2026-04-12T08:03:16.882Z</time></trkpt><trkpt lat="39.1962933" lon="16.2370817"><ele>1179.0</ele><time>2026-04-12T08:03:17.882Z</time></trkpt><trkpt lat="39.19618" lon="16.2370467"><ele>1178.0</ele><time>2026-04-12T08:03:18.882Z</time></trkpt><trkpt lat="39.196055" lon="16.2369867"><ele>1177.0</ele><time>2026-04-12T08:03:19.881Z</time></trkpt><trkpt lat="39.1959333" lon="16.236955"><ele>1176.0</ele><time>2026-04-12T08:03:20.882Z</time></trkpt><trkpt lat="39.19582" lon="16.2368933"><ele>1176.0</ele><time>2026-04-12T08:03:21.882Z</time></trkpt><trkpt lat="39.1957167" lon="16.2368133"><ele>1176.0</ele><time>2026-04-12T08:03:22.881Z</time></trkpt><trkpt lat="39.1956283" lon="16.23674"><ele>1176.0</ele><time>2026-04-12T08:03:23.882Z</time></trkpt><trkpt lat="39.195525" lon="16.2365967"><ele>1176.0</ele><time>2026-04-12T08:03:24.882Z</time></trkpt><trkpt lat="39.195425" lon="16.23649"><ele>1179.5</ele><time>2026-04-12T08:03:25.881Z</time></trkpt><trkpt lat="39.19531" lon="16.2363717"><ele>1183.0</ele><time>2026-04-12T08:03:26.882Z</time></trkpt><trkpt lat="39.1952059" lon="16.2362751"><ele>1186.5</ele><time>2026-04-12T08:03:27.882Z</time></trkpt><trkpt lat="39.1950811" lon="16.236163"><ele>1190.0</ele><time>2026-04-12T08:03:28.882Z</time></trkpt><trkpt lat="39.1949641" lon="16.2360707"><ele>1190.0</ele><time>2026-04-12T08:03:29.882Z</time></trkpt><trkpt lat="39.1948612" lon="16.2359929"><ele>1190.0</ele><time>2026-04-12T08:03:30.882Z</time></trkpt><trkpt lat="39.1947653" lon="16.2359222"><ele>1190.0</ele><time>2026-04-12T08:03:31.882Z</time></trkpt><trkpt lat="39.1946648" lon="16.2358596"><ele>1190.0</ele><time>2026-04-12T08:03:32.882Z</time></trkpt><trkpt lat="39.194558" lon="16.2357773"><ele>1192.0</ele><time>2026-04-12T08:03:33.882Z</time></trkpt><trkpt lat="39.1944406" lon="16.2357277"><ele>1194.0</ele><time>2026-04-12T08:03:34.882Z</time></trkpt><trkpt lat="39.1943144" lon="16.2356719"><ele>1196.0</ele><time>2026-04-12T08:03:35.882Z</time></trkpt><trkpt lat="39.1941797" lon="16.2356106"><ele>1198.0</ele><time>2026-04-12T08:03:36.882Z</time></trkpt><trkpt lat="39.194052" lon="16.2355536"><ele>1195.0</ele><time>2026-04-12T08:03:37.882Z</time></trkpt><trkpt lat="39.1939292" lon="16.2354894"><ele>1192.0</ele><time>2026-04-12T08:03:38.882Z</time></trkpt><trkpt lat="39.1938109" lon="16.2354234"><ele>1189.0</ele><time>2026-04-12T08:03:39.882Z</time></trkpt><trkpt lat="39.1937518" lon="16.2353599"><ele>1186.0</ele><time>2026-04-12T08:03:40.882Z</time></trkpt><trkpt lat="39.1936765" lon="16.2352746"><ele>1183.0</ele><time>2026-04-12T08:03:41.882Z</time></trkpt><trkpt lat="39.193593" lon="16.2351827"><ele>1183.0</ele><time>2026-04-12T08:03:42.881Z</time></trkpt><trkpt lat="39.1935232" lon="16.235083"><ele>1183.0</ele><time>2026-04-12T08:03:43.882Z</time></trkpt><trkpt lat="39.1934536" lon="16.2349866"><ele>1183.0</ele><time>2026-04-12T08:03:44.882Z</time></trkpt><trkpt lat="39.193349" lon="16.2348898"><ele>1183.0</ele><time>2026-04-12T08:03:45.882Z</time></trkpt><trkpt lat="39.193227" lon="16.2347942"><ele>1174.6666666666665</ele><time>2026-04-12T08:03:46.882Z</time></trkpt><trkpt lat="39.1930974" lon="16.2346965"><ele>1166.3333333333333</ele><time>2026-04-12T08:03:47.882Z</time></trkpt><trkpt lat="39.192967" lon="16.234623"><ele>1158.0</ele><time>2026-04-12T08:03:48.881Z</time></trkpt><trkpt lat="39.1927998" lon="16.2346127"><ele>1158.0</ele><time>2026-04-12T08:03:49.882Z</time></trkpt><trkpt lat="39.1926539" lon="16.2346009"><ele>1158.0</ele><time>2026-04-12T08:03:50.882Z</time></trkpt><trkpt lat="39.1925198" lon="16.2345989"><ele>1158.0</ele><time>2026-04-12T08:03:51.882Z</time></trkpt><trkpt lat="39.1923872" lon="16.2346077"><ele>1158.0</ele><time>2026-04-12T08:03:52.882Z</time></trkpt><trkpt lat="39.1922501" lon="16.2346116"><ele>1156.5</ele><time>2026-04-12T08:03:53.882Z</time></trkpt><trkpt lat="39.1921078" lon="16.2346305"><ele>1155.0</ele><time>2026-04-12T08:03:54.881Z</time></trkpt><trkpt lat="39.191973" lon="16.2346263"><ele>1153.5</ele><time>2026-04-12T08:03:55.882Z</time></trkpt><trkpt lat="39.1918309" lon="16.2346212"><ele>1152.0</ele><time>2026-04-12T08:03:56.882Z</time></trkpt><trkpt lat="39.1917004" lon="16.2346236"><ele>1152.0</ele><time>2026-04-12T08:03:57.882Z</time></trkpt><trkpt lat="39.1915587" lon="16.2346109"><ele>1152.0</ele><time>2026-04-12T08:03:58.882Z</time></trkpt><trkpt lat="39.191412" lon="16.2346018"><ele>1152.0</ele><time>2026-04-12T08:03:59.882Z</time></trkpt><trkpt lat="39.1912783" lon="16.23459"><ele>1152.0</ele><time>2026-04-12T08:04:00.882Z</time></trkpt><trkpt lat="39.1911683" lon="16.2346067"><ele>1152.0</ele><time>2026-04-12T08:04:01.882Z</time></trkpt><trkpt lat="39.19107" lon="16.23465"><ele>1152.0</ele><time>2026-04-12T08:04:02.882Z</time></trkpt><trkpt lat="39.19098" lon="16.2347317"><ele>1152.0</ele><time>2026-04-12T08:04:03.882Z</time></trkpt><trkpt lat="39.1908983" lon="16.2348383"><ele>1152.0</ele><time>2026-04-12T08:04:04.882Z</time></trkpt><trkpt lat="39.1907817" lon="16.2349183"><ele>1152.0</ele><time>2026-04-12T08:04:05.882Z</time></trkpt><trkpt lat="39.19073" lon="16.2351"><ele>1152.0</ele><time>2026-04-12T08:04:06.882Z</time></trkpt><trkpt lat="39.1907467" lon="16.23532"><ele>1152.0</ele><time>2026-04-12T08:04:07.882Z</time></trkpt><trkpt lat="39.1906933" lon="16.2354633"><ele>1152.0</ele><time>2026-04-12T08:04:08.882Z</time></trkpt><trkpt lat="39.1906133" lon="16.2355733"><ele>1151.5</ele><time>2026-04-12T08:04:09.882Z</time></trkpt><trkpt lat="39.19052" lon="16.2356733"><ele>1151.0</ele><time>2026-04-12T08:04:10.881Z</time></trkpt><trkpt lat="39.1904183" lon="16.235745"><ele>1150.5</ele><time>2026-04-12T08:04:11.881Z</time></trkpt><trkpt lat="39.1903117" lon="16.23583"><ele>1150.0</ele><time>2026-04-12T08:04:12.881Z</time></trkpt><trkpt lat="39.1901967" lon="16.2358733"><ele>1150.0</ele><time>2026-04-12T08:04:13.882Z</time></trkpt><trkpt lat="39.19005" lon="16.2358433"><ele>1150.0</ele><time>2026-04-12T08:04:14.882Z</time></trkpt><trkpt lat="39.1899067" lon="16.23579"><ele>1150.0</ele><time>2026-04-12T08:04:15.882Z</time></trkpt><trkpt lat="39.189755" lon="16.2356767"><ele>1144.75</ele><time>2026-04-12T08:04:16.881Z</time></trkpt><trkpt lat="39.1896017" lon="16.2355867"><ele>1139.5</ele><time>2026-04-12T08:04:17.882Z</time></trkpt><trkpt lat="39.1895" lon="16.2355383"><ele>1134.25</ele><time>2026-04-12T08:04:18.881Z</time></trkpt><trkpt lat="39.1893817" lon="16.23551"><ele>1129.0</ele><time>2026-04-12T08:04:19.882Z</time></trkpt><trkpt lat="39.1892967" lon="16.2354883"><ele>1129.0</ele><time>2026-04-12T08:04:20.882Z</time></trkpt><trkpt lat="39.18917" lon="16.2354683"><ele>1129.0</ele><time>2026-04-12T08:04:21.881Z</time></trkpt><trkpt lat="39.18904" lon="16.2354717"><ele>1129.0</ele><time>2026-04-12T08:04:22.882Z</time></trkpt><trkpt lat="39.1889367" lon="16.23546"><ele>1129.0</ele><time>2026-04-12T08:04:23.882Z</time></trkpt><trkpt lat="39.18882" lon="16.2354483"><ele>1130.25</ele><time>2026-04-12T08:04:24.882Z</time></trkpt><trkpt lat="39.1886933" lon="16.2354217"><ele>1131.5</ele><time>2026-04-12T08:04:25.881Z</time></trkpt><trkpt lat="39.1885733" lon="16.2353933"><ele>1132.75</ele><time>2026-04-12T08:04:26.882Z</time></trkpt><trkpt lat="39.188465" lon="16.235355"><ele>1134.0</ele><time>2026-04-12T08:04:27.881Z</time></trkpt><trkpt lat="39.1883667" lon="16.23533"><ele>1134.0</ele><time>2026-04-12T08:04:28.882Z</time></trkpt><trkpt lat="39.18828" lon="16.2353"><ele>1134.0</ele><time>2026-04-12T08:04:29.882Z</time></trkpt><trkpt lat="39.1882083" lon="16.2352633"><ele>1134.0</ele><time>2026-04-12T08:04:30.882Z</time></trkpt><trkpt lat="39.188145" lon="16.2352233"><ele>1134.0</ele><time>2026-04-12T08:04:31.882Z</time></trkpt><trkpt lat="39.188085" lon="16.2351633"><ele>1134.0</ele><time>2026-04-12T08:04:32.881Z</time></trkpt><trkpt lat="39.188015" lon="16.2350883"><ele>1134.0</ele><time>2026-04-12T08:04:33.882Z</time></trkpt><trkpt lat="39.187945" lon="16.2350183"><ele>1132.2</ele><time>2026-04-12T08:04:34.881Z</time></trkpt><trkpt lat="39.1879267" lon="16.2349117"><ele>1130.4</ele><time>2026-04-12T08:04:35.882Z</time></trkpt><trkpt lat="39.187895" lon="16.2347967"><ele>1128.6</ele><time>2026-04-12T08:04:36.882Z</time></trkpt><trkpt lat="39.1878883" lon="16.2346533"><ele>1126.8</ele><time>2026-04-12T08:04:37.881Z</time></trkpt><trkpt lat="39.1879117" lon="16.2345067"><ele>1125.0</ele><time>2026-04-12T08:04:38.882Z</time></trkpt><trkpt lat="39.1879417" lon="16.23433"><ele>1125.0</ele><time>2026-04-12T08:04:39.881Z</time></trkpt><trkpt lat="39.188045" lon="16.2340867"><ele>1125.0</ele><time>2026-04-12T08:04:40.882Z</time></trkpt><trkpt lat="39.1880933" lon="16.233895"><ele>1125.0</ele><time>2026-04-12T08:04:41.882Z</time></trkpt><trkpt lat="39.188145" lon="16.2337167"><ele>1130.75</ele><time>2026-04-12T08:04:42.882Z</time></trkpt><trkpt lat="39.18821" lon="16.2335467"><ele>1136.5</ele><time>2026-04-12T08:04:43.881Z</time></trkpt><trkpt lat="39.188285" lon="16.233415"><ele>1142.25</ele><time>2026-04-12T08:04:44.882Z</time></trkpt><trkpt lat="39.1883317" lon="16.2332783"><ele>1148.0</ele><time>2026-04-12T08:04:45.882Z</time></trkpt><trkpt lat="39.188395" lon="16.23317"><ele>1149.6</ele><time>2026-04-12T08:04:46.882Z</time></trkpt><trkpt lat="39.1884783" lon="16.2330817"><ele>1151.1999999999998</ele><time>2026-04-12T08:04:47.882Z</time></trkpt><trkpt lat="39.1885367" lon="16.2329517"><ele>1152.8</ele><time>2026-04-12T08:04:48.881Z</time></trkpt><trkpt lat="39.1885467" lon="16.2328267"><ele>1154.3999999999999</ele><time>2026-04-12T08:04:49.881Z</time></trkpt><trkpt lat="39.18853" lon="16.2326867"><ele>1156.0</ele><time>2026-04-12T08:04:50.882Z</time></trkpt><trkpt lat="39.1884917" lon="16.2325567"><ele>1156.0</ele><time>2026-04-12T08:04:51.882Z</time></trkpt><trkpt lat="39.1884583" lon="16.2324533"><ele>1156.0</ele><time>2026-04-12T08:04:52.882Z</time></trkpt><trkpt lat="39.18843" lon="16.2323433"><ele>1156.0</ele><time>2026-04-12T08:04:53.881Z</time></trkpt><trkpt lat="39.1883933" lon="16.2322283"><ele>1156.0</ele><time>2026-04-12T08:04:54.882Z</time></trkpt><trkpt lat="39.1883033" lon="16.2320967"><ele>1156.0</ele><time>2026-04-12T08:04:55.882Z</time></trkpt><trkpt lat="39.1883017" lon="16.2319717"><ele>1156.6</ele><time>2026-04-12T08:04:56.882Z</time></trkpt><trkpt lat="39.1883183" lon="16.23185"><ele>1157.1999999999998</ele><time>2026-04-12T08:04:57.882Z</time></trkpt><trkpt lat="39.1883167" lon="16.2317067"><ele>1157.8000000000002</ele><time>2026-04-12T08:04:58.882Z</time></trkpt><trkpt lat="39.1883317" lon="16.2315733"><ele>1158.4</ele><time>2026-04-12T08:04:59.882Z</time></trkpt><trkpt lat="39.188405" lon="16.2314633"><ele>1159.0</ele><time>2026-04-12T08:05:00.882Z</time></trkpt><trkpt lat="39.1884533" lon="16.231345"><ele>1157.8</ele><time>2026-04-12T08:05:01.882Z</time></trkpt><trkpt lat="39.18846" lon="16.2312033"><ele>1156.6000000000001</ele><time>2026-04-12T08:05:02.882Z</time></trkpt><trkpt lat="39.1884733" lon="16.2310433"><ele>1155.4</ele><time>2026-04-12T08:05:03.882Z</time></trkpt><trkpt lat="39.18849" lon="16.23091"><ele>1154.2</ele><time>2026-04-12T08:05:04.881Z</time></trkpt><trkpt lat="39.1884717" lon="16.2307767"><ele>1153.0</ele><time>2026-04-12T08:05:05.882Z</time></trkpt><trkpt lat="39.1884467" lon="16.2306633"><ele>1152.1666666666665</ele><time>2026-04-12T08:05:06.881Z</time></trkpt><trkpt lat="39.188405" lon="16.2305767"><ele>1151.3333333333333</ele><time>2026-04-12T08:05:07.882Z</time></trkpt><trkpt lat="39.1883583" lon="16.2304983"><ele>1150.5</ele><time>2026-04-12T08:05:08.882Z</time></trkpt><trkpt lat="39.1883283" lon="16.230405"><ele>1149.6666666666667</ele><time>2026-04-12T08:05:09.882Z</time></trkpt><trkpt lat="39.1882533" lon="16.2304033"><ele>1148.8333333333335</ele><time>2026-04-12T08:05:10.882Z</time></trkpt><trkpt lat="39.1882083" lon="16.23034"><ele>1148.0</ele><time>2026-04-12T08:05:11.882Z</time></trkpt><trkpt lat="39.1878933" lon="16.2307217"><ele>1148.0</ele><time>2026-04-12T08:05:13.881Z</time></trkpt><trkpt lat="39.187745" lon="16.230865"><ele>1148.0</ele><time>2026-04-12T08:05:14.882Z</time></trkpt><trkpt lat="39.1874533" lon="16.2310933"><ele>1149.0</ele><time>2026-04-12T08:05:15.882Z</time></trkpt><trkpt lat="39.18734" lon="16.2311967"><ele>1150.0</ele><time>2026-04-12T08:05:16.882Z</time></trkpt><trkpt lat="39.1872417" lon="16.23127"><ele>1151.0</ele><time>2026-04-12T08:05:17.882Z</time></trkpt><trkpt lat="39.1871467" lon="16.23135"><ele>1152.0</ele><time>2026-04-12T08:05:18.881Z</time></trkpt><trkpt lat="39.1870517" lon="16.2314133"><ele>1152.0</ele><time>2026-04-12T08:05:19.881Z</time></trkpt><trkpt lat="39.1869567" lon="16.2314667"><ele>1152.0</ele><time>2026-04-12T08:05:20.882Z</time></trkpt><trkpt lat="39.18686" lon="16.2315117"><ele>1152.0</ele><time>2026-04-12T08:05:21.882Z</time></trkpt><trkpt lat="39.18675" lon="16.2315767"><ele>1152.0</ele><time>2026-04-12T08:05:23.882Z</time></trkpt><trkpt lat="39.18667" lon="16.2316417"><ele>1152.0</ele><time>2026-04-12T08:05:24.882Z</time></trkpt><trkpt lat="39.1865883" lon="16.2317133"><ele>1159.0</ele><time>2026-04-12T08:05:25.882Z</time></trkpt><trkpt lat="39.1864183" lon="16.231765"><ele>1166.0</ele><time>2026-04-12T08:05:26.882Z</time></trkpt><trkpt lat="39.1862833" lon="16.2318183"><ele>1173.0</ele><time>2026-04-12T08:05:27.882Z</time></trkpt><trkpt lat="39.1861467" lon="16.23179"><ele>1173.0</ele><time>2026-04-12T08:05:28.882Z</time></trkpt><trkpt lat="39.18601" lon="16.2317733"><ele>1173.0</ele><time>2026-04-12T08:05:29.881Z</time></trkpt><trkpt lat="39.1859033" lon="16.23178"><ele>1173.0</ele><time>2026-04-12T08:05:30.882Z</time></trkpt><trkpt lat="39.1858" lon="16.2318133"><ele>1173.0</ele><time>2026-04-12T08:05:31.882Z</time></trkpt><trkpt lat="39.1856933" lon="16.231855"><ele>1173.0</ele><time>2026-04-12T08:05:32.882Z</time></trkpt><trkpt lat="39.185685" lon="16.2319733"><ele>1173.0</ele><time>2026-04-12T08:05:33.882Z</time></trkpt><trkpt lat="39.1856617" lon="16.2320833"><ele>1173.0</ele><time>2026-04-12T08:05:34.882Z</time></trkpt><trkpt lat="39.185595" lon="16.232235"><ele>1173.0</ele><time>2026-04-12T08:05:36.882Z</time></trkpt><trkpt lat="39.1855433" lon="16.2323083"><ele>1173.0</ele><time>2026-04-12T08:05:37.882Z</time></trkpt><trkpt lat="39.1854667" lon="16.23238"><ele>1171.2</ele><time>2026-04-12T08:05:38.881Z</time></trkpt><trkpt lat="39.18538" lon="16.2323967"><ele>1169.4</ele><time>2026-04-12T08:05:39.882Z</time></trkpt><trkpt lat="39.185285" lon="16.2324067"><ele>1167.6000000000001</ele><time>2026-04-12T08:05:40.881Z</time></trkpt><trkpt lat="39.185185" lon="16.2324583"><ele>1165.8</ele><time>2026-04-12T08:05:41.882Z</time></trkpt><trkpt lat="39.1850817" lon="16.232505"><ele>1164.0</ele><time>2026-04-12T08:05:42.882Z</time></trkpt><trkpt lat="39.184965" lon="16.23256"><ele>1164.0</ele><time>2026-04-12T08:05:43.882Z</time></trkpt><trkpt lat="39.1848633" lon="16.2326083"><ele>1164.0</ele><time>2026-04-12T08:05:44.881Z</time></trkpt><trkpt lat="39.1847667" lon="16.2326783"><ele>1164.0</ele><time>2026-04-12T08:05:45.882Z</time></trkpt><trkpt lat="39.1846783" lon="16.2327517"><ele>1164.0</ele><time>2026-04-12T08:05:46.882Z</time></trkpt><trkpt lat="39.1845933" lon="16.232825"><ele>1164.0</ele><time>2026-04-12T08:05:47.882Z</time></trkpt><trkpt lat="39.184515" lon="16.2329117"><ele>1163.8333333333333</ele><time>2026-04-12T08:05:48.882Z</time></trkpt><trkpt lat="39.1844517" lon="16.2330017"><ele>1163.6666666666667</ele><time>2026-04-12T08:05:49.882Z</time></trkpt><trkpt lat="39.1844167" lon="16.2330783"><ele>1163.5</ele><time>2026-04-12T08:05:50.881Z</time></trkpt><trkpt lat="39.1843417" lon="16.2331583"><ele>1163.3333333333335</ele><time>2026-04-12T08:05:52.882Z</time></trkpt><trkpt lat="39.1842383" lon="16.2331783"><ele>1163.1666666666667</ele><time>2026-04-12T08:05:54.882Z</time></trkpt><trkpt lat="39.1842267" lon="16.2330983"><ele>1163.0</ele><time>2026-04-12T08:05:55.882Z</time></trkpt><trkpt lat="39.1841633" lon="16.2330217"><ele>1163.0</ele><time>2026-04-12T08:05:57.882Z</time></trkpt><trkpt lat="39.1841317" lon="16.2329017"><ele>1163.0</ele><time>2026-04-12T08:05:59.881Z</time></trkpt><trkpt lat="39.1841133" lon="16.2328167"><ele>1163.0</ele><time>2026-04-12T08:06:00.882Z</time></trkpt><trkpt lat="39.18409" lon="16.2327167"><ele>1163.0</ele><time>2026-04-12T08:06:01.881Z</time></trkpt><trkpt lat="39.1840717" lon="16.2325567"><ele>1163.0</ele><time>2026-04-12T08:06:03.881Z</time></trkpt><trkpt lat="39.1840483" lon="16.23246"><ele>1163.0</ele><time>2026-04-12T08:06:04.882Z</time></trkpt><trkpt lat="39.184015" lon="16.2323617"><ele>1163.0</ele><time>2026-04-12T08:06:05.882Z</time></trkpt><trkpt lat="39.1839983" lon="16.2322567"><ele>1163.0</ele><time>2026-04-12T08:06:06.882Z</time></trkpt><trkpt lat="39.1839867" lon="16.232155"><ele>1163.0</ele><time>2026-04-12T08:06:07.881Z</time></trkpt><trkpt lat="39.1839667" lon="16.23207"><ele>1163.0</ele><time>2026-04-12T08:06:08.882Z</time></trkpt><trkpt lat="39.1839583" lon="16.2319817"><ele>1163.0</ele><time>2026-04-12T08:06:09.882Z</time></trkpt><trkpt lat="39.183965" lon="16.2318583"><ele>1161.0</ele><time>2026-04-12T08:06:10.882Z</time></trkpt><trkpt lat="39.1839367" lon="16.23174"><ele>1159.0</ele><time>2026-04-12T08:06:11.882Z</time></trkpt><trkpt lat="39.183915" lon="16.2315517"><ele>1157.0</ele><time>2026-04-12T08:06:12.881Z</time></trkpt><trkpt lat="39.18391" lon="16.2313933"><ele>1155.0</ele><time>2026-04-12T08:06:13.882Z</time></trkpt><trkpt lat="39.18398" lon="16.2312833"><ele>1158.8333333333333</ele><time>2026-04-12T08:06:14.882Z</time></trkpt><trkpt lat="39.1839783" lon="16.2311867"><ele>1162.6666666666667</ele><time>2026-04-12T08:06:15.882Z</time></trkpt><trkpt lat="39.183955" lon="16.231095"><ele>1166.5</ele><time>2026-04-12T08:06:16.882Z</time></trkpt><trkpt lat="39.1839467" lon="16.23101"><ele>1170.3333333333335</ele><time>2026-04-12T08:06:20.882Z</time></trkpt><trkpt lat="39.1838683" lon="16.2309817"><ele>1174.1666666666667</ele><time>2026-04-12T08:06:29.882Z</time></trkpt><trkpt lat="39.1837917" lon="16.23095"><ele>1178.0</ele><time>2026-04-12T08:06:31.882Z</time></trkpt><trkpt lat="39.1837183" lon="16.2309183"><ele>1178.0</ele><time>2026-04-12T08:06:33.882Z</time></trkpt><trkpt lat="39.1838117" lon="16.2309967"><ele>1178.0</ele><time>2026-04-12T08:07:25.881Z</time></trkpt><trkpt lat="39.1838183" lon="16.2311333"><ele>1178.0</ele><time>2026-04-12T08:07:37.882Z</time></trkpt><trkpt lat="39.1837333" lon="16.23098"><ele>1178.0</ele><time>2026-04-12T08:08:16.882Z</time></trkpt><trkpt lat="39.1836633" lon="16.2308933"><ele>1178.0</ele><time>2026-04-12T08:08:18.882Z</time></trkpt><trkpt lat="39.1835833" lon="16.230815"><ele>1178.0</ele><time>2026-04-12T08:08:20.882Z</time></trkpt><trkpt lat="39.1834817" lon="16.2307433"><ele>1178.0</ele><time>2026-04-12T08:08:22.882Z</time></trkpt><trkpt lat="39.183425" lon="16.230695"><ele>1178.0</ele><time>2026-04-12T08:08:23.882Z</time></trkpt><trkpt lat="39.1833833" lon="16.2306167"><ele>1178.0</ele><time>2026-04-12T08:08:25.881Z</time></trkpt><trkpt lat="39.1833433" lon="16.2305283"><ele>1178.0</ele><time>2026-04-12T08:08:27.882Z</time></trkpt><trkpt lat="39.1832917" lon="16.2304633"><ele>1180.5</ele><time>2026-04-12T08:08:29.882Z</time></trkpt><trkpt lat="39.18336" lon="16.2305317"><ele>1183.0</ele><time>2026-04-12T08:08:57.882Z</time></trkpt><trkpt lat="39.183455" lon="16.2305283"><ele>1185.5</ele><time>2026-04-12T08:09:22.882Z</time></trkpt><trkpt lat="39.1835133" lon="16.230415"><ele>1188.0</ele><time>2026-04-12T08:11:22.882Z</time></trkpt><trkpt lat="39.1834967" lon="16.2303067"><ele>1190.5</ele><time>2026-04-12T08:11:25.882Z</time></trkpt><trkpt lat="39.183465" lon="16.2302167"><ele>1193.0</ele><time>2026-04-12T08:11:27.882Z</time></trkpt><trkpt lat="39.183365" lon="16.2300817"><ele>1192.9999999999998</ele><time>2026-04-12T08:11:29.882Z</time></trkpt><trkpt lat="39.1833333" lon="16.23"><ele>1193.0</ele><time>2026-04-12T08:11:30.881Z</time></trkpt><trkpt lat="39.183315" lon="16.2299083"><ele>1193.0</ele><time>2026-04-12T08:11:31.881Z</time></trkpt><trkpt lat="39.1833083" lon="16.2298133"><ele>1193.0</ele><time>2026-04-12T08:11:32.882Z</time></trkpt><trkpt lat="39.1833017" lon="16.2297317"><ele>1193.0</ele><time>2026-04-12T08:11:33.882Z</time></trkpt><trkpt lat="39.1832783" lon="16.2296367"><ele>1192.9999999999998</ele><time>2026-04-12T08:11:34.882Z</time></trkpt><trkpt lat="39.18329" lon="16.229545"><ele>1193.0</ele><time>2026-04-12T08:11:35.882Z</time></trkpt><trkpt lat="39.1833133" lon="16.2294483"><ele>1193.2</ele><time>2026-04-12T08:11:36.881Z</time></trkpt><trkpt lat="39.1833633" lon="16.22939"><ele>1193.4</ele><time>2026-04-12T08:11:37.882Z</time></trkpt><trkpt lat="39.183405" lon="16.229315"><ele>1193.6000000000001</ele><time>2026-04-12T08:11:38.882Z</time></trkpt><trkpt lat="39.1834667" lon="16.229255"><ele>1193.8</ele><time>2026-04-12T08:11:39.881Z</time></trkpt><trkpt lat="39.1835333" lon="16.229135"><ele>1194.0</ele><time>2026-04-12T08:11:40.882Z</time></trkpt><trkpt lat="39.1835967" lon="16.228995"><ele>1193.0</ele><time>2026-04-12T08:11:41.881Z</time></trkpt><trkpt lat="39.1836533" lon="16.2288517"><ele>1192.0</ele><time>2026-04-12T08:11:42.881Z</time></trkpt><trkpt lat="39.1837033" lon="16.228715"><ele>1191.0</ele><time>2026-04-12T08:11:43.881Z</time></trkpt><trkpt lat="39.1837483" lon="16.2285983"><ele>1190.0</ele><time>2026-04-12T08:11:44.881Z</time></trkpt><trkpt lat="39.1837867" lon="16.2284867"><ele>1189.0</ele><time>2026-04-12T08:11:45.882Z</time></trkpt><trkpt lat="39.1838133" lon="16.22836"><ele>1189.0</ele><time>2026-04-12T08:11:46.881Z</time></trkpt><trkpt lat="39.18384" lon="16.2282333"><ele>1189.0</ele><time>2026-04-12T08:11:47.882Z</time></trkpt><trkpt lat="39.1838567" lon="16.228105"><ele>1189.0</ele><time>2026-04-12T08:11:48.882Z</time></trkpt><trkpt lat="39.183805" lon="16.2279717"><ele>1189.0</ele><time>2026-04-12T08:11:49.882Z</time></trkpt><trkpt lat="39.1838033" lon="16.22787"><ele>1189.0</ele><time>2026-04-12T08:11:50.882Z</time></trkpt><trkpt lat="39.1836783" lon="16.227735"><ele>1189.8</ele><time>2026-04-12T08:11:51.882Z</time></trkpt><trkpt lat="39.1835867" lon="16.2276067"><ele>1190.6000000000001</ele><time>2026-04-12T08:11:52.881Z</time></trkpt><trkpt lat="39.1835533" lon="16.2274717"><ele>1191.4</ele><time>2026-04-12T08:11:53.882Z</time></trkpt><trkpt lat="39.1835467" lon="16.2273467"><ele>1192.2</ele><time>2026-04-12T08:11:54.882Z</time></trkpt><trkpt lat="39.1835617" lon="16.2272367"><ele>1193.0</ele><time>2026-04-12T08:11:55.881Z</time></trkpt><trkpt lat="39.18358" lon="16.2271233"><ele>1193.8</ele><time>2026-04-12T08:11:56.882Z</time></trkpt><trkpt lat="39.1836167" lon="16.2269933"><ele>1194.6</ele><time>2026-04-12T08:11:57.882Z</time></trkpt><trkpt lat="39.1836567" lon="16.2268733"><ele>1195.4</ele><time>2026-04-12T08:11:58.881Z</time></trkpt><trkpt lat="39.183675" lon="16.2267483"><ele>1196.2</ele><time>2026-04-12T08:11:59.882Z</time></trkpt><trkpt lat="39.1836833" lon="16.2266217"><ele>1197.0</ele><time>2026-04-12T08:12:00.881Z</time></trkpt><trkpt lat="39.1837233" lon="16.2265133"><ele>1199.6666666666667</ele><time>2026-04-12T08:12:01.882Z</time></trkpt><trkpt lat="39.1837433" lon="16.226415"><ele>1202.3333333333333</ele><time>2026-04-12T08:12:02.882Z</time></trkpt><trkpt lat="39.1837683" lon="16.2263217"><ele>1205.0</ele><time>2026-04-12T08:12:03.882Z</time></trkpt><trkpt lat="39.1837783" lon="16.2262333"><ele>1207.6666666666665</ele><time>2026-04-12T08:12:04.882Z</time></trkpt><trkpt lat="39.1838" lon="16.2261333"><ele>1210.3333333333333</ele><time>2026-04-12T08:12:05.882Z</time></trkpt><trkpt lat="39.1838183" lon="16.2260333"><ele>1213.0</ele><time>2026-04-12T08:12:06.882Z</time></trkpt><trkpt lat="39.1838217" lon="16.2259183"><ele>1213.0</ele><time>2026-04-12T08:12:07.882Z</time></trkpt><trkpt lat="39.1838233" lon="16.2258167"><ele>1213.0</ele><time>2026-04-12T08:12:08.881Z</time></trkpt><trkpt lat="39.183815" lon="16.2256917"><ele>1213.0</ele><time>2026-04-12T08:12:09.882Z</time></trkpt><trkpt lat="39.1837883" lon="16.22558"><ele>1213.0</ele><time>2026-04-12T08:12:10.881Z</time></trkpt><trkpt lat="39.1837583" lon="16.2254917"><ele>1213.0</ele><time>2026-04-12T08:12:11.882Z</time></trkpt><trkpt lat="39.18367" lon="16.22538"><ele>1216.8</ele><time>2026-04-12T08:12:13.882Z</time></trkpt><trkpt lat="39.183615" lon="16.2253367"><ele>1220.6</ele><time>2026-04-12T08:12:14.882Z</time></trkpt><trkpt lat="39.18353" lon="16.2253117"><ele>1224.4</ele><time>2026-04-12T08:12:15.882Z</time></trkpt><trkpt lat="39.1833883" lon="16.2251883"><ele>1228.2</ele><time>2026-04-12T08:12:17.882Z</time></trkpt><trkpt lat="39.18332" lon="16.2250817"><ele>1232.0</ele><time>2026-04-12T08:12:19.882Z</time></trkpt><trkpt lat="39.18325" lon="16.2249233"><ele>1232.0</ele><time>2026-04-12T08:12:21.881Z</time></trkpt><trkpt lat="39.1832183" lon="16.2248267"><ele>1232.0</ele><time>2026-04-12T08:12:22.882Z</time></trkpt><trkpt lat="39.1831633" lon="16.2247367"><ele>1232.0</ele><time>2026-04-12T08:12:23.881Z</time></trkpt><trkpt lat="39.1831167" lon="16.2246517"><ele>1232.0</ele><time>2026-04-12T08:12:24.882Z</time></trkpt><trkpt lat="39.1830667" lon="16.2245633"><ele>1232.0</ele><time>2026-04-12T08:12:25.882Z</time></trkpt><trkpt lat="39.182995" lon="16.224485"><ele>1232.0</ele><time>2026-04-12T08:12:26.882Z</time></trkpt><trkpt lat="39.1829533" lon="16.2243917"><ele>1234.6</ele><time>2026-04-12T08:12:27.881Z</time></trkpt><trkpt lat="39.1829" lon="16.2243017"><ele>1237.2</ele><time>2026-04-12T08:12:28.881Z</time></trkpt><trkpt lat="39.1828333" lon="16.2241883"><ele>1239.8</ele><time>2026-04-12T08:12:29.881Z</time></trkpt><trkpt lat="39.1827667" lon="16.2240767"><ele>1242.4</ele><time>2026-04-12T08:12:30.882Z</time></trkpt><trkpt lat="39.18271" lon="16.2239633"><ele>1245.0</ele><time>2026-04-12T08:12:31.882Z</time></trkpt><trkpt lat="39.1826533" lon="16.223875"><ele>1245.8</ele><time>2026-04-12T08:12:32.882Z</time></trkpt><trkpt lat="39.1825883" lon="16.2237767"><ele>1246.6</ele><time>2026-04-12T08:12:33.882Z</time></trkpt><trkpt lat="39.1825367" lon="16.2236767"><ele>1247.4</ele><time>2026-04-12T08:12:34.881Z</time></trkpt><trkpt lat="39.1825233" lon="16.223575"><ele>1248.2</ele><time>2026-04-12T08:12:35.882Z</time></trkpt><trkpt lat="39.1825483" lon="16.2234967"><ele>1249.0</ele><time>2026-04-12T08:12:36.882Z</time></trkpt><trkpt lat="39.182525" lon="16.223325"><ele>1249.0</ele><time>2026-04-12T08:12:38.882Z</time></trkpt><trkpt lat="39.1825017" lon="16.2232283"><ele>1249.0</ele><time>2026-04-12T08:12:39.882Z</time></trkpt><trkpt lat="39.1824783" lon="16.2231283"><ele>1249.0</ele><time>2026-04-12T08:12:40.881Z</time></trkpt><trkpt lat="39.1824517" lon="16.22302"><ele>1249.0</ele><time>2026-04-12T08:12:41.882Z</time></trkpt><trkpt lat="39.1824233" lon="16.2229233"><ele>1249.0</ele><time>2026-04-12T08:12:42.882Z</time></trkpt><trkpt lat="39.182405" lon="16.2228183"><ele>1249.0</ele><time>2026-04-12T08:12:43.881Z</time></trkpt><trkpt lat="39.1823867" lon="16.22272"><ele>1249.0</ele><time>2026-04-12T08:12:44.882Z</time></trkpt><trkpt lat="39.1823617" lon="16.2226117"><ele>1249.0</ele><time>2026-04-12T08:12:45.882Z</time></trkpt><trkpt lat="39.1823783" lon="16.2225"><ele>1249.0</ele><time>2026-04-12T08:12:46.882Z</time></trkpt><trkpt lat="39.1823667" lon="16.222375"><ele>1249.0</ele><time>2026-04-12T08:12:47.882Z</time></trkpt><trkpt lat="39.1823667" lon="16.22226"><ele>1249.0</ele><time>2026-04-12T08:12:48.882Z</time></trkpt><trkpt lat="39.18236" lon="16.222145"><ele>1249.3333333333333</ele><time>2026-04-12T08:12:49.882Z</time></trkpt><trkpt lat="39.18234" lon="16.222045"><ele>1249.6666666666665</ele><time>2026-04-12T08:12:50.882Z</time></trkpt><trkpt lat="39.1823267" lon="16.2219333"><ele>1250.0</ele><time>2026-04-12T08:12:51.881Z</time></trkpt><trkpt lat="39.1823367" lon="16.2218333"><ele>1250.3333333333333</ele><time>2026-04-12T08:12:52.882Z</time></trkpt><trkpt lat="39.1823383" lon="16.2217333"><ele>1250.6666666666667</ele><time>2026-04-12T08:12:53.882Z</time></trkpt><trkpt lat="39.1823533" lon="16.221625"><ele>1251.0</ele><time>2026-04-12T08:12:54.882Z</time></trkpt><trkpt lat="39.1823633" lon="16.22154"><ele>1250.6</ele><time>2026-04-12T08:12:55.882Z</time></trkpt><trkpt lat="39.182405" lon="16.2214283"><ele>1250.1999999999998</ele><time>2026-04-12T08:12:56.882Z</time></trkpt><trkpt lat="39.1824667" lon="16.2213233"><ele>1249.8000000000002</ele><time>2026-04-12T08:12:57.882Z</time></trkpt><trkpt lat="39.1825167" lon="16.2212083"><ele>1249.4</ele><time>2026-04-12T08:12:58.882Z</time></trkpt><trkpt lat="39.1825767" lon="16.2211"><ele>1249.0</ele><time>2026-04-12T08:12:59.882Z</time></trkpt><trkpt lat="39.1826183" lon="16.2209833"><ele>1249.0</ele><time>2026-04-12T08:13:00.882Z</time></trkpt><trkpt lat="39.1826483" lon="16.2208533"><ele>1249.0</ele><time>2026-04-12T08:13:01.881Z</time></trkpt><trkpt lat="39.182685" lon="16.2207283"><ele>1249.0</ele><time>2026-04-12T08:13:02.882Z</time></trkpt><trkpt lat="39.1827267" lon="16.220595"><ele>1249.0</ele><time>2026-04-12T08:13:03.881Z</time></trkpt><trkpt lat="39.18278" lon="16.2204917"><ele>1249.0</ele><time>2026-04-12T08:13:04.882Z</time></trkpt><trkpt lat="39.18284" lon="16.2203733"><ele>1247.0</ele><time>2026-04-12T08:13:06.882Z</time></trkpt><trkpt lat="39.1828617" lon="16.22027"><ele>1245.0</ele><time>2026-04-12T08:13:07.882Z</time></trkpt><trkpt lat="39.1828767" lon="16.2201333"><ele>1243.0</ele><time>2026-04-12T08:13:09.881Z</time></trkpt><trkpt lat="39.1828233" lon="16.220055"><ele>1241.0</ele><time>2026-04-12T08:13:11.881Z</time></trkpt><trkpt lat="39.18272" lon="16.2199767"><ele>1239.0</ele><time>2026-04-12T08:13:12.882Z</time></trkpt><trkpt lat="39.1826417" lon="16.21988"><ele>1238.0</ele><time>2026-04-12T08:13:13.881Z</time></trkpt><trkpt lat="39.182595" lon="16.2197583"><ele>1237.0</ele><time>2026-04-12T08:13:14.882Z</time></trkpt><trkpt lat="39.1825383" lon="16.21964"><ele>1236.0</ele><time>2026-04-12T08:13:15.881Z</time></trkpt><trkpt lat="39.18247" lon="16.2195133"><ele>1235.0</ele><time>2026-04-12T08:13:16.882Z</time></trkpt><trkpt lat="39.182415" lon="16.2193783"><ele>1235.0</ele><time>2026-04-12T08:13:17.881Z</time></trkpt><trkpt lat="39.1823517" lon="16.2192467"><ele>1235.0</ele><time>2026-04-12T08:13:18.882Z</time></trkpt><trkpt lat="39.1823083" lon="16.2191117"><ele>1235.0</ele><time>2026-04-12T08:13:19.882Z</time></trkpt><trkpt lat="39.18226" lon="16.218955"><ele>1235.0</ele><time>2026-04-12T08:13:20.882Z</time></trkpt><trkpt lat="39.1822133" lon="16.2187933"><ele>1240.3333333333335</ele><time>2026-04-12T08:13:21.882Z</time></trkpt><trkpt lat="39.1821683" lon="16.2185917"><ele>1245.6666666666667</ele><time>2026-04-12T08:13:22.882Z</time></trkpt><trkpt lat="39.1820967" lon="16.2183917"><ele>1251.0</ele><time>2026-04-12T08:13:23.882Z</time></trkpt><trkpt lat="39.1820383" lon="16.2182117"><ele>1248.25</ele><time>2026-04-12T08:13:24.882Z</time></trkpt><trkpt lat="39.181975" lon="16.218025"><ele>1245.5</ele><time>2026-04-12T08:13:25.882Z</time></trkpt><trkpt lat="39.1819317" lon="16.2178733"><ele>1242.75</ele><time>2026-04-12T08:13:26.882Z</time></trkpt><trkpt lat="39.1818767" lon="16.21771"><ele>1240.0</ele><time>2026-04-12T08:13:27.882Z</time></trkpt><trkpt lat="39.1818067" lon="16.2175483"><ele>1240.0</ele><time>2026-04-12T08:13:28.882Z</time></trkpt><trkpt lat="39.1817267" lon="16.2173933"><ele>1240.0</ele><time>2026-04-12T08:13:29.881Z</time></trkpt><trkpt lat="39.1816583" lon="16.2172283"><ele>1240.0</ele><time>2026-04-12T08:13:30.882Z</time></trkpt><trkpt lat="39.181585" lon="16.21709"><ele>1240.0</ele><time>2026-04-12T08:13:31.882Z</time></trkpt><trkpt lat="39.1815283" lon="16.2169933"><ele>1240.75</ele><time>2026-04-12T08:13:32.882Z</time></trkpt><trkpt lat="39.1814367" lon="16.2168783"><ele>1241.5</ele><time>2026-04-12T08:13:33.882Z</time></trkpt><trkpt lat="39.1813617" lon="16.2167617"><ele>1242.25</ele><time>2026-04-12T08:13:34.882Z</time></trkpt><trkpt lat="39.1812583" lon="16.2166483"><ele>1243.0</ele><time>2026-04-12T08:13:35.882Z</time></trkpt><trkpt lat="39.1811717" lon="16.2165417"><ele>1239.8</ele><time>2026-04-12T08:13:36.882Z</time></trkpt><trkpt lat="39.1811417" lon="16.2164483"><ele>1236.6</ele><time>2026-04-12T08:13:37.882Z</time></trkpt><trkpt lat="39.1810683" lon="16.2163283"><ele>1233.4</ele><time>2026-04-12T08:13:38.881Z</time></trkpt><trkpt lat="39.1809867" lon="16.2162"><ele>1230.2</ele><time>2026-04-12T08:13:39.881Z</time></trkpt><trkpt lat="39.1809217" lon="16.2160817"><ele>1227.0</ele><time>2026-04-12T08:13:40.881Z</time></trkpt><trkpt lat="39.18086" lon="16.2159683"><ele>1227.0</ele><time>2026-04-12T08:13:41.882Z</time></trkpt><trkpt lat="39.180805" lon="16.2158617"><ele>1227.0</ele><time>2026-04-12T08:13:42.882Z</time></trkpt><trkpt lat="39.1807483" lon="16.2157667"><ele>1227.0</ele><time>2026-04-12T08:13:43.881Z</time></trkpt><trkpt lat="39.1807033" lon="16.2156867"><ele>1227.0</ele><time>2026-04-12T08:13:44.881Z</time></trkpt><trkpt lat="39.1806583" lon="16.21562"><ele>1227.0</ele><time>2026-04-12T08:13:45.882Z</time></trkpt><trkpt lat="39.18059" lon="16.2156017"><ele>1227.0</ele><time>2026-04-12T08:13:46.882Z</time></trkpt><trkpt lat="39.1805133" lon="16.2155717"><ele>1227.4</ele><time>2026-04-12T08:13:47.882Z</time></trkpt><trkpt lat="39.1804133" lon="16.2155283"><ele>1227.8000000000002</ele><time>2026-04-12T08:13:48.882Z</time></trkpt><trkpt lat="39.1802917" lon="16.2154683"><ele>1228.2</ele><time>2026-04-12T08:13:49.881Z</time></trkpt><trkpt lat="39.1802" lon="16.2154183"><ele>1228.6000000000001</ele><time>2026-04-12T08:13:50.882Z</time></trkpt><trkpt lat="39.1801017" lon="16.2153717"><ele>1229.0</ele><time>2026-04-12T08:13:51.882Z</time></trkpt><trkpt lat="39.1800117" lon="16.215325"><ele>1229.0</ele><time>2026-04-12T08:13:52.882Z</time></trkpt><trkpt lat="39.1799317" lon="16.2152883"><ele>1229.0</ele><time>2026-04-12T08:13:53.882Z</time></trkpt><trkpt lat="39.1798633" lon="16.2152633"><ele>1229.0</ele><time>2026-04-12T08:13:54.882Z</time></trkpt><trkpt lat="39.1797667" lon="16.21525"><ele>1229.0</ele><time>2026-04-12T08:13:55.881Z</time></trkpt><trkpt lat="39.1797033" lon="16.2152283"><ele>1229.0</ele><time>2026-04-12T08:13:56.881Z</time></trkpt><trkpt lat="39.179615" lon="16.2152183"><ele>1229.0</ele><time>2026-04-12T08:13:57.882Z</time></trkpt><trkpt lat="39.1795433" lon="16.2151783"><ele>1229.6000000000001</ele><time>2026-04-12T08:13:58.882Z</time></trkpt><trkpt lat="39.1794617" lon="16.2151733"><ele>1230.2</ele><time>2026-04-12T08:13:59.881Z</time></trkpt><trkpt lat="39.1793817" lon="16.2150883"><ele>1230.8000000000002</ele><time>2026-04-12T08:14:00.882Z</time></trkpt><trkpt lat="39.1792567" lon="16.2150717"><ele>1231.4</ele><time>2026-04-12T08:14:02.882Z</time></trkpt><trkpt lat="39.1791933" lon="16.2150483"><ele>1232.0</ele><time>2026-04-12T08:14:03.882Z</time></trkpt><trkpt lat="39.1791183" lon="16.2150183"><ele>1232.0</ele><time>2026-04-12T08:14:04.882Z</time></trkpt><trkpt lat="39.1790467" lon="16.2150233"><ele>1232.0</ele><time>2026-04-12T08:14:05.882Z</time></trkpt><trkpt lat="39.1789833" lon="16.2150467"><ele>1232.0</ele><time>2026-04-12T08:14:06.882Z</time></trkpt><trkpt lat="39.17892" lon="16.2150783"><ele>1232.0</ele><time>2026-04-12T08:14:07.881Z</time></trkpt><trkpt lat="39.1788583" lon="16.2151217"><ele>1232.0</ele><time>2026-04-12T08:14:08.881Z</time></trkpt><trkpt lat="39.1787967" lon="16.21515"><ele>1232.0</ele><time>2026-04-12T08:14:09.882Z</time></trkpt><trkpt lat="39.1787383" lon="16.2151933"><ele>1232.0</ele><time>2026-04-12T08:14:10.881Z</time></trkpt><trkpt lat="39.17868" lon="16.2152367"><ele>1231.3333333333335</ele><time>2026-04-12T08:14:11.882Z</time></trkpt><trkpt lat="39.178615" lon="16.2152683"><ele>1230.6666666666667</ele><time>2026-04-12T08:14:12.881Z</time></trkpt><trkpt lat="39.1785467" lon="16.2153017"><ele>1230.0</ele><time>2026-04-12T08:14:13.881Z</time></trkpt><trkpt lat="39.17848" lon="16.21533"><ele>1229.3333333333333</ele><time>2026-04-12T08:14:14.882Z</time></trkpt><trkpt lat="39.1784" lon="16.21536"><ele>1228.6666666666665</ele><time>2026-04-12T08:14:15.882Z</time></trkpt><trkpt lat="39.178315" lon="16.2153967"><ele>1228.0</ele><time>2026-04-12T08:14:16.882Z</time></trkpt><trkpt lat="39.17823" lon="16.2154267"><ele>1228.2</ele><time>2026-04-12T08:14:17.882Z</time></trkpt><trkpt lat="39.1781117" lon="16.215415"><ele>1228.4</ele><time>2026-04-12T08:14:18.881Z</time></trkpt><trkpt lat="39.1780233" lon="16.2154433"><ele>1228.6000000000001</ele><time>2026-04-12T08:14:19.881Z</time></trkpt><trkpt lat="39.1779283" lon="16.21548"><ele>1228.8</ele><time>2026-04-12T08:14:20.882Z</time></trkpt><trkpt lat="39.1778633" lon="16.2155283"><ele>1229.0</ele><time>2026-04-12T08:14:21.881Z</time></trkpt><trkpt lat="39.1777783" lon="16.2156317"><ele>1233.2</ele><time>2026-04-12T08:14:22.882Z</time></trkpt><trkpt lat="39.177695" lon="16.2156867"><ele>1237.4</ele><time>2026-04-12T08:14:23.881Z</time></trkpt><trkpt lat="39.177595" lon="16.2157217"><ele>1241.6</ele><time>2026-04-12T08:14:24.881Z</time></trkpt><trkpt lat="39.1775167" lon="16.2157667"><ele>1245.8</ele><time>2026-04-12T08:14:25.882Z</time></trkpt><trkpt lat="39.17745" lon="16.2158217"><ele>1250.0</ele><time>2026-04-12T08:14:26.882Z</time></trkpt><trkpt lat="39.177365" lon="16.2158667"><ele>1246.25</ele><time>2026-04-12T08:14:27.881Z</time></trkpt><trkpt lat="39.1772883" lon="16.215915"><ele>1242.5</ele><time>2026-04-12T08:14:28.882Z</time></trkpt><trkpt lat="39.17714" lon="16.2160433"><ele>1238.75</ele><time>2026-04-12T08:14:30.883Z</time></trkpt><trkpt lat="39.1771033" lon="16.2161167"><ele>1235.0</ele><time>2026-04-12T08:14:31.883Z</time></trkpt><trkpt lat="39.1770317" lon="16.2163133"><ele>1237.6666666666667</ele><time>2026-04-12T08:14:33.883Z</time></trkpt><trkpt lat="39.177035" lon="16.2165483"><ele>1240.3333333333333</ele><time>2026-04-12T08:14:34.883Z</time></trkpt><trkpt lat="39.177065" lon="16.21678"><ele>1243.0</ele><time>2026-04-12T08:14:35.883Z</time></trkpt><trkpt lat="39.1770633" lon="16.216935"><ele>1243.0</ele><time>2026-04-12T08:14:36.882Z</time></trkpt><trkpt lat="39.1770617" lon="16.2170867"><ele>1243.0</ele><time>2026-04-12T08:14:37.883Z</time></trkpt><trkpt lat="39.1770583" lon="16.217215"><ele>1243.0</ele><time>2026-04-12T08:14:38.883Z</time></trkpt><trkpt lat="39.1770617" lon="16.2173633"><ele>1243.0</ele><time>2026-04-12T08:14:39.882Z</time></trkpt><trkpt lat="39.1770717" lon="16.2174867"><ele>1243.0</ele><time>2026-04-12T08:14:40.883Z</time></trkpt><trkpt lat="39.1770817" lon="16.2176133"><ele>1244.0</ele><time>2026-04-12T08:14:41.883Z</time></trkpt><trkpt lat="39.1770733" lon="16.2177433"><ele>1245.0</ele><time>2026-04-12T08:14:42.883Z</time></trkpt><trkpt lat="39.177085" lon="16.217875"><ele>1246.0</ele><time>2026-04-12T08:14:43.883Z</time></trkpt><trkpt lat="39.1770767" lon="16.2179917"><ele>1247.0</ele><time>2026-04-12T08:14:44.882Z</time></trkpt><trkpt lat="39.1769517" lon="16.2181967"><ele>1250.3333333333335</ele><time>2026-04-12T08:14:45.882Z</time></trkpt><trkpt lat="39.1767917" lon="16.2183767"><ele>1253.6666666666667</ele><time>2026-04-12T08:14:46.883Z</time></trkpt><trkpt lat="39.1767417" lon="16.2185367"><ele>1257.0</ele><time>2026-04-12T08:14:47.883Z</time></trkpt><trkpt lat="39.1767017" lon="16.2186917"><ele>1257.0</ele><time>2026-04-12T08:14:48.882Z</time></trkpt><trkpt lat="39.17667" lon="16.2188267"><ele>1257.0</ele><time>2026-04-12T08:14:49.883Z</time></trkpt><trkpt lat="39.17663" lon="16.2189867"><ele>1257.0</ele><time>2026-04-12T08:14:50.883Z</time></trkpt><trkpt lat="39.176595" lon="16.21913"><ele>1257.0</ele><time>2026-04-12T08:14:51.883Z</time></trkpt><trkpt lat="39.1765633" lon="16.219275"><ele>1256.25</ele><time>2026-04-12T08:14:52.883Z</time></trkpt><trkpt lat="39.1764633" lon="16.219395"><ele>1255.5</ele><time>2026-04-12T08:14:53.883Z</time></trkpt><trkpt lat="39.17639" lon="16.2195167"><ele>1254.75</ele><time>2026-04-12T08:14:54.883Z</time></trkpt><trkpt lat="39.1762133" lon="16.2195533"><ele>1254.0</ele><time>2026-04-12T08:14:55.883Z</time></trkpt><trkpt lat="39.1760967" lon="16.2195617"><ele>1254.0</ele><time>2026-04-12T08:14:56.883Z</time></trkpt><trkpt lat="39.175955" lon="16.2195067"><ele>1254.0</ele><time>2026-04-12T08:14:57.883Z</time></trkpt><trkpt lat="39.1758183" lon="16.2194633"><ele>1254.0</ele><time>2026-04-12T08:14:58.883Z</time></trkpt><trkpt lat="39.1756817" lon="16.2193367"><ele>1251.75</ele><time>2026-04-12T08:14:59.883Z</time></trkpt><trkpt lat="39.1755733" lon="16.2192467"><ele>1249.5</ele><time>2026-04-12T08:15:00.883Z</time></trkpt><trkpt lat="39.175455" lon="16.2192017"><ele>1247.25</ele><time>2026-04-12T08:15:01.882Z</time></trkpt><trkpt lat="39.1752617" lon="16.2191983"><ele>1245.0</ele><time>2026-04-12T08:15:02.882Z</time></trkpt><trkpt lat="39.17516" lon="16.219145"><ele>1245.0</ele><time>2026-04-12T08:15:03.883Z</time></trkpt><trkpt lat="39.1750483" lon="16.2191167"><ele>1245.0</ele><time>2026-04-12T08:15:04.883Z</time></trkpt><trkpt lat="39.1749533" lon="16.2191033"><ele>1245.0</ele><time>2026-04-12T08:15:05.883Z</time></trkpt><trkpt lat="39.1748683" lon="16.2190817"><ele>1245.0</ele><time>2026-04-12T08:15:06.883Z</time></trkpt><trkpt lat="39.174785" lon="16.2190717"><ele>1245.0</ele><time>2026-04-12T08:15:07.882Z</time></trkpt><trkpt lat="39.1746983" lon="16.2190383"><ele>1245.0</ele><time>2026-04-12T08:15:08.883Z</time></trkpt><trkpt lat="39.1746383" lon="16.218935"><ele>1245.0</ele><time>2026-04-12T08:15:09.882Z</time></trkpt><trkpt lat="39.1745583" lon="16.218815"><ele>1245.0</ele><time>2026-04-12T08:15:10.883Z</time></trkpt><trkpt lat="39.1744783" lon="16.2187"><ele>1245.0</ele><time>2026-04-12T08:15:11.883Z</time></trkpt><trkpt lat="39.1743783" lon="16.2186283"><ele>1245.0</ele><time>2026-04-12T08:15:12.882Z</time></trkpt><trkpt lat="39.17425" lon="16.21856"><ele>1245.0</ele><time>2026-04-12T08:15:13.883Z</time></trkpt><trkpt lat="39.1741167" lon="16.2185133"><ele>1245.0</ele><time>2026-04-12T08:15:14.883Z</time></trkpt><trkpt lat="39.1739917" lon="16.2184783"><ele>1245.0</ele><time>2026-04-12T08:15:15.883Z</time></trkpt><trkpt lat="39.173865" lon="16.2184267"><ele>1244.4</ele><time>2026-04-12T08:15:16.883Z</time></trkpt><trkpt lat="39.1737817" lon="16.2183333"><ele>1243.8</ele><time>2026-04-12T08:15:17.883Z</time></trkpt><trkpt lat="39.173685" lon="16.218275"><ele>1243.2</ele><time>2026-04-12T08:15:18.883Z</time></trkpt><trkpt lat="39.1736067" lon="16.2181917"><ele>1242.6</ele><time>2026-04-12T08:15:19.883Z</time></trkpt><trkpt lat="39.1735117" lon="16.2181167"><ele>1242.0</ele><time>2026-04-12T08:15:20.882Z</time></trkpt><trkpt lat="39.17341" lon="16.2180283"><ele>1242.0</ele><time>2026-04-12T08:15:21.883Z</time></trkpt><trkpt lat="39.1733117" lon="16.2179333"><ele>1242.0</ele><time>2026-04-12T08:15:22.883Z</time></trkpt><trkpt lat="39.1732067" lon="16.2178383"><ele>1242.0</ele><time>2026-04-12T08:15:23.883Z</time></trkpt><trkpt lat="39.1730967" lon="16.217755"><ele>1242.0</ele><time>2026-04-12T08:15:24.883Z</time></trkpt><trkpt lat="39.1729983" lon="16.2176667"><ele>1241.5</ele><time>2026-04-12T08:15:25.883Z</time></trkpt><trkpt lat="39.1728733" lon="16.217565"><ele>1241.0</ele><time>2026-04-12T08:15:26.883Z</time></trkpt><trkpt lat="39.172775" lon="16.2175267"><ele>1240.5</ele><time>2026-04-12T08:15:27.882Z</time></trkpt><trkpt lat="39.172675" lon="16.21749"><ele>1240.0</ele><time>2026-04-12T08:15:28.883Z</time></trkpt><trkpt lat="39.1725733" lon="16.217435"><ele>1240.0</ele><time>2026-04-12T08:15:29.882Z</time></trkpt><trkpt lat="39.1724633" lon="16.2173967"><ele>1240.0</ele><time>2026-04-12T08:15:30.883Z</time></trkpt><trkpt lat="39.172345" lon="16.2173833"><ele>1240.0</ele><time>2026-04-12T08:15:31.883Z</time></trkpt><trkpt lat="39.17222" lon="16.2173333"><ele>1240.0</ele><time>2026-04-12T08:15:32.883Z</time></trkpt><trkpt lat="39.172065" lon="16.2172533"><ele>1239.0</ele><time>2026-04-12T08:15:33.883Z</time></trkpt><trkpt lat="39.17194" lon="16.2171283"><ele>1238.0</ele><time>2026-04-12T08:15:34.882Z</time></trkpt><trkpt lat="39.1718333" lon="16.217035"><ele>1237.0</ele><time>2026-04-12T08:15:35.882Z</time></trkpt><trkpt lat="39.171735" lon="16.2169267"><ele>1236.0</ele><time>2026-04-12T08:15:36.883Z</time></trkpt><trkpt lat="39.171615" lon="16.2168317"><ele>1234.0</ele><time>2026-04-12T08:15:37.883Z</time></trkpt><trkpt lat="39.171505" lon="16.21674"><ele>1232.0</ele><time>2026-04-12T08:15:38.883Z</time></trkpt><trkpt lat="39.171365" lon="16.2166817"><ele>1230.0</ele><time>2026-04-12T08:15:39.883Z</time></trkpt><trkpt lat="39.1712233" lon="16.2165967"><ele>1228.0</ele><time>2026-04-12T08:15:40.882Z</time></trkpt><trkpt lat="39.1710833" lon="16.2165067"><ele>1227.8</ele><time>2026-04-12T08:15:41.883Z</time></trkpt><trkpt lat="39.1709483" lon="16.2164383"><ele>1227.6</ele><time>2026-04-12T08:15:42.883Z</time></trkpt><trkpt lat="39.170855" lon="16.2164"><ele>1227.4</ele><time>2026-04-12T08:15:43.882Z</time></trkpt><trkpt lat="39.17074" lon="16.2163883"><ele>1227.2</ele><time>2026-04-12T08:15:44.883Z</time></trkpt><trkpt lat="39.1706517" lon="16.2163767"><ele>1227.0</ele><time>2026-04-12T08:15:45.883Z</time></trkpt><trkpt lat="39.1705667" lon="16.2163467"><ele>1225.8</ele><time>2026-04-12T08:15:46.883Z</time></trkpt><trkpt lat="39.17048" lon="16.2163117"><ele>1224.6</ele><time>2026-04-12T08:15:47.883Z</time></trkpt><trkpt lat="39.1703983" lon="16.21628"><ele>1223.3999999999999</ele><time>2026-04-12T08:15:48.883Z</time></trkpt><trkpt lat="39.17032" lon="16.2162417"><ele>1222.2</ele><time>2026-04-12T08:15:49.883Z</time></trkpt><trkpt lat="39.1702483" lon="16.2161983"><ele>1221.0</ele><time>2026-04-12T08:15:50.883Z</time></trkpt><trkpt lat="39.1701383" lon="16.2161117"><ele>1221.0</ele><time>2026-04-12T08:15:52.883Z</time></trkpt><trkpt lat="39.170065" lon="16.2160733"><ele>1221.0</ele><time>2026-04-12T08:15:53.883Z</time></trkpt><trkpt lat="39.1699933" lon="16.2160333"><ele>1221.0</ele><time>2026-04-12T08:15:54.882Z</time></trkpt><trkpt lat="39.1696433" lon="16.2158283"><ele>1219.25</ele><time>2026-04-12T08:15:59.882Z</time></trkpt><trkpt lat="39.1697117" lon="16.2156433"><ele>1217.5</ele><time>2026-04-12T08:16:00.881Z</time></trkpt><trkpt lat="39.1698667" lon="16.2155733"><ele>1215.75</ele><time>2026-04-12T08:16:01.882Z</time></trkpt><trkpt lat="39.1698667" lon="16.2154617"><ele>1214.0</ele><time>2026-04-12T08:16:02.882Z</time></trkpt><trkpt lat="39.1699783" lon="16.2152783"><ele>1214.0</ele><time>2026-04-12T08:16:03.882Z</time></trkpt><trkpt lat="39.17004" lon="16.21514"><ele>1214.0</ele><time>2026-04-12T08:16:04.882Z</time></trkpt><trkpt lat="39.170165" lon="16.2149583"><ele>1214.0</ele><time>2026-04-12T08:16:05.882Z</time></trkpt><trkpt lat="39.1702517" lon="16.21484"><ele>1214.0</ele><time>2026-04-12T08:16:06.882Z</time></trkpt><trkpt lat="39.1702667" lon="16.21469"><ele>1212.6000000000001</ele><time>2026-04-12T08:16:07.881Z</time></trkpt><trkpt lat="39.1703583" lon="16.2145983"><ele>1211.2</ele><time>2026-04-12T08:16:08.882Z</time></trkpt><trkpt lat="39.1704467" lon="16.2145233"><ele>1209.8000000000002</ele><time>2026-04-12T08:16:09.882Z</time></trkpt><trkpt lat="39.170465" lon="16.2144367"><ele>1208.4</ele><time>2026-04-12T08:16:10.882Z</time></trkpt><trkpt lat="39.1704083" lon="16.2143"><ele>1207.0</ele><time>2026-04-12T08:16:12.882Z</time></trkpt><trkpt lat="39.1703383" lon="16.214305"><ele>1207.0</ele><time>2026-04-12T08:16:14.881Z</time></trkpt><trkpt lat="39.1702817" lon="16.214375"><ele>1207.0</ele><time>2026-04-12T08:16:16.882Z</time></trkpt><trkpt lat="39.17024" lon="16.2145183"><ele>1207.0</ele><time>2026-04-12T08:16:17.882Z</time></trkpt><trkpt lat="39.17019" lon="16.21465"><ele>1207.0</ele><time>2026-04-12T08:16:19.881Z</time></trkpt><trkpt lat="39.170175" lon="16.2147467"><ele>1207.0</ele><time>2026-04-12T08:16:20.881Z</time></trkpt><trkpt lat="39.170145" lon="16.21485"><ele>1208.1666666666665</ele><time>2026-04-12T08:16:21.882Z</time></trkpt><trkpt lat="39.1701267" lon="16.2149467"><ele>1209.3333333333333</ele><time>2026-04-12T08:16:22.881Z</time></trkpt><trkpt lat="39.17011" lon="16.21504"><ele>1210.5</ele><time>2026-04-12T08:16:23.882Z</time></trkpt><trkpt lat="39.1700917" lon="16.2151267"><ele>1211.6666666666667</ele><time>2026-04-12T08:16:24.882Z</time></trkpt><trkpt lat="39.1701033" lon="16.2152217"><ele>1212.8333333333335</ele><time>2026-04-12T08:16:25.882Z</time></trkpt><trkpt lat="39.1700967" lon="16.2153083"><ele>1214.0</ele><time>2026-04-12T08:16:26.882Z</time></trkpt><trkpt lat="39.17003" lon="16.2154267"><ele>1214.0</ele><time>2026-04-12T08:16:28.882Z</time></trkpt><trkpt lat="39.1699483" lon="16.2155017"><ele>1214.0</ele><time>2026-04-12T08:16:30.882Z</time></trkpt><trkpt lat="39.1698617" lon="16.21557"><ele>1214.0</ele><time>2026-04-12T08:16:32.882Z</time></trkpt><trkpt lat="39.1697567" lon="16.2156567"><ele>1214.0</ele><time>2026-04-12T08:16:34.882Z</time></trkpt><trkpt lat="39.1697017" lon="16.2157133"><ele>1214.0</ele><time>2026-04-12T08:16:35.882Z</time></trkpt><trkpt lat="39.1696283" lon="16.2157617"><ele>1213.2</ele><time>2026-04-12T08:16:36.882Z</time></trkpt><trkpt lat="39.1695417" lon="16.215825"><ele>1212.4</ele><time>2026-04-12T08:16:37.881Z</time></trkpt><trkpt lat="39.1694367" lon="16.215885"><ele>1211.6</ele><time>2026-04-12T08:16:38.882Z</time></trkpt><trkpt lat="39.1693533" lon="16.2159317"><ele>1210.8</ele><time>2026-04-12T08:16:39.882Z</time></trkpt><trkpt lat="39.1692833" lon="16.2159833"><ele>1210.0</ele><time>2026-04-12T08:16:40.882Z</time></trkpt><trkpt lat="39.1691983" lon="16.21608"><ele>1210.0</ele><time>2026-04-12T08:16:41.882Z</time></trkpt><trkpt lat="39.1691333" lon="16.216145"><ele>1210.0</ele><time>2026-04-12T08:16:42.882Z</time></trkpt><trkpt lat="39.1690633" lon="16.2162183"><ele>1210.0</ele><time>2026-04-12T08:16:43.882Z</time></trkpt><trkpt lat="39.168995" lon="16.216295"><ele>1210.0</ele><time>2026-04-12T08:16:44.882Z</time></trkpt><trkpt lat="39.1689783" lon="16.216375"><ele>1210.0</ele><time>2026-04-12T08:16:45.882Z</time></trkpt><trkpt lat="39.168925" lon="16.216435"><ele>1210.0</ele><time>2026-04-12T08:16:46.881Z</time></trkpt><trkpt lat="39.16888" lon="16.21651"><ele>1208.5</ele><time>2026-04-12T08:16:47.882Z</time></trkpt><trkpt lat="39.1688183" lon="16.2165767"><ele>1207.0</ele><time>2026-04-12T08:16:48.882Z</time></trkpt><trkpt lat="39.168765" lon="16.2166383"><ele>1205.5</ele><time>2026-04-12T08:16:49.882Z</time></trkpt><trkpt lat="39.16872" lon="16.2167"><ele>1204.0</ele><time>2026-04-12T08:16:50.881Z</time></trkpt><trkpt lat="39.1686933" lon="16.2168417"><ele>1202.5</ele><time>2026-04-12T08:16:52.881Z</time></trkpt><trkpt lat="39.1687217" lon="16.2169883"><ele>1201.0</ele><time>2026-04-12T08:16:54.882Z</time></trkpt><trkpt lat="39.1687367" lon="16.2171233"><ele>1201.0</ele><time>2026-04-12T08:16:56.882Z</time></trkpt><trkpt lat="39.1686867" lon="16.2172667"><ele>1201.0</ele><time>2026-04-12T08:16:58.882Z</time></trkpt><trkpt lat="39.1686267" lon="16.2173367"><ele>1201.0</ele><time>2026-04-12T08:16:59.882Z</time></trkpt><trkpt lat="39.1685767" lon="16.2174417"><ele>1201.0</ele><time>2026-04-12T08:17:01.882Z</time></trkpt><trkpt lat="39.16854" lon="16.2175483"><ele>1201.0</ele><time>2026-04-12T08:17:03.882Z</time></trkpt><trkpt lat="39.1684667" lon="16.2175783"><ele>1200.2</ele><time>2026-04-12T08:17:06.882Z</time></trkpt><trkpt lat="39.1684933" lon="16.21771"><ele>1199.3999999999999</ele><time>2026-04-12T08:17:20.881Z</time></trkpt><trkpt lat="39.1684967" lon="16.2178267"><ele>1198.6</ele><time>2026-04-12T08:17:22.882Z</time></trkpt><trkpt lat="39.168435" lon="16.2179967"><ele>1197.8</ele><time>2026-04-12T08:17:23.881Z</time></trkpt><trkpt lat="39.1684167" lon="16.2181183"><ele>1197.0</ele><time>2026-04-12T08:17:24.882Z</time></trkpt><trkpt lat="39.168385" lon="16.21826"><ele>1194.6666666666667</ele><time>2026-04-12T08:17:26.882Z</time></trkpt><trkpt lat="39.1683167" lon="16.218405"><ele>1192.3333333333333</ele><time>2026-04-12T08:17:28.882Z</time></trkpt><trkpt lat="39.1682717" lon="16.2184717"><ele>1190.0</ele><time>2026-04-12T08:17:29.882Z</time></trkpt><trkpt lat="39.1682217" lon="16.21854"><ele>1187.6666666666665</ele><time>2026-04-12T08:17:30.882Z</time></trkpt><trkpt lat="39.1681683" lon="16.21861"><ele>1185.3333333333333</ele><time>2026-04-12T08:17:31.882Z</time></trkpt><trkpt lat="39.1681133" lon="16.2186817"><ele>1183.0</ele><time>2026-04-12T08:17:32.882Z</time></trkpt><trkpt lat="39.16805" lon="16.2187517"><ele>1180.25</ele><time>2026-04-12T08:17:33.881Z</time></trkpt><trkpt lat="39.1680017" lon="16.2188583"><ele>1177.5</ele><time>2026-04-12T08:17:34.881Z</time></trkpt><trkpt lat="39.16796" lon="16.218985"><ele>1174.75</ele><time>2026-04-12T08:17:35.882Z</time></trkpt><trkpt lat="39.1679217" lon="16.2191417"><ele>1172.0</ele><time>2026-04-12T08:17:36.882Z</time></trkpt><trkpt lat="39.1679033" lon="16.219305"><ele>1168.4</ele><time>2026-04-12T08:17:37.882Z</time></trkpt><trkpt lat="39.1678817" lon="16.2194567"><ele>1164.8000000000002</ele><time>2026-04-12T08:17:38.882Z</time></trkpt><trkpt lat="39.1678683" lon="16.2195883"><ele>1161.2</ele><time>2026-04-12T08:17:39.882Z</time></trkpt><trkpt lat="39.1678667" lon="16.2196983"><ele>1157.6000000000001</ele><time>2026-04-12T08:17:40.882Z</time></trkpt><trkpt lat="39.1678483" lon="16.2198133"><ele>1154.0</ele><time>2026-04-12T08:17:42.882Z</time></trkpt><trkpt lat="39.1678283" lon="16.219905"><ele>1154.0</ele><time>2026-04-12T08:17:43.882Z</time></trkpt><trkpt lat="39.1677583" lon="16.219895"><ele>1154.0</ele><time>2026-04-12T08:17:45.882Z</time></trkpt><trkpt lat="39.1676617" lon="16.219765"><ele>1154.0</ele><time>2026-04-12T08:18:03.882Z</time></trkpt><trkpt lat="39.1675833" lon="16.219765"><ele>1154.0</ele><time>2026-04-12T08:18:05.881Z</time></trkpt><trkpt lat="39.1675317" lon="16.2198333"><ele>1154.0</ele><time>2026-04-12T08:18:11.882Z</time></trkpt><trkpt lat="39.1674617" lon="16.2199"><ele>1154.0</ele><time>2026-04-12T08:18:49.882Z</time></trkpt><trkpt lat="39.167395" lon="16.2199167"><ele>1152.0</ele><time>2026-04-12T08:18:50.882Z</time></trkpt><trkpt lat="39.1673133" lon="16.219955"><ele>1150.0</ele><time>2026-04-12T08:18:51.882Z</time></trkpt><trkpt lat="39.16724" lon="16.2199817"><ele>1148.0</ele><time>2026-04-12T08:18:52.881Z</time></trkpt><trkpt lat="39.1671767" lon="16.2200017"><ele>1146.0</ele><time>2026-04-12T08:18:53.881Z</time></trkpt><trkpt lat="39.1670967" lon="16.22003"><ele>1144.0</ele><time>2026-04-12T08:18:54.881Z</time></trkpt><trkpt lat="39.1670083" lon="16.2200183"><ele>1142.0</ele><time>2026-04-12T08:18:55.881Z</time></trkpt><trkpt lat="39.166925" lon="16.2200083"><ele>1142.0</ele><time>2026-04-12T08:18:56.882Z</time></trkpt><trkpt lat="39.1668467" lon="16.21999"><ele>1142.0</ele><time>2026-04-12T08:18:57.881Z</time></trkpt><trkpt lat="39.1667717" lon="16.2199867"><ele>1142.0</ele><time>2026-04-12T08:18:58.882Z</time></trkpt><trkpt lat="39.1666983" lon="16.2199833"><ele>1142.0</ele><time>2026-04-12T08:18:59.882Z</time></trkpt><trkpt lat="39.1665883" lon="16.21997"><ele>1142.0</ele><time>2026-04-12T08:19:01.882Z</time></trkpt><trkpt lat="39.1664867" lon="16.2198433"><ele>1142.3333333333335</ele><time>2026-04-12T08:19:03.882Z</time></trkpt><trkpt lat="39.1664333" lon="16.219785"><ele>1142.6666666666667</ele><time>2026-04-12T08:19:04.882Z</time></trkpt><trkpt lat="39.1663433" lon="16.219705"><ele>1143.0</ele><time>2026-04-12T08:19:05.882Z</time></trkpt><trkpt lat="39.1662783" lon="16.2196683"><ele>1143.3333333333333</ele><time>2026-04-12T08:19:06.881Z</time></trkpt><trkpt lat="39.166185" lon="16.2196183"><ele>1143.6666666666665</ele><time>2026-04-12T08:19:07.882Z</time></trkpt><trkpt lat="39.1661" lon="16.219575"><ele>1144.0</ele><time>2026-04-12T08:19:08.882Z</time></trkpt><trkpt lat="39.1660117" lon="16.21956"><ele>1144.0</ele><time>2026-04-12T08:19:09.882Z</time></trkpt><trkpt lat="39.1659267" lon="16.2195117"><ele>1144.0</ele><time>2026-04-12T08:19:10.881Z</time></trkpt><trkpt lat="39.165835" lon="16.2194617"><ele>1144.0</ele><time>2026-04-12T08:19:11.882Z</time></trkpt><trkpt lat="39.165735" lon="16.2194167"><ele>1144.0</ele><time>2026-04-12T08:19:12.882Z</time></trkpt><trkpt lat="39.16564" lon="16.219375"><ele>1144.0</ele><time>2026-04-12T08:19:13.881Z</time></trkpt><trkpt lat="39.1655767" lon="16.2193467"><ele>1148.0</ele><time>2026-04-12T08:19:14.882Z</time></trkpt><trkpt lat="39.16548" lon="16.219315"><ele>1152.0</ele><time>2026-04-12T08:19:15.881Z</time></trkpt><trkpt lat="39.1653733" lon="16.2193067"><ele>1156.0</ele><time>2026-04-12T08:19:16.882Z</time></trkpt><trkpt lat="39.165265" lon="16.2192883"><ele>1160.0</ele><time>2026-04-12T08:19:17.882Z</time></trkpt><trkpt lat="39.1651467" lon="16.219275"><ele>1164.0</ele><time>2026-04-12T08:19:18.882Z</time></trkpt><trkpt lat="39.1650283" lon="16.219275"><ele>1164.0</ele><time>2026-04-12T08:19:19.882Z</time></trkpt><trkpt lat="39.1648967" lon="16.2192733"><ele>1164.0</ele><time>2026-04-12T08:19:20.881Z</time></trkpt><trkpt lat="39.16477" lon="16.2192683"><ele>1164.0</ele><time>2026-04-12T08:19:21.881Z</time></trkpt><trkpt lat="39.1646433" lon="16.21927"><ele>1164.0</ele><time>2026-04-12T08:19:22.882Z</time></trkpt><trkpt lat="39.1645267" lon="16.2192583"><ele>1163.4</ele><time>2026-04-12T08:19:23.882Z</time></trkpt><trkpt lat="39.164415" lon="16.219225"><ele>1162.8000000000002</ele><time>2026-04-12T08:19:24.882Z</time></trkpt><trkpt lat="39.1642967" lon="16.2191917"><ele>1162.1999999999998</ele><time>2026-04-12T08:19:25.882Z</time></trkpt><trkpt lat="39.1641967" lon="16.2191617"><ele>1161.6</ele><time>2026-04-12T08:19:26.882Z</time></trkpt><trkpt lat="39.164105" lon="16.2191433"><ele>1161.0</ele><time>2026-04-12T08:19:27.881Z</time></trkpt><trkpt lat="39.164015" lon="16.2191267"><ele>1161.0</ele><time>2026-04-12T08:19:28.882Z</time></trkpt><trkpt lat="39.1639283" lon="16.2191217"><ele>1161.0</ele><time>2026-04-12T08:19:29.882Z</time></trkpt><trkpt lat="39.1638433" lon="16.219115"><ele>1161.0</ele><time>2026-04-12T08:19:30.881Z</time></trkpt><trkpt lat="39.1637683" lon="16.2191283"><ele>1161.0</ele><time>2026-04-12T08:19:31.881Z</time></trkpt><trkpt lat="39.16369" lon="16.219155"><ele>1161.0</ele><time>2026-04-12T08:19:32.882Z</time></trkpt><trkpt lat="39.1636167" lon="16.2192083"><ele>1161.0</ele><time>2026-04-12T08:19:33.881Z</time></trkpt><trkpt lat="39.163535" lon="16.219295"><ele>1161.0</ele><time>2026-04-12T08:19:34.881Z</time></trkpt><trkpt lat="39.1634133" lon="16.219385"><ele>1161.0</ele><time>2026-04-12T08:19:35.882Z</time></trkpt><trkpt lat="39.1633367" lon="16.21946"><ele>1161.0</ele><time>2026-04-12T08:19:36.881Z</time></trkpt><trkpt lat="39.1632767" lon="16.21959"><ele>1161.0</ele><time>2026-04-12T08:19:37.882Z</time></trkpt><trkpt lat="39.1632383" lon="16.2196717"><ele>1161.0</ele><time>2026-04-12T08:19:38.882Z</time></trkpt><trkpt lat="39.1631733" lon="16.2197583"><ele>1163.0</ele><time>2026-04-12T08:19:39.882Z</time></trkpt><trkpt lat="39.163095" lon="16.2198133"><ele>1165.0</ele><time>2026-04-12T08:19:40.882Z</time></trkpt><trkpt lat="39.1630117" lon="16.21987"><ele>1167.0</ele><time>2026-04-12T08:19:41.882Z</time></trkpt><trkpt lat="39.1629417" lon="16.219955"><ele>1169.0</ele><time>2026-04-12T08:19:42.882Z</time></trkpt><trkpt lat="39.162855" lon="16.2200183"><ele>1171.0</ele><time>2026-04-12T08:19:43.882Z</time></trkpt><trkpt lat="39.1627683" lon="16.2200633"><ele>1167.0</ele><time>2026-04-12T08:19:44.882Z</time></trkpt><trkpt lat="39.1626967" lon="16.2201167"><ele>1163.0</ele><time>2026-04-12T08:19:45.882Z</time></trkpt><trkpt lat="39.1626283" lon="16.2201817"><ele>1159.0</ele><time>2026-04-12T08:19:46.882Z</time></trkpt><trkpt lat="39.1625617" lon="16.220255"><ele>1155.0</ele><time>2026-04-12T08:19:47.882Z</time></trkpt><trkpt lat="39.1624783" lon="16.22035"><ele>1151.0</ele><time>2026-04-12T08:19:48.882Z</time></trkpt><trkpt lat="39.1623883" lon="16.2204433"><ele>1149.8</ele><time>2026-04-12T08:19:49.882Z</time></trkpt><trkpt lat="39.1623033" lon="16.2205383"><ele>1148.6</ele><time>2026-04-12T08:19:50.882Z</time></trkpt><trkpt lat="39.1622233" lon="16.2206167"><ele>1147.4</ele><time>2026-04-12T08:19:51.882Z</time></trkpt><trkpt lat="39.16213" lon="16.2207083"><ele>1146.2</ele><time>2026-04-12T08:19:52.881Z</time></trkpt><trkpt lat="39.16203" lon="16.220735"><ele>1145.0</ele><time>2026-04-12T08:19:53.882Z</time></trkpt><trkpt lat="39.161915" lon="16.2207633"><ele>1145.0</ele><time>2026-04-12T08:19:54.882Z</time></trkpt><trkpt lat="39.1617967" lon="16.2207767"><ele>1145.0</ele><time>2026-04-12T08:19:55.882Z</time></trkpt><trkpt lat="39.1616817" lon="16.2207817"><ele>1145.0</ele><time>2026-04-12T08:19:56.882Z</time></trkpt><trkpt lat="39.161545" lon="16.2208133"><ele>1145.0</ele><time>2026-04-12T08:19:57.881Z</time></trkpt><trkpt lat="39.1614267" lon="16.2208367"><ele>1144.5</ele><time>2026-04-12T08:19:58.882Z</time></trkpt><trkpt lat="39.1613183" lon="16.220855"><ele>1144.0</ele><time>2026-04-12T08:19:59.882Z</time></trkpt><trkpt lat="39.1612" lon="16.2208617"><ele>1143.5</ele><time>2026-04-12T08:20:00.881Z</time></trkpt><trkpt lat="39.1610767" lon="16.2208617"><ele>1143.0</ele><time>2026-04-12T08:20:01.882Z</time></trkpt><trkpt lat="39.1609467" lon="16.22087"><ele>1143.0</ele><time>2026-04-12T08:20:02.882Z</time></trkpt><trkpt lat="39.1608267" lon="16.2208583"><ele>1143.0</ele><time>2026-04-12T08:20:03.882Z</time></trkpt><trkpt lat="39.1606983" lon="16.220855"><ele>1143.0</ele><time>2026-04-12T08:20:04.882Z</time></trkpt><trkpt lat="39.1605733" lon="16.2208617"><ele>1143.0</ele><time>2026-04-12T08:20:05.882Z</time></trkpt><trkpt lat="39.1604683" lon="16.2208333"><ele>1143.0</ele><time>2026-04-12T08:20:06.882Z</time></trkpt><trkpt lat="39.16038" lon="16.2208267"><ele>1143.0</ele><time>2026-04-12T08:20:07.882Z</time></trkpt><trkpt lat="39.160285" lon="16.2208117"><ele>1143.0</ele><time>2026-04-12T08:20:08.882Z</time></trkpt><trkpt lat="39.1601983" lon="16.2207817"><ele>1143.0</ele><time>2026-04-12T08:20:09.881Z</time></trkpt><trkpt lat="39.16012" lon="16.2207517"><ele>1143.0</ele><time>2026-04-12T08:20:10.882Z</time></trkpt><trkpt lat="39.1600333" lon="16.2207067"><ele>1143.0</ele><time>2026-04-12T08:20:11.881Z</time></trkpt><trkpt lat="39.15995" lon="16.2206433"><ele>1143.0</ele><time>2026-04-12T08:20:12.881Z</time></trkpt><trkpt lat="39.159875" lon="16.2205683"><ele>1143.0</ele><time>2026-04-12T08:20:13.882Z</time></trkpt><trkpt lat="39.1598083" lon="16.220475"><ele>1143.0</ele><time>2026-04-12T08:20:14.882Z</time></trkpt><trkpt lat="39.1597567" lon="16.2203333"><ele>1143.0</ele><time>2026-04-12T08:20:15.882Z</time></trkpt><trkpt lat="39.1596417" lon="16.2202617"><ele>1143.0</ele><time>2026-04-12T08:20:16.882Z</time></trkpt><trkpt lat="39.1595633" lon="16.2201183"><ele>1140.0</ele><time>2026-04-12T08:20:17.881Z</time></trkpt><trkpt lat="39.15948" lon="16.2200283"><ele>1137.0</ele><time>2026-04-12T08:20:18.882Z</time></trkpt><trkpt lat="39.1593833" lon="16.2198883"><ele>1134.0</ele><time>2026-04-12T08:20:19.882Z</time></trkpt><trkpt lat="39.159315" lon="16.2197167"><ele>1131.0</ele><time>2026-04-12T08:20:20.882Z</time></trkpt><trkpt lat="39.1592483" lon="16.2195567"><ele>1130.5</ele><time>2026-04-12T08:20:21.882Z</time></trkpt><trkpt lat="39.1591817" lon="16.2194167"><ele>1130.0</ele><time>2026-04-12T08:20:22.882Z</time></trkpt><trkpt lat="39.1590967" lon="16.2193033"><ele>1129.5</ele><time>2026-04-12T08:20:23.882Z</time></trkpt><trkpt lat="39.1590033" lon="16.2191567"><ele>1129.0</ele><time>2026-04-12T08:20:24.882Z</time></trkpt><trkpt lat="39.1589217" lon="16.2190467"><ele>1124.75</ele><time>2026-04-12T08:20:25.881Z</time></trkpt><trkpt lat="39.1588383" lon="16.218935"><ele>1120.5</ele><time>2026-04-12T08:20:26.881Z</time></trkpt><trkpt lat="39.1587583" lon="16.218805"><ele>1116.25</ele><time>2026-04-12T08:20:27.881Z</time></trkpt><trkpt lat="39.1587" lon="16.21866"><ele>1112.0</ele><time>2026-04-12T08:20:28.882Z</time></trkpt><trkpt lat="39.158705" lon="16.2184933"><ele>1112.0</ele><time>2026-04-12T08:20:29.882Z</time></trkpt><trkpt lat="39.1587" lon="16.2183333"><ele>1112.0</ele><time>2026-04-12T08:20:30.882Z</time></trkpt><trkpt lat="39.1586783" lon="16.2181667"><ele>1112.0</ele><time>2026-04-12T08:20:31.882Z</time></trkpt><trkpt lat="39.15866" lon="16.2180117"><ele>1112.0</ele><time>2026-04-12T08:20:32.882Z</time></trkpt><trkpt lat="39.1586417" lon="16.2178383"><ele>1115.25</ele><time>2026-04-12T08:20:33.882Z</time></trkpt><trkpt lat="39.1586283" lon="16.217685"><ele>1118.5</ele><time>2026-04-12T08:20:34.881Z</time></trkpt><trkpt lat="39.15859" lon="16.2174983"><ele>1121.75</ele><time>2026-04-12T08:20:35.882Z</time></trkpt><trkpt lat="39.1585483" lon="16.2173217"><ele>1125.0</ele><time>2026-04-12T08:20:36.882Z</time></trkpt><trkpt lat="39.1585017" lon="16.2171567"><ele>1130.5</ele><time>2026-04-12T08:20:37.881Z</time></trkpt><trkpt lat="39.1584583" lon="16.21701"><ele>1136.0</ele><time>2026-04-12T08:20:38.882Z</time></trkpt><trkpt lat="39.1584017" lon="16.2168767"><ele>1141.5</ele><time>2026-04-12T08:20:39.882Z</time></trkpt><trkpt lat="39.158335" lon="16.2167567"><ele>1147.0</ele><time>2026-04-12T08:20:40.882Z</time></trkpt><trkpt lat="39.158235" lon="16.2166333"><ele>1145.0</ele><time>2026-04-12T08:20:41.882Z</time></trkpt><trkpt lat="39.1581617" lon="16.21651"><ele>1143.0</ele><time>2026-04-12T08:20:42.882Z</time></trkpt><trkpt lat="39.1580917" lon="16.2163933"><ele>1141.0</ele><time>2026-04-12T08:20:43.882Z</time></trkpt><trkpt lat="39.158015" lon="16.2162867"><ele>1139.0</ele><time>2026-04-12T08:20:44.882Z</time></trkpt><trkpt lat="39.1579517" lon="16.2161767"><ele>1139.0</ele><time>2026-04-12T08:20:45.881Z</time></trkpt><trkpt lat="39.1578967" lon="16.2160767"><ele>1139.0</ele><time>2026-04-12T08:20:46.881Z</time></trkpt><trkpt lat="39.1578417" lon="16.2159683"><ele>1139.0</ele><time>2026-04-12T08:20:47.882Z</time></trkpt><trkpt lat="39.1577833" lon="16.2158967"><ele>1139.0</ele><time>2026-04-12T08:20:48.881Z</time></trkpt><trkpt lat="39.1577367" lon="16.2158167"><ele>1139.0</ele><time>2026-04-12T08:20:49.882Z</time></trkpt><trkpt lat="39.15769" lon="16.215715"><ele>1139.0</ele><time>2026-04-12T08:20:50.882Z</time></trkpt><trkpt lat="39.157615" lon="16.2156433"><ele>1138.8</ele><time>2026-04-12T08:20:52.882Z</time></trkpt><trkpt lat="39.157525" lon="16.215595"><ele>1138.6000000000001</ele><time>2026-04-12T08:20:53.882Z</time></trkpt><trkpt lat="39.1574483" lon="16.2155267"><ele>1138.4</ele><time>2026-04-12T08:20:54.881Z</time></trkpt><trkpt lat="39.15737" lon="16.2154583"><ele>1138.2</ele><time>2026-04-12T08:20:55.881Z</time></trkpt><trkpt lat="39.157305" lon="16.2153833"><ele>1138.0</ele><time>2026-04-12T08:20:56.882Z</time></trkpt><trkpt lat="39.15724" lon="16.2153283"><ele>1138.0</ele><time>2026-04-12T08:20:57.882Z</time></trkpt><trkpt lat="39.15711" lon="16.2152933"><ele>1138.0</ele><time>2026-04-12T08:20:59.881Z</time></trkpt><trkpt lat="39.1570117" lon="16.2152033"><ele>1138.0</ele><time>2026-04-12T08:21:01.881Z</time></trkpt><trkpt lat="39.156955" lon="16.2151383"><ele>1138.0</ele><time>2026-04-12T08:21:02.881Z</time></trkpt><trkpt lat="39.1568917" lon="16.21506"><ele>1138.0</ele><time>2026-04-12T08:21:03.882Z</time></trkpt><trkpt lat="39.1569133" lon="16.2148467"><ele>1143.75</ele><time>2026-04-12T08:21:04.881Z</time></trkpt><trkpt lat="39.15683" lon="16.21472"><ele>1149.5</ele><time>2026-04-12T08:21:05.881Z</time></trkpt><trkpt lat="39.1567533" lon="16.2146167"><ele>1155.25</ele><time>2026-04-12T08:21:06.882Z</time></trkpt><trkpt lat="39.15667" lon="16.214535"><ele>1161.0</ele><time>2026-04-12T08:21:07.882Z</time></trkpt><trkpt lat="39.1565717" lon="16.21445"><ele>1156.2</ele><time>2026-04-12T08:21:08.882Z</time></trkpt><trkpt lat="39.1564817" lon="16.21437"><ele>1151.3999999999999</ele><time>2026-04-12T08:21:09.882Z</time></trkpt><trkpt lat="39.1564017" lon="16.21429"><ele>1146.6</ele><time>2026-04-12T08:21:10.882Z</time></trkpt><trkpt lat="39.1563317" lon="16.214245"><ele>1141.8</ele><time>2026-04-12T08:21:11.881Z</time></trkpt><trkpt lat="39.1562517" lon="16.214115"><ele>1137.0</ele><time>2026-04-12T08:21:12.882Z</time></trkpt><trkpt lat="39.1561783" lon="16.21403"><ele>1137.3333333333333</ele><time>2026-04-12T08:21:13.881Z</time></trkpt><trkpt lat="39.1561233" lon="16.2139517"><ele>1137.6666666666667</ele><time>2026-04-12T08:21:14.881Z</time></trkpt><trkpt lat="39.1561" lon="16.2138317"><ele>1138.0</ele><time>2026-04-12T08:21:15.882Z</time></trkpt><trkpt lat="39.1560417" lon="16.213735"><ele>1138.3333333333335</ele><time>2026-04-12T08:21:16.882Z</time></trkpt><trkpt lat="39.1559867" lon="16.2136517"><ele>1138.6666666666667</ele><time>2026-04-12T08:21:17.882Z</time></trkpt><trkpt lat="39.1559317" lon="16.2135633"><ele>1139.0</ele><time>2026-04-12T08:21:18.882Z</time></trkpt><trkpt lat="39.1558983" lon="16.2134383"><ele>1139.0</ele><time>2026-04-12T08:21:19.882Z</time></trkpt><trkpt lat="39.15586" lon="16.2133217"><ele>1139.0</ele><time>2026-04-12T08:21:20.881Z</time></trkpt><trkpt lat="39.1558333" lon="16.2132033"><ele>1139.0</ele><time>2026-04-12T08:21:21.882Z</time></trkpt><trkpt lat="39.1557933" lon="16.213095"><ele>1139.0</ele><time>2026-04-12T08:21:22.881Z</time></trkpt><trkpt lat="39.1557583" lon="16.2129933"><ele>1139.0</ele><time>2026-04-12T08:21:23.882Z</time></trkpt><trkpt lat="39.155705" lon="16.2129133"><ele>1137.0</ele><time>2026-04-12T08:21:24.882Z</time></trkpt><trkpt lat="39.15568" lon="16.2128067"><ele>1135.0</ele><time>2026-04-12T08:21:25.881Z</time></trkpt><trkpt lat="39.1555433" lon="16.2127667"><ele>1133.0</ele><time>2026-04-12T08:21:26.882Z</time></trkpt><trkpt lat="39.1554967" lon="16.212665"><ele>1131.0</ele><time>2026-04-12T08:21:27.882Z</time></trkpt><trkpt lat="39.155435" lon="16.212585"><ele>1129.0</ele><time>2026-04-12T08:21:28.881Z</time></trkpt><trkpt lat="39.15533" lon="16.2125867"><ele>1129.0</ele><time>2026-04-12T08:21:29.881Z</time></trkpt><trkpt lat="39.155195" lon="16.2126167"><ele>1129.0</ele><time>2026-04-12T08:21:30.882Z</time></trkpt><trkpt lat="39.1551033" lon="16.2126217"><ele>1129.0</ele><time>2026-04-12T08:21:31.882Z</time></trkpt><trkpt lat="39.1549867" lon="16.21262"><ele>1129.0</ele><time>2026-04-12T08:21:32.881Z</time></trkpt><trkpt lat="39.1548717" lon="16.212595"><ele>1127.75</ele><time>2026-04-12T08:21:33.882Z</time></trkpt><trkpt lat="39.1547567" lon="16.2125483"><ele>1126.5</ele><time>2026-04-12T08:21:34.882Z</time></trkpt><trkpt lat="39.1546483" lon="16.2124883"><ele>1125.25</ele><time>2026-04-12T08:21:35.881Z</time></trkpt><trkpt lat="39.15453" lon="16.2124567"><ele>1124.0</ele><time>2026-04-12T08:21:36.882Z</time></trkpt><trkpt lat="39.15441" lon="16.2123983"><ele>1124.6666666666667</ele><time>2026-04-12T08:21:37.882Z</time></trkpt><trkpt lat="39.1542533" lon="16.21231"><ele>1125.3333333333333</ele><time>2026-04-12T08:21:38.881Z</time></trkpt><trkpt lat="39.1541117" lon="16.212225"><ele>1126.0</ele><time>2026-04-12T08:21:39.882Z</time></trkpt><trkpt lat="39.1539917" lon="16.2121517"><ele>1127.75</ele><time>2026-04-12T08:21:40.881Z</time></trkpt><trkpt lat="39.1538867" lon="16.212035"><ele>1129.5</ele><time>2026-04-12T08:21:41.882Z</time></trkpt><trkpt lat="39.1537917" lon="16.211915"><ele>1131.25</ele><time>2026-04-12T08:21:42.882Z</time></trkpt><trkpt lat="39.1536983" lon="16.211815"><ele>1133.0</ele><time>2026-04-12T08:21:43.882Z</time></trkpt><trkpt lat="39.153605" lon="16.2117217"><ele>1133.0</ele><time>2026-04-12T08:21:44.882Z</time></trkpt><trkpt lat="39.1534933" lon="16.2116283"><ele>1133.0</ele><time>2026-04-12T08:21:45.881Z</time></trkpt><trkpt lat="39.1533783" lon="16.2115517"><ele>1133.0</ele><time>2026-04-12T08:21:46.882Z</time></trkpt><trkpt lat="39.1532617" lon="16.2114783"><ele>1133.0</ele><time>2026-04-12T08:21:47.881Z</time></trkpt><trkpt lat="39.1531483" lon="16.2113933"><ele>1130.5</ele><time>2026-04-12T08:21:48.882Z</time></trkpt><trkpt lat="39.1530367" lon="16.2113467"><ele>1128.0</ele><time>2026-04-12T08:21:49.881Z</time></trkpt><trkpt lat="39.152935" lon="16.211315"><ele>1125.5</ele><time>2026-04-12T08:21:50.882Z</time></trkpt><trkpt lat="39.1528333" lon="16.2112567"><ele>1123.0</ele><time>2026-04-12T08:21:51.882Z</time></trkpt><trkpt lat="39.152735" lon="16.2111683"><ele>1123.0</ele><time>2026-04-12T08:21:52.882Z</time></trkpt><trkpt lat="39.152625" lon="16.211055"><ele>1123.0</ele><time>2026-04-12T08:21:53.882Z</time></trkpt><trkpt lat="39.15253" lon="16.2109367"><ele>1123.0</ele><time>2026-04-12T08:21:54.882Z</time></trkpt><trkpt lat="39.152435" lon="16.2108033"><ele>1123.0</ele><time>2026-04-12T08:21:55.882Z</time></trkpt><trkpt lat="39.1523483" lon="16.2106583"><ele>1120.0</ele><time>2026-04-12T08:21:56.882Z</time></trkpt><trkpt lat="39.1522583" lon="16.210535"><ele>1117.0</ele><time>2026-04-12T08:21:57.882Z</time></trkpt><trkpt lat="39.1522017" lon="16.2104267"><ele>1114.0</ele><time>2026-04-12T08:21:58.882Z</time></trkpt><trkpt lat="39.1521" lon="16.2103367"><ele>1111.0</ele><time>2026-04-12T08:21:59.882Z</time></trkpt><trkpt lat="39.15199" lon="16.21024"><ele>1111.0</ele><time>2026-04-12T08:22:00.882Z</time></trkpt><trkpt lat="39.15191" lon="16.2101817"><ele>1111.0</ele><time>2026-04-12T08:22:01.882Z</time></trkpt><trkpt lat="39.1517833" lon="16.2100783"><ele>1111.0</ele><time>2026-04-12T08:22:02.882Z</time></trkpt><trkpt lat="39.151655" lon="16.210005"><ele>1111.0</ele><time>2026-04-12T08:22:03.882Z</time></trkpt><trkpt lat="39.151525" lon="16.209935"><ele>1109.6666666666665</ele><time>2026-04-12T08:22:04.882Z</time></trkpt><trkpt lat="39.1513567" lon="16.20987"><ele>1108.3333333333333</ele><time>2026-04-12T08:22:05.882Z</time></trkpt><trkpt lat="39.1512117" lon="16.2098"><ele>1107.0</ele><time>2026-04-12T08:22:06.882Z</time></trkpt><trkpt lat="39.1510767" lon="16.2097317"><ele>1106.8</ele><time>2026-04-12T08:22:07.882Z</time></trkpt><trkpt lat="39.150935" lon="16.2096817"><ele>1106.6</ele><time>2026-04-12T08:22:08.881Z</time></trkpt><trkpt lat="39.1508533" lon="16.2096417"><ele>1106.3999999999999</ele><time>2026-04-12T08:22:09.882Z</time></trkpt><trkpt lat="39.1507917" lon="16.209585"><ele>1106.2</ele><time>2026-04-12T08:22:10.882Z</time></trkpt><trkpt lat="39.1507167" lon="16.2095283"><ele>1106.0</ele><time>2026-04-12T08:22:11.882Z</time></trkpt><trkpt lat="39.1506517" lon="16.209475"><ele>1106.0</ele><time>2026-04-12T08:22:12.882Z</time></trkpt><trkpt lat="39.1505933" lon="16.2093833"><ele>1106.0</ele><time>2026-04-12T08:22:14.882Z</time></trkpt><trkpt lat="39.1505917" lon="16.2092917"><ele>1106.0</ele><time>2026-04-12T08:22:19.881Z</time></trkpt><trkpt lat="39.1505717" lon="16.20938"><ele>1106.0</ele><time>2026-04-12T08:22:20.882Z</time></trkpt><trkpt lat="39.1506583" lon="16.20934"><ele>1106.0</ele><time>2026-04-12T08:22:23.882Z</time></trkpt><trkpt lat="39.1507483" lon="16.2093083"><ele>1106.0</ele><time>2026-04-12T08:22:25.881Z</time></trkpt><trkpt lat="39.150865" lon="16.2093033"><ele>1106.0</ele><time>2026-04-12T08:22:27.882Z</time></trkpt><trkpt lat="39.1509917" lon="16.209295"><ele>1106.0</ele><time>2026-04-12T08:22:29.882Z</time></trkpt><trkpt lat="39.15108" lon="16.2092983"><ele>1106.0</ele><time>2026-04-12T08:22:30.881Z</time></trkpt><trkpt lat="39.1511917" lon="16.2093183"><ele>1106.0</ele><time>2026-04-12T08:22:31.882Z</time></trkpt><trkpt lat="39.151265" lon="16.209315"><ele>1106.0</ele><time>2026-04-12T08:22:32.882Z</time></trkpt><trkpt lat="39.1514417" lon="16.20932"><ele>1105.8</ele><time>2026-04-12T08:22:33.882Z</time></trkpt><trkpt lat="39.151565" lon="16.20931"><ele>1105.6</ele><time>2026-04-12T08:22:34.882Z</time></trkpt><trkpt lat="39.1516367" lon="16.2092883"><ele>1105.4</ele><time>2026-04-12T08:22:35.882Z</time></trkpt><trkpt lat="39.1517233" lon="16.2092467"><ele>1105.2</ele><time>2026-04-12T08:22:36.882Z</time></trkpt><trkpt lat="39.1518117" lon="16.20921"><ele>1105.0</ele><time>2026-04-12T08:22:37.882Z</time></trkpt><trkpt lat="39.1519017" lon="16.20917"><ele>1105.0</ele><time>2026-04-12T08:22:38.882Z</time></trkpt><trkpt lat="39.15198" lon="16.2091467"><ele>1105.0</ele><time>2026-04-12T08:22:39.882Z</time></trkpt><trkpt lat="39.152105" lon="16.2091067"><ele>1105.0</ele><time>2026-04-12T08:22:40.882Z</time></trkpt><trkpt lat="39.1522583" lon="16.2089867"><ele>1105.0</ele><time>2026-04-12T08:22:41.882Z</time></trkpt><trkpt lat="39.15236" lon="16.2089133"><ele>1101.6666666666665</ele><time>2026-04-12T08:22:42.882Z</time></trkpt><trkpt lat="39.152455" lon="16.2088483"><ele>1098.3333333333333</ele><time>2026-04-12T08:22:43.882Z</time></trkpt><trkpt lat="39.152525" lon="16.2087883"><ele>1095.0</ele><time>2026-04-12T08:22:44.881Z</time></trkpt><trkpt lat="39.1525867" lon="16.2087167"><ele>1091.6666666666667</ele><time>2026-04-12T08:22:45.882Z</time></trkpt><trkpt lat="39.1526583" lon="16.2086817"><ele>1088.3333333333335</ele><time>2026-04-12T08:22:46.882Z</time></trkpt><trkpt lat="39.152715" lon="16.2086417"><ele>1085.0</ele><time>2026-04-12T08:22:47.882Z</time></trkpt><trkpt lat="39.1527683" lon="16.2085933"><ele>1085.0</ele><time>2026-04-12T08:22:48.882Z</time></trkpt><trkpt lat="39.1528833" lon="16.2085133"><ele>1085.0</ele><time>2026-04-12T08:22:50.882Z</time></trkpt><trkpt lat="39.15295" lon="16.2084667"><ele>1085.0</ele><time>2026-04-12T08:22:51.882Z</time></trkpt><trkpt lat="39.1530183" lon="16.2084467"><ele>1085.0</ele><time>2026-04-12T08:22:52.882Z</time></trkpt><trkpt lat="39.1531567" lon="16.2083783"><ele>1085.0</ele><time>2026-04-12T08:22:54.883Z</time></trkpt><trkpt lat="39.1532433" lon="16.208295"><ele>1083.6666666666667</ele><time>2026-04-12T08:22:56.883Z</time></trkpt><trkpt lat="39.1533533" lon="16.2082283"><ele>1082.3333333333335</ele><time>2026-04-12T08:22:58.882Z</time></trkpt><trkpt lat="39.1534117" lon="16.2082833"><ele>1081.0</ele><time>2026-04-12T08:22:59.883Z</time></trkpt><trkpt lat="39.1534867" lon="16.2082483"><ele>1079.6666666666667</ele><time>2026-04-12T08:23:00.883Z</time></trkpt><trkpt lat="39.153565" lon="16.2081933"><ele>1078.3333333333333</ele><time>2026-04-12T08:23:01.883Z</time></trkpt><trkpt lat="39.1536417" lon="16.208155"><ele>1077.0</ele><time>2026-04-12T08:23:02.883Z</time></trkpt><trkpt lat="39.1537067" lon="16.2081117"><ele>1072.2</ele><time>2026-04-12T08:23:03.882Z</time></trkpt><trkpt lat="39.1537683" lon="16.208075"><ele>1067.4</ele><time>2026-04-12T08:23:04.882Z</time></trkpt><trkpt lat="39.1539083" lon="16.2080383"><ele>1062.6</ele><time>2026-04-12T08:23:06.883Z</time></trkpt><trkpt lat="39.1540017" lon="16.2080417"><ele>1057.8</ele><time>2026-04-12T08:23:07.883Z</time></trkpt><trkpt lat="39.1541" lon="16.20804"><ele>1053.0</ele><time>2026-04-12T08:23:08.883Z</time></trkpt><trkpt lat="39.1542433" lon="16.2081167"><ele>1052.0</ele><time>2026-04-12T08:23:09.883Z</time></trkpt><trkpt lat="39.1543217" lon="16.2081283"><ele>1051.0</ele><time>2026-04-12T08:23:10.883Z</time></trkpt><trkpt lat="39.15439" lon="16.2081367"><ele>1050.0</ele><time>2026-04-12T08:23:11.883Z</time></trkpt><trkpt lat="39.1544983" lon="16.2081433"><ele>1049.0</ele><time>2026-04-12T08:23:13.883Z</time></trkpt><trkpt lat="39.154535" lon="16.2080767"><ele>1048.0</ele><time>2026-04-12T08:23:16.883Z</time></trkpt><trkpt lat="39.1544783" lon="16.2080167"><ele>1047.0</ele><time>2026-04-12T08:23:18.883Z</time></trkpt><trkpt lat="39.154405" lon="16.2079483"><ele>1047.0</ele><time>2026-04-12T08:23:20.883Z</time></trkpt><trkpt lat="39.1542983" lon="16.207865"><ele>1047.0</ele><time>2026-04-12T08:23:22.882Z</time></trkpt><trkpt lat="39.15424" lon="16.2078233"><ele>1047.0</ele><time>2026-04-12T08:23:23.883Z</time></trkpt><trkpt lat="39.154175" lon="16.2077767"><ele>1047.0</ele><time>2026-04-12T08:23:24.883Z</time></trkpt><trkpt lat="39.15411" lon="16.20775"><ele>1047.0</ele><time>2026-04-12T08:23:25.883Z</time></trkpt><trkpt lat="39.1540167" lon="16.2077067"><ele>1047.0</ele><time>2026-04-12T08:23:27.883Z</time></trkpt><trkpt lat="39.1539467" lon="16.20768"><ele>1048.2</ele><time>2026-04-12T08:23:28.883Z</time></trkpt><trkpt lat="39.15387" lon="16.2076467"><ele>1049.4</ele><time>2026-04-12T08:23:30.882Z</time></trkpt><trkpt lat="39.15377" lon="16.20758"><ele>1050.6</ele><time>2026-04-12T08:23:37.882Z</time></trkpt><trkpt lat="39.1537083" lon="16.2075417"><ele>1051.8</ele><time>2026-04-12T08:23:38.882Z</time></trkpt><trkpt lat="39.1536317" lon="16.207515"><ele>1053.0</ele><time>2026-04-12T08:23:39.883Z</time></trkpt><trkpt lat="39.1535" lon="16.20747"><ele>1053.0</ele><time>2026-04-12T08:23:40.883Z</time></trkpt><trkpt lat="39.1534133" lon="16.2074383"><ele>1053.0</ele><time>2026-04-12T08:23:41.883Z</time></trkpt><trkpt lat="39.15334" lon="16.2074183"><ele>1053.0</ele><time>2026-04-12T08:23:42.883Z</time></trkpt><trkpt lat="39.15323" lon="16.207385"><ele>1053.0</ele><time>2026-04-12T08:23:43.883Z</time></trkpt><trkpt lat="39.15315" lon="16.2073683"><ele>1053.0</ele><time>2026-04-12T08:23:44.883Z</time></trkpt><trkpt lat="39.15308" lon="16.2073433"><ele>1053.0</ele><time>2026-04-12T08:23:45.883Z</time></trkpt><trkpt lat="39.1530017" lon="16.2073067"><ele>1050.0</ele><time>2026-04-12T08:23:46.883Z</time></trkpt><trkpt lat="39.1529183" lon="16.2072583"><ele>1047.0</ele><time>2026-04-12T08:23:47.882Z</time></trkpt><trkpt lat="39.1528283" lon="16.207205"><ele>1044.0</ele><time>2026-04-12T08:23:48.883Z</time></trkpt><trkpt lat="39.1527383" lon="16.2071517"><ele>1041.0</ele><time>2026-04-12T08:23:49.883Z</time></trkpt><trkpt lat="39.1526217" lon="16.207065"><ele>1038.0</ele><time>2026-04-12T08:23:50.883Z</time></trkpt><trkpt lat="39.1525267" lon="16.207005"><ele>1038.0</ele><time>2026-04-12T08:23:51.883Z</time></trkpt><trkpt lat="39.1524167" lon="16.20696"><ele>1038.0</ele><time>2026-04-12T08:23:52.882Z</time></trkpt><trkpt lat="39.152335" lon="16.20688"><ele>1038.0</ele><time>2026-04-12T08:23:53.882Z</time></trkpt><trkpt lat="39.152245" lon="16.2068067"><ele>1038.0</ele><time>2026-04-12T08:23:54.883Z</time></trkpt><trkpt lat="39.1521633" lon="16.2067383"><ele>1038.0</ele><time>2026-04-12T08:23:55.883Z</time></trkpt><trkpt lat="39.15209" lon="16.20669"><ele>1037.1666666666667</ele><time>2026-04-12T08:23:56.883Z</time></trkpt><trkpt lat="39.1520067" lon="16.206625"><ele>1036.3333333333333</ele><time>2026-04-12T08:23:57.882Z</time></trkpt><trkpt lat="39.1519333" lon="16.206575"><ele>1035.5</ele><time>2026-04-12T08:23:58.883Z</time></trkpt><trkpt lat="39.151855" lon="16.2065383"><ele>1034.6666666666665</ele><time>2026-04-12T08:23:59.883Z</time></trkpt><trkpt lat="39.1517833" lon="16.2065117"><ele>1033.8333333333333</ele><time>2026-04-12T08:24:00.883Z</time></trkpt><trkpt lat="39.1517167" lon="16.2064817"><ele>1033.0</ele><time>2026-04-12T08:24:01.883Z</time></trkpt><trkpt lat="39.1516467" lon="16.20645"><ele>1033.0</ele><time>2026-04-12T08:24:02.883Z</time></trkpt><trkpt lat="39.15158" lon="16.2064217"><ele>1033.0</ele><time>2026-04-12T08:24:03.883Z</time></trkpt><trkpt lat="39.1515167" lon="16.2063967"><ele>1033.0</ele><time>2026-04-12T08:24:04.883Z</time></trkpt><trkpt lat="39.151445" lon="16.20638"><ele>1033.0</ele><time>2026-04-12T08:24:05.883Z</time></trkpt><trkpt lat="39.1513417" lon="16.206365"><ele>1033.0</ele><time>2026-04-12T08:24:07.883Z</time></trkpt><trkpt lat="39.15128" lon="16.2063483"><ele>1033.0</ele><time>2026-04-12T08:24:08.882Z</time></trkpt><trkpt lat="39.1511767" lon="16.2063217"><ele>1034.8</ele><time>2026-04-12T08:24:10.883Z</time></trkpt><trkpt lat="39.1510867" lon="16.2062683"><ele>1036.6</ele><time>2026-04-12T08:24:12.882Z</time></trkpt><trkpt lat="39.151025" lon="16.206205"><ele>1038.4</ele><time>2026-04-12T08:24:13.882Z</time></trkpt><trkpt lat="39.1509367" lon="16.206045"><ele>1040.2</ele><time>2026-04-12T08:24:14.883Z</time></trkpt><trkpt lat="39.150855" lon="16.205945"><ele>1042.0</ele><time>2026-04-12T08:24:15.883Z</time></trkpt><trkpt lat="39.150775" lon="16.2058483"><ele>1042.0</ele><time>2026-04-12T08:24:16.883Z</time></trkpt><trkpt lat="39.1507117" lon="16.20575"><ele>1042.0</ele><time>2026-04-12T08:24:17.883Z</time></trkpt><trkpt lat="39.1506433" lon="16.2056383"><ele>1042.0</ele><time>2026-04-12T08:24:18.883Z</time></trkpt><trkpt lat="39.1505817" lon="16.20553"><ele>1042.0</ele><time>2026-04-12T08:24:19.883Z</time></trkpt><trkpt lat="39.15053" lon="16.2054367"><ele>1042.0</ele><time>2026-04-12T08:24:20.883Z</time></trkpt><trkpt lat="39.1504617" lon="16.2053483"><ele>1041.8</ele><time>2026-04-12T08:24:21.883Z</time></trkpt><trkpt lat="39.1503967" lon="16.2052533"><ele>1041.6</ele><time>2026-04-12T08:24:22.882Z</time></trkpt><trkpt lat="39.1503283" lon="16.2051567"><ele>1041.3999999999999</ele><time>2026-04-12T08:24:23.883Z</time></trkpt><trkpt lat="39.1502783" lon="16.2050817"><ele>1041.2</ele><time>2026-04-12T08:24:24.883Z</time></trkpt><trkpt lat="39.15022" lon="16.2049933"><ele>1041.0</ele><time>2026-04-12T08:24:25.882Z</time></trkpt><trkpt lat="39.1501583" lon="16.2049067"><ele>1037.6</ele><time>2026-04-12T08:24:26.882Z</time></trkpt><trkpt lat="39.1501067" lon="16.2048133"><ele>1034.1999999999998</ele><time>2026-04-12T08:24:27.883Z</time></trkpt><trkpt lat="39.1500233" lon="16.2047467"><ele>1030.8000000000002</ele><time>2026-04-12T08:24:28.883Z</time></trkpt><trkpt lat="39.1499467" lon="16.2047017"><ele>1027.4</ele><time>2026-04-12T08:24:29.883Z</time></trkpt><trkpt lat="39.149865" lon="16.2046267"><ele>1024.0</ele><time>2026-04-12T08:24:30.883Z</time></trkpt><trkpt lat="39.1498017" lon="16.2045417"><ele>1023.9999999999999</ele><time>2026-04-12T08:24:31.883Z</time></trkpt><trkpt lat="39.14974" lon="16.2044683"><ele>1024.0</ele><time>2026-04-12T08:24:32.883Z</time></trkpt><trkpt lat="39.149695" lon="16.20441"><ele>1024.0</ele><time>2026-04-12T08:24:33.882Z</time></trkpt><trkpt lat="39.1496417" lon="16.2043367"><ele>1024.0</ele><time>2026-04-12T08:24:34.883Z</time></trkpt><trkpt lat="39.149595" lon="16.2042717"><ele>1023.9999999999999</ele><time>2026-04-12T08:24:35.883Z</time></trkpt><trkpt lat="39.1495317" lon="16.2042033"><ele>1024.0</ele><time>2026-04-12T08:24:36.882Z</time></trkpt><trkpt lat="39.149455" lon="16.2041233"><ele>1024.0</ele><time>2026-04-12T08:24:37.882Z</time></trkpt><trkpt lat="39.1493767" lon="16.2040467"><ele>1024.0</ele><time>2026-04-12T08:24:38.883Z</time></trkpt><trkpt lat="39.1492833" lon="16.2039483"><ele>1024.0</ele><time>2026-04-12T08:24:39.882Z</time></trkpt><trkpt lat="39.1491933" lon="16.203865"><ele>1024.0</ele><time>2026-04-12T08:24:40.883Z</time></trkpt><trkpt lat="39.1491" lon="16.2037917"><ele>1024.0</ele><time>2026-04-12T08:24:41.882Z</time></trkpt><trkpt lat="39.1490067" lon="16.2037167"><ele>1020.8000000000001</ele><time>2026-04-12T08:24:42.882Z</time></trkpt><trkpt lat="39.1489183" lon="16.2036517"><ele>1017.6000000000001</ele><time>2026-04-12T08:24:43.883Z</time></trkpt><trkpt lat="39.1488283" lon="16.203595"><ele>1014.4</ele><time>2026-04-12T08:24:44.882Z</time></trkpt><trkpt lat="39.1487417" lon="16.2035483"><ele>1011.2</ele><time>2026-04-12T08:24:45.883Z</time></trkpt><trkpt lat="39.1486583" lon="16.203505"><ele>1008.0</ele><time>2026-04-12T08:24:46.883Z</time></trkpt><trkpt lat="39.1485933" lon="16.2034567"><ele>1008.0</ele><time>2026-04-12T08:24:47.883Z</time></trkpt><trkpt lat="39.148495" lon="16.203355"><ele>1008.0</ele><time>2026-04-12T08:24:49.883Z</time></trkpt><trkpt lat="39.1484533" lon="16.2032533"><ele>1008.0</ele><time>2026-04-12T08:24:51.882Z</time></trkpt><trkpt lat="39.1485467" lon="16.2032067"><ele>1008.0</ele><time>2026-04-12T08:24:54.883Z</time></trkpt><trkpt lat="39.14865" lon="16.2032283"><ele>1008.0</ele><time>2026-04-12T08:24:55.883Z</time></trkpt><trkpt lat="39.148855" lon="16.2033267"><ele>1008.0</ele><time>2026-04-12T08:24:56.883Z</time></trkpt><trkpt lat="39.148945" lon="16.2033383"><ele>1008.0</ele><time>2026-04-12T08:24:57.883Z</time></trkpt><trkpt lat="39.149015" lon="16.2033283"><ele>1008.0</ele><time>2026-04-12T08:24:58.882Z</time></trkpt><trkpt lat="39.149085" lon="16.2033383"><ele>1008.0</ele><time>2026-04-12T08:24:59.883Z</time></trkpt><trkpt lat="39.149165" lon="16.20334"><ele>1008.0</ele><time>2026-04-12T08:25:00.883Z</time></trkpt><trkpt lat="39.14925" lon="16.2033567"><ele>1008.0</ele><time>2026-04-12T08:25:01.883Z</time></trkpt><trkpt lat="39.14938" lon="16.2033933"><ele>1005.4</ele><time>2026-04-12T08:25:03.882Z</time></trkpt><trkpt lat="39.1494467" lon="16.2034117"><ele>1002.8</ele><time>2026-04-12T08:25:04.883Z</time></trkpt><trkpt lat="39.1495833" lon="16.20349"><ele>1000.2</ele><time>2026-04-12T08:25:06.883Z</time></trkpt><trkpt lat="39.1496583" lon="16.2035183"><ele>997.6</ele><time>2026-04-12T08:25:07.882Z</time></trkpt><trkpt lat="39.14972" lon="16.2035367"><ele>995.0</ele><time>2026-04-12T08:25:08.882Z</time></trkpt><trkpt lat="39.1498433" lon="16.203545"><ele>993.4</ele><time>2026-04-12T08:25:10.883Z</time></trkpt><trkpt lat="39.1499583" lon="16.20352"><ele>991.8</ele><time>2026-04-12T08:25:12.883Z</time></trkpt><trkpt lat="39.1500217" lon="16.2034983"><ele>990.2</ele><time>2026-04-12T08:25:13.883Z</time></trkpt><trkpt lat="39.1500867" lon="16.2034667"><ele>988.6</ele><time>2026-04-12T08:25:14.882Z</time></trkpt><trkpt lat="39.1502117" lon="16.2033717"><ele>987.0</ele><time>2026-04-12T08:25:16.883Z</time></trkpt><trkpt lat="39.1502717" lon="16.2033017"><ele>987.0</ele><time>2026-04-12T08:25:17.883Z</time></trkpt><trkpt lat="39.1503417" lon="16.2032317"><ele>987.0</ele><time>2026-04-12T08:25:18.883Z</time></trkpt><trkpt lat="39.1504233" lon="16.2031733"><ele>987.0</ele><time>2026-04-12T08:25:19.882Z</time></trkpt><trkpt lat="39.1505117" lon="16.203105"><ele>987.0</ele><time>2026-04-12T08:25:20.883Z</time></trkpt><trkpt lat="39.1506033" lon="16.2030467"><ele>987.0</ele><time>2026-04-12T08:25:21.883Z</time></trkpt><trkpt lat="39.150695" lon="16.2029817"><ele>983.2</ele><time>2026-04-12T08:25:22.882Z</time></trkpt><trkpt lat="39.1508133" lon="16.2029533"><ele>979.4000000000001</ele><time>2026-04-12T08:25:23.883Z</time></trkpt><trkpt lat="39.1508917" lon="16.2029133"><ele>975.5999999999999</ele><time>2026-04-12T08:25:24.883Z</time></trkpt><trkpt lat="39.15097" lon="16.20285"><ele>971.8</ele><time>2026-04-12T08:25:25.882Z</time></trkpt><trkpt lat="39.151065" lon="16.20279"><ele>968.0</ele><time>2026-04-12T08:25:26.883Z</time></trkpt><trkpt lat="39.1511417" lon="16.2027233"><ele>968.0</ele><time>2026-04-12T08:25:27.883Z</time></trkpt><trkpt lat="39.1512317" lon="16.2026617"><ele>968.0</ele><time>2026-04-12T08:25:28.883Z</time></trkpt><trkpt lat="39.1513067" lon="16.2025817"><ele>968.0</ele><time>2026-04-12T08:25:29.882Z</time></trkpt><trkpt lat="39.1513783" lon="16.202545"><ele>968.0</ele><time>2026-04-12T08:25:30.883Z</time></trkpt><trkpt lat="39.151505" lon="16.202575"><ele>968.0</ele><time>2026-04-12T08:25:32.883Z</time></trkpt><trkpt lat="39.15157" lon="16.202675"><ele>967.3333333333334</ele><time>2026-04-12T08:25:33.883Z</time></trkpt><trkpt lat="39.1516467" lon="16.2027267"><ele>966.6666666666667</ele><time>2026-04-12T08:25:34.883Z</time></trkpt><trkpt lat="39.1517167" lon="16.2027533"><ele>966.0</ele><time>2026-04-12T08:25:35.882Z</time></trkpt><trkpt lat="39.1517867" lon="16.2027983"><ele>965.3333333333333</ele><time>2026-04-12T08:25:36.883Z</time></trkpt><trkpt lat="39.1518517" lon="16.2028217"><ele>964.6666666666666</ele><time>2026-04-12T08:25:37.883Z</time></trkpt><trkpt lat="39.151945" lon="16.202865"><ele>964.0</ele><time>2026-04-12T08:25:38.883Z</time></trkpt><trkpt lat="39.15201" lon="16.2029"><ele>964.0</ele><time>2026-04-12T08:25:39.882Z</time></trkpt><trkpt lat="39.1520883" lon="16.2029167"><ele>964.0000000000001</ele><time>2026-04-12T08:25:40.883Z</time></trkpt><trkpt lat="39.1521467" lon="16.2029717"><ele>964.0000000000001</ele><time>2026-04-12T08:25:41.882Z</time></trkpt><trkpt lat="39.1521417" lon="16.20315"><ele>964.0</ele><time>2026-04-12T08:25:43.882Z</time></trkpt><trkpt lat="39.1521267" lon="16.203265"><ele>964.0</ele><time>2026-04-12T08:25:44.883Z</time></trkpt><trkpt lat="39.1521967" lon="16.20337"><ele>963.2</ele><time>2026-04-12T08:25:46.883Z</time></trkpt><trkpt lat="39.1522983" lon="16.2034367"><ele>962.4000000000001</ele><time>2026-04-12T08:25:48.883Z</time></trkpt><trkpt lat="39.1523833" lon="16.203485"><ele>961.6</ele><time>2026-04-12T08:25:50.883Z</time></trkpt><trkpt lat="39.1524517" lon="16.2034733"><ele>960.8</ele><time>2026-04-12T08:25:51.883Z</time></trkpt><trkpt lat="39.1525233" lon="16.2034467"><ele>960.0</ele><time>2026-04-12T08:25:52.883Z</time></trkpt><trkpt lat="39.1526417" lon="16.2034767"><ele>960.0</ele><time>2026-04-12T08:25:54.883Z</time></trkpt><trkpt lat="39.15272" lon="16.2034967"><ele>960.0</ele><time>2026-04-12T08:25:55.883Z</time></trkpt><trkpt lat="39.152815" lon="16.2035267"><ele>960.0</ele><time>2026-04-12T08:25:56.882Z</time></trkpt><trkpt lat="39.1529" lon="16.2035583"><ele>960.0</ele><time>2026-04-12T08:25:57.883Z</time></trkpt><trkpt lat="39.1529883" lon="16.2035917"><ele>960.0</ele><time>2026-04-12T08:25:58.882Z</time></trkpt><trkpt lat="39.1530633" lon="16.203625"><ele>960.0</ele><time>2026-04-12T08:25:59.883Z</time></trkpt><trkpt lat="39.1531417" lon="16.203655"><ele>957.8333333333334</ele><time>2026-04-12T08:26:00.882Z</time></trkpt><trkpt lat="39.1532267" lon="16.2036817"><ele>955.6666666666667</ele><time>2026-04-12T08:26:01.882Z</time></trkpt><trkpt lat="39.1533067" lon="16.2037017"><ele>953.5</ele><time>2026-04-12T08:26:02.883Z</time></trkpt><trkpt lat="39.1533883" lon="16.2037117"><ele>951.3333333333334</ele><time>2026-04-12T08:26:03.883Z</time></trkpt><trkpt lat="39.1534733" lon="16.203735"><ele>949.1666666666667</ele><time>2026-04-12T08:26:04.882Z</time></trkpt><trkpt lat="39.1535633" lon="16.2037417"><ele>947.0</ele><time>2026-04-12T08:26:05.882Z</time></trkpt><trkpt lat="39.1536267" lon="16.2037317"><ele>947.0000000000001</ele><time>2026-04-12T08:26:06.883Z</time></trkpt><trkpt lat="39.15371" lon="16.2036867"><ele>947.0</ele><time>2026-04-12T08:26:08.883Z</time></trkpt><trkpt lat="39.1537867" lon="16.2036067"><ele>947.0</ele><time>2026-04-12T08:26:10.883Z</time></trkpt><trkpt lat="39.15384" lon="16.2035617"><ele>947.0</ele><time>2026-04-12T08:26:11.883Z</time></trkpt><trkpt lat="39.153905" lon="16.2035133"><ele>947.0000000000001</ele><time>2026-04-12T08:26:12.883Z</time></trkpt><trkpt lat="39.15401" lon="16.20346"><ele>947.0</ele><time>2026-04-12T08:26:13.883Z</time></trkpt><trkpt lat="39.1541083" lon="16.2034133"><ele>945.8</ele><time>2026-04-12T08:26:14.882Z</time></trkpt><trkpt lat="39.1542233" lon="16.2033817"><ele>944.6</ele><time>2026-04-12T08:26:15.883Z</time></trkpt><trkpt lat="39.1543133" lon="16.20336"><ele>943.3999999999999</ele><time>2026-04-12T08:26:16.883Z</time></trkpt><trkpt lat="39.15439" lon="16.2033617"><ele>942.1999999999999</ele><time>2026-04-12T08:26:17.883Z</time></trkpt><trkpt lat="39.1544583" lon="16.20336"><ele>941.0</ele><time>2026-04-12T08:26:18.883Z</time></trkpt><trkpt lat="39.1545683" lon="16.2034183"><ele>941.0000000000001</ele><time>2026-04-12T08:26:19.883Z</time></trkpt><trkpt lat="39.154665" lon="16.2034783"><ele>941.0</ele><time>2026-04-12T08:26:20.883Z</time></trkpt><trkpt lat="39.1547417" lon="16.2035267"><ele>941.0</ele><time>2026-04-12T08:26:21.883Z</time></trkpt><trkpt lat="39.1548217" lon="16.20357"><ele>941.0</ele><time>2026-04-12T08:26:23.883Z</time></trkpt><trkpt lat="39.1548783" lon="16.2036183"><ele>941.0000000000001</ele><time>2026-04-12T08:26:26.883Z</time></trkpt><trkpt lat="39.1548917" lon="16.2035"><ele>941.0</ele><time>2026-04-12T08:26:29.883Z</time></trkpt><trkpt lat="39.1548067" lon="16.2033283"><ele>941.0000000000001</ele><time>2026-04-12T08:26:31.883Z</time></trkpt><trkpt lat="39.154765" lon="16.2032517"><ele>941.0</ele><time>2026-04-12T08:26:32.883Z</time></trkpt><trkpt lat="39.1547433" lon="16.2031733"><ele>941.0</ele><time>2026-04-12T08:26:33.883Z</time></trkpt><trkpt lat="39.1547067" lon="16.2030533"><ele>941.0</ele><time>2026-04-12T08:26:34.883Z</time></trkpt><trkpt lat="39.15469" lon="16.20297"><ele>941.0000000000001</ele><time>2026-04-12T08:26:35.883Z</time></trkpt><trkpt lat="39.1547083" lon="16.2028533"><ele>941.0</ele><time>2026-04-12T08:26:37.883Z</time></trkpt><trkpt lat="39.1547567" lon="16.202765"><ele>937.1999999999999</ele><time>2026-04-12T08:26:39.883Z</time></trkpt><trkpt lat="39.1548517" lon="16.2027067"><ele>933.3999999999999</ele><time>2026-04-12T08:26:41.883Z</time></trkpt><trkpt lat="39.1549467" lon="16.2027"><ele>929.6</ele><time>2026-04-12T08:26:43.882Z</time></trkpt><trkpt lat="39.1550733" lon="16.20277"><ele>925.8</ele><time>2026-04-12T08:26:45.883Z</time></trkpt><trkpt lat="39.1551183" lon="16.2028317"><ele>922.0</ele><time>2026-04-12T08:26:46.883Z</time></trkpt><trkpt lat="39.1551533" lon="16.2029633"><ele>920.6</ele><time>2026-04-12T08:26:48.882Z</time></trkpt><trkpt lat="39.1551933" lon="16.2030283"><ele>919.2</ele><time>2026-04-12T08:26:49.883Z</time></trkpt><trkpt lat="39.1552467" lon="16.2030983"><ele>917.8</ele><time>2026-04-12T08:26:50.883Z</time></trkpt><trkpt lat="39.155345" lon="16.2032017"><ele>916.4</ele><time>2026-04-12T08:26:52.883Z</time></trkpt><trkpt lat="39.155435" lon="16.2032683"><ele>915.0</ele><time>2026-04-12T08:26:54.882Z</time></trkpt><trkpt lat="39.155555" lon="16.2032933"><ele>915.3333333333334</ele><time>2026-04-12T08:26:56.883Z</time></trkpt><trkpt lat="39.1556633" lon="16.2033333"><ele>915.6666666666667</ele><time>2026-04-12T08:26:58.883Z</time></trkpt><trkpt lat="39.155735" lon="16.2033717"><ele>916.0</ele><time>2026-04-12T08:26:59.883Z</time></trkpt><trkpt lat="39.155825" lon="16.2034117"><ele>916.3333333333334</ele><time>2026-04-12T08:27:00.883Z</time></trkpt><trkpt lat="39.155895" lon="16.20343"><ele>916.6666666666667</ele><time>2026-04-12T08:27:01.882Z</time></trkpt><trkpt lat="39.1559633" lon="16.203445"><ele>917.0</ele><time>2026-04-12T08:27:02.883Z</time></trkpt><trkpt lat="39.1560367" lon="16.2034633"><ele>917.0000000000001</ele><time>2026-04-12T08:27:03.883Z</time></trkpt><trkpt lat="39.15612" lon="16.203495"><ele>917.0</ele><time>2026-04-12T08:27:04.883Z</time></trkpt><trkpt lat="39.1562" lon="16.2035283"><ele>917.0</ele><time>2026-04-12T08:27:05.882Z</time></trkpt><trkpt lat="39.1562817" lon="16.2035633"><ele>917.0</ele><time>2026-04-12T08:27:06.882Z</time></trkpt><trkpt lat="39.1563783" lon="16.2035983"><ele>917.0000000000001</ele><time>2026-04-12T08:27:07.883Z</time></trkpt><trkpt lat="39.1564683" lon="16.20362"><ele>917.0</ele><time>2026-04-12T08:27:08.882Z</time></trkpt><trkpt lat="39.15655" lon="16.2036517"><ele>914.0</ele><time>2026-04-12T08:27:09.883Z</time></trkpt><trkpt lat="39.1566167" lon="16.2036817"><ele>911.0</ele><time>2026-04-12T08:27:10.883Z</time></trkpt><trkpt lat="39.1567033" lon="16.203785"><ele>908.0</ele><time>2026-04-12T08:27:12.883Z</time></trkpt><trkpt lat="39.15678" lon="16.2038717"><ele>905.0</ele><time>2026-04-12T08:27:14.883Z</time></trkpt><trkpt lat="39.1568517" lon="16.2039683"><ele>902.0</ele><time>2026-04-12T08:27:16.883Z</time></trkpt><trkpt lat="39.15693" lon="16.2039683"><ele>902.0</ele><time>2026-04-12T08:27:18.883Z</time></trkpt><trkpt lat="39.1570133" lon="16.20393"><ele>902.0</ele><time>2026-04-12T08:27:20.883Z</time></trkpt><trkpt lat="39.1570333" lon="16.2037883"><ele>902.0</ele><time>2026-04-12T08:27:22.883Z</time></trkpt><trkpt lat="39.1569967" lon="16.203695"><ele>902.0</ele><time>2026-04-12T08:27:23.882Z</time></trkpt><trkpt lat="39.15694" lon="16.20358"><ele>902.0</ele><time>2026-04-12T08:27:24.883Z</time></trkpt><trkpt lat="39.15687" lon="16.2034567"><ele>902.0000000000001</ele><time>2026-04-12T08:27:25.883Z</time></trkpt><trkpt lat="39.156835" lon="16.2033583"><ele>902.0</ele><time>2026-04-12T08:27:26.883Z</time></trkpt><trkpt lat="39.1567917" lon="16.2032617"><ele>902.0</ele><time>2026-04-12T08:27:27.882Z</time></trkpt><trkpt lat="39.156735" lon="16.203175"><ele>902.0</ele><time>2026-04-12T08:27:28.883Z</time></trkpt><trkpt lat="39.156725" lon="16.2030783"><ele>902.0000000000001</ele><time>2026-04-12T08:27:29.883Z</time></trkpt><trkpt lat="39.1567183" lon="16.2029533"><ele>902.0</ele><time>2026-04-12T08:27:30.883Z</time></trkpt><trkpt lat="39.1567117" lon="16.2028033"><ele>901.0</ele><time>2026-04-12T08:27:31.883Z</time></trkpt><trkpt lat="39.1567183" lon="16.2026467"><ele>900.0</ele><time>2026-04-12T08:27:32.883Z</time></trkpt><trkpt lat="39.1567283" lon="16.2025083"><ele>899.0</ele><time>2026-04-12T08:27:33.883Z</time></trkpt><trkpt lat="39.156745" lon="16.2023817"><ele>898.0</ele><time>2026-04-12T08:27:34.883Z</time></trkpt><trkpt lat="39.1567667" lon="16.20227"><ele>897.0</ele><time>2026-04-12T08:27:35.883Z</time></trkpt><trkpt lat="39.1567983" lon="16.2021617"><ele>897.0</ele><time>2026-04-12T08:27:36.882Z</time></trkpt><trkpt lat="39.1568333" lon="16.2020483"><ele>897.0</ele><time>2026-04-12T08:27:37.883Z</time></trkpt><trkpt lat="39.15686" lon="16.2019417"><ele>897.0</ele><time>2026-04-12T08:27:38.883Z</time></trkpt><trkpt lat="39.1568917" lon="16.20184"><ele>897.0</ele><time>2026-04-12T08:27:39.883Z</time></trkpt><trkpt lat="39.1569117" lon="16.2017433"><ele>897.0</ele><time>2026-04-12T08:27:40.883Z</time></trkpt><trkpt lat="39.1569283" lon="16.2016433"><ele>897.0</ele><time>2026-04-12T08:27:41.883Z</time></trkpt><trkpt lat="39.1569533" lon="16.2015517"><ele>901.5</ele><time>2026-04-12T08:27:42.882Z</time></trkpt><trkpt lat="39.1569767" lon="16.201455"><ele>906.0</ele><time>2026-04-12T08:27:43.883Z</time></trkpt><trkpt lat="39.15841" lon="16.2049317"><ele>921.6666666666667</ele><time>2026-04-12T08:28:40.881Z</time></trkpt><trkpt lat="39.158465" lon="16.20512"><ele>937.3333333333334</ele><time>2026-04-12T08:28:41.882Z</time></trkpt><trkpt lat="39.158485" lon="16.2053783"><ele>953.0</ele><time>2026-04-12T08:28:42.882Z</time></trkpt><trkpt lat="39.1586" lon="16.20549"><ele>953.0000000000001</ele><time>2026-04-12T08:28:43.882Z</time></trkpt><trkpt lat="39.158665" lon="16.2055583"><ele>953.0</ele><time>2026-04-12T08:28:44.882Z</time></trkpt><trkpt lat="39.1587267" lon="16.20563"><ele>953.0</ele><time>2026-04-12T08:28:45.882Z</time></trkpt><trkpt lat="39.15877" lon="16.2057117"><ele>953.0</ele><time>2026-04-12T08:28:46.882Z</time></trkpt><trkpt lat="39.1588017" lon="16.2057967"><ele>953.0000000000001</ele><time>2026-04-12T08:28:47.881Z</time></trkpt><trkpt lat="39.1588517" lon="16.2058917"><ele>953.0</ele><time>2026-04-12T08:28:48.881Z</time></trkpt><trkpt lat="39.1588733" lon="16.2060017"><ele>951.8333333333334</ele><time>2026-04-12T08:28:49.882Z</time></trkpt><trkpt lat="39.158925" lon="16.2061"><ele>950.6666666666667</ele><time>2026-04-12T08:28:50.882Z</time></trkpt><trkpt lat="39.1589783" lon="16.20621"><ele>949.5</ele><time>2026-04-12T08:28:51.882Z</time></trkpt><trkpt lat="39.15902" lon="16.206305"><ele>948.3333333333333</ele><time>2026-04-12T08:28:52.882Z</time></trkpt><trkpt lat="39.15906" lon="16.2064017"><ele>947.1666666666666</ele><time>2026-04-12T08:28:53.882Z</time></trkpt><trkpt lat="39.1591" lon="16.20649"><ele>946.0</ele><time>2026-04-12T08:28:54.882Z</time></trkpt><trkpt lat="39.1591467" lon="16.2065767"><ele>948.6666666666666</ele><time>2026-04-12T08:28:55.882Z</time></trkpt><trkpt lat="39.159195" lon="16.2066483"><ele>951.3333333333333</ele><time>2026-04-12T08:28:56.882Z</time></trkpt><trkpt lat="39.1592433" lon="16.2067233"><ele>954.0</ele><time>2026-04-12T08:28:57.881Z</time></trkpt><trkpt lat="39.1592917" lon="16.2067967"><ele>956.6666666666667</ele><time>2026-04-12T08:28:58.882Z</time></trkpt><trkpt lat="39.1593467" lon="16.20687"><ele>959.3333333333334</ele><time>2026-04-12T08:28:59.882Z</time></trkpt><trkpt lat="39.1593967" lon="16.206965"><ele>962.0</ele><time>2026-04-12T08:29:00.882Z</time></trkpt><trkpt lat="39.1594533" lon="16.20706"><ele>962.0</ele><time>2026-04-12T08:29:01.882Z</time></trkpt><trkpt lat="39.15951" lon="16.2071583"><ele>962.0</ele><time>2026-04-12T08:29:02.882Z</time></trkpt><trkpt lat="39.1595717" lon="16.2072433"><ele>962.0</ele><time>2026-04-12T08:29:03.882Z</time></trkpt><trkpt lat="39.1596417" lon="16.2073383"><ele>962.0</ele><time>2026-04-12T08:29:04.881Z</time></trkpt><trkpt lat="39.15969" lon="16.2074233"><ele>962.0</ele><time>2026-04-12T08:29:05.882Z</time></trkpt><trkpt lat="39.1603067" lon="16.2044883"><ele>979.2</ele><time>2026-04-12T08:30:08.883Z</time></trkpt><trkpt lat="39.1604833" lon="16.20454"><ele>996.4000000000001</ele><time>2026-04-12T08:30:09.883Z</time></trkpt><trkpt lat="39.160545" lon="16.20451"><ele>1013.5999999999999</ele><time>2026-04-12T08:30:10.883Z</time></trkpt><trkpt lat="39.1605883" lon="16.2044467"><ele>1030.8</ele><time>2026-04-12T08:30:11.883Z</time></trkpt><trkpt lat="39.160635" lon="16.204365"><ele>1048.0</ele><time>2026-04-12T08:30:12.883Z</time></trkpt><trkpt lat="39.1606733" lon="16.2042717"><ele>1052.4</ele><time>2026-04-12T08:30:13.882Z</time></trkpt><trkpt lat="39.160745" lon="16.20417"><ele>1056.8</ele><time>2026-04-12T08:30:14.883Z</time></trkpt><trkpt lat="39.1607783" lon="16.2040967"><ele>1061.2</ele><time>2026-04-12T08:30:15.883Z</time></trkpt><trkpt lat="39.1608033" lon="16.2040133"><ele>1065.6</ele><time>2026-04-12T08:30:16.882Z</time></trkpt><trkpt lat="39.1608" lon="16.2038583"><ele>1070.0</ele><time>2026-04-12T08:30:18.883Z</time></trkpt><trkpt lat="39.16075" lon="16.2037283"><ele>1069.6</ele><time>2026-04-12T08:30:20.883Z</time></trkpt><trkpt lat="39.1606117" lon="16.2036383"><ele>1069.2</ele><time>2026-04-12T08:30:22.883Z</time></trkpt><trkpt lat="39.1605233" lon="16.2035117"><ele>1068.8</ele><time>2026-04-12T08:30:24.882Z</time></trkpt><trkpt lat="39.1604767" lon="16.20344"><ele>1068.4</ele><time>2026-04-12T08:30:25.883Z</time></trkpt><trkpt lat="39.1604467" lon="16.2033533"><ele>1068.0</ele><time>2026-04-12T08:30:26.882Z</time></trkpt><trkpt lat="39.16044" lon="16.20326"><ele>1068.0</ele><time>2026-04-12T08:30:27.883Z</time></trkpt><trkpt lat="39.1603883" lon="16.2031733"><ele>1068.0</ele><time>2026-04-12T08:30:28.883Z</time></trkpt><trkpt lat="39.1603967" lon="16.2030833"><ele>1068.0</ele><time>2026-04-12T08:30:29.883Z</time></trkpt><trkpt lat="39.1603817" lon="16.2030017"><ele>1068.0</ele><time>2026-04-12T08:30:30.883Z</time></trkpt><trkpt lat="39.16038" lon="16.2029133"><ele>1068.0</ele><time>2026-04-12T08:30:31.882Z</time></trkpt><trkpt lat="39.1603833" lon="16.2028317"><ele>1068.0</ele><time>2026-04-12T08:30:32.882Z</time></trkpt><trkpt lat="39.1604583" lon="16.2027267"><ele>1072.0</ele><time>2026-04-12T08:30:34.883Z</time></trkpt><trkpt lat="39.16051" lon="16.2026733"><ele>1076.0</ele><time>2026-04-12T08:30:35.882Z</time></trkpt><trkpt lat="39.1605783" lon="16.2026333"><ele>1080.0</ele><time>2026-04-12T08:30:36.883Z</time></trkpt><trkpt lat="39.160775" lon="16.2026667"><ele>1084.0</ele><time>2026-04-12T08:30:37.883Z</time></trkpt><trkpt lat="39.160905" lon="16.2026733"><ele>1085.8333333333333</ele><time>2026-04-12T08:30:38.883Z</time></trkpt><trkpt lat="39.1609867" lon="16.2026683"><ele>1087.6666666666665</ele><time>2026-04-12T08:30:39.882Z</time></trkpt><trkpt lat="39.16105" lon="16.20267"><ele>1089.5</ele><time>2026-04-12T08:30:40.883Z</time></trkpt><trkpt lat="39.1611083" lon="16.2027067"><ele>1091.3333333333333</ele><time>2026-04-12T08:30:41.883Z</time></trkpt><trkpt lat="39.161175" lon="16.2027517"><ele>1093.1666666666667</ele><time>2026-04-12T08:30:42.883Z</time></trkpt><trkpt lat="39.1612533" lon="16.2027817"><ele>1095.0</ele><time>2026-04-12T08:30:44.883Z</time></trkpt><trkpt lat="39.1612883" lon="16.2028783"><ele>1095.0</ele><time>2026-04-12T08:30:49.883Z</time></trkpt><trkpt lat="39.161315" lon="16.202975"><ele>1095.0</ele><time>2026-04-12T08:30:51.883Z</time></trkpt><trkpt lat="39.1613683" lon="16.203065"><ele>1095.0</ele><time>2026-04-12T08:30:53.882Z</time></trkpt><trkpt lat="39.161465" lon="16.203145"><ele>1095.0</ele><time>2026-04-12T08:30:55.882Z</time></trkpt><trkpt lat="39.161585" lon="16.2032"><ele>1095.0</ele><time>2026-04-12T08:30:57.883Z</time></trkpt><trkpt lat="39.1616967" lon="16.2032617"><ele>1095.4</ele><time>2026-04-12T08:30:58.883Z</time></trkpt><trkpt lat="39.1617683" lon="16.2033067"><ele>1095.8</ele><time>2026-04-12T08:30:59.882Z</time></trkpt><trkpt lat="39.16186" lon="16.203385"><ele>1096.2</ele><time>2026-04-12T08:31:00.883Z</time></trkpt><trkpt lat="39.1619733" lon="16.2034667"><ele>1096.6</ele><time>2026-04-12T08:31:01.883Z</time></trkpt><trkpt lat="39.1620733" lon="16.2035117"><ele>1097.0</ele><time>2026-04-12T08:31:02.883Z</time></trkpt><trkpt lat="39.1621767" lon="16.2035517"><ele>1097.0</ele><time>2026-04-12T08:31:03.883Z</time></trkpt><trkpt lat="39.1622483" lon="16.2035483"><ele>1097.0</ele><time>2026-04-12T08:31:04.883Z</time></trkpt><trkpt lat="39.162345" lon="16.2035683"><ele>1097.0</ele><time>2026-04-12T08:31:05.883Z</time></trkpt><trkpt lat="39.1624317" lon="16.2036117"><ele>1097.0</ele><time>2026-04-12T08:31:06.883Z</time></trkpt><trkpt lat="39.1625717" lon="16.2036767"><ele>1097.0</ele><time>2026-04-12T08:31:07.883Z</time></trkpt><trkpt lat="39.1626717" lon="16.2037117"><ele>1095.8</ele><time>2026-04-12T08:31:08.882Z</time></trkpt><trkpt lat="39.1627833" lon="16.2037417"><ele>1094.6</ele><time>2026-04-12T08:31:09.883Z</time></trkpt><trkpt lat="39.1628883" lon="16.2037617"><ele>1093.3999999999999</ele><time>2026-04-12T08:31:10.883Z</time></trkpt><trkpt lat="39.1629933" lon="16.20375"><ele>1092.2</ele><time>2026-04-12T08:31:11.882Z</time></trkpt><trkpt lat="39.1630967" lon="16.2037083"><ele>1091.0</ele><time>2026-04-12T08:31:12.882Z</time></trkpt><trkpt lat="39.1631933" lon="16.2036367"><ele>1091.0</ele><time>2026-04-12T08:31:13.882Z</time></trkpt><trkpt lat="39.1632833" lon="16.2035983"><ele>1091.0</ele><time>2026-04-12T08:31:14.882Z</time></trkpt><trkpt lat="39.1633667" lon="16.20353"><ele>1091.0</ele><time>2026-04-12T08:31:15.882Z</time></trkpt><trkpt lat="39.16343" lon="16.203415"><ele>1091.0</ele><time>2026-04-12T08:31:16.882Z</time></trkpt><trkpt lat="39.163515" lon="16.203335"><ele>1091.0</ele><time>2026-04-12T08:31:17.883Z</time></trkpt><trkpt lat="39.163605" lon="16.2032717"><ele>1091.0</ele><time>2026-04-12T08:31:18.882Z</time></trkpt><trkpt lat="39.163725" lon="16.2032433"><ele>1091.0</ele><time>2026-04-12T08:31:19.883Z</time></trkpt><trkpt lat="39.1638183" lon="16.2032433"><ele>1091.0</ele><time>2026-04-12T08:31:20.882Z</time></trkpt><trkpt lat="39.16391" lon="16.2032317"><ele>1091.0</ele><time>2026-04-12T08:31:21.882Z</time></trkpt><trkpt lat="39.1639967" lon="16.2032283"><ele>1091.0</ele><time>2026-04-12T08:31:22.883Z</time></trkpt><trkpt lat="39.16409" lon="16.2032167"><ele>1091.6</ele><time>2026-04-12T08:31:23.883Z</time></trkpt><trkpt lat="39.164205" lon="16.2031867"><ele>1092.1999999999998</ele><time>2026-04-12T08:31:24.883Z</time></trkpt><trkpt lat="39.1642883" lon="16.203165"><ele>1092.8000000000002</ele><time>2026-04-12T08:31:25.883Z</time></trkpt><trkpt lat="39.1643733" lon="16.2031533"><ele>1093.4</ele><time>2026-04-12T08:31:26.883Z</time></trkpt><trkpt lat="39.16446" lon="16.2031683"><ele>1094.0</ele><time>2026-04-12T08:31:27.883Z</time></trkpt><trkpt lat="39.16454" lon="16.2032117"><ele>1094.0</ele><time>2026-04-12T08:31:28.883Z</time></trkpt><trkpt lat="39.1646283" lon="16.2032767"><ele>1094.0</ele><time>2026-04-12T08:31:29.883Z</time></trkpt><trkpt lat="39.1646983" lon="16.203325"><ele>1094.0</ele><time>2026-04-12T08:31:30.883Z</time></trkpt><trkpt lat="39.164765" lon="16.2033767"><ele>1094.0</ele><time>2026-04-12T08:31:31.882Z</time></trkpt><trkpt lat="39.1648183" lon="16.203455"><ele>1094.0</ele><time>2026-04-12T08:31:32.883Z</time></trkpt><trkpt lat="39.1648383" lon="16.203615"><ele>1094.0</ele><time>2026-04-12T08:31:33.883Z</time></trkpt><trkpt lat="39.164825" lon="16.2039467"><ele>1094.0</ele><time>2026-04-12T08:31:34.883Z</time></trkpt><trkpt lat="39.1648617" lon="16.2040333"><ele>1094.0</ele><time>2026-04-12T08:31:35.883Z</time></trkpt><trkpt lat="39.1649517" lon="16.204125"><ele>1094.0</ele><time>2026-04-12T08:31:37.883Z</time></trkpt><trkpt lat="39.1650267" lon="16.2040767"><ele>1094.3333333333335</ele><time>2026-04-12T08:31:39.882Z</time></trkpt><trkpt lat="39.165045" lon="16.2039933"><ele>1094.6666666666667</ele><time>2026-04-12T08:31:40.882Z</time></trkpt><trkpt lat="39.165155" lon="16.2039483"><ele>1095.0</ele><time>2026-04-12T08:31:42.882Z</time></trkpt><trkpt lat="39.1652217" lon="16.2039467"><ele>1095.3333333333333</ele><time>2026-04-12T08:31:43.883Z</time></trkpt><trkpt lat="39.1653017" lon="16.2039617"><ele>1095.6666666666665</ele><time>2026-04-12T08:31:44.883Z</time></trkpt><trkpt lat="39.1653917" lon="16.2039883"><ele>1096.0</ele><time>2026-04-12T08:31:45.883Z</time></trkpt><trkpt lat="39.1654833" lon="16.2040033"><ele>1096.0</ele><time>2026-04-12T08:31:46.882Z</time></trkpt><trkpt lat="39.1656033" lon="16.20403"><ele>1096.0</ele><time>2026-04-12T08:31:47.883Z</time></trkpt><trkpt lat="39.165685" lon="16.2040583"><ele>1096.0</ele><time>2026-04-12T08:31:48.882Z</time></trkpt><trkpt lat="39.1657533" lon="16.20408"><ele>1096.0</ele><time>2026-04-12T08:31:49.882Z</time></trkpt><trkpt lat="39.1658283" lon="16.2041167"><ele>1096.0</ele><time>2026-04-12T08:31:50.883Z</time></trkpt><trkpt lat="39.1659" lon="16.2041317"><ele>1096.0</ele><time>2026-04-12T08:31:51.883Z</time></trkpt><trkpt lat="39.1659783" lon="16.204135"><ele>1095.3333333333333</ele><time>2026-04-12T08:31:52.882Z</time></trkpt><trkpt lat="39.1660533" lon="16.2041333"><ele>1094.6666666666665</ele><time>2026-04-12T08:31:53.883Z</time></trkpt><trkpt lat="39.1661233" lon="16.2041367"><ele>1094.0</ele><time>2026-04-12T08:31:54.883Z</time></trkpt><trkpt lat="39.1662017" lon="16.20412"><ele>1093.3333333333333</ele><time>2026-04-12T08:31:55.883Z</time></trkpt><trkpt lat="39.1662833" lon="16.2040933"><ele>1092.6666666666667</ele><time>2026-04-12T08:31:56.883Z</time></trkpt><trkpt lat="39.16637" lon="16.2040283"><ele>1092.0</ele><time>2026-04-12T08:31:57.883Z</time></trkpt><trkpt lat="39.1664433" lon="16.2040117"><ele>1091.0</ele><time>2026-04-12T08:31:58.883Z</time></trkpt><trkpt lat="39.166535" lon="16.203945"><ele>1090.0</ele><time>2026-04-12T08:31:59.883Z</time></trkpt><trkpt lat="39.166585" lon="16.203805"><ele>1089.0</ele><time>2026-04-12T08:32:00.883Z</time></trkpt><trkpt lat="39.1666483" lon="16.20373"><ele>1088.0</ele><time>2026-04-12T08:32:01.883Z</time></trkpt><trkpt lat="39.1667267" lon="16.20362"><ele>1087.0</ele><time>2026-04-12T08:32:03.883Z</time></trkpt><trkpt lat="39.1668317" lon="16.2036417"><ele>1087.0</ele><time>2026-04-12T08:32:05.883Z</time></trkpt><trkpt lat="39.1669467" lon="16.2036333"><ele>1087.0</ele><time>2026-04-12T08:32:07.882Z</time></trkpt><trkpt lat="39.1670583" lon="16.2036367"><ele>1087.0</ele><time>2026-04-12T08:32:09.883Z</time></trkpt><trkpt lat="39.1671217" lon="16.2035883"><ele>1087.0</ele><time>2026-04-12T08:32:12.883Z</time></trkpt><trkpt lat="39.1672117" lon="16.203565"><ele>1087.0</ele><time>2026-04-12T08:32:14.882Z</time></trkpt><trkpt lat="39.1673183" lon="16.2035067"><ele>1086.8333333333333</ele><time>2026-04-12T08:32:16.883Z</time></trkpt><trkpt lat="39.1673683" lon="16.2034367"><ele>1086.6666666666665</ele><time>2026-04-12T08:32:17.883Z</time></trkpt><trkpt lat="39.167435" lon="16.2033933"><ele>1086.5</ele><time>2026-04-12T08:32:18.883Z</time></trkpt><trkpt lat="39.167515" lon="16.2033667"><ele>1086.3333333333333</ele><time>2026-04-12T08:32:19.883Z</time></trkpt><trkpt lat="39.1676367" lon="16.2033717"><ele>1086.1666666666667</ele><time>2026-04-12T08:32:20.883Z</time></trkpt><trkpt lat="39.1677167" lon="16.2033483"><ele>1086.0</ele><time>2026-04-12T08:32:21.882Z</time></trkpt><trkpt lat="39.1677867" lon="16.20332"><ele>1086.0</ele><time>2026-04-12T08:32:22.883Z</time></trkpt><trkpt lat="39.1678617" lon="16.2032783"><ele>1086.0</ele><time>2026-04-12T08:32:23.883Z</time></trkpt><trkpt lat="39.1679367" lon="16.2032217"><ele>1086.0</ele><time>2026-04-12T08:32:24.883Z</time></trkpt><trkpt lat="39.1680183" lon="16.20319"><ele>1086.0</ele><time>2026-04-12T08:32:25.883Z</time></trkpt><trkpt lat="39.1680883" lon="16.2031767"><ele>1086.0</ele><time>2026-04-12T08:32:26.883Z</time></trkpt><trkpt lat="39.1681633" lon="16.20317"><ele>1086.0</ele><time>2026-04-12T08:32:27.882Z</time></trkpt><trkpt lat="39.1682333" lon="16.2031833"><ele>1086.0</ele><time>2026-04-12T08:32:28.882Z</time></trkpt><trkpt lat="39.16831" lon="16.20321"><ele>1086.0</ele><time>2026-04-12T08:32:29.883Z</time></trkpt><trkpt lat="39.1683983" lon="16.2032633"><ele>1086.0</ele><time>2026-04-12T08:32:30.882Z</time></trkpt><trkpt lat="39.1685267" lon="16.203335"><ele>1086.0</ele><time>2026-04-12T08:32:31.883Z</time></trkpt><trkpt lat="39.1686167" lon="16.203375"><ele>1086.0</ele><time>2026-04-12T08:32:32.883Z</time></trkpt><trkpt lat="39.1686933" lon="16.2034183"><ele>1086.0</ele><time>2026-04-12T08:32:33.883Z</time></trkpt><trkpt lat="39.168775" lon="16.2034633"><ele>1086.0</ele><time>2026-04-12T08:32:34.882Z</time></trkpt><trkpt lat="39.1688433" lon="16.2035117"><ele>1086.0</ele><time>2026-04-12T08:32:35.882Z</time></trkpt><trkpt lat="39.1689" lon="16.2035633"><ele>1086.0</ele><time>2026-04-12T08:32:36.882Z</time></trkpt><trkpt lat="39.168965" lon="16.2036117"><ele>1086.0</ele><time>2026-04-12T08:32:37.883Z</time></trkpt><trkpt lat="39.1690167" lon="16.2036667"><ele>1086.0</ele><time>2026-04-12T08:32:38.883Z</time></trkpt><trkpt lat="39.169095" lon="16.2037683"><ele>1085.0</ele><time>2026-04-12T08:32:40.883Z</time></trkpt><trkpt lat="39.169135" lon="16.2038567"><ele>1084.0</ele><time>2026-04-12T08:32:42.883Z</time></trkpt><trkpt lat="39.16926" lon="16.2038383"><ele>1083.0</ele><time>2026-04-12T08:32:44.883Z</time></trkpt><trkpt lat="39.1693233" lon="16.20381"><ele>1082.0</ele><time>2026-04-12T08:32:45.883Z</time></trkpt><trkpt lat="39.16938" lon="16.2037533"><ele>1081.0</ele><time>2026-04-12T08:32:46.883Z</time></trkpt><trkpt lat="39.169425" lon="16.2036833"><ele>1080.0</ele><time>2026-04-12T08:32:47.883Z</time></trkpt><trkpt lat="39.1694517" lon="16.2036033"><ele>1080.0</ele><time>2026-04-12T08:32:48.883Z</time></trkpt><trkpt lat="39.1695067" lon="16.2035117"><ele>1080.0</ele><time>2026-04-12T08:32:49.883Z</time></trkpt><trkpt lat="39.169545" lon="16.2033267"><ele>1080.0</ele><time>2026-04-12T08:32:50.883Z</time></trkpt><trkpt lat="39.169595" lon="16.20321"><ele>1080.0</ele><time>2026-04-12T08:32:51.883Z</time></trkpt><trkpt lat="39.1696483" lon="16.2031333"><ele>1080.0</ele><time>2026-04-12T08:32:52.883Z</time></trkpt><trkpt lat="39.1697083" lon="16.203055"><ele>1078.2</ele><time>2026-04-12T08:32:53.883Z</time></trkpt><trkpt lat="39.169785" lon="16.202995"><ele>1076.4</ele><time>2026-04-12T08:32:54.883Z</time></trkpt><trkpt lat="39.1698983" lon="16.2029683"><ele>1074.6</ele><time>2026-04-12T08:32:55.883Z</time></trkpt><trkpt lat="39.1699883" lon="16.2029617"><ele>1072.8</ele><time>2026-04-12T08:32:56.883Z</time></trkpt><trkpt lat="39.1700667" lon="16.203045"><ele>1071.0</ele><time>2026-04-12T08:32:58.883Z</time></trkpt><trkpt lat="39.1700833" lon="16.20316"><ele>1073.0</ele><time>2026-04-12T08:32:59.883Z</time></trkpt><trkpt lat="39.1700567" lon="16.2033167"><ele>1075.0</ele><time>2026-04-12T08:33:00.883Z</time></trkpt><trkpt lat="39.17009" lon="16.203445"><ele>1077.0</ele><time>2026-04-12T08:33:01.883Z</time></trkpt><trkpt lat="39.1700883" lon="16.2036683"><ele>1079.0</ele><time>2026-04-12T08:33:02.883Z</time></trkpt><trkpt lat="39.1700867" lon="16.20382"><ele>1079.75</ele><time>2026-04-12T08:33:03.883Z</time></trkpt><trkpt lat="39.17005" lon="16.2039967"><ele>1080.5</ele><time>2026-04-12T08:33:04.883Z</time></trkpt><trkpt lat="39.1700533" lon="16.2041533"><ele>1081.25</ele><time>2026-04-12T08:33:05.883Z</time></trkpt><trkpt lat="39.1700483" lon="16.2042933"><ele>1082.0</ele><time>2026-04-12T08:33:06.883Z</time></trkpt><trkpt lat="39.1700833" lon="16.2044383"><ele>1082.0</ele><time>2026-04-12T08:33:07.882Z</time></trkpt><trkpt lat="39.1701117" lon="16.2045367"><ele>1082.0</ele><time>2026-04-12T08:33:08.883Z</time></trkpt><trkpt lat="39.1701683" lon="16.2046217"><ele>1082.0</ele><time>2026-04-12T08:33:10.883Z</time></trkpt><trkpt lat="39.170235" lon="16.204685"><ele>1082.0</ele><time>2026-04-12T08:33:12.883Z</time></trkpt><trkpt lat="39.1703667" lon="16.2046933"><ele>1082.0</ele><time>2026-04-12T08:33:14.883Z</time></trkpt><trkpt lat="39.1704567" lon="16.2046833"><ele>1082.0</ele><time>2026-04-12T08:33:15.883Z</time></trkpt><trkpt lat="39.1705717" lon="16.2046483"><ele>1082.0</ele><time>2026-04-12T08:33:16.883Z</time></trkpt><trkpt lat="39.1707533" lon="16.204605"><ele>1082.0</ele><time>2026-04-12T08:33:17.883Z</time></trkpt><trkpt lat="39.1708883" lon="16.2045883"><ele>1082.0</ele><time>2026-04-12T08:33:18.883Z</time></trkpt><trkpt lat="39.1709833" lon="16.2046117"><ele>1076.25</ele><time>2026-04-12T08:33:19.883Z</time></trkpt><trkpt lat="39.1710883" lon="16.2046233"><ele>1070.5</ele><time>2026-04-12T08:33:20.883Z</time></trkpt><trkpt lat="39.171195" lon="16.2046433"><ele>1064.75</ele><time>2026-04-12T08:33:21.883Z</time></trkpt><trkpt lat="39.1712933" lon="16.204655"><ele>1059.0</ele><time>2026-04-12T08:33:22.883Z</time></trkpt><trkpt lat="39.17143" lon="16.20469"><ele>1060.4</ele><time>2026-04-12T08:33:23.883Z</time></trkpt><trkpt lat="39.1715367" lon="16.20472"><ele>1061.8000000000002</ele><time>2026-04-12T08:33:24.883Z</time></trkpt><trkpt lat="39.1716333" lon="16.2047433"><ele>1063.1999999999998</ele><time>2026-04-12T08:33:25.883Z</time></trkpt><trkpt lat="39.1717283" lon="16.2047633"><ele>1064.6</ele><time>2026-04-12T08:33:26.883Z</time></trkpt><trkpt lat="39.1718233" lon="16.2047867"><ele>1066.0</ele><time>2026-04-12T08:33:27.882Z</time></trkpt><trkpt lat="39.1719117" lon="16.20497"><ele>1066.0</ele><time>2026-04-12T08:33:28.883Z</time></trkpt><trkpt lat="39.1719517" lon="16.2050767"><ele>1066.0</ele><time>2026-04-12T08:33:29.883Z</time></trkpt><trkpt lat="39.1719983" lon="16.205175"><ele>1066.0</ele><time>2026-04-12T08:33:30.883Z</time></trkpt><trkpt lat="39.17203" lon="16.205285"><ele>1066.0</ele><time>2026-04-12T08:33:31.882Z</time></trkpt><trkpt lat="39.1720333" lon="16.20538"><ele>1066.0</ele><time>2026-04-12T08:33:32.883Z</time></trkpt><trkpt lat="39.1720433" lon="16.2054717"><ele>1066.0</ele><time>2026-04-12T08:33:33.883Z</time></trkpt><trkpt lat="39.1720317" lon="16.2055667"><ele>1068.6</ele><time>2026-04-12T08:33:34.882Z</time></trkpt><trkpt lat="39.1719233" lon="16.205695"><ele>1071.1999999999998</ele><time>2026-04-12T08:33:35.883Z</time></trkpt><trkpt lat="39.1718883" lon="16.2057783"><ele>1073.8000000000002</ele><time>2026-04-12T08:33:36.882Z</time></trkpt><trkpt lat="39.171855" lon="16.2058533"><ele>1076.4</ele><time>2026-04-12T08:33:37.883Z</time></trkpt><trkpt lat="39.1718267" lon="16.2059533"><ele>1079.0</ele><time>2026-04-12T08:33:38.883Z</time></trkpt><trkpt lat="39.17181" lon="16.2060567"><ele>1079.0</ele><time>2026-04-12T08:33:39.882Z</time></trkpt><trkpt lat="39.1718283" lon="16.2061367"><ele>1079.0</ele><time>2026-04-12T08:33:40.882Z</time></trkpt><trkpt lat="39.17193" lon="16.206245"><ele>1079.0</ele><time>2026-04-12T08:33:42.882Z</time></trkpt><trkpt lat="39.172015" lon="16.206285"><ele>1079.0</ele><time>2026-04-12T08:33:43.883Z</time></trkpt><trkpt lat="39.1721583" lon="16.2062467"><ele>1079.0</ele><time>2026-04-12T08:33:44.883Z</time></trkpt><trkpt lat="39.1722433" lon="16.2062667"><ele>1079.0</ele><time>2026-04-12T08:33:45.883Z</time></trkpt><trkpt lat="39.1723483" lon="16.20629"><ele>1079.0</ele><time>2026-04-12T08:33:46.882Z</time></trkpt><trkpt lat="39.1724733" lon="16.20632"><ele>1079.0</ele><time>2026-04-12T08:33:47.883Z</time></trkpt><trkpt lat="39.1725867" lon="16.2063483"><ele>1079.0</ele><time>2026-04-12T08:33:48.883Z</time></trkpt><trkpt lat="39.1726967" lon="16.20638"><ele>1079.6000000000001</ele><time>2026-04-12T08:33:49.883Z</time></trkpt><trkpt lat="39.1728217" lon="16.2063633"><ele>1080.2</ele><time>2026-04-12T08:33:50.882Z</time></trkpt><trkpt lat="39.1729067" lon="16.2063983"><ele>1080.8000000000002</ele><time>2026-04-12T08:33:51.883Z</time></trkpt><trkpt lat="39.1729783" lon="16.2064483"><ele>1081.4</ele><time>2026-04-12T08:33:52.883Z</time></trkpt><trkpt lat="39.1730233" lon="16.2065517"><ele>1082.0</ele><time>2026-04-12T08:33:53.882Z</time></trkpt><trkpt lat="39.1730617" lon="16.206645"><ele>1082.0</ele><time>2026-04-12T08:33:54.883Z</time></trkpt><trkpt lat="39.1730667" lon="16.20676"><ele>1082.0</ele><time>2026-04-12T08:33:55.883Z</time></trkpt><trkpt lat="39.173105" lon="16.2068433"><ele>1082.0</ele><time>2026-04-12T08:33:56.883Z</time></trkpt><trkpt lat="39.1732033" lon="16.20696"><ele>1082.0</ele><time>2026-04-12T08:33:58.883Z</time></trkpt><trkpt lat="39.173275" lon="16.207"><ele>1082.0</ele><time>2026-04-12T08:33:59.883Z</time></trkpt><trkpt lat="39.1733383" lon="16.2070917"><ele>1079.2</ele><time>2026-04-12T08:34:00.882Z</time></trkpt><trkpt lat="39.1733983" lon="16.2071933"><ele>1076.4</ele><time>2026-04-12T08:34:01.883Z</time></trkpt><trkpt lat="39.173435" lon="16.2073017"><ele>1073.6</ele><time>2026-04-12T08:34:02.883Z</time></trkpt><trkpt lat="39.1734817" lon="16.2074133"><ele>1070.8</ele><time>2026-04-12T08:34:03.882Z</time></trkpt><trkpt lat="39.173515" lon="16.2075283"><ele>1068.0</ele><time>2026-04-12T08:34:04.883Z</time></trkpt><trkpt lat="39.17356" lon="16.2076233"><ele>1068.0</ele><time>2026-04-12T08:34:05.883Z</time></trkpt><trkpt lat="39.17362" lon="16.2077083"><ele>1068.0</ele><time>2026-04-12T08:34:06.883Z</time></trkpt><trkpt lat="39.1736783" lon="16.20778"><ele>1068.0</ele><time>2026-04-12T08:34:07.883Z</time></trkpt><trkpt lat="39.17373" lon="16.20785"><ele>1068.0</ele><time>2026-04-12T08:34:08.883Z</time></trkpt><trkpt lat="39.1737817" lon="16.2079"><ele>1068.0</ele><time>2026-04-12T08:34:09.883Z</time></trkpt><trkpt lat="39.1738983" lon="16.207915"><ele>1068.0</ele><time>2026-04-12T08:34:11.883Z</time></trkpt><trkpt lat="39.1740217" lon="16.207815"><ele>1067.1428571428573</ele><time>2026-04-12T08:34:13.883Z</time></trkpt><trkpt lat="39.1740833" lon="16.2077583"><ele>1066.2857142857142</ele><time>2026-04-12T08:34:14.882Z</time></trkpt><trkpt lat="39.1741417" lon="16.2076983"><ele>1065.4285714285716</ele><time>2026-04-12T08:34:15.883Z</time></trkpt><trkpt lat="39.17419" lon="16.2076317"><ele>1064.5714285714287</ele><time>2026-04-12T08:34:16.882Z</time></trkpt><trkpt lat="39.1742183" lon="16.2075517"><ele>1063.7142857142858</ele><time>2026-04-12T08:34:17.883Z</time></trkpt><trkpt lat="39.174215" lon="16.2074467"><ele>1062.857142857143</ele><time>2026-04-12T08:34:18.883Z</time></trkpt><trkpt lat="39.1742083" lon="16.2073467"><ele>1062.0</ele><time>2026-04-12T08:34:19.882Z</time></trkpt><trkpt lat="39.1742117" lon="16.207245"><ele>1062.0</ele><time>2026-04-12T08:34:20.883Z</time></trkpt><trkpt lat="39.1742367" lon="16.2071467"><ele>1062.0</ele><time>2026-04-12T08:34:21.883Z</time></trkpt><trkpt lat="39.1742617" lon="16.2070467"><ele>1062.0</ele><time>2026-04-12T08:34:22.883Z</time></trkpt><trkpt lat="39.1742483" lon="16.206915"><ele>1062.0</ele><time>2026-04-12T08:34:23.883Z</time></trkpt><trkpt lat="39.1742533" lon="16.20681"><ele>1062.0</ele><time>2026-04-12T08:34:24.883Z</time></trkpt><trkpt lat="39.1742267" lon="16.2067017"><ele>1062.0</ele><time>2026-04-12T08:34:25.883Z</time></trkpt><trkpt lat="39.1742033" lon="16.206585"><ele>1063.8</ele><time>2026-04-12T08:34:26.883Z</time></trkpt><trkpt lat="39.1741817" lon="16.2064567"><ele>1065.6</ele><time>2026-04-12T08:34:27.883Z</time></trkpt><trkpt lat="39.17416" lon="16.2063367"><ele>1067.3999999999999</ele><time>2026-04-12T08:34:28.883Z</time></trkpt><trkpt lat="39.1741383" lon="16.20621"><ele>1069.2</ele><time>2026-04-12T08:34:29.883Z</time></trkpt><trkpt lat="39.174105" lon="16.206065"><ele>1071.0</ele><time>2026-04-12T08:34:30.882Z</time></trkpt><trkpt lat="39.1740867" lon="16.2059467"><ele>1071.0</ele><time>2026-04-12T08:34:31.883Z</time></trkpt><trkpt lat="39.1740667" lon="16.2058217"><ele>1071.0</ele><time>2026-04-12T08:34:32.883Z</time></trkpt><trkpt lat="39.17405" lon="16.2057"><ele>1071.0</ele><time>2026-04-12T08:34:33.883Z</time></trkpt><trkpt lat="39.1740333" lon="16.205575"><ele>1071.0</ele><time>2026-04-12T08:34:34.883Z</time></trkpt><trkpt lat="39.1740233" lon="16.2054583"><ele>1071.0</ele><time>2026-04-12T08:34:35.883Z</time></trkpt><trkpt lat="39.1740067" lon="16.20534"><ele>1067.0</ele><time>2026-04-12T08:34:36.882Z</time></trkpt><trkpt lat="39.1739883" lon="16.2052217"><ele>1063.0</ele><time>2026-04-12T08:34:37.883Z</time></trkpt><trkpt lat="39.1739617" lon="16.2050983"><ele>1059.0</ele><time>2026-04-12T08:34:38.883Z</time></trkpt><trkpt lat="39.1739433" lon="16.2049817"><ele>1055.0</ele><time>2026-04-12T08:34:39.882Z</time></trkpt><trkpt lat="39.17394" lon="16.2048517"><ele>1051.0</ele><time>2026-04-12T08:34:40.883Z</time></trkpt><trkpt lat="39.17394" lon="16.2047217"><ele>1051.0</ele><time>2026-04-12T08:34:41.882Z</time></trkpt><trkpt lat="39.173935" lon="16.2046"><ele>1051.0</ele><time>2026-04-12T08:34:42.883Z</time></trkpt><trkpt lat="39.1739417" lon="16.2044667"><ele>1051.0</ele><time>2026-04-12T08:34:43.883Z</time></trkpt><trkpt lat="39.173965" lon="16.2043133"><ele>1051.0</ele><time>2026-04-12T08:34:44.883Z</time></trkpt><trkpt lat="39.17398" lon="16.204175"><ele>1051.0</ele><time>2026-04-12T08:34:45.882Z</time></trkpt><trkpt lat="39.1739817" lon="16.204015"><ele>1054.2</ele><time>2026-04-12T08:34:46.882Z</time></trkpt><trkpt lat="39.1739883" lon="16.2038767"><ele>1057.3999999999999</ele><time>2026-04-12T08:34:47.882Z</time></trkpt><trkpt lat="39.17399" lon="16.2037833"><ele>1060.6</ele><time>2026-04-12T08:34:48.883Z</time></trkpt><trkpt lat="39.1739883" lon="16.20369"><ele>1063.8</ele><time>2026-04-12T08:34:49.882Z</time></trkpt><trkpt lat="39.1739567" lon="16.20358"><ele>1067.0</ele><time>2026-04-12T08:34:50.883Z</time></trkpt><trkpt lat="39.1739067" lon="16.2034567"><ele>1067.0</ele><time>2026-04-12T08:34:51.883Z</time></trkpt><trkpt lat="39.17386" lon="16.2033467"><ele>1067.0</ele><time>2026-04-12T08:34:52.882Z</time></trkpt><trkpt lat="39.1738517" lon="16.20323"><ele>1067.0</ele><time>2026-04-12T08:34:53.883Z</time></trkpt><trkpt lat="39.1738267" lon="16.2031117"><ele>1067.0</ele><time>2026-04-12T08:34:54.883Z</time></trkpt><trkpt lat="39.1737967" lon="16.203005"><ele>1067.0</ele><time>2026-04-12T08:34:55.882Z</time></trkpt><trkpt lat="39.1737683" lon="16.2029017"><ele>1067.0</ele><time>2026-04-12T08:34:56.883Z</time></trkpt><trkpt lat="39.1737383" lon="16.2027917"><ele>1067.0</ele><time>2026-04-12T08:34:57.882Z</time></trkpt><trkpt lat="39.1737167" lon="16.2026883"><ele>1067.0</ele><time>2026-04-12T08:34:58.883Z</time></trkpt><trkpt lat="39.1737283" lon="16.202565"><ele>1067.0</ele><time>2026-04-12T08:34:59.883Z</time></trkpt><trkpt lat="39.1737383" lon="16.2024433"><ele>1067.0</ele><time>2026-04-12T08:35:00.882Z</time></trkpt><trkpt lat="39.173745" lon="16.2023417"><ele>1067.0</ele><time>2026-04-12T08:35:01.882Z</time></trkpt><trkpt lat="39.1737533" lon="16.202215"><ele>1065.0</ele><time>2026-04-12T08:35:02.883Z</time></trkpt><trkpt lat="39.1737517" lon="16.2020867"><ele>1063.0</ele><time>2026-04-12T08:35:03.883Z</time></trkpt><trkpt lat="39.1737417" lon="16.201955"><ele>1061.0</ele><time>2026-04-12T08:35:04.882Z</time></trkpt><trkpt lat="39.173725" lon="16.201825"><ele>1059.0</ele><time>2026-04-12T08:35:05.882Z</time></trkpt><trkpt lat="39.1737017" lon="16.2017017"><ele>1057.0</ele><time>2026-04-12T08:35:06.882Z</time></trkpt><trkpt lat="39.1736917" lon="16.201565"><ele>1057.6</ele><time>2026-04-12T08:35:07.883Z</time></trkpt><trkpt lat="39.17368" lon="16.2014467"><ele>1058.2</ele><time>2026-04-12T08:35:08.883Z</time></trkpt><trkpt lat="39.1736917" lon="16.2013233"><ele>1058.8</ele><time>2026-04-12T08:35:09.883Z</time></trkpt><trkpt lat="39.1737133" lon="16.20117"><ele>1059.4</ele><time>2026-04-12T08:35:10.883Z</time></trkpt><trkpt lat="39.173715" lon="16.2010517"><ele>1060.0</ele><time>2026-04-12T08:35:11.883Z</time></trkpt><trkpt lat="39.1737183" lon="16.200935"><ele>1060.0</ele><time>2026-04-12T08:35:12.882Z</time></trkpt><trkpt lat="39.1736783" lon="16.2007783"><ele>1060.0</ele><time>2026-04-12T08:35:14.882Z</time></trkpt><trkpt lat="39.1736517" lon="16.2007033"><ele>1060.0</ele><time>2026-04-12T08:35:15.883Z</time></trkpt><trkpt lat="39.1735883" lon="16.2005183"><ele>1060.0</ele><time>2026-04-12T08:35:17.883Z</time></trkpt><trkpt lat="39.1735483" lon="16.2003983"><ele>1060.4</ele><time>2026-04-12T08:35:18.883Z</time></trkpt><trkpt lat="39.1735067" lon="16.200295"><ele>1060.8</ele><time>2026-04-12T08:35:19.882Z</time></trkpt><trkpt lat="39.1734783" lon="16.2001767"><ele>1061.2</ele><time>2026-04-12T08:35:20.883Z</time></trkpt><trkpt lat="39.1734483" lon="16.20006"><ele>1061.6</ele><time>2026-04-12T08:35:21.883Z</time></trkpt><trkpt lat="39.1734333" lon="16.199935"><ele>1062.0</ele><time>2026-04-12T08:35:22.883Z</time></trkpt><trkpt lat="39.173445" lon="16.199795"><ele>1062.25</ele><time>2026-04-12T08:35:23.883Z</time></trkpt><trkpt lat="39.17348" lon="16.1996783"><ele>1062.5</ele><time>2026-04-12T08:35:24.883Z</time></trkpt><trkpt lat="39.1736083" lon="16.1995483"><ele>1062.75</ele><time>2026-04-12T08:35:25.882Z</time></trkpt><trkpt lat="39.17366" lon="16.199425"><ele>1063.0</ele><time>2026-04-12T08:35:26.883Z</time></trkpt><trkpt lat="39.17372" lon="16.199325"><ele>1063.0</ele><time>2026-04-12T08:35:27.883Z</time></trkpt><trkpt lat="39.1737783" lon="16.199185"><ele>1063.0</ele><time>2026-04-12T08:35:28.883Z</time></trkpt><trkpt lat="39.1738333" lon="16.199055"><ele>1063.0</ele><time>2026-04-12T08:35:29.883Z</time></trkpt><trkpt lat="39.17389" lon="16.198945"><ele>1063.0</ele><time>2026-04-12T08:35:30.882Z</time></trkpt><trkpt lat="39.1739467" lon="16.1988233"><ele>1061.4</ele><time>2026-04-12T08:35:31.883Z</time></trkpt><trkpt lat="39.1740333" lon="16.1987283"><ele>1059.8</ele><time>2026-04-12T08:35:32.883Z</time></trkpt><trkpt lat="39.1741067" lon="16.198645"><ele>1058.2</ele><time>2026-04-12T08:35:33.883Z</time></trkpt><trkpt lat="39.1741833" lon="16.19856"><ele>1056.6</ele><time>2026-04-12T08:35:34.883Z</time></trkpt><trkpt lat="39.1742583" lon="16.1984583"><ele>1055.0</ele><time>2026-04-12T08:35:35.883Z</time></trkpt><trkpt lat="39.174295" lon="16.1983717"><ele>1055.0</ele><time>2026-04-12T08:35:36.882Z</time></trkpt><trkpt lat="39.174365" lon="16.198225"><ele>1055.0</ele><time>2026-04-12T08:35:38.883Z</time></trkpt><trkpt lat="39.17441" lon="16.1981383"><ele>1055.0</ele><time>2026-04-12T08:35:39.883Z</time></trkpt><trkpt lat="39.1744583" lon="16.1980583"><ele>1055.0</ele><time>2026-04-12T08:35:40.883Z</time></trkpt><trkpt lat="39.17454" lon="16.1980717"><ele>1055.0</ele><time>2026-04-12T08:35:41.882Z</time></trkpt><trkpt lat="39.1746283" lon="16.1981417"><ele>1055.0</ele><time>2026-04-12T08:35:42.883Z</time></trkpt><trkpt lat="39.174675" lon="16.1982783"><ele>1055.0</ele><time>2026-04-12T08:35:43.882Z</time></trkpt><trkpt lat="39.1747017" lon="16.1984017"><ele>1055.0</ele><time>2026-04-12T08:35:44.883Z</time></trkpt><trkpt lat="39.17477" lon="16.1985033"><ele>1055.0</ele><time>2026-04-12T08:35:45.882Z</time></trkpt><trkpt lat="39.1748333" lon="16.19858"><ele>1055.0</ele><time>2026-04-12T08:35:46.883Z</time></trkpt><trkpt lat="39.174905" lon="16.1986433"><ele>1053.1666666666667</ele><time>2026-04-12T08:35:47.883Z</time></trkpt><trkpt lat="39.1749767" lon="16.198685"><ele>1051.3333333333335</ele><time>2026-04-12T08:35:48.882Z</time></trkpt><trkpt lat="39.1750417" lon="16.1987117"><ele>1049.5</ele><time>2026-04-12T08:35:49.882Z</time></trkpt><trkpt lat="39.1751217" lon="16.1987217"><ele>1047.6666666666667</ele><time>2026-04-12T08:35:50.882Z</time></trkpt><trkpt lat="39.1752017" lon="16.1987383"><ele>1045.8333333333333</ele><time>2026-04-12T08:35:51.883Z</time></trkpt><trkpt lat="39.175295" lon="16.1987817"><ele>1044.0</ele><time>2026-04-12T08:35:52.883Z</time></trkpt><trkpt lat="39.17538" lon="16.19876"><ele>1044.0</ele><time>2026-04-12T08:35:53.882Z</time></trkpt><trkpt lat="39.1754417" lon="16.198705"><ele>1044.0</ele><time>2026-04-12T08:35:54.883Z</time></trkpt><trkpt lat="39.1754983" lon="16.1986583"><ele>1044.0</ele><time>2026-04-12T08:35:55.882Z</time></trkpt><trkpt lat="39.1755617" lon="16.1986233"><ele>1044.0</ele><time>2026-04-12T08:35:56.883Z</time></trkpt><trkpt lat="39.1756917" lon="16.198595"><ele>1044.0</ele><time>2026-04-12T08:35:58.883Z</time></trkpt><trkpt lat="39.1757533" lon="16.1986183"><ele>1044.0</ele><time>2026-04-12T08:35:59.883Z</time></trkpt><trkpt lat="39.1758133" lon="16.1986817"><ele>1042.0</ele><time>2026-04-12T08:36:00.882Z</time></trkpt><trkpt lat="39.1758983" lon="16.1987517"><ele>1040.0</ele><time>2026-04-12T08:36:01.883Z</time></trkpt><trkpt lat="39.1759833" lon="16.1988083"><ele>1038.0</ele><time>2026-04-12T08:36:02.883Z</time></trkpt><trkpt lat="39.1760783" lon="16.198875"><ele>1036.0</ele><time>2026-04-12T08:36:03.883Z</time></trkpt><trkpt lat="39.1761767" lon="16.1989417"><ele>1034.0</ele><time>2026-04-12T08:36:04.883Z</time></trkpt><trkpt lat="39.1762767" lon="16.19899"><ele>1034.2</ele><time>2026-04-12T08:36:05.882Z</time></trkpt><trkpt lat="39.1763717" lon="16.1990267"><ele>1034.4</ele><time>2026-04-12T08:36:06.883Z</time></trkpt><trkpt lat="39.1764717" lon="16.1990667"><ele>1034.6</ele><time>2026-04-12T08:36:07.883Z</time></trkpt><trkpt lat="39.1765633" lon="16.1991117"><ele>1034.8</ele><time>2026-04-12T08:36:08.883Z</time></trkpt><trkpt lat="39.1766567" lon="16.1991767"><ele>1035.0</ele><time>2026-04-12T08:36:09.883Z</time></trkpt><trkpt lat="39.1767267" lon="16.1992333"><ele>1034.6</ele><time>2026-04-12T08:36:10.883Z</time></trkpt><trkpt lat="39.1768017" lon="16.1992883"><ele>1034.2</ele><time>2026-04-12T08:36:11.883Z</time></trkpt><trkpt lat="39.176885" lon="16.199355"><ele>1033.8</ele><time>2026-04-12T08:36:12.883Z</time></trkpt><trkpt lat="39.1769617" lon="16.1994617"><ele>1033.4</ele><time>2026-04-12T08:36:13.883Z</time></trkpt><trkpt lat="39.1770417" lon="16.19956"><ele>1033.0</ele><time>2026-04-12T08:36:14.883Z</time></trkpt><trkpt lat="39.1771167" lon="16.1997333"><ele>1033.25</ele><time>2026-04-12T08:36:15.883Z</time></trkpt><trkpt lat="39.177205" lon="16.1998783"><ele>1033.5</ele><time>2026-04-12T08:36:16.883Z</time></trkpt><trkpt lat="39.1772817" lon="16.200015"><ele>1033.75</ele><time>2026-04-12T08:36:17.883Z</time></trkpt><trkpt lat="39.177345" lon="16.200135"><ele>1034.0</ele><time>2026-04-12T08:36:18.882Z</time></trkpt><trkpt lat="39.1773917" lon="16.2002433"><ele>1033.2</ele><time>2026-04-12T08:36:19.883Z</time></trkpt><trkpt lat="39.1774467" lon="16.2003417"><ele>1032.4</ele><time>2026-04-12T08:36:20.883Z</time></trkpt><trkpt lat="39.1775033" lon="16.200435"><ele>1031.6</ele><time>2026-04-12T08:36:21.882Z</time></trkpt><trkpt lat="39.1775817" lon="16.2004983"><ele>1030.8</ele><time>2026-04-12T08:36:22.882Z</time></trkpt><trkpt lat="39.17767" lon="16.20054"><ele>1030.0</ele><time>2026-04-12T08:36:23.882Z</time></trkpt><trkpt lat="39.177765" lon="16.20049"><ele>1030.0</ele><time>2026-04-12T08:36:24.882Z</time></trkpt><trkpt lat="39.17787" lon="16.20045"><ele>1030.0</ele><time>2026-04-12T08:36:25.883Z</time></trkpt><trkpt lat="39.17797" lon="16.2004317"><ele>1030.0</ele><time>2026-04-12T08:36:26.883Z</time></trkpt><trkpt lat="39.178075" lon="16.2004283"><ele>1030.0</ele><time>2026-04-12T08:36:27.883Z</time></trkpt><trkpt lat="39.1781783" lon="16.2004383"><ele>1030.0</ele><time>2026-04-12T08:36:28.883Z</time></trkpt><trkpt lat="39.1782817" lon="16.2004583"><ele>1031.4</ele><time>2026-04-12T08:36:29.883Z</time></trkpt><trkpt lat="39.1783767" lon="16.2004717"><ele>1032.8</ele><time>2026-04-12T08:36:30.883Z</time></trkpt><trkpt lat="39.1784733" lon="16.2004867"><ele>1034.2</ele><time>2026-04-12T08:36:31.883Z</time></trkpt><trkpt lat="39.1785817" lon="16.200535"><ele>1035.6</ele><time>2026-04-12T08:36:32.883Z</time></trkpt><trkpt lat="39.1786833" lon="16.2005433"><ele>1037.0</ele><time>2026-04-12T08:36:33.883Z</time></trkpt><trkpt lat="39.1787683" lon="16.2005483"><ele>1037.0</ele><time>2026-04-12T08:36:34.883Z</time></trkpt><trkpt lat="39.178885" lon="16.200575"><ele>1037.0</ele><time>2026-04-12T08:36:35.883Z</time></trkpt><trkpt lat="39.1790067" lon="16.200595"><ele>1037.0</ele><time>2026-04-12T08:36:36.883Z</time></trkpt><trkpt lat="39.1791217" lon="16.2006183"><ele>1037.0</ele><time>2026-04-12T08:36:37.882Z</time></trkpt><trkpt lat="39.1792283" lon="16.2006383"><ele>1037.75</ele><time>2026-04-12T08:36:38.883Z</time></trkpt><trkpt lat="39.1793367" lon="16.2006717"><ele>1038.5</ele><time>2026-04-12T08:36:39.883Z</time></trkpt><trkpt lat="39.1794467" lon="16.2007033"><ele>1039.25</ele><time>2026-04-12T08:36:40.883Z</time></trkpt><trkpt lat="39.1795583" lon="16.20073"><ele>1040.0</ele><time>2026-04-12T08:36:41.883Z</time></trkpt><trkpt lat="39.17968" lon="16.2007317"><ele>1040.0</ele><time>2026-04-12T08:36:42.883Z</time></trkpt><trkpt lat="39.1797967" lon="16.2007367"><ele>1040.0</ele><time>2026-04-12T08:36:43.883Z</time></trkpt><trkpt lat="39.1799117" lon="16.200725"><ele>1040.0</ele><time>2026-04-12T08:36:44.882Z</time></trkpt><trkpt lat="39.1800267" lon="16.2007"><ele>1040.0</ele><time>2026-04-12T08:36:45.883Z</time></trkpt><trkpt lat="39.180125" lon="16.20065"><ele>1038.8</ele><time>2026-04-12T08:36:46.883Z</time></trkpt><trkpt lat="39.1802283" lon="16.2005933"><ele>1037.6</ele><time>2026-04-12T08:36:47.883Z</time></trkpt><trkpt lat="39.1803183" lon="16.2005483"><ele>1036.4</ele><time>2026-04-12T08:36:48.883Z</time></trkpt><trkpt lat="39.18041" lon="16.2005067"><ele>1035.2</ele><time>2026-04-12T08:36:49.883Z</time></trkpt><trkpt lat="39.180475" lon="16.2004483"><ele>1034.0</ele><time>2026-04-12T08:36:50.883Z</time></trkpt><trkpt lat="39.180535" lon="16.2004083"><ele>1034.0</ele><time>2026-04-12T08:36:51.883Z</time></trkpt><trkpt lat="39.1806033" lon="16.2003667"><ele>1034.0</ele><time>2026-04-12T08:36:52.883Z</time></trkpt><trkpt lat="39.1806767" lon="16.2003283"><ele>1034.0</ele><time>2026-04-12T08:36:53.883Z</time></trkpt><trkpt lat="39.18074" lon="16.2002867"><ele>1034.0</ele><time>2026-04-12T08:36:54.883Z</time></trkpt><trkpt lat="39.180815" lon="16.2002467"><ele>1034.0</ele><time>2026-04-12T08:36:55.883Z</time></trkpt><trkpt lat="39.1809" lon="16.2001983"><ele>1034.0</ele><time>2026-04-12T08:36:56.883Z</time></trkpt><trkpt lat="39.181005" lon="16.200165"><ele>1035.5</ele><time>2026-04-12T08:36:57.882Z</time></trkpt><trkpt lat="39.1811" lon="16.2001167"><ele>1037.0</ele><time>2026-04-12T08:36:58.883Z</time></trkpt><trkpt lat="39.1811883" lon="16.20007"><ele>1038.5</ele><time>2026-04-12T08:36:59.882Z</time></trkpt><trkpt lat="39.1813017" lon="16.2000333"><ele>1040.0</ele><time>2026-04-12T08:37:00.882Z</time></trkpt><trkpt lat="39.1814383" lon="16.200055"><ele>1039.4</ele><time>2026-04-12T08:37:01.883Z</time></trkpt><trkpt lat="39.181565" lon="16.2000583"><ele>1038.8</ele><time>2026-04-12T08:37:02.882Z</time></trkpt><trkpt lat="39.1816633" lon="16.200075"><ele>1038.2</ele><time>2026-04-12T08:37:03.882Z</time></trkpt><trkpt lat="39.181745" lon="16.2000883"><ele>1037.6</ele><time>2026-04-12T08:37:04.883Z</time></trkpt><trkpt lat="39.1818217" lon="16.20012"><ele>1037.0</ele><time>2026-04-12T08:37:05.883Z</time></trkpt><trkpt lat="39.1818783" lon="16.2001633"><ele>1037.0</ele><time>2026-04-12T08:37:06.883Z</time></trkpt><trkpt lat="39.1819883" lon="16.200235"><ele>1037.0</ele><time>2026-04-12T08:37:08.882Z</time></trkpt><trkpt lat="39.18205" lon="16.20026"><ele>1037.0</ele><time>2026-04-12T08:37:09.882Z</time></trkpt><trkpt lat="39.1820017" lon="16.200395"><ele>1037.0</ele><time>2026-04-12T08:38:32.883Z</time></trkpt><trkpt lat="39.182045" lon="16.2004633"><ele>1037.0</ele><time>2026-04-12T08:38:34.882Z</time></trkpt><trkpt lat="39.18208" lon="16.2005383"><ele>1037.0</ele><time>2026-04-12T08:38:35.883Z</time></trkpt><trkpt lat="39.1821167" lon="16.2006167"><ele>1037.5</ele><time>2026-04-12T08:38:36.882Z</time></trkpt><trkpt lat="39.1821683" lon="16.2006767"><ele>1038.0</ele><time>2026-04-12T08:38:37.883Z</time></trkpt><trkpt lat="39.1822333" lon="16.20073"><ele>1038.5</ele><time>2026-04-12T08:38:38.883Z</time></trkpt><trkpt lat="39.18229" lon="16.2007967"><ele>1039.0</ele><time>2026-04-12T08:38:39.883Z</time></trkpt><trkpt lat="39.1823433" lon="16.2008483"><ele>1039.5</ele><time>2026-04-12T08:38:40.882Z</time></trkpt><trkpt lat="39.1824083" lon="16.2009417"><ele>1040.0</ele><time>2026-04-12T08:38:42.883Z</time></trkpt><trkpt lat="39.1824483" lon="16.20102"><ele>1038.8</ele><time>2026-04-12T08:39:34.882Z</time></trkpt><trkpt lat="39.1825583" lon="16.2010917"><ele>1037.6</ele><time>2026-04-12T08:39:36.883Z</time></trkpt><trkpt lat="39.182625" lon="16.2011383"><ele>1036.4</ele><time>2026-04-12T08:39:37.882Z</time></trkpt><trkpt lat="39.18271" lon="16.2011667"><ele>1035.2</ele><time>2026-04-12T08:39:38.882Z</time></trkpt><trkpt lat="39.1828033" lon="16.201205"><ele>1034.0</ele><time>2026-04-12T08:39:39.883Z</time></trkpt><trkpt lat="39.1829233" lon="16.2012267"><ele>1034.0</ele><time>2026-04-12T08:39:40.883Z</time></trkpt><trkpt lat="39.183055" lon="16.2012083"><ele>1034.0</ele><time>2026-04-12T08:39:41.883Z</time></trkpt><trkpt lat="39.1831633" lon="16.20122"><ele>1034.0</ele><time>2026-04-12T08:39:42.882Z</time></trkpt><trkpt lat="39.1832567" lon="16.201235"><ele>1034.0</ele><time>2026-04-12T08:39:43.882Z</time></trkpt><trkpt lat="39.18336" lon="16.2012567"><ele>1034.0</ele><time>2026-04-12T08:39:44.882Z</time></trkpt><trkpt lat="39.1834567" lon="16.2012817"><ele>1033.0</ele><time>2026-04-12T08:39:45.883Z</time></trkpt><trkpt lat="39.18354" lon="16.2013067"><ele>1032.0</ele><time>2026-04-12T08:39:46.883Z</time></trkpt><trkpt lat="39.1836233" lon="16.2013383"><ele>1031.0</ele><time>2026-04-12T08:39:47.883Z</time></trkpt><trkpt lat="39.1837067" lon="16.2013733"><ele>1030.0</ele><time>2026-04-12T08:39:48.883Z</time></trkpt><trkpt lat="39.1837933" lon="16.2013967"><ele>1029.0</ele><time>2026-04-12T08:39:49.883Z</time></trkpt><trkpt lat="39.1838767" lon="16.2014317"><ele>1028.0</ele><time>2026-04-12T08:39:50.882Z</time></trkpt><trkpt lat="39.1840283" lon="16.2014633"><ele>1026.0</ele><time>2026-04-12T08:39:52.883Z</time></trkpt><trkpt lat="39.1843067" lon="16.2014617"><ele>1024.0</ele><time>2026-04-12T08:39:56.882Z</time></trkpt><trkpt lat="39.1843767" lon="16.2013967"><ele>1022.0</ele><time>2026-04-12T08:39:57.883Z</time></trkpt><trkpt lat="39.1844517" lon="16.2012783"><ele>1022.0000000000001</ele><time>2026-04-12T08:39:58.883Z</time></trkpt><trkpt lat="39.18452" lon="16.2012583"><ele>1022.0</ele><time>2026-04-12T08:39:59.882Z</time></trkpt><trkpt lat="39.184575" lon="16.2011883"><ele>1022.0</ele><time>2026-04-12T08:40:00.882Z</time></trkpt><trkpt lat="39.1846117" lon="16.201095"><ele>1022.0</ele><time>2026-04-12T08:40:01.882Z</time></trkpt><trkpt lat="39.1846283" lon="16.200975"><ele>1022.0000000000001</ele><time>2026-04-12T08:40:02.883Z</time></trkpt><trkpt lat="39.184645" lon="16.2008533"><ele>1022.0</ele><time>2026-04-12T08:40:03.883Z</time></trkpt><trkpt lat="39.1846433" lon="16.20071"><ele>1022.0</ele><time>2026-04-12T08:40:04.883Z</time></trkpt><trkpt lat="39.184425" lon="16.1999717"><ele>1019.0</ele><time>2026-04-12T08:40:05.882Z</time></trkpt><trkpt lat="39.1844867" lon="16.1995067"><ele>1016.0</ele><time>2026-04-12T08:40:06.883Z</time></trkpt><trkpt lat="39.1845" lon="16.199285"><ele>1016.0</ele><time>2026-04-12T08:40:07.882Z</time></trkpt><trkpt lat="39.1845" lon="16.1991167"><ele>1016.0</ele><time>2026-04-12T08:40:08.882Z</time></trkpt><trkpt lat="39.1844533" lon="16.19899"><ele>1016.0</ele><time>2026-04-12T08:40:09.882Z</time></trkpt><trkpt lat="39.18442" lon="16.1988717"><ele>1016.0</ele><time>2026-04-12T08:40:10.882Z</time></trkpt><trkpt lat="39.1844867" lon="16.198735"><ele>1016.0</ele><time>2026-04-12T08:40:11.882Z</time></trkpt><trkpt lat="39.1845417" lon="16.1985667"><ele>1016.0</ele><time>2026-04-12T08:40:12.883Z</time></trkpt><trkpt lat="39.1845233" lon="16.19842"><ele>1016.0</ele><time>2026-04-12T08:40:13.882Z</time></trkpt><trkpt lat="39.184555" lon="16.198275"><ele>1016.0</ele><time>2026-04-12T08:40:14.882Z</time></trkpt><trkpt lat="39.1845933" lon="16.19816"><ele>1016.0</ele><time>2026-04-12T08:40:15.883Z</time></trkpt><trkpt lat="39.1846417" lon="16.1980483"><ele>1015.9999999999999</ele><time>2026-04-12T08:40:16.882Z</time></trkpt><trkpt lat="39.184665" lon="16.19792"><ele>1015.9999999999999</ele><time>2026-04-12T08:40:17.882Z</time></trkpt><trkpt lat="39.18468" lon="16.1978033"><ele>1016.0</ele><time>2026-04-12T08:40:18.883Z</time></trkpt><trkpt lat="39.1847083" lon="16.197655"><ele>1016.0</ele><time>2026-04-12T08:40:19.883Z</time></trkpt><trkpt lat="39.1847367" lon="16.197505"><ele>1016.0</ele><time>2026-04-12T08:40:20.883Z</time></trkpt><trkpt lat="39.18477" lon="16.1973517"><ele>1015.9999999999999</ele><time>2026-04-12T08:40:21.883Z</time></trkpt><trkpt lat="39.184805" lon="16.197215"><ele>1015.9999999999999</ele><time>2026-04-12T08:40:22.883Z</time></trkpt><trkpt lat="39.1848417" lon="16.197115"><ele>1016.0</ele><time>2026-04-12T08:40:23.883Z</time></trkpt><trkpt lat="39.18489" lon="16.1970183"><ele>1016.0</ele><time>2026-04-12T08:40:24.883Z</time></trkpt><trkpt lat="39.1849333" lon="16.1968867"><ele>1015.1999999999999</ele><time>2026-04-12T08:40:25.883Z</time></trkpt><trkpt lat="39.18498" lon="16.19676"><ele>1014.3999999999999</ele><time>2026-04-12T08:40:26.882Z</time></trkpt><trkpt lat="39.1850267" lon="16.1966483"><ele>1013.6</ele><time>2026-04-12T08:40:27.883Z</time></trkpt><trkpt lat="39.1850717" lon="16.19656"><ele>1012.8</ele><time>2026-04-12T08:40:28.883Z</time></trkpt><trkpt lat="39.185115" lon="16.1964967"><ele>1012.0</ele><time>2026-04-12T08:40:29.883Z</time></trkpt><trkpt lat="39.1852133" lon="16.1963717"><ele>1012.0</ele><time>2026-04-12T08:40:31.883Z</time></trkpt><trkpt lat="39.18527" lon="16.1963"><ele>1012.0</ele><time>2026-04-12T08:40:32.883Z</time></trkpt><trkpt lat="39.1853267" lon="16.1962317"><ele>1012.0</ele><time>2026-04-12T08:40:33.882Z</time></trkpt><trkpt lat="39.185395" lon="16.1961567"><ele>1012.0</ele><time>2026-04-12T08:40:34.883Z</time></trkpt><trkpt lat="39.18552" lon="16.1960867"><ele>1012.0</ele><time>2026-04-12T08:40:36.883Z</time></trkpt><trkpt lat="39.1856217" lon="16.196055"><ele>1012.6666666666666</ele><time>2026-04-12T08:40:37.883Z</time></trkpt><trkpt lat="39.1857" lon="16.1959933"><ele>1013.3333333333333</ele><time>2026-04-12T08:40:38.883Z</time></trkpt><trkpt lat="39.1857683" lon="16.1959333"><ele>1014.0</ele><time>2026-04-12T08:40:39.882Z</time></trkpt><trkpt lat="39.1858383" lon="16.1958717"><ele>1014.6666666666667</ele><time>2026-04-12T08:40:40.882Z</time></trkpt><trkpt lat="39.1859117" lon="16.1958133"><ele>1015.3333333333334</ele><time>2026-04-12T08:40:41.883Z</time></trkpt><trkpt lat="39.185985" lon="16.1957567"><ele>1016.0</ele><time>2026-04-12T08:40:42.883Z</time></trkpt><trkpt lat="39.1860583" lon="16.1957017"><ele>1016.0</ele><time>2026-04-12T08:40:43.883Z</time></trkpt><trkpt lat="39.1861317" lon="16.19565"><ele>1021.0</ele><time>2026-04-12T08:40:44.883Z</time></trkpt><trkpt lat="39.1862033" lon="16.1956017"><ele>1021.0</ele><time>2026-04-12T08:40:45.883Z</time></trkpt></trkseg><trkseg><trkpt lat="39.189895" lon="16.2030033"><ele>1025.0</ele><time>2026-04-12T08:41:24.881Z</time></trkpt><trkpt lat="39.189975" lon="16.2030733"><ele>1025.0</ele><time>2026-04-12T08:41:25.882Z</time></trkpt><trkpt lat="39.190085" lon="16.203115"><ele>1025.0</ele><time>2026-04-12T08:41:27.882Z</time></trkpt><trkpt lat="39.1901483" lon="16.2030983"><ele>1025.0</ele><time>2026-04-12T08:41:29.882Z</time></trkpt><trkpt lat="39.1901533" lon="16.2029483"><ele>1025.0</ele><time>2026-04-12T08:41:31.882Z</time></trkpt><trkpt lat="39.19016" lon="16.20282"><ele>1025.0</ele><time>2026-04-12T08:41:32.882Z</time></trkpt><trkpt lat="39.19017" lon="16.202685"><ele>1025.0</ele><time>2026-04-12T08:41:33.881Z</time></trkpt><trkpt lat="39.19019" lon="16.2025367"><ele>1025.0</ele><time>2026-04-12T08:41:34.882Z</time></trkpt><trkpt lat="39.1902217" lon="16.202395"><ele>1025.0</ele><time>2026-04-12T08:41:35.881Z</time></trkpt><trkpt lat="39.1902633" lon="16.2022533"><ele>1025.6</ele><time>2026-04-12T08:41:36.881Z</time></trkpt><trkpt lat="39.190295" lon="16.202115"><ele>1026.2</ele><time>2026-04-12T08:41:37.881Z</time></trkpt><trkpt lat="39.1903233" lon="16.2019833"><ele>1026.8</ele><time>2026-04-12T08:41:38.882Z</time></trkpt><trkpt lat="39.1903617" lon="16.201855"><ele>1027.4</ele><time>2026-04-12T08:41:39.882Z</time></trkpt><trkpt lat="39.1904033" lon="16.2017183"><ele>1028.0</ele><time>2026-04-12T08:41:40.882Z</time></trkpt><trkpt lat="39.1904433" lon="16.2015867"><ele>1029.5</ele><time>2026-04-12T08:41:41.882Z</time></trkpt><trkpt lat="39.1904867" lon="16.2014367"><ele>1031.0</ele><time>2026-04-12T08:41:42.882Z</time></trkpt><trkpt lat="39.19054" lon="16.2012517"><ele>1032.5</ele><time>2026-04-12T08:41:43.882Z</time></trkpt><trkpt lat="39.1906067" lon="16.2010867"><ele>1034.0</ele><time>2026-04-12T08:41:44.882Z</time></trkpt><trkpt lat="39.19066" lon="16.20095"><ele>1034.75</ele><time>2026-04-12T08:41:45.882Z</time></trkpt><trkpt lat="39.1907217" lon="16.2008117"><ele>1035.5</ele><time>2026-04-12T08:41:46.882Z</time></trkpt><trkpt lat="39.1908083" lon="16.200655"><ele>1036.25</ele><time>2026-04-12T08:41:47.882Z</time></trkpt><trkpt lat="39.1909033" lon="16.2004867"><ele>1037.0</ele><time>2026-04-12T08:41:48.882Z</time></trkpt><trkpt lat="39.190975" lon="16.200345"><ele>1037.25</ele><time>2026-04-12T08:41:49.881Z</time></trkpt><trkpt lat="39.1910417" lon="16.200185"><ele>1037.5</ele><time>2026-04-12T08:41:50.882Z</time></trkpt><trkpt lat="39.1911" lon="16.200025"><ele>1037.75</ele><time>2026-04-12T08:41:51.881Z</time></trkpt><trkpt lat="39.1911333" lon="16.1998883"><ele>1038.0</ele><time>2026-04-12T08:41:52.882Z</time></trkpt><trkpt lat="39.1911833" lon="16.1997783"><ele>1037.2</ele><time>2026-04-12T08:41:53.882Z</time></trkpt><trkpt lat="39.1912383" lon="16.1996517"><ele>1036.4</ele><time>2026-04-12T08:41:54.881Z</time></trkpt><trkpt lat="39.1912983" lon="16.1995267"><ele>1035.6000000000001</ele><time>2026-04-12T08:41:55.882Z</time></trkpt><trkpt lat="39.19136" lon="16.1994117"><ele>1034.8</ele><time>2026-04-12T08:41:56.882Z</time></trkpt><trkpt lat="39.1914133" lon="16.1992967"><ele>1034.0</ele><time>2026-04-12T08:41:57.882Z</time></trkpt><trkpt lat="39.1914483" lon="16.1991683"><ele>1034.0</ele><time>2026-04-12T08:41:58.881Z</time></trkpt><trkpt lat="39.1914517" lon="16.199055"><ele>1034.0</ele><time>2026-04-12T08:41:59.882Z</time></trkpt><trkpt lat="39.191525" lon="16.198935"><ele>1034.0</ele><time>2026-04-12T08:42:00.881Z</time></trkpt><trkpt lat="39.191605" lon="16.1987967"><ele>1034.0</ele><time>2026-04-12T08:42:01.882Z</time></trkpt><trkpt lat="39.1916617" lon="16.1986633"><ele>1034.5</ele><time>2026-04-12T08:42:02.882Z</time></trkpt><trkpt lat="39.1917233" lon="16.19853"><ele>1035.0</ele><time>2026-04-12T08:42:03.881Z</time></trkpt><trkpt lat="39.191775" lon="16.19839"><ele>1035.5</ele><time>2026-04-12T08:42:04.882Z</time></trkpt><trkpt lat="39.1918217" lon="16.19826"><ele>1036.0</ele><time>2026-04-12T08:42:05.882Z</time></trkpt><trkpt lat="39.1918617" lon="16.19811"><ele>1037.0</ele><time>2026-04-12T08:42:06.881Z</time></trkpt><trkpt lat="39.1918917" lon="16.1979467"><ele>1038.0</ele><time>2026-04-12T08:42:07.882Z</time></trkpt><trkpt lat="39.19193" lon="16.197795"><ele>1039.0</ele><time>2026-04-12T08:42:08.882Z</time></trkpt><trkpt lat="39.1919583" lon="16.19763"><ele>1040.0</ele><time>2026-04-12T08:42:09.881Z</time></trkpt><trkpt lat="39.1921217" lon="16.1964017"><ele>1042.5</ele><time>2026-04-12T08:42:16.883Z</time></trkpt><trkpt lat="39.192105" lon="16.1962083"><ele>1045.0</ele><time>2026-04-12T08:42:17.882Z</time></trkpt><trkpt lat="39.1915533" lon="16.1963717"><ele>1042.0</ele><time>2026-04-12T08:42:18.883Z</time></trkpt><trkpt lat="39.1911417" lon="16.1964767"><ele>1039.0</ele><time>2026-04-12T08:42:19.883Z</time></trkpt><trkpt lat="39.1909333" lon="16.19645"><ele>1039.0</ele><time>2026-04-12T08:42:20.883Z</time></trkpt><trkpt lat="39.19078" lon="16.1963533"><ele>1039.0</ele><time>2026-04-12T08:42:21.883Z</time></trkpt><trkpt lat="39.1905667" lon="16.196175"><ele>1039.0</ele><time>2026-04-12T08:42:23.882Z</time></trkpt><trkpt lat="39.19049" lon="16.19609"><ele>1039.0</ele><time>2026-04-12T08:42:24.883Z</time></trkpt><trkpt lat="39.190425" lon="16.196015"><ele>1039.0</ele><time>2026-04-12T08:42:25.883Z</time></trkpt><trkpt lat="39.1903767" lon="16.1959317"><ele>1039.0</ele><time>2026-04-12T08:42:26.883Z</time></trkpt><trkpt lat="39.1903283" lon="16.195835"><ele>1039.0</ele><time>2026-04-12T08:42:27.883Z</time></trkpt><trkpt lat="39.1902967" lon="16.1957467"><ele>1039.0</ele><time>2026-04-12T08:42:28.882Z</time></trkpt><trkpt lat="39.1902667" lon="16.1956533"><ele>1039.0</ele><time>2026-04-12T08:42:29.882Z</time></trkpt><trkpt lat="39.190245" lon="16.1955617"><ele>1041.6000000000001</ele><time>2026-04-12T08:42:30.882Z</time></trkpt><trkpt lat="39.1902217" lon="16.1954617"><ele>1044.2</ele><time>2026-04-12T08:42:31.882Z</time></trkpt><trkpt lat="39.1902117" lon="16.19536"><ele>1046.8000000000002</ele><time>2026-04-12T08:42:32.883Z</time></trkpt><trkpt lat="39.1902067" lon="16.19526"><ele>1049.4</ele><time>2026-04-12T08:42:33.883Z</time></trkpt><trkpt lat="39.19036" lon="16.195105"><ele>1052.0</ele><time>2026-04-12T08:42:34.882Z</time></trkpt><trkpt lat="39.1904683" lon="16.1950417"><ele>1052.0</ele><time>2026-04-12T08:42:35.883Z</time></trkpt><trkpt lat="39.1905483" lon="16.19495"><ele>1052.0</ele><time>2026-04-12T08:42:37.883Z</time></trkpt><trkpt lat="39.1908133" lon="16.1949633"><ele>1052.0</ele><time>2026-04-12T08:42:38.881Z</time></trkpt><trkpt lat="39.1909383" lon="16.19492"><ele>1052.6</ele><time>2026-04-12T08:42:39.881Z</time></trkpt><trkpt lat="39.1909917" lon="16.194835"><ele>1053.2</ele><time>2026-04-12T08:42:40.882Z</time></trkpt><trkpt lat="39.1911433" lon="16.19479"><ele>1053.8</ele><time>2026-04-12T08:42:41.882Z</time></trkpt><trkpt lat="39.1912233" lon="16.1946583"><ele>1054.4</ele><time>2026-04-12T08:42:43.882Z</time></trkpt><trkpt lat="39.1912667" lon="16.19459"><ele>1055.0</ele><time>2026-04-12T08:42:44.882Z</time></trkpt><trkpt lat="39.1913017" lon="16.1945133"><ele>1055.0</ele><time>2026-04-12T08:42:45.882Z</time></trkpt><trkpt lat="39.1913317" lon="16.1944333"><ele>1055.0</ele><time>2026-04-12T08:42:46.881Z</time></trkpt><trkpt lat="39.1913533" lon="16.1943417"><ele>1055.0</ele><time>2026-04-12T08:42:47.882Z</time></trkpt><trkpt lat="39.19143" lon="16.1942133"><ele>1055.0</ele><time>2026-04-12T08:42:49.881Z</time></trkpt><trkpt lat="39.1914333" lon="16.1937033"><ele>1052.0</ele><time>2026-04-12T08:42:55.881Z</time></trkpt><trkpt lat="39.19134" lon="16.1935967"><ele>1049.0</ele><time>2026-04-12T08:42:56.882Z</time></trkpt><trkpt lat="39.191105" lon="16.1934283"><ele>1046.0</ele><time>2026-04-12T08:42:58.881Z</time></trkpt><trkpt lat="39.1909883" lon="16.19336"><ele>1046.0</ele><time>2026-04-12T08:42:59.88Z</time></trkpt><trkpt lat="39.1909283" lon="16.1932717"><ele>1046.0</ele><time>2026-04-12T08:43:00.881Z</time></trkpt><trkpt lat="39.1905617" lon="16.1932933"><ele>1054.5</ele><time>2026-04-12T08:43:04.882Z</time></trkpt><trkpt lat="39.190465" lon="16.19382"><ele>1063.0</ele><time>2026-04-12T08:43:05.881Z</time></trkpt><trkpt lat="39.1903633" lon="16.1937783"><ele>1063.0</ele><time>2026-04-12T08:43:06.881Z</time></trkpt><trkpt lat="39.19025" lon="16.1937067"><ele>1063.0</ele><time>2026-04-12T08:43:07.882Z</time></trkpt><trkpt lat="39.1899983" lon="16.1936783"><ele>1063.0</ele><time>2026-04-12T08:43:08.882Z</time></trkpt><trkpt lat="39.1897067" lon="16.1936667"><ele>1066.25</ele><time>2026-04-12T08:43:09.882Z</time></trkpt><trkpt lat="39.189585" lon="16.193585"><ele>1069.5</ele><time>2026-04-12T08:43:10.882Z</time></trkpt><trkpt lat="39.1894717" lon="16.1935"><ele>1072.75</ele><time>2026-04-12T08:43:11.882Z</time></trkpt><trkpt lat="39.1893483" lon="16.193415"><ele>1076.0</ele><time>2026-04-12T08:43:12.881Z</time></trkpt><trkpt lat="39.18923" lon="16.19333"><ele>1076.0</ele><time>2026-04-12T08:43:13.882Z</time></trkpt><trkpt lat="39.1891383" lon="16.1932333"><ele>1076.0</ele><time>2026-04-12T08:43:14.882Z</time></trkpt><trkpt lat="39.18905" lon="16.19313"><ele>1076.0</ele><time>2026-04-12T08:43:15.881Z</time></trkpt><trkpt lat="39.1889533" lon="16.193045"><ele>1076.0</ele><time>2026-04-12T08:43:16.881Z</time></trkpt><trkpt lat="39.1887883" lon="16.1930083"><ele>1079.25</ele><time>2026-04-12T08:43:17.882Z</time></trkpt><trkpt lat="39.1886633" lon="16.1929433"><ele>1082.5</ele><time>2026-04-12T08:43:18.882Z</time></trkpt><trkpt lat="39.1885683" lon="16.1928783"><ele>1085.75</ele><time>2026-04-12T08:43:19.882Z</time></trkpt><trkpt lat="39.188465" lon="16.192805"><ele>1089.0</ele><time>2026-04-12T08:43:20.882Z</time></trkpt><trkpt lat="39.1883667" lon="16.1927317"><ele>1089.0</ele><time>2026-04-12T08:43:21.882Z</time></trkpt><trkpt lat="39.188265" lon="16.192655"><ele>1089.0</ele><time>2026-04-12T08:43:22.882Z</time></trkpt><trkpt lat="39.1881583" lon="16.1925667"><ele>1089.0</ele><time>2026-04-12T08:43:23.882Z</time></trkpt><trkpt lat="39.1880517" lon="16.1924883"><ele>1089.0</ele><time>2026-04-12T08:43:24.881Z</time></trkpt><trkpt lat="39.187945" lon="16.19241"><ele>1090.0</ele><time>2026-04-12T08:43:25.882Z</time></trkpt><trkpt lat="39.18859" lon="16.19001"><ele>1090.0</ele><time>2026-04-12T08:43:37.882Z</time></trkpt><trkpt lat="39.188665" lon="16.18995"><ele>1090.0</ele><time>2026-04-12T08:43:38.882Z</time></trkpt><trkpt lat="39.188705" lon="16.1898517"><ele>1090.0</ele><time>2026-04-12T08:43:39.881Z</time></trkpt><trkpt lat="39.188735" lon="16.189725"><ele>1090.0</ele><time>2026-04-12T08:43:40.881Z</time></trkpt><trkpt lat="39.1887417" lon="16.1895883"><ele>1090.0</ele><time>2026-04-12T08:43:41.881Z</time></trkpt><trkpt lat="39.1887483" lon="16.18944"><ele>1090.5</ele><time>2026-04-12T08:43:42.882Z</time></trkpt><trkpt lat="39.1887667" lon="16.1892933"><ele>1091.0</ele><time>2026-04-12T08:43:43.882Z</time></trkpt><trkpt lat="39.188775" lon="16.189155"><ele>1091.5</ele><time>2026-04-12T08:43:44.882Z</time></trkpt><trkpt lat="39.1888" lon="16.1890067"><ele>1092.0</ele><time>2026-04-12T08:43:45.882Z</time></trkpt><trkpt lat="39.188835" lon="16.188865"><ele>1093.75</ele><time>2026-04-12T08:43:46.882Z</time></trkpt><trkpt lat="39.1889417" lon="16.18869"><ele>1095.5</ele><time>2026-04-12T08:43:47.882Z</time></trkpt><trkpt lat="39.188985" lon="16.1885483"><ele>1097.25</ele><time>2026-04-12T08:43:48.882Z</time></trkpt><trkpt lat="39.18902" lon="16.1884117"><ele>1099.0</ele><time>2026-04-12T08:43:49.882Z</time></trkpt><trkpt lat="39.1890617" lon="16.1882833"><ele>1099.8</ele><time>2026-04-12T08:43:50.882Z</time></trkpt><trkpt lat="39.1891083" lon="16.1881617"><ele>1100.6000000000001</ele><time>2026-04-12T08:43:51.882Z</time></trkpt><trkpt lat="39.1891683" lon="16.1880433"><ele>1101.4</ele><time>2026-04-12T08:43:52.882Z</time></trkpt><trkpt lat="39.1892233" lon="16.1879217"><ele>1102.2</ele><time>2026-04-12T08:43:53.881Z</time></trkpt><trkpt lat="39.1892767" lon="16.1877783"><ele>1103.0</ele><time>2026-04-12T08:43:54.882Z</time></trkpt><trkpt lat="39.189355" lon="16.1876533"><ele>1103.0</ele><time>2026-04-12T08:43:55.882Z</time></trkpt><trkpt lat="39.1894233" lon="16.1875467"><ele>1103.0</ele><time>2026-04-12T08:43:56.881Z</time></trkpt><trkpt lat="39.1895" lon="16.187445"><ele>1103.0</ele><time>2026-04-12T08:43:57.882Z</time></trkpt><trkpt lat="39.1895833" lon="16.1873517"><ele>1103.0</ele><time>2026-04-12T08:43:58.882Z</time></trkpt><trkpt lat="39.189665" lon="16.1872467"><ele>1103.0</ele><time>2026-04-12T08:43:59.882Z</time></trkpt><trkpt lat="39.18975" lon="16.1871783"><ele>1102.5</ele><time>2026-04-12T08:44:00.882Z</time></trkpt><trkpt lat="39.1898567" lon="16.1871017"><ele>1102.0</ele><time>2026-04-12T08:44:01.882Z</time></trkpt><trkpt lat="39.189995" lon="16.187095"><ele>1101.5</ele><time>2026-04-12T08:44:02.881Z</time></trkpt><trkpt lat="39.19011" lon="16.1870467"><ele>1101.0</ele><time>2026-04-12T08:44:03.881Z</time></trkpt><trkpt lat="39.1902217" lon="16.186985"><ele>1101.0</ele><time>2026-04-12T08:44:04.882Z</time></trkpt><trkpt lat="39.190345" lon="16.1869417"><ele>1101.0</ele><time>2026-04-12T08:44:05.882Z</time></trkpt><trkpt lat="39.190485" lon="16.18686"><ele>1101.0</ele><time>2026-04-12T08:44:06.881Z</time></trkpt><trkpt lat="39.190625" lon="16.1868483"><ele>1101.0</ele><time>2026-04-12T08:44:07.882Z</time></trkpt><trkpt lat="39.19076" lon="16.1868233"><ele>1101.5</ele><time>2026-04-12T08:44:08.882Z</time></trkpt><trkpt lat="39.190895" lon="16.1867917"><ele>1102.0</ele><time>2026-04-12T08:44:09.881Z</time></trkpt><trkpt lat="39.1910367" lon="16.1867767"><ele>1102.5</ele><time>2026-04-12T08:44:10.882Z</time></trkpt><trkpt lat="39.1911667" lon="16.1867483"><ele>1103.0</ele><time>2026-04-12T08:44:11.882Z</time></trkpt><trkpt lat="39.191305" lon="16.1867167"><ele>1103.0</ele><time>2026-04-12T08:44:12.881Z</time></trkpt><trkpt lat="39.1914233" lon="16.18667"><ele>1103.0</ele><time>2026-04-12T08:44:13.881Z</time></trkpt><trkpt lat="39.1915367" lon="16.1866217"><ele>1103.0</ele><time>2026-04-12T08:44:14.882Z</time></trkpt><trkpt lat="39.1916717" lon="16.1865683"><ele>1103.0</ele><time>2026-04-12T08:44:15.882Z</time></trkpt><trkpt lat="39.1918183" lon="16.1865017"><ele>1101.6666666666667</ele><time>2026-04-12T08:44:16.882Z</time></trkpt><trkpt lat="39.1919617" lon="16.1864117"><ele>1100.3333333333333</ele><time>2026-04-12T08:44:17.882Z</time></trkpt><trkpt lat="39.1920867" lon="16.18632"><ele>1099.0</ele><time>2026-04-12T08:44:18.882Z</time></trkpt><trkpt lat="39.192235" lon="16.1862183"><ele>1100.3333333333333</ele><time>2026-04-12T08:44:19.882Z</time></trkpt><trkpt lat="39.1923733" lon="16.18612"><ele>1101.6666666666667</ele><time>2026-04-12T08:44:20.882Z</time></trkpt><trkpt lat="39.192515" lon="16.186"><ele>1103.0</ele><time>2026-04-12T08:44:21.882Z</time></trkpt><trkpt lat="39.1891083" lon="16.1881617"><ele>1103.0</ele><time>2026-04-12T08:43:51.882Z</time></trkpt><trkpt lat="39.1891683" lon="16.1880433"><ele>1103.0</ele><time>2026-04-12T08:43:52.882Z</time></trkpt><trkpt lat="39.1892233" lon="16.1879217"><ele>1103.0</ele><time>2026-04-12T08:43:53.881Z</time></trkpt><trkpt lat="39.1892767" lon="16.1877783"><ele>1103.0</ele><time>2026-04-12T08:43:54.882Z</time></trkpt><trkpt lat="39.189355" lon="16.1876533"><ele>1103.0</ele><time>2026-04-12T08:43:55.882Z</time></trkpt><trkpt lat="39.1894233" lon="16.1875467"><ele>1103.0</ele><time>2026-04-12T08:43:56.881Z</time></trkpt><trkpt lat="39.1895" lon="16.187445"><ele>1103.0</ele><time>2026-04-12T08:43:57.882Z</time></trkpt><trkpt lat="39.1895833" lon="16.1873517"><ele>1103.0</ele><time>2026-04-12T08:43:58.882Z</time></trkpt><trkpt lat="39.189665" lon="16.1872467"><ele>1103.0</ele><time>2026-04-12T08:43:59.882Z</time></trkpt><trkpt lat="39.18975" lon="16.1871783"><ele>1102.5</ele><time>2026-04-12T08:44:00.882Z</time></trkpt><trkpt lat="39.1898567" lon="16.1871017"><ele>1102.0</ele><time>2026-04-12T08:44:01.882Z</time></trkpt><trkpt lat="39.189995" lon="16.187095"><ele>1101.5</ele><time>2026-04-12T08:44:02.881Z</time></trkpt><trkpt lat="39.19011" lon="16.1870467"><ele>1101.0</ele><time>2026-04-12T08:44:03.881Z</time></trkpt><trkpt lat="39.1902217" lon="16.186985"><ele>1101.0</ele><time>2026-04-12T08:44:04.882Z</time></trkpt><trkpt lat="39.190345" lon="16.1869417"><ele>1101.0</ele><time>2026-04-12T08:44:05.882Z</time></trkpt><trkpt lat="39.190485" lon="16.18686"><ele>1101.0</ele><time>2026-04-12T08:44:06.881Z</time></trkpt><trkpt lat="39.190625" lon="16.1868483"><ele>1101.0</ele><time>2026-04-12T08:44:07.882Z</time></trkpt><trkpt lat="39.19076" lon="16.1868233"><ele>1101.5</ele><time>2026-04-12T08:44:08.882Z</time></trkpt><trkpt lat="39.190895" lon="16.1867917"><ele>1102.0</ele><time>2026-04-12T08:44:09.881Z</time></trkpt><trkpt lat="39.1910367" lon="16.1867767"><ele>1102.5</ele><time>2026-04-12T08:44:10.882Z</time></trkpt><trkpt lat="39.1911667" lon="16.1867483"><ele>1103.0</ele><time>2026-04-12T08:44:11.882Z</time></trkpt><trkpt lat="39.191305" lon="16.1867167"><ele>1103.0</ele><time>2026-04-12T08:44:12.881Z</time></trkpt><trkpt lat="39.1914233" lon="16.18667"><ele>1103.0</ele><time>2026-04-12T08:44:13.881Z</time></trkpt><trkpt lat="39.1915367" lon="16.1866217"><ele>1103.0</ele><time>2026-04-12T08:44:14.882Z</time></trkpt><trkpt lat="39.1916717" lon="16.1865683"><ele>1103.0</ele><time>2026-04-12T08:44:15.882Z</time></trkpt><trkpt lat="39.1918183" lon="16.1865017"><ele>1101.6666666666667</ele><time>2026-04-12T08:44:16.882Z</time></trkpt><trkpt lat="39.1919617" lon="16.1864117"><ele>1100.3333333333333</ele><time>2026-04-12T08:44:17.882Z</time></trkpt><trkpt lat="39.1920867" lon="16.18632"><ele>1099.0</ele><time>2026-04-12T08:44:18.882Z</time></trkpt><trkpt lat="39.192235" lon="16.1862183"><ele>1102.0</ele><time>2026-04-12T08:44:19.882Z</time></trkpt><trkpt lat="39.1923733" lon="16.18612"><ele>1105.0</ele><time>2026-04-12T08:44:20.882Z</time></trkpt><trkpt lat="39.192515" lon="16.186"><ele>1108.0</ele><time>2026-04-12T08:44:21.882Z</time></trkpt><trkpt lat="39.1926583" lon="16.1858767"><ele>1108.0</ele><time>2026-04-12T08:44:22.881Z</time></trkpt><trkpt lat="39.192805" lon="16.1857583"><ele>1108.0</ele><time>2026-04-12T08:44:23.882Z</time></trkpt><trkpt lat="39.1929533" lon="16.1856433"><ele>1108.0</ele><time>2026-04-12T08:44:24.882Z</time></trkpt><trkpt lat="39.193055" lon="16.1855567"><ele>1106.6</ele><time>2026-04-12T08:44:25.881Z</time></trkpt><trkpt lat="39.1931767" lon="16.1854283"><ele>1105.1999999999998</ele><time>2026-04-12T08:44:27.882Z</time></trkpt><trkpt lat="39.1932417" lon="16.1853533"><ele>1103.8</ele><time>2026-04-12T08:44:28.882Z</time></trkpt><trkpt lat="39.1933117" lon="16.185305"><ele>1102.3999999999999</ele><time>2026-04-12T08:44:29.882Z</time></trkpt><trkpt lat="39.19336" lon="16.185235"><ele>1101.0</ele><time>2026-04-12T08:44:30.882Z</time></trkpt><trkpt lat="39.1934183" lon="16.1851783"><ele>1101.0</ele><time>2026-04-12T08:44:31.882Z</time></trkpt><trkpt lat="39.1935017" lon="16.1851367"><ele>1101.0</ele><time>2026-04-12T08:44:32.882Z</time></trkpt><trkpt lat="39.1936017" lon="16.1851017"><ele>1101.0</ele><time>2026-04-12T08:44:33.881Z</time></trkpt><trkpt lat="39.1937" lon="16.1850583"><ele>1101.0</ele><time>2026-04-12T08:44:34.881Z</time></trkpt><trkpt lat="39.1938083" lon="16.185025"><ele>1101.0</ele><time>2026-04-12T08:44:35.882Z</time></trkpt><trkpt lat="39.193935" lon="16.1850117"><ele>1100.6</ele><time>2026-04-12T08:44:36.882Z</time></trkpt><trkpt lat="39.1940533" lon="16.1849733"><ele>1100.1999999999998</ele><time>2026-04-12T08:44:37.882Z</time></trkpt><trkpt lat="39.19415" lon="16.1849117"><ele>1099.8000000000002</ele><time>2026-04-12T08:44:38.882Z</time></trkpt><trkpt lat="39.1942417" lon="16.1848533"><ele>1099.4</ele><time>2026-04-12T08:44:39.881Z</time></trkpt><trkpt lat="39.194325" lon="16.1848"><ele>1099.0</ele><time>2026-04-12T08:44:40.882Z</time></trkpt><trkpt lat="39.1943883" lon="16.184685"><ele>1099.0</ele><time>2026-04-12T08:44:41.882Z</time></trkpt><trkpt lat="39.194455" lon="16.184605"><ele>1099.0</ele><time>2026-04-12T08:44:42.882Z</time></trkpt><trkpt lat="39.1945167" lon="16.18453"><ele>1099.0</ele><time>2026-04-12T08:44:43.882Z</time></trkpt><trkpt lat="39.1946033" lon="16.1844217"><ele>1099.0</ele><time>2026-04-12T08:44:44.882Z</time></trkpt><trkpt lat="39.1946933" lon="16.1843183"><ele>1099.0</ele><time>2026-04-12T08:44:45.881Z</time></trkpt><trkpt lat="39.19478" lon="16.18422"><ele>1100.0</ele><time>2026-04-12T08:44:46.882Z</time></trkpt><trkpt lat="39.19487" lon="16.1841317"><ele>1101.0</ele><time>2026-04-12T08:44:47.882Z</time></trkpt><trkpt lat="39.1949483" lon="16.1840383"><ele>1102.0</ele><time>2026-04-12T08:44:48.881Z</time></trkpt><trkpt lat="39.195045" lon="16.1839267"><ele>1103.0</ele><time>2026-04-12T08:44:49.882Z</time></trkpt><trkpt lat="39.1951417" lon="16.1838167"><ele>1103.0</ele><time>2026-04-12T08:44:50.882Z</time></trkpt><trkpt lat="39.195225" lon="16.1837117"><ele>1103.0</ele><time>2026-04-12T08:44:51.882Z</time></trkpt><trkpt lat="39.1953133" lon="16.1836017"><ele>1103.0</ele><time>2026-04-12T08:44:52.882Z</time></trkpt><trkpt lat="39.1954033" lon="16.1835083"><ele>1103.0</ele><time>2026-04-12T08:44:53.882Z</time></trkpt><trkpt lat="39.1954783" lon="16.1834183"><ele>1103.0</ele><time>2026-04-12T08:44:54.881Z</time></trkpt><trkpt lat="39.1955617" lon="16.18333"><ele>1103.0</ele><time>2026-04-12T08:44:55.881Z</time></trkpt><trkpt lat="39.1956483" lon="16.1832467"><ele>1103.0</ele><time>2026-04-12T08:44:56.881Z</time></trkpt><trkpt lat="39.1957267" lon="16.1831517"><ele>1103.0</ele><time>2026-04-12T08:44:57.882Z</time></trkpt><trkpt lat="39.1958033" lon="16.183065"><ele>1103.0</ele><time>2026-04-12T08:44:58.882Z</time></trkpt><trkpt lat="39.1958733" lon="16.1829867"><ele>1104.4</ele><time>2026-04-12T08:44:59.882Z</time></trkpt><trkpt lat="39.1959" lon="16.1828733"><ele>1105.8</ele><time>2026-04-12T08:45:00.882Z</time></trkpt><trkpt lat="39.195935" lon="16.182765"><ele>1107.2</ele><time>2026-04-12T08:45:01.882Z</time></trkpt><trkpt lat="39.1960033" lon="16.1826583"><ele>1108.6</ele><time>2026-04-12T08:45:02.882Z</time></trkpt><trkpt lat="39.19606" lon="16.18254"><ele>1110.0</ele><time>2026-04-12T08:45:03.881Z</time></trkpt><trkpt lat="39.1961067" lon="16.18242"><ele>1110.5</ele><time>2026-04-12T08:45:04.882Z</time></trkpt><trkpt lat="39.1961317" lon="16.1822933"><ele>1111.0</ele><time>2026-04-12T08:45:05.882Z</time></trkpt><trkpt lat="39.1961167" lon="16.182145"><ele>1111.5</ele><time>2026-04-12T08:45:06.882Z</time></trkpt><trkpt lat="39.1960583" lon="16.182"><ele>1112.0</ele><time>2026-04-12T08:45:07.882Z</time></trkpt><trkpt lat="39.19606" lon="16.18184"><ele>1112.0</ele><time>2026-04-12T08:45:08.882Z</time></trkpt><trkpt lat="39.1960417" lon="16.181705"><ele>1112.0</ele><time>2026-04-12T08:45:09.882Z</time></trkpt><trkpt lat="39.19603" lon="16.1815383"><ele>1112.0</ele><time>2026-04-12T08:45:10.881Z</time></trkpt><trkpt lat="39.1960283" lon="16.1813717"><ele>1112.0</ele><time>2026-04-12T08:45:11.882Z</time></trkpt><trkpt lat="39.19602" lon="16.1812133"><ele>1113.0</ele><time>2026-04-12T08:45:12.882Z</time></trkpt><trkpt lat="39.1960033" lon="16.1810717"><ele>1114.0</ele><time>2026-04-12T08:45:13.882Z</time></trkpt><trkpt lat="39.1960117" lon="16.18092"><ele>1115.0</ele><time>2026-04-12T08:45:14.882Z</time></trkpt><trkpt lat="39.196025" lon="16.1807733"><ele>1116.0</ele><time>2026-04-12T08:45:15.881Z</time></trkpt><trkpt lat="39.196025" lon="16.1806267"><ele>1116.0</ele><time>2026-04-12T08:45:16.882Z</time></trkpt><trkpt lat="39.1960417" lon="16.18049"><ele>1116.0</ele><time>2026-04-12T08:45:17.882Z</time></trkpt><trkpt lat="39.1960467" lon="16.1803483"><ele>1116.0</ele><time>2026-04-12T08:45:18.881Z</time></trkpt><trkpt lat="39.196" lon="16.1802367"><ele>1116.0</ele><time>2026-04-12T08:45:19.882Z</time></trkpt><trkpt lat="39.1960633" lon="16.1796817"><ele>1115.3333333333333</ele><time>2026-04-12T08:45:23.882Z</time></trkpt><trkpt lat="39.1961333" lon="16.1795083"><ele>1114.6666666666665</ele><time>2026-04-12T08:45:24.881Z</time></trkpt><trkpt lat="39.196155" lon="16.179355"><ele>1114.0</ele><time>2026-04-12T08:45:25.881Z</time></trkpt><trkpt lat="39.1975867" lon="16.17806"><ele>1115.6666666666665</ele><time>2026-04-12T08:46:07.882Z</time></trkpt><trkpt lat="39.1976133" lon="16.1782117"><ele>1117.3333333333333</ele><time>2026-04-12T08:46:11.882Z</time></trkpt><trkpt lat="39.1976733" lon="16.1782617"><ele>1119.0</ele><time>2026-04-12T08:46:14.882Z</time></trkpt><trkpt lat="39.1976233" lon="16.1783533"><ele>1120.6666666666667</ele><time>2026-04-12T08:46:21.882Z</time></trkpt><trkpt lat="39.1976583" lon="16.1784383"><ele>1122.3333333333335</ele><time>2026-04-12T08:46:23.882Z</time></trkpt><trkpt lat="39.19774" lon="16.1784983"><ele>1124.0</ele><time>2026-04-12T08:46:26.881Z</time></trkpt><trkpt lat="39.1978867" lon="16.178635"><ele>1124.0</ele><time>2026-04-12T08:46:28.882Z</time></trkpt><trkpt lat="39.1979733" lon="16.1787067"><ele>1124.0</ele><time>2026-04-12T08:46:29.882Z</time></trkpt><trkpt lat="39.1980483" lon="16.1787733"><ele>1124.0</ele><time>2026-04-12T08:46:30.882Z</time></trkpt><trkpt lat="39.1981233" lon="16.1788333"><ele>1124.0</ele><time>2026-04-12T08:46:31.882Z</time></trkpt><trkpt lat="39.1981867" lon="16.1789133"><ele>1124.0</ele><time>2026-04-12T08:46:32.882Z</time></trkpt><trkpt lat="39.1982583" lon="16.1789667"><ele>1123.2</ele><time>2026-04-12T08:46:33.882Z</time></trkpt><trkpt lat="39.1983317" lon="16.1790033"><ele>1122.4</ele><time>2026-04-12T08:46:34.882Z</time></trkpt><trkpt lat="39.1984117" lon="16.17906"><ele>1121.6</ele><time>2026-04-12T08:46:35.882Z</time></trkpt><trkpt lat="39.1984967" lon="16.1791217"><ele>1120.8</ele><time>2026-04-12T08:46:36.881Z</time></trkpt><trkpt lat="39.198635" lon="16.1791883"><ele>1120.0</ele><time>2026-04-12T08:46:37.882Z</time></trkpt><trkpt lat="39.1987467" lon="16.1792483"><ele>1120.0</ele><time>2026-04-12T08:46:38.882Z</time></trkpt><trkpt lat="39.1988233" lon="16.1793"><ele>1120.0</ele><time>2026-04-12T08:46:39.881Z</time></trkpt><trkpt lat="39.1988867" lon="16.17935"><ele>1120.0</ele><time>2026-04-12T08:46:40.881Z</time></trkpt><trkpt lat="39.1989483" lon="16.1794033"><ele>1120.0</ele><time>2026-04-12T08:46:41.882Z</time></trkpt><trkpt lat="39.1990383" lon="16.1794883"><ele>1120.0</ele><time>2026-04-12T08:46:43.882Z</time></trkpt><trkpt lat="39.1991117" lon="16.1795417"><ele>1120.0</ele><time>2026-04-12T08:46:45.881Z</time></trkpt><trkpt lat="39.19917" lon="16.179575"><ele>1116.5</ele><time>2026-04-12T08:46:47.882Z</time></trkpt><trkpt lat="39.1992467" lon="16.1796033"><ele>1113.0</ele><time>2026-04-12T08:46:49.881Z</time></trkpt><trkpt lat="39.1993233" lon="16.1795933"><ele>1109.5</ele><time>2026-04-12T08:46:50.882Z</time></trkpt><trkpt lat="39.1993883" lon="16.1796167"><ele>1106.0</ele><time>2026-04-12T08:46:51.881Z</time></trkpt><trkpt lat="39.1994583" lon="16.1796217"><ele>1102.5</ele><time>2026-04-12T08:46:52.882Z</time></trkpt><trkpt lat="39.1995283" lon="16.1796167"><ele>1099.0</ele><time>2026-04-12T08:46:53.882Z</time></trkpt><trkpt lat="39.1996267" lon="16.1795917"><ele>1099.0</ele><time>2026-04-12T08:46:54.881Z</time></trkpt><trkpt lat="39.1997217" lon="16.1795883"><ele>1099.0</ele><time>2026-04-12T08:46:56.882Z</time></trkpt><trkpt lat="39.1998117" lon="16.1795683"><ele>1099.0</ele><time>2026-04-12T08:46:58.882Z</time></trkpt><trkpt lat="39.19992" lon="16.179585"><ele>1099.0</ele><time>2026-04-12T08:47:00.882Z</time></trkpt><trkpt lat="39.199995" lon="16.17959"><ele>1099.0</ele><time>2026-04-12T08:47:01.882Z</time></trkpt><trkpt lat="39.2001217" lon="16.179595"><ele>1097.6666666666665</ele><time>2026-04-12T08:47:02.882Z</time></trkpt><trkpt lat="39.2002117" lon="16.179625"><ele>1096.3333333333333</ele><time>2026-04-12T08:47:03.881Z</time></trkpt><trkpt lat="39.200305" lon="16.1796483"><ele>1095.0</ele><time>2026-04-12T08:47:04.882Z</time></trkpt><trkpt lat="39.2003917" lon="16.1796717"><ele>1093.6666666666667</ele><time>2026-04-12T08:47:05.882Z</time></trkpt><trkpt lat="39.2004717" lon="16.1796933"><ele>1092.3333333333335</ele><time>2026-04-12T08:47:06.882Z</time></trkpt><trkpt lat="39.2005383" lon="16.179725"><ele>1091.0</ele><time>2026-04-12T08:47:07.882Z</time></trkpt><trkpt lat="39.2006067" lon="16.1797567"><ele>1090.3333333333335</ele><time>2026-04-12T08:47:08.881Z</time></trkpt><trkpt lat="39.2006833" lon="16.1797917"><ele>1089.6666666666667</ele><time>2026-04-12T08:47:09.881Z</time></trkpt><trkpt lat="39.2007483" lon="16.179835"><ele>1089.0</ele><time>2026-04-12T08:47:10.881Z</time></trkpt><trkpt lat="39.2008083" lon="16.1798817"><ele>1088.3333333333333</ele><time>2026-04-12T08:47:11.881Z</time></trkpt><trkpt lat="39.2008667" lon="16.1799167"><ele>1087.6666666666665</ele><time>2026-04-12T08:47:12.882Z</time></trkpt><trkpt lat="39.2009533" lon="16.17999"><ele>1087.0</ele><time>2026-04-12T08:47:14.882Z</time></trkpt><trkpt lat="39.2010167" lon="16.1800533"><ele>1087.0</ele><time>2026-04-12T08:47:16.882Z</time></trkpt><trkpt lat="39.2010367" lon="16.180135"><ele>1087.0</ele><time>2026-04-12T08:47:17.881Z</time></trkpt><trkpt lat="39.2010717" lon="16.180205"><ele>1087.0</ele><time>2026-04-12T08:47:18.882Z</time></trkpt><trkpt lat="39.2010383" lon="16.1803067"><ele>1087.0</ele><time>2026-04-12T08:47:19.881Z</time></trkpt><trkpt lat="39.2010117" lon="16.1804267"><ele>1087.0</ele><time>2026-04-12T08:47:20.882Z</time></trkpt><trkpt lat="39.2010183" lon="16.1805183"><ele>1087.0</ele><time>2026-04-12T08:47:21.881Z</time></trkpt><trkpt lat="39.201015" lon="16.1806583"><ele>1086.4</ele><time>2026-04-12T08:47:22.881Z</time></trkpt><trkpt lat="39.2010083" lon="16.1807817"><ele>1085.8000000000002</ele><time>2026-04-12T08:47:23.882Z</time></trkpt><trkpt lat="39.20102" lon="16.1809067"><ele>1085.2</ele><time>2026-04-12T08:47:24.882Z</time></trkpt><trkpt lat="39.2010383" lon="16.18104"><ele>1084.6000000000001</ele><time>2026-04-12T08:47:25.882Z</time></trkpt><trkpt lat="39.201065" lon="16.18115"><ele>1084.0</ele><time>2026-04-12T08:47:26.882Z</time></trkpt><trkpt lat="39.2011983" lon="16.1812117"><ele>1084.0</ele><time>2026-04-12T08:47:27.881Z</time></trkpt><trkpt lat="39.20126" lon="16.1812983"><ele>1084.0</ele><time>2026-04-12T08:47:28.882Z</time></trkpt><trkpt lat="39.20138" lon="16.18136"><ele>1084.0</ele><time>2026-04-12T08:47:29.882Z</time></trkpt><trkpt lat="39.20147" lon="16.1814367"><ele>1084.0</ele><time>2026-04-12T08:47:30.882Z</time></trkpt><trkpt lat="39.2015683" lon="16.18151"><ele>1084.0</ele><time>2026-04-12T08:47:31.882Z</time></trkpt><trkpt lat="39.2016883" lon="16.1815717"><ele>1083.0</ele><time>2026-04-12T08:47:32.882Z</time></trkpt><trkpt lat="39.2018033" lon="16.1816117"><ele>1082.0</ele><time>2026-04-12T08:47:33.882Z</time></trkpt><trkpt lat="39.2019583" lon="16.1816317"><ele>1081.0</ele><time>2026-04-12T08:47:34.882Z</time></trkpt><trkpt lat="39.202045" lon="16.181665"><ele>1080.0</ele><time>2026-04-12T08:47:35.882Z</time></trkpt><trkpt lat="39.2021317" lon="16.18169"><ele>1080.0</ele><time>2026-04-12T08:47:36.882Z</time></trkpt><trkpt lat="39.202195" lon="16.1817067"><ele>1080.0</ele><time>2026-04-12T08:47:37.882Z</time></trkpt><trkpt lat="39.2023167" lon="16.18173"><ele>1080.0</ele><time>2026-04-12T08:47:39.882Z</time></trkpt><trkpt lat="39.2023883" lon="16.1817433"><ele>1080.0</ele><time>2026-04-12T08:47:40.881Z</time></trkpt><trkpt lat="39.2024433" lon="16.1817833"><ele>1080.0</ele><time>2026-04-12T08:47:41.882Z</time></trkpt><trkpt lat="39.20252" lon="16.181825"><ele>1080.0</ele><time>2026-04-12T08:47:42.881Z</time></trkpt><trkpt lat="39.2026133" lon="16.1818833"><ele>1080.25</ele><time>2026-04-12T08:47:43.882Z</time></trkpt><trkpt lat="39.2027133" lon="16.181945"><ele>1080.5</ele><time>2026-04-12T08:47:44.882Z</time></trkpt><trkpt lat="39.2028217" lon="16.18202"><ele>1080.75</ele><time>2026-04-12T08:47:45.881Z</time></trkpt><trkpt lat="39.20292" lon="16.18213"><ele>1081.0</ele><time>2026-04-12T08:47:46.882Z</time></trkpt><trkpt lat="39.2030017" lon="16.1822483"><ele>1080.3999999999999</ele><time>2026-04-12T08:47:47.882Z</time></trkpt><trkpt lat="39.20308" lon="16.1823683"><ele>1079.8</ele><time>2026-04-12T08:47:48.882Z</time></trkpt><trkpt lat="39.2031467" lon="16.1824767"><ele>1079.1999999999998</ele><time>2026-04-12T08:47:49.882Z</time></trkpt><trkpt lat="39.2032067" lon="16.1825717"><ele>1078.6</ele><time>2026-04-12T08:47:50.881Z</time></trkpt><trkpt lat="39.2032883" lon="16.1826717"><ele>1078.0</ele><time>2026-04-12T08:47:51.882Z</time></trkpt><trkpt lat="39.2033717" lon="16.1827817"><ele>1078.0</ele><time>2026-04-12T08:47:52.882Z</time></trkpt><trkpt lat="39.2034617" lon="16.1828833"><ele>1078.0</ele><time>2026-04-12T08:47:53.882Z</time></trkpt><trkpt lat="39.2035267" lon="16.1829483"><ele>1078.0</ele><time>2026-04-12T08:47:54.882Z</time></trkpt><trkpt lat="39.2036017" lon="16.183035"><ele>1078.0</ele><time>2026-04-12T08:47:55.881Z</time></trkpt><trkpt lat="39.2036767" lon="16.18314"><ele>1078.0</ele><time>2026-04-12T08:47:56.882Z</time></trkpt><trkpt lat="39.2037233" lon="16.1832433"><ele>1078.6</ele><time>2026-04-12T08:47:57.882Z</time></trkpt><trkpt lat="39.2037733" lon="16.1833517"><ele>1079.1999999999998</ele><time>2026-04-12T08:47:58.881Z</time></trkpt><trkpt lat="39.20379" lon="16.1834667"><ele>1079.8</ele><time>2026-04-12T08:47:59.882Z</time></trkpt><trkpt lat="39.2037917" lon="16.18358"><ele>1080.3999999999999</ele><time>2026-04-12T08:48:00.882Z</time></trkpt><trkpt lat="39.2038083" lon="16.1837017"><ele>1081.0</ele><time>2026-04-12T08:48:01.881Z</time></trkpt><trkpt lat="39.20379" lon="16.18384"><ele>1081.0</ele><time>2026-04-12T08:48:02.881Z</time></trkpt><trkpt lat="39.20379" lon="16.1839733"><ele>1081.0</ele><time>2026-04-12T08:48:03.882Z</time></trkpt><trkpt lat="39.2037633" lon="16.1841033"><ele>1081.0</ele><time>2026-04-12T08:48:04.882Z</time></trkpt><trkpt lat="39.2037333" lon="16.184245"><ele>1081.0</ele><time>2026-04-12T08:48:05.881Z</time></trkpt><trkpt lat="39.2036217" lon="16.1844083"><ele>1081.2</ele><time>2026-04-12T08:48:06.882Z</time></trkpt><trkpt lat="39.203585" lon="16.1845333"><ele>1081.3999999999999</ele><time>2026-04-12T08:48:07.882Z</time></trkpt><trkpt lat="39.2035867" lon="16.1846567"><ele>1081.6</ele><time>2026-04-12T08:48:08.882Z</time></trkpt><trkpt lat="39.2036133" lon="16.1847533"><ele>1081.8</ele><time>2026-04-12T08:48:09.882Z</time></trkpt><trkpt lat="39.203615" lon="16.1849017"><ele>1082.0</ele><time>2026-04-12T08:48:10.882Z</time></trkpt><trkpt lat="39.2036233" lon="16.1850317"><ele>1082.0</ele><time>2026-04-12T08:48:11.882Z</time></trkpt><trkpt lat="39.2036683" lon="16.1851767"><ele>1082.0</ele><time>2026-04-12T08:48:12.882Z</time></trkpt><trkpt lat="39.2037317" lon="16.185315"><ele>1082.0</ele><time>2026-04-12T08:48:13.881Z</time></trkpt><trkpt lat="39.2039" lon="16.18535"><ele>1082.0</ele><time>2026-04-12T08:48:14.882Z</time></trkpt><trkpt lat="39.204005" lon="16.185455"><ele>1081.25</ele><time>2026-04-12T08:48:15.881Z</time></trkpt><trkpt lat="39.2041183" lon="16.1855783"><ele>1080.5</ele><time>2026-04-12T08:48:16.882Z</time></trkpt><trkpt lat="39.2042383" lon="16.185665"><ele>1079.75</ele><time>2026-04-12T08:48:17.881Z</time></trkpt><trkpt lat="39.2043483" lon="16.185755"><ele>1079.0</ele><time>2026-04-12T08:48:18.882Z</time></trkpt><trkpt lat="39.2044567" lon="16.1858133"><ele>1079.25</ele><time>2026-04-12T08:48:19.882Z</time></trkpt><trkpt lat="39.2045533" lon="16.185885"><ele>1079.5</ele><time>2026-04-12T08:48:20.882Z</time></trkpt><trkpt lat="39.2046467" lon="16.1859783"><ele>1079.75</ele><time>2026-04-12T08:48:21.882Z</time></trkpt><trkpt lat="39.204785" lon="16.18605"><ele>1080.0</ele><time>2026-04-12T08:48:22.882Z</time></trkpt><trkpt lat="39.204895" lon="16.1861433"><ele>1080.0</ele><time>2026-04-12T08:48:23.882Z</time></trkpt><trkpt lat="39.2049683" lon="16.18624"><ele>1080.0</ele><time>2026-04-12T08:48:24.882Z</time></trkpt><trkpt lat="39.205075" lon="16.1863383"><ele>1080.0</ele><time>2026-04-12T08:48:25.881Z</time></trkpt><trkpt lat="39.2051733" lon="16.1864533"><ele>1080.0</ele><time>2026-04-12T08:48:26.881Z</time></trkpt><trkpt lat="39.20527" lon="16.1865617"><ele>1080.4</ele><time>2026-04-12T08:48:27.882Z</time></trkpt><trkpt lat="39.2053583" lon="16.1866467"><ele>1080.8</ele><time>2026-04-12T08:48:28.882Z</time></trkpt><trkpt lat="39.20545" lon="16.1867233"><ele>1081.2</ele><time>2026-04-12T08:48:29.881Z</time></trkpt><trkpt lat="39.2055417" lon="16.1868033"><ele>1081.6</ele><time>2026-04-12T08:48:30.881Z</time></trkpt><trkpt lat="39.20563" lon="16.186875"><ele>1082.0</ele><time>2026-04-12T08:48:31.882Z</time></trkpt><trkpt lat="39.2057217" lon="16.1869483"><ele>1082.2</ele><time>2026-04-12T08:48:32.881Z</time></trkpt><trkpt lat="39.2058167" lon="16.1870217"><ele>1082.4</ele><time>2026-04-12T08:48:33.882Z</time></trkpt><trkpt lat="39.2058867" lon="16.1870983"><ele>1082.6</ele><time>2026-04-12T08:48:34.881Z</time></trkpt><trkpt lat="39.2059633" lon="16.1871617"><ele>1082.8</ele><time>2026-04-12T08:48:35.882Z</time></trkpt><trkpt lat="39.206035" lon="16.1872233"><ele>1083.0</ele><time>2026-04-12T08:48:36.882Z</time></trkpt><trkpt lat="39.206115" lon="16.1872867"><ele>1083.0</ele><time>2026-04-12T08:48:37.881Z</time></trkpt><trkpt lat="39.206205" lon="16.1873033"><ele>1083.0</ele><time>2026-04-12T08:48:38.882Z</time></trkpt><trkpt lat="39.2062917" lon="16.1873117"><ele>1083.0</ele><time>2026-04-12T08:48:39.882Z</time></trkpt><trkpt lat="39.2063717" lon="16.18734"><ele>1083.0</ele><time>2026-04-12T08:48:40.881Z</time></trkpt><trkpt lat="39.2064667" lon="16.1873617"><ele>1083.0</ele><time>2026-04-12T08:48:41.882Z</time></trkpt><trkpt lat="39.2065617" lon="16.187395"><ele>1082.4</ele><time>2026-04-12T08:48:42.881Z</time></trkpt><trkpt lat="39.2066533" lon="16.1874333"><ele>1081.8</ele><time>2026-04-12T08:48:43.882Z</time></trkpt><trkpt lat="39.2067467" lon="16.1874667"><ele>1081.2</ele><time>2026-04-12T08:48:44.882Z</time></trkpt><trkpt lat="39.2068367" lon="16.1874983"><ele>1080.6</ele><time>2026-04-12T08:48:45.882Z</time></trkpt><trkpt lat="39.2069267" lon="16.18753"><ele>1080.0</ele><time>2026-04-12T08:48:46.882Z</time></trkpt><trkpt lat="39.2070133" lon="16.187555"><ele>1080.0</ele><time>2026-04-12T08:48:47.881Z</time></trkpt><trkpt lat="39.2070967" lon="16.1875767"><ele>1080.0</ele><time>2026-04-12T08:48:48.882Z</time></trkpt><trkpt lat="39.2071833" lon="16.1876033"><ele>1080.0</ele><time>2026-04-12T08:48:49.882Z</time></trkpt><trkpt lat="39.2072667" lon="16.1876217"><ele>1080.0</ele><time>2026-04-12T08:48:50.882Z</time></trkpt><trkpt lat="39.2073717" lon="16.187625"><ele>1080.0</ele><time>2026-04-12T08:48:51.881Z</time></trkpt><trkpt lat="39.20747" lon="16.1876333"><ele>1079.0</ele><time>2026-04-12T08:48:52.882Z</time></trkpt><trkpt lat="39.2078933" lon="16.1877183"><ele>1078.0</ele><time>2026-04-12T08:48:56.882Z</time></trkpt><trkpt lat="39.2079933" lon="16.1877333"><ele>1074.5</ele><time>2026-04-12T08:48:57.882Z</time></trkpt><trkpt lat="39.2082333" lon="16.1876583"><ele>1071.0</ele><time>2026-04-12T08:48:58.882Z</time></trkpt><trkpt lat="39.2084117" lon="16.187825"><ele>1071.0</ele><time>2026-04-12T08:48:59.881Z</time></trkpt><trkpt lat="39.20852" lon="16.1878617"><ele>1071.0</ele><time>2026-04-12T08:49:00.882Z</time></trkpt><trkpt lat="39.20862" lon="16.1878533"><ele>1071.0</ele><time>2026-04-12T08:49:01.882Z</time></trkpt><trkpt lat="39.2086917" lon="16.1879033"><ele>1071.0</ele><time>2026-04-12T08:49:02.882Z</time></trkpt><trkpt lat="39.2086867" lon="16.188025"><ele>1071.0</ele><time>2026-04-12T08:49:03.882Z</time></trkpt><trkpt lat="39.2088333" lon="16.188065"><ele>1071.0</ele><time>2026-04-12T08:49:05.882Z</time></trkpt><trkpt lat="39.2089367" lon="16.1880683"><ele>1071.0</ele><time>2026-04-12T08:49:06.882Z</time></trkpt><trkpt lat="39.209045" lon="16.1880767"><ele>1071.0</ele><time>2026-04-12T08:49:07.882Z</time></trkpt><trkpt lat="39.2091617" lon="16.1880867"><ele>1071.0</ele><time>2026-04-12T08:49:08.882Z</time></trkpt><trkpt lat="39.2093117" lon="16.1881"><ele>1071.0</ele><time>2026-04-12T08:49:09.882Z</time></trkpt><trkpt lat="39.2094217" lon="16.1881017"><ele>1071.0</ele><time>2026-04-12T08:49:10.881Z</time></trkpt><trkpt lat="39.2095383" lon="16.1881017"><ele>1071.0</ele><time>2026-04-12T08:49:11.882Z</time></trkpt><trkpt lat="39.2096383" lon="16.18809"><ele>1071.0</ele><time>2026-04-12T08:49:12.881Z</time></trkpt><trkpt lat="39.209725" lon="16.1880717"><ele>1071.0</ele><time>2026-04-12T08:49:13.882Z</time></trkpt><trkpt lat="39.2098333" lon="16.1880167"><ele>1069.8</ele><time>2026-04-12T08:49:14.882Z</time></trkpt><trkpt lat="39.2099417" lon="16.1879783"><ele>1068.6</ele><time>2026-04-12T08:49:15.882Z</time></trkpt><trkpt lat="39.2100633" lon="16.1879883"><ele>1067.4</ele><time>2026-04-12T08:49:16.881Z</time></trkpt><trkpt lat="39.210165" lon="16.187965"><ele>1066.2</ele><time>2026-04-12T08:49:17.882Z</time></trkpt><trkpt lat="39.21024" lon="16.18793"><ele>1065.0</ele><time>2026-04-12T08:49:18.882Z</time></trkpt><trkpt lat="39.2103117" lon="16.187895"><ele>1065.0</ele><time>2026-04-12T08:49:19.882Z</time></trkpt><trkpt lat="39.2103817" lon="16.1878583"><ele>1065.0</ele><time>2026-04-12T08:49:20.882Z</time></trkpt><trkpt lat="39.2104667" lon="16.1877317"><ele>1065.0</ele><time>2026-04-12T08:49:22.882Z</time></trkpt><trkpt lat="39.2105183" lon="16.1876517"><ele>1065.0</ele><time>2026-04-12T08:49:23.881Z</time></trkpt><trkpt lat="39.2105717" lon="16.187565"><ele>1065.0</ele><time>2026-04-12T08:49:24.882Z</time></trkpt><trkpt lat="39.2106283" lon="16.1874717"><ele>1065.0</ele><time>2026-04-12T08:49:25.881Z</time></trkpt><trkpt lat="39.2107" lon="16.18738"><ele>1065.0</ele><time>2026-04-12T08:49:26.882Z</time></trkpt><trkpt lat="39.210775" lon="16.1873133"><ele>1065.0</ele><time>2026-04-12T08:49:27.882Z</time></trkpt><trkpt lat="39.2108733" lon="16.1872683"><ele>1065.0</ele><time>2026-04-12T08:49:28.882Z</time></trkpt><trkpt lat="39.2109533" lon="16.1872383"><ele>1065.0</ele><time>2026-04-12T08:49:29.882Z</time></trkpt><trkpt lat="39.2110333" lon="16.1872567"><ele>1065.0</ele><time>2026-04-12T08:49:30.881Z</time></trkpt><trkpt lat="39.2111117" lon="16.1873033"><ele>1065.0</ele><time>2026-04-12T08:49:31.882Z</time></trkpt><trkpt lat="39.2111883" lon="16.1873617"><ele>1065.0</ele><time>2026-04-12T08:49:32.881Z</time></trkpt><trkpt lat="39.2112683" lon="16.1874567"><ele>1065.0</ele><time>2026-04-12T08:49:33.882Z</time></trkpt><trkpt lat="39.2113433" lon="16.187585"><ele>1065.0</ele><time>2026-04-12T08:49:34.882Z</time></trkpt><trkpt lat="39.2114217" lon="16.1876467"><ele>1064.4285714285716</ele><time>2026-04-12T08:49:35.882Z</time></trkpt><trkpt lat="39.2115033" lon="16.1876917"><ele>1063.857142857143</ele><time>2026-04-12T08:49:36.881Z</time></trkpt><trkpt lat="39.2115683" lon="16.187715"><ele>1063.2857142857142</ele><time>2026-04-12T08:49:37.882Z</time></trkpt><trkpt lat="39.211635" lon="16.18774"><ele>1062.7142857142858</ele><time>2026-04-12T08:49:38.882Z</time></trkpt><trkpt lat="39.211695" lon="16.1877733"><ele>1062.142857142857</ele><time>2026-04-12T08:49:39.882Z</time></trkpt><trkpt lat="39.2117533" lon="16.1878233"><ele>1061.5714285714287</ele><time>2026-04-12T08:49:40.881Z</time></trkpt><trkpt lat="39.2118083" lon="16.1878767"><ele>1061.0</ele><time>2026-04-12T08:49:41.882Z</time></trkpt><trkpt lat="39.2118533" lon="16.1879467"><ele>1061.0</ele><time>2026-04-12T08:49:42.882Z</time></trkpt><trkpt lat="39.2118983" lon="16.188025"><ele>1061.0</ele><time>2026-04-12T08:49:43.882Z</time></trkpt><trkpt lat="39.2119417" lon="16.1881267"><ele>1061.0</ele><time>2026-04-12T08:49:44.881Z</time></trkpt><trkpt lat="39.2119767" lon="16.18829"><ele>1061.0</ele><time>2026-04-12T08:49:45.882Z</time></trkpt><trkpt lat="39.2120367" lon="16.1884383"><ele>1061.0</ele><time>2026-04-12T08:49:46.882Z</time></trkpt><trkpt lat="39.2120883" lon="16.1885633"><ele>1060.5</ele><time>2026-04-12T08:49:47.882Z</time></trkpt><trkpt lat="39.2121333" lon="16.1886667"><ele>1060.0</ele><time>2026-04-12T08:49:48.882Z</time></trkpt><trkpt lat="39.2121783" lon="16.1887533"><ele>1059.5</ele><time>2026-04-12T08:49:49.882Z</time></trkpt><trkpt lat="39.21222" lon="16.18884"><ele>1059.0</ele><time>2026-04-12T08:49:50.882Z</time></trkpt><trkpt lat="39.212265" lon="16.1889283"><ele>1058.5</ele><time>2026-04-12T08:49:51.882Z</time></trkpt><trkpt lat="39.212315" lon="16.18905"><ele>1058.0</ele><time>2026-04-12T08:49:53.882Z</time></trkpt><trkpt lat="39.2123383" lon="16.1891717"><ele>1058.0</ele><time>2026-04-12T08:49:55.882Z</time></trkpt><trkpt lat="39.2123483" lon="16.18928"><ele>1058.0</ele><time>2026-04-12T08:49:58.882Z</time></trkpt><trkpt lat="39.2123483" lon="16.1893783"><ele>1058.0</ele><time>2026-04-12T08:50:00.881Z</time></trkpt><trkpt lat="39.2123583" lon="16.1894683"><ele>1058.0</ele><time>2026-04-12T08:50:01.882Z</time></trkpt><trkpt lat="39.2123783" lon="16.18955"><ele>1058.0</ele><time>2026-04-12T08:50:02.882Z</time></trkpt><trkpt lat="39.212425" lon="16.1896883"><ele>1058.0</ele><time>2026-04-12T08:50:04.882Z</time></trkpt><trkpt lat="39.21249" lon="16.1897367"><ele>1058.0</ele><time>2026-04-12T08:50:06.882Z</time></trkpt><trkpt lat="39.2125567" lon="16.1897417"><ele>1058.0</ele><time>2026-04-12T08:50:08.882Z</time></trkpt><trkpt lat="39.2126217" lon="16.1897467"><ele>1058.0</ele><time>2026-04-12T08:50:10.882Z</time></trkpt><trkpt lat="39.2127417" lon="16.1897317"><ele>1058.0</ele><time>2026-04-12T08:50:12.882Z</time></trkpt><trkpt lat="39.2128133" lon="16.1897383"><ele>1058.0</ele><time>2026-04-12T08:50:13.882Z</time></trkpt><trkpt lat="39.2129017" lon="16.1897417"><ele>1058.0</ele><time>2026-04-12T08:50:14.881Z</time></trkpt><trkpt lat="39.2129783" lon="16.1897667"><ele>1058.0</ele><time>2026-04-12T08:50:15.882Z</time></trkpt><trkpt lat="39.2130633" lon="16.189795"><ele>1058.0</ele><time>2026-04-12T08:50:16.882Z</time></trkpt><trkpt lat="39.2131417" lon="16.1898217"><ele>1058.0</ele><time>2026-04-12T08:50:17.882Z</time></trkpt><trkpt lat="39.21322" lon="16.1898383"><ele>1058.0</ele><time>2026-04-12T08:50:18.881Z</time></trkpt><trkpt lat="39.213295" lon="16.18984"><ele>1058.0</ele><time>2026-04-12T08:50:19.882Z</time></trkpt><trkpt lat="39.2133733" lon="16.1898217"><ele>1058.0</ele><time>2026-04-12T08:50:20.882Z</time></trkpt><trkpt lat="39.21345" lon="16.1898117"><ele>1056.0</ele><time>2026-04-12T08:50:21.881Z</time></trkpt><trkpt lat="39.21352" lon="16.1898083"><ele>1054.0</ele><time>2026-04-12T08:50:22.881Z</time></trkpt><trkpt lat="39.2136033" lon="16.189815"><ele>1052.0</ele><time>2026-04-12T08:50:23.882Z</time></trkpt><trkpt lat="39.2136767" lon="16.189825"><ele>1050.0</ele><time>2026-04-12T08:50:24.881Z</time></trkpt><trkpt lat="39.2137433" lon="16.1898433"><ele>1048.0</ele><time>2026-04-12T08:50:25.882Z</time></trkpt><trkpt lat="39.2138483" lon="16.18988"><ele>1046.0</ele><time>2026-04-12T08:50:27.881Z</time></trkpt><trkpt lat="39.2139383" lon="16.18994"><ele>1042.2</ele><time>2026-04-12T08:50:29.882Z</time></trkpt><trkpt lat="39.21403" lon="16.1900233"><ele>1038.3999999999999</ele><time>2026-04-12T08:50:31.882Z</time></trkpt><trkpt lat="39.2141317" lon="16.1901117"><ele>1034.6</ele><time>2026-04-12T08:50:33.881Z</time></trkpt><trkpt lat="39.2142317" lon="16.1901967"><ele>1030.8</ele><time>2026-04-12T08:50:35.881Z</time></trkpt><trkpt lat="39.2142967" lon="16.1902633"><ele>1027.0</ele><time>2026-04-12T08:50:37.882Z</time></trkpt><trkpt lat="39.214345" lon="16.1903283"><ele>1027.0</ele><time>2026-04-12T08:50:39.881Z</time></trkpt><trkpt lat="39.2144233" lon="16.1904083"><ele>1027.0</ele><time>2026-04-12T08:50:41.882Z</time></trkpt><trkpt lat="39.2145017" lon="16.1905067"><ele>1027.0</ele><time>2026-04-12T08:50:43.882Z</time></trkpt><trkpt lat="39.2145683" lon="16.1905683"><ele>1027.0</ele><time>2026-04-12T08:50:45.882Z</time></trkpt><trkpt lat="39.2146583" lon="16.1906283"><ele>1027.0</ele><time>2026-04-12T08:50:47.882Z</time></trkpt><trkpt lat="39.21475" lon="16.1907117"><ele>1026.6666666666665</ele><time>2026-04-12T08:50:49.882Z</time></trkpt><trkpt lat="39.2148167" lon="16.1908"><ele>1026.3333333333333</ele><time>2026-04-12T08:50:51.881Z</time></trkpt><trkpt lat="39.2148833" lon="16.1908633"><ele>1026.0</ele><time>2026-04-12T08:50:53.882Z</time></trkpt><trkpt lat="39.214865" lon="16.19076"><ele>1025.6666666666667</ele><time>2026-04-12T08:50:57.882Z</time></trkpt><trkpt lat="39.214935" lon="16.1907783"><ele>1025.3333333333335</ele><time>2026-04-12T08:51:00.882Z</time></trkpt><trkpt lat="39.21504" lon="16.1907633"><ele>1025.0</ele><time>2026-04-12T08:51:02.882Z</time></trkpt><trkpt lat="39.2151067" lon="16.1907633"><ele>1022.25</ele><time>2026-04-12T08:51:03.882Z</time></trkpt><trkpt lat="39.21521" lon="16.1907467"><ele>1019.5</ele><time>2026-04-12T08:51:04.882Z</time></trkpt><trkpt lat="39.2153183" lon="16.19072"><ele>1016.75</ele><time>2026-04-12T08:51:05.882Z</time></trkpt><trkpt lat="39.21544" lon="16.190675"><ele>1014.0</ele><time>2026-04-12T08:51:06.882Z</time></trkpt><trkpt lat="39.2155733" lon="16.190615"><ele>1009.6666666666667</ele><time>2026-04-12T08:51:07.881Z</time></trkpt><trkpt lat="39.2157117" lon="16.1905533"><ele>1005.3333333333334</ele><time>2026-04-12T08:51:08.882Z</time></trkpt><trkpt lat="39.2159367" lon="16.1904417"><ele>1001.0</ele><time>2026-04-12T08:51:09.882Z</time></trkpt><trkpt lat="39.2160433" lon="16.1904"><ele>1001.0</ele><time>2026-04-12T08:51:10.881Z</time></trkpt><trkpt lat="39.2161617" lon="16.1903717"><ele>1001.0</ele><time>2026-04-12T08:51:11.882Z</time></trkpt><trkpt lat="39.2162717" lon="16.1903533"><ele>1001.0</ele><time>2026-04-12T08:51:12.882Z</time></trkpt><trkpt lat="39.2163883" lon="16.1903433"><ele>1001.0</ele><time>2026-04-12T08:51:13.882Z</time></trkpt><trkpt lat="39.2165183" lon="16.1903317"><ele>1002.0</ele><time>2026-04-12T08:51:14.882Z</time></trkpt><trkpt lat="39.2166267" lon="16.1903233"><ele>1003.0</ele><time>2026-04-12T08:51:15.882Z</time></trkpt><trkpt lat="39.2167283" lon="16.1903183"><ele>1004.0</ele><time>2026-04-12T08:51:16.882Z</time></trkpt><trkpt lat="39.216885" lon="16.1902633"><ele>1005.0</ele><time>2026-04-12T08:51:18.882Z</time></trkpt><trkpt lat="39.2169783" lon="16.1902317"><ele>1005.0</ele><time>2026-04-12T08:51:19.881Z</time></trkpt><trkpt lat="39.2170717" lon="16.1902"><ele>1005.0</ele><time>2026-04-12T08:51:20.882Z</time></trkpt><trkpt lat="39.2171617" lon="16.1901567"><ele>1005.0</ele><time>2026-04-12T08:51:21.882Z</time></trkpt><trkpt lat="39.2172517" lon="16.190095"><ele>1005.0</ele><time>2026-04-12T08:51:22.882Z</time></trkpt><trkpt lat="39.2173367" lon="16.1900183"><ele>1005.0</ele><time>2026-04-12T08:51:23.882Z</time></trkpt><trkpt lat="39.2173983" lon="16.189905"><ele>1002.75</ele><time>2026-04-12T08:51:24.882Z</time></trkpt><trkpt lat="39.2174617" lon="16.1897817"><ele>1000.5</ele><time>2026-04-12T08:51:25.882Z</time></trkpt><trkpt lat="39.21752" lon="16.1895533"><ele>998.25</ele><time>2026-04-12T08:51:26.881Z</time></trkpt><trkpt lat="39.2176017" lon="16.1894583"><ele>996.0</ele><time>2026-04-12T08:51:27.882Z</time></trkpt><trkpt lat="39.21768" lon="16.1893717"><ele>996.0</ele><time>2026-04-12T08:51:28.881Z</time></trkpt><trkpt lat="39.2177667" lon="16.1892933"><ele>995.9999999999999</ele><time>2026-04-12T08:51:29.882Z</time></trkpt><trkpt lat="39.2178667" lon="16.189245"><ele>995.9999999999999</ele><time>2026-04-12T08:51:30.881Z</time></trkpt><trkpt lat="39.2179517" lon="16.189185"><ele>996.0</ele><time>2026-04-12T08:51:31.882Z</time></trkpt><trkpt lat="39.218035" lon="16.1891517"><ele>996.0</ele><time>2026-04-12T08:51:32.882Z</time></trkpt><trkpt lat="39.2181283" lon="16.18919"><ele>996.3333333333334</ele><time>2026-04-12T08:51:33.882Z</time></trkpt><trkpt lat="39.218195" lon="16.1892"><ele>996.6666666666667</ele><time>2026-04-12T08:51:34.882Z</time></trkpt><trkpt lat="39.218275" lon="16.189255"><ele>997.0</ele><time>2026-04-12T08:51:35.881Z</time></trkpt><trkpt lat="39.2183717" lon="16.1893017"><ele>997.3333333333334</ele><time>2026-04-12T08:51:36.882Z</time></trkpt><trkpt lat="39.218445" lon="16.1893333"><ele>997.6666666666667</ele><time>2026-04-12T08:51:37.882Z</time></trkpt><trkpt lat="39.2185317" lon="16.18938"><ele>998.0</ele><time>2026-04-12T08:51:38.881Z</time></trkpt><trkpt lat="39.2185967" lon="16.1894317"><ele>998.0000000000001</ele><time>2026-04-12T08:51:39.882Z</time></trkpt><trkpt lat="39.2186683" lon="16.1894817"><ele>998.0</ele><time>2026-04-12T08:51:40.881Z</time></trkpt><trkpt lat="39.2187433" lon="16.18953"><ele>998.0</ele><time>2026-04-12T08:51:41.882Z</time></trkpt><trkpt lat="39.21882" lon="16.1895883"><ele>998.0</ele><time>2026-04-12T08:51:42.881Z</time></trkpt><trkpt lat="39.2188967" lon="16.18965"><ele>998.0000000000001</ele><time>2026-04-12T08:51:43.882Z</time></trkpt><trkpt lat="39.218985" lon="16.18971"><ele>998.0</ele><time>2026-04-12T08:51:44.881Z</time></trkpt><trkpt lat="39.2190733" lon="16.1897583"><ele>998.2</ele><time>2026-04-12T08:51:45.882Z</time></trkpt><trkpt lat="39.219145" lon="16.1898017"><ele>998.4</ele><time>2026-04-12T08:51:46.882Z</time></trkpt><trkpt lat="39.21924" lon="16.1898983"><ele>998.6000000000001</ele><time>2026-04-12T08:51:48.882Z</time></trkpt><trkpt lat="39.2193517" lon="16.18999"><ele>998.8000000000001</ele><time>2026-04-12T08:51:50.882Z</time></trkpt><trkpt lat="39.219405" lon="16.1900533"><ele>999.0</ele><time>2026-04-12T08:51:51.882Z</time></trkpt><trkpt lat="39.21945" lon="16.19015"><ele>999.0</ele><time>2026-04-12T08:51:52.882Z</time></trkpt><trkpt lat="39.2194967" lon="16.1902567"><ele>999.0000000000001</ele><time>2026-04-12T08:51:53.882Z</time></trkpt><trkpt lat="39.21956" lon="16.1903417"><ele>999.0000000000001</ele><time>2026-04-12T08:51:54.881Z</time></trkpt><trkpt lat="39.2195583" lon="16.1904733"><ele>999.0</ele><time>2026-04-12T08:51:55.882Z</time></trkpt><trkpt lat="39.2195717" lon="16.1905717"><ele>999.0</ele><time>2026-04-12T08:51:56.881Z</time></trkpt><trkpt lat="39.21957" lon="16.1907017"><ele>998.0</ele><time>2026-04-12T08:51:57.882Z</time></trkpt><trkpt lat="39.2195717" lon="16.1908217"><ele>997.0000000000001</ele><time>2026-04-12T08:51:58.882Z</time></trkpt><trkpt lat="39.2196033" lon="16.1909033"><ele>996.0000000000001</ele><time>2026-04-12T08:51:59.882Z</time></trkpt><trkpt lat="39.2196433" lon="16.19097"><ele>995.0</ele><time>2026-04-12T08:52:00.881Z</time></trkpt><trkpt lat="39.2197367" lon="16.19104"><ele>994.0</ele><time>2026-04-12T08:52:02.881Z</time></trkpt><trkpt lat="39.219845" lon="16.191105"><ele>993.9999999999999</ele><time>2026-04-12T08:52:04.881Z</time></trkpt><trkpt lat="39.2199617" lon="16.1911817"><ele>994.0</ele><time>2026-04-12T08:52:06.882Z</time></trkpt><trkpt lat="39.2200283" lon="16.1912133"><ele>994.0</ele><time>2026-04-12T08:52:07.881Z</time></trkpt><trkpt lat="39.2201033" lon="16.1912167"><ele>994.0</ele><time>2026-04-12T08:52:08.882Z</time></trkpt><trkpt lat="39.22018" lon="16.1912183"><ele>993.9999999999999</ele><time>2026-04-12T08:52:09.882Z</time></trkpt><trkpt lat="39.220255" lon="16.1912033"><ele>994.0</ele><time>2026-04-12T08:52:10.881Z</time></trkpt><trkpt lat="39.2203517" lon="16.1911467"><ele>994.0</ele><time>2026-04-12T08:52:11.882Z</time></trkpt><trkpt lat="39.2204083" lon="16.1910617"><ele>994.0000000000001</ele><time>2026-04-12T08:52:13.882Z</time></trkpt><trkpt lat="39.2204633" lon="16.1911517"><ele>994.0000000000001</ele><time>2026-04-12T08:52:15.882Z</time></trkpt><trkpt lat="39.2204617" lon="16.1912433"><ele>994.0</ele><time>2026-04-12T08:52:16.881Z</time></trkpt><trkpt lat="39.2204533" lon="16.191405"><ele>994.0</ele><time>2026-04-12T08:52:17.881Z</time></trkpt><trkpt lat="39.22048" lon="16.1915217"><ele>990.9999999999999</ele><time>2026-04-12T08:52:18.882Z</time></trkpt><trkpt lat="39.2205" lon="16.1916367"><ele>988.0</ele><time>2026-04-12T08:52:19.882Z</time></trkpt><trkpt lat="39.2205417" lon="16.19175"><ele>985.0</ele><time>2026-04-12T08:52:20.882Z</time></trkpt><trkpt lat="39.22058" lon="16.19184"><ele>982.0</ele><time>2026-04-12T08:52:21.882Z</time></trkpt><trkpt lat="39.22064" lon="16.191925"><ele>978.9999999999999</ele><time>2026-04-12T08:52:22.882Z</time></trkpt><trkpt lat="39.2206967" lon="16.1919983"><ele>976.0</ele><time>2026-04-12T08:52:23.882Z</time></trkpt><trkpt lat="39.2207683" lon="16.19209"><ele>976.0</ele><time>2026-04-12T08:52:24.881Z</time></trkpt><trkpt lat="39.2208767" lon="16.1921383"><ele>975.9999999999999</ele><time>2026-04-12T08:52:26.881Z</time></trkpt><trkpt lat="39.2209917" lon="16.1921683"><ele>975.9999999999999</ele><time>2026-04-12T08:52:28.881Z</time></trkpt><trkpt lat="39.2211067" lon="16.1921983"><ele>976.0</ele><time>2026-04-12T08:52:30.881Z</time></trkpt><trkpt lat="39.22117" lon="16.1921933"><ele>976.0</ele><time>2026-04-12T08:52:31.882Z</time></trkpt><trkpt lat="39.2212933" lon="16.1922"><ele>976.0</ele><time>2026-04-12T08:52:33.882Z</time></trkpt><trkpt lat="39.221355" lon="16.1921833"><ele>975.9999999999999</ele><time>2026-04-12T08:52:34.881Z</time></trkpt><trkpt lat="39.2214767" lon="16.1921583"><ele>975.9999999999999</ele><time>2026-04-12T08:52:36.882Z</time></trkpt><trkpt lat="39.221595" lon="16.1921517"><ele>976.0</ele><time>2026-04-12T08:52:38.882Z</time></trkpt><trkpt lat="39.2216917" lon="16.1921017"><ele>976.0</ele><time>2026-04-12T08:52:40.882Z</time></trkpt><trkpt lat="39.22176" lon="16.1920367"><ele>974.1999999999999</ele><time>2026-04-12T08:52:42.882Z</time></trkpt><trkpt lat="39.221865" lon="16.192005"><ele>972.3999999999999</ele><time>2026-04-12T08:52:44.881Z</time></trkpt><trkpt lat="39.22192" lon="16.1919583"><ele>970.6</ele><time>2026-04-12T08:52:45.882Z</time></trkpt><trkpt lat="39.2220333" lon="16.1918967"><ele>968.8</ele><time>2026-04-12T08:52:47.881Z</time></trkpt><trkpt lat="39.222115" lon="16.1918017"><ele>967.0</ele><time>2026-04-12T08:52:49.882Z</time></trkpt><trkpt lat="39.222175" lon="16.1916917"><ele>967.0</ele><time>2026-04-12T08:52:51.882Z</time></trkpt><trkpt lat="39.22227" lon="16.1916333"><ele>967.0</ele><time>2026-04-12T08:52:53.881Z</time></trkpt><trkpt lat="39.22237" lon="16.1915767"><ele>967.0</ele><time>2026-04-12T08:52:55.882Z</time></trkpt><trkpt lat="39.2224617" lon="16.1915033"><ele>967.0</ele><time>2026-04-12T08:52:57.882Z</time></trkpt><trkpt lat="39.2225367" lon="16.1915833"><ele>967.0</ele><time>2026-04-12T08:53:23.882Z</time></trkpt><trkpt lat="39.2226017" lon="16.1915883"><ele>964.3333333333333</ele><time>2026-04-12T08:53:26.882Z</time></trkpt><trkpt lat="39.2226483" lon="16.1917183"><ele>961.6666666666666</ele><time>2026-04-12T08:53:28.882Z</time></trkpt><trkpt lat="39.222695" lon="16.1917967"><ele>959.0</ele><time>2026-04-12T08:53:30.881Z</time></trkpt><trkpt lat="39.222765" lon="16.1918383"><ele>956.3333333333333</ele><time>2026-04-12T08:53:33.882Z</time></trkpt><trkpt lat="39.2227933" lon="16.191735"><ele>953.6666666666666</ele><time>2026-04-12T08:53:36.882Z</time></trkpt><trkpt lat="39.222835" lon="16.1916233"><ele>951.0</ele><time>2026-04-12T08:53:38.882Z</time></trkpt><trkpt lat="39.2228733" lon="16.1915517"><ele>951.0</ele><time>2026-04-12T08:53:40.882Z</time></trkpt><trkpt lat="39.2229883" lon="16.19154"><ele>951.0</ele><time>2026-04-12T08:53:43.882Z</time></trkpt><trkpt lat="39.2230833" lon="16.1915117"><ele>951.0</ele><time>2026-04-12T08:53:45.882Z</time></trkpt><trkpt lat="39.223185" lon="16.1914417"><ele>951.0</ele><time>2026-04-12T08:53:47.882Z</time></trkpt><trkpt lat="39.2232983" lon="16.191355"><ele>951.4</ele><time>2026-04-12T08:53:49.882Z</time></trkpt><trkpt lat="39.2233683" lon="16.1912867"><ele>951.8</ele><time>2026-04-12T08:53:50.882Z</time></trkpt><trkpt lat="39.2234433" lon="16.1912083"><ele>952.1999999999999</ele><time>2026-04-12T08:53:51.882Z</time></trkpt><trkpt lat="39.22355" lon="16.1911017"><ele>952.5999999999999</ele><time>2026-04-12T08:53:52.882Z</time></trkpt><trkpt lat="39.2236267" lon="16.1910417"><ele>953.0</ele><time>2026-04-12T08:53:53.881Z</time></trkpt><trkpt lat="39.2237417" lon="16.1909933"><ele>953.0000000000001</ele><time>2026-04-12T08:53:54.881Z</time></trkpt><trkpt lat="39.2237983" lon="16.1909133"><ele>953.0</ele><time>2026-04-12T08:53:55.881Z</time></trkpt><trkpt lat="39.2238283" lon="16.1907933"><ele>953.0</ele><time>2026-04-12T08:53:56.882Z</time></trkpt><trkpt lat="39.2238467" lon="16.1907033"><ele>953.0</ele><time>2026-04-12T08:53:57.882Z</time></trkpt><trkpt lat="39.223855" lon="16.1906133"><ele>953.0000000000001</ele><time>2026-04-12T08:53:58.881Z</time></trkpt><trkpt lat="39.223865" lon="16.190525"><ele>953.0</ele><time>2026-04-12T08:53:59.881Z</time></trkpt><trkpt lat="39.2238467" lon="16.1904083"><ele>954.1666666666667</ele><time>2026-04-12T08:54:00.882Z</time></trkpt><trkpt lat="39.2237933" lon="16.1902933"><ele>955.3333333333334</ele><time>2026-04-12T08:54:01.881Z</time></trkpt><trkpt lat="39.223755" lon="16.190205"><ele>956.5</ele><time>2026-04-12T08:54:02.882Z</time></trkpt><trkpt lat="39.2237183" lon="16.1901317"><ele>957.6666666666667</ele><time>2026-04-12T08:54:03.882Z</time></trkpt><trkpt lat="39.223715" lon="16.1900133"><ele>958.8333333333334</ele><time>2026-04-12T08:54:05.881Z</time></trkpt><trkpt lat="39.2237517" lon="16.189915"><ele>960.0</ele><time>2026-04-12T08:54:07.881Z</time></trkpt><trkpt lat="39.2238317" lon="16.1898517"><ele>960.0</ele><time>2026-04-12T08:54:09.882Z</time></trkpt><trkpt lat="39.223915" lon="16.1898983"><ele>960.0</ele><time>2026-04-12T08:54:10.881Z</time></trkpt><trkpt lat="39.2240383" lon="16.1898633"><ele>960.0</ele><time>2026-04-12T08:54:12.881Z</time></trkpt><trkpt lat="39.22415" lon="16.1898083"><ele>960.0</ele><time>2026-04-12T08:54:14.881Z</time></trkpt><trkpt lat="39.2242133" lon="16.1898"><ele>960.0</ele><time>2026-04-12T08:54:15.882Z</time></trkpt><trkpt lat="39.2242933" lon="16.1898417"><ele>956.8333333333334</ele><time>2026-04-12T08:54:16.881Z</time></trkpt><trkpt lat="39.2243833" lon="16.189885"><ele>953.6666666666667</ele><time>2026-04-12T08:54:17.882Z</time></trkpt><trkpt lat="39.2244633" lon="16.189915"><ele>950.5</ele><time>2026-04-12T08:54:18.882Z</time></trkpt><trkpt lat="39.224585" lon="16.1899533"><ele>947.3333333333334</ele><time>2026-04-12T08:54:20.882Z</time></trkpt><trkpt lat="39.22465" lon="16.1899683"><ele>944.1666666666667</ele><time>2026-04-12T08:54:21.882Z</time></trkpt><trkpt lat="39.22472" lon="16.1899933"><ele>941.0</ele><time>2026-04-12T08:54:22.882Z</time></trkpt><trkpt lat="39.2248067" lon="16.1899467"><ele>938.5000000000001</ele><time>2026-04-12T08:54:23.882Z</time></trkpt><trkpt lat="39.2248967" lon="16.1899333"><ele>936.0</ele><time>2026-04-12T08:54:24.882Z</time></trkpt><trkpt lat="39.2249733" lon="16.1899483"><ele>933.5</ele><time>2026-04-12T08:54:25.881Z</time></trkpt><trkpt lat="39.2250483" lon="16.1899683"><ele>931.0</ele><time>2026-04-12T08:54:26.882Z</time></trkpt><trkpt lat="39.2251217" lon="16.189985"><ele>928.5000000000001</ele><time>2026-04-12T08:54:27.882Z</time></trkpt><trkpt lat="39.225195" lon="16.1900183"><ele>926.0</ele><time>2026-04-12T08:54:28.882Z</time></trkpt><trkpt lat="39.2252717" lon="16.1900433"><ele>926.0000000000001</ele><time>2026-04-12T08:54:29.882Z</time></trkpt><trkpt lat="39.2253533" lon="16.19007"><ele>926.0</ele><time>2026-04-12T08:54:30.882Z</time></trkpt><trkpt lat="39.22546" lon="16.1900783"><ele>926.0</ele><time>2026-04-12T08:54:31.882Z</time></trkpt><trkpt lat="39.225555" lon="16.1900867"><ele>926.0</ele><time>2026-04-12T08:54:32.881Z</time></trkpt><trkpt lat="39.2256233" lon="16.1900983"><ele>926.0000000000001</ele><time>2026-04-12T08:54:33.882Z</time></trkpt><trkpt lat="39.2256767" lon="16.1900317"><ele>926.0</ele><time>2026-04-12T08:54:34.882Z</time></trkpt><trkpt lat="39.225735" lon="16.1899733"><ele>924.8</ele><time>2026-04-12T08:54:35.881Z</time></trkpt><trkpt lat="39.225795" lon="16.1899233"><ele>923.5999999999999</ele><time>2026-04-12T08:54:36.882Z</time></trkpt><trkpt lat="39.22593" lon="16.1898533"><ele>922.4</ele><time>2026-04-12T08:54:38.882Z</time></trkpt><trkpt lat="39.22601" lon="16.1898433"><ele>921.2</ele><time>2026-04-12T08:54:39.882Z</time></trkpt><trkpt lat="39.2260833" lon="16.189845"><ele>920.0</ele><time>2026-04-12T08:54:40.882Z</time></trkpt><trkpt lat="39.2262067" lon="16.1898367"><ele>919.4</ele><time>2026-04-12T08:54:42.881Z</time></trkpt><trkpt lat="39.2263267" lon="16.1898233"><ele>918.8</ele><time>2026-04-12T08:54:44.882Z</time></trkpt><trkpt lat="39.2264333" lon="16.1898233"><ele>918.2</ele><time>2026-04-12T08:54:46.882Z</time></trkpt><trkpt lat="39.2264983" lon="16.1898217"><ele>917.6</ele><time>2026-04-12T08:54:47.881Z</time></trkpt><trkpt lat="39.2266183" lon="16.1898267"><ele>917.0</ele><time>2026-04-12T08:54:49.881Z</time></trkpt><trkpt lat="39.2267233" lon="16.189825"><ele>916.6666666666667</ele><time>2026-04-12T08:54:51.881Z</time></trkpt><trkpt lat="39.2268083" lon="16.1898383"><ele>916.3333333333334</ele><time>2026-04-12T08:54:52.882Z</time></trkpt><trkpt lat="39.2268983" lon="16.1898317"><ele>916.0</ele><time>2026-04-12T08:54:54.881Z</time></trkpt><trkpt lat="39.226925" lon="16.189915"><ele>915.6666666666667</ele><time>2026-04-12T08:54:57.882Z</time></trkpt><trkpt lat="39.226935" lon="16.19"><ele>915.3333333333334</ele><time>2026-04-12T08:55:00.882Z</time></trkpt><trkpt lat="39.2270117" lon="16.190045"><ele>915.0</ele><time>2026-04-12T08:55:04.882Z</time></trkpt><trkpt lat="39.2270983" lon="16.1901083"><ele>914.6</ele><time>2026-04-12T08:55:06.881Z</time></trkpt><trkpt lat="39.22716" lon="16.190145"><ele>914.2</ele><time>2026-04-12T08:55:07.881Z</time></trkpt><trkpt lat="39.22726" lon="16.19021"><ele>913.8</ele><time>2026-04-12T08:55:08.882Z</time></trkpt><trkpt lat="39.227375" lon="16.190295"><ele>913.4</ele><time>2026-04-12T08:55:09.882Z</time></trkpt><trkpt lat="39.2274517" lon="16.1903567"><ele>913.0</ele><time>2026-04-12T08:55:10.882Z</time></trkpt><trkpt lat="39.2275483" lon="16.1904233"><ele>912.0</ele><time>2026-04-12T08:55:11.882Z</time></trkpt><trkpt lat="39.2276417" lon="16.1905"><ele>911.0</ele><time>2026-04-12T08:55:12.882Z</time></trkpt><trkpt lat="39.227735" lon="16.1905717"><ele>910.0</ele><time>2026-04-12T08:55:13.881Z</time></trkpt><trkpt lat="39.2278333" lon="16.1906367"><ele>909.0</ele><time>2026-04-12T08:55:14.882Z</time></trkpt><trkpt lat="39.2279367" lon="16.1907133"><ele>908.0</ele><time>2026-04-12T08:55:15.881Z</time></trkpt><trkpt lat="39.2280517" lon="16.190785"><ele>913.0</ele><time>2026-04-12T08:55:16.882Z</time></trkpt><trkpt lat="39.2281683" lon="16.1908567"><ele>918.0</ele><time>2026-04-12T08:55:17.882Z</time></trkpt><trkpt lat="39.2282783" lon="16.190945"><ele>923.0</ele><time>2026-04-12T08:55:18.882Z</time></trkpt><trkpt lat="39.2283833" lon="16.1910317"><ele>928.0</ele><time>2026-04-12T08:55:19.881Z</time></trkpt><trkpt lat="39.2284783" lon="16.1911233"><ele>928.0</ele><time>2026-04-12T08:55:20.882Z</time></trkpt><trkpt lat="39.2285583" lon="16.1912067"><ele>928.0</ele><time>2026-04-12T08:55:21.881Z</time></trkpt><trkpt lat="39.22864" lon="16.1913"><ele>928.0</ele><time>2026-04-12T08:55:22.882Z</time></trkpt><trkpt lat="39.2287267" lon="16.1914017"><ele>928.0</ele><time>2026-04-12T08:55:23.882Z</time></trkpt><trkpt lat="39.2288" lon="16.19149"><ele>928.0</ele><time>2026-04-12T08:55:24.882Z</time></trkpt><trkpt lat="39.22888" lon="16.1915683"><ele>928.4</ele><time>2026-04-12T08:55:25.882Z</time></trkpt><trkpt lat="39.2289683" lon="16.191655"><ele>928.8</ele><time>2026-04-12T08:55:26.882Z</time></trkpt><trkpt lat="39.22905" lon="16.191705"><ele>929.2</ele><time>2026-04-12T08:55:27.881Z</time></trkpt><trkpt lat="39.2291233" lon="16.1917267"><ele>929.6</ele><time>2026-04-12T08:55:28.882Z</time></trkpt><trkpt lat="39.2292167" lon="16.1917717"><ele>930.0</ele><time>2026-04-12T08:55:29.881Z</time></trkpt><trkpt lat="39.2293033" lon="16.191805"><ele>930.0</ele><time>2026-04-12T08:55:30.882Z</time></trkpt><trkpt lat="39.229385" lon="16.19186"><ele>930.0</ele><time>2026-04-12T08:55:31.882Z</time></trkpt><trkpt lat="39.2294617" lon="16.1919117"><ele>930.0</ele><time>2026-04-12T08:55:32.882Z</time></trkpt><trkpt lat="39.2295433" lon="16.191965"><ele>930.0</ele><time>2026-04-12T08:55:33.881Z</time></trkpt><trkpt lat="39.2296183" lon="16.19202"><ele>930.0</ele><time>2026-04-12T08:55:34.881Z</time></trkpt><trkpt lat="39.2296917" lon="16.1920833"><ele>930.0</ele><time>2026-04-12T08:55:35.882Z</time></trkpt><trkpt lat="39.22977" lon="16.1921267"><ele>929.6666666666666</ele><time>2026-04-12T08:55:36.882Z</time></trkpt><trkpt lat="39.2298483" lon="16.1921717"><ele>929.3333333333333</ele><time>2026-04-12T08:55:37.881Z</time></trkpt><trkpt lat="39.2299233" lon="16.1922"><ele>929.0</ele><time>2026-04-12T08:55:38.882Z</time></trkpt><trkpt lat="39.2300133" lon="16.1922183"><ele>928.6666666666666</ele><time>2026-04-12T08:55:39.882Z</time></trkpt><trkpt lat="39.2300983" lon="16.1922383"><ele>928.3333333333333</ele><time>2026-04-12T08:55:40.882Z</time></trkpt><trkpt lat="39.230175" lon="16.19229"><ele>928.0</ele><time>2026-04-12T08:55:41.882Z</time></trkpt><trkpt lat="39.230245" lon="16.1923183"><ele>927.9999999999999</ele><time>2026-04-12T08:55:42.882Z</time></trkpt><trkpt lat="39.2303233" lon="16.19233"><ele>928.0</ele><time>2026-04-12T08:55:43.882Z</time></trkpt><trkpt lat="39.2303967" lon="16.1923167"><ele>928.0</ele><time>2026-04-12T08:55:44.881Z</time></trkpt><trkpt lat="39.2304633" lon="16.1923267"><ele>928.0</ele><time>2026-04-12T08:55:45.882Z</time></trkpt><trkpt lat="39.230535" lon="16.192315"><ele>927.9999999999999</ele><time>2026-04-12T08:55:46.882Z</time></trkpt><trkpt lat="39.2306517" lon="16.192255"><ele>928.0</ele><time>2026-04-12T08:55:48.882Z</time></trkpt><trkpt lat="39.2307733" lon="16.19219"><ele>924.8</ele><time>2026-04-12T08:55:49.882Z</time></trkpt><trkpt lat="39.2308717" lon="16.192125"><ele>921.5999999999999</ele><time>2026-04-12T08:55:50.882Z</time></trkpt><trkpt lat="39.2309833" lon="16.1921233"><ele>918.4000000000001</ele><time>2026-04-12T08:55:51.881Z</time></trkpt><trkpt lat="39.2310683" lon="16.1921217"><ele>915.2</ele><time>2026-04-12T08:55:52.882Z</time></trkpt><trkpt lat="39.231145" lon="16.1921017"><ele>912.0</ele><time>2026-04-12T08:55:53.882Z</time></trkpt><trkpt lat="39.231235" lon="16.1921433"><ele>912.0</ele><time>2026-04-12T08:55:55.881Z</time></trkpt><trkpt lat="39.2312283" lon="16.19206"><ele>912.0</ele><time>2026-04-12T08:56:00.882Z</time></trkpt><trkpt lat="39.2311933" lon="16.1919883"><ele>912.0</ele><time>2026-04-12T08:56:02.881Z</time></trkpt><trkpt lat="39.2311817" lon="16.1918767"><ele>912.0</ele><time>2026-04-12T08:56:04.881Z</time></trkpt><trkpt lat="39.231145" lon="16.1917933"><ele>912.0</ele><time>2026-04-12T08:56:07.882Z</time></trkpt><trkpt lat="39.2310767" lon="16.1917567"><ele>912.0</ele><time>2026-04-12T08:56:10.882Z</time></trkpt><trkpt lat="39.2309967" lon="16.1916917"><ele>912.0</ele><time>2026-04-12T08:56:12.881Z</time></trkpt><trkpt lat="39.23095" lon="16.191625"><ele>912.0</ele><time>2026-04-12T08:56:14.882Z</time></trkpt><trkpt lat="39.230895" lon="16.1915517"><ele>912.0</ele><time>2026-04-12T08:56:16.882Z</time></trkpt><trkpt lat="39.2308417" lon="16.1914733"><ele>912.0</ele><time>2026-04-12T08:56:18.881Z</time></trkpt><trkpt lat="39.2307683" lon="16.19137"><ele>912.0</ele><time>2026-04-12T08:56:20.881Z</time></trkpt><trkpt lat="39.2306817" lon="16.1912083"><ele>911.8</ele><time>2026-04-12T08:56:22.881Z</time></trkpt><trkpt lat="39.230685" lon="16.1910933"><ele>911.6</ele><time>2026-04-12T08:56:23.881Z</time></trkpt><trkpt lat="39.2307" lon="16.1909817"><ele>911.3999999999999</ele><time>2026-04-12T08:56:24.881Z</time></trkpt><trkpt lat="39.2306967" lon="16.190865"><ele>911.1999999999999</ele><time>2026-04-12T08:56:25.882Z</time></trkpt><trkpt lat="39.2306217" lon="16.1907517"><ele>911.0</ele><time>2026-04-12T08:56:27.881Z</time></trkpt><trkpt lat="39.2305883" lon="16.1906233"><ele>913.8</ele><time>2026-04-12T08:56:29.881Z</time></trkpt><trkpt lat="39.230515" lon="16.1905417"><ele>916.5999999999999</ele><time>2026-04-12T08:56:31.881Z</time></trkpt><trkpt lat="39.2304717" lon="16.1903983"><ele>919.4</ele><time>2026-04-12T08:56:33.882Z</time></trkpt><trkpt lat="39.2304683" lon="16.190275"><ele>922.2</ele><time>2026-04-12T08:56:34.882Z</time></trkpt><trkpt lat="39.2304617" lon="16.190155"><ele>925.0</ele><time>2026-04-12T08:56:35.881Z</time></trkpt><trkpt lat="39.230435" lon="16.1900467"><ele>924.9999999999999</ele><time>2026-04-12T08:56:36.882Z</time></trkpt><trkpt lat="39.230385" lon="16.18997"><ele>925.0</ele><time>2026-04-12T08:56:37.881Z</time></trkpt><trkpt lat="39.2303383" lon="16.1899017"><ele>925.0</ele><time>2026-04-12T08:56:38.882Z</time></trkpt><trkpt lat="39.2302867" lon="16.1898367"><ele>925.0</ele><time>2026-04-12T08:56:39.882Z</time></trkpt><trkpt lat="39.2302367" lon="16.1897383"><ele>924.9999999999999</ele><time>2026-04-12T08:56:40.882Z</time></trkpt><trkpt lat="39.2301667" lon="16.1896333"><ele>925.0</ele><time>2026-04-12T08:56:41.882Z</time></trkpt><trkpt lat="39.2301083" lon="16.189545"><ele>922.4285714285714</ele><time>2026-04-12T08:56:42.882Z</time></trkpt><trkpt lat="39.2300583" lon="16.1894517"><ele>919.8571428571429</ele><time>2026-04-12T08:56:43.882Z</time></trkpt><trkpt lat="39.23003" lon="16.1893717"><ele>917.2857142857143</ele><time>2026-04-12T08:56:44.881Z</time></trkpt><trkpt lat="39.22999" lon="16.1892983"><ele>914.7142857142858</ele><time>2026-04-12T08:56:45.882Z</time></trkpt><trkpt lat="39.22995" lon="16.1892167"><ele>912.1428571428571</ele><time>2026-04-12T08:56:46.882Z</time></trkpt><trkpt lat="39.229905" lon="16.1891333"><ele>909.5714285714287</ele><time>2026-04-12T08:56:47.881Z</time></trkpt><trkpt lat="39.229865" lon="16.18907"><ele>907.0000000000001</ele><time>2026-04-12T08:56:48.882Z</time></trkpt><trkpt lat="39.229805" lon="16.1890033"><ele>905.2</ele><time>2026-04-12T08:56:49.882Z</time></trkpt><trkpt lat="39.2296917" lon="16.1888967"><ele>903.4000000000001</ele><time>2026-04-12T08:56:51.881Z</time></trkpt><trkpt lat="39.2296183" lon="16.18884"><ele>901.5999999999999</ele><time>2026-04-12T08:56:52.881Z</time></trkpt><trkpt lat="39.2295417" lon="16.1887917"><ele>899.8</ele><time>2026-04-12T08:56:53.882Z</time></trkpt><trkpt lat="39.2294767" lon="16.1887333"><ele>898.0</ele><time>2026-04-12T08:56:54.881Z</time></trkpt><trkpt lat="39.2294033" lon="16.18869"><ele>898.0</ele><time>2026-04-12T08:56:55.881Z</time></trkpt><trkpt lat="39.2293033" lon="16.1886833"><ele>898.0</ele><time>2026-04-12T08:56:56.882Z</time></trkpt><trkpt lat="39.2292333" lon="16.188675"><ele>898.0</ele><time>2026-04-12T08:56:57.881Z</time></trkpt><trkpt lat="39.2291383" lon="16.1886333"><ele>898.0</ele><time>2026-04-12T08:56:59.881Z</time></trkpt><trkpt lat="39.2290667" lon="16.1885267"><ele>898.0</ele><time>2026-04-12T08:57:01.881Z</time></trkpt><trkpt lat="39.2291117" lon="16.1884317"><ele>898.0</ele><time>2026-04-12T08:57:03.882Z</time></trkpt><trkpt lat="39.229175" lon="16.18835"><ele>898.0</ele><time>2026-04-12T08:57:05.881Z</time></trkpt><trkpt lat="39.229255" lon="16.1882933"><ele>898.0</ele><time>2026-04-12T08:57:07.882Z</time></trkpt><trkpt lat="39.2293067" lon="16.1881917"><ele>898.0</ele><time>2026-04-12T08:57:09.882Z</time></trkpt><trkpt lat="39.2293967" lon="16.1880633"><ele>898.0</ele><time>2026-04-12T08:57:11.882Z</time></trkpt><trkpt lat="39.229435" lon="16.1879533"><ele>894.5999999999999</ele><time>2026-04-12T08:57:13.882Z</time></trkpt><trkpt lat="39.22954" lon="16.188005"><ele>891.1999999999999</ele><time>2026-04-12T08:57:15.882Z</time></trkpt><trkpt lat="39.2296017" lon="16.1880383"><ele>887.8</ele><time>2026-04-12T08:57:16.882Z</time></trkpt><trkpt lat="39.22971" lon="16.1880583"><ele>884.4</ele><time>2026-04-12T08:57:18.882Z</time></trkpt><trkpt lat="39.2297717" lon="16.18803"><ele>881.0</ele><time>2026-04-12T08:57:20.882Z</time></trkpt><trkpt lat="39.2296983" lon="16.1879367"><ele>881.0</ele><time>2026-04-12T08:57:23.881Z</time></trkpt><trkpt lat="39.2296333" lon="16.1878617"><ele>881.0</ele><time>2026-04-12T08:57:25.881Z</time></trkpt><trkpt lat="39.2295217" lon="16.1877817"><ele>881.0</ele><time>2026-04-12T08:57:27.881Z</time></trkpt><trkpt lat="39.2294083" lon="16.187685"><ele>881.0</ele><time>2026-04-12T08:57:28.882Z</time></trkpt><trkpt lat="39.2293217" lon="16.187585"><ele>881.0000000000001</ele><time>2026-04-12T08:57:29.882Z</time></trkpt><trkpt lat="39.2292417" lon="16.187535"><ele>881.0</ele><time>2026-04-12T08:57:30.881Z</time></trkpt><trkpt lat="39.2291733" lon="16.1874683"><ele>881.0</ele><time>2026-04-12T08:57:31.881Z</time></trkpt><trkpt lat="39.229115" lon="16.18741"><ele>881.0</ele><time>2026-04-12T08:57:32.881Z</time></trkpt><trkpt lat="39.2290317" lon="16.1873033"><ele>881.0000000000001</ele><time>2026-04-12T08:57:34.882Z</time></trkpt><trkpt lat="39.2290667" lon="16.18722"><ele>881.0</ele><time>2026-04-12T08:57:35.882Z</time></trkpt><trkpt lat="39.2291067" lon="16.18713"><ele>874.5999999999999</ele><time>2026-04-12T08:57:37.881Z</time></trkpt><trkpt lat="39.22918" lon="16.1870517"><ele>868.1999999999999</ele><time>2026-04-12T08:57:39.881Z</time></trkpt><trkpt lat="39.2292783" lon="16.1869583"><ele>861.8</ele><time>2026-04-12T08:57:41.881Z</time></trkpt><trkpt lat="39.2293567" lon="16.1869683"><ele>855.4000000000001</ele><time>2026-04-12T08:57:42.882Z</time></trkpt><trkpt lat="39.2294233" lon="16.1869783"><ele>849.0</ele><time>2026-04-12T08:57:43.882Z</time></trkpt><trkpt lat="39.2295467" lon="16.1869767"><ele>849.0</ele><time>2026-04-12T08:57:45.882Z</time></trkpt><trkpt lat="39.22963" lon="16.1869833"><ele>849.0</ele><time>2026-04-12T08:57:46.882Z</time></trkpt><trkpt lat="39.22976" lon="16.1869883"><ele>849.0</ele><time>2026-04-12T08:57:48.881Z</time></trkpt><trkpt lat="39.229825" lon="16.1869983"><ele>849.0</ele><time>2026-04-12T08:57:49.881Z</time></trkpt><trkpt lat="39.2298967" lon="16.186985"><ele>849.0</ele><time>2026-04-12T08:57:50.882Z</time></trkpt><trkpt lat="39.2299883" lon="16.1869"><ele>849.0</ele><time>2026-04-12T08:57:52.882Z</time></trkpt><trkpt lat="39.2300083" lon="16.1868167"><ele>849.0</ele><time>2026-04-12T08:57:53.882Z</time></trkpt><trkpt lat="39.2299717" lon="16.1867367"><ele>849.0</ele><time>2026-04-12T08:57:56.882Z</time></trkpt><trkpt lat="39.2298333" lon="16.18674"><ele>849.0</ele><time>2026-04-12T08:57:57.882Z</time></trkpt><trkpt lat="39.2297433" lon="16.1867133"><ele>849.0</ele><time>2026-04-12T08:57:58.881Z</time></trkpt><trkpt lat="39.22965" lon="16.1866633"><ele>849.0</ele><time>2026-04-12T08:57:59.882Z</time></trkpt><trkpt lat="39.2295617" lon="16.1866267"><ele>849.0</ele><time>2026-04-12T08:58:00.881Z</time></trkpt><trkpt lat="39.2294917" lon="16.1865967"><ele>849.0</ele><time>2026-04-12T08:58:01.882Z</time></trkpt><trkpt lat="39.2294183" lon="16.1865667"><ele>849.0</ele><time>2026-04-12T08:58:02.882Z</time></trkpt><trkpt lat="39.2293433" lon="16.1865283"><ele>849.0</ele><time>2026-04-12T08:58:03.882Z</time></trkpt><trkpt lat="39.2292483" lon="16.1864783"><ele>849.0</ele><time>2026-04-12T08:58:04.881Z</time></trkpt><trkpt lat="39.229155" lon="16.1864483"><ele>844.6</ele><time>2026-04-12T08:58:05.882Z</time></trkpt><trkpt lat="39.22906" lon="16.186435"><ele>840.2</ele><time>2026-04-12T08:58:06.882Z</time></trkpt><trkpt lat="39.228975" lon="16.186435"><ele>835.8000000000001</ele><time>2026-04-12T08:58:07.882Z</time></trkpt><trkpt lat="39.228885" lon="16.1864283"><ele>831.4000000000001</ele><time>2026-04-12T08:58:08.882Z</time></trkpt><trkpt lat="39.2287983" lon="16.1864"><ele>827.0</ele><time>2026-04-12T08:58:09.882Z</time></trkpt><trkpt lat="39.22871" lon="16.1863583"><ele>827.0</ele><time>2026-04-12T08:58:10.882Z</time></trkpt><trkpt lat="39.2285967" lon="16.1862983"><ele>827.0</ele><time>2026-04-12T08:58:11.882Z</time></trkpt><trkpt lat="39.2284933" lon="16.1862483"><ele>827.0</ele><time>2026-04-12T08:58:12.882Z</time></trkpt><trkpt lat="39.2284033" lon="16.1861817"><ele>827.0</ele><time>2026-04-12T08:58:13.881Z</time></trkpt><trkpt lat="39.22832" lon="16.1861"><ele>827.0</ele><time>2026-04-12T08:58:14.882Z</time></trkpt><trkpt lat="39.2282333" lon="16.1860367"><ele>827.0000000000001</ele><time>2026-04-12T08:58:15.882Z</time></trkpt><trkpt lat="39.228155" lon="16.1859817"><ele>827.0</ele><time>2026-04-12T08:58:16.882Z</time></trkpt><trkpt lat="39.2280783" lon="16.1859467"><ele>827.0</ele><time>2026-04-12T08:58:17.882Z</time></trkpt><trkpt lat="39.2280117" lon="16.185915"><ele>827.0</ele><time>2026-04-12T08:58:18.882Z</time></trkpt><trkpt lat="39.2279467" lon="16.1858867"><ele>827.0000000000001</ele><time>2026-04-12T08:58:19.881Z</time></trkpt><trkpt lat="39.2278383" lon="16.18582"><ele>827.0</ele><time>2026-04-12T08:58:21.881Z</time></trkpt><trkpt lat="39.22794" lon="16.18579"><ele>827.0000000000001</ele><time>2026-04-12T08:58:24.882Z</time></trkpt><trkpt lat="39.228025" lon="16.1858167"><ele>827.0</ele><time>2026-04-12T08:58:25.882Z</time></trkpt><trkpt lat="39.2281017" lon="16.185855"><ele>827.0</ele><time>2026-04-12T08:58:26.881Z</time></trkpt><trkpt lat="39.22822" lon="16.18593"><ele>827.0</ele><time>2026-04-12T08:58:28.882Z</time></trkpt><trkpt lat="39.22828" lon="16.1859767"><ele>827.0000000000001</ele><time>2026-04-12T08:58:29.882Z</time></trkpt><trkpt lat="39.228345" lon="16.1860167"><ele>827.0</ele><time>2026-04-12T08:58:30.881Z</time></trkpt><trkpt lat="39.2283917" lon="16.1860717"><ele>827.0</ele><time>2026-04-12T08:58:31.882Z</time></trkpt><trkpt lat="39.2284817" lon="16.1861067"><ele>827.0</ele><time>2026-04-12T08:58:32.881Z</time></trkpt><trkpt lat="39.2285683" lon="16.1861333"><ele>827.0</ele><time>2026-04-12T08:58:33.882Z</time></trkpt><trkpt lat="39.2286883" lon="16.18619"><ele>827.0</ele><time>2026-04-12T08:58:35.881Z</time></trkpt><trkpt lat="39.228765" lon="16.186195"><ele>827.0</ele><time>2026-04-12T08:58:36.882Z</time></trkpt><trkpt lat="39.228845" lon="16.1862"><ele>827.0</ele><time>2026-04-12T08:58:37.882Z</time></trkpt><trkpt lat="39.2289267" lon="16.186195"><ele>827.0</ele><time>2026-04-12T08:58:38.881Z</time></trkpt><trkpt lat="39.2290167" lon="16.1861733"><ele>827.0</ele><time>2026-04-12T08:58:39.882Z</time></trkpt><trkpt lat="39.2291183" lon="16.1861383"><ele>827.0</ele><time>2026-04-12T08:58:40.881Z</time></trkpt><trkpt lat="39.2292417" lon="16.186075"><ele>827.0</ele><time>2026-04-12T08:58:41.881Z</time></trkpt><trkpt lat="39.2293483" lon="16.186025"><ele>825.0</ele><time>2026-04-12T08:58:42.882Z</time></trkpt><trkpt lat="39.2294483" lon="16.1859783"><ele>823.0</ele><time>2026-04-12T08:58:43.882Z</time></trkpt><trkpt lat="39.229535" lon="16.1859667"><ele>821.0</ele><time>2026-04-12T08:58:44.882Z</time></trkpt><trkpt lat="39.2296267" lon="16.1859517"><ele>819.0</ele><time>2026-04-12T08:58:45.882Z</time></trkpt><trkpt lat="39.2297183" lon="16.1859467"><ele>817.0</ele><time>2026-04-12T08:58:46.882Z</time></trkpt><trkpt lat="39.2298033" lon="16.18595"><ele>815.8</ele><time>2026-04-12T08:58:47.882Z</time></trkpt><trkpt lat="39.229905" lon="16.1859533"><ele>814.6</ele><time>2026-04-12T08:58:48.882Z</time></trkpt><trkpt lat="39.2299933" lon="16.185955"><ele>813.4</ele><time>2026-04-12T08:58:49.882Z</time></trkpt><trkpt lat="39.23008" lon="16.1859467"><ele>812.1999999999999</ele><time>2026-04-12T08:58:50.881Z</time></trkpt><trkpt lat="39.2301733" lon="16.185975"><ele>811.0</ele><time>2026-04-12T08:58:51.881Z</time></trkpt><trkpt lat="39.2302617" lon="16.1860083"><ele>811.0</ele><time>2026-04-12T08:58:52.881Z</time></trkpt><trkpt lat="39.2303417" lon="16.186045"><ele>811.0</ele><time>2026-04-12T08:58:53.882Z</time></trkpt><trkpt lat="39.23041" lon="16.186085"><ele>811.0</ele><time>2026-04-12T08:58:54.882Z</time></trkpt><trkpt lat="39.2304817" lon="16.1861133"><ele>811.0</ele><time>2026-04-12T08:58:55.882Z</time></trkpt><trkpt lat="39.2305833" lon="16.1861883"><ele>811.0</ele><time>2026-04-12T08:58:57.882Z</time></trkpt><trkpt lat="39.2306883" lon="16.186245"><ele>811.0</ele><time>2026-04-12T08:58:59.881Z</time></trkpt><trkpt lat="39.2306917" lon="16.18645"><ele>811.0</ele><time>2026-04-12T08:59:01.882Z</time></trkpt><trkpt lat="39.230725" lon="16.1865367"><ele>811.0</ele><time>2026-04-12T08:59:02.882Z</time></trkpt><trkpt lat="39.2307533" lon="16.186615"><ele>811.0</ele><time>2026-04-12T08:59:03.881Z</time></trkpt><trkpt lat="39.2308183" lon="16.1867283"><ele>811.0</ele><time>2026-04-12T08:59:05.882Z</time></trkpt><trkpt lat="39.2308083" lon="16.1866333"><ele>806.6666666666666</ele><time>2026-04-12T08:59:10.882Z</time></trkpt><trkpt lat="39.230825" lon="16.1865033"><ele>802.3333333333333</ele><time>2026-04-12T08:59:12.882Z</time></trkpt><trkpt lat="39.2308" lon="16.186415"><ele>798.0</ele><time>2026-04-12T08:59:13.882Z</time></trkpt><trkpt lat="39.230815" lon="16.1863133"><ele>793.6666666666667</ele><time>2026-04-12T08:59:15.882Z</time></trkpt><trkpt lat="39.230845" lon="16.1861983"><ele>789.3333333333334</ele><time>2026-04-12T08:59:17.882Z</time></trkpt><trkpt lat="39.2308017" lon="16.1861067"><ele>785.0</ele><time>2026-04-12T08:59:19.882Z</time></trkpt><trkpt lat="39.2307467" lon="16.18605"><ele>785.0</ele><time>2026-04-12T09:06:23.881Z</time></trkpt><trkpt lat="39.2306883" lon="16.185965"><ele>785.0</ele><time>2026-04-12T09:06:25.882Z</time></trkpt><trkpt lat="39.2306283" lon="16.1859333"><ele>785.0</ele><time>2026-04-12T09:06:26.882Z</time></trkpt><trkpt lat="39.2305383" lon="16.1858083"><ele>785.0</ele><time>2026-04-12T09:06:28.882Z</time></trkpt><trkpt lat="39.2304517" lon="16.185725"><ele>785.0</ele><time>2026-04-12T09:06:30.881Z</time></trkpt><trkpt lat="39.2303483" lon="16.1856667"><ele>785.0</ele><time>2026-04-12T09:06:32.882Z</time></trkpt><trkpt lat="39.2302367" lon="16.1856117"><ele>785.0</ele><time>2026-04-12T09:06:34.882Z</time></trkpt><trkpt lat="39.2301667" lon="16.185535"><ele>785.0</ele><time>2026-04-12T09:06:35.882Z</time></trkpt><trkpt lat="39.2300617" lon="16.1854333"><ele>785.0</ele><time>2026-04-12T09:06:37.882Z</time></trkpt><trkpt lat="39.22997" lon="16.1853467"><ele>785.0</ele><time>2026-04-12T09:06:39.882Z</time></trkpt><trkpt lat="39.2298583" lon="16.1852667"><ele>785.0</ele><time>2026-04-12T09:06:41.882Z</time></trkpt><trkpt lat="39.2297833" lon="16.1852283"><ele>785.0</ele><time>2026-04-12T09:06:42.881Z</time></trkpt><trkpt lat="39.2296817" lon="16.1851883"><ele>785.0</ele><time>2026-04-12T09:06:43.882Z</time></trkpt><trkpt lat="39.22959" lon="16.1851717"><ele>785.0</ele><time>2026-04-12T09:06:44.882Z</time></trkpt><trkpt lat="39.2295133" lon="16.1851417"><ele>785.6</ele><time>2026-04-12T09:06:45.881Z</time></trkpt><trkpt lat="39.2294483" lon="16.1851"><ele>786.2</ele><time>2026-04-12T09:06:46.882Z</time></trkpt><trkpt lat="39.2293267" lon="16.18508"><ele>786.8</ele><time>2026-04-12T09:06:48.882Z</time></trkpt><trkpt lat="39.2292083" lon="16.1851317"><ele>787.4</ele><time>2026-04-12T09:06:50.882Z</time></trkpt><trkpt lat="39.2291583" lon="16.1851917"><ele>788.0</ele><time>2026-04-12T09:06:51.882Z</time></trkpt><trkpt lat="39.2291117" lon="16.18525"><ele>788.0</ele><time>2026-04-12T09:06:52.882Z</time></trkpt><trkpt lat="39.2290033" lon="16.1853133"><ele>788.0</ele><time>2026-04-12T09:06:54.881Z</time></trkpt><trkpt lat="39.2288783" lon="16.185325"><ele>788.0</ele><time>2026-04-12T09:06:56.882Z</time></trkpt><trkpt lat="39.2287567" lon="16.185335"><ele>788.0</ele><time>2026-04-12T09:06:58.882Z</time></trkpt><trkpt lat="39.228685" lon="16.1852983"><ele>788.0</ele><time>2026-04-12T09:06:59.881Z</time></trkpt><trkpt lat="39.2286083" lon="16.18523"><ele>788.4</ele><time>2026-04-12T09:07:00.882Z</time></trkpt><trkpt lat="39.228545" lon="16.1850983"><ele>788.8</ele><time>2026-04-12T09:07:01.881Z</time></trkpt><trkpt lat="39.22848" lon="16.1850267"><ele>789.2</ele><time>2026-04-12T09:07:02.882Z</time></trkpt><trkpt lat="39.2284167" lon="16.184945"><ele>789.6</ele><time>2026-04-12T09:07:03.882Z</time></trkpt><trkpt lat="39.2283617" lon="16.1848567"><ele>790.0</ele><time>2026-04-12T09:07:04.882Z</time></trkpt><trkpt lat="39.2282967" lon="16.184775"><ele>783.6666666666666</ele><time>2026-04-12T09:07:05.882Z</time></trkpt><trkpt lat="39.228245" lon="16.184715"><ele>777.3333333333333</ele><time>2026-04-12T09:07:06.882Z</time></trkpt><trkpt lat="39.2282483" lon="16.18461"><ele>771.0</ele><time>2026-04-12T09:07:07.882Z</time></trkpt><trkpt lat="39.2282433" lon="16.1845133"><ele>764.6666666666666</ele><time>2026-04-12T09:07:08.882Z</time></trkpt><trkpt lat="39.22826" lon="16.1844133"><ele>758.3333333333333</ele><time>2026-04-12T09:07:09.881Z</time></trkpt><trkpt lat="39.2282717" lon="16.184275"><ele>752.0</ele><time>2026-04-12T09:07:11.882Z</time></trkpt><trkpt lat="39.22832" lon="16.1841883"><ele>752.0</ele><time>2026-04-12T09:07:13.882Z</time></trkpt><trkpt lat="39.228415" lon="16.1841667"><ele>752.0</ele><time>2026-04-12T09:07:15.882Z</time></trkpt><trkpt lat="39.228525" lon="16.1842117"><ele>752.0</ele><time>2026-04-12T09:07:16.882Z</time></trkpt><trkpt lat="39.22858" lon="16.1842833"><ele>752.0</ele><time>2026-04-12T09:07:17.881Z</time></trkpt><trkpt lat="39.228675" lon="16.1843033"><ele>752.0</ele><time>2026-04-12T09:07:18.881Z</time></trkpt><trkpt lat="39.2287617" lon="16.1843133"><ele>752.0</ele><time>2026-04-12T09:07:19.882Z</time></trkpt><trkpt lat="39.228845" lon="16.1842983"><ele>752.0</ele><time>2026-04-12T09:07:20.881Z</time></trkpt><trkpt lat="39.22891" lon="16.1842967"><ele>752.0</ele><time>2026-04-12T09:07:21.882Z</time></trkpt><trkpt lat="39.229025" lon="16.18428"><ele>752.0</ele><time>2026-04-12T09:07:23.882Z</time></trkpt><trkpt lat="39.229085" lon="16.1842483"><ele>752.0</ele><time>2026-04-12T09:07:24.881Z</time></trkpt><trkpt lat="39.22912" lon="16.1841767"><ele>752.0</ele><time>2026-04-12T09:07:26.882Z</time></trkpt><trkpt lat="39.2291767" lon="16.1841267"><ele>752.6666666666666</ele><time>2026-04-12T09:07:27.881Z</time></trkpt><trkpt lat="39.2292417" lon="16.1840733"><ele>753.3333333333333</ele><time>2026-04-12T09:07:28.882Z</time></trkpt><trkpt lat="39.229315" lon="16.1840167"><ele>754.0</ele><time>2026-04-12T09:07:29.882Z</time></trkpt><trkpt lat="39.2293917" lon="16.1839667"><ele>754.6666666666666</ele><time>2026-04-12T09:07:30.882Z</time></trkpt><trkpt lat="39.22946" lon="16.1839117"><ele>755.3333333333334</ele><time>2026-04-12T09:07:31.881Z</time></trkpt><trkpt lat="39.22952" lon="16.18386"><ele>756.0</ele><time>2026-04-12T09:07:32.882Z</time></trkpt><trkpt lat="39.22958" lon="16.1838217"><ele>750.1999999999999</ele><time>2026-04-12T09:07:33.881Z</time></trkpt><trkpt lat="39.2296617" lon="16.183795"><ele>744.4</ele><time>2026-04-12T09:07:34.882Z</time></trkpt><trkpt lat="39.2297317" lon="16.1837583"><ele>738.6</ele><time>2026-04-12T09:07:35.882Z</time></trkpt><trkpt lat="39.2298067" lon="16.18372"><ele>732.8</ele><time>2026-04-12T09:07:36.882Z</time></trkpt><trkpt lat="39.2298767" lon="16.183685"><ele>727.0</ele><time>2026-04-12T09:07:37.882Z</time></trkpt><trkpt lat="39.22991" lon="16.1823383"><ele>718.5</ele><time>2026-04-12T09:08:19.88Z</time></trkpt><trkpt lat="39.2300317" lon="16.18243"><ele>710.0</ele><time>2026-04-12T09:08:22.881Z</time></trkpt><trkpt lat="39.2300983" lon="16.1824267"><ele>701.5</ele><time>2026-04-12T09:08:23.881Z</time></trkpt><trkpt lat="39.2301167" lon="16.182645"><ele>693.0</ele><time>2026-04-12T09:08:24.881Z</time></trkpt><trkpt lat="39.2302117" lon="16.1826833"><ele>693.0</ele><time>2026-04-12T09:08:26.881Z</time></trkpt><trkpt lat="39.2302783" lon="16.1826517"><ele>693.0</ele><time>2026-04-12T09:08:28.88Z</time></trkpt><trkpt lat="39.230195" lon="16.182595"><ele>693.0</ele><time>2026-04-12T09:08:34.881Z</time></trkpt><trkpt lat="39.2299817" lon="16.182585"><ele>693.0</ele><time>2026-04-12T09:08:36.881Z</time></trkpt><trkpt lat="39.22984" lon="16.18254"><ele>693.3333333333334</ele><time>2026-04-12T09:08:37.881Z</time></trkpt><trkpt lat="39.2297517" lon="16.1824933"><ele>693.6666666666666</ele><time>2026-04-12T09:08:38.881Z</time></trkpt><trkpt lat="39.2296767" lon="16.182445"><ele>694.0</ele><time>2026-04-12T09:08:39.88Z</time></trkpt><trkpt lat="39.2296133" lon="16.1823883"><ele>694.3333333333333</ele><time>2026-04-12T09:08:40.881Z</time></trkpt><trkpt lat="39.2295533" lon="16.182305"><ele>694.6666666666666</ele><time>2026-04-12T09:08:41.881Z</time></trkpt><trkpt lat="39.2295033" lon="16.18219"><ele>695.0</ele><time>2026-04-12T09:08:42.881Z</time></trkpt><trkpt lat="39.2294667" lon="16.182065"><ele>690.6</ele><time>2026-04-12T09:08:43.881Z</time></trkpt><trkpt lat="39.229425" lon="16.1819667"><ele>686.2</ele><time>2026-04-12T09:08:44.881Z</time></trkpt><trkpt lat="39.2293867" lon="16.1818933"><ele>681.8</ele><time>2026-04-12T09:08:45.88Z</time></trkpt><trkpt lat="39.2293" lon="16.1818083"><ele>677.4</ele><time>2026-04-12T09:08:47.881Z</time></trkpt><trkpt lat="39.2292267" lon="16.1818533"><ele>673.0</ele><time>2026-04-12T09:08:48.881Z</time></trkpt><trkpt lat="39.2290667" lon="16.1818417"><ele>673.0</ele><time>2026-04-12T09:08:50.881Z</time></trkpt><trkpt lat="39.2289933" lon="16.1818767"><ele>673.0</ele><time>2026-04-12T09:08:51.881Z</time></trkpt><trkpt lat="39.2289" lon="16.1818433"><ele>673.0</ele><time>2026-04-12T09:08:52.881Z</time></trkpt><trkpt lat="39.2287717" lon="16.1818567"><ele>673.0</ele><time>2026-04-12T09:08:54.88Z</time></trkpt><trkpt lat="39.2286983" lon="16.1819533"><ele>673.0</ele><time>2026-04-12T09:08:56.881Z</time></trkpt><trkpt lat="39.2286783" lon="16.1820317"><ele>674.8333333333334</ele><time>2026-04-12T09:08:57.88Z</time></trkpt><trkpt lat="39.2286433" lon="16.182105"><ele>676.6666666666667</ele><time>2026-04-12T09:08:58.88Z</time></trkpt><trkpt lat="39.2285983" lon="16.1821633"><ele>678.5</ele><time>2026-04-12T09:08:59.881Z</time></trkpt><trkpt lat="39.22852" lon="16.1822783"><ele>680.3333333333334</ele><time>2026-04-12T09:09:01.881Z</time></trkpt><trkpt lat="39.2284317" lon="16.1823417"><ele>682.1666666666666</ele><time>2026-04-12T09:09:03.88Z</time></trkpt><trkpt lat="39.2283633" lon="16.182345"><ele>684.0</ele><time>2026-04-12T09:09:05.881Z</time></trkpt><trkpt lat="39.2283717" lon="16.182215"><ele>684.0</ele><time>2026-04-12T09:09:09.88Z</time></trkpt><trkpt lat="39.2283783" lon="16.1820883"><ele>684.0</ele><time>2026-04-12T09:09:11.881Z</time></trkpt><trkpt lat="39.228405" lon="16.1819617"><ele>684.0</ele><time>2026-04-12T09:09:12.881Z</time></trkpt><trkpt lat="39.228395" lon="16.1818633"><ele>684.0</ele><time>2026-04-12T09:09:13.88Z</time></trkpt><trkpt lat="39.228385" lon="16.18176"><ele>684.0</ele><time>2026-04-12T09:09:14.881Z</time></trkpt><trkpt lat="39.2283817" lon="16.1816367"><ele>683.9999999999999</ele><time>2026-04-12T09:09:15.88Z</time></trkpt><trkpt lat="39.2283817" lon="16.18153"><ele>684.0</ele><time>2026-04-12T09:09:16.88Z</time></trkpt><trkpt lat="39.2283867" lon="16.1814433"><ele>684.0</ele><time>2026-04-12T09:09:17.881Z</time></trkpt><trkpt lat="39.22842" lon="16.1813533"><ele>684.0</ele><time>2026-04-12T09:09:18.881Z</time></trkpt><trkpt lat="39.2284517" lon="16.18127"><ele>684.0</ele><time>2026-04-12T09:09:19.881Z</time></trkpt><trkpt lat="39.2284917" lon="16.1811983"><ele>683.9999999999999</ele><time>2026-04-12T09:09:20.881Z</time></trkpt><trkpt lat="39.2285433" lon="16.181135"><ele>684.0</ele><time>2026-04-12T09:09:21.88Z</time></trkpt><trkpt lat="39.2286033" lon="16.1810867"><ele>681.3333333333334</ele><time>2026-04-12T09:09:22.881Z</time></trkpt><trkpt lat="39.228695" lon="16.18105"><ele>678.6666666666666</ele><time>2026-04-12T09:09:23.881Z</time></trkpt><trkpt lat="39.228765" lon="16.1810167"><ele>676.0</ele><time>2026-04-12T09:09:24.88Z</time></trkpt><trkpt lat="39.2288183" lon="16.1809717"><ele>673.3333333333333</ele><time>2026-04-12T09:09:25.88Z</time></trkpt><trkpt lat="39.2288883" lon="16.1808567"><ele>670.6666666666666</ele><time>2026-04-12T09:09:27.881Z</time></trkpt><trkpt lat="39.228875" lon="16.180755"><ele>668.0</ele><time>2026-04-12T09:09:29.88Z</time></trkpt><trkpt lat="39.2288083" lon="16.180715"><ele>668.0</ele><time>2026-04-12T09:09:31.881Z</time></trkpt><trkpt lat="39.2287233" lon="16.1807083"><ele>668.0</ele><time>2026-04-12T09:09:33.881Z</time></trkpt><trkpt lat="39.2286517" lon="16.1807117"><ele>668.0</ele><time>2026-04-12T09:09:36.881Z</time></trkpt><trkpt lat="39.2286167" lon="16.180625"><ele>668.0</ele><time>2026-04-12T09:09:45.881Z</time></trkpt><trkpt lat="39.2285917" lon="16.1805433"><ele>668.0</ele><time>2026-04-12T09:09:48.881Z</time></trkpt><trkpt lat="39.228615" lon="16.180445"><ele>668.0</ele><time>2026-04-12T09:09:53.881Z</time></trkpt><trkpt lat="39.228645" lon="16.1803583"><ele>664.8</ele><time>2026-04-12T09:09:55.88Z</time></trkpt><trkpt lat="39.2285383" lon="16.1803"><ele>661.5999999999999</ele><time>2026-04-12T09:10:12.881Z</time></trkpt><trkpt lat="39.2285333" lon="16.1802117"><ele>658.4000000000001</ele><time>2026-04-12T09:10:14.881Z</time></trkpt><trkpt lat="39.2285983" lon="16.1801883"><ele>655.2</ele><time>2026-04-12T09:10:17.881Z</time></trkpt><trkpt lat="39.228685" lon="16.18026"><ele>652.0</ele><time>2026-04-12T09:10:19.881Z</time></trkpt><trkpt lat="39.22884" lon="16.1803933"><ele>652.0</ele><time>2026-04-12T09:10:20.881Z</time></trkpt><trkpt lat="39.2289483" lon="16.18048"><ele>652.0</ele><time>2026-04-12T09:10:21.881Z</time></trkpt><trkpt lat="39.22904" lon="16.1805533"><ele>652.0</ele><time>2026-04-12T09:10:22.88Z</time></trkpt><trkpt lat="39.2291117" lon="16.1805917"><ele>652.0</ele><time>2026-04-12T09:10:23.881Z</time></trkpt><trkpt lat="39.2291867" lon="16.1806133"><ele>652.0</ele><time>2026-04-12T09:10:24.881Z</time></trkpt><trkpt lat="39.2292467" lon="16.18064"><ele>651.8333333333334</ele><time>2026-04-12T09:10:25.88Z</time></trkpt><trkpt lat="39.22931" lon="16.180665"><ele>651.6666666666667</ele><time>2026-04-12T09:10:26.881Z</time></trkpt><trkpt lat="39.2293783" lon="16.1806867"><ele>651.5</ele><time>2026-04-12T09:10:27.88Z</time></trkpt><trkpt lat="39.2294583" lon="16.1807067"><ele>651.3333333333334</ele><time>2026-04-12T09:10:28.881Z</time></trkpt><trkpt lat="39.22954" lon="16.1807267"><ele>651.1666666666666</ele><time>2026-04-12T09:10:29.881Z</time></trkpt><trkpt lat="39.2296183" lon="16.18074"><ele>651.0</ele><time>2026-04-12T09:10:30.881Z</time></trkpt><trkpt lat="39.2297" lon="16.18076"><ele>651.0</ele><time>2026-04-12T09:10:31.88Z</time></trkpt><trkpt lat="39.229775" lon="16.180785"><ele>651.0</ele><time>2026-04-12T09:10:32.88Z</time></trkpt><trkpt lat="39.229845" lon="16.1808217"><ele>651.0</ele><time>2026-04-12T09:10:33.88Z</time></trkpt><trkpt lat="39.229905" lon="16.1808517"><ele>651.0</ele><time>2026-04-12T09:10:34.88Z</time></trkpt><trkpt lat="39.22997" lon="16.1808917"><ele>651.0</ele><time>2026-04-12T09:10:35.881Z</time></trkpt><trkpt lat="39.2300167" lon="16.180965"><ele>651.0</ele><time>2026-04-12T09:10:36.881Z</time></trkpt><trkpt lat="39.2300817" lon="16.1810233"><ele>651.0</ele><time>2026-04-12T09:10:37.881Z</time></trkpt><trkpt lat="39.2301517" lon="16.1810817"><ele>650.4</ele><time>2026-04-12T09:10:38.881Z</time></trkpt><trkpt lat="39.2302283" lon="16.181135"><ele>649.8</ele><time>2026-04-12T09:10:39.881Z</time></trkpt><trkpt lat="39.2303133" lon="16.1811933"><ele>649.1999999999999</ele><time>2026-04-12T09:10:40.88Z</time></trkpt><trkpt lat="39.2303983" lon="16.1812433"><ele>648.5999999999999</ele><time>2026-04-12T09:10:41.881Z</time></trkpt><trkpt lat="39.2304817" lon="16.18129"><ele>648.0</ele><time>2026-04-12T09:10:42.881Z</time></trkpt><trkpt lat="39.230575" lon="16.1813317"><ele>648.2</ele><time>2026-04-12T09:10:43.881Z</time></trkpt><trkpt lat="39.2306733" lon="16.1813817"><ele>648.4</ele><time>2026-04-12T09:10:44.881Z</time></trkpt><trkpt lat="39.2307533" lon="16.18143"><ele>648.6</ele><time>2026-04-12T09:10:45.881Z</time></trkpt><trkpt lat="39.23083" lon="16.1814733"><ele>648.8000000000001</ele><time>2026-04-12T09:10:46.881Z</time></trkpt><trkpt lat="39.2309183" lon="16.18152"><ele>649.0</ele><time>2026-04-12T09:10:47.881Z</time></trkpt><trkpt lat="39.2310317" lon="16.181545"><ele>649.0</ele><time>2026-04-12T09:10:48.881Z</time></trkpt><trkpt lat="39.2311467" lon="16.1815617"><ele>649.0</ele><time>2026-04-12T09:10:49.881Z</time></trkpt><trkpt lat="39.23124" lon="16.181575"><ele>649.0</ele><time>2026-04-12T09:10:50.881Z</time></trkpt><trkpt lat="39.2313383" lon="16.1815883"><ele>649.0</ele><time>2026-04-12T09:10:51.88Z</time></trkpt><trkpt lat="39.231445" lon="16.1816083"><ele>649.0</ele><time>2026-04-12T09:10:52.881Z</time></trkpt><trkpt lat="39.2315483" lon="16.181625"><ele>646.1666666666667</ele><time>2026-04-12T09:10:53.88Z</time></trkpt><trkpt lat="39.2316433" lon="16.181635"><ele>643.3333333333334</ele><time>2026-04-12T09:10:54.881Z</time></trkpt><trkpt lat="39.2317217" lon="16.1816633"><ele>640.5</ele><time>2026-04-12T09:10:55.881Z</time></trkpt><trkpt lat="39.2318183" lon="16.1816983"><ele>637.6666666666666</ele><time>2026-04-12T09:10:56.881Z</time></trkpt><trkpt lat="39.231895" lon="16.181725"><ele>634.8333333333333</ele><time>2026-04-12T09:10:57.881Z</time></trkpt><trkpt lat="39.2319517" lon="16.1817767"><ele>632.0</ele><time>2026-04-12T09:10:58.881Z</time></trkpt><trkpt lat="39.23201" lon="16.1818083"><ele>632.0</ele><time>2026-04-12T09:10:59.881Z</time></trkpt><trkpt lat="39.2320917" lon="16.181835"><ele>632.0</ele><time>2026-04-12T09:11:04.881Z</time></trkpt><trkpt lat="39.2321633" lon="16.1818767"><ele>632.0</ele><time>2026-04-12T09:11:07.881Z</time></trkpt><trkpt lat="39.23223" lon="16.1818933"><ele>632.0</ele><time>2026-04-12T09:11:08.881Z</time></trkpt><trkpt lat="39.2322967" lon="16.1819217"><ele>632.0</ele><time>2026-04-12T09:11:13.88Z</time></trkpt><trkpt lat="39.232225" lon="16.1818333"><ele>632.0</ele><time>2026-04-12T09:11:29.881Z</time></trkpt><trkpt lat="39.23217" lon="16.1817167"><ele>632.0</ele><time>2026-04-12T09:11:32.881Z</time></trkpt><trkpt lat="39.2320983" lon="16.1816867"><ele>632.0</ele><time>2026-04-12T09:11:35.881Z</time></trkpt><trkpt lat="39.2320133" lon="16.1816033"><ele>632.0</ele><time>2026-04-12T09:12:00.881Z</time></trkpt><trkpt lat="39.2319733" lon="16.1815067"><ele>632.0</ele><time>2026-04-12T09:12:02.88Z</time></trkpt><trkpt lat="39.2319383" lon="16.1814017"><ele>632.0</ele><time>2026-04-12T09:12:04.881Z</time></trkpt><trkpt lat="39.2318733" lon="16.1812617"><ele>630.6</ele><time>2026-04-12T09:12:06.881Z</time></trkpt><trkpt lat="39.2318183" lon="16.1811383"><ele>629.2</ele><time>2026-04-12T09:12:08.881Z</time></trkpt><trkpt lat="39.2317833" lon="16.1810183"><ele>627.8</ele><time>2026-04-12T09:12:10.881Z</time></trkpt><trkpt lat="39.2317633" lon="16.1809217"><ele>626.4</ele><time>2026-04-12T09:12:12.881Z</time></trkpt><trkpt lat="39.2317917" lon="16.1808117"><ele>625.0</ele><time>2026-04-12T09:12:14.881Z</time></trkpt><trkpt lat="39.2318417" lon="16.1807283"><ele>625.0</ele><time>2026-04-12T09:12:16.88Z</time></trkpt><trkpt lat="39.2320617" lon="16.1809467"><ele>625.0</ele><time>2026-04-12T09:12:28.881Z</time></trkpt><trkpt lat="39.2321083" lon="16.18101"><ele>625.0</ele><time>2026-04-12T09:12:30.881Z</time></trkpt><trkpt lat="39.2321867" lon="16.1810667"><ele>625.0</ele><time>2026-04-12T09:12:32.881Z</time></trkpt><trkpt lat="39.2322517" lon="16.181095"><ele>625.1666666666667</ele><time>2026-04-12T09:12:33.881Z</time></trkpt><trkpt lat="39.2323183" lon="16.18113"><ele>625.3333333333334</ele><time>2026-04-12T09:12:34.881Z</time></trkpt><trkpt lat="39.23239" lon="16.1811567"><ele>625.5</ele><time>2026-04-12T09:12:35.88Z</time></trkpt><trkpt lat="39.2324567" lon="16.1812"><ele>625.6666666666666</ele><time>2026-04-12T09:12:36.881Z</time></trkpt><trkpt lat="39.2325317" lon="16.1812517"><ele>625.8333333333333</ele><time>2026-04-12T09:12:37.88Z</time></trkpt><trkpt lat="39.2325967" lon="16.1812933"><ele>626.0</ele><time>2026-04-12T09:12:38.88Z</time></trkpt><trkpt lat="39.2326633" lon="16.181345"><ele>626.0</ele><time>2026-04-12T09:12:39.88Z</time></trkpt><trkpt lat="39.2327383" lon="16.1814"><ele>626.0</ele><time>2026-04-12T09:12:40.88Z</time></trkpt><trkpt lat="39.2328083" lon="16.1814583"><ele>626.0</ele><time>2026-04-12T09:12:41.881Z</time></trkpt><trkpt lat="39.2329217" lon="16.181485"><ele>626.0</ele><time>2026-04-12T09:12:42.881Z</time></trkpt><trkpt lat="39.23302" lon="16.1815133"><ele>626.0</ele><time>2026-04-12T09:12:43.881Z</time></trkpt><trkpt lat="39.2331283" lon="16.1815317"><ele>624.1666666666666</ele><time>2026-04-12T09:12:44.88Z</time></trkpt><trkpt lat="39.233185" lon="16.18158"><ele>622.3333333333333</ele><time>2026-04-12T09:12:45.88Z</time></trkpt><trkpt lat="39.23327" lon="16.18163"><ele>620.5</ele><time>2026-04-12T09:12:47.881Z</time></trkpt><trkpt lat="39.2333333" lon="16.18157"><ele>618.6666666666666</ele><time>2026-04-12T09:12:49.88Z</time></trkpt><trkpt lat="39.233405" lon="16.1815283"><ele>616.8333333333334</ele><time>2026-04-12T09:12:51.881Z</time></trkpt><trkpt lat="39.2335017" lon="16.1815333"><ele>615.0</ele><time>2026-04-12T09:12:53.881Z</time></trkpt><trkpt lat="39.233555" lon="16.1815833"><ele>615.0</ele><time>2026-04-12T09:12:54.88Z</time></trkpt><trkpt lat="39.23361" lon="16.1816533"><ele>615.0</ele><time>2026-04-12T09:12:55.881Z</time></trkpt><trkpt lat="39.2336817" lon="16.18171"><ele>615.0</ele><time>2026-04-12T09:12:56.881Z</time></trkpt><trkpt lat="39.23375" lon="16.1817583"><ele>615.0</ele><time>2026-04-12T09:12:57.881Z</time></trkpt><trkpt lat="39.23383" lon="16.1818033"><ele>615.0</ele><time>2026-04-12T09:12:58.881Z</time></trkpt><trkpt lat="39.2339367" lon="16.1818067"><ele>615.0</ele><time>2026-04-12T09:12:59.881Z</time></trkpt><trkpt lat="39.2340067" lon="16.1818483"><ele>616.5</ele><time>2026-04-12T09:13:00.881Z</time></trkpt><trkpt lat="39.2341117" lon="16.1819"><ele>618.0</ele><time>2026-04-12T09:13:01.881Z</time></trkpt><trkpt lat="39.2341767" lon="16.181955"><ele>619.5</ele><time>2026-04-12T09:13:02.88Z</time></trkpt><trkpt lat="39.2342617" lon="16.1819967"><ele>621.0</ele><time>2026-04-12T09:13:03.881Z</time></trkpt><trkpt lat="39.2343367" lon="16.1820467"><ele>622.5</ele><time>2026-04-12T09:13:04.88Z</time></trkpt><trkpt lat="39.2344033" lon="16.1820967"><ele>624.0</ele><time>2026-04-12T09:13:05.88Z</time></trkpt><trkpt lat="39.2344933" lon="16.1821767"><ele>624.0</ele><time>2026-04-12T09:13:07.881Z</time></trkpt><trkpt lat="39.2344317" lon="16.182225"><ele>624.0</ele><time>2026-04-12T09:13:21.881Z</time></trkpt><trkpt lat="39.2343267" lon="16.1821233"><ele>624.0</ele><time>2026-04-12T09:13:40.881Z</time></trkpt><trkpt lat="39.2343333" lon="16.1820133"><ele>624.0</ele><time>2026-04-12T09:13:42.88Z</time></trkpt><trkpt lat="39.234235" lon="16.18208"><ele>624.0</ele><time>2026-04-12T09:14:11.881Z</time></trkpt><trkpt lat="39.2341533" lon="16.1820567"><ele>624.0</ele><time>2026-04-12T09:14:13.881Z</time></trkpt><trkpt lat="39.2340683" lon="16.181955"><ele>624.0</ele><time>2026-04-12T09:14:15.881Z</time></trkpt><trkpt lat="39.2340083" lon="16.1818967"><ele>624.0</ele><time>2026-04-12T09:14:16.881Z</time></trkpt><trkpt lat="39.23393" lon="16.1818467"><ele>624.0</ele><time>2026-04-12T09:14:17.881Z</time></trkpt><trkpt lat="39.2338467" lon="16.1818133"><ele>624.0</ele><time>2026-04-12T09:14:18.881Z</time></trkpt><trkpt lat="39.2337617" lon="16.1817717"><ele>622.2</ele><time>2026-04-12T09:14:19.88Z</time></trkpt><trkpt lat="39.23366" lon="16.1817317"><ele>620.4</ele><time>2026-04-12T09:14:20.881Z</time></trkpt><trkpt lat="39.23358" lon="16.1816817"><ele>618.6</ele><time>2026-04-12T09:14:21.881Z</time></trkpt><trkpt lat="39.2335033" lon="16.1816183"><ele>616.8</ele><time>2026-04-12T09:14:22.881Z</time></trkpt><trkpt lat="39.23344" lon="16.18154"><ele>615.0</ele><time>2026-04-12T09:14:23.881Z</time></trkpt><trkpt lat="39.2333783" lon="16.1814633"><ele>615.0</ele><time>2026-04-12T09:14:24.881Z</time></trkpt><trkpt lat="39.2333167" lon="16.181395"><ele>615.0</ele><time>2026-04-12T09:14:25.881Z</time></trkpt><trkpt lat="39.2332183" lon="16.18149"><ele>615.0</ele><time>2026-04-12T09:14:29.881Z</time></trkpt><trkpt lat="39.23314" lon="16.18153"><ele>615.0</ele><time>2026-04-12T09:14:30.88Z</time></trkpt><trkpt lat="39.2330417" lon="16.1815433"><ele>615.0</ele><time>2026-04-12T09:14:31.881Z</time></trkpt><trkpt lat="39.2329633" lon="16.1815367"><ele>617.2</ele><time>2026-04-12T09:14:32.881Z</time></trkpt><trkpt lat="39.232885" lon="16.181505"><ele>619.4</ele><time>2026-04-12T09:14:33.881Z</time></trkpt><trkpt lat="39.2328217" lon="16.1814833"><ele>621.6</ele><time>2026-04-12T09:14:34.88Z</time></trkpt><trkpt lat="39.2327483" lon="16.181435"><ele>623.8</ele><time>2026-04-12T09:14:35.88Z</time></trkpt><trkpt lat="39.2326267" lon="16.1813817"><ele>626.0</ele><time>2026-04-12T09:14:36.881Z</time></trkpt><trkpt lat="39.2325333" lon="16.181345"><ele>626.0</ele><time>2026-04-12T09:14:37.881Z</time></trkpt><trkpt lat="39.232465" lon="16.181305"><ele>626.0</ele><time>2026-04-12T09:14:38.881Z</time></trkpt><trkpt lat="39.2323967" lon="16.18125"><ele>626.0</ele><time>2026-04-12T09:14:39.881Z</time></trkpt><trkpt lat="39.2323383" lon="16.1812167"><ele>626.0</ele><time>2026-04-12T09:14:40.881Z</time></trkpt><trkpt lat="39.2322733" lon="16.18116"><ele>626.0</ele><time>2026-04-12T09:14:41.881Z</time></trkpt><trkpt lat="39.2322083" lon="16.1811117"><ele>626.0</ele><time>2026-04-12T09:14:42.881Z</time></trkpt><trkpt lat="39.2321133" lon="16.180995"><ele>625.75</ele><time>2026-04-12T09:14:44.88Z</time></trkpt><trkpt lat="39.23202" lon="16.1809067"><ele>625.5</ele><time>2026-04-12T09:14:46.881Z</time></trkpt><trkpt lat="39.231945" lon="16.180805"><ele>625.25</ele><time>2026-04-12T09:14:48.881Z</time></trkpt><trkpt lat="39.2320533" lon="16.1806367"><ele>625.0</ele><time>2026-04-12T09:14:50.881Z</time></trkpt><trkpt lat="39.23212" lon="16.180565"><ele>629.4</ele><time>2026-04-12T09:14:52.881Z</time></trkpt><trkpt lat="39.2322033" lon="16.1805933"><ele>633.8</ele><time>2026-04-12T09:14:53.881Z</time></trkpt><trkpt lat="39.2322867" lon="16.1805767"><ele>638.2</ele><time>2026-04-12T09:14:54.881Z</time></trkpt><trkpt lat="39.2324317" lon="16.1806333"><ele>642.6</ele><time>2026-04-12T09:14:56.881Z</time></trkpt><trkpt lat="39.2325183" lon="16.180645"><ele>647.0</ele><time>2026-04-12T09:14:57.881Z</time></trkpt><trkpt lat="39.2325817" lon="16.1805867"><ele>647.5</ele><time>2026-04-12T09:14:59.881Z</time></trkpt><trkpt lat="39.2325933" lon="16.1805067"><ele>648.0</ele><time>2026-04-12T09:15:00.881Z</time></trkpt><trkpt lat="39.2325967" lon="16.1804133"><ele>648.5</ele><time>2026-04-12T09:15:01.881Z</time></trkpt><trkpt lat="39.2326217" lon="16.1802883"><ele>649.0</ele><time>2026-04-12T09:15:03.881Z</time></trkpt><trkpt lat="39.2325767" lon="16.1801833"><ele>649.5</ele><time>2026-04-12T09:15:05.88Z</time></trkpt><trkpt lat="39.2325317" lon="16.1800917"><ele>650.0</ele><time>2026-04-12T09:15:06.881Z</time></trkpt><trkpt lat="39.232505" lon="16.180005"><ele>650.0</ele><time>2026-04-12T09:15:07.881Z</time></trkpt><trkpt lat="39.232475" lon="16.1798683"><ele>650.0</ele><time>2026-04-12T09:15:08.881Z</time></trkpt><trkpt lat="39.23245" lon="16.1797483"><ele>650.0</ele><time>2026-04-12T09:15:09.881Z</time></trkpt><trkpt lat="39.2324433" lon="16.1796333"><ele>650.0</ele><time>2026-04-12T09:15:10.881Z</time></trkpt><trkpt lat="39.2324383" lon="16.17951"><ele>650.0</ele><time>2026-04-12T09:15:11.881Z</time></trkpt><trkpt lat="39.2324417" lon="16.1794"><ele>655.5</ele><time>2026-04-12T09:15:12.88Z</time></trkpt><trkpt lat="39.2323967" lon="16.179315"><ele>661.0</ele><time>2026-04-12T09:15:13.88Z</time></trkpt><trkpt lat="39.2323867" lon="16.1792283"><ele>666.5</ele><time>2026-04-12T09:15:14.881Z</time></trkpt><trkpt lat="39.2323583" lon="16.1790733"><ele>672.0</ele><time>2026-04-12T09:15:16.881Z</time></trkpt><trkpt lat="39.232225" lon="16.1797133"><ele>672.6</ele><time>2026-04-12T09:15:36.883Z</time></trkpt><trkpt lat="39.23212" lon="16.1797467"><ele>673.2</ele><time>2026-04-12T09:15:38.883Z</time></trkpt><trkpt lat="39.2320117" lon="16.1797283"><ele>673.8</ele><time>2026-04-12T09:15:39.883Z</time></trkpt><trkpt lat="39.2319483" lon="16.1797267"><ele>674.4</ele><time>2026-04-12T09:15:40.882Z</time></trkpt><trkpt lat="39.231875" lon="16.17971"><ele>675.0</ele><time>2026-04-12T09:15:41.883Z</time></trkpt><trkpt lat="39.2317667" lon="16.179645"><ele>675.0</ele><time>2026-04-12T09:15:43.883Z</time></trkpt><trkpt lat="39.2316933" lon="16.1796"><ele>675.0</ele><time>2026-04-12T09:15:44.883Z</time></trkpt><trkpt lat="39.2315833" lon="16.1794967"><ele>675.0</ele><time>2026-04-12T09:15:45.883Z</time></trkpt><trkpt lat="39.2315" lon="16.1794317"><ele>675.0</ele><time>2026-04-12T09:15:46.882Z</time></trkpt><trkpt lat="39.2314333" lon="16.1793633"><ele>675.0</ele><time>2026-04-12T09:15:47.882Z</time></trkpt><trkpt lat="39.2313767" lon="16.1792983"><ele>672.6</ele><time>2026-04-12T09:15:48.882Z</time></trkpt><trkpt lat="39.2313183" lon="16.17925"><ele>670.2</ele><time>2026-04-12T09:15:49.882Z</time></trkpt><trkpt lat="39.2312383" lon="16.1792133"><ele>667.8</ele><time>2026-04-12T09:15:50.883Z</time></trkpt><trkpt lat="39.2310967" lon="16.17913"><ele>665.4</ele><time>2026-04-12T09:15:51.883Z</time></trkpt><trkpt lat="39.2309633" lon="16.1791"><ele>663.0</ele><time>2026-04-12T09:15:53.883Z</time></trkpt><trkpt lat="39.2308917" lon="16.179075"><ele>666.1666666666666</ele><time>2026-04-12T09:15:54.883Z</time></trkpt><trkpt lat="39.2308067" lon="16.1790017"><ele>669.3333333333334</ele><time>2026-04-12T09:15:56.883Z</time></trkpt><trkpt lat="39.2307683" lon="16.1789"><ele>672.5</ele><time>2026-04-12T09:15:58.883Z</time></trkpt><trkpt lat="39.2307533" lon="16.178805"><ele>675.6666666666667</ele><time>2026-04-12T09:15:59.883Z</time></trkpt><trkpt lat="39.230765" lon="16.1787133"><ele>678.8333333333334</ele><time>2026-04-12T09:16:00.883Z</time></trkpt><trkpt lat="39.2307617" lon="16.17862"><ele>682.0</ele><time>2026-04-12T09:16:01.883Z</time></trkpt><trkpt lat="39.2307617" lon="16.1784917"><ele>682.0</ele><time>2026-04-12T09:16:02.883Z</time></trkpt><trkpt lat="39.230765" lon="16.178365"><ele>682.0</ele><time>2026-04-12T09:16:03.883Z</time></trkpt><trkpt lat="39.2307933" lon="16.1782467"><ele>682.0</ele><time>2026-04-12T09:16:04.882Z</time></trkpt><trkpt lat="39.2308083" lon="16.17815"><ele>682.0</ele><time>2026-04-12T09:16:05.883Z</time></trkpt><trkpt lat="39.2308333" lon="16.1780233"><ele>682.0</ele><time>2026-04-12T09:16:06.883Z</time></trkpt><trkpt lat="39.2308533" lon="16.1779"><ele>685.2</ele><time>2026-04-12T09:16:07.883Z</time></trkpt><trkpt lat="39.23087" lon="16.1777717"><ele>688.4000000000001</ele><time>2026-04-12T09:16:08.882Z</time></trkpt><trkpt lat="39.2308633" lon="16.1776317"><ele>691.5999999999999</ele><time>2026-04-12T09:16:09.882Z</time></trkpt><trkpt lat="39.230865" lon="16.1774833"><ele>694.8</ele><time>2026-04-12T09:16:10.883Z</time></trkpt><trkpt lat="39.2308733" lon="16.1773283"><ele>698.0</ele><time>2026-04-12T09:16:11.883Z</time></trkpt><trkpt lat="39.230895" lon="16.1771683"><ele>701.0</ele><time>2026-04-12T09:16:12.882Z</time></trkpt><trkpt lat="39.2308967" lon="16.1770267"><ele>704.0</ele><time>2026-04-12T09:16:13.883Z</time></trkpt><trkpt lat="39.2309017" lon="16.1769033"><ele>707.0</ele><time>2026-04-12T09:16:14.882Z</time></trkpt><trkpt lat="39.2309033" lon="16.176795"><ele>710.0</ele><time>2026-04-12T09:16:15.883Z</time></trkpt><trkpt lat="39.2309483" lon="16.1766617"><ele>713.0</ele><time>2026-04-12T09:16:17.883Z</time></trkpt><trkpt lat="39.2309883" lon="16.176565"><ele>716.0</ele><time>2026-04-12T09:16:19.882Z</time></trkpt><trkpt lat="39.2309983" lon="16.176465"><ele>719.0</ele><time>2026-04-12T09:16:21.883Z</time></trkpt><trkpt lat="39.2310433" lon="16.1763967"><ele>722.0</ele><time>2026-04-12T09:16:23.882Z</time></trkpt><trkpt lat="39.2311183" lon="16.1763333"><ele>725.0</ele><time>2026-04-12T09:16:26.883Z</time></trkpt><trkpt lat="39.23115" lon="16.1762583"><ele>728.0</ele><time>2026-04-12T09:16:28.882Z</time></trkpt><trkpt lat="39.2311933" lon="16.1761667"><ele>731.0</ele><time>2026-04-12T09:16:31.883Z</time></trkpt><trkpt lat="39.23116" lon="16.1762417"><ele>731.0</ele><time>2026-04-12T09:16:54.883Z</time></trkpt><trkpt lat="39.2310333" lon="16.1761967"><ele>731.0</ele><time>2026-04-12T09:16:56.883Z</time></trkpt><trkpt lat="39.2309567" lon="16.176165"><ele>731.0</ele><time>2026-04-12T09:16:57.883Z</time></trkpt><trkpt lat="39.2308917" lon="16.1761267"><ele>731.0</ele><time>2026-04-12T09:16:58.883Z</time></trkpt><trkpt lat="39.2308" lon="16.176035"><ele>731.0</ele><time>2026-04-12T09:17:00.883Z</time></trkpt><trkpt lat="39.23079" lon="16.1759267"><ele>731.0</ele><time>2026-04-12T09:17:02.882Z</time></trkpt><trkpt lat="39.2308317" lon="16.1758583"><ele>731.0</ele><time>2026-04-12T09:17:04.883Z</time></trkpt><trkpt lat="39.2308883" lon="16.175805"><ele>731.0</ele><time>2026-04-12T09:17:05.882Z</time></trkpt><trkpt lat="39.2309683" lon="16.1757167"><ele>731.0</ele><time>2026-04-12T09:17:07.883Z</time></trkpt><trkpt lat="39.2309883" lon="16.1756033"><ele>731.0</ele><time>2026-04-12T09:17:09.883Z</time></trkpt><trkpt lat="39.23088" lon="16.175535"><ele>735.4</ele><time>2026-04-12T09:17:11.883Z</time></trkpt><trkpt lat="39.2308283" lon="16.1754667"><ele>739.8</ele><time>2026-04-12T09:17:13.883Z</time></trkpt><trkpt lat="39.23086" lon="16.1753933"><ele>744.1999999999999</ele><time>2026-04-12T09:17:14.883Z</time></trkpt><trkpt lat="39.2308633" lon="16.1752667"><ele>748.5999999999999</ele><time>2026-04-12T09:17:16.883Z</time></trkpt><trkpt lat="39.23091" lon="16.1751067"><ele>753.0</ele><time>2026-04-12T09:17:18.883Z</time></trkpt><trkpt lat="39.231085" lon="16.1750133"><ele>753.0</ele><time>2026-04-12T09:17:20.883Z</time></trkpt><trkpt lat="39.23116" lon="16.1749683"><ele>753.0</ele><time>2026-04-12T09:17:21.883Z</time></trkpt><trkpt lat="39.2312133" lon="16.1749233"><ele>753.0</ele><time>2026-04-12T09:17:22.883Z</time></trkpt><trkpt lat="39.231245" lon="16.1747717"><ele>753.0</ele><time>2026-04-12T09:17:24.883Z</time></trkpt><trkpt lat="39.2311983" lon="16.174635"><ele>753.0</ele><time>2026-04-12T09:17:26.883Z</time></trkpt><trkpt lat="39.2311467" lon="16.1745817"><ele>757.1666666666666</ele><time>2026-04-12T09:17:27.883Z</time></trkpt><trkpt lat="39.2310733" lon="16.1745417"><ele>761.3333333333333</ele><time>2026-04-12T09:17:28.882Z</time></trkpt><trkpt lat="39.231005" lon="16.1744883"><ele>765.5</ele><time>2026-04-12T09:17:29.882Z</time></trkpt><trkpt lat="39.230905" lon="16.1744733"><ele>769.6666666666666</ele><time>2026-04-12T09:17:30.883Z</time></trkpt><trkpt lat="39.2308267" lon="16.1744683"><ele>773.8333333333333</ele><time>2026-04-12T09:17:31.882Z</time></trkpt><trkpt lat="39.23076" lon="16.1745033"><ele>778.0</ele><time>2026-04-12T09:17:32.883Z</time></trkpt><trkpt lat="39.23069" lon="16.1745583"><ele>780.8571428571429</ele><time>2026-04-12T09:17:33.882Z</time></trkpt><trkpt lat="39.2306267" lon="16.174645"><ele>783.7142857142857</ele><time>2026-04-12T09:17:34.882Z</time></trkpt><trkpt lat="39.2305683" lon="16.174695"><ele>786.5714285714286</ele><time>2026-04-12T09:17:35.883Z</time></trkpt><trkpt lat="39.2305267" lon="16.17477"><ele>789.4285714285714</ele><time>2026-04-12T09:17:36.883Z</time></trkpt><trkpt lat="39.2304567" lon="16.1748"><ele>792.2857142857142</ele><time>2026-04-12T09:17:37.882Z</time></trkpt><trkpt lat="39.2303817" lon="16.1748033"><ele>795.1428571428571</ele><time>2026-04-12T09:17:38.882Z</time></trkpt><trkpt lat="39.2303183" lon="16.1747867"><ele>798.0</ele><time>2026-04-12T09:17:39.883Z</time></trkpt><trkpt lat="39.2302167" lon="16.1747433"><ele>798.0</ele><time>2026-04-12T09:17:40.882Z</time></trkpt><trkpt lat="39.2301383" lon="16.174705"><ele>798.0</ele><time>2026-04-12T09:17:41.883Z</time></trkpt><trkpt lat="39.2300533" lon="16.1746733"><ele>798.0</ele><time>2026-04-12T09:17:42.882Z</time></trkpt><trkpt lat="39.229955" lon="16.1746783"><ele>798.0</ele><time>2026-04-12T09:17:44.883Z</time></trkpt><trkpt lat="39.2299067" lon="16.1747483"><ele>798.0</ele><time>2026-04-12T09:17:46.883Z</time></trkpt><trkpt lat="39.2299617" lon="16.1748033"><ele>798.0</ele><time>2026-04-12T09:17:48.882Z</time></trkpt><trkpt lat="39.2299767" lon="16.1749"><ele>798.0</ele><time>2026-04-12T09:17:50.883Z</time></trkpt><trkpt lat="39.2299167" lon="16.17493"><ele>798.0</ele><time>2026-04-12T09:17:53.883Z</time></trkpt><trkpt lat="39.2299467" lon="16.1748433"><ele>798.0</ele><time>2026-04-12T09:17:57.883Z</time></trkpt><trkpt lat="39.229965" lon="16.1747583"><ele>798.0</ele><time>2026-04-12T09:17:58.882Z</time></trkpt><trkpt lat="39.2299833" lon="16.17467"><ele>798.0</ele><time>2026-04-12T09:17:59.882Z</time></trkpt><trkpt lat="39.2300017" lon="16.174575"><ele>798.0</ele><time>2026-04-12T09:18:00.882Z</time></trkpt><trkpt lat="39.2300633" lon="16.1744767"><ele>798.0</ele><time>2026-04-12T09:18:01.883Z</time></trkpt><trkpt lat="39.2301033" lon="16.1743783"><ele>798.0</ele><time>2026-04-12T09:18:02.882Z</time></trkpt><trkpt lat="39.230145" lon="16.1742783"><ele>798.0</ele><time>2026-04-12T09:18:03.883Z</time></trkpt><trkpt lat="39.2301833" lon="16.1741967"><ele>798.0</ele><time>2026-04-12T09:18:04.882Z</time></trkpt><trkpt lat="39.2302383" lon="16.1741217"><ele>798.0</ele><time>2026-04-12T09:18:05.883Z</time></trkpt><trkpt lat="39.2302967" lon="16.1740717"><ele>798.0</ele><time>2026-04-12T09:18:06.883Z</time></trkpt><trkpt lat="39.230395" lon="16.174015"><ele>800.8</ele><time>2026-04-12T09:18:07.883Z</time></trkpt><trkpt lat="39.23046" lon="16.1739567"><ele>803.5999999999999</ele><time>2026-04-12T09:18:08.883Z</time></trkpt><trkpt lat="39.2304767" lon="16.1738483"><ele>806.4000000000001</ele><time>2026-04-12T09:18:09.883Z</time></trkpt><trkpt lat="39.23053" lon="16.1737333"><ele>809.2</ele><time>2026-04-12T09:18:11.883Z</time></trkpt><trkpt lat="39.2305817" lon="16.173625"><ele>812.0</ele><time>2026-04-12T09:18:13.882Z</time></trkpt><trkpt lat="39.2306483" lon="16.1735217"><ele>812.0000000000001</ele><time>2026-04-12T09:18:15.883Z</time></trkpt><trkpt lat="39.2307183" lon="16.1734467"><ele>812.0</ele><time>2026-04-12T09:18:16.883Z</time></trkpt><trkpt lat="39.2307683" lon="16.173395"><ele>812.0</ele><time>2026-04-12T09:18:17.883Z</time></trkpt><trkpt lat="39.23085" lon="16.1732917"><ele>812.0</ele><time>2026-04-12T09:18:19.883Z</time></trkpt><trkpt lat="39.2309333" lon="16.1732683"><ele>812.0000000000001</ele><time>2026-04-12T09:18:20.883Z</time></trkpt><trkpt lat="39.2310067" lon="16.173245"><ele>812.0</ele><time>2026-04-12T09:18:21.883Z</time></trkpt><trkpt lat="39.2310817" lon="16.1732267"><ele>812.0</ele><time>2026-04-12T09:18:23.883Z</time></trkpt><trkpt lat="39.2311783" lon="16.17325"><ele>812.0</ele><time>2026-04-12T09:18:28.883Z</time></trkpt><trkpt lat="39.2312833" lon="16.1732633"><ele>812.0</ele><time>2026-04-12T09:18:30.883Z</time></trkpt><trkpt lat="39.2313883" lon="16.173315"><ele>812.0</ele><time>2026-04-12T09:18:32.883Z</time></trkpt><trkpt lat="39.2315133" lon="16.1734233"><ele>814.1666666666667</ele><time>2026-04-12T09:18:34.883Z</time></trkpt><trkpt lat="39.2315517" lon="16.1734983"><ele>816.3333333333334</ele><time>2026-04-12T09:18:36.883Z</time></trkpt><trkpt lat="39.2315367" lon="16.173635"><ele>818.5</ele><time>2026-04-12T09:18:38.882Z</time></trkpt><trkpt lat="39.23156" lon="16.1737233"><ele>820.6666666666667</ele><time>2026-04-12T09:18:40.883Z</time></trkpt><trkpt lat="39.2316283" lon="16.1737883"><ele>822.8333333333334</ele><time>2026-04-12T09:18:42.882Z</time></trkpt><trkpt lat="39.2316867" lon="16.1738617"><ele>825.0</ele><time>2026-04-12T09:18:44.883Z</time></trkpt><trkpt lat="39.231725" lon="16.1739683"><ele>825.0</ele><time>2026-04-12T09:18:46.882Z</time></trkpt><trkpt lat="39.2317683" lon="16.1740683"><ele>825.0</ele><time>2026-04-12T09:18:48.883Z</time></trkpt><trkpt lat="39.23182" lon="16.1741367"><ele>825.0</ele><time>2026-04-12T09:18:51.883Z</time></trkpt><trkpt lat="39.231855" lon="16.1742267"><ele>825.0</ele><time>2026-04-12T09:18:53.882Z</time></trkpt><trkpt lat="39.23174" lon="16.1741267"><ele>825.0</ele><time>2026-04-12T09:19:21.883Z</time></trkpt><trkpt lat="39.2317167" lon="16.1739983"><ele>825.0</ele><time>2026-04-12T09:19:24.883Z</time></trkpt><trkpt lat="39.2316717" lon="16.173905"><ele>825.0</ele><time>2026-04-12T09:19:26.883Z</time></trkpt><trkpt lat="39.2317017" lon="16.1737967"><ele>825.0</ele><time>2026-04-12T09:19:43.883Z</time></trkpt><trkpt lat="39.2316717" lon="16.17371"><ele>825.0</ele><time>2026-04-12T09:19:46.883Z</time></trkpt><trkpt lat="39.2315817" lon="16.1736033"><ele>825.0</ele><time>2026-04-12T09:19:48.883Z</time></trkpt><trkpt lat="39.2315517" lon="16.17353"><ele>825.0</ele><time>2026-04-12T09:19:49.883Z</time></trkpt><trkpt lat="39.2315" lon="16.1734633"><ele>822.4</ele><time>2026-04-12T09:19:50.883Z</time></trkpt><trkpt lat="39.2314267" lon="16.1733433"><ele>819.8</ele><time>2026-04-12T09:19:52.882Z</time></trkpt><trkpt lat="39.2313317" lon="16.17332"><ele>817.2</ele><time>2026-04-12T09:19:53.883Z</time></trkpt><trkpt lat="39.2312283" lon="16.173315"><ele>814.6</ele><time>2026-04-12T09:19:54.883Z</time></trkpt><trkpt lat="39.2311567" lon="16.1733117"><ele>812.0</ele><time>2026-04-12T09:19:55.882Z</time></trkpt><trkpt lat="39.231055" lon="16.1733033"><ele>812.0</ele><time>2026-04-12T09:19:57.883Z</time></trkpt><trkpt lat="39.2309833" lon="16.173325"><ele>812.0</ele><time>2026-04-12T09:19:59.883Z</time></trkpt><trkpt lat="39.2308917" lon="16.1733917"><ele>812.0</ele><time>2026-04-12T09:20:01.883Z</time></trkpt><trkpt lat="39.2307967" lon="16.1734667"><ele>812.0</ele><time>2026-04-12T09:20:03.883Z</time></trkpt><trkpt lat="39.23073" lon="16.17354"><ele>812.0</ele><time>2026-04-12T09:20:05.883Z</time></trkpt><trkpt lat="39.2306767" lon="16.17363"><ele>814.2</ele><time>2026-04-12T09:20:07.883Z</time></trkpt><trkpt lat="39.2306167" lon="16.1737433"><ele>816.4000000000001</ele><time>2026-04-12T09:20:09.883Z</time></trkpt><trkpt lat="39.2305617" lon="16.1737883"><ele>818.5999999999999</ele><time>2026-04-12T09:20:11.883Z</time></trkpt><trkpt lat="39.2304917" lon="16.1738067"><ele>820.8</ele><time>2026-04-12T09:20:14.882Z</time></trkpt><trkpt lat="39.2304133" lon="16.1737633"><ele>823.0</ele><time>2026-04-12T09:20:17.882Z</time></trkpt><trkpt lat="39.2302883" lon="16.1737217"><ele>822.9999999999999</ele><time>2026-04-12T09:20:19.883Z</time></trkpt><trkpt lat="39.2302183" lon="16.173695"><ele>823.0</ele><time>2026-04-12T09:20:20.883Z</time></trkpt><trkpt lat="39.2301483" lon="16.173665"><ele>823.0</ele><time>2026-04-12T09:20:21.882Z</time></trkpt><trkpt lat="39.23008" lon="16.1736367"><ele>823.0</ele><time>2026-04-12T09:20:22.883Z</time></trkpt><trkpt lat="39.2299883" lon="16.173635"><ele>822.9999999999999</ele><time>2026-04-12T09:20:23.883Z</time></trkpt><trkpt lat="39.2299217" lon="16.173635"><ele>823.0</ele><time>2026-04-12T09:20:24.882Z</time></trkpt><trkpt lat="39.2298433" lon="16.1736283"><ele>818.9999999999999</ele><time>2026-04-12T09:20:25.882Z</time></trkpt><trkpt lat="39.2297567" lon="16.1736583"><ele>815.0</ele><time>2026-04-12T09:20:26.883Z</time></trkpt><trkpt lat="39.22968" lon="16.173675"><ele>811.0</ele><time>2026-04-12T09:20:27.883Z</time></trkpt><trkpt lat="39.2296033" lon="16.1736767"><ele>807.0</ele><time>2026-04-12T09:20:28.883Z</time></trkpt><trkpt lat="39.22952" lon="16.17368"><ele>802.9999999999999</ele><time>2026-04-12T09:20:29.883Z</time></trkpt><trkpt lat="39.2295917" lon="16.173555"><ele>799.0</ele><time>2026-04-12T09:20:32.883Z</time></trkpt><trkpt lat="39.229605" lon="16.1734533"><ele>798.9999999999999</ele><time>2026-04-12T09:20:35.882Z</time></trkpt><trkpt lat="39.22962" lon="16.17334"><ele>799.0</ele><time>2026-04-12T09:20:37.882Z</time></trkpt><trkpt lat="39.2296333" lon="16.17322"><ele>799.0</ele><time>2026-04-12T09:20:39.883Z</time></trkpt><trkpt lat="39.229655" lon="16.173135"><ele>799.0</ele><time>2026-04-12T09:20:41.883Z</time></trkpt><trkpt lat="39.229715" lon="16.1730933"><ele>798.9999999999999</ele><time>2026-04-12T09:20:43.883Z</time></trkpt><trkpt lat="39.2297383" lon="16.1730167"><ele>799.0</ele><time>2026-04-12T09:20:48.883Z</time></trkpt><trkpt lat="39.22981" lon="16.1730167"><ele>799.3333333333333</ele><time>2026-04-12T09:20:52.883Z</time></trkpt><trkpt lat="39.2297417" lon="16.17306"><ele>799.6666666666666</ele><time>2026-04-12T09:20:54.883Z</time></trkpt><trkpt lat="39.2296483" lon="16.1730833"><ele>800.0</ele><time>2026-04-12T09:21:09.883Z</time></trkpt><trkpt lat="39.2296" lon="16.1730083"><ele>800.3333333333333</ele><time>2026-04-12T09:21:14.883Z</time></trkpt><trkpt lat="39.2295783" lon="16.1729117"><ele>800.6666666666666</ele><time>2026-04-12T09:21:16.883Z</time></trkpt><trkpt lat="39.2296167" lon="16.1728383"><ele>801.0</ele><time>2026-04-12T09:21:18.882Z</time></trkpt><trkpt lat="39.22956" lon="16.1727667"><ele>801.0</ele><time>2026-04-12T09:21:22.883Z</time></trkpt><trkpt lat="39.2295167" lon="16.1726667"><ele>801.0</ele><time>2026-04-12T09:21:25.883Z</time></trkpt><trkpt lat="39.2295517" lon="16.1725717"><ele>801.0</ele><time>2026-04-12T09:21:29.883Z</time></trkpt><trkpt lat="39.2295133" lon="16.1724967"><ele>801.0</ele><time>2026-04-12T09:21:34.883Z</time></trkpt><trkpt lat="39.229455" lon="16.1724367"><ele>801.0</ele><time>2026-04-12T09:21:37.883Z</time></trkpt><trkpt lat="39.2296" lon="16.1730083"><ele>801.0</ele><time>2026-04-12T09:21:14.883Z</time></trkpt><trkpt lat="39.2295783" lon="16.1729117"><ele>801.0</ele><time>2026-04-12T09:21:16.883Z</time></trkpt><trkpt lat="39.2296167" lon="16.1728383"><ele>801.0</ele><time>2026-04-12T09:21:18.882Z</time></trkpt><trkpt lat="39.22956" lon="16.1727667"><ele>801.0</ele><time>2026-04-12T09:21:22.883Z</time></trkpt><trkpt lat="39.2295167" lon="16.1726667"><ele>801.0</ele><time>2026-04-12T09:21:25.883Z</time></trkpt><trkpt lat="39.2295517" lon="16.1725717"><ele>801.0</ele><time>2026-04-12T09:21:29.883Z</time></trkpt><trkpt lat="39.2295133" lon="16.1724967"><ele>801.0</ele><time>2026-04-12T09:21:34.883Z</time></trkpt><trkpt lat="39.229455" lon="16.1724367"><ele>801.0</ele><time>2026-04-12T09:21:37.883Z</time></trkpt><trkpt lat="39.229385" lon="16.1723817"><ele>801.0</ele><time>2026-04-12T09:22:26.882Z</time></trkpt><trkpt lat="39.2294283" lon="16.1725083"><ele>801.0</ele><time>2026-04-12T09:22:29.882Z</time></trkpt><trkpt lat="39.22946" lon="16.1726"><ele>801.0</ele><time>2026-04-12T09:22:30.882Z</time></trkpt><trkpt lat="39.2294933" lon="16.1727"><ele>801.0</ele><time>2026-04-12T09:22:31.883Z</time></trkpt><trkpt lat="39.2295283" lon="16.1728067"><ele>801.0</ele><time>2026-04-12T09:22:32.883Z</time></trkpt><trkpt lat="39.22955" lon="16.1728917"><ele>801.0</ele><time>2026-04-12T09:22:33.882Z</time></trkpt><trkpt lat="39.2295833" lon="16.1729733"><ele>801.0</ele><time>2026-04-12T09:22:34.883Z</time></trkpt><trkpt lat="39.2296233" lon="16.1730667"><ele>801.0</ele><time>2026-04-12T09:22:35.883Z</time></trkpt><trkpt lat="39.2296683" lon="16.1731533"><ele>801.0</ele><time>2026-04-12T09:22:36.883Z</time></trkpt><trkpt lat="39.2297083" lon="16.1732467"><ele>801.0</ele><time>2026-04-12T09:22:37.882Z</time></trkpt><trkpt lat="39.2297417" lon="16.1733167"><ele>800.5999999999999</ele><time>2026-04-12T09:22:38.883Z</time></trkpt><trkpt lat="39.2297667" lon="16.1734433"><ele>800.2</ele><time>2026-04-12T09:22:40.883Z</time></trkpt><trkpt lat="39.2297517" lon="16.173535"><ele>799.8</ele><time>2026-04-12T09:23:32.883Z</time></trkpt><trkpt lat="39.2298417" lon="16.1735567"><ele>799.4000000000001</ele><time>2026-04-12T09:23:40.883Z</time></trkpt><trkpt lat="39.22995" lon="16.17359"><ele>799.0</ele><time>2026-04-12T09:23:42.883Z</time></trkpt><trkpt lat="39.2300383" lon="16.1736033"><ele>803.8000000000001</ele><time>2026-04-12T09:23:44.883Z</time></trkpt><trkpt lat="39.230135" lon="16.1736367"><ele>808.6</ele><time>2026-04-12T09:23:46.883Z</time></trkpt><trkpt lat="39.2302467" lon="16.1736883"><ele>813.4</ele><time>2026-04-12T09:23:48.883Z</time></trkpt><trkpt lat="39.2303483" lon="16.1737333"><ele>818.2</ele><time>2026-04-12T09:23:50.882Z</time></trkpt><trkpt lat="39.2304117" lon="16.1737717"><ele>823.0</ele><time>2026-04-12T09:23:53.883Z</time></trkpt><trkpt lat="39.2304833" lon="16.173775"><ele>822.9999999999999</ele><time>2026-04-12T09:23:56.883Z</time></trkpt><trkpt lat="39.2305433" lon="16.1737133"><ele>823.0</ele><time>2026-04-12T09:24:00.883Z</time></trkpt><trkpt lat="39.2305733" lon="16.1736117"><ele>823.0</ele><time>2026-04-12T09:24:02.882Z</time></trkpt><trkpt lat="39.23064" lon="16.1735233"><ele>823.0</ele><time>2026-04-12T09:24:04.883Z</time></trkpt><trkpt lat="39.2307117" lon="16.1734883"><ele>822.9999999999999</ele><time>2026-04-12T09:24:05.883Z</time></trkpt><trkpt lat="39.230805" lon="16.1734633"><ele>823.0</ele><time>2026-04-12T09:24:07.882Z</time></trkpt><trkpt lat="39.2309333" lon="16.173425"><ele>822.9999999999999</ele><time>2026-04-12T09:24:09.883Z</time></trkpt><trkpt lat="39.2310083" lon="16.1733867"><ele>823.0</ele><time>2026-04-12T09:24:11.882Z</time></trkpt><trkpt lat="39.2309433" lon="16.17343"><ele>823.0</ele><time>2026-04-12T09:24:36.882Z</time></trkpt><trkpt lat="39.2308383" lon="16.173465"><ele>823.0</ele><time>2026-04-12T09:24:38.883Z</time></trkpt><trkpt lat="39.2307733" lon="16.173535"><ele>822.9999999999999</ele><time>2026-04-12T09:24:40.882Z</time></trkpt><trkpt lat="39.2307183" lon="16.1736167"><ele>823.0</ele><time>2026-04-12T09:24:42.883Z</time></trkpt><trkpt lat="39.2306383" lon="16.1737383"><ele>823.0</ele><time>2026-04-12T09:24:45.883Z</time></trkpt><trkpt lat="39.230615" lon="16.173815"><ele>823.0</ele><time>2026-04-12T09:24:46.882Z</time></trkpt><trkpt lat="39.2305683" lon="16.173965"><ele>823.0</ele><time>2026-04-12T09:24:48.882Z</time></trkpt><trkpt lat="39.23046" lon="16.1739667"><ele>823.0</ele><time>2026-04-12T09:24:50.883Z</time></trkpt><trkpt lat="39.230335" lon="16.1739633"><ele>823.0</ele><time>2026-04-12T09:24:52.883Z</time></trkpt><trkpt lat="39.23027" lon="16.173965"><ele>823.0</ele><time>2026-04-12T09:24:53.883Z</time></trkpt><trkpt lat="39.2301683" lon="16.1740183"><ele>823.0</ele><time>2026-04-12T09:24:55.883Z</time></trkpt><trkpt lat="39.2301233" lon="16.1741017"><ele>823.0</ele><time>2026-04-12T09:24:57.883Z</time></trkpt><trkpt lat="39.2300433" lon="16.1742167"><ele>823.0</ele><time>2026-04-12T09:24:59.883Z</time></trkpt><trkpt lat="39.2299933" lon="16.17434"><ele>823.0</ele><time>2026-04-12T09:25:01.882Z</time></trkpt><trkpt lat="39.2299567" lon="16.1744583"><ele>818.0</ele><time>2026-04-12T09:25:03.883Z</time></trkpt><trkpt lat="39.22993" lon="16.1745867"><ele>813.0</ele><time>2026-04-12T09:25:05.882Z</time></trkpt><trkpt lat="39.2299167" lon="16.1747083"><ele>808.0</ele><time>2026-04-12T09:25:07.883Z</time></trkpt><trkpt lat="39.2298933" lon="16.1748133"><ele>803.0</ele><time>2026-04-12T09:25:09.882Z</time></trkpt><trkpt lat="39.2299017" lon="16.1749217"><ele>798.0</ele><time>2026-04-12T09:25:11.883Z</time></trkpt><trkpt lat="39.2298733" lon="16.1750333"><ele>798.0</ele><time>2026-04-12T09:25:14.883Z</time></trkpt><trkpt lat="39.2298633" lon="16.1749433"><ele>798.0</ele><time>2026-04-12T09:26:07.883Z</time></trkpt><trkpt lat="39.2299" lon="16.1748333"><ele>798.0</ele><time>2026-04-12T09:26:14.883Z</time></trkpt><trkpt lat="39.2299333" lon="16.17475"><ele>798.0</ele><time>2026-04-12T09:26:16.883Z</time></trkpt><trkpt lat="39.229985" lon="16.1747017"><ele>798.0</ele><time>2026-04-12T09:26:18.883Z</time></trkpt><trkpt lat="39.2300567" lon="16.1746933"><ele>798.0</ele><time>2026-04-12T09:26:20.883Z</time></trkpt><trkpt lat="39.2301983" lon="16.1747517"><ele>798.0</ele><time>2026-04-12T09:26:23.883Z</time></trkpt><trkpt lat="39.23028" lon="16.174775"><ele>798.0</ele><time>2026-04-12T09:26:24.883Z</time></trkpt><trkpt lat="39.2303817" lon="16.1748183"><ele>798.0</ele><time>2026-04-12T09:26:26.883Z</time></trkpt><trkpt lat="39.2304883" lon="16.1748417"><ele>798.0</ele><time>2026-04-12T09:26:28.883Z</time></trkpt><trkpt lat="39.23058" lon="16.1747917"><ele>798.0</ele><time>2026-04-12T09:26:30.883Z</time></trkpt><trkpt lat="39.2306317" lon="16.1747017"><ele>794.0</ele><time>2026-04-12T09:26:31.883Z</time></trkpt><trkpt lat="39.230655" lon="16.1746117"><ele>790.0</ele><time>2026-04-12T09:26:32.882Z</time></trkpt><trkpt lat="39.2307283" lon="16.17451"><ele>786.0</ele><time>2026-04-12T09:26:34.882Z</time></trkpt><trkpt lat="39.2308233" lon="16.1744533"><ele>782.0</ele><time>2026-04-12T09:26:36.883Z</time></trkpt><trkpt lat="39.2308683" lon="16.174515"><ele>778.0</ele><time>2026-04-12T09:26:38.882Z</time></trkpt><trkpt lat="39.2309717" lon="16.1746167"><ele>777.9999999999999</ele><time>2026-04-12T09:26:40.882Z</time></trkpt><trkpt lat="39.23103" lon="16.1746717"><ele>778.0</ele><time>2026-04-12T09:26:41.883Z</time></trkpt><trkpt lat="39.2310783" lon="16.1747367"><ele>778.0</ele><time>2026-04-12T09:26:42.883Z</time></trkpt><trkpt lat="39.2311233" lon="16.1747983"><ele>778.0</ele><time>2026-04-12T09:26:43.883Z</time></trkpt><trkpt lat="39.2311867" lon="16.1748617"><ele>777.9999999999999</ele><time>2026-04-12T09:26:44.883Z</time></trkpt><trkpt lat="39.2312383" lon="16.17494"><ele>778.0</ele><time>2026-04-12T09:26:45.882Z</time></trkpt><trkpt lat="39.231255" lon="16.1750917"><ele>773.8333333333333</ele><time>2026-04-12T09:26:47.883Z</time></trkpt><trkpt lat="39.2311767" lon="16.175175"><ele>769.6666666666666</ele><time>2026-04-12T09:26:50.883Z</time></trkpt><trkpt lat="39.23108" lon="16.175165"><ele>765.5</ele><time>2026-04-12T09:26:51.882Z</time></trkpt><trkpt lat="39.230995" lon="16.1751733"><ele>761.3333333333333</ele><time>2026-04-12T09:26:52.883Z</time></trkpt><trkpt lat="39.23093" lon="16.175185"><ele>757.1666666666666</ele><time>2026-04-12T09:26:53.883Z</time></trkpt><trkpt lat="39.2308533" lon="16.1752367"><ele>753.0</ele><time>2026-04-12T09:26:55.883Z</time></trkpt><trkpt lat="39.2307783" lon="16.1752917"><ele>753.0</ele><time>2026-04-12T09:26:57.882Z</time></trkpt><trkpt lat="39.2307183" lon="16.1753817"><ele>753.0</ele><time>2026-04-12T09:27:00.882Z</time></trkpt><trkpt lat="39.2307517" lon="16.1754833"><ele>753.0</ele><time>2026-04-12T09:27:03.882Z</time></trkpt><trkpt lat="39.230855" lon="16.1755617"><ele>753.0</ele><time>2026-04-12T09:27:49.883Z</time></trkpt><trkpt lat="39.2309133" lon="16.175625"><ele>753.0</ele><time>2026-04-12T09:27:51.883Z</time></trkpt><trkpt lat="39.2309417" lon="16.1757483"><ele>749.3333333333334</ele><time>2026-04-12T09:27:53.883Z</time></trkpt><trkpt lat="39.230995" lon="16.1757933"><ele>745.6666666666666</ele><time>2026-04-12T09:27:54.883Z</time></trkpt><trkpt lat="39.2310367" lon="16.1758983"><ele>742.0</ele><time>2026-04-12T09:27:56.883Z</time></trkpt><trkpt lat="39.231035" lon="16.17598"><ele>738.3333333333333</ele><time>2026-04-12T09:27:59.882Z</time></trkpt><trkpt lat="39.230945" lon="16.1759283"><ele>734.6666666666666</ele><time>2026-04-12T09:28:06.882Z</time></trkpt><trkpt lat="39.2308583" lon="16.17591"><ele>731.0</ele><time>2026-04-12T09:28:08.882Z</time></trkpt><trkpt lat="39.2307633" lon="16.1759417"><ele>731.0</ele><time>2026-04-12T09:28:10.883Z</time></trkpt><trkpt lat="39.2306883" lon="16.175985"><ele>731.0</ele><time>2026-04-12T09:28:12.883Z</time></trkpt><trkpt lat="39.2306767" lon="16.1760967"><ele>731.0</ele><time>2026-04-12T09:28:15.883Z</time></trkpt><trkpt lat="39.230885" lon="16.17617"><ele>731.0</ele><time>2026-04-12T09:28:17.883Z</time></trkpt><trkpt lat="39.23095" lon="16.176195"><ele>731.0</ele><time>2026-04-12T09:28:18.882Z</time></trkpt><trkpt lat="39.2310583" lon="16.1762433"><ele>731.0</ele><time>2026-04-12T09:28:20.883Z</time></trkpt><trkpt lat="39.2310983" lon="16.17632"><ele>731.0</ele><time>2026-04-12T09:28:21.883Z</time></trkpt><trkpt lat="39.23107" lon="16.1764133"><ele>731.0</ele><time>2026-04-12T09:28:24.883Z</time></trkpt><trkpt lat="39.2309267" lon="16.1763917"><ele>731.0</ele><time>2026-04-12T09:28:25.882Z</time></trkpt><trkpt lat="39.2308567" lon="16.1764017"><ele>731.0</ele><time>2026-04-12T09:28:26.882Z</time></trkpt><trkpt lat="39.23078" lon="16.1764217"><ele>731.0</ele><time>2026-04-12T09:28:28.883Z</time></trkpt><trkpt lat="39.2307267" lon="16.176475"><ele>731.0</ele><time>2026-04-12T09:28:30.883Z</time></trkpt><trkpt lat="39.2307033" lon="16.176555"><ele>731.0</ele><time>2026-04-12T09:28:32.883Z</time></trkpt><trkpt lat="39.2307483" lon="16.176655"><ele>731.0</ele><time>2026-04-12T09:28:34.883Z</time></trkpt><trkpt lat="39.230845" lon="16.176765"><ele>731.0</ele><time>2026-04-12T09:28:36.883Z</time></trkpt><trkpt lat="39.2308583" lon="16.1768517"><ele>726.5</ele><time>2026-04-12T09:28:38.882Z</time></trkpt><trkpt lat="39.2309583" lon="16.1768883"><ele>722.0</ele><time>2026-04-12T09:29:01.883Z</time></trkpt><trkpt lat="39.2310983" lon="16.176895"><ele>717.5</ele><time>2026-04-12T09:29:03.883Z</time></trkpt><trkpt lat="39.2311983" lon="16.1769517"><ele>713.0</ele><time>2026-04-12T09:29:05.883Z</time></trkpt><trkpt lat="39.231325" lon="16.1770033"><ele>713.0</ele><time>2026-04-12T09:29:07.883Z</time></trkpt><trkpt lat="39.231405" lon="16.1770567"><ele>713.0</ele><time>2026-04-12T09:29:09.882Z</time></trkpt><trkpt lat="39.231465" lon="16.1771367"><ele>713.0</ele><time>2026-04-12T09:29:11.883Z</time></trkpt><trkpt lat="39.23153" lon="16.1772517"><ele>713.0</ele><time>2026-04-12T09:29:13.882Z</time></trkpt><trkpt lat="39.2315733" lon="16.177315"><ele>713.0</ele><time>2026-04-12T09:29:14.883Z</time></trkpt><trkpt lat="39.2316433" lon="16.1774467"><ele>715.0</ele><time>2026-04-12T09:29:16.883Z</time></trkpt><trkpt lat="39.2316817" lon="16.1775917"><ele>717.0</ele><time>2026-04-12T09:29:18.882Z</time></trkpt><trkpt lat="39.2316667" lon="16.17774"><ele>719.0</ele><time>2026-04-12T09:29:20.883Z</time></trkpt><trkpt lat="39.2316883" lon="16.1778533"><ele>721.0</ele><time>2026-04-12T09:29:22.883Z</time></trkpt><trkpt lat="39.2317083" lon="16.1779733"><ele>723.0</ele><time>2026-04-12T09:29:24.883Z</time></trkpt><trkpt lat="39.2317683" lon="16.17802"><ele>723.0</ele><time>2026-04-12T09:29:26.882Z</time></trkpt><trkpt lat="39.231875" lon="16.1780183"><ele>723.0</ele><time>2026-04-12T09:29:28.883Z</time></trkpt><trkpt lat="39.2319667" lon="16.177955"><ele>723.0</ele><time>2026-04-12T09:29:32.882Z</time></trkpt><trkpt lat="39.2320533" lon="16.17789"><ele>723.0</ele><time>2026-04-12T09:29:34.882Z</time></trkpt><trkpt lat="39.232125" lon="16.1778033"><ele>723.0</ele><time>2026-04-12T09:29:36.883Z</time></trkpt><trkpt lat="39.2321967" lon="16.1776983"><ele>723.0</ele><time>2026-04-12T09:29:38.883Z</time></trkpt><trkpt lat="39.2322467" lon="16.1776133"><ele>723.0</ele><time>2026-04-12T09:29:40.883Z</time></trkpt><trkpt lat="39.2321767" lon="16.1777233"><ele>723.0</ele><time>2026-04-12T09:30:18.882Z</time></trkpt><trkpt lat="39.2320783" lon="16.1777567"><ele>723.0</ele><time>2026-04-12T09:30:20.883Z</time></trkpt><trkpt lat="39.23202" lon="16.1776767"><ele>723.0</ele><time>2026-04-12T09:31:03.883Z</time></trkpt><trkpt lat="39.2319233" lon="16.1777033"><ele>723.0</ele><time>2026-04-12T09:31:13.882Z</time></trkpt><trkpt lat="39.2318767" lon="16.1777867"><ele>723.0</ele><time>2026-04-12T09:31:15.882Z</time></trkpt><trkpt lat="39.2318133" lon="16.17789"><ele>723.0</ele><time>2026-04-12T09:31:17.883Z</time></trkpt><trkpt lat="39.2317283" lon="16.1779567"><ele>723.0</ele><time>2026-04-12T09:31:19.882Z</time></trkpt><trkpt lat="39.2316667" lon="16.177985"><ele>723.0</ele><time>2026-04-12T09:31:21.883Z</time></trkpt><trkpt lat="39.2315967" lon="16.1779533"><ele>723.0</ele><time>2026-04-12T09:31:24.883Z</time></trkpt><trkpt lat="39.2315283" lon="16.177905"><ele>723.0</ele><time>2026-04-12T09:31:26.883Z</time></trkpt><trkpt lat="39.2315217" lon="16.1777917"><ele>723.0</ele><time>2026-04-12T09:31:28.882Z</time></trkpt><trkpt lat="39.2315483" lon="16.1776633"><ele>723.0</ele><time>2026-04-12T09:31:30.883Z</time></trkpt><trkpt lat="39.231525" lon="16.177555"><ele>723.0</ele><time>2026-04-12T09:31:32.883Z</time></trkpt><trkpt lat="39.23147" lon="16.1774533"><ele>723.0</ele><time>2026-04-12T09:31:34.882Z</time></trkpt><trkpt lat="39.2314467" lon="16.1773533"><ele>721.3333333333334</ele><time>2026-04-12T09:31:36.883Z</time></trkpt><trkpt lat="39.2313983" lon="16.177245"><ele>719.6666666666666</ele><time>2026-04-12T09:31:38.883Z</time></trkpt><trkpt lat="39.2313533" lon="16.1771217"><ele>718.0</ele><time>2026-04-12T09:31:40.883Z</time></trkpt><trkpt lat="39.231285" lon="16.17702"><ele>716.3333333333333</ele><time>2026-04-12T09:31:42.882Z</time></trkpt><trkpt lat="39.2312283" lon="16.1769817"><ele>714.6666666666666</ele><time>2026-04-12T09:31:43.883Z</time></trkpt><trkpt lat="39.2311583" lon="16.1769567"><ele>713.0</ele><time>2026-04-12T09:31:45.883Z</time></trkpt><trkpt lat="39.2310317" lon="16.1769467"><ele>713.0</ele><time>2026-04-12T09:31:47.883Z</time></trkpt><trkpt lat="39.2309433" lon="16.176905"><ele>713.0</ele><time>2026-04-12T09:31:50.883Z</time></trkpt><trkpt lat="39.23088" lon="16.1769217"><ele>713.0</ele><time>2026-04-12T09:31:53.883Z</time></trkpt><trkpt lat="39.23085" lon="16.1770383"><ele>713.0</ele><time>2026-04-12T09:31:56.883Z</time></trkpt><trkpt lat="39.2308233" lon="16.177135"><ele>713.0</ele><time>2026-04-12T09:31:58.883Z</time></trkpt><trkpt lat="39.2307817" lon="16.1772467"><ele>713.0</ele><time>2026-04-12T09:32:00.883Z</time></trkpt><trkpt lat="39.2307633" lon="16.1774033"><ele>710.5</ele><time>2026-04-12T09:32:02.883Z</time></trkpt><trkpt lat="39.2307917" lon="16.1775033"><ele>708.0</ele><time>2026-04-12T09:32:04.883Z</time></trkpt><trkpt lat="39.230825" lon="16.17758"><ele>705.5</ele><time>2026-04-12T09:32:06.883Z</time></trkpt><trkpt lat="39.230845" lon="16.17769"><ele>703.0</ele><time>2026-04-12T09:32:08.883Z</time></trkpt><trkpt lat="39.230855" lon="16.1778"><ele>700.5</ele><time>2026-04-12T09:32:10.882Z</time></trkpt><trkpt lat="39.2308367" lon="16.17792"><ele>698.0</ele><time>2026-04-12T09:32:12.882Z</time></trkpt><trkpt lat="39.2308067" lon="16.17804"><ele>698.0</ele><time>2026-04-12T09:32:14.883Z</time></trkpt><trkpt lat="39.2307783" lon="16.178175"><ele>698.0</ele><time>2026-04-12T09:32:16.883Z</time></trkpt><trkpt lat="39.2307567" lon="16.178315"><ele>698.0</ele><time>2026-04-12T09:32:18.883Z</time></trkpt><trkpt lat="39.2307633" lon="16.1784733"><ele>698.0</ele><time>2026-04-12T09:32:20.883Z</time></trkpt><trkpt lat="39.230755" lon="16.1786033"><ele>698.0</ele><time>2026-04-12T09:32:22.883Z</time></trkpt><trkpt lat="39.23079" lon="16.1786967"><ele>694.8</ele><time>2026-04-12T09:32:24.882Z</time></trkpt><trkpt lat="39.23081" lon="16.178815"><ele>691.5999999999999</ele><time>2026-04-12T09:32:26.883Z</time></trkpt><trkpt lat="39.2308583" lon="16.1789267"><ele>688.4000000000001</ele><time>2026-04-12T09:32:28.883Z</time></trkpt><trkpt lat="39.2309017" lon="16.1789867"><ele>685.2</ele><time>2026-04-12T09:32:29.883Z</time></trkpt><trkpt lat="39.231" lon="16.1791067"><ele>682.0</ele><time>2026-04-12T09:32:31.883Z</time></trkpt><trkpt lat="39.231075" lon="16.1792117"><ele>680.6</ele><time>2026-04-12T09:32:33.882Z</time></trkpt><trkpt lat="39.2311567" lon="16.1792833"><ele>679.2</ele><time>2026-04-12T09:32:35.883Z</time></trkpt><trkpt lat="39.231235" lon="16.1793417"><ele>677.8</ele><time>2026-04-12T09:32:37.883Z</time></trkpt><trkpt lat="39.2313767" lon="16.1793867"><ele>676.4</ele><time>2026-04-12T09:32:39.882Z</time></trkpt><trkpt lat="39.231465" lon="16.1794017"><ele>675.0</ele><time>2026-04-12T09:32:40.883Z</time></trkpt><trkpt lat="39.231565" lon="16.1794783"><ele>675.0</ele><time>2026-04-12T09:32:42.882Z</time></trkpt><trkpt lat="39.2316583" lon="16.1795533"><ele>675.0</ele><time>2026-04-12T09:32:44.883Z</time></trkpt><trkpt lat="39.2317383" lon="16.179625"><ele>675.0</ele><time>2026-04-12T09:32:46.883Z</time></trkpt><trkpt lat="39.2318183" lon="16.1796783"><ele>675.0</ele><time>2026-04-12T09:32:48.882Z</time></trkpt><trkpt lat="39.2319167" lon="16.1797067"><ele>675.0</ele><time>2026-04-12T09:32:50.883Z</time></trkpt><trkpt lat="39.2320033" lon="16.1797383"><ele>675.0</ele><time>2026-04-12T09:32:52.883Z</time></trkpt><trkpt lat="39.2320733" lon="16.1797383"><ele>675.0</ele><time>2026-04-12T09:32:54.882Z</time></trkpt><trkpt lat="39.23215" lon="16.1796933"><ele>675.0</ele><time>2026-04-12T09:32:56.882Z</time></trkpt><trkpt lat="39.23222" lon="16.17961"><ele>675.0</ele><time>2026-04-12T09:32:58.883Z</time></trkpt><trkpt lat="39.2321683" lon="16.1795383"><ele>675.0</ele><time>2026-04-12T09:32:59.883Z</time></trkpt><trkpt lat="39.232175" lon="16.1793967"><ele>675.0</ele><time>2026-04-12T09:33:01.883Z</time></trkpt><trkpt lat="39.2322433" lon="16.1793083"><ele>674.4</ele><time>2026-04-12T09:33:03.883Z</time></trkpt><trkpt lat="39.23231" lon="16.179265"><ele>673.8</ele><time>2026-04-12T09:33:05.883Z</time></trkpt><trkpt lat="39.2324133" lon="16.1792917"><ele>673.2</ele><time>2026-04-12T09:33:07.883Z</time></trkpt><trkpt lat="39.23248" lon="16.17934"><ele>672.6</ele><time>2026-04-12T09:33:09.883Z</time></trkpt><trkpt lat="39.2325033" lon="16.1795233"><ele>672.0</ele><time>2026-04-12T09:33:11.882Z</time></trkpt><trkpt lat="39.232475" lon="16.1796067"><ele>672.0</ele><time>2026-04-12T09:33:12.883Z</time></trkpt><trkpt lat="39.2324617" lon="16.1796917"><ele>672.0</ele><time>2026-04-12T09:33:13.882Z</time></trkpt><trkpt lat="39.2324533" lon="16.1798367"><ele>672.0</ele><time>2026-04-12T09:33:15.882Z</time></trkpt><trkpt lat="39.2324517" lon="16.1799933"><ele>672.0</ele><time>2026-04-12T09:33:17.882Z</time></trkpt><trkpt lat="39.232505" lon="16.1800517"><ele>672.0</ele><time>2026-04-12T09:33:18.883Z</time></trkpt><trkpt lat="39.2325933" lon="16.1800967"><ele>667.6</ele><time>2026-04-12T09:33:19.883Z</time></trkpt><trkpt lat="39.2326717" lon="16.180185"><ele>663.2</ele><time>2026-04-12T09:33:21.883Z</time></trkpt><trkpt lat="39.2326983" lon="16.1803"><ele>658.8</ele><time>2026-04-12T09:33:23.882Z</time></trkpt><trkpt lat="39.2326883" lon="16.180415"><ele>654.4</ele><time>2026-04-12T09:33:25.883Z</time></trkpt><trkpt lat="39.2326883" lon="16.1805133"><ele>650.0</ele><time>2026-04-12T09:33:27.882Z</time></trkpt><trkpt lat="39.2326567" lon="16.1806283"><ele>646.0</ele><time>2026-04-12T09:33:29.882Z</time></trkpt><trkpt lat="39.2326083" lon="16.1807017"><ele>642.0</ele><time>2026-04-12T09:33:31.882Z</time></trkpt><trkpt lat="39.2325117" lon="16.180765"><ele>638.0</ele><time>2026-04-12T09:33:33.882Z</time></trkpt><trkpt lat="39.2324333" lon="16.1807517"><ele>634.0</ele><time>2026-04-12T09:33:34.883Z</time></trkpt><trkpt lat="39.2323567" lon="16.1807233"><ele>630.0</ele><time>2026-04-12T09:33:35.883Z</time></trkpt><trkpt lat="39.23228" lon="16.1807233"><ele>626.0</ele><time>2026-04-12T09:33:36.883Z</time></trkpt><trkpt lat="39.2322117" lon="16.180745"><ele>625.8</ele><time>2026-04-12T09:33:37.883Z</time></trkpt><trkpt lat="39.2321217" lon="16.180795"><ele>625.6</ele><time>2026-04-12T09:33:38.883Z</time></trkpt><trkpt lat="39.2320533" lon="16.180885"><ele>625.4</ele><time>2026-04-12T09:33:40.883Z</time></trkpt><trkpt lat="39.2320733" lon="16.1809783"><ele>625.2</ele><time>2026-04-12T09:33:42.883Z</time></trkpt><trkpt lat="39.232165" lon="16.1811017"><ele>625.0</ele><time>2026-04-12T09:33:44.883Z</time></trkpt><trkpt lat="39.2322267" lon="16.181175"><ele>625.1666666666667</ele><time>2026-04-12T09:33:46.883Z</time></trkpt><trkpt lat="39.2323067" lon="16.1812267"><ele>625.3333333333334</ele><time>2026-04-12T09:33:48.882Z</time></trkpt><trkpt lat="39.2323883" lon="16.1812517"><ele>625.5</ele><time>2026-04-12T09:33:51.883Z</time></trkpt><trkpt lat="39.232445" lon="16.1812933"><ele>625.6666666666666</ele><time>2026-04-12T09:33:54.883Z</time></trkpt><trkpt lat="39.23252" lon="16.1813167"><ele>625.8333333333333</ele><time>2026-04-12T09:33:57.883Z</time></trkpt><trkpt lat="39.2325683" lon="16.1813717"><ele>626.0</ele><time>2026-04-12T09:34:03.883Z</time></trkpt><trkpt lat="39.23266" lon="16.1813933"><ele>626.0</ele><time>2026-04-12T09:34:04.882Z</time></trkpt><trkpt lat="39.2327467" lon="16.1814417"><ele>626.0</ele><time>2026-04-12T09:34:05.882Z</time></trkpt><trkpt lat="39.232825" lon="16.18148"><ele>626.0</ele><time>2026-04-12T09:34:06.883Z</time></trkpt><trkpt lat="39.2328867" lon="16.1815117"><ele>626.0</ele><time>2026-04-12T09:34:07.883Z</time></trkpt><trkpt lat="39.2329467" lon="16.1815383"><ele>626.0</ele><time>2026-04-12T09:34:08.883Z</time></trkpt><trkpt lat="39.233065" lon="16.1815383"><ele>626.0</ele><time>2026-04-12T09:34:10.882Z</time></trkpt><trkpt lat="39.2331333" lon="16.1815233"><ele>628.4</ele><time>2026-04-12T09:34:11.883Z</time></trkpt><trkpt lat="39.2332483" lon="16.1814683"><ele>630.8</ele><time>2026-04-12T09:34:13.883Z</time></trkpt><trkpt lat="39.23332" lon="16.1814367"><ele>633.1999999999999</ele><time>2026-04-12T09:34:14.883Z</time></trkpt><trkpt lat="39.2334033" lon="16.1814017"><ele>635.6</ele><time>2026-04-12T09:34:15.883Z</time></trkpt><trkpt lat="39.2335217" lon="16.1814233"><ele>638.0</ele><time>2026-04-12T09:34:17.883Z</time></trkpt><trkpt lat="39.2335967" lon="16.18148"><ele>634.1666666666666</ele><time>2026-04-12T09:34:18.883Z</time></trkpt><trkpt lat="39.2336817" lon="16.181545"><ele>630.3333333333333</ele><time>2026-04-12T09:34:19.883Z</time></trkpt><trkpt lat="39.2337183" lon="16.1816433"><ele>626.5</ele><time>2026-04-12T09:34:20.882Z</time></trkpt><trkpt lat="39.2337883" lon="16.1817017"><ele>622.6666666666666</ele><time>2026-04-12T09:34:21.883Z</time></trkpt><trkpt lat="39.2338417" lon="16.1817717"><ele>618.8333333333334</ele><time>2026-04-12T09:34:22.883Z</time></trkpt><trkpt lat="39.23389" lon="16.181845"><ele>615.0</ele><time>2026-04-12T09:34:23.883Z</time></trkpt><trkpt lat="39.2339317" lon="16.181925"><ele>613.6666666666666</ele><time>2026-04-12T09:34:24.883Z</time></trkpt><trkpt lat="39.2340183" lon="16.18197"><ele>612.3333333333334</ele><time>2026-04-12T09:34:25.883Z</time></trkpt><trkpt lat="39.2340717" lon="16.18204"><ele>611.0</ele><time>2026-04-12T09:34:26.883Z</time></trkpt><trkpt lat="39.2340833" lon="16.18213"><ele>609.6666666666667</ele><time>2026-04-12T09:34:27.882Z</time></trkpt><trkpt lat="39.234145" lon="16.1821733"><ele>608.3333333333334</ele><time>2026-04-12T09:34:28.883Z</time></trkpt><trkpt lat="39.2341933" lon="16.18227"><ele>607.0</ele><time>2026-04-12T09:34:30.882Z</time></trkpt><trkpt lat="39.2341567" lon="16.182365"><ele>607.0</ele><time>2026-04-12T09:34:33.882Z</time></trkpt><trkpt lat="39.234275" lon="16.1823567"><ele>607.0</ele><time>2026-04-12T09:37:39.883Z</time></trkpt><trkpt lat="39.2343467" lon="16.1822667"><ele>607.0</ele><time>2026-04-12T09:38:39.883Z</time></trkpt><trkpt lat="39.2343017" lon="16.18208"><ele>607.0</ele><time>2026-04-12T09:46:09.883Z</time></trkpt><trkpt lat="39.2342617" lon="16.181995"><ele>607.0</ele><time>2026-04-12T09:46:10.882Z</time></trkpt><trkpt lat="39.2341983" lon="16.181875"><ele>609.0</ele><time>2026-04-12T09:46:12.883Z</time></trkpt><trkpt lat="39.2341333" lon="16.1817617"><ele>611.0</ele><time>2026-04-12T09:46:14.883Z</time></trkpt><trkpt lat="39.2340717" lon="16.181675"><ele>613.0</ele><time>2026-04-12T09:46:16.883Z</time></trkpt><trkpt lat="39.2339467" lon="16.1816267"><ele>615.0</ele><time>2026-04-12T09:46:18.883Z</time></trkpt><trkpt lat="39.233825" lon="16.1815583"><ele>615.0</ele><time>2026-04-12T09:46:20.882Z</time></trkpt><trkpt lat="39.2337567" lon="16.18152"><ele>615.0</ele><time>2026-04-12T09:46:21.882Z</time></trkpt><trkpt lat="39.2336867" lon="16.1814717"><ele>615.0</ele><time>2026-04-12T09:46:22.883Z</time></trkpt><trkpt lat="39.2335683" lon="16.18145"><ele>615.0</ele><time>2026-04-12T09:46:23.882Z</time></trkpt><trkpt lat="39.2334733" lon="16.1814233"><ele>615.0</ele><time>2026-04-12T09:46:24.883Z</time></trkpt><trkpt lat="39.2334067" lon="16.181385"><ele>615.0</ele><time>2026-04-12T09:46:25.882Z</time></trkpt><trkpt lat="39.233295" lon="16.1813517"><ele>617.2</ele><time>2026-04-12T09:46:27.882Z</time></trkpt><trkpt lat="39.2332167" lon="16.181425"><ele>619.4</ele><time>2026-04-12T09:46:29.883Z</time></trkpt><trkpt lat="39.233145" lon="16.1814267"><ele>621.6</ele><time>2026-04-12T09:46:31.882Z</time></trkpt><trkpt lat="39.2330317" lon="16.1814517"><ele>623.8</ele><time>2026-04-12T09:46:33.882Z</time></trkpt><trkpt lat="39.232915" lon="16.1813433"><ele>626.0</ele><time>2026-04-12T09:46:35.882Z</time></trkpt><trkpt lat="39.2328467" lon="16.18131"><ele>626.0</ele><time>2026-04-12T09:46:36.883Z</time></trkpt><trkpt lat="39.232775" lon="16.18127"><ele>626.0</ele><time>2026-04-12T09:46:37.883Z</time></trkpt><trkpt lat="39.2327" lon="16.1812133"><ele>626.0</ele><time>2026-04-12T09:46:38.882Z</time></trkpt><trkpt lat="39.2326133" lon="16.1811533"><ele>626.0</ele><time>2026-04-12T09:46:39.883Z</time></trkpt><trkpt lat="39.23253" lon="16.1810983"><ele>626.0</ele><time>2026-04-12T09:46:40.883Z</time></trkpt><trkpt lat="39.2324517" lon="16.1810283"><ele>626.0</ele><time>2026-04-12T09:46:41.882Z</time></trkpt><trkpt lat="39.2323633" lon="16.18097"><ele>626.0</ele><time>2026-04-12T09:46:42.883Z</time></trkpt><trkpt lat="39.2322183" lon="16.1809133"><ele>626.0</ele><time>2026-04-12T09:46:43.883Z</time></trkpt><trkpt lat="39.2321283" lon="16.1808733"><ele>626.0</ele><time>2026-04-12T09:46:44.882Z</time></trkpt><trkpt lat="39.23206" lon="16.1808333"><ele>626.0</ele><time>2026-04-12T09:46:45.882Z</time></trkpt><trkpt lat="39.2319767" lon="16.18081"><ele>625.8333333333333</ele><time>2026-04-12T09:46:46.883Z</time></trkpt><trkpt lat="39.231935" lon="16.1807433"><ele>625.6666666666666</ele><time>2026-04-12T09:46:49.883Z</time></trkpt><trkpt lat="39.23195" lon="16.1806567"><ele>625.5</ele><time>2026-04-12T09:46:51.883Z</time></trkpt><trkpt lat="39.2319533" lon="16.1805717"><ele>625.3333333333334</ele><time>2026-04-12T09:46:53.883Z</time></trkpt><trkpt lat="39.232015" lon="16.18059"><ele>625.1666666666667</ele><time>2026-04-12T09:46:54.882Z</time></trkpt><trkpt lat="39.2321583" lon="16.1805883"><ele>625.0</ele><time>2026-04-12T09:46:56.883Z</time></trkpt><trkpt lat="39.2323033" lon="16.1805483"><ele>630.0</ele><time>2026-04-12T09:46:57.883Z</time></trkpt><trkpt lat="39.2324" lon="16.18052"><ele>635.0</ele><time>2026-04-12T09:46:58.883Z</time></trkpt><trkpt lat="39.2324783" lon="16.1804767"><ele>640.0</ele><time>2026-04-12T09:46:59.883Z</time></trkpt><trkpt lat="39.2325067" lon="16.1803683"><ele>645.0</ele><time>2026-04-12T09:47:01.883Z</time></trkpt><trkpt lat="39.2324883" lon="16.18029"><ele>650.0</ele><time>2026-04-12T09:47:02.883Z</time></trkpt><trkpt lat="39.2324583" lon="16.1801433"><ele>650.0</ele><time>2026-04-12T09:47:04.883Z</time></trkpt><trkpt lat="39.2324567" lon="16.180005"><ele>650.0</ele><time>2026-04-12T09:47:06.883Z</time></trkpt><trkpt lat="39.2324567" lon="16.1798867"><ele>650.0</ele><time>2026-04-12T09:47:08.883Z</time></trkpt><trkpt lat="39.2324383" lon="16.1798083"><ele>650.0</ele><time>2026-04-12T09:47:10.883Z</time></trkpt><trkpt lat="39.2323783" lon="16.1796967"><ele>650.0</ele><time>2026-04-12T09:47:12.883Z</time></trkpt><trkpt lat="39.232365" lon="16.179555"><ele>654.4</ele><time>2026-04-12T09:47:14.882Z</time></trkpt><trkpt lat="39.232355" lon="16.1794033"><ele>658.8</ele><time>2026-04-12T09:47:16.883Z</time></trkpt><trkpt lat="39.232345" lon="16.1792667"><ele>663.2</ele><time>2026-04-12T09:47:18.882Z</time></trkpt><trkpt lat="39.2323517" lon="16.1791283"><ele>667.6</ele><time>2026-04-12T09:47:20.883Z</time></trkpt><trkpt lat="39.232355" lon="16.1790267"><ele>672.0</ele><time>2026-04-12T09:47:22.883Z</time></trkpt><trkpt lat="39.232305" lon="16.179125"><ele>672.6</ele><time>2026-04-12T09:47:31.883Z</time></trkpt><trkpt lat="39.232235" lon="16.1792217"><ele>673.2</ele><time>2026-04-12T09:47:33.883Z</time></trkpt><trkpt lat="39.23216" lon="16.179295"><ele>673.8</ele><time>2026-04-12T09:47:36.883Z</time></trkpt><trkpt lat="39.23208" lon="16.1793333"><ele>674.4</ele><time>2026-04-12T09:47:38.883Z</time></trkpt><trkpt lat="39.2319883" lon="16.17932"><ele>675.0</ele><time>2026-04-12T09:47:39.883Z</time></trkpt><trkpt lat="39.2319017" lon="16.1793117"><ele>675.0</ele><time>2026-04-12T09:47:40.882Z</time></trkpt><trkpt lat="39.23182" lon="16.1793267"><ele>675.0</ele><time>2026-04-12T09:47:41.883Z</time></trkpt><trkpt lat="39.23175" lon="16.1792467"><ele>675.0</ele><time>2026-04-12T09:47:43.883Z</time></trkpt><trkpt lat="39.2316967" lon="16.1791833"><ele>675.0</ele><time>2026-04-12T09:47:44.882Z</time></trkpt><trkpt lat="39.23162" lon="16.179095"><ele>675.0</ele><time>2026-04-12T09:47:45.883Z</time></trkpt><trkpt lat="39.2315617" lon="16.1790517"><ele>675.0</ele><time>2026-04-12T09:47:46.882Z</time></trkpt><trkpt lat="39.2314917" lon="16.17902"><ele>676.1666666666666</ele><time>2026-04-12T09:47:47.883Z</time></trkpt><trkpt lat="39.2314283" lon="16.1789883"><ele>677.3333333333334</ele><time>2026-04-12T09:47:48.883Z</time></trkpt><trkpt lat="39.2313467" lon="16.17895"><ele>678.5</ele><time>2026-04-12T09:47:49.883Z</time></trkpt><trkpt lat="39.2312367" lon="16.17886"><ele>679.6666666666667</ele><time>2026-04-12T09:47:50.883Z</time></trkpt><trkpt lat="39.2311817" lon="16.1788183"><ele>680.8333333333334</ele><time>2026-04-12T09:47:51.883Z</time></trkpt><trkpt lat="39.2311267" lon="16.1787683"><ele>682.0</ele><time>2026-04-12T09:47:52.883Z</time></trkpt><trkpt lat="39.2310767" lon="16.1787083"><ele>682.0</ele><time>2026-04-12T09:47:53.882Z</time></trkpt><trkpt lat="39.231015" lon="16.1786583"><ele>682.0</ele><time>2026-04-12T09:47:54.883Z</time></trkpt><trkpt lat="39.230915" lon="16.1785917"><ele>682.0</ele><time>2026-04-12T09:47:56.883Z</time></trkpt><trkpt lat="39.2308317" lon="16.1785267"><ele>682.0</ele><time>2026-04-12T09:47:58.882Z</time></trkpt><trkpt lat="39.2307867" lon="16.178455"><ele>682.0</ele><time>2026-04-12T09:48:01.883Z</time></trkpt><trkpt lat="39.2307917" lon="16.1783283"><ele>682.0</ele><time>2026-04-12T09:48:03.883Z</time></trkpt><trkpt lat="39.23082" lon="16.1782533"><ele>682.0</ele><time>2026-04-12T09:48:04.883Z</time></trkpt><trkpt lat="39.23086" lon="16.17816"><ele>682.0</ele><time>2026-04-12T09:48:05.883Z</time></trkpt><trkpt lat="39.23088" lon="16.1780783"><ele>682.0</ele><time>2026-04-12T09:48:06.883Z</time></trkpt><trkpt lat="39.230905" lon="16.177995"><ele>682.0</ele><time>2026-04-12T09:48:07.883Z</time></trkpt><trkpt lat="39.2309333" lon="16.1779033"><ele>682.0</ele><time>2026-04-12T09:48:08.883Z</time></trkpt><trkpt lat="39.2309567" lon="16.17781"><ele>682.0</ele><time>2026-04-12T09:48:09.882Z</time></trkpt><trkpt lat="39.23097" lon="16.1777167"><ele>685.2</ele><time>2026-04-12T09:48:10.883Z</time></trkpt><trkpt lat="39.2309633" lon="16.1776217"><ele>688.4000000000001</ele><time>2026-04-12T09:48:11.882Z</time></trkpt><trkpt lat="39.2309717" lon="16.1775317"><ele>691.5999999999999</ele><time>2026-04-12T09:48:12.883Z</time></trkpt><trkpt lat="39.230985" lon="16.1773483"><ele>694.8</ele><time>2026-04-12T09:48:14.883Z</time></trkpt><trkpt lat="39.2309967" lon="16.1772483"><ele>698.0</ele><time>2026-04-12T09:48:15.882Z</time></trkpt><trkpt lat="39.2310033" lon="16.1771383"><ele>700.5</ele><time>2026-04-12T09:48:16.882Z</time></trkpt><trkpt lat="39.2309667" lon="16.1770167"><ele>703.0</ele><time>2026-04-12T09:48:17.883Z</time></trkpt><trkpt lat="39.2309433" lon="16.17691"><ele>705.5</ele><time>2026-04-12T09:48:18.883Z</time></trkpt><trkpt lat="39.23095" lon="16.17682"><ele>708.0</ele><time>2026-04-12T09:48:19.882Z</time></trkpt><trkpt lat="39.2309417" lon="16.17673"><ele>710.5</ele><time>2026-04-12T09:48:20.882Z</time></trkpt><trkpt lat="39.23092" lon="16.1765883"><ele>713.0</ele><time>2026-04-12T09:48:22.883Z</time></trkpt><trkpt lat="39.230855" lon="16.17649"><ele>716.5999999999999</ele><time>2026-04-12T09:48:24.882Z</time></trkpt><trkpt lat="39.2307983" lon="16.1763983"><ele>720.1999999999999</ele><time>2026-04-12T09:48:26.883Z</time></trkpt><trkpt lat="39.2308433" lon="16.1763233"><ele>723.8</ele><time>2026-04-12T09:48:29.883Z</time></trkpt><trkpt lat="39.2309817" lon="16.1763467"><ele>727.4</ele><time>2026-04-12T09:48:31.882Z</time></trkpt><trkpt lat="39.2310667" lon="16.1763233"><ele>731.0</ele><time>2026-04-12T09:48:33.883Z</time></trkpt><trkpt lat="39.231085" lon="16.1762383"><ele>731.0</ele><time>2026-04-12T09:48:35.883Z</time></trkpt><trkpt lat="39.2309767" lon="16.1761433"><ele>731.0</ele><time>2026-04-12T09:48:37.883Z</time></trkpt><trkpt lat="39.230905" lon="16.1761083"><ele>731.0</ele><time>2026-04-12T09:48:38.882Z</time></trkpt><trkpt lat="39.230815" lon="16.17604"><ele>731.0</ele><time>2026-04-12T09:48:40.882Z</time></trkpt><trkpt lat="39.23077" lon="16.1759433"><ele>731.0</ele><time>2026-04-12T09:48:42.883Z</time></trkpt><trkpt lat="39.2308017" lon="16.17584"><ele>731.0</ele><time>2026-04-12T09:48:44.883Z</time></trkpt><trkpt lat="39.2309167" lon="16.1757883"><ele>731.0</ele><time>2026-04-12T09:48:46.883Z</time></trkpt><trkpt lat="39.230975" lon="16.1757367"><ele>731.0</ele><time>2026-04-12T09:48:48.883Z</time></trkpt><trkpt lat="39.2310033" lon="16.1756367"><ele>731.0</ele><time>2026-04-12T09:48:51.883Z</time></trkpt><trkpt lat="39.2309583" lon="16.1755567"><ele>731.0</ele><time>2026-04-12T09:48:52.882Z</time></trkpt><trkpt lat="39.2308433" lon="16.1754683"><ele>735.4</ele><time>2026-04-12T09:48:53.883Z</time></trkpt><trkpt lat="39.2307917" lon="16.1754167"><ele>739.8</ele><time>2026-04-12T09:48:54.882Z</time></trkpt><trkpt lat="39.23082" lon="16.1752967"><ele>744.1999999999999</ele><time>2026-04-12T09:48:57.883Z</time></trkpt><trkpt lat="39.2309267" lon="16.1751917"><ele>748.5999999999999</ele><time>2026-04-12T09:48:59.883Z</time></trkpt><trkpt lat="39.2310033" lon="16.1751367"><ele>753.0</ele><time>2026-04-12T09:49:00.883Z</time></trkpt><trkpt lat="39.2310733" lon="16.1750867"><ele>753.0</ele><time>2026-04-12T09:49:01.882Z</time></trkpt><trkpt lat="39.2311433" lon="16.1750417"><ele>753.0</ele><time>2026-04-12T09:49:02.883Z</time></trkpt><trkpt lat="39.231225" lon="16.17499"><ele>753.0</ele><time>2026-04-12T09:49:03.883Z</time></trkpt><trkpt lat="39.2312717" lon="16.1748583"><ele>753.0</ele><time>2026-04-12T09:49:05.883Z</time></trkpt><trkpt lat="39.231275" lon="16.1747583"><ele>753.0</ele><time>2026-04-12T09:49:07.883Z</time></trkpt><trkpt lat="39.2312517" lon="16.1745633"><ele>758.0</ele><time>2026-04-12T09:49:09.883Z</time></trkpt><trkpt lat="39.2311367" lon="16.1744933"><ele>763.0</ele><time>2026-04-12T09:49:10.883Z</time></trkpt><trkpt lat="39.23109" lon="16.1744333"><ele>768.0</ele><time>2026-04-12T09:49:11.883Z</time></trkpt><trkpt lat="39.2310283" lon="16.1743517"><ele>773.0</ele><time>2026-04-12T09:49:13.883Z</time></trkpt><trkpt lat="39.2309267" lon="16.174305"><ele>778.0</ele><time>2026-04-12T09:49:15.883Z</time></trkpt><trkpt lat="39.230865" lon="16.174325"><ele>778.0</ele><time>2026-04-12T09:49:16.883Z</time></trkpt><trkpt lat="39.230935" lon="16.1743267"><ele>778.0</ele><time>2026-04-12T09:49:17.883Z</time></trkpt><trkpt lat="39.2308683" lon="16.174395"><ele>778.0</ele><time>2026-04-12T09:49:19.883Z</time></trkpt><trkpt lat="39.2308117" lon="16.1744483"><ele>778.0</ele><time>2026-04-12T09:49:20.883Z</time></trkpt><trkpt lat="39.2307483" lon="16.1744717"><ele>778.0</ele><time>2026-04-12T09:49:22.883Z</time></trkpt><trkpt lat="39.2307083" lon="16.17455"><ele>778.0</ele><time>2026-04-12T09:49:25.883Z</time></trkpt><trkpt lat="39.2306683" lon="16.1746383"><ele>778.0</ele><time>2026-04-12T09:49:28.882Z</time></trkpt><trkpt lat="39.2306133" lon="16.1745833"><ele>783.0</ele><time>2026-04-12T09:49:29.882Z</time></trkpt><trkpt lat="39.23053" lon="16.1744917"><ele>788.0</ele><time>2026-04-12T09:49:30.883Z</time></trkpt><trkpt lat="39.230405" lon="16.1744817"><ele>793.0</ele><time>2026-04-12T09:49:32.882Z</time></trkpt><trkpt lat="39.2302817" lon="16.17451"><ele>798.0</ele><time>2026-04-12T09:49:34.883Z</time></trkpt><trkpt lat="39.2301717" lon="16.1745567"><ele>798.0</ele><time>2026-04-12T09:49:36.883Z</time></trkpt><trkpt lat="39.2301167" lon="16.17463"><ele>798.0</ele><time>2026-04-12T09:49:39.883Z</time></trkpt><trkpt lat="39.2300267" lon="16.17467"><ele>798.0</ele><time>2026-04-12T09:49:41.882Z</time></trkpt><trkpt lat="39.2299433" lon="16.1747633"><ele>798.0</ele><time>2026-04-12T09:49:43.883Z</time></trkpt><trkpt lat="39.2297367" lon="16.17484"><ele>796.8571428571429</ele><time>2026-04-12T09:49:44.883Z</time></trkpt><trkpt lat="39.2296833" lon="16.1748933"><ele>795.7142857142858</ele><time>2026-04-12T09:49:45.882Z</time></trkpt><trkpt lat="39.2296233" lon="16.1749483"><ele>794.5714285714286</ele><time>2026-04-12T09:49:46.882Z</time></trkpt><trkpt lat="39.229565" lon="16.175015"><ele>793.4285714285714</ele><time>2026-04-12T09:49:47.883Z</time></trkpt><trkpt lat="39.229505" lon="16.1750733"><ele>792.2857142857143</ele><time>2026-04-12T09:49:48.882Z</time></trkpt><trkpt lat="39.2294517" lon="16.1751383"><ele>791.1428571428571</ele><time>2026-04-12T09:49:49.883Z</time></trkpt><trkpt lat="39.2293933" lon="16.1751917"><ele>790.0</ele><time>2026-04-12T09:49:50.883Z</time></trkpt><trkpt lat="39.2293367" lon="16.1752433"><ele>790.0</ele><time>2026-04-12T09:49:51.883Z</time></trkpt><trkpt lat="39.229395" lon="16.17537"><ele>790.0</ele><time>2026-04-12T09:49:52.883Z</time></trkpt><trkpt lat="39.2293283" lon="16.1754367"><ele>790.0</ele><time>2026-04-12T09:49:56.883Z</time></trkpt><trkpt lat="39.2292617" lon="16.1754117"><ele>790.0</ele><time>2026-04-12T09:49:58.883Z</time></trkpt><trkpt lat="39.22917" lon="16.1753717"><ele>790.0</ele><time>2026-04-12T09:50:00.882Z</time></trkpt><trkpt lat="39.22904" lon="16.1753533"><ele>782.4</ele><time>2026-04-12T09:50:02.883Z</time></trkpt><trkpt lat="39.22894" lon="16.1753283"><ele>774.8</ele><time>2026-04-12T09:50:04.882Z</time></trkpt><trkpt lat="39.2288517" lon="16.1752733"><ele>767.2</ele><time>2026-04-12T09:50:05.882Z</time></trkpt><trkpt lat="39.2287583" lon="16.17521"><ele>759.6</ele><time>2026-04-12T09:50:06.883Z</time></trkpt><trkpt lat="39.2287" lon="16.1751733"><ele>752.0</ele><time>2026-04-12T09:50:07.883Z</time></trkpt><trkpt lat="39.2286233" lon="16.1750917"><ele>752.0</ele><time>2026-04-12T09:50:09.882Z</time></trkpt><trkpt lat="39.2285967" lon="16.174985"><ele>752.0</ele><time>2026-04-12T09:50:11.883Z</time></trkpt><trkpt lat="39.2286117" lon="16.174875"><ele>752.0</ele><time>2026-04-12T09:50:13.883Z</time></trkpt><trkpt lat="39.228585" lon="16.1747383"><ele>752.0</ele><time>2026-04-12T09:50:15.883Z</time></trkpt><trkpt lat="39.2285117" lon="16.1745717"><ele>752.0</ele><time>2026-04-12T09:50:17.882Z</time></trkpt><trkpt lat="39.2285383" lon="16.1744583"><ele>753.1666666666666</ele><time>2026-04-12T09:50:19.882Z</time></trkpt><trkpt lat="39.228565" lon="16.1743833"><ele>754.3333333333333</ele><time>2026-04-12T09:50:20.882Z</time></trkpt><trkpt lat="39.22861" lon="16.17427"><ele>755.5</ele><time>2026-04-12T09:50:22.882Z</time></trkpt><trkpt lat="39.228615" lon="16.1741817"><ele>756.6666666666666</ele><time>2026-04-12T09:50:24.883Z</time></trkpt><trkpt lat="39.22858" lon="16.1740717"><ele>757.8333333333334</ele><time>2026-04-12T09:50:26.882Z</time></trkpt><trkpt lat="39.2284933" lon="16.1739817"><ele>759.0</ele><time>2026-04-12T09:50:28.882Z</time></trkpt><trkpt lat="39.2284517" lon="16.1738883"><ele>759.0</ele><time>2026-04-12T09:50:30.883Z</time></trkpt><trkpt lat="39.228415" lon="16.1737883"><ele>759.0</ele><time>2026-04-12T09:50:32.882Z</time></trkpt><trkpt lat="39.22842" lon="16.173695"><ele>759.0</ele><time>2026-04-12T09:50:34.883Z</time></trkpt><trkpt lat="39.2284867" lon="16.1736267"><ele>759.0</ele><time>2026-04-12T09:50:39.882Z</time></trkpt><trkpt lat="39.2285367" lon="16.1735633"><ele>759.0</ele><time>2026-04-12T09:50:41.883Z</time></trkpt><trkpt lat="39.2285917" lon="16.1736233"><ele>759.0</ele><time>2026-04-12T09:51:12.882Z</time></trkpt><trkpt lat="39.228585" lon="16.1737217"><ele>759.0</ele><time>2026-04-12T09:51:14.883Z</time></trkpt><trkpt lat="39.2286467" lon="16.1736667"><ele>759.0</ele><time>2026-04-12T09:51:23.883Z</time></trkpt><trkpt lat="39.2286067" lon="16.1735967"><ele>759.0</ele><time>2026-04-12T09:51:33.883Z</time></trkpt><trkpt lat="39.22854" lon="16.1735867"><ele>759.0</ele><time>2026-04-12T09:51:34.883Z</time></trkpt><trkpt lat="39.22847" lon="16.173615"><ele>759.0</ele><time>2026-04-12T09:51:50.883Z</time></trkpt><trkpt lat="39.228395" lon="16.1736433"><ele>759.0</ele><time>2026-04-12T09:51:52.883Z</time></trkpt><trkpt lat="39.2283383" lon="16.1737033"><ele>759.0</ele><time>2026-04-12T09:51:54.883Z</time></trkpt><trkpt lat="39.22833" lon="16.17379"><ele>759.0</ele><time>2026-04-12T09:51:57.883Z</time></trkpt><trkpt lat="39.22839" lon="16.1738933"><ele>759.0</ele><time>2026-04-12T09:51:59.883Z</time></trkpt><trkpt lat="39.2284417" lon="16.1739767"><ele>759.0</ele><time>2026-04-12T09:52:01.883Z</time></trkpt><trkpt lat="39.228495" lon="16.1740217"><ele>759.0</ele><time>2026-04-12T09:52:03.882Z</time></trkpt><trkpt lat="39.2285783" lon="16.1740733"><ele>759.0</ele><time>2026-04-12T09:52:05.883Z</time></trkpt><trkpt lat="39.228655" lon="16.1741467"><ele>759.0</ele><time>2026-04-12T09:52:07.882Z</time></trkpt><trkpt lat="39.22864" lon="16.174235"><ele>759.1666666666666</ele><time>2026-04-12T09:52:08.883Z</time></trkpt><trkpt lat="39.22867" lon="16.17433"><ele>759.3333333333334</ele><time>2026-04-12T09:52:10.883Z</time></trkpt><trkpt lat="39.2286883" lon="16.1744383"><ele>759.5</ele><time>2026-04-12T09:52:12.883Z</time></trkpt><trkpt lat="39.2286517" lon="16.1745617"><ele>759.6666666666667</ele><time>2026-04-12T09:52:14.882Z</time></trkpt><trkpt lat="39.2286367" lon="16.174675"><ele>759.8333333333334</ele><time>2026-04-12T09:52:16.883Z</time></trkpt><trkpt lat="39.2285817" lon="16.174735"><ele>760.0</ele><time>2026-04-12T09:52:18.883Z</time></trkpt><trkpt lat="39.2285817" lon="16.1748233"><ele>758.4</ele><time>2026-04-12T09:52:20.883Z</time></trkpt><trkpt lat="39.2285983" lon="16.1749567"><ele>756.8</ele><time>2026-04-12T09:52:22.883Z</time></trkpt><trkpt lat="39.2286017" lon="16.1750383"><ele>755.2</ele><time>2026-04-12T09:52:23.883Z</time></trkpt><trkpt lat="39.2286033" lon="16.175185"><ele>753.6</ele><time>2026-04-12T09:52:25.883Z</time></trkpt><trkpt lat="39.228585" lon="16.17531"><ele>752.0</ele><time>2026-04-12T09:52:27.883Z</time></trkpt><trkpt lat="39.2285817" lon="16.1754"><ele>752.0</ele><time>2026-04-12T09:52:29.883Z</time></trkpt><trkpt lat="39.2286517" lon="16.1754117"><ele>752.0</ele><time>2026-04-12T09:52:31.882Z</time></trkpt><trkpt lat="39.2287633" lon="16.1754517"><ele>752.0</ele><time>2026-04-12T09:52:33.883Z</time></trkpt><trkpt lat="39.2288883" lon="16.1754767"><ele>752.0</ele><time>2026-04-12T09:52:35.883Z</time></trkpt><trkpt lat="39.228995" lon="16.1755117"><ele>752.0</ele><time>2026-04-12T09:52:37.883Z</time></trkpt><trkpt lat="39.2291333" lon="16.1755217"><ele>754.0</ele><time>2026-04-12T09:52:38.883Z</time></trkpt><trkpt lat="39.2292133" lon="16.175575"><ele>756.0</ele><time>2026-04-12T09:52:39.882Z</time></trkpt><trkpt lat="39.2292633" lon="16.1756317"><ele>758.0</ele><time>2026-04-12T09:52:40.883Z</time></trkpt><trkpt lat="39.2293383" lon="16.1756967"><ele>760.0</ele><time>2026-04-12T09:52:41.883Z</time></trkpt><trkpt lat="39.2294383" lon="16.1757683"><ele>762.0</ele><time>2026-04-12T09:52:43.883Z</time></trkpt><trkpt lat="39.2295667" lon="16.1757567"><ele>762.0</ele><time>2026-04-12T09:52:45.883Z</time></trkpt><trkpt lat="39.2296267" lon="16.175715"><ele>762.0</ele><time>2026-04-12T09:52:46.882Z</time></trkpt><trkpt lat="39.2296767" lon="16.1756633"><ele>762.0</ele><time>2026-04-12T09:52:47.883Z</time></trkpt><trkpt lat="39.2297367" lon="16.1755433"><ele>762.0</ele><time>2026-04-12T09:52:49.883Z</time></trkpt><trkpt lat="39.2297817" lon="16.1754667"><ele>762.0</ele><time>2026-04-12T09:52:51.883Z</time></trkpt><trkpt lat="39.229835" lon="16.1753283"><ele>762.0</ele><time>2026-04-12T09:52:53.883Z</time></trkpt><trkpt lat="39.2298717" lon="16.175235"><ele>764.8333333333334</ele><time>2026-04-12T09:52:54.882Z</time></trkpt><trkpt lat="39.2299117" lon="16.175145"><ele>767.6666666666667</ele><time>2026-04-12T09:52:55.883Z</time></trkpt><trkpt lat="39.2299333" lon="16.1750667"><ele>770.5</ele><time>2026-04-12T09:52:56.882Z</time></trkpt><trkpt lat="39.2299967" lon="16.1749967"><ele>773.3333333333334</ele><time>2026-04-12T09:52:57.883Z</time></trkpt><trkpt lat="39.2300817" lon="16.1749367"><ele>776.1666666666667</ele><time>2026-04-12T09:52:58.882Z</time></trkpt><trkpt lat="39.23011" lon="16.1748117"><ele>779.0</ele><time>2026-04-12T09:53:00.883Z</time></trkpt><trkpt lat="39.2301667" lon="16.1747517"><ele>782.8000000000001</ele><time>2026-04-12T09:53:01.883Z</time></trkpt><trkpt lat="39.2302433" lon="16.1746467"><ele>786.6</ele><time>2026-04-12T09:53:03.882Z</time></trkpt><trkpt lat="39.2303217" lon="16.1746"><ele>790.4</ele><time>2026-04-12T09:53:05.883Z</time></trkpt><trkpt lat="39.2304233" lon="16.1745933"><ele>794.2</ele><time>2026-04-12T09:53:07.883Z</time></trkpt><trkpt lat="39.230435" lon="16.1746733"><ele>798.0</ele><time>2026-04-12T09:53:10.883Z</time></trkpt><trkpt lat="39.2305267" lon="16.1746767"><ele>798.0</ele><time>2026-04-12T09:53:14.883Z</time></trkpt><trkpt lat="39.2305983" lon="16.17461"><ele>798.0</ele><time>2026-04-12T09:53:18.883Z</time></trkpt><trkpt lat="39.2306433" lon="16.1745383"><ele>798.0</ele><time>2026-04-12T09:53:20.882Z</time></trkpt><trkpt lat="39.2307467" lon="16.1744717"><ele>798.0</ele><time>2026-04-12T09:53:22.883Z</time></trkpt><trkpt lat="39.2308383" lon="16.1744267"><ele>798.0</ele><time>2026-04-12T09:53:24.882Z</time></trkpt><trkpt lat="39.2309017" lon="16.1744383"><ele>798.0</ele><time>2026-04-12T09:53:25.883Z</time></trkpt><trkpt lat="39.2309783" lon="16.1744933"><ele>794.6666666666666</ele><time>2026-04-12T09:53:26.883Z</time></trkpt><trkpt lat="39.2310367" lon="16.1745567"><ele>791.3333333333333</ele><time>2026-04-12T09:53:27.883Z</time></trkpt><trkpt lat="39.2310917" lon="16.1746017"><ele>788.0</ele><time>2026-04-12T09:53:28.883Z</time></trkpt><trkpt lat="39.2311567" lon="16.174675"><ele>784.6666666666666</ele><time>2026-04-12T09:53:30.883Z</time></trkpt><trkpt lat="39.2311883" lon="16.174775"><ele>781.3333333333333</ele><time>2026-04-12T09:53:31.883Z</time></trkpt><trkpt lat="39.231195" lon="16.1748717"><ele>778.0</ele><time>2026-04-12T09:53:32.883Z</time></trkpt><trkpt lat="39.23124" lon="16.1749983"><ele>773.8333333333333</ele><time>2026-04-12T09:53:34.883Z</time></trkpt><trkpt lat="39.231205" lon="16.1750733"><ele>769.6666666666666</ele><time>2026-04-12T09:53:36.883Z</time></trkpt><trkpt lat="39.23114" lon="16.175155"><ele>765.5</ele><time>2026-04-12T09:53:38.883Z</time></trkpt><trkpt lat="39.2310717" lon="16.1752267"><ele>761.3333333333333</ele><time>2026-04-12T09:53:40.882Z</time></trkpt><trkpt lat="39.230985" lon="16.175255"><ele>757.1666666666666</ele><time>2026-04-12T09:53:41.882Z</time></trkpt><trkpt lat="39.230915" lon="16.175275"><ele>753.0</ele><time>2026-04-12T09:53:42.882Z</time></trkpt><trkpt lat="39.2308517" lon="16.1752917"><ele>753.0</ele><time>2026-04-12T09:53:43.882Z</time></trkpt><trkpt lat="39.2307817" lon="16.1753517"><ele>753.0</ele><time>2026-04-12T09:53:45.883Z</time></trkpt><trkpt lat="39.230815" lon="16.1754817"><ele>753.0</ele><time>2026-04-12T09:53:48.883Z</time></trkpt><trkpt lat="39.2308817" lon="16.1755933"><ele>753.0</ele><time>2026-04-12T09:53:50.883Z</time></trkpt><trkpt lat="39.230945" lon="16.1756367"><ele>753.0</ele><time>2026-04-12T09:53:51.882Z</time></trkpt><trkpt lat="39.2310033" lon="16.1756933"><ele>753.0</ele><time>2026-04-12T09:53:52.882Z</time></trkpt><trkpt lat="39.2310883" lon="16.175785"><ele>749.3333333333334</ele><time>2026-04-12T09:53:54.883Z</time></trkpt><trkpt lat="39.23112" lon="16.1758867"><ele>745.6666666666666</ele><time>2026-04-12T09:53:56.883Z</time></trkpt><trkpt lat="39.2311167" lon="16.1759717"><ele>742.0</ele><time>2026-04-12T09:53:59.883Z</time></trkpt><trkpt lat="39.23104" lon="16.17602"><ele>738.3333333333333</ele><time>2026-04-12T09:54:02.882Z</time></trkpt><trkpt lat="39.23097" lon="16.1760233"><ele>734.6666666666666</ele><time>2026-04-12T09:54:03.883Z</time></trkpt><trkpt lat="39.2308967" lon="16.1760633"><ele>731.0</ele><time>2026-04-12T09:54:05.883Z</time></trkpt><trkpt lat="39.23093" lon="16.17615"><ele>731.0</ele><time>2026-04-12T09:54:08.883Z</time></trkpt><trkpt lat="39.2309917" lon="16.176195"><ele>731.0</ele><time>2026-04-12T09:54:10.883Z</time></trkpt><trkpt lat="39.23106" lon="16.17624"><ele>731.0</ele><time>2026-04-12T09:54:13.883Z</time></trkpt><trkpt lat="39.23112" lon="16.1763867"><ele>731.0</ele><time>2026-04-12T09:54:15.883Z</time></trkpt><trkpt lat="39.2311067" lon="16.1764667"><ele>731.0</ele><time>2026-04-12T09:54:16.882Z</time></trkpt><trkpt lat="39.2310417" lon="16.1765433"><ele>731.0</ele><time>2026-04-12T09:54:19.882Z</time></trkpt><trkpt lat="39.230955" lon="16.1765633"><ele>753.0</ele><time>2026-04-12T09:54:21.883Z</time></trkpt><trkpt lat="39.231205" lon="16.1750733"><ele>753.0</ele><time>2026-04-12T09:53:36.883Z</time></trkpt><trkpt lat="39.23114" lon="16.175155"><ele>753.0</ele><time>2026-04-12T09:53:38.883Z</time></trkpt><trkpt lat="39.2310717" lon="16.1752267"><ele>753.0</ele><time>2026-04-12T09:53:40.882Z</time></trkpt><trkpt lat="39.230985" lon="16.175255"><ele>753.0</ele><time>2026-04-12T09:53:41.882Z</time></trkpt><trkpt lat="39.230915" lon="16.175275"><ele>753.0</ele><time>2026-04-12T09:53:42.882Z</time></trkpt><trkpt lat="39.2308517" lon="16.1752917"><ele>753.0</ele><time>2026-04-12T09:53:43.882Z</time></trkpt><trkpt lat="39.2307817" lon="16.1753517"><ele>753.0</ele><time>2026-04-12T09:53:45.883Z</time></trkpt><trkpt lat="39.230815" lon="16.1754817"><ele>753.0</ele><time>2026-04-12T09:53:48.883Z</time></trkpt><trkpt lat="39.2308817" lon="16.1755933"><ele>753.0</ele><time>2026-04-12T09:53:50.883Z</time></trkpt><trkpt lat="39.230945" lon="16.1756367"><ele>753.0</ele><time>2026-04-12T09:53:51.882Z</time></trkpt><trkpt lat="39.2310033" lon="16.1756933"><ele>753.0</ele><time>2026-04-12T09:53:52.882Z</time></trkpt><trkpt lat="39.2310883" lon="16.175785"><ele>749.3333333333334</ele><time>2026-04-12T09:53:54.883Z</time></trkpt><trkpt lat="39.23112" lon="16.1758867"><ele>745.6666666666666</ele><time>2026-04-12T09:53:56.883Z</time></trkpt><trkpt lat="39.2311167" lon="16.1759717"><ele>742.0</ele><time>2026-04-12T09:53:59.883Z</time></trkpt><trkpt lat="39.23104" lon="16.17602"><ele>738.3333333333333</ele><time>2026-04-12T09:54:02.882Z</time></trkpt><trkpt lat="39.23097" lon="16.1760233"><ele>734.6666666666666</ele><time>2026-04-12T09:54:03.883Z</time></trkpt><trkpt lat="39.2308967" lon="16.1760633"><ele>731.0</ele><time>2026-04-12T09:54:05.883Z</time></trkpt><trkpt lat="39.23093" lon="16.17615"><ele>731.0</ele><time>2026-04-12T09:54:08.883Z</time></trkpt><trkpt lat="39.2309917" lon="16.176195"><ele>731.0</ele><time>2026-04-12T09:54:10.883Z</time></trkpt><trkpt lat="39.23106" lon="16.17624"><ele>731.0</ele><time>2026-04-12T09:54:13.883Z</time></trkpt><trkpt lat="39.23112" lon="16.1763867"><ele>731.0</ele><time>2026-04-12T09:54:15.883Z</time></trkpt><trkpt lat="39.2311067" lon="16.1764667"><ele>731.0</ele><time>2026-04-12T09:54:16.882Z</time></trkpt><trkpt lat="39.2310417" lon="16.1765433"><ele>731.0</ele><time>2026-04-12T09:54:19.882Z</time></trkpt><trkpt lat="39.230955" lon="16.1765633"><ele>728.0</ele><time>2026-04-12T09:54:21.883Z</time></trkpt><trkpt lat="39.2308933" lon="16.176645"><ele>725.0</ele><time>2026-04-12T09:54:24.882Z</time></trkpt><trkpt lat="39.2308783" lon="16.176745"><ele>722.0</ele><time>2026-04-12T09:54:26.883Z</time></trkpt><trkpt lat="39.2308417" lon="16.17683"><ele>719.0</ele><time>2026-04-12T09:54:28.883Z</time></trkpt><trkpt lat="39.2307967" lon="16.1769217"><ele>716.0</ele><time>2026-04-12T09:54:30.883Z</time></trkpt><trkpt lat="39.2307617" lon="16.1770233"><ele>713.0</ele><time>2026-04-12T09:54:32.883Z</time></trkpt><trkpt lat="39.2307633" lon="16.17716"><ele>713.0</ele><time>2026-04-12T09:54:34.883Z</time></trkpt><trkpt lat="39.2308183" lon="16.1773"><ele>713.0</ele><time>2026-04-12T09:54:36.882Z</time></trkpt><trkpt lat="39.2308467" lon="16.1773767"><ele>713.0</ele><time>2026-04-12T09:54:37.883Z</time></trkpt><trkpt lat="39.2308617" lon="16.17747"><ele>713.0</ele><time>2026-04-12T09:54:38.883Z</time></trkpt><trkpt lat="39.2308983" lon="16.17763"><ele>713.0</ele><time>2026-04-12T09:54:40.882Z</time></trkpt><trkpt lat="39.2309167" lon="16.1777083"><ele>710.0</ele><time>2026-04-12T09:54:41.883Z</time></trkpt><trkpt lat="39.23095" lon="16.1778767"><ele>707.0</ele><time>2026-04-12T09:54:43.883Z</time></trkpt><trkpt lat="39.23097" lon="16.1779933"><ele>704.0</ele><time>2026-04-12T09:54:44.883Z</time></trkpt><trkpt lat="39.2309883" lon="16.178085"><ele>701.0</ele><time>2026-04-12T09:54:45.883Z</time></trkpt><trkpt lat="39.2310033" lon="16.178185"><ele>698.0</ele><time>2026-04-12T09:54:46.883Z</time></trkpt><trkpt lat="39.230995" lon="16.17834"><ele>695.7142857142857</ele><time>2026-04-12T09:54:48.883Z</time></trkpt><trkpt lat="39.23097" lon="16.1784267"><ele>693.4285714285714</ele><time>2026-04-12T09:54:49.883Z</time></trkpt><trkpt lat="39.2309683" lon="16.1785083"><ele>691.1428571428571</ele><time>2026-04-12T09:54:50.883Z</time></trkpt><trkpt lat="39.23096" lon="16.1785917"><ele>688.8571428571429</ele><time>2026-04-12T09:54:51.883Z</time></trkpt><trkpt lat="39.2309433" lon="16.178675"><ele>686.5714285714286</ele><time>2026-04-12T09:54:52.883Z</time></trkpt><trkpt lat="39.2309233" lon="16.1787617"><ele>684.2857142857142</ele><time>2026-04-12T09:54:53.883Z</time></trkpt><trkpt lat="39.23092" lon="16.1788633"><ele>682.0</ele><time>2026-04-12T09:54:54.883Z</time></trkpt><trkpt lat="39.2308967" lon="16.1789817"><ele>678.8333333333334</ele><time>2026-04-12T09:54:56.883Z</time></trkpt><trkpt lat="39.2308933" lon="16.1790833"><ele>675.6666666666667</ele><time>2026-04-12T09:54:58.882Z</time></trkpt><trkpt lat="39.230935" lon="16.1791667"><ele>672.5</ele><time>2026-04-12T09:55:00.883Z</time></trkpt><trkpt lat="39.2309983" lon="16.179225"><ele>669.3333333333334</ele><time>2026-04-12T09:55:02.883Z</time></trkpt><trkpt lat="39.2310883" lon="16.1792533"><ele>666.1666666666666</ele><time>2026-04-12T09:55:04.883Z</time></trkpt><trkpt lat="39.2311917" lon="16.1793017"><ele>663.0</ele><time>2026-04-12T09:55:06.883Z</time></trkpt><trkpt lat="39.2313" lon="16.179405"><ele>663.0</ele><time>2026-04-12T09:55:08.882Z</time></trkpt><trkpt lat="39.2313683" lon="16.17946"><ele>663.0</ele><time>2026-04-12T09:55:09.883Z</time></trkpt><trkpt lat="39.2314433" lon="16.1795267"><ele>663.0</ele><time>2026-04-12T09:55:10.883Z</time></trkpt><trkpt lat="39.2315517" lon="16.17956"><ele>663.0</ele><time>2026-04-12T09:55:11.883Z</time></trkpt><trkpt lat="39.23162" lon="16.1795983"><ele>663.0</ele><time>2026-04-12T09:55:12.883Z</time></trkpt><trkpt lat="39.2316883" lon="16.179625"><ele>663.0</ele><time>2026-04-12T09:55:13.883Z</time></trkpt><trkpt lat="39.2318067" lon="16.1797083"><ele>665.0</ele><time>2026-04-12T09:55:15.883Z</time></trkpt><trkpt lat="39.2318817" lon="16.1797317"><ele>667.0</ele><time>2026-04-12T09:55:16.883Z</time></trkpt><trkpt lat="39.2319517" lon="16.1797633"><ele>669.0</ele><time>2026-04-12T09:55:17.883Z</time></trkpt><trkpt lat="39.23202" lon="16.1798167"><ele>671.0</ele><time>2026-04-12T09:55:18.883Z</time></trkpt><trkpt lat="39.2320817" lon="16.1798683"><ele>673.0</ele><time>2026-04-12T09:55:19.883Z</time></trkpt><trkpt lat="39.23215" lon="16.1799167"><ele>675.0</ele><time>2026-04-12T09:55:20.883Z</time></trkpt><trkpt lat="39.2322583" lon="16.17994"><ele>674.5</ele><time>2026-04-12T09:55:22.883Z</time></trkpt><trkpt lat="39.2323333" lon="16.17988"><ele>674.0</ele><time>2026-04-12T09:55:23.883Z</time></trkpt><trkpt lat="39.2323933" lon="16.1798117"><ele>673.5</ele><time>2026-04-12T09:55:24.883Z</time></trkpt><trkpt lat="39.2324517" lon="16.1797283"><ele>673.0</ele><time>2026-04-12T09:55:25.882Z</time></trkpt><trkpt lat="39.2324833" lon="16.1796333"><ele>672.5</ele><time>2026-04-12T09:55:26.882Z</time></trkpt><trkpt lat="39.232545" lon="16.1795333"><ele>672.0</ele><time>2026-04-12T09:55:27.883Z</time></trkpt><trkpt lat="39.2326067" lon="16.1794517"><ele>672.0</ele><time>2026-04-12T09:55:28.882Z</time></trkpt><trkpt lat="39.23262" lon="16.179365"><ele>672.0</ele><time>2026-04-12T09:55:29.882Z</time></trkpt><trkpt lat="39.2326433" lon="16.17926"><ele>672.0</ele><time>2026-04-12T09:55:31.882Z</time></trkpt><trkpt lat="39.2327217" lon="16.1792833"><ele>672.0</ele><time>2026-04-12T09:55:34.882Z</time></trkpt><trkpt lat="39.2327267" lon="16.179375"><ele>672.0</ele><time>2026-04-12T09:55:35.882Z</time></trkpt><trkpt lat="39.23271" lon="16.179505"><ele>672.0</ele><time>2026-04-12T09:55:36.882Z</time></trkpt><trkpt lat="39.2326883" lon="16.179605"><ele>672.0</ele><time>2026-04-12T09:55:37.883Z</time></trkpt><trkpt lat="39.2326717" lon="16.1796917"><ele>672.0</ele><time>2026-04-12T09:55:38.883Z</time></trkpt><trkpt lat="39.2326617" lon="16.1798333"><ele>672.0</ele><time>2026-04-12T09:55:40.883Z</time></trkpt><trkpt lat="39.2326783" lon="16.1799417"><ele>672.0</ele><time>2026-04-12T09:55:42.883Z</time></trkpt><trkpt lat="39.2327333" lon="16.1799833"><ele>672.0</ele><time>2026-04-12T09:55:43.883Z</time></trkpt><trkpt lat="39.2327483" lon="16.1800867"><ele>672.0</ele><time>2026-04-12T09:55:45.882Z</time></trkpt><trkpt lat="39.2328267" lon="16.180185"><ele>667.6</ele><time>2026-04-12T09:55:47.883Z</time></trkpt><trkpt lat="39.2328583" lon="16.18031"><ele>663.2</ele><time>2026-04-12T09:55:49.883Z</time></trkpt><trkpt lat="39.23282" lon="16.1804533"><ele>658.8</ele><time>2026-04-12T09:55:51.883Z</time></trkpt><trkpt lat="39.2327467" lon="16.18058"><ele>654.4</ele><time>2026-04-12T09:55:53.883Z</time></trkpt><trkpt lat="39.2326583" lon="16.180615"><ele>650.0</ele><time>2026-04-12T09:55:55.883Z</time></trkpt><trkpt lat="39.2325767" lon="16.180685"><ele>650.0</ele><time>2026-04-12T09:55:57.883Z</time></trkpt><trkpt lat="39.2324817" lon="16.1807033"><ele>650.0</ele><time>2026-04-12T09:55:59.882Z</time></trkpt><trkpt lat="39.2323783" lon="16.18068"><ele>650.0</ele><time>2026-04-12T09:56:01.883Z</time></trkpt><trkpt lat="39.232295" lon="16.1806483"><ele>650.0</ele><time>2026-04-12T09:56:02.883Z</time></trkpt><trkpt lat="39.232215" lon="16.18064"><ele>650.0</ele><time>2026-04-12T09:56:03.883Z</time></trkpt><trkpt lat="39.232145" lon="16.1806467"><ele>650.0</ele><time>2026-04-12T09:56:04.883Z</time></trkpt><trkpt lat="39.2320817" lon="16.180665"><ele>645.0</ele><time>2026-04-12T09:56:05.882Z</time></trkpt><trkpt lat="39.231995" lon="16.1807317"><ele>640.0</ele><time>2026-04-12T09:56:07.883Z</time></trkpt><trkpt lat="39.231915" lon="16.180835"><ele>635.0</ele><time>2026-04-12T09:56:09.883Z</time></trkpt><trkpt lat="39.2318433" lon="16.18094"><ele>630.0</ele><time>2026-04-12T09:56:11.883Z</time></trkpt><trkpt lat="39.2318" lon="16.1810767"><ele>625.0</ele><time>2026-04-12T09:56:13.882Z</time></trkpt><trkpt lat="39.231765" lon="16.1811617"><ele>625.0</ele><time>2026-04-12T09:56:14.883Z</time></trkpt><trkpt lat="39.2317867" lon="16.1812733"><ele>625.0</ele><time>2026-04-12T09:56:16.883Z</time></trkpt><trkpt lat="39.231845" lon="16.1813767"><ele>625.0</ele><time>2026-04-12T09:56:19.883Z</time></trkpt><trkpt lat="39.2319033" lon="16.1814483"><ele>625.0</ele><time>2026-04-12T09:56:22.882Z</time></trkpt><trkpt lat="39.23196" lon="16.1815183"><ele>625.0</ele><time>2026-04-12T09:56:24.883Z</time></trkpt><trkpt lat="39.2319883" lon="16.1815967"><ele>625.0</ele><time>2026-04-12T09:56:26.883Z</time></trkpt><trkpt lat="39.2320383" lon="16.1816817"><ele>626.1666666666667</ele><time>2026-04-12T09:56:28.883Z</time></trkpt><trkpt lat="39.2321" lon="16.1817483"><ele>627.3333333333334</ele><time>2026-04-12T09:56:30.883Z</time></trkpt><trkpt lat="39.2321333" lon="16.1818383"><ele>628.5</ele><time>2026-04-12T09:56:33.883Z</time></trkpt><trkpt lat="39.23218" lon="16.1819017"><ele>629.6666666666666</ele><time>2026-04-12T09:56:36.883Z</time></trkpt><trkpt lat="39.2320467" lon="16.18183"><ele>630.8333333333333</ele><time>2026-04-12T09:56:46.882Z</time></trkpt><trkpt lat="39.23197" lon="16.1818217"><ele>632.0</ele><time>2026-04-12T09:56:47.883Z</time></trkpt><trkpt lat="39.2318283" lon="16.181785"><ele>632.0</ele><time>2026-04-12T09:56:49.883Z</time></trkpt><trkpt lat="39.2317117" lon="16.1817233"><ele>632.0</ele><time>2026-04-12T09:56:51.883Z</time></trkpt><trkpt lat="39.2316483" lon="16.1817083"><ele>632.0</ele><time>2026-04-12T09:56:52.883Z</time></trkpt><trkpt lat="39.231555" lon="16.18164"><ele>632.0</ele><time>2026-04-12T09:56:54.883Z</time></trkpt><trkpt lat="39.23147" lon="16.1815867"><ele>632.0</ele><time>2026-04-12T09:56:55.883Z</time></trkpt><trkpt lat="39.2313967" lon="16.1815567"><ele>631.2</ele><time>2026-04-12T09:56:56.883Z</time></trkpt><trkpt lat="39.2312667" lon="16.18148"><ele>630.4000000000001</ele><time>2026-04-12T09:56:58.882Z</time></trkpt><trkpt lat="39.2311817" lon="16.1814467"><ele>629.5999999999999</ele><time>2026-04-12T09:56:59.883Z</time></trkpt><trkpt lat="39.2310783" lon="16.18143"><ele>628.8</ele><time>2026-04-12T09:57:00.883Z</time></trkpt><trkpt lat="39.2309933" lon="16.1814067"><ele>628.0</ele><time>2026-04-12T09:57:01.883Z</time></trkpt><trkpt lat="39.2309117" lon="16.1813817"><ele>628.0</ele><time>2026-04-12T09:57:02.882Z</time></trkpt><trkpt lat="39.2308117" lon="16.1813483"><ele>628.0</ele><time>2026-04-12T09:57:03.883Z</time></trkpt><trkpt lat="39.2307133" lon="16.1813083"><ele>628.0</ele><time>2026-04-12T09:57:04.883Z</time></trkpt><trkpt lat="39.2306317" lon="16.1812883"><ele>628.0</ele><time>2026-04-12T09:57:05.883Z</time></trkpt><trkpt lat="39.23056" lon="16.1812683"><ele>628.0</ele><time>2026-04-12T09:57:06.883Z</time></trkpt><trkpt lat="39.23048" lon="16.1812383"><ele>628.0</ele><time>2026-04-12T09:57:07.883Z</time></trkpt><trkpt lat="39.2303967" lon="16.181225"><ele>631.3333333333334</ele><time>2026-04-12T09:57:08.883Z</time></trkpt><trkpt lat="39.2302983" lon="16.1812183"><ele>634.6666666666667</ele><time>2026-04-12T09:57:09.882Z</time></trkpt><trkpt lat="39.2302217" lon="16.1812067"><ele>638.0</ele><time>2026-04-12T09:57:10.883Z</time></trkpt><trkpt lat="39.230155" lon="16.18118"><ele>641.3333333333334</ele><time>2026-04-12T09:57:11.882Z</time></trkpt><trkpt lat="39.2300917" lon="16.1811467"><ele>644.6666666666666</ele><time>2026-04-12T09:57:12.882Z</time></trkpt><trkpt lat="39.230025" lon="16.181105"><ele>648.0</ele><time>2026-04-12T09:57:13.883Z</time></trkpt><trkpt lat="39.2299617" lon="16.1810717"><ele>648.0</ele><time>2026-04-12T09:57:14.883Z</time></trkpt><trkpt lat="39.2298917" lon="16.18106"><ele>648.0</ele><time>2026-04-12T09:57:15.883Z</time></trkpt><trkpt lat="39.22982" lon="16.181025"><ele>648.0</ele><time>2026-04-12T09:57:16.883Z</time></trkpt><trkpt lat="39.22974" lon="16.1809983"><ele>648.0</ele><time>2026-04-12T09:57:17.883Z</time></trkpt><trkpt lat="39.2296733" lon="16.1809617"><ele>648.0</ele><time>2026-04-12T09:57:18.883Z</time></trkpt><trkpt lat="39.22959" lon="16.1809333"><ele>648.0</ele><time>2026-04-12T09:57:19.882Z</time></trkpt><trkpt lat="39.2295117" lon="16.18092"><ele>648.5999999999999</ele><time>2026-04-12T09:57:20.883Z</time></trkpt><trkpt lat="39.22939" lon="16.180835"><ele>649.1999999999999</ele><time>2026-04-12T09:57:21.883Z</time></trkpt><trkpt lat="39.2293033" lon="16.1808067"><ele>649.8</ele><time>2026-04-12T09:57:22.883Z</time></trkpt><trkpt lat="39.2292133" lon="16.1807817"><ele>650.4</ele><time>2026-04-12T09:57:23.883Z</time></trkpt><trkpt lat="39.2291433" lon="16.1807817"><ele>651.0</ele><time>2026-04-12T09:57:24.883Z</time></trkpt><trkpt lat="39.22904" lon="16.1807867"><ele>651.1999999999999</ele><time>2026-04-12T09:57:26.883Z</time></trkpt><trkpt lat="39.228975" lon="16.1806683"><ele>651.4</ele><time>2026-04-12T09:57:30.883Z</time></trkpt><trkpt lat="39.228895" lon="16.1805533"><ele>651.6</ele><time>2026-04-12T09:57:32.882Z</time></trkpt><trkpt lat="39.228785" lon="16.1804633"><ele>651.8</ele><time>2026-04-12T09:57:34.882Z</time></trkpt><trkpt lat="39.228715" lon="16.180425"><ele>652.0</ele><time>2026-04-12T09:57:35.883Z</time></trkpt><trkpt lat="39.22862" lon="16.180335"><ele>652.0</ele><time>2026-04-12T09:57:37.883Z</time></trkpt><trkpt lat="39.2285767" lon="16.1802267"><ele>652.0</ele><time>2026-04-12T09:57:40.883Z</time></trkpt><trkpt lat="39.2285683" lon="16.18012"><ele>652.0</ele><time>2026-04-12T09:57:41.883Z</time></trkpt><trkpt lat="39.228515" lon="16.1800583"><ele>652.0</ele><time>2026-04-12T09:57:43.882Z</time></trkpt><trkpt lat="39.2283717" lon="16.1800717"><ele>652.0</ele><time>2026-04-12T09:57:45.883Z</time></trkpt><trkpt lat="39.2282783" lon="16.180075"><ele>652.0</ele><time>2026-04-12T09:57:47.883Z</time></trkpt><trkpt lat="39.2282183" lon="16.1801583"><ele>652.0</ele><time>2026-04-12T09:58:37.883Z</time></trkpt><trkpt lat="39.2282783" lon="16.18026"><ele>652.0</ele><time>2026-04-12T09:58:39.883Z</time></trkpt><trkpt lat="39.2283583" lon="16.180345"><ele>652.0</ele><time>2026-04-12T09:58:41.883Z</time></trkpt><trkpt lat="39.2284233" lon="16.1803717"><ele>652.0</ele><time>2026-04-12T09:58:42.883Z</time></trkpt><trkpt lat="39.228535" lon="16.1803833"><ele>652.0</ele><time>2026-04-12T09:58:44.883Z</time></trkpt><trkpt lat="39.2285483" lon="16.1804683"><ele>652.0</ele><time>2026-04-12T09:58:46.882Z</time></trkpt><trkpt lat="39.2285483" lon="16.1805867"><ele>652.0</ele><time>2026-04-12T09:58:48.883Z</time></trkpt><trkpt lat="39.2286" lon="16.180655"><ele>652.0</ele><time>2026-04-12T09:58:50.883Z</time></trkpt><trkpt lat="39.2286417" lon="16.1807267"><ele>652.0</ele><time>2026-04-12T09:58:53.883Z</time></trkpt><trkpt lat="39.2287117" lon="16.1807417"><ele>652.0</ele><time>2026-04-12T09:58:55.883Z</time></trkpt><trkpt lat="39.22878" lon="16.18077"><ele>652.0</ele><time>2026-04-12T09:58:58.883Z</time></trkpt><trkpt lat="39.2288867" lon="16.1807683"><ele>655.2</ele><time>2026-04-12T09:58:59.883Z</time></trkpt><trkpt lat="39.228955" lon="16.1807467"><ele>658.4000000000001</ele><time>2026-04-12T09:59:02.883Z</time></trkpt><trkpt lat="39.22887" lon="16.180815"><ele>661.5999999999999</ele><time>2026-04-12T09:59:25.883Z</time></trkpt><trkpt lat="39.2288083" lon="16.1808483"><ele>664.8</ele><time>2026-04-12T09:59:27.883Z</time></trkpt><trkpt lat="39.22873" lon="16.1809333"><ele>668.0</ele><time>2026-04-12T09:59:29.882Z</time></trkpt><trkpt lat="39.22863" lon="16.180995"><ele>668.0</ele><time>2026-04-12T09:59:31.883Z</time></trkpt><trkpt lat="39.228555" lon="16.18114"><ele>668.0</ele><time>2026-04-12T09:59:33.883Z</time></trkpt><trkpt lat="39.2285" lon="16.1812317"><ele>668.0</ele><time>2026-04-12T09:59:34.883Z</time></trkpt><trkpt lat="39.2284417" lon="16.1813433"><ele>668.0</ele><time>2026-04-12T09:59:35.883Z</time></trkpt><trkpt lat="39.22842" lon="16.181465"><ele>668.0</ele><time>2026-04-12T09:59:36.882Z</time></trkpt><trkpt lat="39.2283933" lon="16.1815433"><ele>670.6666666666666</ele><time>2026-04-12T09:59:37.883Z</time></trkpt><trkpt lat="39.2283933" lon="16.181655"><ele>673.3333333333333</ele><time>2026-04-12T09:59:38.883Z</time></trkpt><trkpt lat="39.2283967" lon="16.1817617"><ele>676.0</ele><time>2026-04-12T09:59:39.883Z</time></trkpt><trkpt lat="39.22839" lon="16.1818533"><ele>678.6666666666666</ele><time>2026-04-12T09:59:40.882Z</time></trkpt><trkpt lat="39.22841" lon="16.18198"><ele>681.3333333333334</ele><time>2026-04-12T09:59:41.883Z</time></trkpt><trkpt lat="39.228425" lon="16.1820867"><ele>684.0</ele><time>2026-04-12T09:59:42.883Z</time></trkpt><trkpt lat="39.2284317" lon="16.1821817"><ele>684.0</ele><time>2026-04-12T09:59:43.883Z</time></trkpt><trkpt lat="39.22844" lon="16.1822667"><ele>684.0</ele><time>2026-04-12T09:59:44.883Z</time></trkpt><trkpt lat="39.2284667" lon="16.1824"><ele>684.0</ele><time>2026-04-12T09:59:46.883Z</time></trkpt><trkpt lat="39.2285383" lon="16.1824217"><ele>684.0</ele><time>2026-04-12T09:59:47.883Z</time></trkpt><trkpt lat="39.2286333" lon="16.182345"><ele>684.0</ele><time>2026-04-12T09:59:49.883Z</time></trkpt><trkpt lat="39.2286717" lon="16.182275"><ele>684.0</ele><time>2026-04-12T09:59:50.883Z</time></trkpt><trkpt lat="39.22872" lon="16.1821833"><ele>684.0</ele><time>2026-04-12T09:59:51.883Z</time></trkpt><trkpt lat="39.228745" lon="16.1820933"><ele>684.0</ele><time>2026-04-12T09:59:52.883Z</time></trkpt><trkpt lat="39.2288083" lon="16.1819833"><ele>684.0</ele><time>2026-04-12T09:59:54.882Z</time></trkpt><trkpt lat="39.2288867" lon="16.181915"><ele>684.0</ele><time>2026-04-12T09:59:56.882Z</time></trkpt><trkpt lat="39.2289667" lon="16.18182"><ele>684.0</ele><time>2026-04-12T09:59:58.883Z</time></trkpt><trkpt lat="39.2290633" lon="16.1817933"><ele>681.8000000000001</ele><time>2026-04-12T09:59:59.883Z</time></trkpt><trkpt lat="39.2291367" lon="16.1817717"><ele>679.6</ele><time>2026-04-12T10:00:00.883Z</time></trkpt><trkpt lat="39.22924" lon="16.181785"><ele>677.4</ele><time>2026-04-12T10:00:02.882Z</time></trkpt><trkpt lat="39.2293783" lon="16.1818"><ele>675.2</ele><time>2026-04-12T10:00:04.882Z</time></trkpt><trkpt lat="39.22949" lon="16.181875"><ele>673.0</ele><time>2026-04-12T10:00:06.883Z</time></trkpt><trkpt lat="39.2295417" lon="16.1819383"><ele>673.0</ele><time>2026-04-12T10:00:07.883Z</time></trkpt><trkpt lat="39.22958" lon="16.1820217"><ele>673.0</ele><time>2026-04-12T10:00:08.883Z</time></trkpt><trkpt lat="39.22961" lon="16.1820967"><ele>673.0</ele><time>2026-04-12T10:00:09.882Z</time></trkpt><trkpt lat="39.2296483" lon="16.1821817"><ele>673.0</ele><time>2026-04-12T10:00:10.883Z</time></trkpt><trkpt lat="39.22962" lon="16.1823483"><ele>673.0</ele><time>2026-04-12T10:00:11.883Z</time></trkpt><trkpt lat="39.2296533" lon="16.18245"><ele>673.0</ele><time>2026-04-12T10:00:12.883Z</time></trkpt><trkpt lat="39.2297183" lon="16.1825167"><ele>676.6666666666667</ele><time>2026-04-12T10:00:13.883Z</time></trkpt><trkpt lat="39.2297667" lon="16.1825833"><ele>680.3333333333334</ele><time>2026-04-12T10:00:14.883Z</time></trkpt><trkpt lat="39.22988" lon="16.1826117"><ele>684.0</ele><time>2026-04-12T10:00:15.882Z</time></trkpt><trkpt lat="39.22841" lon="16.18198"><ele>684.0</ele><time>2026-04-12T09:59:41.883Z</time></trkpt><trkpt lat="39.228425" lon="16.1820867"><ele>684.0</ele><time>2026-04-12T09:59:42.883Z</time></trkpt><trkpt lat="39.2284317" lon="16.1821817"><ele>684.0</ele><time>2026-04-12T09:59:43.883Z</time></trkpt><trkpt lat="39.22844" lon="16.1822667"><ele>684.0</ele><time>2026-04-12T09:59:44.883Z</time></trkpt><trkpt lat="39.2284667" lon="16.1824"><ele>684.0</ele><time>2026-04-12T09:59:46.883Z</time></trkpt><trkpt lat="39.2285383" lon="16.1824217"><ele>684.0</ele><time>2026-04-12T09:59:47.883Z</time></trkpt><trkpt lat="39.2286333" lon="16.182345"><ele>684.0</ele><time>2026-04-12T09:59:49.883Z</time></trkpt><trkpt lat="39.2286717" lon="16.182275"><ele>684.0</ele><time>2026-04-12T09:59:50.883Z</time></trkpt><trkpt lat="39.22872" lon="16.1821833"><ele>684.0</ele><time>2026-04-12T09:59:51.883Z</time></trkpt><trkpt lat="39.228745" lon="16.1820933"><ele>684.0</ele><time>2026-04-12T09:59:52.883Z</time></trkpt><trkpt lat="39.2288083" lon="16.1819833"><ele>684.0</ele><time>2026-04-12T09:59:54.882Z</time></trkpt><trkpt lat="39.2288867" lon="16.181915"><ele>684.0</ele><time>2026-04-12T09:59:56.882Z</time></trkpt><trkpt lat="39.2289667" lon="16.18182"><ele>681.8000000000001</ele><time>2026-04-12T09:59:58.883Z</time></trkpt><trkpt lat="39.2290633" lon="16.1817933"><ele>679.6</ele><time>2026-04-12T09:59:59.883Z</time></trkpt><trkpt lat="39.2291367" lon="16.1817717"><ele>677.4</ele><time>2026-04-12T10:00:00.883Z</time></trkpt><trkpt lat="39.22924" lon="16.181785"><ele>675.2</ele><time>2026-04-12T10:00:02.882Z</time></trkpt><trkpt lat="39.2293783" lon="16.1818"><ele>673.0</ele><time>2026-04-12T10:00:04.882Z</time></trkpt><trkpt lat="39.22949" lon="16.181875"><ele>673.0</ele><time>2026-04-12T10:00:06.883Z</time></trkpt><trkpt lat="39.2295417" lon="16.1819383"><ele>673.0</ele><time>2026-04-12T10:00:07.883Z</time></trkpt><trkpt lat="39.22958" lon="16.1820217"><ele>673.0</ele><time>2026-04-12T10:00:08.883Z</time></trkpt><trkpt lat="39.22961" lon="16.1820967"><ele>673.0</ele><time>2026-04-12T10:00:09.882Z</time></trkpt><trkpt lat="39.2296483" lon="16.1821817"><ele>673.0</ele><time>2026-04-12T10:00:10.883Z</time></trkpt><trkpt lat="39.22962" lon="16.1823483"><ele>673.0</ele><time>2026-04-12T10:00:11.883Z</time></trkpt><trkpt lat="39.2296533" lon="16.18245"><ele>676.3333333333334</ele><time>2026-04-12T10:00:12.883Z</time></trkpt><trkpt lat="39.2297183" lon="16.1825167"><ele>679.6666666666667</ele><time>2026-04-12T10:00:13.883Z</time></trkpt><trkpt lat="39.2297667" lon="16.1825833"><ele>683.0</ele><time>2026-04-12T10:00:14.883Z</time></trkpt><trkpt lat="39.22988" lon="16.1826117"><ele>686.3333333333334</ele><time>2026-04-12T10:00:15.882Z</time></trkpt><trkpt lat="39.22994" lon="16.1825867"><ele>689.6666666666666</ele><time>2026-04-12T10:00:16.883Z</time></trkpt><trkpt lat="39.2300433" lon="16.182615"><ele>693.0</ele><time>2026-04-12T10:00:18.882Z</time></trkpt><trkpt lat="39.2301733" lon="16.1826617"><ele>693.0</ele><time>2026-04-12T10:00:20.883Z</time></trkpt><trkpt lat="39.2302367" lon="16.18268"><ele>693.0</ele><time>2026-04-12T10:00:21.883Z</time></trkpt><trkpt lat="39.2303033" lon="16.182715"><ele>693.0</ele><time>2026-04-12T10:00:22.882Z</time></trkpt><trkpt lat="39.2304067" lon="16.182755"><ele>693.0</ele><time>2026-04-12T10:00:24.883Z</time></trkpt><trkpt lat="39.2303217" lon="16.18279"><ele>693.0</ele><time>2026-04-12T10:00:27.882Z</time></trkpt><trkpt lat="39.2301833" lon="16.182825"><ele>693.0</ele><time>2026-04-12T10:00:28.883Z</time></trkpt><trkpt lat="39.2300567" lon="16.18285"><ele>693.0</ele><time>2026-04-12T10:00:29.883Z</time></trkpt><trkpt lat="39.229965" lon="16.1828733"><ele>693.0</ele><time>2026-04-12T10:00:30.882Z</time></trkpt><trkpt lat="39.2298767" lon="16.1828933"><ele>693.0</ele><time>2026-04-12T10:00:31.883Z</time></trkpt><trkpt lat="39.2297783" lon="16.18287"><ele>693.0</ele><time>2026-04-12T10:00:32.883Z</time></trkpt><trkpt lat="39.2296683" lon="16.182835"><ele>693.4</ele><time>2026-04-12T10:00:33.883Z</time></trkpt><trkpt lat="39.2295617" lon="16.1828133"><ele>693.8</ele><time>2026-04-12T10:00:34.883Z</time></trkpt><trkpt lat="39.2294533" lon="16.1827917"><ele>694.2</ele><time>2026-04-12T10:00:35.883Z</time></trkpt><trkpt lat="39.2293717" lon="16.1827983"><ele>694.6</ele><time>2026-04-12T10:00:36.882Z</time></trkpt><trkpt lat="39.2292833" lon="16.1828217"><ele>695.0</ele><time>2026-04-12T10:00:37.883Z</time></trkpt><trkpt lat="39.2291933" lon="16.18284"><ele>695.0</ele><time>2026-04-12T10:00:38.882Z</time></trkpt><trkpt lat="39.22914" lon="16.1829567"><ele>695.0</ele><time>2026-04-12T10:00:40.883Z</time></trkpt><trkpt lat="39.2290667" lon="16.1830733"><ele>695.0</ele><time>2026-04-12T10:00:42.883Z</time></trkpt><trkpt lat="39.2289883" lon="16.18317"><ele>695.0</ele><time>2026-04-12T10:00:44.882Z</time></trkpt><trkpt lat="39.2291783" lon="16.1832483"><ele>705.6666666666666</ele><time>2026-04-12T10:00:45.883Z</time></trkpt><trkpt lat="39.2293367" lon="16.183275"><ele>716.3333333333334</ele><time>2026-04-12T10:00:46.883Z</time></trkpt><trkpt lat="39.229485" lon="16.183305"><ele>727.0</ele><time>2026-04-12T10:00:47.882Z</time></trkpt><trkpt lat="39.2296483" lon="16.1833383"><ele>726.0</ele><time>2026-04-12T10:00:48.882Z</time></trkpt><trkpt lat="39.2298133" lon="16.1833483"><ele>725.0</ele><time>2026-04-12T10:00:49.883Z</time></trkpt><trkpt lat="39.22992" lon="16.1834033"><ele>724.0</ele><time>2026-04-12T10:00:50.883Z</time></trkpt><trkpt lat="39.2300367" lon="16.1834417"><ele>723.0</ele><time>2026-04-12T10:00:51.883Z</time></trkpt><trkpt lat="39.2301417" lon="16.1835117"><ele>723.0</ele><time>2026-04-12T10:00:52.883Z</time></trkpt><trkpt lat="39.23023" lon="16.1836017"><ele>723.0</ele><time>2026-04-12T10:00:53.883Z</time></trkpt><trkpt lat="39.2303117" lon="16.18368"><ele>723.0</ele><time>2026-04-12T10:00:54.883Z</time></trkpt><trkpt lat="39.2304217" lon="16.1837783"><ele>723.0</ele><time>2026-04-12T10:00:55.882Z</time></trkpt><trkpt lat="39.2305333" lon="16.18386"><ele>724.75</ele><time>2026-04-12T10:00:56.883Z</time></trkpt><trkpt lat="39.230675" lon="16.1839"><ele>726.5</ele><time>2026-04-12T10:00:57.883Z</time></trkpt><trkpt lat="39.23077" lon="16.183965"><ele>728.25</ele><time>2026-04-12T10:00:58.883Z</time></trkpt><trkpt lat="39.2308983" lon="16.1840517"><ele>730.0</ele><time>2026-04-12T10:00:59.883Z</time></trkpt><trkpt lat="39.2309983" lon="16.1841067"><ele>730.0</ele><time>2026-04-12T10:01:00.883Z</time></trkpt><trkpt lat="39.231095" lon="16.1841683"><ele>730.0</ele><time>2026-04-12T10:01:01.883Z</time></trkpt><trkpt lat="39.2312217" lon="16.18424"><ele>730.0</ele><time>2026-04-12T10:01:03.883Z</time></trkpt><trkpt lat="39.2313083" lon="16.1842933"><ele>730.0</ele><time>2026-04-12T10:01:04.883Z</time></trkpt><trkpt lat="39.2313883" lon="16.184315"><ele>730.0</ele><time>2026-04-12T10:01:05.882Z</time></trkpt><trkpt lat="39.231465" lon="16.1843233"><ele>727.8333333333334</ele><time>2026-04-12T10:01:06.883Z</time></trkpt><trkpt lat="39.2315917" lon="16.18432"><ele>725.6666666666667</ele><time>2026-04-12T10:01:08.883Z</time></trkpt><trkpt lat="39.2316633" lon="16.1843233"><ele>723.5</ele><time>2026-04-12T10:01:09.883Z</time></trkpt><trkpt lat="39.2317433" lon="16.18426"><ele>721.3333333333334</ele><time>2026-04-12T10:01:11.883Z</time></trkpt><trkpt lat="39.2318017" lon="16.1842933"><ele>719.1666666666666</ele><time>2026-04-12T10:01:12.883Z</time></trkpt><trkpt lat="39.2318683" lon="16.1843733"><ele>717.0</ele><time>2026-04-12T10:01:14.883Z</time></trkpt><trkpt lat="39.2304883" lon="16.1846483"><ele>724.4000000000001</ele><time>2026-04-12T10:01:16.882Z</time></trkpt><trkpt lat="39.23039" lon="16.1847717"><ele>731.8000000000001</ele><time>2026-04-12T10:01:18.882Z</time></trkpt><trkpt lat="39.230325" lon="16.1848333"><ele>739.2</ele><time>2026-04-12T10:01:19.881Z</time></trkpt><trkpt lat="39.230265" lon="16.1848967"><ele>746.6</ele><time>2026-04-12T10:01:20.882Z</time></trkpt><trkpt lat="39.2302067" lon="16.1849717"><ele>754.0</ele><time>2026-04-12T10:01:21.881Z</time></trkpt><trkpt lat="39.2301483" lon="16.1850367"><ele>754.6666666666667</ele><time>2026-04-12T10:01:22.882Z</time></trkpt><trkpt lat="39.230095" lon="16.1850967"><ele>755.3333333333334</ele><time>2026-04-12T10:01:23.882Z</time></trkpt><trkpt lat="39.23004" lon="16.1851517"><ele>756.0</ele><time>2026-04-12T10:01:24.881Z</time></trkpt><trkpt lat="39.229195" lon="16.184745"><ele>754.0</ele><time>2026-04-12T10:01:26.884Z</time></trkpt><trkpt lat="39.2289" lon="16.1846033"><ele>752.0</ele><time>2026-04-12T10:01:27.884Z</time></trkpt><trkpt lat="39.2285733" lon="16.1844567"><ele>752.0</ele><time>2026-04-12T10:01:28.884Z</time></trkpt><trkpt lat="39.2284283" lon="16.184455"><ele>752.0</ele><time>2026-04-12T10:01:29.884Z</time></trkpt><trkpt lat="39.2282433" lon="16.1845533"><ele>752.0</ele><time>2026-04-12T10:01:30.884Z</time></trkpt><trkpt lat="39.22815" lon="16.184575"><ele>752.0</ele><time>2026-04-12T10:01:31.884Z</time></trkpt><trkpt lat="39.2280417" lon="16.1846133"><ele>750.3333333333333</ele><time>2026-04-12T10:01:32.884Z</time></trkpt><trkpt lat="39.227945" lon="16.184645"><ele>748.6666666666666</ele><time>2026-04-12T10:01:33.884Z</time></trkpt><trkpt lat="39.2278783" lon="16.1846917"><ele>747.0</ele><time>2026-04-12T10:01:34.884Z</time></trkpt><trkpt lat="39.2278" lon="16.18471"><ele>745.3333333333334</ele><time>2026-04-12T10:01:35.883Z</time></trkpt><trkpt lat="39.2277033" lon="16.18473"><ele>743.6666666666667</ele><time>2026-04-12T10:01:37.884Z</time></trkpt><trkpt lat="39.227665" lon="16.1848033"><ele>742.0</ele><time>2026-04-12T10:01:39.884Z</time></trkpt><trkpt lat="39.227815" lon="16.1847967"><ele>742.0</ele><time>2026-04-12T10:01:40.884Z</time></trkpt><trkpt lat="39.22788" lon="16.1848317"><ele>742.0</ele><time>2026-04-12T10:01:42.883Z</time></trkpt><trkpt lat="39.2279467" lon="16.1848667"><ele>742.0</ele><time>2026-04-12T10:01:43.883Z</time></trkpt><trkpt lat="39.2279717" lon="16.1849417"><ele>742.0</ele><time>2026-04-12T10:01:46.883Z</time></trkpt><trkpt lat="39.228025" lon="16.1849933"><ele>742.0</ele><time>2026-04-12T10:01:48.884Z</time></trkpt><trkpt lat="39.2280483" lon="16.1851033"><ele>742.0</ele><time>2026-04-12T10:01:51.884Z</time></trkpt><trkpt lat="39.2281183" lon="16.18511"><ele>742.0</ele><time>2026-04-12T10:01:53.883Z</time></trkpt><trkpt lat="39.228195" lon="16.185105"><ele>754.0</ele><time>2026-04-12T10:01:54.884Z</time></trkpt><trkpt lat="39.2282583" lon="16.1851333"><ele>766.0</ele><time>2026-04-12T10:01:56.883Z</time></trkpt><trkpt lat="39.2284867" lon="16.18519"><ele>778.0</ele><time>2026-04-12T10:01:58.883Z</time></trkpt><trkpt lat="39.2285783" lon="16.18517"><ele>790.0</ele><time>2026-04-12T10:01:59.883Z</time></trkpt><trkpt lat="39.2287417" lon="16.1852017"><ele>790.0</ele><time>2026-04-12T10:02:00.883Z</time></trkpt><trkpt lat="39.228925" lon="16.1852833"><ele>790.0</ele><time>2026-04-12T10:02:01.884Z</time></trkpt><trkpt lat="39.2291117" lon="16.1854017"><ele>790.0</ele><time>2026-04-12T10:02:02.884Z</time></trkpt><trkpt lat="39.2292333" lon="16.1854567"><ele>789.6</ele><time>2026-04-12T10:02:03.883Z</time></trkpt><trkpt lat="39.2293383" lon="16.1855083"><ele>789.2</ele><time>2026-04-12T10:02:04.883Z</time></trkpt><trkpt lat="39.2294167" lon="16.185535"><ele>788.8</ele><time>2026-04-12T10:02:05.884Z</time></trkpt><trkpt lat="39.229545" lon="16.185545"><ele>788.4</ele><time>2026-04-12T10:02:06.884Z</time></trkpt><trkpt lat="39.2296183" lon="16.1855833"><ele>788.0</ele><time>2026-04-12T10:02:07.883Z</time></trkpt><trkpt lat="39.2296933" lon="16.1856267"><ele>788.0000000000001</ele><time>2026-04-12T10:02:08.883Z</time></trkpt><trkpt lat="39.22977" lon="16.18567"><ele>788.0</ele><time>2026-04-12T10:02:09.884Z</time></trkpt><trkpt lat="39.2298417" lon="16.1857033"><ele>788.0</ele><time>2026-04-12T10:02:10.884Z</time></trkpt><trkpt lat="39.2299133" lon="16.1857383"><ele>788.0</ele><time>2026-04-12T10:02:11.884Z</time></trkpt><trkpt lat="39.2299917" lon="16.1857983"><ele>788.0000000000001</ele><time>2026-04-12T10:02:12.883Z</time></trkpt><trkpt lat="39.2300717" lon="16.1858717"><ele>788.0</ele><time>2026-04-12T10:02:13.884Z</time></trkpt><trkpt lat="39.2301433" lon="16.1859133"><ele>792.5999999999999</ele><time>2026-04-12T10:02:14.883Z</time></trkpt><trkpt lat="39.2302267" lon="16.1860017"><ele>797.1999999999999</ele><time>2026-04-12T10:02:15.883Z</time></trkpt><trkpt lat="39.2303017" lon="16.1860533"><ele>801.8</ele><time>2026-04-12T10:02:16.883Z</time></trkpt><trkpt lat="39.2303767" lon="16.1861017"><ele>806.4</ele><time>2026-04-12T10:02:17.884Z</time></trkpt><trkpt lat="39.23045" lon="16.1861683"><ele>811.0</ele><time>2026-04-12T10:02:18.883Z</time></trkpt><trkpt lat="39.2305217" lon="16.1862517"><ele>810.9999999999999</ele><time>2026-04-12T10:02:19.884Z</time></trkpt><trkpt lat="39.2306017" lon="16.1863283"><ele>811.0</ele><time>2026-04-12T10:02:20.884Z</time></trkpt><trkpt lat="39.2306583" lon="16.1863967"><ele>811.0</ele><time>2026-04-12T10:02:21.883Z</time></trkpt><trkpt lat="39.2307033" lon="16.18646"><ele>811.0</ele><time>2026-04-12T10:02:22.884Z</time></trkpt><trkpt lat="39.23076" lon="16.1865083"><ele>810.9999999999999</ele><time>2026-04-12T10:02:23.884Z</time></trkpt><trkpt lat="39.2307933" lon="16.1865783"><ele>811.0</ele><time>2026-04-12T10:02:24.883Z</time></trkpt><trkpt lat="39.2308233" lon="16.1867167"><ele>811.0</ele><time>2026-04-12T10:02:26.884Z</time></trkpt><trkpt lat="39.2306717" lon="16.1868083"><ele>811.0</ele><time>2026-04-12T10:02:28.883Z</time></trkpt><trkpt lat="39.2306017" lon="16.1867583"><ele>811.0</ele><time>2026-04-12T10:02:29.884Z</time></trkpt><trkpt lat="39.2305267" lon="16.1868217"><ele>811.0</ele><time>2026-04-12T10:02:30.884Z</time></trkpt><trkpt lat="39.2304567" lon="16.1866767"><ele>811.0</ele><time>2026-04-12T10:02:31.884Z</time></trkpt><trkpt lat="39.2304267" lon="16.1865867"><ele>811.0</ele><time>2026-04-12T10:02:35.884Z</time></trkpt><trkpt lat="39.23032" lon="16.18638"><ele>811.0</ele><time>2026-04-12T10:02:36.884Z</time></trkpt><trkpt lat="39.2302567" lon="16.1863117"><ele>811.0</ele><time>2026-04-12T10:02:37.884Z</time></trkpt><trkpt lat="39.2301467" lon="16.1861817"><ele>810.9999999999999</ele><time>2026-04-12T10:02:39.884Z</time></trkpt><trkpt lat="39.2300883" lon="16.1860817"><ele>811.0</ele><time>2026-04-12T10:02:41.884Z</time></trkpt><trkpt lat="39.230085" lon="16.18596"><ele>811.0</ele><time>2026-04-12T10:02:42.884Z</time></trkpt><trkpt lat="39.2300383" lon="16.1858933"><ele>811.0</ele><time>2026-04-12T10:02:43.883Z</time></trkpt><trkpt lat="39.22995" lon="16.185935"><ele>810.9999999999999</ele><time>2026-04-12T10:02:46.883Z</time></trkpt><trkpt lat="39.2298883" lon="16.18591"><ele>811.0</ele><time>2026-04-12T10:02:47.884Z</time></trkpt><trkpt lat="39.2298" lon="16.18591"><ele>811.9999999999999</ele><time>2026-04-12T10:02:48.883Z</time></trkpt><trkpt lat="39.2297333" lon="16.1859217"><ele>813.0</ele><time>2026-04-12T10:02:49.884Z</time></trkpt><trkpt lat="39.22967" lon="16.1859417"><ele>814.0</ele><time>2026-04-12T10:02:50.884Z</time></trkpt><trkpt lat="39.2295883" lon="16.1860017"><ele>815.0</ele><time>2026-04-12T10:02:51.884Z</time></trkpt><trkpt lat="39.2294733" lon="16.1860233"><ele>815.9999999999999</ele><time>2026-04-12T10:02:53.884Z</time></trkpt><trkpt lat="39.229405" lon="16.18603"><ele>817.0</ele><time>2026-04-12T10:02:54.884Z</time></trkpt><trkpt lat="39.2293233" lon="16.1860567"><ele>817.0</ele><time>2026-04-12T10:02:55.884Z</time></trkpt><trkpt lat="39.22918" lon="16.1862017"><ele>817.0</ele><time>2026-04-12T10:02:56.884Z</time></trkpt><trkpt lat="39.2290767" lon="16.1862283"><ele>817.0</ele><time>2026-04-12T10:02:57.884Z</time></trkpt><trkpt lat="39.229" lon="16.186235"><ele>817.0</ele><time>2026-04-12T10:02:58.883Z</time></trkpt><trkpt lat="39.2289267" lon="16.186235"><ele>817.0</ele><time>2026-04-12T10:02:59.884Z</time></trkpt><trkpt lat="39.2288433" lon="16.186215"><ele>819.0</ele><time>2026-04-12T10:03:01.883Z</time></trkpt><trkpt lat="39.2287383" lon="16.18618"><ele>821.0</ele><time>2026-04-12T10:03:03.884Z</time></trkpt><trkpt lat="39.22864" lon="16.1861017"><ele>823.0</ele><time>2026-04-12T10:03:05.884Z</time></trkpt><trkpt lat="39.22858" lon="16.1860617"><ele>825.0</ele><time>2026-04-12T10:03:06.884Z</time></trkpt><trkpt lat="39.228475" lon="16.1859967"><ele>827.0</ele><time>2026-04-12T10:03:08.884Z</time></trkpt><trkpt lat="39.2283583" lon="16.1859383"><ele>827.0</ele><time>2026-04-12T10:03:10.884Z</time></trkpt><trkpt lat="39.228275" lon="16.185905"><ele>827.0</ele><time>2026-04-12T10:03:12.884Z</time></trkpt><trkpt lat="39.2281933" lon="16.1858567"><ele>827.0</ele><time>2026-04-12T10:03:14.884Z</time></trkpt><trkpt lat="39.2281167" lon="16.1858133"><ele>827.0</ele><time>2026-04-12T10:03:17.884Z</time></trkpt><trkpt lat="39.2281683" lon="16.1859317"><ele>827.0</ele><time>2026-04-12T10:03:21.883Z</time></trkpt><trkpt lat="39.2282283" lon="16.1861167"><ele>827.0</ele><time>2026-04-12T10:03:24.883Z</time></trkpt><trkpt lat="39.22824" lon="16.1862367"><ele>827.0</ele><time>2026-04-12T10:03:26.884Z</time></trkpt><trkpt lat="39.2282567" lon="16.1863433"><ele>827.0</ele><time>2026-04-12T10:03:28.883Z</time></trkpt><trkpt lat="39.2282867" lon="16.1864267"><ele>827.0</ele><time>2026-04-12T10:03:30.884Z</time></trkpt><trkpt lat="39.228335" lon="16.186535"><ele>827.0</ele><time>2026-04-12T10:03:33.884Z</time></trkpt><trkpt lat="39.2283933" lon="16.186755"><ele>845.5</ele><time>2026-04-12T10:03:35.884Z</time></trkpt><trkpt lat="39.2285617" lon="16.1868983"><ele>864.0</ele><time>2026-04-12T10:03:36.884Z</time></trkpt><trkpt lat="39.2288117" lon="16.1869533"><ele>864.0</ele><time>2026-04-12T10:03:37.884Z</time></trkpt><trkpt lat="39.22896" lon="16.1869517"><ele>864.0000000000001</ele><time>2026-04-12T10:03:38.884Z</time></trkpt><trkpt lat="39.22909" lon="16.18697"><ele>864.0000000000001</ele><time>2026-04-12T10:03:39.884Z</time></trkpt><trkpt lat="39.2291667" lon="16.1870117"><ele>864.0</ele><time>2026-04-12T10:03:40.884Z</time></trkpt><trkpt lat="39.2292417" lon="16.1870467"><ele>864.0</ele><time>2026-04-12T10:03:41.884Z</time></trkpt><trkpt lat="39.2293033" lon="16.1870667"><ele>859.0</ele><time>2026-04-12T10:03:42.884Z</time></trkpt><trkpt lat="39.229525" lon="16.1871183"><ele>854.0</ele><time>2026-04-12T10:03:43.884Z</time></trkpt><trkpt lat="39.2297283" lon="16.1871017"><ele>849.0</ele><time>2026-04-12T10:03:44.884Z</time></trkpt><trkpt lat="39.229935" lon="16.1869767"><ele>847.4000000000001</ele><time>2026-04-12T10:03:45.883Z</time></trkpt><trkpt lat="39.22992" lon="16.1870867"><ele>845.8</ele><time>2026-04-12T10:03:47.884Z</time></trkpt><trkpt lat="39.2299683" lon="16.1871883"><ele>844.2</ele><time>2026-04-12T10:03:51.883Z</time></trkpt><trkpt lat="39.2300133" lon="16.1870233"><ele>842.5999999999999</ele><time>2026-04-12T10:03:59.884Z</time></trkpt><trkpt lat="39.2299067" lon="16.1870467"><ele>841.0</ele><time>2026-04-12T10:04:02.884Z</time></trkpt><trkpt lat="39.22981" lon="16.1870217"><ele>842.5999999999999</ele><time>2026-04-12T10:04:04.883Z</time></trkpt><trkpt lat="39.2297317" lon="16.1870617"><ele>844.2</ele><time>2026-04-12T10:04:05.883Z</time></trkpt><trkpt lat="39.229665" lon="16.1871017"><ele>845.8</ele><time>2026-04-12T10:04:06.884Z</time></trkpt><trkpt lat="39.22959" lon="16.18715"><ele>847.4000000000001</ele><time>2026-04-12T10:04:07.883Z</time></trkpt><trkpt lat="39.2294783" lon="16.18719"><ele>849.0</ele><time>2026-04-12T10:04:09.884Z</time></trkpt><trkpt lat="39.229355" lon="16.1872467"><ele>849.0</ele><time>2026-04-12T10:04:11.884Z</time></trkpt><trkpt lat="39.2292417" lon="16.1871983"><ele>849.0</ele><time>2026-04-12T10:04:13.884Z</time></trkpt><trkpt lat="39.2291733" lon="16.1872133"><ele>849.0</ele><time>2026-04-12T10:04:15.884Z</time></trkpt><trkpt lat="39.2291267" lon="16.187285"><ele>849.0</ele><time>2026-04-12T10:04:18.883Z</time></trkpt><trkpt lat="39.2291467" lon="16.187385"><ele>849.0</ele><time>2026-04-12T10:04:19.884Z</time></trkpt><trkpt lat="39.2291717" lon="16.1875383"><ele>854.3333333333334</ele><time>2026-04-12T10:04:21.884Z</time></trkpt><trkpt lat="39.2292017" lon="16.1876217"><ele>859.6666666666667</ele><time>2026-04-12T10:04:22.884Z</time></trkpt><trkpt lat="39.22922" lon="16.1877"><ele>865.0</ele><time>2026-04-12T10:04:23.884Z</time></trkpt><trkpt lat="39.2292533" lon="16.187785"><ele>870.3333333333334</ele><time>2026-04-12T10:04:24.884Z</time></trkpt><trkpt lat="39.2293383" lon="16.1879183"><ele>875.6666666666667</ele><time>2026-04-12T10:04:26.884Z</time></trkpt><trkpt lat="39.2293733" lon="16.188"><ele>881.0</ele><time>2026-04-12T10:04:27.884Z</time></trkpt><trkpt lat="39.2294333" lon="16.1880717"><ele>881.0</ele><time>2026-04-12T10:04:28.884Z</time></trkpt><trkpt lat="39.2294717" lon="16.18814"><ele>880.9999999999999</ele><time>2026-04-12T10:04:29.884Z</time></trkpt><trkpt lat="39.2296567" lon="16.188175"><ele>880.9999999999999</ele><time>2026-04-12T10:04:30.884Z</time></trkpt><trkpt lat="39.2296933" lon="16.1882517"><ele>881.0</ele><time>2026-04-12T10:04:32.884Z</time></trkpt><trkpt lat="39.2297267" lon="16.18818"><ele>881.0</ele><time>2026-04-12T10:04:34.884Z</time></trkpt><trkpt lat="39.22961" lon="16.188045"><ele>881.0</ele><time>2026-04-12T10:04:36.884Z</time></trkpt><trkpt lat="39.229485" lon="16.1880517"><ele>880.9999999999999</ele><time>2026-04-12T10:04:38.883Z</time></trkpt><trkpt lat="39.2294267" lon="16.1881217"><ele>880.9999999999999</ele><time>2026-04-12T10:04:40.884Z</time></trkpt><trkpt lat="39.2293783" lon="16.188245"><ele>881.0</ele><time>2026-04-12T10:04:42.884Z</time></trkpt><trkpt lat="39.2293217" lon="16.1883717"><ele>881.0</ele><time>2026-04-12T10:04:44.884Z</time></trkpt><trkpt lat="39.2293133" lon="16.1885267"><ele>884.4</ele><time>2026-04-12T10:04:46.883Z</time></trkpt><trkpt lat="39.229285" lon="16.1886467"><ele>887.8</ele><time>2026-04-12T10:04:48.884Z</time></trkpt><trkpt lat="39.229295" lon="16.1887533"><ele>891.1999999999999</ele><time>2026-04-12T10:04:50.883Z</time></trkpt><trkpt lat="39.2293583" lon="16.1888433"><ele>894.5999999999999</ele><time>2026-04-12T10:04:51.884Z</time></trkpt><trkpt lat="39.2294167" lon="16.1889267"><ele>898.0</ele><time>2026-04-12T10:04:52.884Z</time></trkpt><trkpt lat="39.22949" lon="16.1890183"><ele>899.8</ele><time>2026-04-12T10:04:53.883Z</time></trkpt><trkpt lat="39.2295667" lon="16.1891033"><ele>901.5999999999999</ele><time>2026-04-12T10:04:54.884Z</time></trkpt><trkpt lat="39.22962" lon="16.18915"><ele>903.4000000000001</ele><time>2026-04-12T10:04:55.884Z</time></trkpt><trkpt lat="39.2297017" lon="16.189225"><ele>905.2</ele><time>2026-04-12T10:04:56.884Z</time></trkpt><trkpt lat="39.2298033" lon="16.1893033"><ele>907.0</ele><time>2026-04-12T10:04:57.883Z</time></trkpt><trkpt lat="39.2298483" lon="16.189375"><ele>907.0</ele><time>2026-04-12T10:04:58.884Z</time></trkpt><trkpt lat="39.2299083" lon="16.1894617"><ele>907.0</ele><time>2026-04-12T10:04:59.883Z</time></trkpt><trkpt lat="39.22994" lon="16.1895517"><ele>907.0</ele><time>2026-04-12T10:05:00.883Z</time></trkpt><trkpt lat="39.2300117" lon="16.1896717"><ele>907.0</ele><time>2026-04-12T10:05:01.884Z</time></trkpt><trkpt lat="39.2301517" lon="16.1898133"><ele>911.5</ele><time>2026-04-12T10:05:02.883Z</time></trkpt><trkpt lat="39.2303767" lon="16.18996"><ele>916.0</ele><time>2026-04-12T10:05:03.883Z</time></trkpt><trkpt lat="39.2304417" lon="16.19004"><ele>920.5</ele><time>2026-04-12T10:05:04.884Z</time></trkpt><trkpt lat="39.2304983" lon="16.190145"><ele>925.0</ele><time>2026-04-12T10:05:06.884Z</time></trkpt><trkpt lat="39.2305733" lon="16.190275"><ele>925.0</ele><time>2026-04-12T10:05:08.883Z</time></trkpt><trkpt lat="39.230615" lon="16.1903833"><ele>925.0</ele><time>2026-04-12T10:05:10.884Z</time></trkpt><trkpt lat="39.2306533" lon="16.1904667"><ele>925.0</ele><time>2026-04-12T10:05:12.884Z</time></trkpt><trkpt lat="39.2307217" lon="16.1905417"><ele>925.0</ele><time>2026-04-12T10:05:14.883Z</time></trkpt><trkpt lat="39.230715" lon="16.190645"><ele>925.0</ele><time>2026-04-12T10:05:18.884Z</time></trkpt><trkpt lat="39.23054" lon="16.1907183"><ele>926.4999999999999</ele><time>2026-04-12T10:05:20.884Z</time></trkpt><trkpt lat="39.2304717" lon="16.190775"><ele>928.0</ele><time>2026-04-12T10:05:21.883Z</time></trkpt><trkpt lat="39.2304067" lon="16.1908117"><ele>929.5</ele><time>2026-04-12T10:05:22.884Z</time></trkpt><trkpt lat="39.230345" lon="16.1909133"><ele>931.0</ele><time>2026-04-12T10:05:24.883Z</time></trkpt><trkpt lat="39.2302367" lon="16.19095"><ele>932.4999999999999</ele><time>2026-04-12T10:05:26.883Z</time></trkpt><trkpt lat="39.23017" lon="16.19099"><ele>934.0</ele><time>2026-04-12T10:05:28.884Z</time></trkpt><trkpt lat="39.230205" lon="16.191115"><ele>934.0</ele><time>2026-04-12T10:05:31.884Z</time></trkpt><trkpt lat="39.2302733" lon="16.1912167"><ele>934.0</ele><time>2026-04-12T10:05:33.884Z</time></trkpt><trkpt lat="39.2303317" lon="16.191275"><ele>934.0</ele><time>2026-04-12T10:05:34.883Z</time></trkpt><trkpt lat="39.2304067" lon="16.191305"><ele>934.0</ele><time>2026-04-12T10:05:35.884Z</time></trkpt><trkpt lat="39.2306133" lon="16.191395"><ele>930.3333333333333</ele><time>2026-04-12T10:05:36.884Z</time></trkpt><trkpt lat="39.2306917" lon="16.1914683"><ele>926.6666666666666</ele><time>2026-04-12T10:05:38.884Z</time></trkpt><trkpt lat="39.2307433" lon="16.1915283"><ele>923.0</ele><time>2026-04-12T10:05:39.884Z</time></trkpt><trkpt lat="39.2307883" lon="16.1915917"><ele>919.3333333333333</ele><time>2026-04-12T10:05:40.883Z</time></trkpt><trkpt lat="39.2308367" lon="16.1916667"><ele>915.6666666666666</ele><time>2026-04-12T10:05:41.884Z</time></trkpt><trkpt lat="39.2309083" lon="16.1917383"><ele>912.0</ele><time>2026-04-12T10:05:42.884Z</time></trkpt><trkpt lat="39.2309633" lon="16.1918017"><ele>912.0</ele><time>2026-04-12T10:05:43.883Z</time></trkpt><trkpt lat="39.2310317" lon="16.1918717"><ele>912.0</ele><time>2026-04-12T10:05:44.883Z</time></trkpt><trkpt lat="39.2311133" lon="16.192"><ele>912.0</ele><time>2026-04-12T10:05:46.884Z</time></trkpt><trkpt lat="39.23116" lon="16.19207"><ele>912.0</ele><time>2026-04-12T10:05:47.883Z</time></trkpt><trkpt lat="39.2312067" lon="16.1921633"><ele>912.0</ele><time>2026-04-12T10:05:49.884Z</time></trkpt><trkpt lat="39.2311717" lon="16.1922733"><ele>912.0</ele><time>2026-04-12T10:05:53.883Z</time></trkpt><trkpt lat="39.2310517" lon="16.1923033"><ele>912.0</ele><time>2026-04-12T10:05:55.884Z</time></trkpt><trkpt lat="39.2309667" lon="16.1923067"><ele>912.0</ele><time>2026-04-12T10:05:56.884Z</time></trkpt><trkpt lat="39.2308833" lon="16.1922933"><ele>912.0</ele><time>2026-04-12T10:05:57.884Z</time></trkpt><trkpt lat="39.2307933" lon="16.19227"><ele>912.0</ele><time>2026-04-12T10:05:58.883Z</time></trkpt><trkpt lat="39.2307033" lon="16.1922817"><ele>914.6</ele><time>2026-04-12T10:05:59.884Z</time></trkpt><trkpt lat="39.230615" lon="16.1923117"><ele>917.2</ele><time>2026-04-12T10:06:00.884Z</time></trkpt><trkpt lat="39.2305383" lon="16.1923567"><ele>919.8</ele><time>2026-04-12T10:06:01.884Z</time></trkpt><trkpt lat="39.2304233" lon="16.1923967"><ele>922.4</ele><time>2026-04-12T10:06:02.884Z</time></trkpt><trkpt lat="39.2303317" lon="16.192445"><ele>925.0</ele><time>2026-04-12T10:06:03.884Z</time></trkpt><trkpt lat="39.230245" lon="16.192485"><ele>924.9999999999999</ele><time>2026-04-12T10:06:04.883Z</time></trkpt><trkpt lat="39.230165" lon="16.1925217"><ele>925.0</ele><time>2026-04-12T10:06:05.884Z</time></trkpt><trkpt lat="39.23007" lon="16.1925117"><ele>925.0</ele><time>2026-04-12T10:06:06.884Z</time></trkpt><trkpt lat="39.23" lon="16.1924883"><ele>925.0</ele><time>2026-04-12T10:06:07.884Z</time></trkpt><trkpt lat="39.2299183" lon="16.19247"><ele>924.9999999999999</ele><time>2026-04-12T10:06:08.884Z</time></trkpt><trkpt lat="39.2298517" lon="16.19245"><ele>925.0</ele><time>2026-04-12T10:06:09.884Z</time></trkpt><trkpt lat="39.229765" lon="16.1924383"><ele>921.0</ele><time>2026-04-12T10:06:10.884Z</time></trkpt><trkpt lat="39.2296767" lon="16.1924333"><ele>917.0</ele><time>2026-04-12T10:06:11.884Z</time></trkpt><trkpt lat="39.22959" lon="16.192425"><ele>913.0</ele><time>2026-04-12T10:06:12.884Z</time></trkpt><trkpt lat="39.2295217" lon="16.1924083"><ele>909.0</ele><time>2026-04-12T10:06:13.884Z</time></trkpt><trkpt lat="39.2293883" lon="16.1923767"><ele>905.0</ele><time>2026-04-12T10:06:15.884Z</time></trkpt><trkpt lat="39.2292367" lon="16.1923533"><ele>905.5000000000001</ele><time>2026-04-12T10:06:17.883Z</time></trkpt><trkpt lat="39.2291833" lon="16.192305"><ele>906.0</ele><time>2026-04-12T10:06:18.884Z</time></trkpt><trkpt lat="39.2291133" lon="16.1923033"><ele>906.5</ele><time>2026-04-12T10:06:19.884Z</time></trkpt><trkpt lat="39.2290383" lon="16.1922867"><ele>907.0</ele><time>2026-04-12T10:06:20.883Z</time></trkpt><trkpt lat="39.2289567" lon="16.1922617"><ele>907.5000000000001</ele><time>2026-04-12T10:06:21.883Z</time></trkpt><trkpt lat="39.22884" lon="16.192225"><ele>908.0</ele><time>2026-04-12T10:06:23.884Z</time></trkpt><trkpt lat="39.2287667" lon="16.19217"><ele>908.0</ele><time>2026-04-12T10:06:25.884Z</time></trkpt><trkpt lat="39.22796" lon="16.1911383"><ele>908.0</ele><time>2026-04-12T10:06:31.883Z</time></trkpt><trkpt lat="39.227845" lon="16.1909117"><ele>908.0</ele><time>2026-04-12T10:06:32.884Z</time></trkpt><trkpt lat="39.22773" lon="16.19077"><ele>908.0</ele><time>2026-04-12T10:06:33.884Z</time></trkpt><trkpt lat="39.2276517" lon="16.1906533"><ele>909.6666666666667</ele><time>2026-04-12T10:06:34.884Z</time></trkpt><trkpt lat="39.22752" lon="16.1904583"><ele>911.3333333333333</ele><time>2026-04-12T10:06:35.884Z</time></trkpt><trkpt lat="39.2273917" lon="16.190385"><ele>913.0</ele><time>2026-04-12T10:06:36.883Z</time></trkpt><trkpt lat="39.2272917" lon="16.190305"><ele>913.0</ele><time>2026-04-12T10:06:37.883Z</time></trkpt><trkpt lat="39.2272" lon="16.1902417"><ele>913.0</ele><time>2026-04-12T10:06:38.884Z</time></trkpt><trkpt lat="39.227105" lon="16.19019"><ele>913.0</ele><time>2026-04-12T10:06:39.884Z</time></trkpt><trkpt lat="39.2269933" lon="16.1901433"><ele>913.0</ele><time>2026-04-12T10:06:40.884Z</time></trkpt><trkpt lat="39.22688" lon="16.190095"><ele>913.0</ele><time>2026-04-12T10:06:41.883Z</time></trkpt><trkpt lat="39.2268" lon="16.1900483"><ele>913.0</ele><time>2026-04-12T10:06:42.884Z</time></trkpt><trkpt lat="39.2267133" lon="16.19001"><ele>913.0</ele><time>2026-04-12T10:06:43.884Z</time></trkpt><trkpt lat="39.22664" lon="16.1899633"><ele>913.0</ele><time>2026-04-12T10:06:44.884Z</time></trkpt><trkpt lat="39.2265267" lon="16.1899"><ele>913.0</ele><time>2026-04-12T10:06:46.884Z</time></trkpt><trkpt lat="39.2264417" lon="16.18989"><ele>913.0</ele><time>2026-04-12T10:06:47.883Z</time></trkpt><trkpt lat="39.2263667" lon="16.1898733"><ele>913.8</ele><time>2026-04-12T10:06:48.884Z</time></trkpt><trkpt lat="39.2263617" lon="16.1897617"><ele>914.5999999999999</ele><time>2026-04-12T10:06:50.884Z</time></trkpt><trkpt lat="39.2262933" lon="16.18982"><ele>915.4000000000001</ele><time>2026-04-12T10:06:52.884Z</time></trkpt><trkpt lat="39.2261783" lon="16.1898767"><ele>916.2</ele><time>2026-04-12T10:06:54.884Z</time></trkpt><trkpt lat="39.2260767" lon="16.1898583"><ele>917.0</ele><time>2026-04-12T10:06:55.884Z</time></trkpt><trkpt lat="39.2259983" lon="16.1898833"><ele>917.6</ele><time>2026-04-12T10:06:56.883Z</time></trkpt><trkpt lat="39.2259117" lon="16.1899083"><ele>918.2</ele><time>2026-04-12T10:06:57.883Z</time></trkpt><trkpt lat="39.2258" lon="16.1899317"><ele>918.8</ele><time>2026-04-12T10:06:58.883Z</time></trkpt><trkpt lat="39.2257017" lon="16.189955"><ele>919.4</ele><time>2026-04-12T10:06:59.884Z</time></trkpt><trkpt lat="39.2256" lon="16.1899633"><ele>920.0</ele><time>2026-04-12T10:07:00.884Z</time></trkpt><trkpt lat="39.2254833" lon="16.1899817"><ele>921.2</ele><time>2026-04-12T10:07:01.883Z</time></trkpt><trkpt lat="39.2254" lon="16.18999"><ele>922.4</ele><time>2026-04-12T10:07:02.884Z</time></trkpt><trkpt lat="39.2253133" lon="16.1899867"><ele>923.5999999999999</ele><time>2026-04-12T10:07:03.883Z</time></trkpt><trkpt lat="39.22522" lon="16.18997"><ele>924.8</ele><time>2026-04-12T10:07:04.884Z</time></trkpt><trkpt lat="39.2250667" lon="16.18995"><ele>926.0</ele><time>2026-04-12T10:07:06.884Z</time></trkpt><trkpt lat="39.2249833" lon="16.1899367"><ele>926.0000000000001</ele><time>2026-04-12T10:07:07.884Z</time></trkpt><trkpt lat="39.2249167" lon="16.1899467"><ele>926.0</ele><time>2026-04-12T10:07:08.884Z</time></trkpt><trkpt lat="39.22482" lon="16.1899517"><ele>926.0</ele><time>2026-04-12T10:07:10.884Z</time></trkpt><trkpt lat="39.22475" lon="16.1899367"><ele>926.0</ele><time>2026-04-12T10:07:11.884Z</time></trkpt><trkpt lat="39.2246517" lon="16.1898767"><ele>926.0000000000001</ele><time>2026-04-12T10:07:12.884Z</time></trkpt><trkpt lat="39.2245617" lon="16.1898383"><ele>926.0</ele><time>2026-04-12T10:07:13.884Z</time></trkpt><trkpt lat="39.22448" lon="16.1897983"><ele>933.0</ele><time>2026-04-12T10:07:14.884Z</time></trkpt><trkpt lat="39.2243267" lon="16.189705"><ele>940.0</ele><time>2026-04-12T10:07:15.884Z</time></trkpt><trkpt lat="39.22423" lon="16.1896383"><ele>947.0</ele><time>2026-04-12T10:07:16.883Z</time></trkpt><trkpt lat="39.2241317" lon="16.189585"><ele>954.0</ele><time>2026-04-12T10:07:17.884Z</time></trkpt><trkpt lat="39.224035" lon="16.18954"><ele>955.0</ele><time>2026-04-12T10:07:18.884Z</time></trkpt><trkpt lat="39.2239467" lon="16.1895217"><ele>956.0</ele><time>2026-04-12T10:07:19.883Z</time></trkpt><trkpt lat="39.2238767" lon="16.1895617"><ele>957.0</ele><time>2026-04-12T10:07:20.884Z</time></trkpt><trkpt lat="39.2238217" lon="16.1896017"><ele>958.0</ele><time>2026-04-12T10:07:21.884Z</time></trkpt><trkpt lat="39.223785" lon="16.18973"><ele>959.0</ele><time>2026-04-12T10:07:23.883Z</time></trkpt><trkpt lat="39.22371" lon="16.1897467"><ele>960.0</ele><time>2026-04-12T10:07:24.883Z</time></trkpt><trkpt lat="39.2236417" lon="16.1898717"><ele>960.0</ele><time>2026-04-12T10:07:26.884Z</time></trkpt><trkpt lat="39.223605" lon="16.1899567"><ele>960.0</ele><time>2026-04-12T10:07:27.884Z</time></trkpt><trkpt lat="39.2235333" lon="16.1900917"><ele>960.0</ele><time>2026-04-12T10:07:29.884Z</time></trkpt><trkpt lat="39.2235217" lon="16.19018"><ele>960.0</ele><time>2026-04-12T10:07:30.884Z</time></trkpt><trkpt lat="39.2235333" lon="16.1902933"><ele>960.0</ele><time>2026-04-12T10:07:31.884Z</time></trkpt><trkpt lat="39.2235567" lon="16.1904"><ele>960.0</ele><time>2026-04-12T10:07:32.883Z</time></trkpt><trkpt lat="39.22358" lon="16.1905217"><ele>960.0</ele><time>2026-04-12T10:07:33.884Z</time></trkpt><trkpt lat="39.2235883" lon="16.190625"><ele>960.0</ele><time>2026-04-12T10:07:34.884Z</time></trkpt><trkpt lat="39.223595" lon="16.1907283"><ele>960.0</ele><time>2026-04-12T10:07:35.884Z</time></trkpt><trkpt lat="39.2235917" lon="16.190825"><ele>960.0</ele><time>2026-04-12T10:07:36.884Z</time></trkpt><trkpt lat="39.22356" lon="16.19098"><ele>960.0</ele><time>2026-04-12T10:07:38.884Z</time></trkpt><trkpt lat="39.2235117" lon="16.1910517"><ele>960.0</ele><time>2026-04-12T10:07:39.884Z</time></trkpt><trkpt lat="39.223445" lon="16.1911117"><ele>960.6666666666666</ele><time>2026-04-12T10:07:40.884Z</time></trkpt><trkpt lat="39.22339" lon="16.1911783"><ele>961.3333333333333</ele><time>2026-04-12T10:07:41.884Z</time></trkpt><trkpt lat="39.2233417" lon="16.1912467"><ele>962.0</ele><time>2026-04-12T10:07:42.883Z</time></trkpt><trkpt lat="39.22329" lon="16.1913117"><ele>962.6666666666666</ele><time>2026-04-12T10:07:43.883Z</time></trkpt><trkpt lat="39.2232367" lon="16.1913667"><ele>963.3333333333333</ele><time>2026-04-12T10:07:44.884Z</time></trkpt><trkpt lat="39.2230967" lon="16.1913383"><ele>964.0</ele><time>2026-04-12T10:07:45.884Z</time></trkpt><trkpt lat="39.222995" lon="16.1913483"><ele>963.9999999999999</ele><time>2026-04-12T10:07:46.884Z</time></trkpt><trkpt lat="39.2229267" lon="16.1913567"><ele>964.0</ele><time>2026-04-12T10:07:47.884Z</time></trkpt><trkpt lat="39.22282" lon="16.191395"><ele>964.0</ele><time>2026-04-12T10:07:49.884Z</time></trkpt><trkpt lat="39.2227017" lon="16.1914567"><ele>964.0</ele><time>2026-04-12T10:07:51.883Z</time></trkpt><trkpt lat="39.2226433" lon="16.1914983"><ele>963.9999999999999</ele><time>2026-04-12T10:07:52.883Z</time></trkpt><trkpt lat="39.222575" lon="16.19153"><ele>964.0</ele><time>2026-04-12T10:07:53.884Z</time></trkpt><trkpt lat="39.2224883" lon="16.1915383"><ele>964.6</ele><time>2026-04-12T10:07:55.884Z</time></trkpt><trkpt lat="39.22241" lon="16.19156"><ele>965.2</ele><time>2026-04-12T10:08:14.883Z</time></trkpt><trkpt lat="39.2223233" lon="16.1916017"><ele>965.8000000000001</ele><time>2026-04-12T10:08:16.884Z</time></trkpt><trkpt lat="39.2222233" lon="16.1916733"><ele>966.4000000000001</ele><time>2026-04-12T10:08:18.884Z</time></trkpt><trkpt lat="39.22211" lon="16.1917117"><ele>967.0</ele><time>2026-04-12T10:08:19.884Z</time></trkpt><trkpt lat="39.2220217" lon="16.1917617"><ele>967.0</ele><time>2026-04-12T10:08:20.884Z</time></trkpt><trkpt lat="39.2219433" lon="16.1918033"><ele>967.0</ele><time>2026-04-12T10:08:21.884Z</time></trkpt><trkpt lat="39.2218733" lon="16.1918367"><ele>967.0</ele><time>2026-04-12T10:08:22.884Z</time></trkpt><trkpt lat="39.2217867" lon="16.191855"><ele>967.0</ele><time>2026-04-12T10:08:23.884Z</time></trkpt><trkpt lat="39.221655" lon="16.19186"><ele>967.0</ele><time>2026-04-12T10:08:24.884Z</time></trkpt><trkpt lat="39.2215533" lon="16.191845"><ele>969.25</ele><time>2026-04-12T10:08:25.883Z</time></trkpt><trkpt lat="39.2214033" lon="16.1919283"><ele>971.5</ele><time>2026-04-12T10:08:26.884Z</time></trkpt><trkpt lat="39.2212933" lon="16.19194"><ele>973.75</ele><time>2026-04-12T10:08:27.883Z</time></trkpt><trkpt lat="39.22121" lon="16.1919567"><ele>976.0</ele><time>2026-04-12T10:08:28.884Z</time></trkpt><trkpt lat="39.2211183" lon="16.191975"><ele>975.9999999999999</ele><time>2026-04-12T10:08:29.884Z</time></trkpt><trkpt lat="39.22102" lon="16.1919883"><ele>976.0</ele><time>2026-04-12T10:08:30.884Z</time></trkpt><trkpt lat="39.2209267" lon="16.1920017"><ele>976.0</ele><time>2026-04-12T10:08:31.884Z</time></trkpt><trkpt lat="39.2208567" lon="16.1920267"><ele>976.0</ele><time>2026-04-12T10:08:32.884Z</time></trkpt><trkpt lat="39.2207733" lon="16.1920117"><ele>975.9999999999999</ele><time>2026-04-12T10:08:33.883Z</time></trkpt><trkpt lat="39.2207033" lon="16.1919967"><ele>976.0</ele><time>2026-04-12T10:08:35.883Z</time></trkpt><trkpt lat="39.220615" lon="16.1919"><ele>975.4</ele><time>2026-04-12T10:08:37.883Z</time></trkpt><trkpt lat="39.2205667" lon="16.1918233"><ele>974.8</ele><time>2026-04-12T10:08:38.884Z</time></trkpt><trkpt lat="39.2205167" lon="16.1917233"><ele>974.1999999999999</ele><time>2026-04-12T10:08:39.884Z</time></trkpt><trkpt lat="39.2204767" lon="16.191575"><ele>973.5999999999999</ele><time>2026-04-12T10:08:40.884Z</time></trkpt><trkpt lat="39.220435" lon="16.1914133"><ele>973.0</ele><time>2026-04-12T10:08:41.883Z</time></trkpt><trkpt lat="39.220385" lon="16.1912983"><ele>976.4999999999999</ele><time>2026-04-12T10:08:42.884Z</time></trkpt><trkpt lat="39.22035" lon="16.1912017"><ele>980.0</ele><time>2026-04-12T10:08:43.884Z</time></trkpt><trkpt lat="39.22031" lon="16.1911367"><ele>983.5</ele><time>2026-04-12T10:08:45.884Z</time></trkpt><trkpt lat="39.220245" lon="16.19109"><ele>987.0</ele><time>2026-04-12T10:08:47.884Z</time></trkpt><trkpt lat="39.220145" lon="16.1910967"><ele>990.4999999999999</ele><time>2026-04-12T10:08:48.884Z</time></trkpt><trkpt lat="39.2200217" lon="16.19111"><ele>994.0</ele><time>2026-04-12T10:08:49.883Z</time></trkpt><trkpt lat="39.2198833" lon="16.191095"><ele>993.4000000000001</ele><time>2026-04-12T10:08:50.884Z</time></trkpt><trkpt lat="39.219745" lon="16.1910517"><ele>992.8000000000001</ele><time>2026-04-12T10:08:51.884Z</time></trkpt><trkpt lat="39.2196433" lon="16.191035"><ele>992.1999999999999</ele><time>2026-04-12T10:08:52.884Z</time></trkpt><trkpt lat="39.2195667" lon="16.191015"><ele>991.5999999999999</ele><time>2026-04-12T10:08:53.883Z</time></trkpt><trkpt lat="39.2194883" lon="16.19097"><ele>991.0</ele><time>2026-04-12T10:08:54.884Z</time></trkpt><trkpt lat="39.2194067" lon="16.190915"><ele>991.0</ele><time>2026-04-12T10:08:55.884Z</time></trkpt><trkpt lat="39.2193483" lon="16.1908633"><ele>990.9999999999999</ele><time>2026-04-12T10:08:56.884Z</time></trkpt><trkpt lat="39.21927" lon="16.1907367"><ele>990.9999999999999</ele><time>2026-04-12T10:08:58.884Z</time></trkpt><trkpt lat="39.2192783" lon="16.1906233"><ele>991.0</ele><time>2026-04-12T10:08:59.883Z</time></trkpt><trkpt lat="39.2192783" lon="16.19049"><ele>991.0</ele><time>2026-04-12T10:09:00.883Z</time></trkpt><trkpt lat="39.2192733" lon="16.1903883"><ele>992.3333333333333</ele><time>2026-04-12T10:09:01.884Z</time></trkpt><trkpt lat="39.2192583" lon="16.1902883"><ele>993.6666666666666</ele><time>2026-04-12T10:09:02.884Z</time></trkpt><trkpt lat="39.2192383" lon="16.1902067"><ele>995.0</ele><time>2026-04-12T10:09:03.884Z</time></trkpt><trkpt lat="39.2192017" lon="16.1901167"><ele>996.3333333333333</ele><time>2026-04-12T10:09:04.884Z</time></trkpt><trkpt lat="39.21918" lon="16.19004"><ele>997.6666666666666</ele><time>2026-04-12T10:09:05.884Z</time></trkpt><trkpt lat="39.2191083" lon="16.1899167"><ele>999.0</ele><time>2026-04-12T10:09:07.884Z</time></trkpt><trkpt lat="39.2190733" lon="16.189845"><ele>998.8000000000001</ele><time>2026-04-12T10:09:08.883Z</time></trkpt><trkpt lat="39.2190167" lon="16.1897517"><ele>998.6000000000001</ele><time>2026-04-12T10:09:10.884Z</time></trkpt><trkpt lat="39.2189683" lon="16.1896883"><ele>998.4</ele><time>2026-04-12T10:09:11.884Z</time></trkpt><trkpt lat="39.2188967" lon="16.1896517"><ele>998.2</ele><time>2026-04-12T10:09:12.884Z</time></trkpt><trkpt lat="39.2187933" lon="16.1896033"><ele>998.0</ele><time>2026-04-12T10:09:13.884Z</time></trkpt><trkpt lat="39.2186967" lon="16.1895433"><ele>998.0</ele><time>2026-04-12T10:09:14.884Z</time></trkpt><trkpt lat="39.2185983" lon="16.1894717"><ele>998.0</ele><time>2026-04-12T10:09:15.884Z</time></trkpt><trkpt lat="39.2184683" lon="16.1894283"><ele>998.0</ele><time>2026-04-12T10:09:16.884Z</time></trkpt><trkpt lat="39.2183433" lon="16.1893917"><ele>998.0</ele><time>2026-04-12T10:09:17.884Z</time></trkpt><trkpt lat="39.2182467" lon="16.1893567"><ele>998.0000000000001</ele><time>2026-04-12T10:09:18.884Z</time></trkpt><trkpt lat="39.2181583" lon="16.1893433"><ele>998.0</ele><time>2026-04-12T10:09:19.884Z</time></trkpt><trkpt lat="39.2180883" lon="16.1893483"><ele>998.0</ele><time>2026-04-12T10:09:20.884Z</time></trkpt><trkpt lat="39.2179933" lon="16.1893667"><ele>998.0</ele><time>2026-04-12T10:09:22.884Z</time></trkpt><trkpt lat="39.2178817" lon="16.1893833"><ele>998.0000000000001</ele><time>2026-04-12T10:09:24.883Z</time></trkpt><trkpt lat="39.217815" lon="16.189385"><ele>998.0</ele><time>2026-04-12T10:09:25.883Z</time></trkpt><trkpt lat="39.2177267" lon="16.1894"><ele>997.7142857142858</ele><time>2026-04-12T10:09:26.884Z</time></trkpt><trkpt lat="39.2176517" lon="16.18941"><ele>997.4285714285714</ele><time>2026-04-12T10:09:27.884Z</time></trkpt><trkpt lat="39.2175867" lon="16.1894367"><ele>997.1428571428571</ele><time>2026-04-12T10:09:28.884Z</time></trkpt><trkpt lat="39.2175167" lon="16.1894783"><ele>996.8571428571429</ele><time>2026-04-12T10:09:29.884Z</time></trkpt><trkpt lat="39.2174517" lon="16.1895067"><ele>996.5714285714284</ele><time>2026-04-12T10:09:30.884Z</time></trkpt><trkpt lat="39.2173933" lon="16.1895483"><ele>996.2857142857142</ele><time>2026-04-12T10:09:31.884Z</time></trkpt><trkpt lat="39.2173433" lon="16.1896267"><ele>996.0</ele><time>2026-04-12T10:09:33.883Z</time></trkpt><trkpt lat="39.217305" lon="16.189745"><ele>997.8</ele><time>2026-04-12T10:09:35.884Z</time></trkpt><trkpt lat="39.2172633" lon="16.189875"><ele>999.5999999999999</ele><time>2026-04-12T10:09:37.883Z</time></trkpt><trkpt lat="39.21719" lon="16.189965"><ele>1001.4</ele><time>2026-04-12T10:09:39.884Z</time></trkpt><trkpt lat="39.2170767" lon="16.190065"><ele>1003.2</ele><time>2026-04-12T10:09:41.884Z</time></trkpt><trkpt lat="39.2170117" lon="16.19011"><ele>1005.0</ele><time>2026-04-12T10:09:42.883Z</time></trkpt><trkpt lat="39.216945" lon="16.1901617"><ele>1005.0</ele><time>2026-04-12T10:09:43.884Z</time></trkpt><trkpt lat="39.2168833" lon="16.190195"><ele>1005.0</ele><time>2026-04-12T10:09:44.883Z</time></trkpt><trkpt lat="39.2168167" lon="16.190205"><ele>1005.0</ele><time>2026-04-12T10:09:45.884Z</time></trkpt><trkpt lat="39.216695" lon="16.1901783"><ele>1005.0</ele><time>2026-04-12T10:09:46.884Z</time></trkpt><trkpt lat="39.2166317" lon="16.1901817"><ele>1005.0</ele><time>2026-04-12T10:09:47.884Z</time></trkpt><trkpt lat="39.2165667" lon="16.1901783"><ele>1005.0</ele><time>2026-04-12T10:09:48.884Z</time></trkpt><trkpt lat="39.2164383" lon="16.1901767"><ele>1004.2</ele><time>2026-04-12T10:09:50.884Z</time></trkpt><trkpt lat="39.2163533" lon="16.1901933"><ele>1003.4</ele><time>2026-04-12T10:09:51.884Z</time></trkpt><trkpt lat="39.216265" lon="16.1902183"><ele>1002.5999999999999</ele><time>2026-04-12T10:09:52.884Z</time></trkpt><trkpt lat="39.2161617" lon="16.1902283"><ele>1001.8</ele><time>2026-04-12T10:09:53.883Z</time></trkpt><trkpt lat="39.2160317" lon="16.19024"><ele>1001.0</ele><time>2026-04-12T10:09:54.884Z</time></trkpt><trkpt lat="39.2158983" lon="16.1902633"><ele>1001.0</ele><time>2026-04-12T10:09:55.883Z</time></trkpt><trkpt lat="39.2157683" lon="16.19031"><ele>1001.0</ele><time>2026-04-12T10:09:56.884Z</time></trkpt><trkpt lat="39.215635" lon="16.1903783"><ele>1001.0</ele><time>2026-04-12T10:09:57.883Z</time></trkpt><trkpt lat="39.2155183" lon="16.19044"><ele>1001.0</ele><time>2026-04-12T10:09:58.884Z</time></trkpt><trkpt lat="39.2154017" lon="16.1904917"><ele>1001.5</ele><time>2026-04-12T10:09:59.884Z</time></trkpt><trkpt lat="39.2152733" lon="16.1905583"><ele>1002.0</ele><time>2026-04-12T10:10:00.884Z</time></trkpt><trkpt lat="39.2151617" lon="16.1906333"><ele>1002.5</ele><time>2026-04-12T10:10:01.884Z</time></trkpt><trkpt lat="39.21505" lon="16.1907"><ele>1003.0</ele><time>2026-04-12T10:10:02.884Z</time></trkpt><trkpt lat="39.2149533" lon="16.1907483"><ele>1005.2</ele><time>2026-04-12T10:10:03.884Z</time></trkpt><trkpt lat="39.2148467" lon="16.19079"><ele>1007.4</ele><time>2026-04-12T10:10:04.884Z</time></trkpt><trkpt lat="39.2147567" lon="16.1908217"><ele>1009.6000000000001</ele><time>2026-04-12T10:10:05.884Z</time></trkpt><trkpt lat="39.21468" lon="16.1908717"><ele>1011.8000000000001</ele><time>2026-04-12T10:10:07.883Z</time></trkpt><trkpt lat="39.2146117" lon="16.1908817"><ele>1014.0</ele><time>2026-04-12T10:10:09.884Z</time></trkpt><trkpt lat="39.21452" lon="16.1908783"><ele>1019.5</ele><time>2026-04-12T10:10:11.883Z</time></trkpt><trkpt lat="39.2144383" lon="16.1909367"><ele>1025.0</ele><time>2026-04-12T10:10:13.883Z</time></trkpt><trkpt lat="39.2110483" lon="16.1881417"><ele>1031.2</ele><time>2026-04-12T10:10:59.883Z</time></trkpt><trkpt lat="39.2109567" lon="16.1882067"><ele>1037.4</ele><time>2026-04-12T10:11:00.883Z</time></trkpt><trkpt lat="39.2108533" lon="16.1881917"><ele>1043.6</ele><time>2026-04-12T10:11:01.882Z</time></trkpt><trkpt lat="39.2107767" lon="16.1881733"><ele>1049.8</ele><time>2026-04-12T10:11:02.883Z</time></trkpt><trkpt lat="39.2106817" lon="16.1881767"><ele>1056.0</ele><time>2026-04-12T10:11:03.882Z</time></trkpt><trkpt lat="39.210605" lon="16.1882083"><ele>1057.8</ele><time>2026-04-12T10:11:04.883Z</time></trkpt><trkpt lat="39.2105183" lon="16.1882033"><ele>1059.6</ele><time>2026-04-12T10:11:05.882Z</time></trkpt><trkpt lat="39.2104483" lon="16.1881983"><ele>1061.4</ele><time>2026-04-12T10:11:06.883Z</time></trkpt><trkpt lat="39.2103617" lon="16.188195"><ele>1063.2</ele><time>2026-04-12T10:11:07.883Z</time></trkpt><trkpt lat="39.21027" lon="16.1882"><ele>1065.0</ele><time>2026-04-12T10:11:08.883Z</time></trkpt><trkpt lat="39.2101317" lon="16.188145"><ele>1065.0</ele><time>2026-04-12T10:11:09.883Z</time></trkpt><trkpt lat="39.2099917" lon="16.188085"><ele>1065.0</ele><time>2026-04-12T10:11:10.883Z</time></trkpt><trkpt lat="39.2098983" lon="16.1880667"><ele>1065.0</ele><time>2026-04-12T10:11:11.883Z</time></trkpt><trkpt lat="39.2098067" lon="16.188025"><ele>1065.0</ele><time>2026-04-12T10:11:12.882Z</time></trkpt><trkpt lat="39.2097267" lon="16.1880017"><ele>1065.0</ele><time>2026-04-12T10:11:14.883Z</time></trkpt><trkpt lat="39.20962" lon="16.1880617"><ele>1066.2</ele><time>2026-04-12T10:11:17.883Z</time></trkpt><trkpt lat="39.2095567" lon="16.1880867"><ele>1067.4</ele><time>2026-04-12T10:11:18.882Z</time></trkpt><trkpt lat="39.2094767" lon="16.1881067"><ele>1068.6</ele><time>2026-04-12T10:11:19.883Z</time></trkpt><trkpt lat="39.2094033" lon="16.1881167"><ele>1069.8</ele><time>2026-04-12T10:11:20.882Z</time></trkpt><trkpt lat="39.2092717" lon="16.18816"><ele>1071.0</ele><time>2026-04-12T10:11:22.882Z</time></trkpt><trkpt lat="39.2091617" lon="16.1881633"><ele>1071.0</ele><time>2026-04-12T10:11:23.883Z</time></trkpt><trkpt lat="39.20903" lon="16.18815"><ele>1071.0</ele><time>2026-04-12T10:11:24.883Z</time></trkpt><trkpt lat="39.2088983" lon="16.1881517"><ele>1071.0</ele><time>2026-04-12T10:11:25.883Z</time></trkpt><trkpt lat="39.2087767" lon="16.1881517"><ele>1071.0</ele><time>2026-04-12T10:11:26.883Z</time></trkpt><trkpt lat="39.2086617" lon="16.1881133"><ele>1071.0</ele><time>2026-04-12T10:11:27.883Z</time></trkpt><trkpt lat="39.2085667" lon="16.188065"><ele>1071.0</ele><time>2026-04-12T10:11:28.883Z</time></trkpt><trkpt lat="39.2084667" lon="16.1880083"><ele>1071.0</ele><time>2026-04-12T10:11:29.883Z</time></trkpt><trkpt lat="39.2083567" lon="16.1879783"><ele>1071.0</ele><time>2026-04-12T10:11:30.882Z</time></trkpt><trkpt lat="39.2082217" lon="16.1879583"><ele>1072.75</ele><time>2026-04-12T10:11:31.882Z</time></trkpt><trkpt lat="39.2080833" lon="16.1879033"><ele>1074.5</ele><time>2026-04-12T10:11:32.883Z</time></trkpt><trkpt lat="39.2079567" lon="16.1878733"><ele>1076.25</ele><time>2026-04-12T10:11:33.883Z</time></trkpt><trkpt lat="39.207835" lon="16.187835"><ele>1078.0</ele><time>2026-04-12T10:11:34.883Z</time></trkpt><trkpt lat="39.2077117" lon="16.1878017"><ele>1078.0</ele><time>2026-04-12T10:11:35.883Z</time></trkpt><trkpt lat="39.2075917" lon="16.1877683"><ele>1078.0</ele><time>2026-04-12T10:11:36.883Z</time></trkpt><trkpt lat="39.207475" lon="16.1877517"><ele>1078.0</ele><time>2026-04-12T10:11:37.883Z</time></trkpt><trkpt lat="39.2073633" lon="16.1877017"><ele>1078.0</ele><time>2026-04-12T10:11:38.882Z</time></trkpt><trkpt lat="39.207255" lon="16.18765"><ele>1078.5</ele><time>2026-04-12T10:11:39.882Z</time></trkpt><trkpt lat="39.2071417" lon="16.1875817"><ele>1079.0</ele><time>2026-04-12T10:11:40.883Z</time></trkpt><trkpt lat="39.2070267" lon="16.1875367"><ele>1079.5</ele><time>2026-04-12T10:11:41.883Z</time></trkpt><trkpt lat="39.2069133" lon="16.1874883"><ele>1080.0</ele><time>2026-04-12T10:11:42.882Z</time></trkpt><trkpt lat="39.2068217" lon="16.1874533"><ele>1080.0</ele><time>2026-04-12T10:11:43.882Z</time></trkpt><trkpt lat="39.2067583" lon="16.187435"><ele>1080.0</ele><time>2026-04-12T10:11:44.883Z</time></trkpt><trkpt lat="39.2066733" lon="16.1873783"><ele>1080.0</ele><time>2026-04-12T10:11:45.882Z</time></trkpt><trkpt lat="39.2065783" lon="16.1873083"><ele>1080.0</ele><time>2026-04-12T10:11:46.882Z</time></trkpt><trkpt lat="39.206485" lon="16.18724"><ele>1080.0</ele><time>2026-04-12T10:11:47.883Z</time></trkpt><trkpt lat="39.2063817" lon="16.18718"><ele>1080.6</ele><time>2026-04-12T10:11:48.883Z</time></trkpt><trkpt lat="39.20627" lon="16.187115"><ele>1081.2</ele><time>2026-04-12T10:11:49.883Z</time></trkpt><trkpt lat="39.2061667" lon="16.18707"><ele>1081.8</ele><time>2026-04-12T10:11:50.883Z</time></trkpt><trkpt lat="39.2060683" lon="16.1870167"><ele>1082.4</ele><time>2026-04-12T10:11:51.882Z</time></trkpt><trkpt lat="39.2059733" lon="16.1869517"><ele>1083.0</ele><time>2026-04-12T10:11:52.883Z</time></trkpt><trkpt lat="39.205895" lon="16.1868767"><ele>1083.0</ele><time>2026-04-12T10:11:53.883Z</time></trkpt><trkpt lat="39.205805" lon="16.1868083"><ele>1083.0</ele><time>2026-04-12T10:11:54.882Z</time></trkpt><trkpt lat="39.2057183" lon="16.1867467"><ele>1083.0</ele><time>2026-04-12T10:11:55.883Z</time></trkpt><trkpt lat="39.2056283" lon="16.1866867"><ele>1083.0</ele><time>2026-04-12T10:11:56.883Z</time></trkpt><trkpt lat="39.20553" lon="16.1866283"><ele>1083.0</ele><time>2026-04-12T10:11:57.882Z</time></trkpt><trkpt lat="39.2054467" lon="16.1865567"><ele>1082.25</ele><time>2026-04-12T10:11:58.883Z</time></trkpt><trkpt lat="39.2053433" lon="16.186475"><ele>1081.5</ele><time>2026-04-12T10:11:59.883Z</time></trkpt><trkpt lat="39.2052567" lon="16.1864217"><ele>1080.75</ele><time>2026-04-12T10:12:00.883Z</time></trkpt><trkpt lat="39.2051283" lon="16.1863883"><ele>1080.0</ele><time>2026-04-12T10:12:01.883Z</time></trkpt><trkpt lat="39.2050367" lon="16.186285"><ele>1080.0</ele><time>2026-04-12T10:12:02.883Z</time></trkpt><trkpt lat="39.2049467" lon="16.1861617"><ele>1080.0</ele><time>2026-04-12T10:12:03.883Z</time></trkpt><trkpt lat="39.2048417" lon="16.18604"><ele>1080.0</ele><time>2026-04-12T10:12:04.883Z</time></trkpt><trkpt lat="39.2047283" lon="16.1859333"><ele>1080.0</ele><time>2026-04-12T10:12:05.883Z</time></trkpt><trkpt lat="39.204625" lon="16.185815"><ele>1079.75</ele><time>2026-04-12T10:12:06.883Z</time></trkpt><trkpt lat="39.2045217" lon="16.1856967"><ele>1079.5</ele><time>2026-04-12T10:12:07.883Z</time></trkpt><trkpt lat="39.2044267" lon="16.1855733"><ele>1079.25</ele><time>2026-04-12T10:12:08.882Z</time></trkpt><trkpt lat="39.2043383" lon="16.1854533"><ele>1079.0</ele><time>2026-04-12T10:12:09.883Z</time></trkpt><trkpt lat="39.204255" lon="16.18534"><ele>1079.0</ele><time>2026-04-12T10:12:10.882Z</time></trkpt><trkpt lat="39.2041667" lon="16.1852217"><ele>1079.0</ele><time>2026-04-12T10:12:11.883Z</time></trkpt><trkpt lat="39.2040783" lon="16.1851083"><ele>1079.0</ele><time>2026-04-12T10:12:12.882Z</time></trkpt><trkpt lat="39.2039917" lon="16.1850117"><ele>1079.0</ele><time>2026-04-12T10:12:13.883Z</time></trkpt><trkpt lat="39.2039167" lon="16.184925"><ele>1079.8</ele><time>2026-04-12T10:12:14.883Z</time></trkpt><trkpt lat="39.20383" lon="16.1848317"><ele>1080.6000000000001</ele><time>2026-04-12T10:12:15.882Z</time></trkpt><trkpt lat="39.2037433" lon="16.184735"><ele>1081.4</ele><time>2026-04-12T10:12:16.883Z</time></trkpt><trkpt lat="39.203675" lon="16.18464"><ele>1082.2</ele><time>2026-04-12T10:12:17.882Z</time></trkpt><trkpt lat="39.2036083" lon="16.184535"><ele>1083.0</ele><time>2026-04-12T10:12:18.883Z</time></trkpt><trkpt lat="39.2035383" lon="16.1844367"><ele>1083.0</ele><time>2026-04-12T10:12:19.883Z</time></trkpt><trkpt lat="39.20347" lon="16.184315"><ele>1083.0</ele><time>2026-04-12T10:12:20.883Z</time></trkpt><trkpt lat="39.203415" lon="16.18423"><ele>1083.0</ele><time>2026-04-12T10:12:21.883Z</time></trkpt><trkpt lat="39.2033633" lon="16.1841217"><ele>1083.0</ele><time>2026-04-12T10:12:22.883Z</time></trkpt><trkpt lat="39.2033167" lon="16.1840083"><ele>1083.0</ele><time>2026-04-12T10:12:23.883Z</time></trkpt><trkpt lat="39.2032617" lon="16.1838933"><ele>1082.5</ele><time>2026-04-12T10:12:24.883Z</time></trkpt><trkpt lat="39.2032233" lon="16.1837817"><ele>1082.0</ele><time>2026-04-12T10:12:25.883Z</time></trkpt><trkpt lat="39.2033117" lon="16.1836417"><ele>1081.5</ele><time>2026-04-12T10:12:26.882Z</time></trkpt><trkpt lat="39.2032783" lon="16.183525"><ele>1081.0</ele><time>2026-04-12T10:12:27.883Z</time></trkpt><trkpt lat="39.2033667" lon="16.183385"><ele>1081.0</ele><time>2026-04-12T10:12:28.882Z</time></trkpt><trkpt lat="39.203485" lon="16.183245"><ele>1081.0</ele><time>2026-04-12T10:12:29.883Z</time></trkpt><trkpt lat="39.2035517" lon="16.18311"><ele>1081.0</ele><time>2026-04-12T10:12:30.883Z</time></trkpt><trkpt lat="39.203515" lon="16.182975"><ele>1081.0</ele><time>2026-04-12T10:12:33.883Z</time></trkpt><trkpt lat="39.203475" lon="16.182895"><ele>1080.25</ele><time>2026-04-12T10:12:34.882Z</time></trkpt><trkpt lat="39.2034083" lon="16.182785"><ele>1079.5</ele><time>2026-04-12T10:12:35.883Z</time></trkpt><trkpt lat="39.2033383" lon="16.18266"><ele>1078.75</ele><time>2026-04-12T10:12:36.882Z</time></trkpt><trkpt lat="39.2032817" lon="16.1825467"><ele>1078.0</ele><time>2026-04-12T10:12:37.883Z</time></trkpt><trkpt lat="39.2032117" lon="16.182425"><ele>1078.6</ele><time>2026-04-12T10:12:38.883Z</time></trkpt><trkpt lat="39.2031467" lon="16.1823233"><ele>1079.1999999999998</ele><time>2026-04-12T10:12:39.883Z</time></trkpt><trkpt lat="39.2030817" lon="16.18223"><ele>1079.8</ele><time>2026-04-12T10:12:40.883Z</time></trkpt><trkpt lat="39.203005" lon="16.1821517"><ele>1080.3999999999999</ele><time>2026-04-12T10:12:41.882Z</time></trkpt><trkpt lat="39.2028983" lon="16.1820483"><ele>1081.0</ele><time>2026-04-12T10:12:42.882Z</time></trkpt><trkpt lat="39.2027867" lon="16.1819433"><ele>1081.0</ele><time>2026-04-12T10:12:43.883Z</time></trkpt><trkpt lat="39.2026883" lon="16.18186"><ele>1081.0</ele><time>2026-04-12T10:12:44.883Z</time></trkpt><trkpt lat="39.2025883" lon="16.1817933"><ele>1081.0</ele><time>2026-04-12T10:12:45.883Z</time></trkpt><trkpt lat="39.2024833" lon="16.1817317"><ele>1081.0</ele><time>2026-04-12T10:12:46.883Z</time></trkpt><trkpt lat="39.2023533" lon="16.1816483"><ele>1080.75</ele><time>2026-04-12T10:12:47.883Z</time></trkpt><trkpt lat="39.2022133" lon="16.1815533"><ele>1080.5</ele><time>2026-04-12T10:12:48.882Z</time></trkpt><trkpt lat="39.2020683" lon="16.181475"><ele>1080.25</ele><time>2026-04-12T10:12:49.883Z</time></trkpt><trkpt lat="39.2019533" lon="16.1814267"><ele>1080.0</ele><time>2026-04-12T10:12:50.882Z</time></trkpt><trkpt lat="39.2018433" lon="16.181385"><ele>1079.75</ele><time>2026-04-12T10:12:51.883Z</time></trkpt><trkpt lat="39.2017233" lon="16.1813417"><ele>1079.5</ele><time>2026-04-12T10:12:52.883Z</time></trkpt><trkpt lat="39.20158" lon="16.1813367"><ele>1079.25</ele><time>2026-04-12T10:12:53.883Z</time></trkpt><trkpt lat="39.2014483" lon="16.18132"><ele>1079.0</ele><time>2026-04-12T10:12:54.883Z</time></trkpt><trkpt lat="39.2013467" lon="16.18131"><ele>1080.0</ele><time>2026-04-12T10:12:55.883Z</time></trkpt><trkpt lat="39.2012483" lon="16.1812567"><ele>1081.0</ele><time>2026-04-12T10:12:56.883Z</time></trkpt><trkpt lat="39.20115" lon="16.181195"><ele>1082.0</ele><time>2026-04-12T10:12:57.882Z</time></trkpt><trkpt lat="39.20107" lon="16.181135"><ele>1083.0</ele><time>2026-04-12T10:12:58.883Z</time></trkpt><trkpt lat="39.2010067" lon="16.181065"><ele>1084.0</ele><time>2026-04-12T10:12:59.882Z</time></trkpt><trkpt lat="39.200935" lon="16.180995"><ele>1084.0</ele><time>2026-04-12T10:13:00.882Z</time></trkpt><trkpt lat="39.2008767" lon="16.18092"><ele>1084.0</ele><time>2026-04-12T10:13:01.883Z</time></trkpt><trkpt lat="39.2008" lon="16.18085"><ele>1084.0</ele><time>2026-04-12T10:13:02.883Z</time></trkpt><trkpt lat="39.200755" lon="16.18076"><ele>1084.0</ele><time>2026-04-12T10:13:03.882Z</time></trkpt><trkpt lat="39.20073" lon="16.1806433"><ele>1084.0</ele><time>2026-04-12T10:13:04.883Z</time></trkpt><trkpt lat="39.2007033" lon="16.1805167"><ele>1084.6000000000001</ele><time>2026-04-12T10:13:05.883Z</time></trkpt><trkpt lat="39.2006833" lon="16.1803783"><ele>1085.2</ele><time>2026-04-12T10:13:06.883Z</time></trkpt><trkpt lat="39.2006533" lon="16.1802717"><ele>1085.8000000000002</ele><time>2026-04-12T10:13:07.883Z</time></trkpt><trkpt lat="39.2006517" lon="16.18011"><ele>1086.4</ele><time>2026-04-12T10:13:08.883Z</time></trkpt><trkpt lat="39.2006333" lon="16.180015"><ele>1087.0</ele><time>2026-04-12T10:13:09.883Z</time></trkpt><trkpt lat="39.2005867" lon="16.1798983"><ele>1087.6666666666665</ele><time>2026-04-12T10:13:11.883Z</time></trkpt><trkpt lat="39.20054" lon="16.1798317"><ele>1088.3333333333333</ele><time>2026-04-12T10:13:12.883Z</time></trkpt><trkpt lat="39.20046" lon="16.1798167"><ele>1089.0</ele><time>2026-04-12T10:13:13.882Z</time></trkpt><trkpt lat="39.2003917" lon="16.1797883"><ele>1089.6666666666667</ele><time>2026-04-12T10:13:14.883Z</time></trkpt><trkpt lat="39.2003167" lon="16.1797667"><ele>1090.3333333333335</ele><time>2026-04-12T10:13:15.883Z</time></trkpt><trkpt lat="39.2002467" lon="16.1797383"><ele>1091.0</ele><time>2026-04-12T10:13:16.883Z</time></trkpt><trkpt lat="39.20017" lon="16.1796967"><ele>1091.0</ele><time>2026-04-12T10:13:17.883Z</time></trkpt><trkpt lat="39.200085" lon="16.1796483"><ele>1091.0</ele><time>2026-04-12T10:13:18.882Z</time></trkpt><trkpt lat="39.1999367" lon="16.1796417"><ele>1091.0</ele><time>2026-04-12T10:13:19.882Z</time></trkpt><trkpt lat="39.1998417" lon="16.1795767"><ele>1091.0</ele><time>2026-04-12T10:13:20.883Z</time></trkpt><trkpt lat="39.1997583" lon="16.1795333"><ele>1091.0</ele><time>2026-04-12T10:13:21.883Z</time></trkpt><trkpt lat="39.19967" lon="16.1794967"><ele>1092.3333333333335</ele><time>2026-04-12T10:13:22.883Z</time></trkpt><trkpt lat="39.199595" lon="16.1795017"><ele>1093.6666666666667</ele><time>2026-04-12T10:13:23.882Z</time></trkpt><trkpt lat="39.1995083" lon="16.179505"><ele>1095.0</ele><time>2026-04-12T10:13:24.883Z</time></trkpt><trkpt lat="39.1994367" lon="16.1795217"><ele>1096.3333333333333</ele><time>2026-04-12T10:13:26.883Z</time></trkpt><trkpt lat="39.199335" lon="16.1794983"><ele>1097.6666666666665</ele><time>2026-04-12T10:13:28.882Z</time></trkpt><trkpt lat="39.19924" lon="16.1794483"><ele>1099.0</ele><time>2026-04-12T10:13:30.883Z</time></trkpt><trkpt lat="39.1990633" lon="16.1793383"><ele>1103.2</ele><time>2026-04-12T10:13:32.882Z</time></trkpt><trkpt lat="39.1989667" lon="16.17925"><ele>1107.4</ele><time>2026-04-12T10:13:33.883Z</time></trkpt><trkpt lat="39.1988883" lon="16.1791967"><ele>1111.6</ele><time>2026-04-12T10:13:34.883Z</time></trkpt><trkpt lat="39.1988117" lon="16.1791433"><ele>1115.8</ele><time>2026-04-12T10:13:35.883Z</time></trkpt><trkpt lat="39.1987317" lon="16.179095"><ele>1120.0</ele><time>2026-04-12T10:13:36.883Z</time></trkpt><trkpt lat="39.1986333" lon="16.17905"><ele>1118.0</ele><time>2026-04-12T10:13:37.882Z</time></trkpt><trkpt lat="39.1985483" lon="16.179"><ele>1116.0</ele><time>2026-04-12T10:13:38.883Z</time></trkpt><trkpt lat="39.1984683" lon="16.17898"><ele>1114.0</ele><time>2026-04-12T10:13:39.882Z</time></trkpt><trkpt lat="39.1983767" lon="16.1789183"><ele>1112.0</ele><time>2026-04-12T10:13:40.883Z</time></trkpt><trkpt lat="39.1982783" lon="16.178855"><ele>1110.0</ele><time>2026-04-12T10:13:41.883Z</time></trkpt><trkpt lat="39.1981883" lon="16.1788317"><ele>1112.8</ele><time>2026-04-12T10:13:42.883Z</time></trkpt><trkpt lat="39.1980933" lon="16.17879"><ele>1115.6</ele><time>2026-04-12T10:13:43.882Z</time></trkpt><trkpt lat="39.1980033" lon="16.1787417"><ele>1118.4</ele><time>2026-04-12T10:13:44.883Z</time></trkpt><trkpt lat="39.1979033" lon="16.178705"><ele>1121.2</ele><time>2026-04-12T10:13:45.883Z</time></trkpt><trkpt lat="39.1978" lon="16.1786717"><ele>1124.0</ele><time>2026-04-12T10:13:46.883Z</time></trkpt><trkpt lat="39.1977083" lon="16.1786167"><ele>1124.0</ele><time>2026-04-12T10:13:47.882Z</time></trkpt><trkpt lat="39.1976117" lon="16.178575"><ele>1124.0</ele><time>2026-04-12T10:13:48.883Z</time></trkpt><trkpt lat="39.1975217" lon="16.1785333"><ele>1124.0</ele><time>2026-04-12T10:13:49.883Z</time></trkpt><trkpt lat="39.1974317" lon="16.178485"><ele>1124.0</ele><time>2026-04-12T10:13:50.882Z</time></trkpt><trkpt lat="39.1973433" lon="16.1784417"><ele>1124.0</ele><time>2026-04-12T10:13:51.883Z</time></trkpt><trkpt lat="39.197255" lon="16.178385"><ele>1123.25</ele><time>2026-04-12T10:13:52.883Z</time></trkpt><trkpt lat="39.1971667" lon="16.1783383"><ele>1122.5</ele><time>2026-04-12T10:13:53.883Z</time></trkpt><trkpt lat="39.1970817" lon="16.1782883"><ele>1121.75</ele><time>2026-04-12T10:13:54.882Z</time></trkpt><trkpt lat="39.1969483" lon="16.178275"><ele>1121.0</ele><time>2026-04-12T10:14:01.882Z</time></trkpt><trkpt lat="39.196835" lon="16.1779983"><ele>1122.5</ele><time>2026-04-12T10:14:02.882Z</time></trkpt><trkpt lat="39.1967917" lon="16.17776"><ele>1124.0</ele><time>2026-04-12T10:14:03.881Z</time></trkpt><trkpt lat="39.1967717" lon="16.1776233"><ele>1125.5</ele><time>2026-04-12T10:14:04.882Z</time></trkpt><trkpt lat="39.1968517" lon="16.1775717"><ele>1127.0</ele><time>2026-04-12T10:14:05.882Z</time></trkpt><trkpt lat="39.1968117" lon="16.1774833"><ele>1127.0</ele><time>2026-04-12T10:14:19.881Z</time></trkpt><trkpt lat="39.1967333" lon="16.1775067"><ele>1127.0</ele><time>2026-04-12T10:15:35.882Z</time></trkpt><trkpt lat="39.1968017" lon="16.1775817"><ele>1127.0</ele><time>2026-04-12T10:16:00.882Z</time></trkpt><trkpt lat="39.1968683" lon="16.17764"><ele>1127.0</ele><time>2026-04-12T10:16:02.881Z</time></trkpt><trkpt lat="39.1969317" lon="16.1775917"><ele>1127.0</ele><time>2026-04-12T10:16:38.882Z</time></trkpt><trkpt lat="39.190305" lon="16.18701"><ele>1121.8</ele><time>2026-04-12T10:18:17.883Z</time></trkpt><trkpt lat="39.1902267" lon="16.187055"><ele>1116.6</ele><time>2026-04-12T10:18:18.883Z</time></trkpt><trkpt lat="39.1901217" lon="16.1870733"><ele>1111.3999999999999</ele><time>2026-04-12T10:18:19.883Z</time></trkpt><trkpt lat="39.19002" lon="16.1871233"><ele>1106.2</ele><time>2026-04-12T10:18:20.882Z</time></trkpt><trkpt lat="39.1899283" lon="16.1871633"><ele>1101.0</ele><time>2026-04-12T10:18:21.883Z</time></trkpt><trkpt lat="39.1898517" lon="16.1872167"><ele>1101.0</ele><time>2026-04-12T10:18:22.883Z</time></trkpt><trkpt lat="39.1897667" lon="16.187305"><ele>1101.0</ele><time>2026-04-12T10:18:23.883Z</time></trkpt><trkpt lat="39.18968" lon="16.18739"><ele>1101.0</ele><time>2026-04-12T10:18:24.883Z</time></trkpt><trkpt lat="39.18962" lon="16.1875"><ele>1101.0</ele><time>2026-04-12T10:18:25.883Z</time></trkpt><trkpt lat="39.189485" lon="16.18753"><ele>1101.3999999999999</ele><time>2026-04-12T10:18:26.883Z</time></trkpt><trkpt lat="39.1894017" lon="16.1876133"><ele>1101.8</ele><time>2026-04-12T10:18:27.883Z</time></trkpt><trkpt lat="39.18934" lon="16.1877367"><ele>1102.1999999999998</ele><time>2026-04-12T10:18:28.883Z</time></trkpt><trkpt lat="39.189255" lon="16.1878283"><ele>1102.6</ele><time>2026-04-12T10:18:29.883Z</time></trkpt><trkpt lat="39.1891917" lon="16.187935"><ele>1103.0</ele><time>2026-04-12T10:18:30.882Z</time></trkpt><trkpt lat="39.1891483" lon="16.1880417"><ele>1102.0</ele><time>2026-04-12T10:18:31.883Z</time></trkpt><trkpt lat="39.1891317" lon="16.1881867"><ele>1101.0</ele><time>2026-04-12T10:18:32.883Z</time></trkpt><trkpt lat="39.1891017" lon="16.1883333"><ele>1100.0</ele><time>2026-04-12T10:18:33.883Z</time></trkpt><trkpt lat="39.1890567" lon="16.188495"><ele>1099.0</ele><time>2026-04-12T10:18:34.883Z</time></trkpt><trkpt lat="39.1890117" lon="16.1886217"><ele>1099.0</ele><time>2026-04-12T10:18:35.883Z</time></trkpt><trkpt lat="39.1889667" lon="16.1887517"><ele>1099.0</ele><time>2026-04-12T10:18:36.882Z</time></trkpt><trkpt lat="39.1889133" lon="16.188875"><ele>1099.0</ele><time>2026-04-12T10:18:37.883Z</time></trkpt><trkpt lat="39.1888783" lon="16.1890017"><ele>1099.0</ele><time>2026-04-12T10:18:38.882Z</time></trkpt><trkpt lat="39.1888167" lon="16.1891283"><ele>1099.0</ele><time>2026-04-12T10:18:39.883Z</time></trkpt><trkpt lat="39.188755" lon="16.1892567"><ele>1097.25</ele><time>2026-04-12T10:18:40.883Z</time></trkpt><trkpt lat="39.1887267" lon="16.1894017"><ele>1095.5</ele><time>2026-04-12T10:18:41.882Z</time></trkpt><trkpt lat="39.1886867" lon="16.189555"><ele>1093.75</ele><time>2026-04-12T10:18:42.882Z</time></trkpt><trkpt lat="39.1886467" lon="16.1896967"><ele>1092.0</ele><time>2026-04-12T10:18:43.883Z</time></trkpt><trkpt lat="39.188675" lon="16.1898733"><ele>1091.5</ele><time>2026-04-12T10:18:44.883Z</time></trkpt><trkpt lat="39.1886467" lon="16.190025"><ele>1091.0</ele><time>2026-04-12T10:18:45.883Z</time></trkpt><trkpt lat="39.1886533" lon="16.190225"><ele>1090.5</ele><time>2026-04-12T10:18:46.883Z</time></trkpt><trkpt lat="39.188645" lon="16.1904117"><ele>1090.0</ele><time>2026-04-12T10:18:47.882Z</time></trkpt><trkpt lat="39.1886267" lon="16.1905817"><ele>1091.0</ele><time>2026-04-12T10:18:48.883Z</time></trkpt><trkpt lat="39.1886083" lon="16.1907417"><ele>1092.0</ele><time>2026-04-12T10:18:49.883Z</time></trkpt><trkpt lat="39.1885883" lon="16.190905"><ele>1093.0</ele><time>2026-04-12T10:18:50.883Z</time></trkpt><trkpt lat="39.1885717" lon="16.1910633"><ele>1094.0</ele><time>2026-04-12T10:18:51.883Z</time></trkpt><trkpt lat="39.1885483" lon="16.1912267"><ele>1094.0</ele><time>2026-04-12T10:18:52.883Z</time></trkpt><trkpt lat="39.1885183" lon="16.1913917"><ele>1094.0</ele><time>2026-04-12T10:18:53.883Z</time></trkpt><trkpt lat="39.1885083" lon="16.1915417"><ele>1094.0</ele><time>2026-04-12T10:18:54.882Z</time></trkpt><trkpt lat="39.1884867" lon="16.1916867"><ele>1094.0</ele><time>2026-04-12T10:18:55.883Z</time></trkpt><trkpt lat="39.1884683" lon="16.19183"><ele>1094.0</ele><time>2026-04-12T10:18:56.883Z</time></trkpt><trkpt lat="39.1884517" lon="16.1919683"><ele>1094.0</ele><time>2026-04-12T10:18:57.882Z</time></trkpt><trkpt lat="39.1884317" lon="16.1921133"><ele>1094.0</ele><time>2026-04-12T10:18:58.883Z</time></trkpt><trkpt lat="39.188415" lon="16.192265"><ele>1094.0</ele><time>2026-04-12T10:18:59.883Z</time></trkpt><trkpt lat="39.1884733" lon="16.19237"><ele>1094.0</ele><time>2026-04-12T10:19:00.883Z</time></trkpt><trkpt lat="39.188555" lon="16.1924417"><ele>1092.75</ele><time>2026-04-12T10:19:01.883Z</time></trkpt><trkpt lat="39.18856" lon="16.19259"><ele>1091.5</ele><time>2026-04-12T10:19:02.883Z</time></trkpt><trkpt lat="39.1886067" lon="16.1927083"><ele>1090.25</ele><time>2026-04-12T10:19:03.883Z</time></trkpt><trkpt lat="39.1887433" lon="16.1927417"><ele>1089.0</ele><time>2026-04-12T10:19:04.883Z</time></trkpt><trkpt lat="39.1889017" lon="16.19279"><ele>1089.0</ele><time>2026-04-12T10:19:05.883Z</time></trkpt><trkpt lat="39.1890017" lon="16.192885"><ele>1089.0</ele><time>2026-04-12T10:19:06.882Z</time></trkpt><trkpt lat="39.1890733" lon="16.1929917"><ele>1089.0</ele><time>2026-04-12T10:19:07.882Z</time></trkpt><trkpt lat="39.1891917" lon="16.19316"><ele>1089.0</ele><time>2026-04-12T10:19:08.883Z</time></trkpt><trkpt lat="39.1892683" lon="16.19327"><ele>1085.75</ele><time>2026-04-12T10:19:09.883Z</time></trkpt><trkpt lat="39.1893483" lon="16.1933767"><ele>1082.5</ele><time>2026-04-12T10:19:10.883Z</time></trkpt><trkpt lat="39.1894333" lon="16.193485"><ele>1079.25</ele><time>2026-04-12T10:19:11.883Z</time></trkpt><trkpt lat="39.18952" lon="16.193585"><ele>1076.0</ele><time>2026-04-12T10:19:12.883Z</time></trkpt><trkpt lat="39.1896267" lon="16.1936883"><ele>1076.0</ele><time>2026-04-12T10:19:13.883Z</time></trkpt><trkpt lat="39.1897367" lon="16.1937633"><ele>1076.0</ele><time>2026-04-12T10:19:14.883Z</time></trkpt><trkpt lat="39.18984" lon="16.1938383"><ele>1076.0</ele><time>2026-04-12T10:19:15.883Z</time></trkpt><trkpt lat="39.189945" lon="16.1939117"><ele>1076.0</ele><time>2026-04-12T10:19:16.883Z</time></trkpt><trkpt lat="39.1900567" lon="16.1939633"><ele>1072.25</ele><time>2026-04-12T10:19:17.883Z</time></trkpt><trkpt lat="39.1901667" lon="16.1940133"><ele>1068.5</ele><time>2026-04-12T10:19:18.883Z</time></trkpt><trkpt lat="39.190265" lon="16.19407"><ele>1064.75</ele><time>2026-04-12T10:19:19.883Z</time></trkpt><trkpt lat="39.1903817" lon="16.1941517"><ele>1061.0</ele><time>2026-04-12T10:19:20.882Z</time></trkpt><trkpt lat="39.1904833" lon="16.194215"><ele>1061.0</ele><time>2026-04-12T10:19:21.883Z</time></trkpt><trkpt lat="39.1905833" lon="16.194275"><ele>1061.0</ele><time>2026-04-12T10:19:22.882Z</time></trkpt><trkpt lat="39.19068" lon="16.1943367"><ele>1061.0</ele><time>2026-04-12T10:19:23.883Z</time></trkpt><trkpt lat="39.190775" lon="16.1944033"><ele>1061.0</ele><time>2026-04-12T10:19:24.882Z</time></trkpt><trkpt lat="39.1908667" lon="16.1944733"><ele>1061.0</ele><time>2026-04-12T10:19:25.883Z</time></trkpt><trkpt lat="39.19095" lon="16.1945533"><ele>1060.0</ele><time>2026-04-12T10:19:26.883Z</time></trkpt><trkpt lat="39.1909133" lon="16.194625"><ele>1059.0</ele><time>2026-04-12T10:19:27.883Z</time></trkpt><trkpt lat="39.19092" lon="16.19474"><ele>1058.0</ele><time>2026-04-12T10:19:28.883Z</time></trkpt><trkpt lat="39.190955" lon="16.1948483"><ele>1057.0</ele><time>2026-04-12T10:19:29.882Z</time></trkpt><trkpt lat="39.1909817" lon="16.1949483"><ele>1056.0</ele><time>2026-04-12T10:19:30.883Z</time></trkpt><trkpt lat="39.19103" lon="16.19503"><ele>1055.0</ele><time>2026-04-12T10:19:31.882Z</time></trkpt><trkpt lat="39.19109" lon="16.1951017"><ele>1054.8</ele><time>2026-04-12T10:19:32.883Z</time></trkpt><trkpt lat="39.1911567" lon="16.1951683"><ele>1054.6</ele><time>2026-04-12T10:19:33.882Z</time></trkpt><trkpt lat="39.19125" lon="16.1952367"><ele>1054.4</ele><time>2026-04-12T10:19:35.883Z</time></trkpt><trkpt lat="39.1913067" lon="16.19529"><ele>1054.2</ele><time>2026-04-12T10:19:36.883Z</time></trkpt><trkpt lat="39.1914617" lon="16.1954117"><ele>1054.0</ele><time>2026-04-12T10:19:38.883Z</time></trkpt><trkpt lat="39.19155" lon="16.1954933"><ele>1053.4</ele><time>2026-04-12T10:19:39.883Z</time></trkpt><trkpt lat="39.1916133" lon="16.1955533"><ele>1052.8000000000002</ele><time>2026-04-12T10:19:40.882Z</time></trkpt><trkpt lat="39.19167" lon="16.1956083"><ele>1052.1999999999998</ele><time>2026-04-12T10:19:41.883Z</time></trkpt><trkpt lat="39.191775" lon="16.195725"><ele>1051.6</ele><time>2026-04-12T10:19:43.883Z</time></trkpt><trkpt lat="39.1918317" lon="16.1957867"><ele>1051.0</ele><time>2026-04-12T10:19:44.883Z</time></trkpt><trkpt lat="39.1920383" lon="16.1959933"><ele>1048.0</ele><time>2026-04-12T10:19:48.882Z</time></trkpt><trkpt lat="39.1920833" lon="16.1960567"><ele>1045.0</ele><time>2026-04-12T10:19:49.883Z</time></trkpt><trkpt lat="39.1913417" lon="16.1972067"><ele>1041.0</ele><time>2026-04-12T10:20:03.882Z</time></trkpt><trkpt lat="39.1912233" lon="16.197415"><ele>1037.0</ele><time>2026-04-12T10:20:05.882Z</time></trkpt><trkpt lat="39.1911867" lon="16.1975033"><ele>1033.0</ele><time>2026-04-12T10:20:06.882Z</time></trkpt><trkpt lat="39.191245" lon="16.1975917"><ele>1029.0</ele><time>2026-04-12T10:20:07.881Z</time></trkpt><trkpt lat="39.1913417" lon="16.1977433"><ele>1029.0</ele><time>2026-04-12T10:20:09.882Z</time></trkpt><trkpt lat="39.1914133" lon="16.1978383"><ele>1029.0</ele><time>2026-04-12T10:20:10.882Z</time></trkpt><trkpt lat="39.1914783" lon="16.197925"><ele>1029.0</ele><time>2026-04-12T10:20:11.881Z</time></trkpt><trkpt lat="39.1904367" lon="16.2020633"><ele>1028.8</ele><time>2026-04-12T10:20:47.882Z</time></trkpt><trkpt lat="39.19043" lon="16.2021613"><ele>1028.6000000000001</ele><time>2026-04-12T10:20:48.882Z</time></trkpt><trkpt lat="39.1903678" lon="16.2022837"><ele>1028.4</ele><time>2026-04-12T10:20:49.882Z</time></trkpt><trkpt lat="39.1902953" lon="16.2023785"><ele>1028.2</ele><time>2026-04-12T10:20:50.881Z</time></trkpt><trkpt lat="39.1902499" lon="16.202513"><ele>1028.0</ele><time>2026-04-12T10:20:51.882Z</time></trkpt><trkpt lat="39.1902073" lon="16.202649"><ele>1027.4</ele><time>2026-04-12T10:20:52.882Z</time></trkpt><trkpt lat="39.19017" lon="16.2027983"><ele>1026.8</ele><time>2026-04-12T10:20:53.882Z</time></trkpt><trkpt lat="39.190125" lon="16.20293"><ele>1026.2</ele><time>2026-04-12T10:20:54.881Z</time></trkpt><trkpt lat="39.190105" lon="16.20303"><ele>1025.6</ele><time>2026-04-12T10:20:55.882Z</time></trkpt><trkpt lat="39.1900967" lon="16.2031267"><ele>1025.0</ele><time>2026-04-12T10:20:57.881Z</time></trkpt><trkpt lat="39.190075" lon="16.2032367"><ele>1024.75</ele><time>2026-04-12T10:20:59.882Z</time></trkpt><trkpt lat="39.1900617" lon="16.2033183"><ele>1024.5</ele><time>2026-04-12T10:21:02.882Z</time></trkpt><trkpt lat="39.190015" lon="16.203385"><ele>1024.25</ele><time>2026-04-12T10:21:04.882Z</time></trkpt><trkpt lat="39.189815" lon="16.2031033"><ele>1024.0</ele><time>2026-04-12T10:21:11.881Z</time></trkpt><trkpt lat="39.1897617" lon="16.20298"><ele>1024.0</ele><time>2026-04-12T10:21:12.882Z</time></trkpt><trkpt lat="39.1897133" lon="16.2029033"><ele>1024.0</ele><time>2026-04-12T10:21:13.882Z</time></trkpt><trkpt lat="39.1875182" lon="16.200333"><ele>1009.0</ele><time>2026-04-12T10:21:38.799Z</time></trkpt><trkpt lat="39.1861025" lon="16.1966456"><ele>1012.0</ele><time>2026-04-12T10:21:52.497Z</time></trkpt><trkpt lat="39.1849167" lon="16.1962533"><ele>1012.0</ele><time>2026-04-12T10:22:02.882Z</time></trkpt><trkpt lat="39.1848483" lon="16.19621"><ele>1012.0</ele><time>2026-04-12T10:22:03.883Z</time></trkpt><trkpt lat="39.18157" lon="16.2025"><ele>1015.8</ele><time>2026-04-12T10:23:06.883Z</time></trkpt><trkpt lat="39.181525" lon="16.202595"><ele>1019.6</ele><time>2026-04-12T10:23:07.883Z</time></trkpt><trkpt lat="39.1815333" lon="16.2027317"><ele>1023.3999999999999</ele><time>2026-04-12T10:23:08.883Z</time></trkpt><trkpt lat="39.1815317" lon="16.2028683"><ele>1027.2</ele><time>2026-04-12T10:23:09.883Z</time></trkpt><trkpt lat="39.1815067" lon="16.2030167"><ele>1031.0</ele><time>2026-04-12T10:23:10.883Z</time></trkpt><trkpt lat="39.1814917" lon="16.2031383"><ele>1032.8</ele><time>2026-04-12T10:23:11.883Z</time></trkpt><trkpt lat="39.18147" lon="16.203245"><ele>1034.6</ele><time>2026-04-12T10:23:12.883Z</time></trkpt><trkpt lat="39.1815333" lon="16.203375"><ele>1036.4</ele><time>2026-04-12T10:23:13.883Z</time></trkpt><trkpt lat="39.1816" lon="16.203455"><ele>1038.2</ele><time>2026-04-12T10:23:14.883Z</time></trkpt><trkpt lat="39.181655" lon="16.2035533"><ele>1040.0</ele><time>2026-04-12T10:23:15.883Z</time></trkpt><trkpt lat="39.1817167" lon="16.2035983"><ele>1040.0</ele><time>2026-04-12T10:23:16.883Z</time></trkpt><trkpt lat="39.1817983" lon="16.203635"><ele>1040.0</ele><time>2026-04-12T10:23:17.883Z</time></trkpt><trkpt lat="39.1818733" lon="16.20366"><ele>1040.0</ele><time>2026-04-12T10:23:18.882Z</time></trkpt><trkpt lat="39.18196" lon="16.2038683"><ele>1040.0</ele><time>2026-04-12T10:23:20.882Z</time></trkpt><trkpt lat="39.182035" lon="16.20403"><ele>1044.75</ele><time>2026-04-12T10:23:21.883Z</time></trkpt><trkpt lat="39.1820917" lon="16.2041433"><ele>1049.5</ele><time>2026-04-12T10:23:22.883Z</time></trkpt><trkpt lat="39.18215" lon="16.2042533"><ele>1054.25</ele><time>2026-04-12T10:23:23.883Z</time></trkpt><trkpt lat="39.1822083" lon="16.2043617"><ele>1059.0</ele><time>2026-04-12T10:23:24.882Z</time></trkpt><trkpt lat="39.1824817" lon="16.204855"><ele>1062.3333333333333</ele><time>2026-04-12T10:23:29.884Z</time></trkpt><trkpt lat="39.182525" lon="16.2049467"><ele>1065.6666666666665</ele><time>2026-04-12T10:23:30.883Z</time></trkpt><trkpt lat="39.18259" lon="16.2049267"><ele>1069.0</ele><time>2026-04-12T10:23:31.884Z</time></trkpt><trkpt lat="39.1828567" lon="16.2051817"><ele>1069.0</ele><time>2026-04-12T10:23:37.884Z</time></trkpt><trkpt lat="39.182925" lon="16.2052867"><ele>1069.0</ele><time>2026-04-12T10:23:39.884Z</time></trkpt><trkpt lat="39.1829617" lon="16.2053733"><ele>1069.0</ele><time>2026-04-12T10:23:41.883Z</time></trkpt><trkpt lat="39.1828017" lon="16.205305"><ele>1069.0</ele><time>2026-04-12T10:23:42.884Z</time></trkpt><trkpt lat="39.1827233" lon="16.2053267"><ele>1069.0</ele><time>2026-04-12T10:23:43.884Z</time></trkpt><trkpt lat="39.1826867" lon="16.2054183"><ele>1069.0</ele><time>2026-04-12T10:23:46.884Z</time></trkpt><trkpt lat="39.1826083" lon="16.2054117"><ele>1069.0</ele><time>2026-04-12T10:24:01.884Z</time></trkpt><trkpt lat="39.182505" lon="16.2053633"><ele>1069.0</ele><time>2026-04-12T10:24:04.884Z</time></trkpt><trkpt lat="39.1824467" lon="16.2053017"><ele>1069.0</ele><time>2026-04-12T10:24:07.884Z</time></trkpt><trkpt lat="39.1824967" lon="16.2051883"><ele>1069.0</ele><time>2026-04-12T10:25:45.883Z</time></trkpt><trkpt lat="39.182545" lon="16.2052583"><ele>1069.0</ele><time>2026-04-12T10:25:53.884Z</time></trkpt><trkpt lat="39.1825533" lon="16.2053867"><ele>1069.0</ele><time>2026-04-12T10:25:57.883Z</time></trkpt><trkpt lat="39.1825233" lon="16.2055017"><ele>1069.0</ele><time>2026-04-12T10:25:59.883Z</time></trkpt><trkpt lat="39.1824783" lon="16.20558"><ele>1069.0</ele><time>2026-04-12T10:26:02.884Z</time></trkpt><trkpt lat="39.1824967" lon="16.20546"><ele>1069.0</ele><time>2026-04-12T10:26:11.883Z</time></trkpt><trkpt lat="39.182525" lon="16.2053533"><ele>1069.0</ele><time>2026-04-12T10:28:25.884Z</time></trkpt><trkpt lat="39.182485" lon="16.2052483"><ele>1069.0</ele><time>2026-04-12T10:28:54.884Z</time></trkpt><trkpt lat="39.1823967" lon="16.205195"><ele>1072.4</ele><time>2026-04-12T10:29:11.884Z</time></trkpt><trkpt lat="39.182335" lon="16.2052433"><ele>1075.8000000000002</ele><time>2026-04-12T10:29:35.884Z</time></trkpt><trkpt lat="39.1822367" lon="16.2052933"><ele>1079.1999999999998</ele><time>2026-04-12T10:29:37.883Z</time></trkpt><trkpt lat="39.1821183" lon="16.2054"><ele>1082.6</ele><time>2026-04-12T10:29:39.884Z</time></trkpt><trkpt lat="39.1820333" lon="16.20547"><ele>1086.0</ele><time>2026-04-12T10:29:40.883Z</time></trkpt><trkpt lat="39.18196" lon="16.2055383"><ele>1086.0</ele><time>2026-04-12T10:29:41.883Z</time></trkpt><trkpt lat="39.1818717" lon="16.2056117"><ele>1086.0</ele><time>2026-04-12T10:29:42.884Z</time></trkpt><trkpt lat="39.1817883" lon="16.2056833"><ele>1086.0</ele><time>2026-04-12T10:29:43.883Z</time></trkpt><trkpt lat="39.1817183" lon="16.205745"><ele>1086.0</ele><time>2026-04-12T10:29:44.884Z</time></trkpt><trkpt lat="39.1815983" lon="16.205835"><ele>1086.0</ele><time>2026-04-12T10:29:46.884Z</time></trkpt><trkpt lat="39.1815067" lon="16.205875"><ele>1091.6666666666667</ele><time>2026-04-12T10:29:48.884Z</time></trkpt><trkpt lat="39.18145" lon="16.20598"><ele>1097.3333333333333</ele><time>2026-04-12T10:29:50.884Z</time></trkpt><trkpt lat="39.1814533" lon="16.2060733"><ele>1103.0</ele><time>2026-04-12T10:29:51.883Z</time></trkpt><trkpt lat="39.181465" lon="16.2061817"><ele>1108.6666666666665</ele><time>2026-04-12T10:29:52.884Z</time></trkpt><trkpt lat="39.1814633" lon="16.20629"><ele>1114.3333333333333</ele><time>2026-04-12T10:29:53.883Z</time></trkpt><trkpt lat="39.1814433" lon="16.2063917"><ele>1120.0</ele><time>2026-04-12T10:29:54.883Z</time></trkpt><trkpt lat="39.18143" lon="16.2064967"><ele>1124.142857142857</ele><time>2026-04-12T10:29:55.883Z</time></trkpt><trkpt lat="39.1814133" lon="16.20659"><ele>1128.2857142857142</ele><time>2026-04-12T10:29:56.884Z</time></trkpt><trkpt lat="39.181405" lon="16.2066867"><ele>1132.4285714285716</ele><time>2026-04-12T10:29:57.883Z</time></trkpt><trkpt lat="39.18139" lon="16.2067733"><ele>1136.5714285714284</ele><time>2026-04-12T10:29:58.884Z</time></trkpt><trkpt lat="39.1813867" lon="16.206865"><ele>1140.7142857142858</ele><time>2026-04-12T10:29:59.884Z</time></trkpt><trkpt lat="39.181395" lon="16.2069567"><ele>1144.857142857143</ele><time>2026-04-12T10:30:00.884Z</time></trkpt><trkpt lat="39.181405" lon="16.20704"><ele>1149.0</ele><time>2026-04-12T10:30:01.884Z</time></trkpt><trkpt lat="39.18143" lon="16.2071367"><ele>1149.0</ele><time>2026-04-12T10:30:02.884Z</time></trkpt><trkpt lat="39.1814583" lon="16.207245"><ele>1149.0</ele><time>2026-04-12T10:30:03.884Z</time></trkpt><trkpt lat="39.1814867" lon="16.2073483"><ele>1149.0</ele><time>2026-04-12T10:30:04.883Z</time></trkpt><trkpt lat="39.1815383" lon="16.2075217"><ele>1149.0</ele><time>2026-04-12T10:30:05.883Z</time></trkpt><trkpt lat="39.18154" lon="16.20762"><ele>1149.0</ele><time>2026-04-12T10:30:06.884Z</time></trkpt><trkpt lat="39.18157" lon="16.20785"><ele>1147.0</ele><time>2026-04-12T10:30:08.884Z</time></trkpt><trkpt lat="39.1816017" lon="16.2080133"><ele>1145.0</ele><time>2026-04-12T10:30:09.883Z</time></trkpt><trkpt lat="39.1816433" lon="16.20822"><ele>1143.0</ele><time>2026-04-12T10:30:10.883Z</time></trkpt><trkpt lat="39.1816717" lon="16.208395"><ele>1141.0</ele><time>2026-04-12T10:30:11.884Z</time></trkpt><trkpt lat="39.1817083" lon="16.2084767"><ele>1144.3333333333333</ele><time>2026-04-12T10:30:12.884Z</time></trkpt><trkpt lat="39.1817567" lon="16.2085667"><ele>1147.6666666666665</ele><time>2026-04-12T10:30:13.883Z</time></trkpt><trkpt lat="39.1817967" lon="16.2086833"><ele>1151.0</ele><time>2026-04-12T10:30:14.884Z</time></trkpt><trkpt lat="39.18182" lon="16.2087867"><ele>1154.3333333333333</ele><time>2026-04-12T10:30:15.884Z</time></trkpt><trkpt lat="39.1818467" lon="16.2088667"><ele>1157.6666666666667</ele><time>2026-04-12T10:30:16.883Z</time></trkpt><trkpt lat="39.18187" lon="16.208965"><ele>1161.0</ele><time>2026-04-12T10:30:17.884Z</time></trkpt><trkpt lat="39.1818917" lon="16.209065"><ele>1163.3999999999999</ele><time>2026-04-12T10:30:18.884Z</time></trkpt><trkpt lat="39.1817917" lon="16.209205"><ele>1165.8</ele><time>2026-04-12T10:30:20.883Z</time></trkpt><trkpt lat="39.18176" lon="16.2093183"><ele>1168.1999999999998</ele><time>2026-04-12T10:30:21.883Z</time></trkpt><trkpt lat="39.1817133" lon="16.2094133"><ele>1170.6</ele><time>2026-04-12T10:30:22.884Z</time></trkpt><trkpt lat="39.18164" lon="16.2095017"><ele>1173.0</ele><time>2026-04-12T10:30:23.884Z</time></trkpt><trkpt lat="39.181595" lon="16.20961"><ele>1173.0</ele><time>2026-04-12T10:30:24.883Z</time></trkpt><trkpt lat="39.1815717" lon="16.209745"><ele>1173.0</ele><time>2026-04-12T10:30:25.884Z</time></trkpt><trkpt lat="39.181545" lon="16.209855"><ele>1173.0</ele><time>2026-04-12T10:30:26.884Z</time></trkpt><trkpt lat="39.18152" lon="16.2099633"><ele>1173.0</ele><time>2026-04-12T10:30:27.884Z</time></trkpt><trkpt lat="39.18149" lon="16.2101217"><ele>1173.0</ele><time>2026-04-12T10:30:29.884Z</time></trkpt><trkpt lat="39.1815317" lon="16.210195"><ele>1176.4</ele><time>2026-04-12T10:30:31.884Z</time></trkpt><trkpt lat="39.1814933" lon="16.2102917"><ele>1179.8</ele><time>2026-04-12T10:30:33.883Z</time></trkpt><trkpt lat="39.181435" lon="16.2103933"><ele>1183.2</ele><time>2026-04-12T10:30:35.883Z</time></trkpt><trkpt lat="39.1813217" lon="16.21039"><ele>1186.6</ele><time>2026-04-12T10:30:36.883Z</time></trkpt><trkpt lat="39.18125" lon="16.2104433"><ele>1190.0</ele><time>2026-04-12T10:30:37.884Z</time></trkpt><trkpt lat="39.181175" lon="16.2105033"><ele>1190.0</ele><time>2026-04-12T10:30:38.884Z</time></trkpt><trkpt lat="39.1811" lon="16.21057"><ele>1190.0</ele><time>2026-04-12T10:30:39.883Z</time></trkpt><trkpt lat="39.181" lon="16.2106567"><ele>1190.0</ele><time>2026-04-12T10:30:40.884Z</time></trkpt><trkpt lat="39.1808883" lon="16.2107583"><ele>1190.0</ele><time>2026-04-12T10:30:41.884Z</time></trkpt><trkpt lat="39.18078" lon="16.210835"><ele>1191.25</ele><time>2026-04-12T10:30:42.884Z</time></trkpt><trkpt lat="39.1806767" lon="16.21091"><ele>1192.5</ele><time>2026-04-12T10:30:43.884Z</time></trkpt><trkpt lat="39.1805767" lon="16.2109767"><ele>1193.75</ele><time>2026-04-12T10:30:44.884Z</time></trkpt><trkpt lat="39.180475" lon="16.2110483"><ele>1195.0</ele><time>2026-04-12T10:30:45.883Z</time></trkpt><trkpt lat="39.1803483" lon="16.21108"><ele>1195.0</ele><time>2026-04-12T10:30:46.883Z</time></trkpt><trkpt lat="39.18025" lon="16.2111367"><ele>1195.0</ele><time>2026-04-12T10:30:47.884Z</time></trkpt><trkpt lat="39.18018" lon="16.2111433"><ele>1195.0</ele><time>2026-04-12T10:30:48.884Z</time></trkpt><trkpt lat="39.1801117" lon="16.2111733"><ele>1195.0</ele><time>2026-04-12T10:30:49.883Z</time></trkpt><trkpt lat="39.180015" lon="16.2111733"><ele>1195.0</ele><time>2026-04-12T10:30:51.884Z</time></trkpt><trkpt lat="39.1799533" lon="16.21127"><ele>1195.0</ele><time>2026-04-12T10:30:53.884Z</time></trkpt><trkpt lat="39.1799567" lon="16.21137"><ele>1195.8333333333333</ele><time>2026-04-12T10:30:54.884Z</time></trkpt><trkpt lat="39.179965" lon="16.2114933"><ele>1196.6666666666665</ele><time>2026-04-12T10:30:55.883Z</time></trkpt><trkpt lat="39.1799717" lon="16.2116167"><ele>1197.5</ele><time>2026-04-12T10:30:56.884Z</time></trkpt><trkpt lat="39.1799683" lon="16.2117083"><ele>1198.3333333333333</ele><time>2026-04-12T10:30:57.884Z</time></trkpt><trkpt lat="39.179955" lon="16.2118167"><ele>1199.1666666666667</ele><time>2026-04-12T10:30:58.884Z</time></trkpt><trkpt lat="39.1799467" lon="16.2119467"><ele>1200.0</ele><time>2026-04-12T10:30:59.884Z</time></trkpt><trkpt lat="39.1799317" lon="16.2120567"><ele>1200.0</ele><time>2026-04-12T10:31:00.883Z</time></trkpt><trkpt lat="39.1799117" lon="16.212175"><ele>1200.0</ele><time>2026-04-12T10:31:01.883Z</time></trkpt><trkpt lat="39.1798533" lon="16.2123667"><ele>1200.0</ele><time>2026-04-12T10:31:02.884Z</time></trkpt><trkpt lat="39.1798067" lon="16.2125767"><ele>1200.0</ele><time>2026-04-12T10:31:03.884Z</time></trkpt><trkpt lat="39.1797667" lon="16.2127767"><ele>1203.3333333333333</ele><time>2026-04-12T10:31:04.884Z</time></trkpt><trkpt lat="39.17976" lon="16.2129717"><ele>1206.6666666666665</ele><time>2026-04-12T10:31:05.884Z</time></trkpt><trkpt lat="39.1797683" lon="16.21318"><ele>1210.0</ele><time>2026-04-12T10:31:06.884Z</time></trkpt><trkpt lat="39.17977" lon="16.2133667"><ele>1210.0</ele><time>2026-04-12T10:31:07.884Z</time></trkpt><trkpt lat="39.1797717" lon="16.2135433"><ele>1210.0</ele><time>2026-04-12T10:31:08.884Z</time></trkpt><trkpt lat="39.1797617" lon="16.21372"><ele>1210.0</ele><time>2026-04-12T10:31:09.883Z</time></trkpt><trkpt lat="39.17975" lon="16.2138933"><ele>1210.0</ele><time>2026-04-12T10:31:10.884Z</time></trkpt><trkpt lat="39.1797383" lon="16.21407"><ele>1210.8</ele><time>2026-04-12T10:31:11.884Z</time></trkpt><trkpt lat="39.1797417" lon="16.21421"><ele>1211.6</ele><time>2026-04-12T10:31:12.883Z</time></trkpt><trkpt lat="39.1797283" lon="16.2143367"><ele>1212.4</ele><time>2026-04-12T10:31:13.883Z</time></trkpt><trkpt lat="39.1797217" lon="16.2144883"><ele>1213.2</ele><time>2026-04-12T10:31:14.884Z</time></trkpt><trkpt lat="39.17971" lon="16.2146467"><ele>1214.0</ele><time>2026-04-12T10:31:15.884Z</time></trkpt><trkpt lat="39.17969" lon="16.2148"><ele>1217.6000000000001</ele><time>2026-04-12T10:31:16.883Z</time></trkpt><trkpt lat="39.1796717" lon="16.2149433"><ele>1221.2</ele><time>2026-04-12T10:31:17.883Z</time></trkpt><trkpt lat="39.1796283" lon="16.2150417"><ele>1224.8000000000002</ele><time>2026-04-12T10:31:18.884Z</time></trkpt><trkpt lat="39.1796033" lon="16.215145"><ele>1228.4</ele><time>2026-04-12T10:31:19.884Z</time></trkpt><trkpt lat="39.1795433" lon="16.2152583"><ele>1232.0</ele><time>2026-04-12T10:31:21.884Z</time></trkpt><trkpt lat="39.17949" lon="16.2153533"><ele>1232.0</ele><time>2026-04-12T10:31:23.884Z</time></trkpt><trkpt lat="39.17943" lon="16.2153283"><ele>1232.0</ele><time>2026-04-12T10:31:24.884Z</time></trkpt><trkpt lat="39.179365" lon="16.2153067"><ele>1232.0</ele><time>2026-04-12T10:31:25.883Z</time></trkpt><trkpt lat="39.1793083" lon="16.2152433"><ele>1232.0</ele><time>2026-04-12T10:31:29.884Z</time></trkpt><trkpt lat="39.1792333" lon="16.2151967"><ele>1232.0</ele><time>2026-04-12T10:31:39.884Z</time></trkpt><trkpt lat="39.1791433" lon="16.215175"><ele>1232.0</ele><time>2026-04-12T10:31:42.884Z</time></trkpt><trkpt lat="39.17903" lon="16.2151867"><ele>1231.0</ele><time>2026-04-12T10:31:43.884Z</time></trkpt><trkpt lat="39.1789367" lon="16.2152383"><ele>1230.0</ele><time>2026-04-12T10:31:45.883Z</time></trkpt><trkpt lat="39.1788117" lon="16.2152917"><ele>1229.0</ele><time>2026-04-12T10:31:46.883Z</time></trkpt><trkpt lat="39.178735" lon="16.2153383"><ele>1228.0</ele><time>2026-04-12T10:31:47.883Z</time></trkpt><trkpt lat="39.17854" lon="16.21545"><ele>1228.0</ele><time>2026-04-12T10:31:48.884Z</time></trkpt><trkpt lat="39.1784517" lon="16.2154933"><ele>1228.0</ele><time>2026-04-12T10:31:49.884Z</time></trkpt><trkpt lat="39.1783517" lon="16.2155483"><ele>1228.0</ele><time>2026-04-12T10:31:50.883Z</time></trkpt><trkpt lat="39.1782583" lon="16.2155883"><ele>1228.0</ele><time>2026-04-12T10:31:51.884Z</time></trkpt><trkpt lat="39.17817" lon="16.2155867"><ele>1228.0</ele><time>2026-04-12T10:31:52.884Z</time></trkpt><trkpt lat="39.1780717" lon="16.2156183"><ele>1232.4</ele><time>2026-04-12T10:31:53.884Z</time></trkpt><trkpt lat="39.1779883" lon="16.215675"><ele>1236.8</ele><time>2026-04-12T10:31:54.884Z</time></trkpt><trkpt lat="39.1779183" lon="16.215745"><ele>1241.2</ele><time>2026-04-12T10:31:55.883Z</time></trkpt><trkpt lat="39.1778317" lon="16.2157717"><ele>1245.6</ele><time>2026-04-12T10:31:56.884Z</time></trkpt><trkpt lat="39.177745" lon="16.2158167"><ele>1250.0</ele><time>2026-04-12T10:31:57.884Z</time></trkpt><trkpt lat="39.17764" lon="16.2158783"><ele>1250.0</ele><time>2026-04-12T10:31:58.884Z</time></trkpt><trkpt lat="39.1775383" lon="16.2159533"><ele>1250.0</ele><time>2026-04-12T10:31:59.883Z</time></trkpt><trkpt lat="39.1774467" lon="16.2160117"><ele>1250.0</ele><time>2026-04-12T10:32:00.884Z</time></trkpt><trkpt lat="39.1773433" lon="16.21608"><ele>1250.0</ele><time>2026-04-12T10:32:01.884Z</time></trkpt><trkpt lat="39.1772367" lon="16.2161517"><ele>1250.6666666666667</ele><time>2026-04-12T10:32:02.884Z</time></trkpt><trkpt lat="39.1771617" lon="16.21619"><ele>1251.3333333333335</ele><time>2026-04-12T10:32:03.884Z</time></trkpt><trkpt lat="39.17708" lon="16.2162417"><ele>1252.0</ele><time>2026-04-12T10:32:04.883Z</time></trkpt><trkpt lat="39.1769967" lon="16.2162967"><ele>1252.6666666666667</ele><time>2026-04-12T10:32:05.884Z</time></trkpt><trkpt lat="39.1769183" lon="16.216345"><ele>1253.3333333333333</ele><time>2026-04-12T10:32:06.884Z</time></trkpt><trkpt lat="39.1768367" lon="16.2164033"><ele>1254.0</ele><time>2026-04-12T10:32:07.884Z</time></trkpt><trkpt lat="39.1763017" lon="16.2191467"><ele>1254.0</ele><time>2026-04-12T10:32:28.884Z</time></trkpt><trkpt lat="39.1762233" lon="16.2191767"><ele>1254.0</ele><time>2026-04-12T10:32:29.884Z</time></trkpt><trkpt lat="39.1761567" lon="16.2191767"><ele>1254.0</ele><time>2026-04-12T10:32:31.884Z</time></trkpt><trkpt lat="39.1760483" lon="16.2191883"><ele>1254.0</ele><time>2026-04-12T10:32:33.884Z</time></trkpt><trkpt lat="39.1759867" lon="16.2192117"><ele>1254.0</ele><time>2026-04-12T10:32:34.883Z</time></trkpt><trkpt lat="39.175925" lon="16.2192383"><ele>1254.0</ele><time>2026-04-12T10:32:35.883Z</time></trkpt><trkpt lat="39.17588" lon="16.2193083"><ele>1254.0</ele><time>2026-04-12T10:32:36.884Z</time></trkpt><trkpt lat="39.1758083" lon="16.2193167"><ele>1254.0</ele><time>2026-04-12T10:32:37.884Z</time></trkpt><trkpt lat="39.1757267" lon="16.21933"><ele>1254.0</ele><time>2026-04-12T10:32:38.884Z</time></trkpt><trkpt lat="39.1756" lon="16.2193333"><ele>1254.0</ele><time>2026-04-12T10:32:39.884Z</time></trkpt><trkpt lat="39.175495" lon="16.21935"><ele>1254.0</ele><time>2026-04-12T10:32:40.883Z</time></trkpt><trkpt lat="39.17538" lon="16.2193467"><ele>1251.75</ele><time>2026-04-12T10:32:41.883Z</time></trkpt><trkpt lat="39.1752617" lon="16.2193417"><ele>1249.5</ele><time>2026-04-12T10:32:42.884Z</time></trkpt><trkpt lat="39.1751567" lon="16.2192633"><ele>1247.25</ele><time>2026-04-12T10:32:43.884Z</time></trkpt><trkpt lat="39.17507" lon="16.2191983"><ele>1245.0</ele><time>2026-04-12T10:32:44.884Z</time></trkpt><trkpt lat="39.1749833" lon="16.2190833"><ele>1245.0</ele><time>2026-04-12T10:32:45.884Z</time></trkpt><trkpt lat="39.17488" lon="16.2189683"><ele>1245.0</ele><time>2026-04-12T10:32:46.883Z</time></trkpt><trkpt lat="39.174745" lon="16.2188417"><ele>1245.0</ele><time>2026-04-12T10:32:47.884Z</time></trkpt><trkpt lat="39.174605" lon="16.2187117"><ele>1245.0</ele><time>2026-04-12T10:32:48.884Z</time></trkpt><trkpt lat="39.1744767" lon="16.2186117"><ele>1245.0</ele><time>2026-04-12T10:32:49.884Z</time></trkpt><trkpt lat="39.17434" lon="16.21851"><ele>1245.0</ele><time>2026-04-12T10:32:50.884Z</time></trkpt><trkpt lat="39.17421" lon="16.2184217"><ele>1245.0</ele><time>2026-04-12T10:32:51.884Z</time></trkpt><trkpt lat="39.17408" lon="16.2183483"><ele>1245.0</ele><time>2026-04-12T10:32:52.883Z</time></trkpt><trkpt lat="39.1739433" lon="16.2182733"><ele>1245.0</ele><time>2026-04-12T10:32:53.884Z</time></trkpt><trkpt lat="39.1738067" lon="16.21822"><ele>1245.0</ele><time>2026-04-12T10:32:54.883Z</time></trkpt><trkpt lat="39.17367" lon="16.2181667"><ele>1244.25</ele><time>2026-04-12T10:32:55.884Z</time></trkpt><trkpt lat="39.1735467" lon="16.2181183"><ele>1243.5</ele><time>2026-04-12T10:32:56.883Z</time></trkpt><trkpt lat="39.1734317" lon="16.2180533"><ele>1242.75</ele><time>2026-04-12T10:32:57.884Z</time></trkpt><trkpt lat="39.1733217" lon="16.2179883"><ele>1242.0</ele><time>2026-04-12T10:32:58.884Z</time></trkpt><trkpt lat="39.17322" lon="16.217935"><ele>1241.5</ele><time>2026-04-12T10:32:59.884Z</time></trkpt><trkpt lat="39.1730833" lon="16.2178133"><ele>1241.0</ele><time>2026-04-12T10:33:00.884Z</time></trkpt><trkpt lat="39.1729767" lon="16.2177533"><ele>1240.5</ele><time>2026-04-12T10:33:01.884Z</time></trkpt><trkpt lat="39.1728617" lon="16.2176967"><ele>1240.0</ele><time>2026-04-12T10:33:02.883Z</time></trkpt><trkpt lat="39.17274" lon="16.2176317"><ele>1240.0</ele><time>2026-04-12T10:33:03.884Z</time></trkpt><trkpt lat="39.1725817" lon="16.217575"><ele>1240.0</ele><time>2026-04-12T10:33:04.884Z</time></trkpt><trkpt lat="39.1724417" lon="16.217495"><ele>1240.0</ele><time>2026-04-12T10:33:05.884Z</time></trkpt><trkpt lat="39.172385" lon="16.2173467"><ele>1240.0</ele><time>2026-04-12T10:33:06.884Z</time></trkpt><trkpt lat="39.17228" lon="16.2172383"><ele>1239.0</ele><time>2026-04-12T10:33:07.884Z</time></trkpt><trkpt lat="39.1721617" lon="16.2171667"><ele>1238.0</ele><time>2026-04-12T10:33:08.884Z</time></trkpt><trkpt lat="39.172055" lon="16.2170583"><ele>1237.0</ele><time>2026-04-12T10:33:09.884Z</time></trkpt><trkpt lat="39.1719483" lon="16.216945"><ele>1236.0</ele><time>2026-04-12T10:33:10.884Z</time></trkpt><trkpt lat="39.17183" lon="16.2168733"><ele>1236.0</ele><time>2026-04-12T10:33:11.883Z</time></trkpt><trkpt lat="39.17168" lon="16.216815"><ele>1236.0</ele><time>2026-04-12T10:33:12.884Z</time></trkpt><trkpt lat="39.17153" lon="16.216765"><ele>1236.0</ele><time>2026-04-12T10:33:13.884Z</time></trkpt><trkpt lat="39.1713917" lon="16.2167133"><ele>1234.0</ele><time>2026-04-12T10:33:14.884Z</time></trkpt><trkpt lat="39.171255" lon="16.2166617"><ele>1232.0</ele><time>2026-04-12T10:33:15.883Z</time></trkpt><trkpt lat="39.1711267" lon="16.216585"><ele>1230.0</ele><time>2026-04-12T10:33:16.884Z</time></trkpt><trkpt lat="39.171005" lon="16.2164967"><ele>1228.0</ele><time>2026-04-12T10:33:17.884Z</time></trkpt><trkpt lat="39.1708817" lon="16.2164333"><ele>1227.8</ele><time>2026-04-12T10:33:18.884Z</time></trkpt><trkpt lat="39.170775" lon="16.2163733"><ele>1227.6</ele><time>2026-04-12T10:33:19.884Z</time></trkpt><trkpt lat="39.170675" lon="16.216325"><ele>1227.4</ele><time>2026-04-12T10:33:20.884Z</time></trkpt><trkpt lat="39.17058" lon="16.2162817"><ele>1227.2</ele><time>2026-04-12T10:33:21.884Z</time></trkpt><trkpt lat="39.170485" lon="16.2162383"><ele>1227.0</ele><time>2026-04-12T10:33:22.883Z</time></trkpt><trkpt lat="39.1703833" lon="16.2161833"><ele>1224.0</ele><time>2026-04-12T10:33:23.883Z</time></trkpt><trkpt lat="39.1702917" lon="16.2161433"><ele>1221.0</ele><time>2026-04-12T10:33:24.884Z</time></trkpt><trkpt lat="39.169815" lon="16.21591"><ele>1218.8</ele><time>2026-04-12T10:33:29.883Z</time></trkpt><trkpt lat="39.16963" lon="16.2158317"><ele>1216.6</ele><time>2026-04-12T10:33:31.882Z</time></trkpt><trkpt lat="39.169565" lon="16.2158"><ele>1214.4</ele><time>2026-04-12T10:33:32.882Z</time></trkpt><trkpt lat="39.1695017" lon="16.2157617"><ele>1212.2</ele><time>2026-04-12T10:33:33.882Z</time></trkpt><trkpt lat="39.1694417" lon="16.2157117"><ele>1210.0</ele><time>2026-04-12T10:33:34.881Z</time></trkpt><trkpt lat="39.16937" lon="16.2156467"><ele>1206.5</ele><time>2026-04-12T10:33:35.882Z</time></trkpt><trkpt lat="39.1692483" lon="16.2155383"><ele>1203.0</ele><time>2026-04-12T10:33:37.882Z</time></trkpt><trkpt lat="39.169835" lon="16.2147933"><ele>1203.0</ele><time>2026-04-12T10:33:38.882Z</time></trkpt><trkpt lat="39.1698233" lon="16.214705"><ele>1203.0</ele><time>2026-04-12T10:33:39.882Z</time></trkpt><trkpt lat="39.1698167" lon="16.2146183"><ele>1203.0</ele><time>2026-04-12T10:33:40.882Z</time></trkpt><trkpt lat="39.1701083" lon="16.21424"><ele>1204.3333333333333</ele><time>2026-04-12T10:33:41.882Z</time></trkpt><trkpt lat="39.1702167" lon="16.2141533"><ele>1205.6666666666665</ele><time>2026-04-12T10:33:42.881Z</time></trkpt><trkpt lat="39.170305" lon="16.2141033"><ele>1207.0</ele><time>2026-04-12T10:33:44.881Z</time></trkpt><trkpt lat="39.17033" lon="16.2143983"><ele>1207.0</ele><time>2026-04-12T10:33:48.882Z</time></trkpt><trkpt lat="39.1703217" lon="16.2146583"><ele>1207.0</ele><time>2026-04-12T10:33:50.881Z</time></trkpt><trkpt lat="39.1702717" lon="16.2147367"><ele>1207.0</ele><time>2026-04-12T10:33:51.882Z</time></trkpt><trkpt lat="39.1702167" lon="16.2148117"><ele>1207.0</ele><time>2026-04-12T10:33:52.881Z</time></trkpt><trkpt lat="39.1701667" lon="16.2148967"><ele>1207.0</ele><time>2026-04-12T10:33:53.882Z</time></trkpt><trkpt lat="39.1701183" lon="16.2150433"><ele>1208.4</ele><time>2026-04-12T10:33:54.882Z</time></trkpt><trkpt lat="39.1700667" lon="16.215165"><ele>1209.8000000000002</ele><time>2026-04-12T10:33:55.881Z</time></trkpt><trkpt lat="39.1700183" lon="16.2152517"><ele>1211.2</ele><time>2026-04-12T10:33:56.882Z</time></trkpt><trkpt lat="39.1699533" lon="16.2153883"><ele>1212.6000000000001</ele><time>2026-04-12T10:33:57.881Z</time></trkpt><trkpt lat="39.1698967" lon="16.2154783"><ele>1214.0</ele><time>2026-04-12T10:33:58.882Z</time></trkpt><trkpt lat="39.1698017" lon="16.2156483"><ele>1213.0</ele><time>2026-04-12T10:33:59.882Z</time></trkpt><trkpt lat="39.169725" lon="16.215765"><ele>1212.0</ele><time>2026-04-12T10:34:00.882Z</time></trkpt><trkpt lat="39.1696083" lon="16.2158983"><ele>1211.0</ele><time>2026-04-12T10:34:01.882Z</time></trkpt><trkpt lat="39.169505" lon="16.2159883"><ele>1210.0</ele><time>2026-04-12T10:34:02.882Z</time></trkpt><trkpt lat="39.16938" lon="16.2160717"><ele>1210.0</ele><time>2026-04-12T10:34:03.881Z</time></trkpt><trkpt lat="39.16927" lon="16.21616"><ele>1210.0</ele><time>2026-04-12T10:34:04.882Z</time></trkpt><trkpt lat="39.1691667" lon="16.21623"><ele>1210.0</ele><time>2026-04-12T10:34:05.881Z</time></trkpt><trkpt lat="39.1690733" lon="16.2163067"><ele>1210.0</ele><time>2026-04-12T10:34:06.882Z</time></trkpt><trkpt lat="39.1689883" lon="16.21639"><ele>1208.5</ele><time>2026-04-12T10:34:07.882Z</time></trkpt><trkpt lat="39.1689067" lon="16.216455"><ele>1207.0</ele><time>2026-04-12T10:34:08.882Z</time></trkpt><trkpt lat="39.1688317" lon="16.21652"><ele>1205.5</ele><time>2026-04-12T10:34:09.881Z</time></trkpt><trkpt lat="39.1687817" lon="16.2165917"><ele>1204.0</ele><time>2026-04-12T10:34:10.882Z</time></trkpt><trkpt lat="39.1687333" lon="16.2166517"><ele>1202.5</ele><time>2026-04-12T10:34:11.882Z</time></trkpt><trkpt lat="39.1686817" lon="16.21671"><ele>1201.0</ele><time>2026-04-12T10:34:12.882Z</time></trkpt><trkpt lat="39.1686333" lon="16.216795"><ele>1201.0000000000002</ele><time>2026-04-12T10:34:13.882Z</time></trkpt><trkpt lat="39.168615" lon="16.2168883"><ele>1201.0</ele><time>2026-04-12T10:34:15.882Z</time></trkpt><trkpt lat="39.1686" lon="16.2169783"><ele>1201.0</ele><time>2026-04-12T10:34:16.882Z</time></trkpt><trkpt lat="39.1685783" lon="16.2170717"><ele>1201.0</ele><time>2026-04-12T10:34:17.882Z</time></trkpt><trkpt lat="39.1685533" lon="16.2171517"><ele>1201.0</ele><time>2026-04-12T10:34:18.882Z</time></trkpt><trkpt lat="39.1685067" lon="16.21722"><ele>1201.0000000000002</ele><time>2026-04-12T10:34:19.881Z</time></trkpt><trkpt lat="39.1684717" lon="16.217295"><ele>1201.0</ele><time>2026-04-12T10:34:20.881Z</time></trkpt><trkpt lat="39.168445" lon="16.21737"><ele>1200.3333333333333</ele><time>2026-04-12T10:34:21.881Z</time></trkpt><trkpt lat="39.1683933" lon="16.2174567"><ele>1199.6666666666665</ele><time>2026-04-12T10:34:22.881Z</time></trkpt><trkpt lat="39.1683617" lon="16.2175317"><ele>1199.0</ele><time>2026-04-12T10:34:23.882Z</time></trkpt><trkpt lat="39.16833" lon="16.2176083"><ele>1198.3333333333333</ele><time>2026-04-12T10:34:24.882Z</time></trkpt><trkpt lat="39.1683483" lon="16.21777"><ele>1197.6666666666667</ele><time>2026-04-12T10:34:26.881Z</time></trkpt><trkpt lat="39.1683717" lon="16.2178467"><ele>1197.0</ele><time>2026-04-12T10:34:27.882Z</time></trkpt><trkpt lat="39.1683683" lon="16.2179467"><ele>1197.0</ele><time>2026-04-12T10:34:28.882Z</time></trkpt><trkpt lat="39.1683667" lon="16.2180367"><ele>1197.0</ele><time>2026-04-12T10:34:29.882Z</time></trkpt><trkpt lat="39.168355" lon="16.2181283"><ele>1197.0</ele><time>2026-04-12T10:34:30.881Z</time></trkpt><trkpt lat="39.1683467" lon="16.218215"><ele>1197.0</ele><time>2026-04-12T10:34:31.882Z</time></trkpt><trkpt lat="39.1683567" lon="16.2183633"><ele>1197.0</ele><time>2026-04-12T10:34:33.882Z</time></trkpt><trkpt lat="39.1683217" lon="16.2184517"><ele>1197.0</ele><time>2026-04-12T10:34:34.881Z</time></trkpt><trkpt lat="39.168305" lon="16.2185483"><ele>1194.6666666666667</ele><time>2026-04-12T10:34:35.882Z</time></trkpt><trkpt lat="39.168285" lon="16.2186367"><ele>1192.3333333333333</ele><time>2026-04-12T10:34:36.882Z</time></trkpt><trkpt lat="39.1682767" lon="16.2187217"><ele>1190.0</ele><time>2026-04-12T10:34:37.882Z</time></trkpt><trkpt lat="39.168295" lon="16.2188967"><ele>1187.6666666666665</ele><time>2026-04-12T10:34:39.882Z</time></trkpt><trkpt lat="39.16829" lon="16.2189833"><ele>1185.3333333333333</ele><time>2026-04-12T10:34:40.881Z</time></trkpt><trkpt lat="39.168285" lon="16.219075"><ele>1183.0</ele><time>2026-04-12T10:34:41.882Z</time></trkpt><trkpt lat="39.1682817" lon="16.2191667"><ele>1177.6666666666665</ele><time>2026-04-12T10:34:42.882Z</time></trkpt><trkpt lat="39.1682783" lon="16.2192583"><ele>1172.3333333333333</ele><time>2026-04-12T10:34:43.882Z</time></trkpt><trkpt lat="39.1681383" lon="16.2195783"><ele>1167.0</ele><time>2026-04-12T10:34:47.883Z</time></trkpt><trkpt lat="39.1680667" lon="16.2196633"><ele>1162.6666666666667</ele><time>2026-04-12T10:34:48.883Z</time></trkpt><trkpt lat="39.1680433" lon="16.219755"><ele>1158.3333333333335</ele><time>2026-04-12T10:34:49.883Z</time></trkpt><trkpt lat="39.1678683" lon="16.2200067"><ele>1154.0</ele><time>2026-04-12T10:34:53.883Z</time></trkpt><trkpt lat="39.1676883" lon="16.2199367"><ele>1154.0</ele><time>2026-04-12T10:34:54.883Z</time></trkpt><trkpt lat="39.1674483" lon="16.219815"><ele>1154.0</ele><time>2026-04-12T10:34:55.883Z</time></trkpt><trkpt lat="39.1672533" lon="16.2197483"><ele>1149.0</ele><time>2026-04-12T10:34:56.883Z</time></trkpt><trkpt lat="39.167145" lon="16.2197567"><ele>1144.0</ele><time>2026-04-12T10:34:57.883Z</time></trkpt><trkpt lat="39.16692" lon="16.2197133"><ele>1139.0</ele><time>2026-04-12T10:34:58.882Z</time></trkpt><trkpt lat="39.16679" lon="16.2197117"><ele>1139.0</ele><time>2026-04-12T10:34:59.883Z</time></trkpt><trkpt lat="39.1666933" lon="16.2197367"><ele>1139.0</ele><time>2026-04-12T10:35:00.883Z</time></trkpt><trkpt lat="39.1666183" lon="16.2197267"><ele>1139.0</ele><time>2026-04-12T10:35:01.882Z</time></trkpt><trkpt lat="39.1665367" lon="16.219695"><ele>1139.0</ele><time>2026-04-12T10:35:02.883Z</time></trkpt><trkpt lat="39.1664517" lon="16.2197467"><ele>1139.0</ele><time>2026-04-12T10:35:06.883Z</time></trkpt><trkpt lat="39.1663867" lon="16.219665"><ele>1139.0</ele><time>2026-04-12T10:35:08.883Z</time></trkpt><trkpt lat="39.1663017" lon="16.2195717"><ele>1139.8333333333335</ele><time>2026-04-12T10:35:10.882Z</time></trkpt><trkpt lat="39.1662417" lon="16.2195283"><ele>1140.6666666666667</ele><time>2026-04-12T10:35:11.883Z</time></trkpt><trkpt lat="39.1661833" lon="16.219455"><ele>1141.5</ele><time>2026-04-12T10:35:12.883Z</time></trkpt><trkpt lat="39.1660767" lon="16.21938"><ele>1142.3333333333333</ele><time>2026-04-12T10:35:14.883Z</time></trkpt><trkpt lat="39.16599" lon="16.21936"><ele>1143.1666666666665</ele><time>2026-04-12T10:35:16.883Z</time></trkpt><trkpt lat="39.1659133" lon="16.2193017"><ele>1144.0</ele><time>2026-04-12T10:35:19.883Z</time></trkpt><trkpt lat="39.1658667" lon="16.2194267"><ele>1144.0</ele><time>2026-04-12T10:35:50.882Z</time></trkpt><trkpt lat="39.165775" lon="16.2194267"><ele>1144.0</ele><time>2026-04-12T10:35:53.883Z</time></trkpt><trkpt lat="39.1657033" lon="16.21945"><ele>1144.0</ele><time>2026-04-12T10:35:54.883Z</time></trkpt><trkpt lat="39.1655817" lon="16.219465"><ele>1144.0</ele><time>2026-04-12T10:35:55.883Z</time></trkpt><trkpt lat="39.1654583" lon="16.2194817"><ele>1144.0</ele><time>2026-04-12T10:35:56.883Z</time></trkpt><trkpt lat="39.1653383" lon="16.219485"><ele>1150.6666666666665</ele><time>2026-04-12T10:35:57.883Z</time></trkpt><trkpt lat="39.1651417" lon="16.2194567"><ele>1157.3333333333333</ele><time>2026-04-12T10:35:58.883Z</time></trkpt><trkpt lat="39.1649633" lon="16.21943"><ele>1164.0</ele><time>2026-04-12T10:35:59.882Z</time></trkpt><trkpt lat="39.1647917" lon="16.2193883"><ele>1165.0</ele><time>2026-04-12T10:36:00.882Z</time></trkpt><trkpt lat="39.1646367" lon="16.2193533"><ele>1166.0</ele><time>2026-04-12T10:36:01.882Z</time></trkpt><trkpt lat="39.164505" lon="16.2193067"><ele>1167.0</ele><time>2026-04-12T10:36:02.883Z</time></trkpt><trkpt lat="39.1643783" lon="16.2192633"><ele>1168.0</ele><time>2026-04-12T10:36:03.883Z</time></trkpt><trkpt lat="39.1642533" lon="16.21921"><ele>1168.0</ele><time>2026-04-12T10:36:04.883Z</time></trkpt><trkpt lat="39.164125" lon="16.2191783"><ele>1168.0</ele><time>2026-04-12T10:36:05.883Z</time></trkpt><trkpt lat="39.1640233" lon="16.2191467"><ele>1168.0</ele><time>2026-04-12T10:36:06.882Z</time></trkpt><trkpt lat="39.16391" lon="16.2191167"><ele>1168.0</ele><time>2026-04-12T10:36:07.883Z</time></trkpt><trkpt lat="39.1638217" lon="16.2191233"><ele>1168.0</ele><time>2026-04-12T10:36:08.882Z</time></trkpt><trkpt lat="39.1637483" lon="16.2191333"><ele>1166.6</ele><time>2026-04-12T10:36:09.883Z</time></trkpt><trkpt lat="39.1636717" lon="16.2191633"><ele>1165.1999999999998</ele><time>2026-04-12T10:36:10.882Z</time></trkpt><trkpt lat="39.1635867" lon="16.2191867"><ele>1163.8</ele><time>2026-04-12T10:36:11.883Z</time></trkpt><trkpt lat="39.1635033" lon="16.2192083"><ele>1162.3999999999999</ele><time>2026-04-12T10:36:12.883Z</time></trkpt><trkpt lat="39.1634183" lon="16.21923"><ele>1161.0</ele><time>2026-04-12T10:36:13.883Z</time></trkpt><trkpt lat="39.1712517" lon="16.2265567"><ele>1167.0</ele><time>2026-04-12T10:38:49.881Z</time></trkpt><trkpt lat="39.1713308" lon="16.2266024"><ele>1173.0</ele><time>2026-04-12T10:38:50.881Z</time></trkpt><trkpt lat="39.1714122" lon="16.2266575"><ele>1179.0</ele><time>2026-04-12T10:38:51.881Z</time></trkpt><trkpt lat="39.1714983" lon="16.2267217"><ele>1185.0</ele><time>2026-04-12T10:38:52.881Z</time></trkpt><trkpt lat="39.1715767" lon="16.226775"><ele>1191.0</ele><time>2026-04-12T10:38:53.881Z</time></trkpt><trkpt lat="39.1717483" lon="16.2268467"><ele>1192.6666666666667</ele><time>2026-04-12T10:38:54.881Z</time></trkpt><trkpt lat="39.1719" lon="16.2268967"><ele>1194.3333333333335</ele><time>2026-04-12T10:38:55.881Z</time></trkpt><trkpt lat="39.172075" lon="16.2269883"><ele>1196.0</ele><time>2026-04-12T10:38:56.881Z</time></trkpt><trkpt lat="39.1722" lon="16.22706"><ele>1196.0</ele><time>2026-04-12T10:38:57.88Z</time></trkpt><trkpt lat="39.1723067" lon="16.2271333"><ele>1196.0</ele><time>2026-04-12T10:38:58.881Z</time></trkpt><trkpt lat="39.17244" lon="16.2272583"><ele>1196.0</ele><time>2026-04-12T10:38:59.88Z</time></trkpt><trkpt lat="39.1725567" lon="16.227325"><ele>1196.0</ele><time>2026-04-12T10:39:00.88Z</time></trkpt><trkpt lat="39.1726733" lon="16.2273383"><ele>1195.25</ele><time>2026-04-12T10:39:02.881Z</time></trkpt><trkpt lat="39.1727717" lon="16.2273633"><ele>1194.5</ele><time>2026-04-12T10:39:03.881Z</time></trkpt><trkpt lat="39.1728717" lon="16.2272817"><ele>1193.75</ele><time>2026-04-12T10:39:04.881Z</time></trkpt><trkpt lat="39.1729867" lon="16.2272383"><ele>1193.0</ele><time>2026-04-12T10:39:05.88Z</time></trkpt><trkpt lat="39.1730983" lon="16.2272233"><ele>1191.0</ele><time>2026-04-12T10:39:06.881Z</time></trkpt><trkpt lat="39.1732083" lon="16.227215"><ele>1189.0</ele><time>2026-04-12T10:39:07.881Z</time></trkpt><trkpt lat="39.17331" lon="16.227215"><ele>1187.0</ele><time>2026-04-12T10:39:08.881Z</time></trkpt><trkpt lat="39.1734417" lon="16.227225"><ele>1185.0</ele><time>2026-04-12T10:39:09.88Z</time></trkpt><trkpt lat="39.1736233" lon="16.2272417"><ele>1185.0</ele><time>2026-04-12T10:39:10.881Z</time></trkpt><trkpt lat="39.173755" lon="16.2272417"><ele>1185.0</ele><time>2026-04-12T10:39:11.881Z</time></trkpt><trkpt lat="39.1739183" lon="16.22724"><ele>1185.0</ele><time>2026-04-12T10:39:12.88Z</time></trkpt><trkpt lat="39.17406" lon="16.227245"><ele>1185.0</ele><time>2026-04-12T10:39:13.881Z</time></trkpt><trkpt lat="39.1741883" lon="16.2272233"><ele>1186.25</ele><time>2026-04-12T10:39:14.881Z</time></trkpt><trkpt lat="39.1743267" lon="16.2272067"><ele>1187.5</ele><time>2026-04-12T10:39:15.881Z</time></trkpt><trkpt lat="39.1744683" lon="16.2271783"><ele>1188.75</ele><time>2026-04-12T10:39:16.881Z</time></trkpt><trkpt lat="39.1745867" lon="16.2271333"><ele>1190.0</ele><time>2026-04-12T10:39:17.881Z</time></trkpt><trkpt lat="39.174675" lon="16.2271067"><ele>1190.0</ele><time>2026-04-12T10:39:18.88Z</time></trkpt><trkpt lat="39.17481" lon="16.2270633"><ele>1190.0</ele><time>2026-04-12T10:39:19.881Z</time></trkpt><trkpt lat="39.1748983" lon="16.2270117"><ele>1190.0</ele><time>2026-04-12T10:39:20.88Z</time></trkpt><trkpt lat="39.1749617" lon="16.2269883"><ele>1190.0</ele><time>2026-04-12T10:39:21.881Z</time></trkpt><trkpt lat="39.1750567" lon="16.226945"><ele>1190.0</ele><time>2026-04-12T10:39:22.881Z</time></trkpt><trkpt lat="39.1751517" lon="16.22691"><ele>1190.8</ele><time>2026-04-12T10:39:23.88Z</time></trkpt><trkpt lat="39.1752433" lon="16.226875"><ele>1191.6</ele><time>2026-04-12T10:39:24.881Z</time></trkpt><trkpt lat="39.1753333" lon="16.2268333"><ele>1192.4</ele><time>2026-04-12T10:39:25.881Z</time></trkpt><trkpt lat="39.1754617" lon="16.2267783"><ele>1193.2</ele><time>2026-04-12T10:39:26.881Z</time></trkpt><trkpt lat="39.1755617" lon="16.2267317"><ele>1194.0</ele><time>2026-04-12T10:39:27.881Z</time></trkpt><trkpt lat="39.1756583" lon="16.2266883"><ele>1194.6000000000001</ele><time>2026-04-12T10:39:28.881Z</time></trkpt><trkpt lat="39.1757467" lon="16.226645"><ele>1195.2</ele><time>2026-04-12T10:39:29.881Z</time></trkpt><trkpt lat="39.175835" lon="16.22661"><ele>1195.8000000000002</ele><time>2026-04-12T10:39:30.881Z</time></trkpt><trkpt lat="39.175935" lon="16.22658"><ele>1196.4</ele><time>2026-04-12T10:39:31.88Z</time></trkpt><trkpt lat="39.176035" lon="16.2265383"><ele>1197.0</ele><time>2026-04-12T10:39:32.881Z</time></trkpt><trkpt lat="39.1761333" lon="16.226495"><ele>1193.0</ele><time>2026-04-12T10:39:33.881Z</time></trkpt><trkpt lat="39.1759867" lon="16.2242233"><ele>1193.0</ele><time>2026-04-12T10:40:44.881Z</time></trkpt><trkpt lat="39.1758883" lon="16.2242717"><ele>1193.0</ele><time>2026-04-12T10:40:48.882Z</time></trkpt><trkpt lat="39.175835" lon="16.2243217"><ele>1193.0</ele><time>2026-04-12T10:40:49.881Z</time></trkpt><trkpt lat="39.175775" lon="16.2243583"><ele>1193.0</ele><time>2026-04-12T10:40:52.881Z</time></trkpt><trkpt lat="39.175715" lon="16.224395"><ele>1193.0</ele><time>2026-04-12T10:40:53.882Z</time></trkpt><trkpt lat="39.1756583" lon="16.2244483"><ele>1193.0</ele><time>2026-04-12T10:40:56.882Z</time></trkpt><trkpt lat="39.1757517" lon="16.2244017"><ele>1193.0</ele><time>2026-04-12T10:41:00.882Z</time></trkpt><trkpt lat="39.1757783" lon="16.2243217"><ele>1193.0</ele><time>2026-04-12T10:41:07.882Z</time></trkpt><trkpt lat="39.1758333" lon="16.2242383"><ele>1193.0</ele><time>2026-04-12T10:41:11.882Z</time></trkpt><trkpt lat="39.1774017" lon="16.224775"><ele>1191.6666666666667</ele><time>2026-04-12T10:42:00.881Z</time></trkpt><trkpt lat="39.1774033" lon="16.22486"><ele>1190.3333333333335</ele><time>2026-04-12T10:42:02.881Z</time></trkpt><trkpt lat="39.17735" lon="16.2249167"><ele>1189.0</ele><time>2026-04-12T10:42:08.882Z</time></trkpt><trkpt lat="39.1773433" lon="16.2250283"><ele>1187.6666666666667</ele><time>2026-04-12T10:42:11.882Z</time></trkpt><trkpt lat="39.17731" lon="16.2251533"><ele>1186.3333333333333</ele><time>2026-04-12T10:42:13.882Z</time></trkpt><trkpt lat="39.1773167" lon="16.2253"><ele>1185.0</ele><time>2026-04-12T10:42:15.881Z</time></trkpt><trkpt lat="39.1773283" lon="16.2254283"><ele>1181.6666666666667</ele><time>2026-04-12T10:42:17.881Z</time></trkpt><trkpt lat="39.1773733" lon="16.2255183"><ele>1178.3333333333333</ele><time>2026-04-12T10:42:19.881Z</time></trkpt><trkpt lat="39.17747" lon="16.2255183"><ele>1175.0</ele><time>2026-04-12T10:42:21.882Z</time></trkpt><trkpt lat="39.1775483" lon="16.2255133"><ele>1171.6666666666665</ele><time>2026-04-12T10:42:23.882Z</time></trkpt><trkpt lat="39.1776283" lon="16.22544"><ele>1168.3333333333333</ele><time>2026-04-12T10:42:24.882Z</time></trkpt><trkpt lat="39.177655" lon="16.2253317"><ele>1165.0</ele><time>2026-04-12T10:42:25.882Z</time></trkpt><trkpt lat="39.1776867" lon="16.2252083"><ele>1165.0</ele><time>2026-04-12T10:42:26.882Z</time></trkpt><trkpt lat="39.1777167" lon="16.225095"><ele>1165.0</ele><time>2026-04-12T10:42:27.882Z</time></trkpt><trkpt lat="39.1777233" lon="16.2249167"><ele>1165.0</ele><time>2026-04-12T10:42:28.882Z</time></trkpt><trkpt lat="39.17774" lon="16.2248367"><ele>1165.0</ele><time>2026-04-12T10:42:29.882Z</time></trkpt><trkpt lat="39.1778133" lon="16.2248033"><ele>1165.0</ele><time>2026-04-12T10:42:31.881Z</time></trkpt><trkpt lat="39.1778817" lon="16.2247417"><ele>1163.4</ele><time>2026-04-12T10:42:32.881Z</time></trkpt><trkpt lat="39.1780033" lon="16.2247083"><ele>1161.8</ele><time>2026-04-12T10:42:34.882Z</time></trkpt><trkpt lat="39.1780683" lon="16.2247217"><ele>1160.2</ele><time>2026-04-12T10:42:35.882Z</time></trkpt><trkpt lat="39.1781567" lon="16.22474"><ele>1158.6</ele><time>2026-04-12T10:42:37.882Z</time></trkpt><trkpt lat="39.1782283" lon="16.22477"><ele>1157.0</ele><time>2026-04-12T10:42:39.882Z</time></trkpt><trkpt lat="39.178305" lon="16.2248417"><ele>1157.0</ele><time>2026-04-12T10:42:41.882Z</time></trkpt><trkpt lat="39.1783917" lon="16.22491"><ele>1157.0</ele><time>2026-04-12T10:42:43.881Z</time></trkpt><trkpt lat="39.1784583" lon="16.22496"><ele>1157.0</ele><time>2026-04-12T10:42:45.882Z</time></trkpt><trkpt lat="39.17852" lon="16.2250617"><ele>1157.0</ele><time>2026-04-12T10:42:48.882Z</time></trkpt><trkpt lat="39.1785883" lon="16.2251183"><ele>1157.0</ele><time>2026-04-12T10:42:50.882Z</time></trkpt><trkpt lat="39.178645" lon="16.2252167"><ele>1157.0</ele><time>2026-04-12T10:42:53.882Z</time></trkpt><trkpt lat="39.17857" lon="16.22533"><ele>1157.0</ele><time>2026-04-12T10:42:56.882Z</time></trkpt><trkpt lat="39.1785567" lon="16.22545"><ele>1157.0</ele><time>2026-04-12T10:42:58.881Z</time></trkpt><trkpt lat="39.17856" lon="16.2255783"><ele>1157.0</ele><time>2026-04-12T10:42:59.882Z</time></trkpt><trkpt lat="39.1785583" lon="16.2256733"><ele>1157.0</ele><time>2026-04-12T10:43:00.882Z</time></trkpt><trkpt lat="39.1785717" lon="16.225765"><ele>1156.0</ele><time>2026-04-12T10:43:01.882Z</time></trkpt><trkpt lat="39.17859" lon="16.2258533"><ele>1155.0</ele><time>2026-04-12T10:43:02.882Z</time></trkpt><trkpt lat="39.1786567" lon="16.2259083"><ele>1154.0</ele><time>2026-04-12T10:43:03.882Z</time></trkpt><trkpt lat="39.1786967" lon="16.2259867"><ele>1153.0</ele><time>2026-04-12T10:43:04.882Z</time></trkpt><trkpt lat="39.1787667" lon="16.2260717"><ele>1152.0</ele><time>2026-04-12T10:43:06.882Z</time></trkpt><trkpt lat="39.17882" lon="16.2261683"><ele>1151.0</ele><time>2026-04-12T10:43:08.881Z</time></trkpt><trkpt lat="39.1788733" lon="16.2262567"><ele>1151.0</ele><time>2026-04-12T10:43:10.882Z</time></trkpt><trkpt lat="39.17888" lon="16.2263617"><ele>1151.0</ele><time>2026-04-12T10:43:11.881Z</time></trkpt><trkpt lat="39.1789183" lon="16.2264633"><ele>1151.0</ele><time>2026-04-12T10:43:12.882Z</time></trkpt><trkpt lat="39.178935" lon="16.2265583"><ele>1151.0</ele><time>2026-04-12T10:43:13.882Z</time></trkpt><trkpt lat="39.1789867" lon="16.2266867"><ele>1151.0</ele><time>2026-04-12T10:43:15.882Z</time></trkpt><trkpt lat="39.1790533" lon="16.2268067"><ele>1150.0</ele><time>2026-04-12T10:43:17.882Z</time></trkpt><trkpt lat="39.1791417" lon="16.2269017"><ele>1149.0</ele><time>2026-04-12T10:43:19.882Z</time></trkpt><trkpt lat="39.1792367" lon="16.2269333"><ele>1148.0</ele><time>2026-04-12T10:43:21.881Z</time></trkpt><trkpt lat="39.1792883" lon="16.2269983"><ele>1147.0</ele><time>2026-04-12T10:43:24.882Z</time></trkpt><trkpt lat="39.1793433" lon="16.227045"><ele>1146.0</ele><time>2026-04-12T10:43:26.882Z</time></trkpt><trkpt lat="39.1793883" lon="16.2271483"><ele>1145.0</ele><time>2026-04-12T10:43:29.882Z</time></trkpt><trkpt lat="39.1794117" lon="16.2272467"><ele>1143.8</ele><time>2026-04-12T10:43:32.882Z</time></trkpt><trkpt lat="39.1794617" lon="16.22739"><ele>1142.6</ele><time>2026-04-12T10:43:34.882Z</time></trkpt><trkpt lat="39.1795083" lon="16.22751"><ele>1141.4</ele><time>2026-04-12T10:43:36.882Z</time></trkpt><trkpt lat="39.1795483" lon="16.2276467"><ele>1140.2</ele><time>2026-04-12T10:43:38.882Z</time></trkpt><trkpt lat="39.179535" lon="16.227765"><ele>1139.0</ele><time>2026-04-12T10:43:40.882Z</time></trkpt><trkpt lat="39.17954" lon="16.2278917"><ele>1139.0</ele><time>2026-04-12T10:43:42.882Z</time></trkpt><trkpt lat="39.1795317" lon="16.2280217"><ele>1139.0</ele><time>2026-04-12T10:43:44.882Z</time></trkpt><trkpt lat="39.179635" lon="16.228045"><ele>1139.0</ele><time>2026-04-12T10:43:47.882Z</time></trkpt><trkpt lat="39.1797217" lon="16.2280433"><ele>1139.0</ele><time>2026-04-12T10:43:49.882Z</time></trkpt><trkpt lat="39.179825" lon="16.2280417"><ele>1139.0</ele><time>2026-04-12T10:43:51.881Z</time></trkpt><trkpt lat="39.1799" lon="16.2280333"><ele>1139.0</ele><time>2026-04-12T10:43:53.882Z</time></trkpt><trkpt lat="39.179785" lon="16.2281183"><ele>1139.0</ele><time>2026-04-12T10:47:24.882Z</time></trkpt><trkpt lat="39.17972" lon="16.2282417"><ele>1139.0</ele><time>2026-04-12T10:47:43.882Z</time></trkpt><trkpt lat="39.1798" lon="16.22834"><ele>1139.0</ele><time>2026-04-12T10:47:47.882Z</time></trkpt><trkpt lat="39.179895" lon="16.2283967"><ele>1135.0</ele><time>2026-04-12T10:47:48.882Z</time></trkpt><trkpt lat="39.179995" lon="16.22846"><ele>1131.0</ele><time>2026-04-12T10:47:49.881Z</time></trkpt><trkpt lat="39.1800967" lon="16.2284983"><ele>1127.0</ele><time>2026-04-12T10:47:50.882Z</time></trkpt><trkpt lat="39.1802033" lon="16.2285483"><ele>1123.0</ele><time>2026-04-12T10:47:51.881Z</time></trkpt><trkpt lat="39.1803033" lon="16.2286067"><ele>1119.0</ele><time>2026-04-12T10:47:52.882Z</time></trkpt><trkpt lat="39.1804067" lon="16.2286417"><ele>1119.0</ele><time>2026-04-12T10:47:53.882Z</time></trkpt><trkpt lat="39.1804933" lon="16.2286917"><ele>1119.0</ele><time>2026-04-12T10:47:54.881Z</time></trkpt><trkpt lat="39.1805683" lon="16.22873"><ele>1119.0</ele><time>2026-04-12T10:47:55.881Z</time></trkpt><trkpt lat="39.180655" lon="16.2287683"><ele>1119.0</ele><time>2026-04-12T10:47:56.882Z</time></trkpt><trkpt lat="39.180755" lon="16.2287617"><ele>1119.0</ele><time>2026-04-12T10:47:57.882Z</time></trkpt><trkpt lat="39.1808283" lon="16.2287817"><ele>1119.0</ele><time>2026-04-12T10:47:58.881Z</time></trkpt><trkpt lat="39.1809533" lon="16.228825"><ele>1121.6000000000001</ele><time>2026-04-12T10:48:00.881Z</time></trkpt><trkpt lat="39.1810383" lon="16.228835"><ele>1124.2</ele><time>2026-04-12T10:48:01.882Z</time></trkpt><trkpt lat="39.181135" lon="16.2288417"><ele>1126.8000000000002</ele><time>2026-04-12T10:48:02.882Z</time></trkpt><trkpt lat="39.18123" lon="16.2288183"><ele>1129.4</ele><time>2026-04-12T10:48:03.882Z</time></trkpt><trkpt lat="39.1813183" lon="16.2288183"><ele>1132.0</ele><time>2026-04-12T10:48:04.882Z</time></trkpt><trkpt lat="39.18142" lon="16.2288133"><ele>1132.0</ele><time>2026-04-12T10:48:05.882Z</time></trkpt><trkpt lat="39.1815133" lon="16.2287833"><ele>1132.0</ele><time>2026-04-12T10:48:06.882Z</time></trkpt><trkpt lat="39.181615" lon="16.2287433"><ele>1132.0</ele><time>2026-04-12T10:48:07.882Z</time></trkpt><trkpt lat="39.1817083" lon="16.2287317"><ele>1132.0</ele><time>2026-04-12T10:48:08.882Z</time></trkpt><trkpt lat="39.1817817" lon="16.2287167"><ele>1132.0</ele><time>2026-04-12T10:48:09.882Z</time></trkpt><trkpt lat="39.181845" lon="16.2287017"><ele>1132.0</ele><time>2026-04-12T10:48:10.882Z</time></trkpt><trkpt lat="39.1819667" lon="16.2286867"><ele>1133.8</ele><time>2026-04-12T10:48:12.882Z</time></trkpt><trkpt lat="39.181885" lon="16.2287617"><ele>1135.6</ele><time>2026-04-12T10:48:15.882Z</time></trkpt><trkpt lat="39.1818217" lon="16.2288733"><ele>1137.3999999999999</ele><time>2026-04-12T10:48:17.881Z</time></trkpt><trkpt lat="39.181785" lon="16.2290033"><ele>1139.2</ele><time>2026-04-12T10:48:19.881Z</time></trkpt><trkpt lat="39.1817867" lon="16.2291583"><ele>1141.0</ele><time>2026-04-12T10:48:20.882Z</time></trkpt><trkpt lat="39.1818017" lon="16.2293033"><ele>1135.75</ele><time>2026-04-12T10:48:21.881Z</time></trkpt><trkpt lat="39.1817933" lon="16.2294833"><ele>1130.5</ele><time>2026-04-12T10:48:22.882Z</time></trkpt><trkpt lat="39.1818117" lon="16.229655"><ele>1125.25</ele><time>2026-04-12T10:48:23.882Z</time></trkpt><trkpt lat="39.1818417" lon="16.2298017"><ele>1120.0</ele><time>2026-04-12T10:48:24.882Z</time></trkpt><trkpt lat="39.1818733" lon="16.2299233"><ele>1118.0</ele><time>2026-04-12T10:48:25.881Z</time></trkpt><trkpt lat="39.1818867" lon="16.2300333"><ele>1116.0</ele><time>2026-04-12T10:48:26.882Z</time></trkpt><trkpt lat="39.1819233" lon="16.230135"><ele>1114.0</ele><time>2026-04-12T10:48:27.881Z</time></trkpt><trkpt lat="39.1819817" lon="16.230235"><ele>1112.0</ele><time>2026-04-12T10:48:28.882Z</time></trkpt><trkpt lat="39.1820967" lon="16.2303083"><ele>1110.0</ele><time>2026-04-12T10:48:29.881Z</time></trkpt><trkpt lat="39.18218" lon="16.230395"><ele>1110.0</ele><time>2026-04-12T10:48:30.881Z</time></trkpt><trkpt lat="39.1822533" lon="16.2305233"><ele>1110.0</ele><time>2026-04-12T10:48:31.882Z</time></trkpt><trkpt lat="39.182325" lon="16.2306233"><ele>1110.0</ele><time>2026-04-12T10:48:32.881Z</time></trkpt><trkpt lat="39.1823917" lon="16.2307367"><ele>1110.0</ele><time>2026-04-12T10:48:33.882Z</time></trkpt><trkpt lat="39.182465" lon="16.230905"><ele>1119.0</ele><time>2026-04-12T10:48:34.881Z</time></trkpt><trkpt lat="39.1825317" lon="16.2310617"><ele>1128.0</ele><time>2026-04-12T10:48:35.882Z</time></trkpt><trkpt lat="39.182605" lon="16.2311883"><ele>1137.0</ele><time>2026-04-12T10:48:36.881Z</time></trkpt><trkpt lat="39.1826933" lon="16.2313233"><ele>1146.0</ele><time>2026-04-12T10:48:37.882Z</time></trkpt><trkpt lat="39.1827683" lon="16.2314267"><ele>1144.5</ele><time>2026-04-12T10:48:38.882Z</time></trkpt><trkpt lat="39.1828183" lon="16.2315283"><ele>1143.0</ele><time>2026-04-12T10:48:39.881Z</time></trkpt><trkpt lat="39.1828533" lon="16.2316033"><ele>1141.5</ele><time>2026-04-12T10:48:40.882Z</time></trkpt><trkpt lat="39.182895" lon="16.231665"><ele>1140.0</ele><time>2026-04-12T10:48:41.882Z</time></trkpt><trkpt lat="39.1830183" lon="16.2317367"><ele>1138.5</ele><time>2026-04-12T10:48:43.881Z</time></trkpt><trkpt lat="39.183085" lon="16.2317533"><ele>1137.0</ele><time>2026-04-12T10:48:44.882Z</time></trkpt><trkpt lat="39.1831583" lon="16.2317683"><ele>1140.0</ele><time>2026-04-12T10:48:45.882Z</time></trkpt><trkpt lat="39.183245" lon="16.2317883"><ele>1143.0</ele><time>2026-04-12T10:48:46.882Z</time></trkpt><trkpt lat="39.18332" lon="16.2318283"><ele>1146.0</ele><time>2026-04-12T10:48:47.882Z</time></trkpt><trkpt lat="39.1834067" lon="16.2318533"><ele>1149.0</ele><time>2026-04-12T10:48:48.882Z</time></trkpt><trkpt lat="39.183465" lon="16.2318883"><ele>1152.0</ele><time>2026-04-12T10:48:49.882Z</time></trkpt><trkpt lat="39.1835267" lon="16.2319267"><ele>1155.0</ele><time>2026-04-12T10:48:50.881Z</time></trkpt><trkpt lat="39.1836133" lon="16.2319917"><ele>1155.0</ele><time>2026-04-12T10:48:52.882Z</time></trkpt><trkpt lat="39.1836867" lon="16.2320267"><ele>1155.0</ele><time>2026-04-12T10:48:53.881Z</time></trkpt><trkpt lat="39.1837333" lon="16.232085"><ele>1155.0</ele><time>2026-04-12T10:48:54.882Z</time></trkpt><trkpt lat="39.1837833" lon="16.2322433"><ele>1155.0</ele><time>2026-04-12T10:48:56.882Z</time></trkpt><trkpt lat="39.1838067" lon="16.23233"><ele>1155.0</ele><time>2026-04-12T10:48:57.882Z</time></trkpt><trkpt lat="39.1838183" lon="16.2324367"><ele>1155.0</ele><time>2026-04-12T10:48:58.882Z</time></trkpt><trkpt lat="39.183865" lon="16.232515"><ele>1156.3333333333333</ele><time>2026-04-12T10:48:59.881Z</time></trkpt><trkpt lat="39.1839083" lon="16.2325933"><ele>1157.6666666666667</ele><time>2026-04-12T10:49:00.882Z</time></trkpt><trkpt lat="39.1839517" lon="16.2326983"><ele>1159.0</ele><time>2026-04-12T10:49:01.882Z</time></trkpt><trkpt lat="39.1840267" lon="16.2327867"><ele>1160.3333333333335</ele><time>2026-04-12T10:49:02.882Z</time></trkpt><trkpt lat="39.184105" lon="16.232865"><ele>1161.6666666666667</ele><time>2026-04-12T10:49:03.882Z</time></trkpt><trkpt lat="39.1841433" lon="16.232945"><ele>1163.0</ele><time>2026-04-12T10:49:04.881Z</time></trkpt><trkpt lat="39.1841833" lon="16.233015"><ele>1163.0</ele><time>2026-04-12T10:49:05.882Z</time></trkpt><trkpt lat="39.1842317" lon="16.2331217"><ele>1163.0</ele><time>2026-04-12T10:49:07.882Z</time></trkpt><trkpt lat="39.1843133" lon="16.233155"><ele>1163.0</ele><time>2026-04-12T10:49:09.882Z</time></trkpt><trkpt lat="39.1843833" lon="16.2331517"><ele>1163.0</ele><time>2026-04-12T10:49:11.882Z</time></trkpt><trkpt lat="39.1844233" lon="16.2330283"><ele>1163.0</ele><time>2026-04-12T10:49:21.881Z</time></trkpt><trkpt lat="39.1844683" lon="16.2329617"><ele>1163.0</ele><time>2026-04-12T10:49:22.882Z</time></trkpt><trkpt lat="39.1845717" lon="16.2328883"><ele>1163.0</ele><time>2026-04-12T10:49:23.882Z</time></trkpt><trkpt lat="39.1846483" lon="16.2327967"><ele>1163.0</ele><time>2026-04-12T10:49:24.882Z</time></trkpt><trkpt lat="39.184725" lon="16.2326817"><ele>1163.0</ele><time>2026-04-12T10:49:25.881Z</time></trkpt><trkpt lat="39.1848267" lon="16.2325667"><ele>1163.0</ele><time>2026-04-12T10:49:26.881Z</time></trkpt><trkpt lat="39.1849267" lon="16.2324533"><ele>1163.25</ele><time>2026-04-12T10:49:27.882Z</time></trkpt><trkpt lat="39.1850433" lon="16.23236"><ele>1163.5</ele><time>2026-04-12T10:49:28.882Z</time></trkpt><trkpt lat="39.1851367" lon="16.2322767"><ele>1163.75</ele><time>2026-04-12T10:49:29.882Z</time></trkpt><trkpt lat="39.1852267" lon="16.232165"><ele>1164.0</ele><time>2026-04-12T10:49:30.882Z</time></trkpt><trkpt lat="39.1853033" lon="16.2321017"><ele>1165.5</ele><time>2026-04-12T10:49:31.881Z</time></trkpt><trkpt lat="39.1853783" lon="16.2320317"><ele>1167.0</ele><time>2026-04-12T10:49:32.882Z</time></trkpt><trkpt lat="39.1854683" lon="16.23199"><ele>1168.5</ele><time>2026-04-12T10:49:33.882Z</time></trkpt><trkpt lat="39.185555" lon="16.2319317"><ele>1170.0</ele><time>2026-04-12T10:49:34.882Z</time></trkpt><trkpt lat="39.1856233" lon="16.231885"><ele>1171.5</ele><time>2026-04-12T10:49:35.881Z</time></trkpt><trkpt lat="39.1856867" lon="16.2318233"><ele>1173.0</ele><time>2026-04-12T10:49:36.882Z</time></trkpt><trkpt lat="39.1857567" lon="16.23175"><ele>1173.0</ele><time>2026-04-12T10:49:37.882Z</time></trkpt><trkpt lat="39.1858167" lon="16.231675"><ele>1173.0</ele><time>2026-04-12T10:49:38.882Z</time></trkpt><trkpt lat="39.1858883" lon="16.2316133"><ele>1173.0</ele><time>2026-04-12T10:49:39.881Z</time></trkpt><trkpt lat="39.1860167" lon="16.231595"><ele>1173.0</ele><time>2026-04-12T10:49:40.882Z</time></trkpt><trkpt lat="39.1861433" lon="16.231605"><ele>1173.0</ele><time>2026-04-12T10:49:41.882Z</time></trkpt><trkpt lat="39.18623" lon="16.2316417"><ele>1173.0</ele><time>2026-04-12T10:49:42.882Z</time></trkpt><trkpt lat="39.186325" lon="16.2316317"><ele>1173.0</ele><time>2026-04-12T10:49:43.882Z</time></trkpt><trkpt lat="39.1864" lon="16.2315817"><ele>1173.0</ele><time>2026-04-12T10:49:44.882Z</time></trkpt><trkpt lat="39.1864867" lon="16.2315417"><ele>1173.0</ele><time>2026-04-12T10:49:45.882Z</time></trkpt><trkpt lat="39.1865817" lon="16.2314983"><ele>1173.0</ele><time>2026-04-12T10:49:46.882Z</time></trkpt><trkpt lat="39.18668" lon="16.2314633"><ele>1168.8</ele><time>2026-04-12T10:49:47.881Z</time></trkpt><trkpt lat="39.1867483" lon="16.2314383"><ele>1164.6</ele><time>2026-04-12T10:49:48.882Z</time></trkpt><trkpt lat="39.18685" lon="16.231435"><ele>1160.4</ele><time>2026-04-12T10:49:49.881Z</time></trkpt><trkpt lat="39.18695" lon="16.2314333"><ele>1156.2</ele><time>2026-04-12T10:49:50.882Z</time></trkpt><trkpt lat="39.18703" lon="16.2314183"><ele>1152.0</ele><time>2026-04-12T10:49:51.882Z</time></trkpt><trkpt lat="39.1871333" lon="16.231415"><ele>1152.0</ele><time>2026-04-12T10:49:52.882Z</time></trkpt><trkpt lat="39.1872433" lon="16.231355"><ele>1152.0</ele><time>2026-04-12T10:49:54.882Z</time></trkpt><trkpt lat="39.1873433" lon="16.23135"><ele>1152.0</ele><time>2026-04-12T10:49:55.882Z</time></trkpt><trkpt lat="39.187435" lon="16.2313333"><ele>1152.0</ele><time>2026-04-12T10:49:56.882Z</time></trkpt><trkpt lat="39.1875483" lon="16.23131"><ele>1152.0</ele><time>2026-04-12T10:49:57.882Z</time></trkpt><trkpt lat="39.1876383" lon="16.231265"><ele>1151.2</ele><time>2026-04-12T10:49:58.881Z</time></trkpt><trkpt lat="39.1876933" lon="16.2311633"><ele>1150.4</ele><time>2026-04-12T10:49:59.882Z</time></trkpt><trkpt lat="39.187765" lon="16.23109"><ele>1149.6</ele><time>2026-04-12T10:50:00.882Z</time></trkpt><trkpt lat="39.18785" lon="16.2309983"><ele>1148.8</ele><time>2026-04-12T10:50:01.881Z</time></trkpt><trkpt lat="39.1879383" lon="16.2309133"><ele>1148.0</ele><time>2026-04-12T10:50:02.882Z</time></trkpt><trkpt lat="39.1880383" lon="16.230835"><ele>1148.0</ele><time>2026-04-12T10:50:03.881Z</time></trkpt><trkpt lat="39.1881367" lon="16.2307683"><ele>1148.0</ele><time>2026-04-12T10:50:04.882Z</time></trkpt><trkpt lat="39.1882517" lon="16.2307517"><ele>1148.0</ele><time>2026-04-12T10:50:05.882Z</time></trkpt><trkpt lat="39.1883483" lon="16.2307217"><ele>1148.0</ele><time>2026-04-12T10:50:06.882Z</time></trkpt><trkpt lat="39.188445" lon="16.230695"><ele>1148.0</ele><time>2026-04-12T10:50:07.882Z</time></trkpt><trkpt lat="39.1885283" lon="16.230725"><ele>1149.25</ele><time>2026-04-12T10:50:08.882Z</time></trkpt><trkpt lat="39.1885467" lon="16.230905"><ele>1150.5</ele><time>2026-04-12T10:50:09.882Z</time></trkpt><trkpt lat="39.1885667" lon="16.2310833"><ele>1151.75</ele><time>2026-04-12T10:50:10.881Z</time></trkpt><trkpt lat="39.1885467" lon="16.2312783"><ele>1153.0</ele><time>2026-04-12T10:50:11.882Z</time></trkpt><trkpt lat="39.18855" lon="16.2314417"><ele>1154.5</ele><time>2026-04-12T10:50:12.882Z</time></trkpt><trkpt lat="39.1885533" lon="16.2316"><ele>1156.0</ele><time>2026-04-12T10:50:13.882Z</time></trkpt><trkpt lat="39.1885633" lon="16.2317683"><ele>1157.5</ele><time>2026-04-12T10:50:14.882Z</time></trkpt><trkpt lat="39.18858" lon="16.2319267"><ele>1159.0</ele><time>2026-04-12T10:50:15.882Z</time></trkpt><trkpt lat="39.1886" lon="16.2320883"><ele>1159.0</ele><time>2026-04-12T10:50:16.882Z</time></trkpt><trkpt lat="39.1886217" lon="16.232235"><ele>1159.0</ele><time>2026-04-12T10:50:17.882Z</time></trkpt><trkpt lat="39.1886" lon="16.2323583"><ele>1159.0</ele><time>2026-04-12T10:50:18.882Z</time></trkpt><trkpt lat="39.188595" lon="16.23247"><ele>1159.0</ele><time>2026-04-12T10:50:19.881Z</time></trkpt><trkpt lat="39.188625" lon="16.2325733"><ele>1159.0</ele><time>2026-04-12T10:50:20.882Z</time></trkpt><trkpt lat="39.1886267" lon="16.2326867"><ele>1158.4</ele><time>2026-04-12T10:50:21.881Z</time></trkpt><trkpt lat="39.188655" lon="16.2328117"><ele>1157.8000000000002</ele><time>2026-04-12T10:50:22.882Z</time></trkpt><trkpt lat="39.1887033" lon="16.2329117"><ele>1157.1999999999998</ele><time>2026-04-12T10:50:23.881Z</time></trkpt><trkpt lat="39.1887267" lon="16.2330233"><ele>1156.6</ele><time>2026-04-12T10:50:24.882Z</time></trkpt><trkpt lat="39.1887483" lon="16.23313"><ele>1156.0</ele><time>2026-04-12T10:50:25.881Z</time></trkpt><trkpt lat="39.1887633" lon="16.2332467"><ele>1154.0</ele><time>2026-04-12T10:50:26.882Z</time></trkpt><trkpt lat="39.1887767" lon="16.23336"><ele>1152.0</ele><time>2026-04-12T10:50:27.882Z</time></trkpt><trkpt lat="39.188685" lon="16.23347"><ele>1150.0</ele><time>2026-04-12T10:50:28.881Z</time></trkpt><trkpt lat="39.1886083" lon="16.233565"><ele>1148.0</ele><time>2026-04-12T10:50:29.882Z</time></trkpt><trkpt lat="39.1884867" lon="16.2336667"><ele>1148.0</ele><time>2026-04-12T10:50:30.881Z</time></trkpt><trkpt lat="39.188395" lon="16.2337533"><ele>1148.0</ele><time>2026-04-12T10:50:31.882Z</time></trkpt><trkpt lat="39.1883333" lon="16.233845"><ele>1148.0</ele><time>2026-04-12T10:50:32.882Z</time></trkpt><trkpt lat="39.1883" lon="16.2339567"><ele>1148.0</ele><time>2026-04-12T10:50:33.882Z</time></trkpt><trkpt lat="39.1882683" lon="16.2340667"><ele>1148.0</ele><time>2026-04-12T10:50:34.882Z</time></trkpt><trkpt lat="39.1882317" lon="16.23417"><ele>1146.0</ele><time>2026-04-12T10:50:35.882Z</time></trkpt><trkpt lat="39.1882033" lon="16.2342817"><ele>1144.0</ele><time>2026-04-12T10:50:36.881Z</time></trkpt><trkpt lat="39.1881783" lon="16.2343933"><ele>1142.0</ele><time>2026-04-12T10:50:37.882Z</time></trkpt><trkpt lat="39.1881583" lon="16.2345083"><ele>1140.0</ele><time>2026-04-12T10:50:38.882Z</time></trkpt><trkpt lat="39.1881583" lon="16.234625"><ele>1138.0</ele><time>2026-04-12T10:50:39.881Z</time></trkpt><trkpt lat="39.1881467" lon="16.2347267"><ele>1136.0</ele><time>2026-04-12T10:50:40.881Z</time></trkpt><trkpt lat="39.1881433" lon="16.23485"><ele>1135.6</ele><time>2026-04-12T10:50:41.882Z</time></trkpt><trkpt lat="39.1881533" lon="16.2349767"><ele>1135.1999999999998</ele><time>2026-04-12T10:50:42.882Z</time></trkpt><trkpt lat="39.188155" lon="16.235085"><ele>1134.8000000000002</ele><time>2026-04-12T10:50:43.881Z</time></trkpt><trkpt lat="39.1881667" lon="16.235205"><ele>1134.4</ele><time>2026-04-12T10:50:44.882Z</time></trkpt><trkpt lat="39.1882017" lon="16.235315"><ele>1134.0</ele><time>2026-04-12T10:50:45.882Z</time></trkpt><trkpt lat="39.1883233" lon="16.2353483"><ele>1134.0</ele><time>2026-04-12T10:50:46.882Z</time></trkpt><trkpt lat="39.1884167" lon="16.2354183"><ele>1134.0</ele><time>2026-04-12T10:50:47.882Z</time></trkpt><trkpt lat="39.1885133" lon="16.235475"><ele>1134.0</ele><time>2026-04-12T10:50:48.881Z</time></trkpt><trkpt lat="39.1886483" lon="16.2354917"><ele>1134.0</ele><time>2026-04-12T10:50:49.882Z</time></trkpt><trkpt lat="39.1887683" lon="16.2355283"><ele>1134.0</ele><time>2026-04-12T10:50:50.882Z</time></trkpt><trkpt lat="39.188895" lon="16.2355567"><ele>1134.0</ele><time>2026-04-12T10:50:51.882Z</time></trkpt><trkpt lat="39.1890167" lon="16.2355667"><ele>1134.0</ele><time>2026-04-12T10:50:52.882Z</time></trkpt><trkpt lat="39.189155" lon="16.2355683"><ele>1134.0</ele><time>2026-04-12T10:50:53.882Z</time></trkpt><trkpt lat="39.189295" lon="16.2355867"><ele>1134.0</ele><time>2026-04-12T10:50:54.882Z</time></trkpt><trkpt lat="39.1894383" lon="16.235615"><ele>1134.0</ele><time>2026-04-12T10:50:55.882Z</time></trkpt><trkpt lat="39.18956" lon="16.2356317"><ele>1134.0</ele><time>2026-04-12T10:50:56.882Z</time></trkpt><trkpt lat="39.1896833" lon="16.2356383"><ele>1134.0</ele><time>2026-04-12T10:50:57.882Z</time></trkpt><trkpt lat="39.189795" lon="16.23569"><ele>1138.0</ele><time>2026-04-12T10:50:58.882Z</time></trkpt><trkpt lat="39.1899067" lon="16.235735"><ele>1142.0</ele><time>2026-04-12T10:50:59.882Z</time></trkpt><trkpt lat="39.190035" lon="16.235765"><ele>1146.0</ele><time>2026-04-12T10:51:00.882Z</time></trkpt><trkpt lat="39.19015" lon="16.2357867"><ele>1150.0</ele><time>2026-04-12T10:51:01.882Z</time></trkpt><trkpt lat="39.1902583" lon="16.2358"><ele>1150.0</ele><time>2026-04-12T10:51:02.882Z</time></trkpt><trkpt lat="39.190365" lon="16.2358"><ele>1150.0</ele><time>2026-04-12T10:51:03.882Z</time></trkpt><trkpt lat="39.190475" lon="16.2357883"><ele>1150.0</ele><time>2026-04-12T10:51:04.882Z</time></trkpt><trkpt lat="39.190585" lon="16.2357783"><ele>1150.0</ele><time>2026-04-12T10:51:05.882Z</time></trkpt><trkpt lat="39.1906983" lon="16.23575"><ele>1150.0</ele><time>2026-04-12T10:51:06.881Z</time></trkpt><trkpt lat="39.1907917" lon="16.23569"><ele>1150.4</ele><time>2026-04-12T10:51:07.882Z</time></trkpt><trkpt lat="39.1908367" lon="16.23557"><ele>1150.8</ele><time>2026-04-12T10:51:08.881Z</time></trkpt><trkpt lat="39.1909033" lon="16.2354767"><ele>1151.2</ele><time>2026-04-12T10:51:09.882Z</time></trkpt><trkpt lat="39.19099" lon="16.235395"><ele>1151.6</ele><time>2026-04-12T10:51:10.882Z</time></trkpt><trkpt lat="39.1910833" lon="16.2352817"><ele>1152.0</ele><time>2026-04-12T10:51:11.882Z</time></trkpt><trkpt lat="39.1911633" lon="16.2351733"><ele>1152.0</ele><time>2026-04-12T10:51:12.881Z</time></trkpt><trkpt lat="39.1912567" lon="16.2350633"><ele>1152.0</ele><time>2026-04-12T10:51:13.882Z</time></trkpt><trkpt lat="39.1913583" lon="16.23496"><ele>1152.0</ele><time>2026-04-12T10:51:14.882Z</time></trkpt><trkpt lat="39.191455" lon="16.2348683"><ele>1152.0</ele><time>2026-04-12T10:51:15.882Z</time></trkpt><trkpt lat="39.1915367" lon="16.234785"><ele>1152.0</ele><time>2026-04-12T10:51:16.882Z</time></trkpt><trkpt lat="39.1916233" lon="16.2346983"><ele>1152.0</ele><time>2026-04-12T10:51:17.882Z</time></trkpt><trkpt lat="39.19169" lon="16.23462"><ele>1152.0</ele><time>2026-04-12T10:51:18.882Z</time></trkpt><trkpt lat="39.1917767" lon="16.234555"><ele>1152.0</ele><time>2026-04-12T10:51:19.882Z</time></trkpt><trkpt lat="39.19187" lon="16.2345217"><ele>1152.0</ele><time>2026-04-12T10:51:20.881Z</time></trkpt><trkpt lat="39.191965" lon="16.2344983"><ele>1152.0</ele><time>2026-04-12T10:51:21.882Z</time></trkpt><trkpt lat="39.1920733" lon="16.2344817"><ele>1152.0</ele><time>2026-04-12T10:51:22.882Z</time></trkpt><trkpt lat="39.192185" lon="16.23448"><ele>1152.0</ele><time>2026-04-12T10:51:23.882Z</time></trkpt><trkpt lat="39.19231" lon="16.2345067"><ele>1152.0</ele><time>2026-04-12T10:51:24.882Z</time></trkpt><trkpt lat="39.192435" lon="16.2345333"><ele>1153.5</ele><time>2026-04-12T10:51:25.882Z</time></trkpt><trkpt lat="39.1925667" lon="16.2345617"><ele>1155.0</ele><time>2026-04-12T10:51:26.881Z</time></trkpt><trkpt lat="39.19269" lon="16.234585"><ele>1156.5</ele><time>2026-04-12T10:51:27.882Z</time></trkpt><trkpt lat="39.19282" lon="16.234635"><ele>1158.0</ele><time>2026-04-12T10:51:28.882Z</time></trkpt><trkpt lat="39.1929533" lon="16.2346917"><ele>1158.0</ele><time>2026-04-12T10:51:29.881Z</time></trkpt><trkpt lat="39.193085" lon="16.2347433"><ele>1158.0</ele><time>2026-04-12T10:51:30.882Z</time></trkpt><trkpt lat="39.19321" lon="16.23487"><ele>1158.0</ele><time>2026-04-12T10:51:31.882Z</time></trkpt><trkpt lat="39.193345" lon="16.2349417"><ele>1158.0</ele><time>2026-04-12T10:51:32.882Z</time></trkpt><trkpt lat="39.193485" lon="16.2350417"><ele>1166.3333333333333</ele><time>2026-04-12T10:51:33.882Z</time></trkpt><trkpt lat="39.1936217" lon="16.23516"><ele>1174.6666666666665</ele><time>2026-04-12T10:51:34.882Z</time></trkpt><trkpt lat="39.193725" lon="16.2352933"><ele>1183.0</ele><time>2026-04-12T10:51:35.881Z</time></trkpt><trkpt lat="39.1938233" lon="16.2354217"><ele>1183.0</ele><time>2026-04-12T10:51:36.882Z</time></trkpt><trkpt lat="39.19392" lon="16.2355483"><ele>1183.0</ele><time>2026-04-12T10:51:37.882Z</time></trkpt><trkpt lat="39.1940433" lon="16.2356617"><ele>1183.0</ele><time>2026-04-12T10:51:38.882Z</time></trkpt><trkpt lat="39.1941583" lon="16.2357583"><ele>1183.0</ele><time>2026-04-12T10:51:39.881Z</time></trkpt><trkpt lat="39.194255" lon="16.235835"><ele>1186.75</ele><time>2026-04-12T10:51:40.882Z</time></trkpt><trkpt lat="39.1943593" lon="16.2359061"><ele>1190.5</ele><time>2026-04-12T10:51:41.882Z</time></trkpt><trkpt lat="39.1944755" lon="16.2359774"><ele>1194.25</ele><time>2026-04-12T10:51:42.882Z</time></trkpt><trkpt lat="39.1945982" lon="16.2360214"><ele>1198.0</ele><time>2026-04-12T10:51:43.881Z</time></trkpt><trkpt lat="39.1946994" lon="16.2360827"><ele>1198.0</ele><time>2026-04-12T10:51:44.882Z</time></trkpt><trkpt lat="39.1947997" lon="16.2361318"><ele>1198.0</ele><time>2026-04-12T10:51:45.882Z</time></trkpt><trkpt lat="39.1949041" lon="16.2361788"><ele>1198.0</ele><time>2026-04-12T10:51:46.882Z</time></trkpt><trkpt lat="39.1950147" lon="16.2362139"><ele>1198.0</ele><time>2026-04-12T10:51:47.882Z</time></trkpt><trkpt lat="39.1951287" lon="16.2362537"><ele>1197.0</ele><time>2026-04-12T10:51:48.882Z</time></trkpt><trkpt lat="39.1952375" lon="16.236316"><ele>1196.0</ele><time>2026-04-12T10:51:49.882Z</time></trkpt><trkpt lat="39.1953381" lon="16.2364055"><ele>1195.0</ele><time>2026-04-12T10:51:50.881Z</time></trkpt><trkpt lat="39.1954426" lon="16.2365001"><ele>1194.0</ele><time>2026-04-12T10:51:51.881Z</time></trkpt><trkpt lat="39.1955469" lon="16.2365891"><ele>1194.0</ele><time>2026-04-12T10:51:52.882Z</time></trkpt><trkpt lat="39.195641" lon="16.2366753"><ele>1194.0</ele><time>2026-04-12T10:51:53.881Z</time></trkpt><trkpt lat="39.1957381" lon="16.2367486"><ele>1194.0</ele><time>2026-04-12T10:51:54.882Z</time></trkpt><trkpt lat="39.1958493" lon="16.2368136"><ele>1194.0</ele><time>2026-04-12T10:51:55.882Z</time></trkpt><trkpt lat="39.1959693" lon="16.2368849"><ele>1189.5</ele><time>2026-04-12T10:51:56.882Z</time></trkpt><trkpt lat="39.1960716" lon="16.2369512"><ele>1185.0</ele><time>2026-04-12T10:51:57.882Z</time></trkpt><trkpt lat="39.1961742" lon="16.2370125"><ele>1180.5</ele><time>2026-04-12T10:51:58.882Z</time></trkpt><trkpt lat="39.1962832" lon="16.2370656"><ele>1176.0</ele><time>2026-04-12T10:51:59.881Z</time></trkpt><trkpt lat="39.1963961" lon="16.2370958"><ele>1176.8</ele><time>2026-04-12T10:52:00.882Z</time></trkpt><trkpt lat="39.1965057" lon="16.2371428"><ele>1177.6</ele><time>2026-04-12T10:52:01.882Z</time></trkpt><trkpt lat="39.1966088" lon="16.2371976"><ele>1178.4</ele><time>2026-04-12T10:52:02.881Z</time></trkpt><trkpt lat="39.1967073" lon="16.2372527"><ele>1179.2</ele><time>2026-04-12T10:52:03.881Z</time></trkpt><trkpt lat="39.1967899" lon="16.2373078"><ele>1180.0</ele><time>2026-04-12T10:52:04.882Z</time></trkpt><trkpt lat="39.1968442" lon="16.2373872"><ele>1180.0</ele><time>2026-04-12T10:52:05.882Z</time></trkpt><trkpt lat="39.1968871" lon="16.2374827"><ele>1180.0</ele><time>2026-04-12T10:52:06.882Z</time></trkpt><trkpt lat="39.196935" lon="16.2375468"><ele>1180.0</ele><time>2026-04-12T10:52:07.882Z</time></trkpt><trkpt lat="39.1970154" lon="16.2376106"><ele>1180.0</ele><time>2026-04-12T10:52:09.882Z</time></trkpt><trkpt lat="39.1971191" lon="16.2376175"><ele>1180.0</ele><time>2026-04-12T10:52:11.882Z</time></trkpt><trkpt lat="39.1971901" lon="16.2375719"><ele>1180.0</ele><time>2026-04-12T10:52:12.882Z</time></trkpt><trkpt lat="39.1972788" lon="16.2374778"><ele>1180.5</ele><time>2026-04-12T10:52:13.882Z</time></trkpt><trkpt lat="39.1973783" lon="16.2373617"><ele>1181.0</ele><time>2026-04-12T10:52:14.881Z</time></trkpt><trkpt lat="39.197465" lon="16.237305"><ele>1181.5</ele><time>2026-04-12T10:52:15.881Z</time></trkpt><trkpt lat="39.1975667" lon="16.23725"><ele>1182.0</ele><time>2026-04-12T10:52:16.882Z</time></trkpt><trkpt lat="39.1976667" lon="16.23719"><ele>1180.0</ele><time>2026-04-12T10:52:17.882Z</time></trkpt><trkpt lat="39.1977817" lon="16.2371367"><ele>1178.0</ele><time>2026-04-12T10:52:18.882Z</time></trkpt><trkpt lat="39.197895" lon="16.2371083"><ele>1176.0</ele><time>2026-04-12T10:52:19.882Z</time></trkpt><trkpt lat="39.1980517" lon="16.2370883"><ele>1174.0</ele><time>2026-04-12T10:52:20.882Z</time></trkpt><trkpt lat="39.1981833" lon="16.2370267"><ele>1174.0</ele><time>2026-04-12T10:52:21.882Z</time></trkpt><trkpt lat="39.1983233" lon="16.23696"><ele>1174.0</ele><time>2026-04-12T10:52:22.881Z</time></trkpt><trkpt lat="39.19846" lon="16.2369083"><ele>1174.0</ele><time>2026-04-12T10:52:23.882Z</time></trkpt><trkpt lat="39.1986183" lon="16.23689"><ele>1174.0</ele><time>2026-04-12T10:52:24.882Z</time></trkpt><trkpt lat="39.1987533" lon="16.236855"><ele>1174.0</ele><time>2026-04-12T10:52:25.882Z</time></trkpt><trkpt lat="39.1988767" lon="16.2368317"><ele>1174.0</ele><time>2026-04-12T10:52:26.882Z</time></trkpt><trkpt lat="39.19901" lon="16.2367967"><ele>1174.0</ele><time>2026-04-12T10:52:27.882Z</time></trkpt><trkpt lat="39.2000417" lon="16.236745"><ele>1161.6666666666665</ele><time>2026-04-12T10:52:34.88Z</time></trkpt><trkpt lat="39.2001917" lon="16.2367667"><ele>1149.3333333333333</ele><time>2026-04-12T10:52:35.881Z</time></trkpt><trkpt lat="39.20025" lon="16.23701"><ele>1137.0</ele><time>2026-04-12T10:52:36.881Z</time></trkpt><trkpt lat="39.2003833" lon="16.2370683"><ele>1148.0</ele><time>2026-04-12T10:52:37.881Z</time></trkpt><trkpt lat="39.1999883" lon="16.2377233"><ele>1148.0</ele><time>2026-04-12T10:52:38.88Z</time></trkpt><trkpt lat="39.199975" lon="16.2379633"><ele>1148.0</ele><time>2026-04-12T10:52:39.881Z</time></trkpt><trkpt lat="39.1999667" lon="16.2382417"><ele>1148.0</ele><time>2026-04-12T10:52:40.881Z</time></trkpt><trkpt lat="39.1999833" lon="16.2384533"><ele>1151.0</ele><time>2026-04-12T10:52:41.881Z</time></trkpt><trkpt lat="39.1999467" lon="16.2387383"><ele>1154.0</ele><time>2026-04-12T10:52:42.881Z</time></trkpt><trkpt lat="39.1999967" lon="16.2388967"><ele>1157.0</ele><time>2026-04-12T10:52:43.881Z</time></trkpt><trkpt lat="39.2000433" lon="16.23905"><ele>1157.0</ele><time>2026-04-12T10:52:44.881Z</time></trkpt><trkpt lat="39.2001267" lon="16.2391967"><ele>1157.0</ele><time>2026-04-12T10:52:45.88Z</time></trkpt><trkpt lat="39.200185" lon="16.2393433"><ele>1157.0</ele><time>2026-04-12T10:52:46.881Z</time></trkpt><trkpt lat="39.2002533" lon="16.2394867"><ele>1157.0</ele><time>2026-04-12T10:52:47.88Z</time></trkpt><trkpt lat="39.2003167" lon="16.2396083"><ele>1157.0</ele><time>2026-04-12T10:52:48.881Z</time></trkpt><trkpt lat="39.2003967" lon="16.2397267"><ele>1157.0</ele><time>2026-04-12T10:52:49.881Z</time></trkpt><trkpt lat="39.2004733" lon="16.239865"><ele>1157.0</ele><time>2026-04-12T10:52:50.881Z</time></trkpt><trkpt lat="39.2005467" lon="16.23998"><ele>1157.0</ele><time>2026-04-12T10:52:51.881Z</time></trkpt><trkpt lat="39.200625" lon="16.240115"><ele>1156.0</ele><time>2026-04-12T10:52:52.881Z</time></trkpt><trkpt lat="39.2006933" lon="16.24026"><ele>1155.0</ele><time>2026-04-12T10:52:53.88Z</time></trkpt><trkpt lat="39.20072" lon="16.2403733"><ele>1154.0</ele><time>2026-04-12T10:52:54.881Z</time></trkpt><trkpt lat="39.2007517" lon="16.2405017"><ele>1153.0</ele><time>2026-04-12T10:52:55.881Z</time></trkpt><trkpt lat="39.2007717" lon="16.240625"><ele>1152.0</ele><time>2026-04-12T10:52:56.88Z</time></trkpt><trkpt lat="39.20079" lon="16.2407733"><ele>1151.5</ele><time>2026-04-12T10:52:57.878Z</time></trkpt><trkpt lat="39.2008183" lon="16.2409233"><ele>1151.0</ele><time>2026-04-12T10:52:58.881Z</time></trkpt><trkpt lat="39.2008633" lon="16.2410567"><ele>1150.5</ele><time>2026-04-12T10:52:59.881Z</time></trkpt><trkpt lat="39.2008967" lon="16.2411917"><ele>1150.0</ele><time>2026-04-12T10:53:00.881Z</time></trkpt><trkpt lat="39.200945" lon="16.2413367"><ele>1146.8</ele><time>2026-04-12T10:53:01.881Z</time></trkpt><trkpt lat="39.2009933" lon="16.2414733"><ele>1143.6</ele><time>2026-04-12T10:53:02.88Z</time></trkpt><trkpt lat="39.2010483" lon="16.2416017"><ele>1140.4</ele><time>2026-04-12T10:53:03.881Z</time></trkpt><trkpt lat="39.2010933" lon="16.24171"><ele>1137.2</ele><time>2026-04-12T10:53:04.881Z</time></trkpt><trkpt lat="39.20114" lon="16.241815"><ele>1134.0</ele><time>2026-04-12T10:53:05.881Z</time></trkpt><trkpt lat="39.2012117" lon="16.2418883"><ele>1134.0</ele><time>2026-04-12T10:53:06.88Z</time></trkpt><trkpt lat="39.2012633" lon="16.241955"><ele>1134.0</ele><time>2026-04-12T10:53:07.881Z</time></trkpt><trkpt lat="39.20137" lon="16.2418683"><ele>1134.0</ele><time>2026-04-12T10:53:09.881Z</time></trkpt><trkpt lat="39.2014717" lon="16.24173"><ele>1134.0</ele><time>2026-04-12T10:53:10.881Z</time></trkpt><trkpt lat="39.2015567" lon="16.2416467"><ele>1135.6000000000001</ele><time>2026-04-12T10:53:11.881Z</time></trkpt><trkpt lat="39.2016433" lon="16.241575"><ele>1137.2</ele><time>2026-04-12T10:53:12.881Z</time></trkpt><trkpt lat="39.20172" lon="16.2415267"><ele>1138.8000000000002</ele><time>2026-04-12T10:53:13.88Z</time></trkpt><trkpt lat="39.2018067" lon="16.2414983"><ele>1140.4</ele><time>2026-04-12T10:53:14.881Z</time></trkpt><trkpt lat="39.2019083" lon="16.2415017"><ele>1142.0</ele><time>2026-04-12T10:53:15.88Z</time></trkpt><trkpt lat="39.2019983" lon="16.2414817"><ele>1142.0</ele><time>2026-04-12T10:53:16.881Z</time></trkpt><trkpt lat="39.2021133" lon="16.2415033"><ele>1142.0</ele><time>2026-04-12T10:53:17.88Z</time></trkpt><trkpt lat="39.2022117" lon="16.241575"><ele>1142.0</ele><time>2026-04-12T10:53:18.881Z</time></trkpt><trkpt lat="39.2023083" lon="16.2416833"><ele>1142.0</ele><time>2026-04-12T10:53:19.88Z</time></trkpt><trkpt lat="39.2024083" lon="16.2417683"><ele>1139.8</ele><time>2026-04-12T10:53:20.881Z</time></trkpt><trkpt lat="39.2025067" lon="16.2418533"><ele>1137.6</ele><time>2026-04-12T10:53:21.88Z</time></trkpt><trkpt lat="39.2026017" lon="16.2419283"><ele>1135.3999999999999</ele><time>2026-04-12T10:53:22.881Z</time></trkpt><trkpt lat="39.2026867" lon="16.2420033"><ele>1133.2</ele><time>2026-04-12T10:53:23.881Z</time></trkpt><trkpt lat="39.2027667" lon="16.2420633"><ele>1131.0</ele><time>2026-04-12T10:53:24.881Z</time></trkpt><trkpt lat="39.2028417" lon="16.242115"><ele>1131.0</ele><time>2026-04-12T10:53:25.881Z</time></trkpt><trkpt lat="39.20291" lon="16.2421967"><ele>1131.0</ele><time>2026-04-12T10:53:26.881Z</time></trkpt><trkpt lat="39.20296" lon="16.2422817"><ele>1131.0</ele><time>2026-04-12T10:53:27.88Z</time></trkpt><trkpt lat="39.2029833" lon="16.2423633"><ele>1131.0</ele><time>2026-04-12T10:53:28.88Z</time></trkpt><trkpt lat="39.20297" lon="16.242485"><ele>1131.0</ele><time>2026-04-12T10:53:29.881Z</time></trkpt><trkpt lat="39.20301" lon="16.2425633"><ele>1131.0</ele><time>2026-04-12T10:53:30.881Z</time></trkpt><trkpt lat="39.2029883" lon="16.2426417"><ele>1128.0</ele><time>2026-04-12T10:53:31.881Z</time></trkpt><trkpt lat="39.2028733" lon="16.2428033"><ele>1125.0</ele><time>2026-04-12T10:53:33.881Z</time></trkpt><trkpt lat="39.2027633" lon="16.2428333"><ele>1122.0</ele><time>2026-04-12T10:53:34.88Z</time></trkpt><trkpt lat="39.2026783" lon="16.2428167"><ele>1119.0</ele><time>2026-04-12T10:53:35.881Z</time></trkpt><trkpt lat="39.2025617" lon="16.2426067"><ele>1119.0</ele><time>2026-04-12T10:53:36.881Z</time></trkpt><trkpt lat="39.2025017" lon="16.2425417"><ele>1119.0</ele><time>2026-04-12T10:53:37.881Z</time></trkpt><trkpt lat="39.2024217" lon="16.242555"><ele>1119.0</ele><time>2026-04-12T10:53:39.88Z</time></trkpt><trkpt lat="39.2023467" lon="16.2425833"><ele>1119.0</ele><time>2026-04-12T10:53:42.881Z</time></trkpt><trkpt lat="39.2024267" lon="16.2426683"><ele>1119.0</ele><time>2026-04-12T10:53:45.881Z</time></trkpt><trkpt lat="39.20249" lon="16.2427517"><ele>1119.0</ele><time>2026-04-12T10:53:46.88Z</time></trkpt><trkpt lat="39.202555" lon="16.2428467"><ele>1119.0</ele><time>2026-04-12T10:53:47.88Z</time></trkpt><trkpt lat="39.2025967" lon="16.24293"><ele>1119.0</ele><time>2026-04-12T10:53:48.881Z</time></trkpt><trkpt lat="39.202615" lon="16.2430367"><ele>1119.0</ele><time>2026-04-12T10:53:49.88Z</time></trkpt><trkpt lat="39.2025967" lon="16.24319"><ele>1119.0</ele><time>2026-04-12T10:53:50.881Z</time></trkpt><trkpt lat="39.2025667" lon="16.243315"><ele>1119.0</ele><time>2026-04-12T10:53:51.881Z</time></trkpt><trkpt lat="39.2025817" lon="16.2434217"><ele>1115.4</ele><time>2026-04-12T10:53:52.88Z</time></trkpt><trkpt lat="39.2026117" lon="16.2435167"><ele>1111.8000000000002</ele><time>2026-04-12T10:53:53.881Z</time></trkpt><trkpt lat="39.2026533" lon="16.243595"><ele>1108.1999999999998</ele><time>2026-04-12T10:53:54.881Z</time></trkpt><trkpt lat="39.20278" lon="16.2436567"><ele>1104.6</ele><time>2026-04-12T10:53:56.881Z</time></trkpt><trkpt lat="39.20285" lon="16.24369"><ele>1101.0</ele><time>2026-04-12T10:53:57.88Z</time></trkpt><trkpt lat="39.2029633" lon="16.2436567"><ele>1101.0</ele><time>2026-04-12T10:53:58.88Z</time></trkpt><trkpt lat="39.20308" lon="16.2436467"><ele>1101.0</ele><time>2026-04-12T10:53:59.881Z</time></trkpt><trkpt lat="39.2031617" lon="16.24366"><ele>1101.0</ele><time>2026-04-12T10:54:00.88Z</time></trkpt><trkpt lat="39.2032433" lon="16.2437133"><ele>1101.0</ele><time>2026-04-12T10:54:01.881Z</time></trkpt><trkpt lat="39.203315" lon="16.243785"><ele>1101.0</ele><time>2026-04-12T10:54:02.881Z</time></trkpt><trkpt lat="39.2033733" lon="16.2438933"><ele>1097.8</ele><time>2026-04-12T10:54:03.881Z</time></trkpt><trkpt lat="39.20345" lon="16.2439767"><ele>1094.6</ele><time>2026-04-12T10:54:04.881Z</time></trkpt><trkpt lat="39.2035567" lon="16.2440317"><ele>1091.4</ele><time>2026-04-12T10:54:05.881Z</time></trkpt><trkpt lat="39.2036667" lon="16.2440833"><ele>1088.2</ele><time>2026-04-12T10:54:06.881Z</time></trkpt><trkpt lat="39.203765" lon="16.244125"><ele>1085.0</ele><time>2026-04-12T10:54:07.881Z</time></trkpt><trkpt lat="39.2038617" lon="16.2441633"><ele>1085.0</ele><time>2026-04-12T10:54:08.881Z</time></trkpt><trkpt lat="39.2039433" lon="16.2442033"><ele>1085.0</ele><time>2026-04-12T10:54:09.881Z</time></trkpt><trkpt lat="39.2040383" lon="16.2442517"><ele>1085.0</ele><time>2026-04-12T10:54:10.881Z</time></trkpt><trkpt lat="39.20416" lon="16.2442567"><ele>1085.0</ele><time>2026-04-12T10:54:11.88Z</time></trkpt><trkpt lat="39.2042633" lon="16.2442833"><ele>1085.0</ele><time>2026-04-12T10:54:12.88Z</time></trkpt><trkpt lat="39.2043433" lon="16.244265"><ele>1085.0</ele><time>2026-04-12T10:54:13.881Z</time></trkpt><trkpt lat="39.204425" lon="16.24427"><ele>1085.0</ele><time>2026-04-12T10:54:14.88Z</time></trkpt><trkpt lat="39.20452" lon="16.2442267"><ele>1085.0</ele><time>2026-04-12T10:54:15.881Z</time></trkpt><trkpt lat="39.2046083" lon="16.2441933"><ele>1085.0</ele><time>2026-04-12T10:54:16.881Z</time></trkpt><trkpt lat="39.2046533" lon="16.2441283"><ele>1085.0</ele><time>2026-04-12T10:54:17.881Z</time></trkpt><trkpt lat="39.20477" lon="16.2440783"><ele>1084.0</ele><time>2026-04-12T10:54:18.881Z</time></trkpt><trkpt lat="39.204865" lon="16.2440967"><ele>1083.0</ele><time>2026-04-12T10:54:19.881Z</time></trkpt><trkpt lat="39.20497" lon="16.24414"><ele>1082.0</ele><time>2026-04-12T10:54:20.88Z</time></trkpt><trkpt lat="39.2050717" lon="16.2441717"><ele>1081.0</ele><time>2026-04-12T10:54:21.881Z</time></trkpt><trkpt lat="39.2051667" lon="16.244225"><ele>1080.0</ele><time>2026-04-12T10:54:22.881Z</time></trkpt><trkpt lat="39.2052667" lon="16.244285"><ele>1080.0</ele><time>2026-04-12T10:54:23.88Z</time></trkpt><trkpt lat="39.20536" lon="16.24436"><ele>1080.0</ele><time>2026-04-12T10:54:24.881Z</time></trkpt><trkpt lat="39.2054683" lon="16.2444267"><ele>1080.0</ele><time>2026-04-12T10:54:25.881Z</time></trkpt><trkpt lat="39.2055683" lon="16.24451"><ele>1080.0</ele><time>2026-04-12T10:54:26.881Z</time></trkpt><trkpt lat="39.2056633" lon="16.2445917"><ele>1077.5</ele><time>2026-04-12T10:54:27.881Z</time></trkpt><trkpt lat="39.2057733" lon="16.244645"><ele>1075.0</ele><time>2026-04-12T10:54:28.881Z</time></trkpt><trkpt lat="39.2058833" lon="16.2447167"><ele>1072.5</ele><time>2026-04-12T10:54:29.881Z</time></trkpt><trkpt lat="39.2060033" lon="16.2447683"><ele>1070.0</ele><time>2026-04-12T10:54:30.881Z</time></trkpt><trkpt lat="39.206115" lon="16.244825"><ele>1070.0</ele><time>2026-04-12T10:54:31.881Z</time></trkpt><trkpt lat="39.206215" lon="16.2449"><ele>1070.0</ele><time>2026-04-12T10:54:32.881Z</time></trkpt><trkpt lat="39.20632" lon="16.244985"><ele>1070.0</ele><time>2026-04-12T10:54:33.881Z</time></trkpt><trkpt lat="39.2064267" lon="16.24505"><ele>1070.0</ele><time>2026-04-12T10:54:34.881Z</time></trkpt><trkpt lat="39.20653" lon="16.245115"><ele>1068.6</ele><time>2026-04-12T10:54:35.881Z</time></trkpt><trkpt lat="39.2066283" lon="16.24518"><ele>1067.2</ele><time>2026-04-12T10:54:36.881Z</time></trkpt><trkpt lat="39.20672" lon="16.2452433"><ele>1065.8</ele><time>2026-04-12T10:54:37.88Z</time></trkpt><trkpt lat="39.2068117" lon="16.245295"><ele>1064.4</ele><time>2026-04-12T10:54:38.881Z</time></trkpt><trkpt lat="39.2069217" lon="16.2453167"><ele>1063.0</ele><time>2026-04-12T10:54:39.88Z</time></trkpt><trkpt lat="39.2070283" lon="16.245325"><ele>1063.0</ele><time>2026-04-12T10:54:40.881Z</time></trkpt><trkpt lat="39.207115" lon="16.2453467"><ele>1063.0</ele><time>2026-04-12T10:54:41.881Z</time></trkpt><trkpt lat="39.2071967" lon="16.2453083"><ele>1063.0</ele><time>2026-04-12T10:54:42.88Z</time></trkpt><trkpt lat="39.2072817" lon="16.2453233"><ele>1063.0</ele><time>2026-04-12T10:54:43.881Z</time></trkpt><trkpt lat="39.2073717" lon="16.2452133"><ele>1063.0</ele><time>2026-04-12T10:54:44.881Z</time></trkpt><trkpt lat="39.2074767" lon="16.2450883"><ele>1061.4</ele><time>2026-04-12T10:54:45.881Z</time></trkpt><trkpt lat="39.2075533" lon="16.2450167"><ele>1059.8</ele><time>2026-04-12T10:54:46.881Z</time></trkpt><trkpt lat="39.20765" lon="16.2449533"><ele>1058.2</ele><time>2026-04-12T10:54:47.881Z</time></trkpt><trkpt lat="39.207745" lon="16.24489"><ele>1056.6</ele><time>2026-04-12T10:54:48.881Z</time></trkpt><trkpt lat="39.2078417" lon="16.2448317"><ele>1055.0</ele><time>2026-04-12T10:54:49.88Z</time></trkpt><trkpt lat="39.207945" lon="16.2447867"><ele>1055.0</ele><time>2026-04-12T10:54:50.881Z</time></trkpt><trkpt lat="39.2080533" lon="16.24475"><ele>1055.0</ele><time>2026-04-12T10:54:51.88Z</time></trkpt><trkpt lat="39.2081433" lon="16.2447383"><ele>1055.0</ele><time>2026-04-12T10:54:52.881Z</time></trkpt><trkpt lat="39.2081167" lon="16.2449"><ele>1055.0</ele><time>2026-04-12T10:54:53.881Z</time></trkpt><trkpt lat="39.2081433" lon="16.245"><ele>1055.0</ele><time>2026-04-12T10:54:54.88Z</time></trkpt><trkpt lat="39.208145" lon="16.2451033"><ele>1055.0</ele><time>2026-04-12T10:54:55.88Z</time></trkpt><trkpt lat="39.2080067" lon="16.2453433"><ele>1055.0</ele><time>2026-04-12T10:54:57.88Z</time></trkpt><trkpt lat="39.2079467" lon="16.2454883"><ele>1055.0</ele><time>2026-04-12T10:54:58.881Z</time></trkpt><trkpt lat="39.207915" lon="16.2456783"><ele>1053.5</ele><time>2026-04-12T10:54:59.88Z</time></trkpt><trkpt lat="39.2078717" lon="16.2458117"><ele>1052.0</ele><time>2026-04-12T10:55:00.881Z</time></trkpt><trkpt lat="39.2078083" lon="16.24596"><ele>1050.5</ele><time>2026-04-12T10:55:01.88Z</time></trkpt><trkpt lat="39.20777" lon="16.2460933"><ele>1049.0</ele><time>2026-04-12T10:55:02.88Z</time></trkpt><trkpt lat="39.2077333" lon="16.2462417"><ele>1049.0</ele><time>2026-04-12T10:55:03.881Z</time></trkpt><trkpt lat="39.20772" lon="16.2463683"><ele>1049.0</ele><time>2026-04-12T10:55:04.88Z</time></trkpt><trkpt lat="39.2077017" lon="16.246495"><ele>1049.0</ele><time>2026-04-12T10:55:05.881Z</time></trkpt><trkpt lat="39.2077033" lon="16.2466867"><ele>1049.0</ele><time>2026-04-12T10:55:06.881Z</time></trkpt><trkpt lat="39.2077117" lon="16.246845"><ele>1046.6000000000001</ele><time>2026-04-12T10:55:07.88Z</time></trkpt><trkpt lat="39.2077583" lon="16.2469233"><ele>1044.2</ele><time>2026-04-12T10:55:08.88Z</time></trkpt><trkpt lat="39.2077817" lon="16.2470333"><ele>1041.8000000000002</ele><time>2026-04-12T10:55:09.881Z</time></trkpt><trkpt lat="39.207815" lon="16.24711"><ele>1039.4</ele><time>2026-04-12T10:55:10.881Z</time></trkpt><trkpt lat="39.20791" lon="16.247005"><ele>1037.0</ele><time>2026-04-12T10:55:11.881Z</time></trkpt><trkpt lat="39.20801" lon="16.246875"><ele>1037.0</ele><time>2026-04-12T10:55:12.881Z</time></trkpt><trkpt lat="39.2081017" lon="16.2467467"><ele>1037.0</ele><time>2026-04-12T10:55:13.881Z</time></trkpt><trkpt lat="39.2082" lon="16.246625"><ele>1037.0</ele><time>2026-04-12T10:55:14.881Z</time></trkpt><trkpt lat="39.2082683" lon="16.2465067"><ele>1037.0</ele><time>2026-04-12T10:55:15.88Z</time></trkpt><trkpt lat="39.20835" lon="16.246415"><ele>1037.6</ele><time>2026-04-12T10:55:17.881Z</time></trkpt><trkpt lat="39.2084133" lon="16.2464117"><ele>1038.2</ele><time>2026-04-12T10:55:19.881Z</time></trkpt><trkpt lat="39.20847" lon="16.2464783"><ele>1038.8</ele><time>2026-04-12T10:55:22.881Z</time></trkpt><trkpt lat="39.2084617" lon="16.24659"><ele>1039.4</ele><time>2026-04-12T10:55:24.881Z</time></trkpt><trkpt lat="39.2083517" lon="16.246745"><ele>1040.0</ele><time>2026-04-12T10:55:25.881Z</time></trkpt><trkpt lat="39.20825" lon="16.2468967"><ele>1039.4</ele><time>2026-04-12T10:55:26.881Z</time></trkpt><trkpt lat="39.2081617" lon="16.2470167"><ele>1038.8</ele><time>2026-04-12T10:55:27.88Z</time></trkpt><trkpt lat="39.2080467" lon="16.247115"><ele>1038.2</ele><time>2026-04-12T10:55:28.88Z</time></trkpt><trkpt lat="39.2079767" lon="16.2471517"><ele>1037.6</ele><time>2026-04-12T10:55:29.881Z</time></trkpt><trkpt lat="39.2079" lon="16.2471567"><ele>1037.0</ele><time>2026-04-12T10:55:30.88Z</time></trkpt><trkpt lat="39.207805" lon="16.247205"><ele>1037.0</ele><time>2026-04-12T10:55:31.88Z</time></trkpt><trkpt lat="39.2077133" lon="16.247195"><ele>1037.0</ele><time>2026-04-12T10:55:32.881Z</time></trkpt><trkpt lat="39.2076167" lon="16.247165"><ele>1037.0</ele><time>2026-04-12T10:55:33.881Z</time></trkpt><trkpt lat="39.2075117" lon="16.2471233"><ele>1037.0</ele><time>2026-04-12T10:55:34.881Z</time></trkpt><trkpt lat="39.2073933" lon="16.2470967"><ele>1037.0</ele><time>2026-04-12T10:55:35.881Z</time></trkpt><trkpt lat="39.2073" lon="16.2470683"><ele>1037.5</ele><time>2026-04-12T10:55:36.881Z</time></trkpt><trkpt lat="39.20722" lon="16.2470317"><ele>1038.0</ele><time>2026-04-12T10:55:37.881Z</time></trkpt><trkpt lat="39.2071417" lon="16.2469817"><ele>1038.5</ele><time>2026-04-12T10:55:38.88Z</time></trkpt><trkpt lat="39.2070733" lon="16.2469667"><ele>1039.0</ele><time>2026-04-12T10:55:39.88Z</time></trkpt><trkpt lat="39.2069917" lon="16.246925"><ele>1039.5</ele><time>2026-04-12T10:55:40.88Z</time></trkpt><trkpt lat="39.2069033" lon="16.24691"><ele>1040.0</ele><time>2026-04-12T10:55:41.881Z</time></trkpt><trkpt lat="39.2068217" lon="16.2469217"><ele>1040.0</ele><time>2026-04-12T10:55:42.881Z</time></trkpt><trkpt lat="39.206745" lon="16.246945"><ele>1040.0</ele><time>2026-04-12T10:55:43.88Z</time></trkpt><trkpt lat="39.2066683" lon="16.2470083"><ele>1040.0</ele><time>2026-04-12T10:55:44.881Z</time></trkpt><trkpt lat="39.2065667" lon="16.24717"><ele>1040.0</ele><time>2026-04-12T10:55:45.881Z</time></trkpt><trkpt lat="39.2064867" lon="16.2472533"><ele>1040.0</ele><time>2026-04-12T10:55:46.881Z</time></trkpt><trkpt lat="39.206415" lon="16.2473367"><ele>1038.6</ele><time>2026-04-12T10:55:47.88Z</time></trkpt><trkpt lat="39.2063417" lon="16.2474033"><ele>1037.2</ele><time>2026-04-12T10:55:48.881Z</time></trkpt><trkpt lat="39.2062733" lon="16.2475067"><ele>1035.8</ele><time>2026-04-12T10:55:49.88Z</time></trkpt><trkpt lat="39.2061833" lon="16.247555"><ele>1034.4</ele><time>2026-04-12T10:55:50.881Z</time></trkpt><trkpt lat="39.2060833" lon="16.2476133"><ele>1033.0</ele><time>2026-04-12T10:55:51.881Z</time></trkpt><trkpt lat="39.20599" lon="16.2476717"><ele>1033.0</ele><time>2026-04-12T10:55:52.881Z</time></trkpt><trkpt lat="39.2058767" lon="16.247715"><ele>1033.0</ele><time>2026-04-12T10:55:53.88Z</time></trkpt><trkpt lat="39.20575" lon="16.24774"><ele>1033.0</ele><time>2026-04-12T10:55:54.88Z</time></trkpt><trkpt lat="39.2056333" lon="16.2477483"><ele>1033.0</ele><time>2026-04-12T10:55:55.88Z</time></trkpt><trkpt lat="39.2055133" lon="16.2477517"><ele>1031.0</ele><time>2026-04-12T10:55:56.88Z</time></trkpt><trkpt lat="39.2054" lon="16.247745"><ele>1029.0</ele><time>2026-04-12T10:55:57.88Z</time></trkpt><trkpt lat="39.2052933" lon="16.2477633"><ele>1027.0</ele><time>2026-04-12T10:55:58.881Z</time></trkpt><trkpt lat="39.2051933" lon="16.24775"><ele>1025.0</ele><time>2026-04-12T10:55:59.881Z</time></trkpt><trkpt lat="39.2050917" lon="16.2477367"><ele>1023.0</ele><time>2026-04-12T10:56:00.881Z</time></trkpt><trkpt lat="39.2050317" lon="16.2476683"><ele>1023.0</ele><time>2026-04-12T10:56:01.881Z</time></trkpt><trkpt lat="39.2049733" lon="16.2476"><ele>1023.0</ele><time>2026-04-12T10:56:02.88Z</time></trkpt><trkpt lat="39.204905" lon="16.2475467"><ele>1023.0</ele><time>2026-04-12T10:56:03.881Z</time></trkpt><trkpt lat="39.204845" lon="16.2474967"><ele>1023.0</ele><time>2026-04-12T10:56:04.881Z</time></trkpt><trkpt lat="39.2047817" lon="16.2474483"><ele>1023.0</ele><time>2026-04-12T10:56:05.881Z</time></trkpt><trkpt lat="39.2047283" lon="16.2474"><ele>1023.0</ele><time>2026-04-12T10:56:06.881Z</time></trkpt><trkpt lat="39.2046617" lon="16.2473733"><ele>1023.0</ele><time>2026-04-12T10:56:07.881Z</time></trkpt><trkpt lat="39.2045633" lon="16.2473683"><ele>1021.5999999999999</ele><time>2026-04-12T10:56:08.881Z</time></trkpt><trkpt lat="39.2044633" lon="16.247345"><ele>1020.1999999999999</ele><time>2026-04-12T10:56:09.881Z</time></trkpt><trkpt lat="39.2043533" lon="16.2473183"><ele>1018.8</ele><time>2026-04-12T10:56:10.881Z</time></trkpt><trkpt lat="39.20426" lon="16.2473"><ele>1017.4</ele><time>2026-04-12T10:56:11.881Z</time></trkpt><trkpt lat="39.2041717" lon="16.24729"><ele>1016.0</ele><time>2026-04-12T10:56:12.881Z</time></trkpt><trkpt lat="39.2040917" lon="16.2472817"><ele>1020.8</ele><time>2026-04-12T10:56:13.881Z</time></trkpt><trkpt lat="39.203995" lon="16.24727"><ele>1025.6</ele><time>2026-04-12T10:56:14.881Z</time></trkpt><trkpt lat="39.2039033" lon="16.2472617"><ele>1030.4</ele><time>2026-04-12T10:56:15.881Z</time></trkpt><trkpt lat="39.203805" lon="16.2472433"><ele>1035.2</ele><time>2026-04-12T10:56:16.881Z</time></trkpt><trkpt lat="39.2037233" lon="16.24723"><ele>1040.0</ele><time>2026-04-12T10:56:17.881Z</time></trkpt><trkpt lat="39.2036367" lon="16.2471983"><ele>1040.0</ele><time>2026-04-12T10:56:18.881Z</time></trkpt><trkpt lat="39.2035783" lon="16.2471133"><ele>1040.0</ele><time>2026-04-12T10:56:19.881Z</time></trkpt><trkpt lat="39.20352" lon="16.2470417"><ele>1040.0</ele><time>2026-04-12T10:56:20.88Z</time></trkpt><trkpt lat="39.2034567" lon="16.2470067"><ele>1040.0</ele><time>2026-04-12T10:56:21.881Z</time></trkpt><trkpt lat="39.2033833" lon="16.246975"><ele>1040.0</ele><time>2026-04-12T10:56:22.881Z</time></trkpt><trkpt lat="39.2033183" lon="16.2469617"><ele>1040.0</ele><time>2026-04-12T10:56:23.88Z</time></trkpt><trkpt lat="39.2032317" lon="16.2469667"><ele>1041.0</ele><time>2026-04-12T10:56:24.881Z</time></trkpt><trkpt lat="39.2031417" lon="16.246975"><ele>1042.0</ele><time>2026-04-12T10:56:25.881Z</time></trkpt><trkpt lat="39.20305" lon="16.2469733"><ele>1043.0</ele><time>2026-04-12T10:56:26.88Z</time></trkpt><trkpt lat="39.20296" lon="16.246965"><ele>1044.0</ele><time>2026-04-12T10:56:27.88Z</time></trkpt><trkpt lat="39.202855" lon="16.246965"><ele>1045.0</ele><time>2026-04-12T10:56:28.881Z</time></trkpt><trkpt lat="39.2027583" lon="16.247"><ele>1045.0</ele><time>2026-04-12T10:56:29.88Z</time></trkpt><trkpt lat="39.2026633" lon="16.2470383"><ele>1045.0</ele><time>2026-04-12T10:56:30.881Z</time></trkpt><trkpt lat="39.2025883" lon="16.2470817"><ele>1045.0</ele><time>2026-04-12T10:56:31.88Z</time></trkpt><trkpt lat="39.2025167" lon="16.2471333"><ele>1045.0</ele><time>2026-04-12T10:56:32.881Z</time></trkpt><trkpt lat="39.2024383" lon="16.2472883"><ele>1045.0</ele><time>2026-04-12T10:56:33.881Z</time></trkpt><trkpt lat="39.202395" lon="16.2474383"><ele>1039.6</ele><time>2026-04-12T10:56:34.881Z</time></trkpt><trkpt lat="39.2023883" lon="16.2475967"><ele>1034.2</ele><time>2026-04-12T10:56:35.88Z</time></trkpt><trkpt lat="39.2023883" lon="16.2477417"><ele>1028.8</ele><time>2026-04-12T10:56:36.881Z</time></trkpt><trkpt lat="39.202355" lon="16.2478433"><ele>1023.4</ele><time>2026-04-12T10:56:37.881Z</time></trkpt><trkpt lat="39.202365" lon="16.2479683"><ele>1018.0</ele><time>2026-04-12T10:56:38.881Z</time></trkpt><trkpt lat="39.2024583" lon="16.2481667"><ele>1015.6666666666666</ele><time>2026-04-12T10:56:39.881Z</time></trkpt><trkpt lat="39.202565" lon="16.248365"><ele>1013.3333333333333</ele><time>2026-04-12T10:56:40.881Z</time></trkpt><trkpt lat="39.2026617" lon="16.248525"><ele>1011.0</ele><time>2026-04-12T10:56:41.881Z</time></trkpt><trkpt lat="39.2027083" lon="16.24865"><ele>1011.0</ele><time>2026-04-12T10:56:42.881Z</time></trkpt><trkpt lat="39.2027817" lon="16.2488233"><ele>1010.9999999999999</ele><time>2026-04-12T10:56:43.881Z</time></trkpt><trkpt lat="39.2028167" lon="16.2489567"><ele>1010.9999999999999</ele><time>2026-04-12T10:56:44.881Z</time></trkpt><trkpt lat="39.20285" lon="16.2490533"><ele>1011.0</ele><time>2026-04-12T10:56:45.88Z</time></trkpt><trkpt lat="39.2028683" lon="16.2491667"><ele>1011.0</ele><time>2026-04-12T10:56:46.881Z</time></trkpt><trkpt lat="39.202875" lon="16.2492883"><ele>1011.0</ele><time>2026-04-12T10:56:47.881Z</time></trkpt><trkpt lat="39.2028783" lon="16.2494083"><ele>1011.0</ele><time>2026-04-12T10:56:48.881Z</time></trkpt><trkpt lat="39.2028567" lon="16.24951"><ele>1011.0</ele><time>2026-04-12T10:56:49.881Z</time></trkpt><trkpt lat="39.2028317" lon="16.24962"><ele>1011.0</ele><time>2026-04-12T10:56:50.88Z</time></trkpt><trkpt lat="39.202795" lon="16.2497067"><ele>1011.0</ele><time>2026-04-12T10:56:51.881Z</time></trkpt><trkpt lat="39.2027717" lon="16.2498217"><ele>1011.0</ele><time>2026-04-12T10:56:52.881Z</time></trkpt><trkpt lat="39.202735" lon="16.2499383"><ele>1012.3333333333334</ele><time>2026-04-12T10:56:53.881Z</time></trkpt><trkpt lat="39.2027" lon="16.2500433"><ele>1013.6666666666667</ele><time>2026-04-12T10:56:54.881Z</time></trkpt><trkpt lat="39.2026817" lon="16.25014"><ele>1015.0</ele><time>2026-04-12T10:56:55.881Z</time></trkpt><trkpt lat="39.2026617" lon="16.2502483"><ele>1016.3333333333334</ele><time>2026-04-12T10:56:56.881Z</time></trkpt><trkpt lat="39.20272" lon="16.2503467"><ele>1017.6666666666667</ele><time>2026-04-12T10:56:58.881Z</time></trkpt><trkpt lat="39.2028067" lon="16.250365"><ele>1019.0</ele><time>2026-04-12T10:57:00.881Z</time></trkpt><trkpt lat="39.20288" lon="16.250395"><ele>1019.0</ele><time>2026-04-12T10:57:01.881Z</time></trkpt><trkpt lat="39.2029583" lon="16.25044"><ele>1019.0000000000001</ele><time>2026-04-12T10:57:02.881Z</time></trkpt><trkpt lat="39.2030283" lon="16.2505017"><ele>1019.0000000000001</ele><time>2026-04-12T10:57:03.881Z</time></trkpt><trkpt lat="39.2031" lon="16.25058"><ele>1019.0</ele><time>2026-04-12T10:57:04.88Z</time></trkpt><trkpt lat="39.2031717" lon="16.25066"><ele>1019.0</ele><time>2026-04-12T10:57:05.881Z</time></trkpt><trkpt lat="39.20324" lon="16.2507417"><ele>1022.0</ele><time>2026-04-12T10:57:06.881Z</time></trkpt><trkpt lat="39.2033233" lon="16.2508267"><ele>1025.0</ele><time>2026-04-12T10:57:07.88Z</time></trkpt><trkpt lat="39.20339" lon="16.25096"><ele>1028.0</ele><time>2026-04-12T10:57:08.881Z</time></trkpt><trkpt lat="39.2034233" lon="16.2511033"><ele>1031.0</ele><time>2026-04-12T10:57:09.881Z</time></trkpt><trkpt lat="39.2034417" lon="16.25124"><ele>1031.0</ele><time>2026-04-12T10:57:10.881Z</time></trkpt><trkpt lat="39.203455" lon="16.2513233"><ele>1031.0</ele><time>2026-04-12T10:57:11.881Z</time></trkpt><trkpt lat="39.20341" lon="16.2513917"><ele>1031.0</ele><time>2026-04-12T10:57:13.881Z</time></trkpt><trkpt lat="39.203475" lon="16.2514483"><ele>1031.0</ele><time>2026-04-12T10:57:25.88Z</time></trkpt><trkpt lat="39.2035367" lon="16.25151"><ele>1031.0</ele><time>2026-04-12T10:57:49.881Z</time></trkpt><trkpt lat="39.2034917" lon="16.2516367"><ele>1031.0</ele><time>2026-04-12T10:57:51.88Z</time></trkpt><trkpt lat="39.203475" lon="16.25175"><ele>1029.8333333333335</ele><time>2026-04-12T10:57:53.881Z</time></trkpt><trkpt lat="39.2034567" lon="16.2518333"><ele>1028.6666666666667</ele><time>2026-04-12T10:57:54.881Z</time></trkpt><trkpt lat="39.203435" lon="16.251915"><ele>1027.5</ele><time>2026-04-12T10:57:55.881Z</time></trkpt><trkpt lat="39.203415" lon="16.2520083"><ele>1026.3333333333333</ele><time>2026-04-12T10:57:56.881Z</time></trkpt><trkpt lat="39.20341" lon="16.2520983"><ele>1025.1666666666665</ele><time>2026-04-12T10:57:57.88Z</time></trkpt><trkpt lat="39.203435" lon="16.25219"><ele>1024.0</ele><time>2026-04-12T10:57:58.881Z</time></trkpt><trkpt lat="39.203435" lon="16.252335"><ele>1022.4000000000001</ele><time>2026-04-12T10:58:00.88Z</time></trkpt><trkpt lat="39.2034383" lon="16.2524817"><ele>1020.8000000000001</ele><time>2026-04-12T10:58:02.881Z</time></trkpt><trkpt lat="39.2034883" lon="16.2525783"><ele>1019.1999999999999</ele><time>2026-04-12T10:58:05.881Z</time></trkpt><trkpt lat="39.20356" lon="16.2526283"><ele>1017.5999999999999</ele><time>2026-04-12T10:58:07.881Z</time></trkpt><trkpt lat="39.2036833" lon="16.252655"><ele>1016.0</ele><time>2026-04-12T10:58:09.881Z</time></trkpt><trkpt lat="39.2038067" lon="16.2526767"><ele>1016.0000000000001</ele><time>2026-04-12T10:58:11.88Z</time></trkpt><trkpt lat="39.2038733" lon="16.2526933"><ele>1016.0</ele><time>2026-04-12T10:58:12.881Z</time></trkpt><trkpt lat="39.2039517" lon="16.2527083"><ele>1016.0</ele><time>2026-04-12T10:58:13.881Z</time></trkpt><trkpt lat="39.2040317" lon="16.2527133"><ele>1016.0</ele><time>2026-04-12T10:58:14.881Z</time></trkpt><trkpt lat="39.204125" lon="16.2527217"><ele>1016.0000000000001</ele><time>2026-04-12T10:58:15.88Z</time></trkpt><trkpt lat="39.20423" lon="16.25275"><ele>1016.0</ele><time>2026-04-12T10:58:16.88Z</time></trkpt><trkpt lat="39.2043467" lon="16.2527667"><ele>1016.5999999999999</ele><time>2026-04-12T10:58:17.88Z</time></trkpt><trkpt lat="39.204435" lon="16.2527967"><ele>1017.1999999999999</ele><time>2026-04-12T10:58:18.881Z</time></trkpt><trkpt lat="39.2045783" lon="16.25281"><ele>1017.8000000000001</ele><time>2026-04-12T10:58:19.881Z</time></trkpt><trkpt lat="39.2046817" lon="16.2527833"><ele>1018.4000000000001</ele><time>2026-04-12T10:58:20.881Z</time></trkpt><trkpt lat="39.2047667" lon="16.2527717"><ele>1019.0</ele><time>2026-04-12T10:58:21.881Z</time></trkpt><trkpt lat="39.2048483" lon="16.2527633"><ele>1016.8000000000001</ele><time>2026-04-12T10:58:22.88Z</time></trkpt><trkpt lat="39.204915" lon="16.2527417"><ele>1014.6000000000001</ele><time>2026-04-12T10:58:23.881Z</time></trkpt><trkpt lat="39.2050017" lon="16.252745"><ele>1012.4</ele><time>2026-04-12T10:58:24.881Z</time></trkpt><trkpt lat="39.2050767" lon="16.2527683"><ele>1010.2</ele><time>2026-04-12T10:58:25.881Z</time></trkpt><trkpt lat="39.2051767" lon="16.2527417"><ele>1008.0</ele><time>2026-04-12T10:58:27.881Z</time></trkpt><trkpt lat="39.2053083" lon="16.2526583"><ele>1008.0</ele><time>2026-04-12T10:58:29.881Z</time></trkpt><trkpt lat="39.2053783" lon="16.2526583"><ele>1008.0</ele><time>2026-04-12T10:58:30.881Z</time></trkpt><trkpt lat="39.2054533" lon="16.2526783"><ele>1008.0</ele><time>2026-04-12T10:58:31.881Z</time></trkpt><trkpt lat="39.205515" lon="16.252725"><ele>1008.0</ele><time>2026-04-12T10:58:32.881Z</time></trkpt><trkpt lat="39.205565" lon="16.25278"><ele>1008.0</ele><time>2026-04-12T10:58:33.881Z</time></trkpt><trkpt lat="39.20553" lon="16.252955"><ele>1008.0</ele><time>2026-04-12T10:58:34.88Z</time></trkpt><trkpt lat="39.2055367" lon="16.2530883"><ele>1006.8333333333334</ele><time>2026-04-12T10:58:35.881Z</time></trkpt><trkpt lat="39.2055733" lon="16.2531867"><ele>1005.6666666666667</ele><time>2026-04-12T10:58:36.88Z</time></trkpt><trkpt lat="39.2056133" lon="16.2532583"><ele>1004.5</ele><time>2026-04-12T10:58:37.881Z</time></trkpt><trkpt lat="39.2057083" lon="16.2533717"><ele>1003.3333333333334</ele><time>2026-04-12T10:58:39.88Z</time></trkpt><trkpt lat="39.2057617" lon="16.253425"><ele>1002.1666666666667</ele><time>2026-04-12T10:58:40.881Z</time></trkpt><trkpt lat="39.2058233" lon="16.2534683"><ele>1001.0</ele><time>2026-04-12T10:58:41.88Z</time></trkpt><trkpt lat="39.2058883" lon="16.2534833"><ele>1000.5999999999999</ele><time>2026-04-12T10:58:42.881Z</time></trkpt><trkpt lat="39.206005" lon="16.2534367"><ele>1000.1999999999999</ele><time>2026-04-12T10:58:44.88Z</time></trkpt><trkpt lat="39.2060583" lon="16.2533933"><ele>999.8000000000001</ele><time>2026-04-12T10:58:45.881Z</time></trkpt><trkpt lat="39.2061517" lon="16.25337"><ele>999.4000000000001</ele><time>2026-04-12T10:58:46.88Z</time></trkpt><trkpt lat="39.206265" lon="16.2533383"><ele>999.0</ele><time>2026-04-12T10:58:47.881Z</time></trkpt><trkpt lat="39.20634" lon="16.25329"><ele>999.0</ele><time>2026-04-12T10:58:48.88Z</time></trkpt><trkpt lat="39.206415" lon="16.2531917"><ele>999.0</ele><time>2026-04-12T10:58:50.881Z</time></trkpt><trkpt lat="39.206445" lon="16.2530967"><ele>999.0</ele><time>2026-04-12T10:58:51.881Z</time></trkpt><trkpt lat="39.2064433" lon="16.2529967"><ele>999.0</ele><time>2026-04-12T10:58:52.881Z</time></trkpt><trkpt lat="39.2064583" lon="16.2528933"><ele>999.0</ele><time>2026-04-12T10:58:53.881Z</time></trkpt><trkpt lat="39.2064883" lon="16.25278"><ele>999.0</ele><time>2026-04-12T10:58:54.881Z</time></trkpt><trkpt lat="39.2065133" lon="16.25267"><ele>996.6666666666666</ele><time>2026-04-12T10:58:55.881Z</time></trkpt><trkpt lat="39.2065233" lon="16.2525683"><ele>994.3333333333333</ele><time>2026-04-12T10:58:56.881Z</time></trkpt><trkpt lat="39.2065167" lon="16.2524517"><ele>992.0</ele><time>2026-04-12T10:58:57.881Z</time></trkpt><trkpt lat="39.2065183" lon="16.25235"><ele>989.6666666666666</ele><time>2026-04-12T10:58:58.881Z</time></trkpt><trkpt lat="39.206505" lon="16.2522533"><ele>987.3333333333333</ele><time>2026-04-12T10:58:59.881Z</time></trkpt><trkpt lat="39.20648" lon="16.2521483"><ele>985.0</ele><time>2026-04-12T10:59:00.881Z</time></trkpt><trkpt lat="39.2064083" lon="16.2520783"><ele>984.9999999999999</ele><time>2026-04-12T10:59:01.881Z</time></trkpt><trkpt lat="39.2063517" lon="16.2520067"><ele>985.0</ele><time>2026-04-12T10:59:02.881Z</time></trkpt><trkpt lat="39.206305" lon="16.2519383"><ele>985.0</ele><time>2026-04-12T10:59:03.88Z</time></trkpt><trkpt lat="39.206235" lon="16.2519083"><ele>985.0</ele><time>2026-04-12T10:59:04.881Z</time></trkpt><trkpt lat="39.2061317" lon="16.2518167"><ele>984.9999999999999</ele><time>2026-04-12T10:59:06.88Z</time></trkpt><trkpt lat="39.20607" lon="16.251775"><ele>985.0</ele><time>2026-04-12T10:59:07.881Z</time></trkpt><trkpt lat="39.2059567" lon="16.25169"><ele>984.9999999999999</ele><time>2026-04-12T10:59:09.881Z</time></trkpt><trkpt lat="39.2058833" lon="16.2516583"><ele>985.0</ele><time>2026-04-12T10:59:10.881Z</time></trkpt><trkpt lat="39.20581" lon="16.251615"><ele>985.0</ele><time>2026-04-12T10:59:11.881Z</time></trkpt><trkpt lat="39.205735" lon="16.2516"><ele>985.0</ele><time>2026-04-12T10:59:12.88Z</time></trkpt><trkpt lat="39.2056433" lon="16.25157"><ele>984.9999999999999</ele><time>2026-04-12T10:59:13.881Z</time></trkpt><trkpt lat="39.2055617" lon="16.2515417"><ele>985.0</ele><time>2026-04-12T10:59:14.88Z</time></trkpt><trkpt lat="39.2054867" lon="16.2515"><ele>987.8333333333333</ele><time>2026-04-12T10:59:15.881Z</time></trkpt><trkpt lat="39.2054067" lon="16.2514683"><ele>990.6666666666666</ele><time>2026-04-12T10:59:16.881Z</time></trkpt><trkpt lat="39.2053267" lon="16.2514283"><ele>993.5</ele><time>2026-04-12T10:59:17.881Z</time></trkpt><trkpt lat="39.2053117" lon="16.251345"><ele>996.3333333333333</ele><time>2026-04-12T10:59:18.88Z</time></trkpt><trkpt lat="39.2053017" lon="16.2512383"><ele>999.1666666666666</ele><time>2026-04-12T10:59:19.881Z</time></trkpt><trkpt lat="39.2052883" lon="16.2511283"><ele>1002.0</ele><time>2026-04-12T10:59:20.881Z</time></trkpt><trkpt lat="39.2053033" lon="16.251025"><ele>1002.2</ele><time>2026-04-12T10:59:21.881Z</time></trkpt><trkpt lat="39.2053233" lon="16.2509133"><ele>1002.4000000000001</ele><time>2026-04-12T10:59:22.88Z</time></trkpt><trkpt lat="39.20538" lon="16.2508417"><ele>1002.5999999999999</ele><time>2026-04-12T10:59:23.881Z</time></trkpt><trkpt lat="39.2054367" lon="16.2507783"><ele>1002.8</ele><time>2026-04-12T10:59:24.881Z</time></trkpt><trkpt lat="39.2055167" lon="16.2506433"><ele>1003.0</ele><time>2026-04-12T10:59:26.881Z</time></trkpt><trkpt lat="39.2056467" lon="16.2505367"><ele>996.5999999999999</ele><time>2026-04-12T10:59:28.881Z</time></trkpt><trkpt lat="39.2057233" lon="16.2504717"><ele>990.1999999999999</ele><time>2026-04-12T10:59:30.881Z</time></trkpt><trkpt lat="39.205815" lon="16.250435"><ele>983.8</ele><time>2026-04-12T10:59:32.88Z</time></trkpt><trkpt lat="39.20595" lon="16.2504317"><ele>977.4</ele><time>2026-04-12T10:59:34.881Z</time></trkpt><trkpt lat="39.2060717" lon="16.2504367"><ele>971.0</ele><time>2026-04-12T10:59:36.88Z</time></trkpt><trkpt lat="39.2061917" lon="16.2504767"><ele>971.0</ele><time>2026-04-12T10:59:38.88Z</time></trkpt><trkpt lat="39.2062767" lon="16.2505167"><ele>970.9999999999999</ele><time>2026-04-12T10:59:39.88Z</time></trkpt><trkpt lat="39.2063917" lon="16.25058"><ele>970.9999999999999</ele><time>2026-04-12T10:59:40.881Z</time></trkpt><trkpt lat="39.2064833" lon="16.250615"><ele>971.0</ele><time>2026-04-12T10:59:41.88Z</time></trkpt><trkpt lat="39.206555" lon="16.2506267"><ele>971.0</ele><time>2026-04-12T10:59:42.88Z</time></trkpt><trkpt lat="39.2066467" lon="16.2505683"><ele>969.5000000000001</ele><time>2026-04-12T10:59:44.881Z</time></trkpt><trkpt lat="39.2067267" lon="16.250555"><ele>968.0</ele><time>2026-04-12T10:59:46.881Z</time></trkpt><trkpt lat="39.206785" lon="16.2506233"><ele>966.5</ele><time>2026-04-12T10:59:50.88Z</time></trkpt><trkpt lat="39.2067917" lon="16.2507517"><ele>965.0</ele><time>2026-04-12T10:59:52.88Z</time></trkpt><trkpt lat="39.2067883" lon="16.25085"><ele>963.5000000000001</ele><time>2026-04-12T10:59:53.881Z</time></trkpt><trkpt lat="39.2067767" lon="16.2509933"><ele>962.0</ele><time>2026-04-12T10:59:54.881Z</time></trkpt><trkpt lat="39.20682" lon="16.2511333"><ele>961.9999999999999</ele><time>2026-04-12T10:59:56.881Z</time></trkpt><trkpt lat="39.2068433" lon="16.2512167"><ele>962.0</ele><time>2026-04-12T10:59:57.88Z</time></trkpt><trkpt lat="39.2068733" lon="16.2513017"><ele>961.9999999999999</ele><time>2026-04-12T10:59:58.881Z</time></trkpt><trkpt lat="39.20692" lon="16.251365"><ele>961.9999999999999</ele><time>2026-04-12T10:59:59.88Z</time></trkpt><trkpt lat="39.2069533" lon="16.2514483"><ele>962.0</ele><time>2026-04-12T11:00:00.881Z</time></trkpt><trkpt lat="39.206985" lon="16.2515233"><ele>961.9999999999999</ele><time>2026-04-12T11:00:01.88Z</time></trkpt><trkpt lat="39.207025" lon="16.25159"><ele>961.9999999999999</ele><time>2026-04-12T11:00:02.881Z</time></trkpt><trkpt lat="39.207115" lon="16.2516667"><ele>963.8</ele><time>2026-04-12T11:00:04.88Z</time></trkpt><trkpt lat="39.2072083" lon="16.2517267"><ele>965.6</ele><time>2026-04-12T11:00:06.881Z</time></trkpt><trkpt lat="39.20731" lon="16.251805"><ele>967.3999999999999</ele><time>2026-04-12T11:00:08.881Z</time></trkpt><trkpt lat="39.207375" lon="16.25191"><ele>969.1999999999999</ele><time>2026-04-12T11:00:10.881Z</time></trkpt><trkpt lat="39.2074183" lon="16.252025"><ele>971.0</ele><time>2026-04-12T11:00:12.881Z</time></trkpt><trkpt lat="39.2074467" lon="16.252105"><ele>967.4</ele><time>2026-04-12T11:00:13.881Z</time></trkpt><trkpt lat="39.2074917" lon="16.2522533"><ele>963.8</ele><time>2026-04-12T11:00:15.88Z</time></trkpt><trkpt lat="39.2075217" lon="16.2523833"><ele>960.1999999999999</ele><time>2026-04-12T11:00:17.881Z</time></trkpt><trkpt lat="39.2075683" lon="16.252535"><ele>956.5999999999999</ele><time>2026-04-12T11:00:19.88Z</time></trkpt><trkpt lat="39.2075933" lon="16.2526383"><ele>953.0</ele><time>2026-04-12T11:00:20.88Z</time></trkpt><trkpt lat="39.2076283" lon="16.2527317"><ele>953.0</ele><time>2026-04-12T11:00:21.881Z</time></trkpt><trkpt lat="39.2076633" lon="16.252885"><ele>953.0</ele><time>2026-04-12T11:00:23.881Z</time></trkpt><trkpt lat="39.2076833" lon="16.2529667"><ele>953.0</ele><time>2026-04-12T11:00:24.881Z</time></trkpt><trkpt lat="39.2076983" lon="16.2530683"><ele>953.0</ele><time>2026-04-12T11:00:25.881Z</time></trkpt><trkpt lat="39.2077267" lon="16.25323"><ele>953.0</ele><time>2026-04-12T11:00:27.881Z</time></trkpt><trkpt lat="39.2077483" lon="16.2533233"><ele>953.4</ele><time>2026-04-12T11:00:28.881Z</time></trkpt><trkpt lat="39.2077767" lon="16.2534283"><ele>953.8</ele><time>2026-04-12T11:00:29.88Z</time></trkpt><trkpt lat="39.2077817" lon="16.2535517"><ele>954.2</ele><time>2026-04-12T11:00:30.881Z</time></trkpt><trkpt lat="39.20777" lon="16.253705"><ele>954.6</ele><time>2026-04-12T11:00:31.881Z</time></trkpt><trkpt lat="39.207765" lon="16.2538533"><ele>955.0</ele><time>2026-04-12T11:00:32.881Z</time></trkpt><trkpt lat="39.2077567" lon="16.2539917"><ele>953.9999999999999</ele><time>2026-04-12T11:00:33.88Z</time></trkpt><trkpt lat="39.2077483" lon="16.254125"><ele>953.0</ele><time>2026-04-12T11:00:34.881Z</time></trkpt><trkpt lat="39.2077333" lon="16.2542383"><ele>952.0</ele><time>2026-04-12T11:00:35.88Z</time></trkpt><trkpt lat="39.2077183" lon="16.2543533"><ele>951.0</ele><time>2026-04-12T11:00:36.88Z</time></trkpt><trkpt lat="39.2077183" lon="16.2544517"><ele>949.9999999999999</ele><time>2026-04-12T11:00:37.881Z</time></trkpt><trkpt lat="39.2077233" lon="16.2545467"><ele>949.0</ele><time>2026-04-12T11:00:38.881Z</time></trkpt><trkpt lat="39.2077317" lon="16.254695"><ele>946.4000000000001</ele><time>2026-04-12T11:00:40.881Z</time></trkpt><trkpt lat="39.2077417" lon="16.254815"><ele>943.8000000000001</ele><time>2026-04-12T11:00:42.881Z</time></trkpt><trkpt lat="39.20768" lon="16.2549533"><ele>941.1999999999999</ele><time>2026-04-12T11:00:44.881Z</time></trkpt><trkpt lat="39.20762" lon="16.255075"><ele>938.5999999999999</ele><time>2026-04-12T11:00:46.881Z</time></trkpt><trkpt lat="39.2075833" lon="16.2551967"><ele>936.0</ele><time>2026-04-12T11:00:48.88Z</time></trkpt><trkpt lat="39.20757" lon="16.2552783"><ele>936.0</ele><time>2026-04-12T11:00:50.881Z</time></trkpt><trkpt lat="39.2075933" lon="16.255375"><ele>935.9999999999999</ele><time>2026-04-12T11:00:53.881Z</time></trkpt><trkpt lat="39.20753" lon="16.25546"><ele>935.9999999999999</ele><time>2026-04-12T11:00:56.881Z</time></trkpt><trkpt lat="39.2074567" lon="16.25552"><ele>936.0</ele><time>2026-04-12T11:00:58.88Z</time></trkpt><trkpt lat="39.2073683" lon="16.2556233"><ele>936.0</ele><time>2026-04-12T11:01:00.881Z</time></trkpt><trkpt lat="39.20731" lon="16.2557167"><ele>934.6666666666666</ele><time>2026-04-12T11:01:02.881Z</time></trkpt><trkpt lat="39.2072783" lon="16.2557983"><ele>933.3333333333333</ele><time>2026-04-12T11:01:03.881Z</time></trkpt><trkpt lat="39.2072467" lon="16.25587"><ele>932.0</ele><time>2026-04-12T11:01:04.881Z</time></trkpt><trkpt lat="39.2071817" lon="16.2559417"><ele>930.6666666666666</ele><time>2026-04-12T11:01:06.881Z</time></trkpt><trkpt lat="39.2070833" lon="16.2560017"><ele>929.3333333333333</ele><time>2026-04-12T11:01:08.881Z</time></trkpt><trkpt lat="39.2070083" lon="16.2560717"><ele>928.0</ele><time>2026-04-12T11:01:09.881Z</time></trkpt><trkpt lat="39.20693" lon="16.2561417"><ele>928.0</ele><time>2026-04-12T11:01:10.881Z</time></trkpt><trkpt lat="39.20688" lon="16.2562317"><ele>928.0</ele><time>2026-04-12T11:01:11.881Z</time></trkpt><trkpt lat="39.206795" lon="16.2563517"><ele>928.0</ele><time>2026-04-12T11:01:13.881Z</time></trkpt><trkpt lat="39.2067117" lon="16.25646"><ele>928.0</ele><time>2026-04-12T11:01:15.881Z</time></trkpt><trkpt lat="39.2066517" lon="16.256495"><ele>928.0</ele><time>2026-04-12T11:01:16.88Z</time></trkpt><trkpt lat="39.2065883" lon="16.2565283"><ele>923.9999999999999</ele><time>2026-04-12T11:01:17.881Z</time></trkpt><trkpt lat="39.2065317" lon="16.2565683"><ele>920.0</ele><time>2026-04-12T11:01:18.88Z</time></trkpt><trkpt lat="39.20647" lon="16.25664"><ele>916.0</ele><time>2026-04-12T11:01:19.881Z</time></trkpt><trkpt lat="39.2063933" lon="16.25668"><ele>912.0</ele><time>2026-04-12T11:01:21.881Z</time></trkpt><trkpt lat="39.2062967" lon="16.2567033"><ele>907.9999999999999</ele><time>2026-04-12T11:01:23.881Z</time></trkpt><trkpt lat="39.2062" lon="16.256755"><ele>904.0</ele><time>2026-04-12T11:01:25.88Z</time></trkpt><trkpt lat="39.206115" lon="16.25672"><ele>903.6</ele><time>2026-04-12T11:01:27.881Z</time></trkpt><trkpt lat="39.2060267" lon="16.2567033"><ele>903.2</ele><time>2026-04-12T11:01:29.881Z</time></trkpt><trkpt lat="39.20594" lon="16.2566333"><ele>902.8000000000001</ele><time>2026-04-12T11:01:31.881Z</time></trkpt><trkpt lat="39.2058283" lon="16.2565983"><ele>902.4000000000001</ele><time>2026-04-12T11:01:33.881Z</time></trkpt><trkpt lat="39.2057783" lon="16.2565333"><ele>902.0</ele><time>2026-04-12T11:01:34.881Z</time></trkpt><trkpt lat="39.2057017" lon="16.2565367"><ele>902.6666666666667</ele><time>2026-04-12T11:01:35.88Z</time></trkpt><trkpt lat="39.205625" lon="16.25658"><ele>903.3333333333334</ele><time>2026-04-12T11:01:36.881Z</time></trkpt><trkpt lat="39.2055567" lon="16.2565833"><ele>904.0</ele><time>2026-04-12T11:01:37.881Z</time></trkpt><trkpt lat="39.2054767" lon="16.2566067"><ele>904.6666666666667</ele><time>2026-04-12T11:01:38.88Z</time></trkpt><trkpt lat="39.2053917" lon="16.25665"><ele>905.3333333333334</ele><time>2026-04-12T11:01:39.881Z</time></trkpt><trkpt lat="39.2053233" lon="16.2566767"><ele>906.0</ele><time>2026-04-12T11:01:40.881Z</time></trkpt><trkpt lat="39.2052567" lon="16.2567167"><ele>906.0</ele><time>2026-04-12T11:01:41.881Z</time></trkpt><trkpt lat="39.205195" lon="16.2567783"><ele>906.0</ele><time>2026-04-12T11:01:42.88Z</time></trkpt><trkpt lat="39.205145" lon="16.25683"><ele>906.0</ele><time>2026-04-12T11:01:43.88Z</time></trkpt><trkpt lat="39.205045" lon="16.25696"><ele>906.0</ele><time>2026-04-12T11:01:45.881Z</time></trkpt><trkpt lat="39.2050333" lon="16.2570417"><ele>906.0</ele><time>2026-04-12T11:01:47.88Z</time></trkpt><trkpt lat="39.20502" lon="16.2571217"><ele>906.0</ele><time>2026-04-12T11:01:49.881Z</time></trkpt><trkpt lat="39.2051117" lon="16.25706"><ele>906.0</ele><time>2026-04-12T11:01:53.881Z</time></trkpt><trkpt lat="39.20518" lon="16.2570183"><ele>906.0</ele><time>2026-04-12T11:01:55.88Z</time></trkpt><trkpt lat="39.2052733" lon="16.257015"><ele>906.0</ele><time>2026-04-12T11:01:58.881Z</time></trkpt><trkpt lat="39.20538" lon="16.257025"><ele>906.0</ele><time>2026-04-12T11:02:00.881Z</time></trkpt><trkpt lat="39.2054333" lon="16.2571183"><ele>906.0</ele><time>2026-04-12T11:02:02.88Z</time></trkpt><trkpt lat="39.205435" lon="16.257215"><ele>906.0</ele><time>2026-04-12T11:02:04.88Z</time></trkpt><trkpt lat="39.2054617" lon="16.25733"><ele>904.2857142857141</ele><time>2026-04-12T11:02:06.881Z</time></trkpt><trkpt lat="39.2054783" lon="16.25741"><ele>902.5714285714286</ele><time>2026-04-12T11:02:07.881Z</time></trkpt><trkpt lat="39.2055183" lon="16.257495"><ele>900.8571428571428</ele><time>2026-04-12T11:02:08.881Z</time></trkpt><trkpt lat="39.20555" lon="16.2575767"><ele>899.1428571428571</ele><time>2026-04-12T11:02:09.881Z</time></trkpt><trkpt lat="39.205585" lon="16.2576517"><ele>897.4285714285713</ele><time>2026-04-12T11:02:10.881Z</time></trkpt><trkpt lat="39.20561" lon="16.2577533"><ele>895.7142857142857</ele><time>2026-04-12T11:02:11.881Z</time></trkpt><trkpt lat="39.20564" lon="16.2578267"><ele>894.0</ele><time>2026-04-12T11:02:12.881Z</time></trkpt><trkpt lat="39.2056683" lon="16.257995"><ele>892.8571428571428</ele><time>2026-04-12T11:02:14.881Z</time></trkpt><trkpt lat="39.2056833" lon="16.2580767"><ele>891.7142857142857</ele><time>2026-04-12T11:02:15.881Z</time></trkpt><trkpt lat="39.2057083" lon="16.25816"><ele>890.5714285714286</ele><time>2026-04-12T11:02:16.881Z</time></trkpt><trkpt lat="39.2057317" lon="16.2582483"><ele>889.4285714285713</ele><time>2026-04-12T11:02:17.88Z</time></trkpt><trkpt lat="39.2057533" lon="16.258345"><ele>888.2857142857143</ele><time>2026-04-12T11:02:18.881Z</time></trkpt><trkpt lat="39.205775" lon="16.2584383"><ele>887.1428571428571</ele><time>2026-04-12T11:02:19.88Z</time></trkpt><trkpt lat="39.2057983" lon="16.25853"><ele>886.0</ele><time>2026-04-12T11:02:20.88Z</time></trkpt><trkpt lat="39.2058167" lon="16.258635"><ele>886.0</ele><time>2026-04-12T11:02:21.881Z</time></trkpt><trkpt lat="39.2058267" lon="16.258735"><ele>886.0</ele><time>2026-04-12T11:02:22.881Z</time></trkpt><trkpt lat="39.2058433" lon="16.2588183"><ele>886.0</ele><time>2026-04-12T11:02:23.88Z</time></trkpt><trkpt lat="39.2058533" lon="16.25891"><ele>886.0</ele><time>2026-04-12T11:02:24.881Z</time></trkpt><trkpt lat="39.20585" lon="16.259005"><ele>886.0</ele><time>2026-04-12T11:02:25.881Z</time></trkpt><trkpt lat="39.2058367" lon="16.25911"><ele>886.0</ele><time>2026-04-12T11:02:26.881Z</time></trkpt><trkpt lat="39.2058267" lon="16.259195"><ele>886.0</ele><time>2026-04-12T11:02:27.881Z</time></trkpt><trkpt lat="39.20582" lon="16.2593333"><ele>885.8</ele><time>2026-04-12T11:02:29.881Z</time></trkpt><trkpt lat="39.20579" lon="16.2594933"><ele>885.5999999999999</ele><time>2026-04-12T11:02:31.881Z</time></trkpt><trkpt lat="39.2057433" lon="16.2596267"><ele>885.4</ele><time>2026-04-12T11:02:33.881Z</time></trkpt><trkpt lat="39.2056833" lon="16.2597667"><ele>885.2</ele><time>2026-04-12T11:02:35.881Z</time></trkpt><trkpt lat="39.20566" lon="16.259845"><ele>885.0</ele><time>2026-04-12T11:02:36.881Z</time></trkpt><trkpt lat="39.2056317" lon="16.2599217"><ele>883.6666666666666</ele><time>2026-04-12T11:02:37.881Z</time></trkpt><trkpt lat="39.2055817" lon="16.2600217"><ele>882.3333333333333</ele><time>2026-04-12T11:02:38.881Z</time></trkpt><trkpt lat="39.20556" lon="16.2601067"><ele>881.0</ele><time>2026-04-12T11:02:39.88Z</time></trkpt><trkpt lat="39.20553" lon="16.2601917"><ele>879.6666666666666</ele><time>2026-04-12T11:02:40.881Z</time></trkpt><trkpt lat="39.20551" lon="16.26027"><ele>878.3333333333333</ele><time>2026-04-12T11:02:41.881Z</time></trkpt><trkpt lat="39.2055117" lon="16.2604167"><ele>877.0</ele><time>2026-04-12T11:02:43.881Z</time></trkpt><trkpt lat="39.2055117" lon="16.2605583"><ele>873.4000000000001</ele><time>2026-04-12T11:02:45.881Z</time></trkpt><trkpt lat="39.2055183" lon="16.2606833"><ele>869.8000000000001</ele><time>2026-04-12T11:02:47.88Z</time></trkpt><trkpt lat="39.2055867" lon="16.2607417"><ele>866.2</ele><time>2026-04-12T11:02:49.881Z</time></trkpt><trkpt lat="39.2056517" lon="16.260845"><ele>862.6</ele><time>2026-04-12T11:02:51.881Z</time></trkpt><trkpt lat="39.2057183" lon="16.2609733"><ele>859.0</ele><time>2026-04-12T11:02:53.881Z</time></trkpt><trkpt lat="39.2057433" lon="16.26105"><ele>858.8000000000001</ele><time>2026-04-12T11:02:54.881Z</time></trkpt><trkpt lat="39.2057783" lon="16.2612067"><ele>858.6000000000001</ele><time>2026-04-12T11:02:56.881Z</time></trkpt><trkpt lat="39.2058067" lon="16.2613"><ele>858.4</ele><time>2026-04-12T11:02:58.881Z</time></trkpt><trkpt lat="39.2057733" lon="16.2614383"><ele>858.2</ele><time>2026-04-12T11:03:01.88Z</time></trkpt><trkpt lat="39.2057033" lon="16.2614633"><ele>858.0</ele><time>2026-04-12T11:03:04.881Z</time></trkpt><trkpt lat="39.20563" lon="16.26152"><ele>854.5999999999999</ele><time>2026-04-12T11:03:07.881Z</time></trkpt><trkpt lat="39.2055733" lon="16.2615567"><ele>851.1999999999999</ele><time>2026-04-12T11:03:09.881Z</time></trkpt><trkpt lat="39.205475" lon="16.2615867"><ele>847.8</ele><time>2026-04-12T11:03:11.88Z</time></trkpt><trkpt lat="39.205395" lon="16.2617033"><ele>844.4</ele><time>2026-04-12T11:03:13.881Z</time></trkpt><trkpt lat="39.2053717" lon="16.261815"><ele>841.0</ele><time>2026-04-12T11:03:14.88Z</time></trkpt><trkpt lat="39.2053767" lon="16.2619167"><ele>841.0</ele><time>2026-04-12T11:03:15.881Z</time></trkpt><trkpt lat="39.2053783" lon="16.262015"><ele>841.0</ele><time>2026-04-12T11:03:16.881Z</time></trkpt><trkpt lat="39.2053933" lon="16.2621567"><ele>841.0</ele><time>2026-04-12T11:03:17.881Z</time></trkpt><trkpt lat="39.2053933" lon="16.262295"><ele>841.0</ele><time>2026-04-12T11:03:19.881Z</time></trkpt><trkpt lat="39.2053383" lon="16.2624683"><ele>841.0</ele><time>2026-04-12T11:03:21.88Z</time></trkpt><trkpt lat="39.2053817" lon="16.2625283"><ele>838.3333333333333</ele><time>2026-04-12T11:03:24.88Z</time></trkpt><trkpt lat="39.205385" lon="16.2626367"><ele>835.6666666666666</ele><time>2026-04-12T11:03:26.881Z</time></trkpt><trkpt lat="39.2053967" lon="16.262775"><ele>833.0</ele><time>2026-04-12T11:03:28.881Z</time></trkpt><trkpt lat="39.2054017" lon="16.2628817"><ele>830.3333333333333</ele><time>2026-04-12T11:03:30.881Z</time></trkpt><trkpt lat="39.2054183" lon="16.2629667"><ele>827.6666666666666</ele><time>2026-04-12T11:03:32.881Z</time></trkpt><trkpt lat="39.2053867" lon="16.2630933"><ele>825.0</ele><time>2026-04-12T11:03:34.881Z</time></trkpt><trkpt lat="39.2054083" lon="16.26318"><ele>821.4</ele><time>2026-04-12T11:03:36.88Z</time></trkpt><trkpt lat="39.2053783" lon="16.2633233"><ele>817.8</ele><time>2026-04-12T11:03:38.881Z</time></trkpt><trkpt lat="39.2053567" lon="16.2634067"><ele>814.2</ele><time>2026-04-12T11:03:39.881Z</time></trkpt><trkpt lat="39.2053233" lon="16.2635467"><ele>810.6</ele><time>2026-04-12T11:03:41.88Z</time></trkpt><trkpt lat="39.2053083" lon="16.26367"><ele>807.0</ele><time>2026-04-12T11:03:43.88Z</time></trkpt><trkpt lat="39.20528" lon="16.26378"><ele>807.0</ele><time>2026-04-12T11:03:45.881Z</time></trkpt><trkpt lat="39.2052283" lon="16.2638267"><ele>807.0</ele><time>2026-04-12T11:03:47.881Z</time></trkpt><trkpt lat="39.2051783" lon="16.26389"><ele>807.0</ele><time>2026-04-12T11:03:49.881Z</time></trkpt><trkpt lat="39.2051233" lon="16.263975"><ele>807.0</ele><time>2026-04-12T11:03:52.881Z</time></trkpt><trkpt lat="39.205105" lon="16.2641433"><ele>807.0</ele><time>2026-04-12T11:04:39.88Z</time></trkpt><trkpt lat="39.2050817" lon="16.2642517"><ele>807.0</ele><time>2026-04-12T11:04:42.881Z</time></trkpt><trkpt lat="39.2051133" lon="16.2643283"><ele>805.1666666666666</ele><time>2026-04-12T11:04:43.881Z</time></trkpt><trkpt lat="39.2051417" lon="16.2644017"><ele>803.3333333333333</ele><time>2026-04-12T11:04:44.881Z</time></trkpt><trkpt lat="39.2051833" lon="16.2644683"><ele>801.5</ele><time>2026-04-12T11:04:45.881Z</time></trkpt><trkpt lat="39.20522" lon="16.26454"><ele>799.6666666666666</ele><time>2026-04-12T11:04:46.881Z</time></trkpt><trkpt lat="39.2052533" lon="16.2646833"><ele>797.8333333333333</ele><time>2026-04-12T11:04:48.881Z</time></trkpt><trkpt lat="39.2052433" lon="16.26478"><ele>796.0</ele><time>2026-04-12T11:04:50.881Z</time></trkpt><trkpt lat="39.2051733" lon="16.26477"><ele>795.9999999999999</ele><time>2026-04-12T11:04:51.881Z</time></trkpt><trkpt lat="39.205115" lon="16.264735"><ele>796.0</ele><time>2026-04-12T11:04:52.88Z</time></trkpt><trkpt lat="39.20508" lon="16.2646417"><ele>796.0</ele><time>2026-04-12T11:04:53.881Z</time></trkpt><trkpt lat="39.205055" lon="16.2645367"><ele>796.0</ele><time>2026-04-12T11:04:54.881Z</time></trkpt><trkpt lat="39.204995" lon="16.2644067"><ele>795.9999999999999</ele><time>2026-04-12T11:04:56.88Z</time></trkpt><trkpt lat="39.2049167" lon="16.2643283"><ele>796.0</ele><time>2026-04-12T11:04:58.881Z</time></trkpt><trkpt lat="39.2048533" lon="16.2643083"><ele>793.1999999999999</ele><time>2026-04-12T11:04:59.881Z</time></trkpt><trkpt lat="39.20476" lon="16.2642933"><ele>790.4</ele><time>2026-04-12T11:05:01.88Z</time></trkpt><trkpt lat="39.2047067" lon="16.26434"><ele>787.6</ele><time>2026-04-12T11:05:02.881Z</time></trkpt><trkpt lat="39.2046063" lon="16.2644221"><ele>784.8</ele><time>2026-04-12T11:05:04.881Z</time></trkpt><trkpt lat="39.2045458" lon="16.2645964"><ele>782.0</ele><time>2026-04-12T11:05:05.88Z</time></trkpt><trkpt lat="39.2044888" lon="16.264769"><ele>778.25</ele><time>2026-04-12T11:05:06.881Z</time></trkpt><trkpt lat="39.2044356" lon="16.2648935"><ele>774.5</ele><time>2026-04-12T11:05:07.88Z</time></trkpt><trkpt lat="39.2043784" lon="16.265"><ele>770.75</ele><time>2026-04-12T11:05:08.881Z</time></trkpt><trkpt lat="39.2043199" lon="16.2650951"><ele>767.0</ele><time>2026-04-12T11:05:09.88Z</time></trkpt><trkpt lat="39.2042509" lon="16.2652921"><ele>767.0</ele><time>2026-04-12T11:05:12.881Z</time></trkpt><trkpt lat="39.2042162" lon="16.2653751"><ele>767.0</ele><time>2026-04-12T11:05:13.938Z</time></trkpt><trkpt lat="39.2041759" lon="16.2654604"><ele>767.0</ele><time>2026-04-12T11:05:15.831Z</time></trkpt><trkpt lat="39.2041774" lon="16.2656695"><ele>767.0</ele><time>2026-04-12T11:05:17.889Z</time></trkpt><trkpt lat="39.2041768" lon="16.2658392"><ele>767.0</ele><time>2026-04-12T11:05:18.881Z</time></trkpt><trkpt lat="39.2042078" lon="16.2660465"><ele>765.3333333333333</ele><time>2026-04-12T11:05:22.87Z</time></trkpt><trkpt lat="39.2041862" lon="16.2661985"><ele>763.6666666666666</ele><time>2026-04-12T11:05:23.88Z</time></trkpt><trkpt lat="39.2041309" lon="16.2661567"><ele>762.0</ele><time>2026-04-12T11:05:24.88Z</time></trkpt><trkpt lat="39.2040816" lon="16.2660958"><ele>760.3333333333334</ele><time>2026-04-12T11:05:25.881Z</time></trkpt><trkpt lat="39.2039862" lon="16.2660963"><ele>758.6666666666667</ele><time>2026-04-12T11:05:27.88Z</time></trkpt><trkpt lat="39.2039434" lon="16.2661848"><ele>757.0</ele><time>2026-04-12T11:05:29.88Z</time></trkpt><trkpt lat="39.2039643" lon="16.2662776"><ele>753.8</ele><time>2026-04-12T11:05:30.881Z</time></trkpt><trkpt lat="39.2039748" lon="16.26639"><ele>750.6</ele><time>2026-04-12T11:05:31.881Z</time></trkpt><trkpt lat="39.2039619" lon="16.2664959"><ele>747.4</ele><time>2026-04-12T11:05:32.88Z</time></trkpt><trkpt lat="39.2039659" lon="16.2666258"><ele>744.1999999999999</ele><time>2026-04-12T11:05:33.881Z</time></trkpt><trkpt lat="39.2039492" lon="16.2667664"><ele>741.0</ele><time>2026-04-12T11:05:34.881Z</time></trkpt><trkpt lat="39.203949" lon="16.2669168"><ele>740.5</ele><time>2026-04-12T11:05:35.881Z</time></trkpt><trkpt lat="39.2039401" lon="16.2670582"><ele>740.0</ele><time>2026-04-12T11:05:36.88Z</time></trkpt><trkpt lat="39.2039352" lon="16.2672214"><ele>739.5</ele><time>2026-04-12T11:05:37.881Z</time></trkpt><trkpt lat="39.2039241" lon="16.2673689"><ele>739.0</ele><time>2026-04-12T11:05:38.881Z</time></trkpt><trkpt lat="39.2039062" lon="16.2675068"><ele>739.0</ele><time>2026-04-12T11:05:39.88Z</time></trkpt><trkpt lat="39.2038576" lon="16.26763"><ele>739.0</ele><time>2026-04-12T11:05:40.881Z</time></trkpt><trkpt lat="39.2038076" lon="16.267733"><ele>739.0</ele><time>2026-04-12T11:05:41.88Z</time></trkpt><trkpt lat="39.2037526" lon="16.2678281"><ele>739.0</ele><time>2026-04-12T11:05:42.88Z</time></trkpt><trkpt lat="39.2036844" lon="16.2679152"><ele>739.0</ele><time>2026-04-12T11:05:43.881Z</time></trkpt><trkpt lat="39.2036301" lon="16.2680239"><ele>739.0</ele><time>2026-04-12T11:05:44.881Z</time></trkpt><trkpt lat="39.2036018" lon="16.2681237"><ele>739.0</ele><time>2026-04-12T11:05:45.881Z</time></trkpt><trkpt lat="39.2035817" lon="16.268232"><ele>739.0</ele><time>2026-04-12T11:05:46.881Z</time></trkpt><trkpt lat="39.2035776" lon="16.2683629"><ele>739.0</ele><time>2026-04-12T11:05:47.88Z</time></trkpt><trkpt lat="39.2035858" lon="16.2685041"><ele>739.0</ele><time>2026-04-12T11:05:48.881Z</time></trkpt><trkpt lat="39.2035828" lon="16.2686365"><ele>739.0</ele><time>2026-04-12T11:05:49.88Z</time></trkpt><trkpt lat="39.20357" lon="16.2687613"><ele>739.0</ele><time>2026-04-12T11:05:50.881Z</time></trkpt><trkpt lat="39.2035493" lon="16.2688838"><ele>739.0</ele><time>2026-04-12T11:05:51.881Z</time></trkpt><trkpt lat="39.203515" lon="16.2690033"><ele>739.0</ele><time>2026-04-12T11:05:52.881Z</time></trkpt><trkpt lat="39.2034755" lon="16.269128"><ele>739.0</ele><time>2026-04-12T11:05:53.881Z</time></trkpt><trkpt lat="39.2034372" lon="16.2692489"><ele>738.1666666666667</ele><time>2026-04-12T11:05:54.881Z</time></trkpt><trkpt lat="39.2034047" lon="16.2693638"><ele>737.3333333333334</ele><time>2026-04-12T11:05:55.881Z</time></trkpt><trkpt lat="39.2033907" lon="16.2694822"><ele>736.5</ele><time>2026-04-12T11:05:56.881Z</time></trkpt><trkpt lat="39.2033781" lon="16.2695941"><ele>735.6666666666666</ele><time>2026-04-12T11:05:57.881Z</time></trkpt><trkpt lat="39.2033732" lon="16.2696978"><ele>734.8333333333333</ele><time>2026-04-12T11:05:58.881Z</time></trkpt><trkpt lat="39.2033797" lon="16.2697929"><ele>734.0</ele><time>2026-04-12T11:05:59.88Z</time></trkpt><trkpt lat="39.2033851" lon="16.2698919"><ele>733.6</ele><time>2026-04-12T11:06:00.881Z</time></trkpt><trkpt lat="39.203386" lon="16.2699975"><ele>733.2</ele><time>2026-04-12T11:06:01.881Z</time></trkpt><trkpt lat="39.2033969" lon="16.2701099"><ele>732.8000000000001</ele><time>2026-04-12T11:06:02.88Z</time></trkpt><trkpt lat="39.2033833" lon="16.2702606"><ele>732.4000000000001</ele><time>2026-04-12T11:06:03.881Z</time></trkpt><trkpt lat="39.2033863" lon="16.2703808"><ele>732.0</ele><time>2026-04-12T11:06:04.881Z</time></trkpt><trkpt lat="39.2033912" lon="16.2704987"><ele>729.6</ele><time>2026-04-12T11:06:05.881Z</time></trkpt><trkpt lat="39.2034016" lon="16.2706212"><ele>727.2</ele><time>2026-04-12T11:06:06.881Z</time></trkpt><trkpt lat="39.2034172" lon="16.2707436"><ele>724.8</ele><time>2026-04-12T11:06:07.881Z</time></trkpt><trkpt lat="39.2034329" lon="16.2708695"><ele>722.4</ele><time>2026-04-12T11:06:08.881Z</time></trkpt><trkpt lat="39.2034314" lon="16.2710307"><ele>720.0</ele><time>2026-04-12T11:06:09.881Z</time></trkpt><trkpt lat="39.2034281" lon="16.2711667"><ele>720.0</ele><time>2026-04-12T11:06:10.881Z</time></trkpt><trkpt lat="39.2034341" lon="16.2712769"><ele>720.0</ele><time>2026-04-12T11:06:11.88Z</time></trkpt><trkpt lat="39.2034339" lon="16.271369"><ele>720.0</ele><time>2026-04-12T11:06:12.881Z</time></trkpt><trkpt lat="39.2034297" lon="16.2714724"><ele>720.0</ele><time>2026-04-12T11:06:13.881Z</time></trkpt><trkpt lat="39.2034244" lon="16.2715868"><ele>720.0</ele><time>2026-04-12T11:06:14.881Z</time></trkpt><trkpt lat="39.2034124" lon="16.271694"><ele>720.0</ele><time>2026-04-12T11:06:15.88Z</time></trkpt><trkpt lat="39.2033872" lon="16.2717791"><ele>717.4</ele><time>2026-04-12T11:06:16.881Z</time></trkpt><trkpt lat="39.2033714" lon="16.2718832"><ele>714.8</ele><time>2026-04-12T11:06:17.881Z</time></trkpt><trkpt lat="39.2033647" lon="16.271999"><ele>712.2</ele><time>2026-04-12T11:06:18.881Z</time></trkpt><trkpt lat="39.2033543" lon="16.2720905"><ele>709.6</ele><time>2026-04-12T11:06:19.881Z</time></trkpt><trkpt lat="39.2033224" lon="16.2722493"><ele>707.0</ele><time>2026-04-12T11:06:21.881Z</time></trkpt><trkpt lat="39.2032671" lon="16.2723555"><ele>705.5</ele><time>2026-04-12T11:06:23.881Z</time></trkpt><trkpt lat="39.2032194" lon="16.2724121"><ele>704.0</ele><time>2026-04-12T11:06:25.881Z</time></trkpt><trkpt lat="39.2032218" lon="16.2724998"><ele>702.5</ele><time>2026-04-12T11:06:28.881Z</time></trkpt><trkpt lat="39.2032468" lon="16.2725809"><ele>701.0</ele><time>2026-04-12T11:06:31.88Z</time></trkpt><trkpt lat="39.2032508" lon="16.272688"><ele>699.5</ele><time>2026-04-12T11:06:34.881Z</time></trkpt><trkpt lat="39.203235" lon="16.272775"><ele>698.0</ele><time>2026-04-12T11:06:38.881Z</time></trkpt><trkpt lat="39.203345" lon="16.272775"><ele>698.0</ele><time>2026-04-12T11:06:58.88Z</time></trkpt><trkpt lat="39.2032767" lon="16.2728683"><ele>698.0</ele><time>2026-04-12T11:07:43.881Z</time></trkpt><trkpt lat="39.203355" lon="16.2729417"><ele>698.0</ele><time>2026-04-12T11:07:50.881Z</time></trkpt><trkpt lat="39.20344" lon="16.272805"><ele>698.0</ele><time>2026-04-12T11:08:03.88Z</time></trkpt><trkpt lat="39.2034333" lon="16.2726383"><ele>698.0</ele><time>2026-04-12T11:08:19.881Z</time></trkpt><trkpt lat="39.2033817" lon="16.2727017"><ele>698.0</ele><time>2026-04-12T11:08:37.88Z</time></trkpt><trkpt lat="39.2033183" lon="16.27276"><ele>698.0</ele><time>2026-04-12T11:09:06.881Z</time></trkpt><trkpt lat="39.203435" lon="16.2726583"><ele>698.0</ele><time>2026-04-12T11:09:27.881Z</time></trkpt><trkpt lat="39.2033767" lon="16.2727717"><ele>698.0</ele><time>2026-04-12T11:09:52.881Z</time></trkpt><trkpt lat="39.2033133" lon="16.2727033"><ele>698.0</ele><time>2026-04-12T11:10:17.881Z</time></trkpt><trkpt lat="39.2032917" lon="16.2725967"><ele>698.0</ele><time>2026-04-12T11:10:50.88Z</time></trkpt><trkpt lat="39.203295" lon="16.2725067"><ele>698.0</ele><time>2026-04-12T11:10:52.881Z</time></trkpt><trkpt lat="39.203295" lon="16.2724167"><ele>698.0</ele><time>2026-04-12T11:10:54.881Z</time></trkpt><trkpt lat="39.2032733" lon="16.2723"><ele>698.0</ele><time>2026-04-12T11:10:57.88Z</time></trkpt><trkpt lat="39.203275" lon="16.2722"><ele>698.0</ele><time>2026-04-12T11:11:00.881Z</time></trkpt><trkpt lat="39.2032933" lon="16.2720683"><ele>699.5</ele><time>2026-04-12T11:11:02.881Z</time></trkpt><trkpt lat="39.20331" lon="16.2719817"><ele>701.0</ele><time>2026-04-12T11:11:04.881Z</time></trkpt><trkpt lat="39.2033683" lon="16.271925"><ele>702.5</ele><time>2026-04-12T11:11:08.881Z</time></trkpt><trkpt lat="39.2033433" lon="16.27202"><ele>704.0</ele><time>2026-04-12T11:11:41.881Z</time></trkpt><trkpt lat="39.2033383" lon="16.2718883"><ele>705.5</ele><time>2026-04-12T11:11:53.881Z</time></trkpt><trkpt lat="39.203355" lon="16.27179"><ele>707.0</ele><time>2026-04-12T11:11:55.881Z</time></trkpt><trkpt lat="39.2033567" lon="16.2716667"><ele>707.0</ele><time>2026-04-12T11:11:56.881Z</time></trkpt><trkpt lat="39.2033583" lon="16.2715217"><ele>707.0</ele><time>2026-04-12T11:11:58.881Z</time></trkpt><trkpt lat="39.203345" lon="16.27144"><ele>707.0</ele><time>2026-04-12T11:11:59.881Z</time></trkpt><trkpt lat="39.2033433" lon="16.2713333"><ele>707.0</ele><time>2026-04-12T11:12:01.881Z</time></trkpt><trkpt lat="39.2033733" lon="16.2712133"><ele>707.0</ele><time>2026-04-12T11:12:03.881Z</time></trkpt><trkpt lat="39.2034183" lon="16.27112"><ele>707.0</ele><time>2026-04-12T11:12:06.881Z</time></trkpt><trkpt lat="39.2034217" lon="16.2710033"><ele>709.6</ele><time>2026-04-12T11:12:08.881Z</time></trkpt><trkpt lat="39.2033967" lon="16.27084"><ele>712.2</ele><time>2026-04-12T11:12:10.88Z</time></trkpt><trkpt lat="39.2033733" lon="16.27074"><ele>714.8</ele><time>2026-04-12T11:12:11.881Z</time></trkpt><trkpt lat="39.203355" lon="16.27066"><ele>717.4</ele><time>2026-04-12T11:12:12.881Z</time></trkpt><trkpt lat="39.2033317" lon="16.2704983"><ele>720.0</ele><time>2026-04-12T11:12:14.88Z</time></trkpt><trkpt lat="39.2032983" lon="16.2704117"><ele>722.4</ele><time>2026-04-12T11:12:15.881Z</time></trkpt><trkpt lat="39.2032833" lon="16.270315"><ele>724.8</ele><time>2026-04-12T11:12:16.88Z</time></trkpt><trkpt lat="39.2032683" lon="16.270205"><ele>727.2</ele><time>2026-04-12T11:12:17.88Z</time></trkpt><trkpt lat="39.20328" lon="16.2700133"><ele>729.6</ele><time>2026-04-12T11:12:18.881Z</time></trkpt><trkpt lat="39.2032817" lon="16.269885"><ele>732.0</ele><time>2026-04-12T11:12:19.881Z</time></trkpt><trkpt lat="39.2032833" lon="16.26977"><ele>732.4000000000001</ele><time>2026-04-12T11:12:20.88Z</time></trkpt><trkpt lat="39.203285" lon="16.2696533"><ele>732.8000000000001</ele><time>2026-04-12T11:12:21.881Z</time></trkpt><trkpt lat="39.20328" lon="16.26953"><ele>733.2</ele><time>2026-04-12T11:12:22.88Z</time></trkpt><trkpt lat="39.2032733" lon="16.2694033"><ele>733.6</ele><time>2026-04-12T11:12:23.881Z</time></trkpt><trkpt lat="39.2032683" lon="16.2692883"><ele>734.0</ele><time>2026-04-12T11:12:24.881Z</time></trkpt><trkpt lat="39.2032883" lon="16.2691133"><ele>734.0</ele><time>2026-04-12T11:12:26.881Z</time></trkpt><trkpt lat="39.20332" lon="16.26901"><ele>734.0</ele><time>2026-04-12T11:12:27.881Z</time></trkpt><trkpt lat="39.203365" lon="16.2689067"><ele>734.0</ele><time>2026-04-12T11:12:28.881Z</time></trkpt><trkpt lat="39.2034117" lon="16.268795"><ele>734.0</ele><time>2026-04-12T11:12:29.88Z</time></trkpt><trkpt lat="39.2034483" lon="16.26868"><ele>734.0</ele><time>2026-04-12T11:12:30.881Z</time></trkpt><trkpt lat="39.2034733" lon="16.268565"><ele>735.0</ele><time>2026-04-12T11:12:31.881Z</time></trkpt><trkpt lat="39.20351" lon="16.268415"><ele>736.0</ele><time>2026-04-12T11:12:32.881Z</time></trkpt><trkpt lat="39.2035467" lon="16.2682683"><ele>737.0</ele><time>2026-04-12T11:12:33.881Z</time></trkpt><trkpt lat="39.2035667" lon="16.2681433"><ele>738.0</ele><time>2026-04-12T11:12:34.88Z</time></trkpt><trkpt lat="39.2035767" lon="16.2680333"><ele>739.0</ele><time>2026-04-12T11:12:35.881Z</time></trkpt><trkpt lat="39.2035983" lon="16.2679267"><ele>739.0</ele><time>2026-04-12T11:12:36.881Z</time></trkpt><trkpt lat="39.20362" lon="16.2678417"><ele>739.0</ele><time>2026-04-12T11:12:37.881Z</time></trkpt><trkpt lat="39.20366" lon="16.2677433"><ele>739.0</ele><time>2026-04-12T11:12:38.881Z</time></trkpt><trkpt lat="39.2037133" lon="16.2676167"><ele>739.0</ele><time>2026-04-12T11:12:39.88Z</time></trkpt><trkpt lat="39.2037733" lon="16.2674883"><ele>739.0</ele><time>2026-04-12T11:12:40.881Z</time></trkpt><trkpt lat="39.2038267" lon="16.2673433"><ele>738.4000000000001</ele><time>2026-04-12T11:12:41.881Z</time></trkpt><trkpt lat="39.20388" lon="16.2672083"><ele>737.8</ele><time>2026-04-12T11:12:42.881Z</time></trkpt><trkpt lat="39.20392" lon="16.2670733"><ele>737.2</ele><time>2026-04-12T11:12:43.88Z</time></trkpt><trkpt lat="39.2039506" lon="16.2669381"><ele>736.5999999999999</ele><time>2026-04-12T11:12:44.88Z</time></trkpt><trkpt lat="39.2039712" lon="16.2668029"><ele>736.0</ele><time>2026-04-12T11:12:45.88Z</time></trkpt><trkpt lat="39.2039922" lon="16.2666664"><ele>738.4</ele><time>2026-04-12T11:12:46.881Z</time></trkpt><trkpt lat="39.2040116" lon="16.2665256"><ele>740.8</ele><time>2026-04-12T11:12:47.881Z</time></trkpt><trkpt lat="39.204026" lon="16.2663866"><ele>743.1999999999999</ele><time>2026-04-12T11:12:48.881Z</time></trkpt><trkpt lat="39.2040325" lon="16.2662518"><ele>745.5999999999999</ele><time>2026-04-12T11:12:49.881Z</time></trkpt><trkpt lat="39.2040375" lon="16.266119"><ele>748.0</ele><time>2026-04-12T11:12:50.88Z</time></trkpt><trkpt lat="39.2040407" lon="16.2659957"><ele>749.5</ele><time>2026-04-12T11:12:51.881Z</time></trkpt><trkpt lat="39.2040462" lon="16.2658924"><ele>751.0</ele><time>2026-04-12T11:12:52.881Z</time></trkpt><trkpt lat="39.2040585" lon="16.2657973"><ele>752.5</ele><time>2026-04-12T11:12:53.88Z</time></trkpt><trkpt lat="39.2040707" lon="16.2656979"><ele>754.0</ele><time>2026-04-12T11:12:54.881Z</time></trkpt><trkpt lat="39.2040901" lon="16.2656114"><ele>755.5</ele><time>2026-04-12T11:12:55.881Z</time></trkpt><trkpt lat="39.204221" lon="16.2656403"><ele>757.0</ele><time>2026-04-12T11:12:57.881Z</time></trkpt><trkpt lat="39.2042939" lon="16.2656849"><ele>757.0</ele><time>2026-04-12T11:12:58.88Z</time></trkpt><trkpt lat="39.2043898" lon="16.2656587"><ele>757.0</ele><time>2026-04-12T11:13:00.881Z</time></trkpt><trkpt lat="39.2044235" lon="16.2655828"><ele>757.0</ele><time>2026-04-12T11:13:02.881Z</time></trkpt><trkpt lat="39.2043753" lon="16.2654271"><ele>757.0</ele><time>2026-04-12T11:13:04.88Z</time></trkpt><trkpt lat="39.2043357" lon="16.265318"><ele>757.0</ele><time>2026-04-12T11:13:05.881Z</time></trkpt><trkpt lat="39.2043488" lon="16.2651423"><ele>759.0</ele><time>2026-04-12T11:13:07.881Z</time></trkpt><trkpt lat="39.2043663" lon="16.2650551"><ele>761.0</ele><time>2026-04-12T11:13:08.881Z</time></trkpt><trkpt lat="39.2044202" lon="16.2649657"><ele>763.0</ele><time>2026-04-12T11:13:09.881Z</time></trkpt><trkpt lat="39.2044734" lon="16.2648829"><ele>765.0</ele><time>2026-04-12T11:13:10.881Z</time></trkpt><trkpt lat="39.2045543" lon="16.2647578"><ele>767.0</ele><time>2026-04-12T11:13:11.881Z</time></trkpt><trkpt lat="39.2046228" lon="16.2646623"><ele>770.0</ele><time>2026-04-12T11:13:12.88Z</time></trkpt><trkpt lat="39.2047024" lon="16.2645828"><ele>773.0</ele><time>2026-04-12T11:13:13.881Z</time></trkpt><trkpt lat="39.2047848" lon="16.2644932"><ele>776.0</ele><time>2026-04-12T11:13:14.881Z</time></trkpt><trkpt lat="39.2048538" lon="16.2644079"><ele>779.0</ele><time>2026-04-12T11:13:15.88Z</time></trkpt><trkpt lat="39.2049052" lon="16.2643454"><ele>782.0</ele><time>2026-04-12T11:13:16.88Z</time></trkpt><trkpt lat="39.2049917" lon="16.2643783"><ele>784.3333333333334</ele><time>2026-04-12T11:13:18.881Z</time></trkpt><trkpt lat="39.205085" lon="16.26437"><ele>786.6666666666667</ele><time>2026-04-12T11:13:20.881Z</time></trkpt><trkpt lat="39.2051433" lon="16.2644483"><ele>789.0</ele><time>2026-04-12T11:13:22.88Z</time></trkpt><trkpt lat="39.2052033" lon="16.2645567"><ele>791.3333333333333</ele><time>2026-04-12T11:13:24.881Z</time></trkpt><trkpt lat="39.2053" lon="16.264545"><ele>793.6666666666666</ele><time>2026-04-12T11:13:26.88Z</time></trkpt><trkpt lat="39.205355" lon="16.264505"><ele>796.0</ele><time>2026-04-12T11:13:28.88Z</time></trkpt><trkpt lat="39.2053583" lon="16.2644033"><ele>796.0</ele><time>2026-04-12T11:13:30.881Z</time></trkpt><trkpt lat="39.2052967" lon="16.264315"><ele>796.0</ele><time>2026-04-12T11:13:32.881Z</time></trkpt><trkpt lat="39.2052083" lon="16.264235"><ele>796.0</ele><time>2026-04-12T11:13:34.88Z</time></trkpt><trkpt lat="39.2051333" lon="16.2641117"><ele>796.0</ele><time>2026-04-12T11:13:36.881Z</time></trkpt><trkpt lat="39.2051033" lon="16.2640333"><ele>796.0</ele><time>2026-04-12T11:13:37.88Z</time></trkpt><trkpt lat="39.2050417" lon="16.26396"><ele>797.8333333333333</ele><time>2026-04-12T11:13:38.88Z</time></trkpt><trkpt lat="39.2049933" lon="16.2639067"><ele>799.6666666666666</ele><time>2026-04-12T11:13:39.881Z</time></trkpt><trkpt lat="39.2049467" lon="16.2638383"><ele>801.5</ele><time>2026-04-12T11:13:40.881Z</time></trkpt><trkpt lat="39.204905" lon="16.2637633"><ele>803.3333333333333</ele><time>2026-04-12T11:13:41.88Z</time></trkpt><trkpt lat="39.2048533" lon="16.26367"><ele>805.1666666666666</ele><time>2026-04-12T11:13:42.881Z</time></trkpt><trkpt lat="39.204795" lon="16.2635767"><ele>807.0</ele><time>2026-04-12T11:13:43.881Z</time></trkpt><trkpt lat="39.204715" lon="16.2634983"><ele>807.0</ele><time>2026-04-12T11:13:44.881Z</time></trkpt><trkpt lat="39.20463" lon="16.2634433"><ele>807.0</ele><time>2026-04-12T11:13:45.88Z</time></trkpt><trkpt lat="39.2045483" lon="16.263395"><ele>807.0</ele><time>2026-04-12T11:13:46.881Z</time></trkpt><trkpt lat="39.2044633" lon="16.263395"><ele>807.0</ele><time>2026-04-12T11:13:47.881Z</time></trkpt><trkpt lat="39.2043883" lon="16.2633483"><ele>807.0</ele><time>2026-04-12T11:13:48.88Z</time></trkpt><trkpt lat="39.2043" lon="16.2633867"><ele>807.0</ele><time>2026-04-12T11:13:49.881Z</time></trkpt><trkpt lat="39.2041917" lon="16.263425"><ele>807.0</ele><time>2026-04-12T11:13:50.88Z</time></trkpt><trkpt lat="39.2040833" lon="16.2634717"><ele>807.0</ele><time>2026-04-12T11:13:51.88Z</time></trkpt><trkpt lat="39.20398" lon="16.26354"><ele>807.0</ele><time>2026-04-12T11:13:52.881Z</time></trkpt><trkpt lat="39.203875" lon="16.2635967"><ele>807.0</ele><time>2026-04-12T11:13:53.881Z</time></trkpt><trkpt lat="39.2037667" lon="16.26364"><ele>805.25</ele><time>2026-04-12T11:13:54.881Z</time></trkpt><trkpt lat="39.2036583" lon="16.2636717"><ele>803.5</ele><time>2026-04-12T11:13:55.881Z</time></trkpt><trkpt lat="39.20355" lon="16.2636633"><ele>801.75</ele><time>2026-04-12T11:13:56.881Z</time></trkpt><trkpt lat="39.2034217" lon="16.2636483"><ele>800.0</ele><time>2026-04-12T11:13:57.881Z</time></trkpt><trkpt lat="39.2032833" lon="16.2636583"><ele>795.25</ele><time>2026-04-12T11:13:58.881Z</time></trkpt><trkpt lat="39.2031533" lon="16.2636617"><ele>790.5</ele><time>2026-04-12T11:13:59.88Z</time></trkpt><trkpt lat="39.20305" lon="16.263635"><ele>785.75</ele><time>2026-04-12T11:14:00.88Z</time></trkpt><trkpt lat="39.20294" lon="16.263595"><ele>781.0</ele><time>2026-04-12T11:14:01.881Z</time></trkpt><trkpt lat="39.2028317" lon="16.26352"><ele>781.0</ele><time>2026-04-12T11:14:02.88Z</time></trkpt><trkpt lat="39.2027117" lon="16.26347"><ele>781.0</ele><time>2026-04-12T11:14:03.881Z</time></trkpt><trkpt lat="39.2025933" lon="16.2634167"><ele>781.0</ele><time>2026-04-12T11:14:04.881Z</time></trkpt><trkpt lat="39.2025283" lon="16.2633367"><ele>781.0</ele><time>2026-04-12T11:14:05.881Z</time></trkpt><trkpt lat="39.20247" lon="16.26324"><ele>781.0</ele><time>2026-04-12T11:14:06.881Z</time></trkpt><trkpt lat="39.20241" lon="16.26314"><ele>782.4</ele><time>2026-04-12T11:14:07.881Z</time></trkpt><trkpt lat="39.2023633" lon="16.263005"><ele>783.8</ele><time>2026-04-12T11:14:08.881Z</time></trkpt><trkpt lat="39.202325" lon="16.2628817"><ele>785.1999999999999</ele><time>2026-04-12T11:14:09.88Z</time></trkpt><trkpt lat="39.2022733" lon="16.2627717"><ele>786.5999999999999</ele><time>2026-04-12T11:14:10.881Z</time></trkpt><trkpt lat="39.2021867" lon="16.2626733"><ele>788.0</ele><time>2026-04-12T11:14:11.881Z</time></trkpt><trkpt lat="39.2021167" lon="16.2625983"><ele>788.0</ele><time>2026-04-12T11:14:12.881Z</time></trkpt><trkpt lat="39.202045" lon="16.262525"><ele>788.0</ele><time>2026-04-12T11:14:13.88Z</time></trkpt><trkpt lat="39.201965" lon="16.2624617"><ele>788.0</ele><time>2026-04-12T11:14:14.88Z</time></trkpt><trkpt lat="39.2018883" lon="16.2623883"><ele>788.0</ele><time>2026-04-12T11:14:15.881Z</time></trkpt><trkpt lat="39.2018167" lon="16.262325"><ele>788.0</ele><time>2026-04-12T11:14:16.881Z</time></trkpt><trkpt lat="39.2017433" lon="16.2622683"><ele>788.0</ele><time>2026-04-12T11:14:17.881Z</time></trkpt><trkpt lat="39.2016133" lon="16.2623067"><ele>788.0</ele><time>2026-04-12T11:14:18.88Z</time></trkpt><trkpt lat="39.2014983" lon="16.2623783"><ele>788.0</ele><time>2026-04-12T11:14:19.881Z</time></trkpt><trkpt lat="39.20138" lon="16.26244"><ele>788.0</ele><time>2026-04-12T11:14:20.881Z</time></trkpt><trkpt lat="39.2012567" lon="16.2624783"><ele>789.0</ele><time>2026-04-12T11:14:21.88Z</time></trkpt><trkpt lat="39.2011133" lon="16.2625383"><ele>790.0</ele><time>2026-04-12T11:14:22.88Z</time></trkpt><trkpt lat="39.2009867" lon="16.262575"><ele>791.0</ele><time>2026-04-12T11:14:23.881Z</time></trkpt><trkpt lat="39.2008767" lon="16.26259"><ele>792.0</ele><time>2026-04-12T11:14:24.88Z</time></trkpt><trkpt lat="39.200745" lon="16.2626167"><ele>792.5</ele><time>2026-04-12T11:14:25.881Z</time></trkpt><trkpt lat="39.2006183" lon="16.2626134"><ele>793.0</ele><time>2026-04-12T11:14:26.881Z</time></trkpt><trkpt lat="39.2005054" lon="16.2625726"><ele>793.5</ele><time>2026-04-12T11:14:27.88Z</time></trkpt><trkpt lat="39.200388" lon="16.2625408"><ele>794.0</ele><time>2026-04-12T11:14:28.881Z</time></trkpt><trkpt lat="39.200259" lon="16.262527"><ele>794.0</ele><time>2026-04-12T11:14:29.88Z</time></trkpt><trkpt lat="39.2001287" lon="16.2625191"><ele>794.0</ele><time>2026-04-12T11:14:30.881Z</time></trkpt><trkpt lat="39.2000137" lon="16.2625219"><ele>794.0</ele><time>2026-04-12T11:14:31.881Z</time></trkpt><trkpt lat="39.1998682" lon="16.2625726"><ele>794.0</ele><time>2026-04-12T11:14:32.881Z</time></trkpt><trkpt lat="39.1997326" lon="16.2626269"><ele>795.5</ele><time>2026-04-12T11:14:33.881Z</time></trkpt><trkpt lat="39.1996218" lon="16.2626955"><ele>797.0</ele><time>2026-04-12T11:14:34.881Z</time></trkpt><trkpt lat="39.1995215" lon="16.2628064"><ele>798.5</ele><time>2026-04-12T11:14:35.88Z</time></trkpt><trkpt lat="39.1994476" lon="16.2629113"><ele>800.0</ele><time>2026-04-12T11:14:36.88Z</time></trkpt><trkpt lat="39.1993617" lon="16.2630281"><ele>795.5</ele><time>2026-04-12T11:14:37.881Z</time></trkpt><trkpt lat="39.1992546" lon="16.2631587"><ele>791.0</ele><time>2026-04-12T11:14:38.881Z</time></trkpt><trkpt lat="39.1991627" lon="16.2632706"><ele>786.5</ele><time>2026-04-12T11:14:39.88Z</time></trkpt><trkpt lat="39.1990786" lon="16.2633929"><ele>782.0</ele><time>2026-04-12T11:14:40.881Z</time></trkpt><trkpt lat="39.1989935" lon="16.2635254"><ele>781.75</ele><time>2026-04-12T11:14:41.88Z</time></trkpt><trkpt lat="39.1989079" lon="16.2636802"><ele>781.5</ele><time>2026-04-12T11:14:42.881Z</time></trkpt><trkpt lat="39.1988331" lon="16.263835"><ele>781.25</ele><time>2026-04-12T11:14:43.88Z</time></trkpt><trkpt lat="39.1987654" lon="16.2639952"><ele>781.0</ele><time>2026-04-12T11:14:44.881Z</time></trkpt><trkpt lat="39.1986958" lon="16.2641699"><ele>779.5</ele><time>2026-04-12T11:14:45.881Z</time></trkpt><trkpt lat="39.1986329" lon="16.264343"><ele>778.0</ele><time>2026-04-12T11:14:46.881Z</time></trkpt><trkpt lat="39.1985792" lon="16.2645025"><ele>776.5</ele><time>2026-04-12T11:14:47.881Z</time></trkpt><trkpt lat="39.1985221" lon="16.2646494"><ele>775.0</ele><time>2026-04-12T11:14:48.881Z</time></trkpt><trkpt lat="39.1984715" lon="16.2647757"><ele>772.5</ele><time>2026-04-12T11:14:49.88Z</time></trkpt><trkpt lat="39.1984049" lon="16.2648969"><ele>770.0</ele><time>2026-04-12T11:14:50.88Z</time></trkpt><trkpt lat="39.1983354" lon="16.2650234"><ele>767.5</ele><time>2026-04-12T11:14:51.881Z</time></trkpt><trkpt lat="39.1982683" lon="16.2651521"><ele>765.0</ele><time>2026-04-12T11:14:52.881Z</time></trkpt><trkpt lat="39.1981964" lon="16.2652868"><ele>766.25</ele><time>2026-04-12T11:14:53.881Z</time></trkpt><trkpt lat="39.1981376" lon="16.2654244"><ele>767.5</ele><time>2026-04-12T11:14:54.881Z</time></trkpt><trkpt lat="39.1980643" lon="16.2655774"><ele>768.75</ele><time>2026-04-12T11:14:55.881Z</time></trkpt><trkpt lat="39.1979852" lon="16.265726"><ele>770.0</ele><time>2026-04-12T11:14:56.881Z</time></trkpt><trkpt lat="39.1979068" lon="16.2658797"><ele>767.5</ele><time>2026-04-12T11:14:57.88Z</time></trkpt><trkpt lat="39.1978262" lon="16.2660393"><ele>765.0</ele><time>2026-04-12T11:14:58.881Z</time></trkpt><trkpt lat="39.1977518" lon="16.2661903"><ele>762.5</ele><time>2026-04-12T11:14:59.88Z</time></trkpt><trkpt lat="39.1976782" lon="16.2663318"><ele>760.0</ele><time>2026-04-12T11:15:00.881Z</time></trkpt><trkpt lat="39.197602" lon="16.2664606"><ele>757.25</ele><time>2026-04-12T11:15:01.881Z</time></trkpt><trkpt lat="39.1975227" lon="16.266574"><ele>754.5</ele><time>2026-04-12T11:15:02.88Z</time></trkpt><trkpt lat="39.1974437" lon="16.2666806"><ele>751.75</ele><time>2026-04-12T11:15:03.88Z</time></trkpt><trkpt lat="39.1973617" lon="16.2667769"><ele>749.0</ele><time>2026-04-12T11:15:04.881Z</time></trkpt><trkpt lat="39.1972766" lon="16.2668729"><ele>747.0</ele><time>2026-04-12T11:15:05.881Z</time></trkpt><trkpt lat="39.1971956" lon="16.2669777"><ele>745.0</ele><time>2026-04-12T11:15:06.881Z</time></trkpt><trkpt lat="39.1971064" lon="16.2670812"><ele>743.0</ele><time>2026-04-12T11:15:07.881Z</time></trkpt><trkpt lat="39.1970197" lon="16.267181"><ele>741.0</ele><time>2026-04-12T11:15:08.881Z</time></trkpt><trkpt lat="39.196928" lon="16.2672696"><ele>739.75</ele><time>2026-04-12T11:15:09.881Z</time></trkpt><trkpt lat="39.1968408" lon="16.2673585"><ele>738.5</ele><time>2026-04-12T11:15:10.881Z</time></trkpt><trkpt lat="39.1967441" lon="16.2674257"><ele>737.25</ele><time>2026-04-12T11:15:11.88Z</time></trkpt><trkpt lat="39.1966401" lon="16.2674981"><ele>736.0</ele><time>2026-04-12T11:15:12.881Z</time></trkpt><trkpt lat="39.1965353" lon="16.2675859"><ele>735.5</ele><time>2026-04-12T11:15:13.881Z</time></trkpt><trkpt lat="39.1964303" lon="16.2676734"><ele>735.0</ele><time>2026-04-12T11:15:14.88Z</time></trkpt><trkpt lat="39.1963316" lon="16.2677529"><ele>734.5</ele><time>2026-04-12T11:15:15.88Z</time></trkpt><trkpt lat="39.1962317" lon="16.2678298"><ele>734.0</ele><time>2026-04-12T11:15:16.881Z</time></trkpt><trkpt lat="39.1961267" lon="16.2679114"><ele>734.0</ele><time>2026-04-12T11:15:17.881Z</time></trkpt><trkpt lat="39.1960188" lon="16.2679887"><ele>734.0</ele><time>2026-04-12T11:15:18.881Z</time></trkpt><trkpt lat="39.1959105" lon="16.2680601"><ele>734.0</ele><time>2026-04-12T11:15:19.881Z</time></trkpt><trkpt lat="39.1958022" lon="16.2681275"><ele>734.0</ele><time>2026-04-12T11:15:20.88Z</time></trkpt><trkpt lat="39.1956987" lon="16.2681791"><ele>735.6</ele><time>2026-04-12T11:15:21.881Z</time></trkpt><trkpt lat="39.1955916" lon="16.2682158"><ele>737.2</ele><time>2026-04-12T11:15:22.881Z</time></trkpt><trkpt lat="39.1954822" lon="16.2682232"><ele>738.8000000000001</ele><time>2026-04-12T11:15:23.881Z</time></trkpt><trkpt lat="39.1953723" lon="16.2682443"><ele>740.4000000000001</ele><time>2026-04-12T11:15:24.881Z</time></trkpt><trkpt lat="39.1952611" lon="16.2682681"><ele>742.0</ele><time>2026-04-12T11:15:25.88Z</time></trkpt><trkpt lat="39.1951472" lon="16.2683052"><ele>742.0</ele><time>2026-04-12T11:15:26.881Z</time></trkpt><trkpt lat="39.1950501" lon="16.2683653"><ele>742.0</ele><time>2026-04-12T11:15:27.881Z</time></trkpt><trkpt lat="39.1949631" lon="16.2684481"><ele>742.0</ele><time>2026-04-12T11:15:28.881Z</time></trkpt><trkpt lat="39.1948925" lon="16.2685437"><ele>742.0</ele><time>2026-04-12T11:15:29.88Z</time></trkpt><trkpt lat="39.1948106" lon="16.2686316"><ele>742.0</ele><time>2026-04-12T11:15:30.881Z</time></trkpt><trkpt lat="39.1947294" lon="16.2687247"><ele>742.25</ele><time>2026-04-12T11:15:31.881Z</time></trkpt><trkpt lat="39.1946546" lon="16.2688303"><ele>742.5</ele><time>2026-04-12T11:15:32.881Z</time></trkpt><trkpt lat="39.1946083" lon="16.2689883"><ele>742.75</ele><time>2026-04-12T11:15:33.881Z</time></trkpt><trkpt lat="39.194515" lon="16.26908"><ele>743.0</ele><time>2026-04-12T11:15:34.881Z</time></trkpt><trkpt lat="39.1944383" lon="16.2691967"><ele>741.75</ele><time>2026-04-12T11:15:35.88Z</time></trkpt><trkpt lat="39.194395" lon="16.2693467"><ele>740.5</ele><time>2026-04-12T11:15:36.881Z</time></trkpt><trkpt lat="39.1943517" lon="16.269505"><ele>739.25</ele><time>2026-04-12T11:15:37.881Z</time></trkpt><trkpt lat="39.1942967" lon="16.26964"><ele>738.0</ele><time>2026-04-12T11:15:38.881Z</time></trkpt><trkpt lat="39.194245" lon="16.2697983"><ele>736.75</ele><time>2026-04-12T11:15:39.881Z</time></trkpt><trkpt lat="39.1942333" lon="16.26997"><ele>735.5</ele><time>2026-04-12T11:15:40.88Z</time></trkpt><trkpt lat="39.19417" lon="16.2701233"><ele>734.25</ele><time>2026-04-12T11:15:41.881Z</time></trkpt><trkpt lat="39.194055" lon="16.2702333"><ele>733.0</ele><time>2026-04-12T11:15:42.88Z</time></trkpt><trkpt lat="39.19399" lon="16.2703517"><ele>733.0</ele><time>2026-04-12T11:15:43.881Z</time></trkpt><trkpt lat="39.1939317" lon="16.2704717"><ele>733.0</ele><time>2026-04-12T11:15:44.881Z</time></trkpt><trkpt lat="39.1938617" lon="16.2705817"><ele>733.0</ele><time>2026-04-12T11:15:45.88Z</time></trkpt><trkpt lat="39.1937333" lon="16.27068"><ele>733.0</ele><time>2026-04-12T11:15:46.881Z</time></trkpt><trkpt lat="39.1936583" lon="16.2707783"><ele>731.75</ele><time>2026-04-12T11:15:47.881Z</time></trkpt><trkpt lat="39.1935683" lon="16.2708883"><ele>730.5</ele><time>2026-04-12T11:15:48.881Z</time></trkpt><trkpt lat="39.1934933" lon="16.27099"><ele>729.25</ele><time>2026-04-12T11:15:49.881Z</time></trkpt><trkpt lat="39.1934183" lon="16.2711067"><ele>728.0</ele><time>2026-04-12T11:15:50.88Z</time></trkpt><trkpt lat="39.193355" lon="16.2712367"><ele>728.0</ele><time>2026-04-12T11:15:51.881Z</time></trkpt><trkpt lat="39.1932933" lon="16.2713667"><ele>728.0</ele><time>2026-04-12T11:15:52.881Z</time></trkpt><trkpt lat="39.1932333" lon="16.2714983"><ele>728.0</ele><time>2026-04-12T11:15:53.881Z</time></trkpt><trkpt lat="39.1931517" lon="16.2716283"><ele>728.0</ele><time>2026-04-12T11:15:54.881Z</time></trkpt><trkpt lat="39.1930883" lon="16.2717633"><ele>726.2</ele><time>2026-04-12T11:15:55.88Z</time></trkpt><trkpt lat="39.193005" lon="16.2718883"><ele>724.4</ele><time>2026-04-12T11:15:56.88Z</time></trkpt><trkpt lat="39.1929217" lon="16.2719883"><ele>722.6</ele><time>2026-04-12T11:15:57.881Z</time></trkpt><trkpt lat="39.1928467" lon="16.2720833"><ele>720.8000000000001</ele><time>2026-04-12T11:15:58.88Z</time></trkpt><trkpt lat="39.19277" lon="16.2721617"><ele>719.0</ele><time>2026-04-12T11:15:59.881Z</time></trkpt><trkpt lat="39.19271" lon="16.272215"><ele>717.4285714285713</ele><time>2026-04-12T11:16:00.881Z</time></trkpt><trkpt lat="39.192645" lon="16.2722733"><ele>715.8571428571429</ele><time>2026-04-12T11:16:01.881Z</time></trkpt><trkpt lat="39.1925817" lon="16.2723233"><ele>714.2857142857142</ele><time>2026-04-12T11:16:02.881Z</time></trkpt><trkpt lat="39.1925217" lon="16.272375"><ele>712.7142857142857</ele><time>2026-04-12T11:16:03.881Z</time></trkpt><trkpt lat="39.1924633" lon="16.2724583"><ele>711.1428571428571</ele><time>2026-04-12T11:16:05.88Z</time></trkpt><trkpt lat="39.1924717" lon="16.2725433"><ele>709.5714285714286</ele><time>2026-04-12T11:16:07.881Z</time></trkpt><trkpt lat="39.1925283" lon="16.2725967"><ele>708.0</ele><time>2026-04-12T11:16:09.881Z</time></trkpt><trkpt lat="39.1925917" lon="16.2726117"><ele>708.0</ele><time>2026-04-12T11:16:10.881Z</time></trkpt><trkpt lat="39.1926683" lon="16.2726317"><ele>708.0</ele><time>2026-04-12T11:16:11.881Z</time></trkpt><trkpt lat="39.1927367" lon="16.272645"><ele>708.0</ele><time>2026-04-12T11:16:12.88Z</time></trkpt><trkpt lat="39.19282" lon="16.2726583"><ele>708.0</ele><time>2026-04-12T11:16:13.881Z</time></trkpt><trkpt lat="39.19297" lon="16.2727067"><ele>708.0</ele><time>2026-04-12T11:16:15.88Z</time></trkpt><trkpt lat="39.1930467" lon="16.272745"><ele>708.0</ele><time>2026-04-12T11:16:16.881Z</time></trkpt><trkpt lat="39.1931367" lon="16.27279"><ele>708.0</ele><time>2026-04-12T11:16:17.88Z</time></trkpt><trkpt lat="39.1932033" lon="16.2728633"><ele>708.0</ele><time>2026-04-12T11:16:18.881Z</time></trkpt><trkpt lat="39.1932633" lon="16.27294"><ele>708.0</ele><time>2026-04-12T11:16:19.881Z</time></trkpt><trkpt lat="39.1932983" lon="16.27306"><ele>708.0</ele><time>2026-04-12T11:16:20.88Z</time></trkpt><trkpt lat="39.19332" lon="16.2731767"><ele>706.5</ele><time>2026-04-12T11:16:21.88Z</time></trkpt><trkpt lat="39.1933767" lon="16.27327"><ele>705.0</ele><time>2026-04-12T11:16:22.88Z</time></trkpt><trkpt lat="39.1934183" lon="16.2733683"><ele>703.5</ele><time>2026-04-12T11:16:23.881Z</time></trkpt><trkpt lat="39.1934517" lon="16.2734683"><ele>702.0</ele><time>2026-04-12T11:16:24.88Z</time></trkpt><trkpt lat="39.19348" lon="16.2735867"><ele>700.5</ele><time>2026-04-12T11:16:25.881Z</time></trkpt><trkpt lat="39.1935" lon="16.2736967"><ele>699.0</ele><time>2026-04-12T11:16:26.881Z</time></trkpt><trkpt lat="39.193505" lon="16.2738333"><ele>697.5</ele><time>2026-04-12T11:16:27.881Z</time></trkpt><trkpt lat="39.19352" lon="16.2739567"><ele>696.0</ele><time>2026-04-12T11:16:28.881Z</time></trkpt><trkpt lat="39.19354" lon="16.2740683"><ele>694.5</ele><time>2026-04-12T11:16:29.881Z</time></trkpt><trkpt lat="39.193555" lon="16.2741783"><ele>693.0</ele><time>2026-04-12T11:16:30.881Z</time></trkpt><trkpt lat="39.193575" lon="16.2742883"><ele>691.5</ele><time>2026-04-12T11:16:31.881Z</time></trkpt><trkpt lat="39.193575" lon="16.2743783"><ele>690.0</ele><time>2026-04-12T11:16:32.881Z</time></trkpt><trkpt lat="39.1936517" lon="16.274475"><ele>690.0</ele><time>2026-04-12T11:16:34.881Z</time></trkpt><trkpt lat="39.193705" lon="16.274595"><ele>690.0</ele><time>2026-04-12T11:16:36.881Z</time></trkpt><trkpt lat="39.19372" lon="16.274685"><ele>690.0</ele><time>2026-04-12T11:16:37.88Z</time></trkpt><trkpt lat="39.19383" lon="16.274805"><ele>690.0</ele><time>2026-04-12T11:16:39.88Z</time></trkpt><trkpt lat="39.1938983" lon="16.2748817"><ele>690.0</ele><time>2026-04-12T11:16:40.881Z</time></trkpt><trkpt lat="39.1939533" lon="16.2750417"><ele>689.5</ele><time>2026-04-12T11:16:43.881Z</time></trkpt><trkpt lat="39.1939917" lon="16.27512"><ele>689.0</ele><time>2026-04-12T11:16:44.881Z</time></trkpt><trkpt lat="39.1940333" lon="16.275205"><ele>688.5</ele><time>2026-04-12T11:16:45.881Z</time></trkpt><trkpt lat="39.19408" lon="16.2752783"><ele>688.0</ele><time>2026-04-12T11:16:46.881Z</time></trkpt><trkpt lat="39.1941233" lon="16.27536"><ele>687.5</ele><time>2026-04-12T11:16:47.88Z</time></trkpt><trkpt lat="39.1941383" lon="16.2754533"><ele>687.0</ele><time>2026-04-12T11:16:48.881Z</time></trkpt><trkpt lat="39.194175" lon="16.2755667"><ele>683.5</ele><time>2026-04-12T11:16:49.88Z</time></trkpt><trkpt lat="39.1942267" lon="16.275705"><ele>680.0</ele><time>2026-04-12T11:16:50.881Z</time></trkpt><trkpt lat="39.1942817" lon="16.27583"><ele>676.5</ele><time>2026-04-12T11:16:51.88Z</time></trkpt><trkpt lat="39.1943617" lon="16.2759467"><ele>673.0</ele><time>2026-04-12T11:16:52.881Z</time></trkpt><trkpt lat="39.194425" lon="16.2760567"><ele>673.0</ele><time>2026-04-12T11:16:53.881Z</time></trkpt><trkpt lat="39.1945033" lon="16.2761533"><ele>673.0</ele><time>2026-04-12T11:16:54.881Z</time></trkpt><trkpt lat="39.1945717" lon="16.2762367"><ele>673.0</ele><time>2026-04-12T11:16:55.881Z</time></trkpt><trkpt lat="39.1946333" lon="16.2763267"><ele>673.0</ele><time>2026-04-12T11:16:56.88Z</time></trkpt><trkpt lat="39.1947067" lon="16.27642"><ele>673.0</ele><time>2026-04-12T11:16:57.88Z</time></trkpt><trkpt lat="39.1947933" lon="16.2765217"><ele>671.75</ele><time>2026-04-12T11:16:58.881Z</time></trkpt><trkpt lat="39.1948767" lon="16.2766183"><ele>670.5</ele><time>2026-04-12T11:16:59.88Z</time></trkpt><trkpt lat="39.1949567" lon="16.27673"><ele>669.25</ele><time>2026-04-12T11:17:00.881Z</time></trkpt><trkpt lat="39.1950433" lon="16.27684"><ele>668.0</ele><time>2026-04-12T11:17:01.881Z</time></trkpt><trkpt lat="39.1951383" lon="16.276955"><ele>668.0</ele><time>2026-04-12T11:17:02.881Z</time></trkpt><trkpt lat="39.1952333" lon="16.2770633"><ele>668.0</ele><time>2026-04-12T11:17:03.881Z</time></trkpt><trkpt lat="39.1953317" lon="16.2771817"><ele>668.0</ele><time>2026-04-12T11:17:04.88Z</time></trkpt><trkpt lat="39.1954117" lon="16.2772783"><ele>668.0</ele><time>2026-04-12T11:17:05.881Z</time></trkpt><trkpt lat="39.1955083" lon="16.2773733"><ele>665.5</ele><time>2026-04-12T11:17:06.88Z</time></trkpt><trkpt lat="39.19561" lon="16.2774633"><ele>663.0</ele><time>2026-04-12T11:17:07.881Z</time></trkpt><trkpt lat="39.1957083" lon="16.2775583"><ele>660.5</ele><time>2026-04-12T11:17:08.881Z</time></trkpt><trkpt lat="39.1958067" lon="16.2776567"><ele>658.0</ele><time>2026-04-12T11:17:09.881Z</time></trkpt><trkpt lat="39.19591" lon="16.27771"><ele>658.0</ele><time>2026-04-12T11:17:10.88Z</time></trkpt><trkpt lat="39.1960033" lon="16.2778083"><ele>658.0</ele><time>2026-04-12T11:17:11.881Z</time></trkpt><trkpt lat="39.1961017" lon="16.2778883"><ele>658.0</ele><time>2026-04-12T11:17:12.881Z</time></trkpt><trkpt lat="39.1961883" lon="16.2779817"><ele>658.0</ele><time>2026-04-12T11:17:13.88Z</time></trkpt><trkpt lat="39.19628" lon="16.2780683"><ele>656.0</ele><time>2026-04-12T11:17:14.88Z</time></trkpt><trkpt lat="39.1963733" lon="16.27815"><ele>654.0</ele><time>2026-04-12T11:17:15.881Z</time></trkpt><trkpt lat="39.19647" lon="16.2782283"><ele>652.0</ele><time>2026-04-12T11:17:16.881Z</time></trkpt><trkpt lat="39.1966083" lon="16.2782383"><ele>650.0</ele><time>2026-04-12T11:17:17.881Z</time></trkpt><trkpt lat="39.1967217" lon="16.2782733"><ele>649.6</ele><time>2026-04-12T11:17:18.881Z</time></trkpt><trkpt lat="39.1968367" lon="16.278315"><ele>649.2</ele><time>2026-04-12T11:17:19.881Z</time></trkpt><trkpt lat="39.1969283" lon="16.2783717"><ele>648.8</ele><time>2026-04-12T11:17:20.881Z</time></trkpt><trkpt lat="39.197" lon="16.2784317"><ele>648.4</ele><time>2026-04-12T11:17:21.881Z</time></trkpt><trkpt lat="39.197075" lon="16.2785017"><ele>648.0</ele><time>2026-04-12T11:17:22.881Z</time></trkpt><trkpt lat="39.1971683" lon="16.2785917"><ele>648.0</ele><time>2026-04-12T11:17:23.881Z</time></trkpt><trkpt lat="39.1972917" lon="16.2787267"><ele>648.0</ele><time>2026-04-12T11:17:24.881Z</time></trkpt><trkpt lat="39.1974067" lon="16.278815"><ele>648.0</ele><time>2026-04-12T11:17:25.881Z</time></trkpt><trkpt lat="39.19752" lon="16.2789133"><ele>648.0</ele><time>2026-04-12T11:17:26.881Z</time></trkpt><trkpt lat="39.197645" lon="16.2790283"><ele>645.5</ele><time>2026-04-12T11:17:27.881Z</time></trkpt><trkpt lat="39.19776" lon="16.279135"><ele>643.0</ele><time>2026-04-12T11:17:28.88Z</time></trkpt><trkpt lat="39.1978733" lon="16.2792217"><ele>640.5</ele><time>2026-04-12T11:17:29.881Z</time></trkpt><trkpt lat="39.1979883" lon="16.2793433"><ele>638.0</ele><time>2026-04-12T11:17:30.88Z</time></trkpt><trkpt lat="39.1980917" lon="16.27946"><ele>638.0</ele><time>2026-04-12T11:17:31.881Z</time></trkpt><trkpt lat="39.19818" lon="16.279575"><ele>638.0</ele><time>2026-04-12T11:17:32.881Z</time></trkpt><trkpt lat="39.1982733" lon="16.2796733"><ele>638.0</ele><time>2026-04-12T11:17:33.88Z</time></trkpt><trkpt lat="39.19836" lon="16.2797817"><ele>638.0</ele><time>2026-04-12T11:17:34.881Z</time></trkpt><trkpt lat="39.19844" lon="16.2798983"><ele>635.6</ele><time>2026-04-12T11:17:35.881Z</time></trkpt><trkpt lat="39.1985233" lon="16.27999"><ele>633.1999999999999</ele><time>2026-04-12T11:17:36.881Z</time></trkpt><trkpt lat="39.1986083" lon="16.2801017"><ele>630.8</ele><time>2026-04-12T11:17:37.881Z</time></trkpt><trkpt lat="39.1986733" lon="16.2802067"><ele>628.4</ele><time>2026-04-12T11:17:38.881Z</time></trkpt><trkpt lat="39.1987367" lon="16.2803"><ele>626.0</ele><time>2026-04-12T11:17:39.88Z</time></trkpt><trkpt lat="39.1988267" lon="16.28033"><ele>626.0</ele><time>2026-04-12T11:17:40.881Z</time></trkpt><trkpt lat="39.1989333" lon="16.2803117"><ele>626.0</ele><time>2026-04-12T11:17:41.88Z</time></trkpt><trkpt lat="39.1990117" lon="16.2803633"><ele>626.0</ele><time>2026-04-12T11:17:42.881Z</time></trkpt><trkpt lat="39.1991067" lon="16.2803517"><ele>626.0</ele><time>2026-04-12T11:17:43.881Z</time></trkpt><trkpt lat="39.199215" lon="16.2803333"><ele>626.0</ele><time>2026-04-12T11:17:44.881Z</time></trkpt><trkpt lat="39.19931" lon="16.2803117"><ele>625.4</ele><time>2026-04-12T11:17:45.881Z</time></trkpt><trkpt lat="39.1994133" lon="16.2802867"><ele>624.8</ele><time>2026-04-12T11:17:46.881Z</time></trkpt><trkpt lat="39.1995283" lon="16.2802667"><ele>624.1999999999999</ele><time>2026-04-12T11:17:47.881Z</time></trkpt><trkpt lat="39.19964" lon="16.28026"><ele>623.6</ele><time>2026-04-12T11:17:48.881Z</time></trkpt><trkpt lat="39.1997383" lon="16.2802583"><ele>623.0</ele><time>2026-04-12T11:17:49.881Z</time></trkpt><trkpt lat="39.199835" lon="16.2802667"><ele>621.8</ele><time>2026-04-12T11:17:50.881Z</time></trkpt><trkpt lat="39.1999383" lon="16.28027"><ele>620.5999999999999</ele><time>2026-04-12T11:17:51.881Z</time></trkpt><trkpt lat="39.2000283" lon="16.2802333"><ele>619.4000000000001</ele><time>2026-04-12T11:17:52.881Z</time></trkpt><trkpt lat="39.2001283" lon="16.2802267"><ele>618.2</ele><time>2026-04-12T11:17:53.881Z</time></trkpt><trkpt lat="39.2002283" lon="16.2802767"><ele>617.0</ele><time>2026-04-12T11:17:55.881Z</time></trkpt><trkpt lat="39.200255" lon="16.2804367"><ele>617.0</ele><time>2026-04-12T11:17:57.881Z</time></trkpt><trkpt lat="39.2001783" lon="16.2805583"><ele>617.0</ele><time>2026-04-12T11:17:58.881Z</time></trkpt><trkpt lat="39.200135" lon="16.28065"><ele>617.0</ele><time>2026-04-12T11:17:59.88Z</time></trkpt><trkpt lat="39.2001317" lon="16.280755"><ele>617.0</ele><time>2026-04-12T11:18:00.881Z</time></trkpt><trkpt lat="39.2000983" lon="16.280875"><ele>617.0</ele><time>2026-04-12T11:18:01.88Z</time></trkpt><trkpt lat="39.2000667" lon="16.28098"><ele>615.5</ele><time>2026-04-12T11:18:02.881Z</time></trkpt><trkpt lat="39.2000683" lon="16.28109"><ele>614.0</ele><time>2026-04-12T11:18:03.881Z</time></trkpt><trkpt lat="39.20007" lon="16.28119"><ele>612.5</ele><time>2026-04-12T11:18:04.88Z</time></trkpt><trkpt lat="39.2000717" lon="16.281285"><ele>611.0</ele><time>2026-04-12T11:18:05.881Z</time></trkpt><trkpt lat="39.2000667" lon="16.2813683"><ele>609.5</ele><time>2026-04-12T11:18:06.881Z</time></trkpt><trkpt lat="39.2000683" lon="16.2814517"><ele>608.0</ele><time>2026-04-12T11:18:07.881Z</time></trkpt><trkpt lat="39.2000917" lon="16.2815683"><ele>607.6666666666666</ele><time>2026-04-12T11:18:09.881Z</time></trkpt><trkpt lat="39.20012" lon="16.2816417"><ele>607.3333333333333</ele><time>2026-04-12T11:18:11.88Z</time></trkpt><trkpt lat="39.200195" lon="16.281705"><ele>607.0</ele><time>2026-04-12T11:18:15.88Z</time></trkpt><trkpt lat="39.2003017" lon="16.2817117"><ele>606.6666666666666</ele><time>2026-04-12T11:18:20.88Z</time></trkpt><trkpt lat="39.2004067" lon="16.2816333"><ele>606.3333333333334</ele><time>2026-04-12T11:18:22.881Z</time></trkpt><trkpt lat="39.2004683" lon="16.2815983"><ele>606.0</ele><time>2026-04-12T11:18:23.881Z</time></trkpt><trkpt lat="39.20054" lon="16.28157"><ele>606.0</ele><time>2026-04-12T11:18:24.881Z</time></trkpt><trkpt lat="39.2006367" lon="16.281555"><ele>606.0</ele><time>2026-04-12T11:18:25.881Z</time></trkpt><trkpt lat="39.20073" lon="16.2815633"><ele>606.0</ele><time>2026-04-12T11:18:26.88Z</time></trkpt><trkpt lat="39.2008283" lon="16.2815483"><ele>606.0</ele><time>2026-04-12T11:18:27.881Z</time></trkpt><trkpt lat="39.2009367" lon="16.281555"><ele>606.0</ele><time>2026-04-12T11:18:28.881Z</time></trkpt><trkpt lat="39.2010333" lon="16.28157"><ele>605.2</ele><time>2026-04-12T11:18:29.881Z</time></trkpt><trkpt lat="39.2011267" lon="16.2815967"><ele>604.4000000000001</ele><time>2026-04-12T11:18:30.881Z</time></trkpt><trkpt lat="39.20121" lon="16.28167"><ele>603.6</ele><time>2026-04-12T11:18:31.881Z</time></trkpt><trkpt lat="39.2012917" lon="16.2817117"><ele>602.8000000000001</ele><time>2026-04-12T11:18:32.881Z</time></trkpt><trkpt lat="39.2013667" lon="16.2817883"><ele>602.0</ele><time>2026-04-12T11:18:33.88Z</time></trkpt><trkpt lat="39.20144" lon="16.28183"><ele>602.0</ele><time>2026-04-12T11:18:34.881Z</time></trkpt><trkpt lat="39.2014867" lon="16.2818883"><ele>602.0</ele><time>2026-04-12T11:18:35.881Z</time></trkpt><trkpt lat="39.2015633" lon="16.2819817"><ele>602.0</ele><time>2026-04-12T11:18:37.88Z</time></trkpt><trkpt lat="39.2014683" lon="16.2822333"><ele>602.0</ele><time>2026-04-12T11:18:39.881Z</time></trkpt><trkpt lat="39.201415" lon="16.2823767"><ele>603.8000000000001</ele><time>2026-04-12T11:18:40.881Z</time></trkpt><trkpt lat="39.201365" lon="16.282505"><ele>605.6</ele><time>2026-04-12T11:18:41.88Z</time></trkpt><trkpt lat="39.201345" lon="16.2826183"><ele>607.4000000000001</ele><time>2026-04-12T11:18:42.881Z</time></trkpt><trkpt lat="39.2013483" lon="16.2827683"><ele>609.2</ele><time>2026-04-12T11:18:44.881Z</time></trkpt><trkpt lat="39.201445" lon="16.282775"><ele>611.0</ele><time>2026-04-12T11:18:46.881Z</time></trkpt><trkpt lat="39.2015167" lon="16.282705"><ele>611.0</ele><time>2026-04-12T11:18:47.88Z</time></trkpt><trkpt lat="39.2015833" lon="16.282635"><ele>611.0</ele><time>2026-04-12T11:18:48.881Z</time></trkpt><trkpt lat="39.2016567" lon="16.28257"><ele>611.0</ele><time>2026-04-12T11:18:49.881Z</time></trkpt><trkpt lat="39.20174" lon="16.2825033"><ele>611.0</ele><time>2026-04-12T11:18:50.88Z</time></trkpt><trkpt lat="39.2018367" lon="16.28244"><ele>611.0</ele><time>2026-04-12T11:18:51.88Z</time></trkpt><trkpt lat="39.2019333" lon="16.2823933"><ele>611.0</ele><time>2026-04-12T11:18:52.88Z</time></trkpt><trkpt lat="39.2020517" lon="16.282375"><ele>611.0</ele><time>2026-04-12T11:18:53.881Z</time></trkpt><trkpt lat="39.20216" lon="16.2823383"><ele>611.0</ele><time>2026-04-12T11:18:54.881Z</time></trkpt><trkpt lat="39.2022783" lon="16.282315"><ele>611.0</ele><time>2026-04-12T11:18:55.881Z</time></trkpt><trkpt lat="39.2023871" lon="16.2823049"><ele>612.6</ele><time>2026-04-12T11:18:56.881Z</time></trkpt><trkpt lat="39.2024923" lon="16.2822968"><ele>614.2</ele><time>2026-04-12T11:18:57.881Z</time></trkpt><trkpt lat="39.202591" lon="16.2823397"><ele>615.8</ele><time>2026-04-12T11:18:58.881Z</time></trkpt><trkpt lat="39.2026904" lon="16.2823921"><ele>617.4</ele><time>2026-04-12T11:18:59.88Z</time></trkpt><trkpt lat="39.2027942" lon="16.2824766"><ele>619.0</ele><time>2026-04-12T11:19:00.881Z</time></trkpt><trkpt lat="39.2028932" lon="16.2825798"><ele>619.0</ele><time>2026-04-12T11:19:01.881Z</time></trkpt><trkpt lat="39.2029842" lon="16.2826957"><ele>619.0</ele><time>2026-04-12T11:19:02.881Z</time></trkpt><trkpt lat="39.2030738" lon="16.2828285"><ele>619.0</ele><time>2026-04-12T11:19:03.881Z</time></trkpt><trkpt lat="39.2031657" lon="16.282971"><ele>619.0</ele><time>2026-04-12T11:19:04.881Z</time></trkpt><trkpt lat="39.2032598" lon="16.2831046"><ele>622.25</ele><time>2026-04-12T11:19:05.881Z</time></trkpt><trkpt lat="39.203362" lon="16.2832218"><ele>625.5</ele><time>2026-04-12T11:19:06.881Z</time></trkpt><trkpt lat="39.2034693" lon="16.2833184"><ele>628.75</ele><time>2026-04-12T11:19:07.881Z</time></trkpt><trkpt lat="39.2035767" lon="16.2834245"><ele>632.0</ele><time>2026-04-12T11:19:08.88Z</time></trkpt><trkpt lat="39.2036854" lon="16.2835376"><ele>632.0</ele><time>2026-04-12T11:19:09.881Z</time></trkpt><trkpt lat="39.2037966" lon="16.2836321"><ele>632.0</ele><time>2026-04-12T11:19:10.881Z</time></trkpt><trkpt lat="39.203897" lon="16.2837235"><ele>632.0</ele><time>2026-04-12T11:19:11.881Z</time></trkpt><trkpt lat="39.2039925" lon="16.283813"><ele>632.0</ele><time>2026-04-12T11:19:12.881Z</time></trkpt><trkpt lat="39.2040742" lon="16.2838742"><ele>634.8</ele><time>2026-04-12T11:19:13.881Z</time></trkpt><trkpt lat="39.2041592" lon="16.2839304"><ele>637.6</ele><time>2026-04-12T11:19:14.881Z</time></trkpt><trkpt lat="39.2042333" lon="16.2839776"><ele>640.4</ele><time>2026-04-12T11:19:15.88Z</time></trkpt><trkpt lat="39.2043157" lon="16.2840296"><ele>643.1999999999999</ele><time>2026-04-12T11:19:16.881Z</time></trkpt><trkpt lat="39.2044197" lon="16.2840211"><ele>646.0</ele><time>2026-04-12T11:19:17.881Z</time></trkpt><trkpt lat="39.2045093" lon="16.2840333"><ele>646.0</ele><time>2026-04-12T11:19:18.88Z</time></trkpt><trkpt lat="39.2046112" lon="16.2840438"><ele>646.0</ele><time>2026-04-12T11:19:20.88Z</time></trkpt><trkpt lat="39.204605" lon="16.2841588"><ele>646.0</ele><time>2026-04-12T11:19:23.881Z</time></trkpt><trkpt lat="39.2045332" lon="16.2842753"><ele>646.0</ele><time>2026-04-12T11:19:25.881Z</time></trkpt><trkpt lat="39.2044661" lon="16.2843506"><ele>646.0</ele><time>2026-04-12T11:19:26.881Z</time></trkpt><trkpt lat="39.2043757" lon="16.2844226"><ele>646.0</ele><time>2026-04-12T11:19:27.88Z</time></trkpt><trkpt lat="39.2042828" lon="16.284503"><ele>646.0</ele><time>2026-04-12T11:19:28.881Z</time></trkpt><trkpt lat="39.2041567" lon="16.2846067"><ele>646.0</ele><time>2026-04-12T11:19:29.881Z</time></trkpt><trkpt lat="39.2040717" lon="16.2847067"><ele>646.0</ele><time>2026-04-12T11:19:30.881Z</time></trkpt><trkpt lat="39.204005" lon="16.2848067"><ele>646.4</ele><time>2026-04-12T11:19:31.881Z</time></trkpt><trkpt lat="39.2039233" lon="16.2849067"><ele>646.8</ele><time>2026-04-12T11:19:32.88Z</time></trkpt><trkpt lat="39.2038583" lon="16.284995"><ele>647.1999999999999</ele><time>2026-04-12T11:19:33.881Z</time></trkpt><trkpt lat="39.2037983" lon="16.285085"><ele>647.5999999999999</ele><time>2026-04-12T11:19:34.881Z</time></trkpt><trkpt lat="39.2037933" lon="16.2852283"><ele>648.0</ele><time>2026-04-12T11:19:35.88Z</time></trkpt><trkpt lat="39.2037867" lon="16.2853683"><ele>648.0</ele><time>2026-04-12T11:19:36.88Z</time></trkpt><trkpt lat="39.203775" lon="16.28551"><ele>648.0</ele><time>2026-04-12T11:19:37.881Z</time></trkpt><trkpt lat="39.2037567" lon="16.2856933"><ele>648.0</ele><time>2026-04-12T11:19:38.88Z</time></trkpt><trkpt lat="39.20373" lon="16.2858383"><ele>648.0</ele><time>2026-04-12T11:19:39.881Z</time></trkpt><trkpt lat="39.203685" lon="16.28597"><ele>649.5999999999999</ele><time>2026-04-12T11:19:40.881Z</time></trkpt><trkpt lat="39.2036383" lon="16.28609"><ele>651.1999999999999</ele><time>2026-04-12T11:19:41.88Z</time></trkpt><trkpt lat="39.2035983" lon="16.2862183"><ele>652.8</ele><time>2026-04-12T11:19:42.88Z</time></trkpt><trkpt lat="39.203525" lon="16.2863167"><ele>654.4</ele><time>2026-04-12T11:19:43.881Z</time></trkpt><trkpt lat="39.2034183" lon="16.2864083"><ele>656.0</ele><time>2026-04-12T11:19:44.881Z</time></trkpt><trkpt lat="39.2032717" lon="16.2864517"><ele>656.25</ele><time>2026-04-12T11:19:45.881Z</time></trkpt><trkpt lat="39.2031617" lon="16.2865317"><ele>656.5</ele><time>2026-04-12T11:19:46.881Z</time></trkpt><trkpt lat="39.2030067" lon="16.2864967"><ele>656.75</ele><time>2026-04-12T11:19:47.881Z</time></trkpt><trkpt lat="39.2029283" lon="16.2865583"><ele>657.0</ele><time>2026-04-12T11:19:48.881Z</time></trkpt><trkpt lat="39.2028467" lon="16.2866067"><ele>657.0</ele><time>2026-04-12T11:19:49.881Z</time></trkpt><trkpt lat="39.2027767" lon="16.2866933"><ele>657.0</ele><time>2026-04-12T11:19:50.881Z</time></trkpt><trkpt lat="39.2027117" lon="16.28679"><ele>657.0</ele><time>2026-04-12T11:19:51.881Z</time></trkpt><trkpt lat="39.2026583" lon="16.28687"><ele>657.0</ele><time>2026-04-12T11:19:52.881Z</time></trkpt><trkpt lat="39.2026083" lon="16.286965"><ele>657.0</ele><time>2026-04-12T11:19:53.881Z</time></trkpt><trkpt lat="39.2025917" lon="16.2870917"><ele>657.0</ele><time>2026-04-12T11:19:54.881Z</time></trkpt><trkpt lat="39.2025617" lon="16.287245"><ele>657.0</ele><time>2026-04-12T11:19:55.881Z</time></trkpt><trkpt lat="39.2025533" lon="16.287375"><ele>657.0</ele><time>2026-04-12T11:19:56.881Z</time></trkpt><trkpt lat="39.20254" lon="16.28752"><ele>657.0</ele><time>2026-04-12T11:19:57.881Z</time></trkpt><trkpt lat="39.2025233" lon="16.2876667"><ele>659.25</ele><time>2026-04-12T11:19:58.88Z</time></trkpt><trkpt lat="39.2025133" lon="16.2878317"><ele>661.5</ele><time>2026-04-12T11:19:59.881Z</time></trkpt><trkpt lat="39.2024933" lon="16.287995"><ele>663.75</ele><time>2026-04-12T11:20:00.881Z</time></trkpt><trkpt lat="39.202475" lon="16.28815"><ele>666.0</ele><time>2026-04-12T11:20:01.88Z</time></trkpt><trkpt lat="39.20246" lon="16.2883167"><ele>667.5</ele><time>2026-04-12T11:20:02.881Z</time></trkpt><trkpt lat="39.2024433" lon="16.2884883"><ele>669.0</ele><time>2026-04-12T11:20:03.881Z</time></trkpt><trkpt lat="39.2024223" lon="16.2886493"><ele>670.5</ele><time>2026-04-12T11:20:04.88Z</time></trkpt><trkpt lat="39.2024087" lon="16.2888494"><ele>672.0</ele><time>2026-04-12T11:20:05.881Z</time></trkpt><trkpt lat="39.2023941" lon="16.2890323"><ele>671.75</ele><time>2026-04-12T11:20:06.881Z</time></trkpt><trkpt lat="39.2023821" lon="16.2892049"><ele>671.5</ele><time>2026-04-12T11:20:07.88Z</time></trkpt><trkpt lat="39.2023635" lon="16.2893656"><ele>671.25</ele><time>2026-04-12T11:20:08.881Z</time></trkpt><trkpt lat="39.2023388" lon="16.2895203"><ele>671.0</ele><time>2026-04-12T11:20:09.881Z</time></trkpt><trkpt lat="39.2023039" lon="16.2896894"><ele>673.0</ele><time>2026-04-12T11:20:10.881Z</time></trkpt><trkpt lat="39.202266" lon="16.289857"><ele>675.0</ele><time>2026-04-12T11:20:11.881Z</time></trkpt><trkpt lat="39.2022039" lon="16.2900052"><ele>677.0</ele><time>2026-04-12T11:20:12.88Z</time></trkpt><trkpt lat="39.2021563" lon="16.2901605"><ele>679.0</ele><time>2026-04-12T11:20:13.88Z</time></trkpt><trkpt lat="39.2021055" lon="16.2902915"><ele>679.0</ele><time>2026-04-12T11:20:14.88Z</time></trkpt><trkpt lat="39.2020838" lon="16.2904307"><ele>679.0</ele><time>2026-04-12T11:20:15.88Z</time></trkpt><trkpt lat="39.2020702" lon="16.2905594"><ele>679.0</ele><time>2026-04-12T11:20:16.881Z</time></trkpt><trkpt lat="39.2020607" lon="16.2906893"><ele>679.0</ele><time>2026-04-12T11:20:17.881Z</time></trkpt><trkpt lat="39.2020504" lon="16.290815"><ele>679.0</ele><time>2026-04-12T11:20:18.881Z</time></trkpt><trkpt lat="39.2020368" lon="16.2909309"><ele>680.6</ele><time>2026-04-12T11:20:19.88Z</time></trkpt><trkpt lat="39.2020208" lon="16.2910477"><ele>682.2</ele><time>2026-04-12T11:20:20.881Z</time></trkpt><trkpt lat="39.201988" lon="16.2911665"><ele>683.8000000000001</ele><time>2026-04-12T11:20:21.881Z</time></trkpt><trkpt lat="39.201939" lon="16.2912786"><ele>685.4000000000001</ele><time>2026-04-12T11:20:22.881Z</time></trkpt><trkpt lat="39.2018202" lon="16.2913361"><ele>687.0</ele><time>2026-04-12T11:20:23.881Z</time></trkpt><trkpt lat="39.2016911" lon="16.2913639"><ele>686.8</ele><time>2026-04-12T11:20:24.881Z</time></trkpt><trkpt lat="39.2015865" lon="16.2914259"><ele>686.6</ele><time>2026-04-12T11:20:25.881Z</time></trkpt><trkpt lat="39.2014934" lon="16.2915077"><ele>686.4</ele><time>2026-04-12T11:20:26.881Z</time></trkpt><trkpt lat="39.2013971" lon="16.2915748"><ele>686.1999999999999</ele><time>2026-04-12T11:20:27.881Z</time></trkpt><trkpt lat="39.2013034" lon="16.2916481"><ele>686.0</ele><time>2026-04-12T11:20:28.881Z</time></trkpt><trkpt lat="39.2011947" lon="16.2917008"><ele>686.0</ele><time>2026-04-12T11:20:29.88Z</time></trkpt><trkpt lat="39.2010812" lon="16.2917436"><ele>686.0</ele><time>2026-04-12T11:20:30.881Z</time></trkpt><trkpt lat="39.200958" lon="16.2917764"><ele>686.0</ele><time>2026-04-12T11:20:31.88Z</time></trkpt><trkpt lat="39.2008572" lon="16.291831"><ele>686.0</ele><time>2026-04-12T11:20:32.881Z</time></trkpt><trkpt lat="39.2007635" lon="16.291908"><ele>686.0</ele><time>2026-04-12T11:20:33.881Z</time></trkpt><trkpt lat="39.2006805" lon="16.2920185"><ele>686.0</ele><time>2026-04-12T11:20:34.881Z</time></trkpt><trkpt lat="39.2005932" lon="16.2921205"><ele>686.0</ele><time>2026-04-12T11:20:35.881Z</time></trkpt><trkpt lat="39.2005067" lon="16.2922347"><ele>686.0</ele><time>2026-04-12T11:20:36.88Z</time></trkpt><trkpt lat="39.2004217" lon="16.2923733"><ele>683.0</ele><time>2026-04-12T11:20:37.881Z</time></trkpt><trkpt lat="39.2003283" lon="16.2925067"><ele>680.0</ele><time>2026-04-12T11:20:38.881Z</time></trkpt><trkpt lat="39.2002467" lon="16.292655"><ele>677.0</ele><time>2026-04-12T11:20:39.881Z</time></trkpt><trkpt lat="39.20016" lon="16.2927917"><ele>674.0</ele><time>2026-04-12T11:20:40.881Z</time></trkpt><trkpt lat="39.2000617" lon="16.29294"><ele>674.0</ele><time>2026-04-12T11:20:41.88Z</time></trkpt><trkpt lat="39.199965" lon="16.293075"><ele>674.0</ele><time>2026-04-12T11:20:42.881Z</time></trkpt><trkpt lat="39.1998717" lon="16.2932267"><ele>674.0</ele><time>2026-04-12T11:20:43.881Z</time></trkpt><trkpt lat="39.1997583" lon="16.293345"><ele>674.0</ele><time>2026-04-12T11:20:44.881Z</time></trkpt><trkpt lat="39.1996317" lon="16.2934433"><ele>674.25</ele><time>2026-04-12T11:20:45.881Z</time></trkpt><trkpt lat="39.199525" lon="16.2935483"><ele>674.5</ele><time>2026-04-12T11:20:46.881Z</time></trkpt><trkpt lat="39.1994067" lon="16.2936533"><ele>674.75</ele><time>2026-04-12T11:20:47.881Z</time></trkpt><trkpt lat="39.1992883" lon="16.2937583"><ele>675.0</ele><time>2026-04-12T11:20:48.881Z</time></trkpt><trkpt lat="39.1991867" lon="16.2938567"><ele>678.5</ele><time>2026-04-12T11:20:49.881Z</time></trkpt><trkpt lat="39.199085" lon="16.2939467"><ele>682.0</ele><time>2026-04-12T11:20:50.881Z</time></trkpt><trkpt lat="39.1989867" lon="16.2940633"><ele>685.5</ele><time>2026-04-12T11:20:51.881Z</time></trkpt><trkpt lat="39.1988833" lon="16.29416"><ele>689.0</ele><time>2026-04-12T11:20:52.881Z</time></trkpt><trkpt lat="39.1987817" lon="16.2942583"><ele>689.5</ele><time>2026-04-12T11:20:53.88Z</time></trkpt><trkpt lat="39.1986817" lon="16.2943583"><ele>690.0</ele><time>2026-04-12T11:20:54.88Z</time></trkpt><trkpt lat="39.1985867" lon="16.294475"><ele>690.5</ele><time>2026-04-12T11:20:55.881Z</time></trkpt><trkpt lat="39.1984933" lon="16.294585"><ele>691.0</ele><time>2026-04-12T11:20:56.881Z</time></trkpt><trkpt lat="39.1984067" lon="16.294675"><ele>692.25</ele><time>2026-04-12T11:20:57.881Z</time></trkpt><trkpt lat="39.1983217" lon="16.294775"><ele>693.5</ele><time>2026-04-12T11:20:58.881Z</time></trkpt><trkpt lat="39.1982367" lon="16.294845"><ele>694.75</ele><time>2026-04-12T11:20:59.881Z</time></trkpt><trkpt lat="39.1981233" lon="16.2949183"><ele>696.0</ele><time>2026-04-12T11:21:00.881Z</time></trkpt><trkpt lat="39.1980967" lon="16.2951583"><ele>696.0</ele><time>2026-04-12T11:21:01.881Z</time></trkpt><trkpt lat="39.1979733" lon="16.2951967"><ele>696.0</ele><time>2026-04-12T11:21:02.881Z</time></trkpt><trkpt lat="39.1978383" lon="16.2952117"><ele>696.0</ele><time>2026-04-12T11:21:03.881Z</time></trkpt><trkpt lat="39.197765" lon="16.2953517"><ele>696.0</ele><time>2026-04-12T11:21:04.881Z</time></trkpt><trkpt lat="39.1976883" lon="16.295465"><ele>697.25</ele><time>2026-04-12T11:21:05.88Z</time></trkpt><trkpt lat="39.1976217" lon="16.29559"><ele>698.5</ele><time>2026-04-12T11:21:06.881Z</time></trkpt><trkpt lat="39.1975617" lon="16.2957283"><ele>699.75</ele><time>2026-04-12T11:21:07.88Z</time></trkpt><trkpt lat="39.1975133" lon="16.295885"><ele>701.0</ele><time>2026-04-12T11:21:08.88Z</time></trkpt><trkpt lat="39.1974817" lon="16.296035"><ele>701.0</ele><time>2026-04-12T11:21:09.881Z</time></trkpt><trkpt lat="39.1974483" lon="16.2962167"><ele>701.0</ele><time>2026-04-12T11:21:10.881Z</time></trkpt><trkpt lat="39.19742" lon="16.2963967"><ele>701.0</ele><time>2026-04-12T11:21:11.881Z</time></trkpt><trkpt lat="39.1973967" lon="16.2965733"><ele>701.0</ele><time>2026-04-12T11:21:12.881Z</time></trkpt><trkpt lat="39.1973717" lon="16.29674"><ele>700.75</ele><time>2026-04-12T11:21:13.881Z</time></trkpt><trkpt lat="39.19735" lon="16.29689"><ele>700.5</ele><time>2026-04-12T11:21:14.88Z</time></trkpt><trkpt lat="39.1973233" lon="16.297045"><ele>700.25</ele><time>2026-04-12T11:21:15.881Z</time></trkpt><trkpt lat="39.1973" lon="16.2972083"><ele>700.0</ele><time>2026-04-12T11:21:16.881Z</time></trkpt><trkpt lat="39.1972733" lon="16.2973517"><ele>699.75</ele><time>2026-04-12T11:21:17.881Z</time></trkpt><trkpt lat="39.1972633" lon="16.2975167"><ele>699.5</ele><time>2026-04-12T11:21:18.88Z</time></trkpt><trkpt lat="39.197235" lon="16.297675"><ele>699.25</ele><time>2026-04-12T11:21:19.881Z</time></trkpt><trkpt lat="39.197205" lon="16.29783"><ele>699.0</ele><time>2026-04-12T11:21:20.881Z</time></trkpt><trkpt lat="39.1971717" lon="16.2979767"><ele>696.0</ele><time>2026-04-12T11:21:21.881Z</time></trkpt><trkpt lat="39.1971383" lon="16.2981317"><ele>693.0</ele><time>2026-04-12T11:21:22.881Z</time></trkpt><trkpt lat="39.1968383" lon="16.2992183"><ele>692.0</ele><time>2026-04-12T11:21:30.883Z</time></trkpt><trkpt lat="39.1967833" lon="16.2993417"><ele>691.0</ele><time>2026-04-12T11:21:31.882Z</time></trkpt><trkpt lat="39.1967517" lon="16.2995033"><ele>690.0</ele><time>2026-04-12T11:21:32.883Z</time></trkpt><trkpt lat="39.195835" lon="16.2996017"><ele>689.0</ele><time>2026-04-12T11:22:04.882Z</time></trkpt><trkpt lat="39.1958033" lon="16.2994317"><ele>688.0</ele><time>2026-04-12T11:22:07.882Z</time></trkpt><trkpt lat="39.1958117" lon="16.299555"><ele>687.0</ele><time>2026-04-12T11:22:20.882Z</time></trkpt><trkpt lat="39.195805" lon="16.2996433"><ele>686.0</ele><time>2026-04-12T11:22:21.882Z</time></trkpt><trkpt lat="39.19581" lon="16.2997733"><ele>685.0</ele><time>2026-04-12T11:22:24.882Z</time></trkpt><trkpt lat="39.195835" lon="16.2999483"><ele>683.0</ele><time>2026-04-12T11:22:25.881Z</time></trkpt><trkpt lat="39.1958933" lon="16.3001167"><ele>681.0</ele><time>2026-04-12T11:22:26.882Z</time></trkpt><trkpt lat="39.1959767" lon="16.3003333"><ele>679.0</ele><time>2026-04-12T11:22:27.882Z</time></trkpt><trkpt lat="39.1960483" lon="16.3005483"><ele>676.3333333333334</ele><time>2026-04-12T11:22:28.881Z</time></trkpt><trkpt lat="39.1961183" lon="16.3007533"><ele>673.6666666666666</ele><time>2026-04-12T11:22:29.882Z</time></trkpt><trkpt lat="39.1961867" lon="16.3009483"><ele>671.0</ele><time>2026-04-12T11:22:30.882Z</time></trkpt><trkpt lat="39.19626" lon="16.30114"><ele>671.0</ele><time>2026-04-12T11:22:31.882Z</time></trkpt><trkpt lat="39.1963267" lon="16.3013167"><ele>671.0</ele><time>2026-04-12T11:22:32.882Z</time></trkpt><trkpt lat="39.1970367" lon="16.3022983"><ele>669.6666666666666</ele><time>2026-04-12T11:22:39.881Z</time></trkpt><trkpt lat="39.1972083" lon="16.3024"><ele>668.3333333333334</ele><time>2026-04-12T11:22:40.881Z</time></trkpt><trkpt lat="39.19735" lon="16.302495"><ele>667.0</ele><time>2026-04-12T11:22:41.881Z</time></trkpt><trkpt lat="39.1974783" lon="16.30261"><ele>666.6666666666667</ele><time>2026-04-12T11:22:42.882Z</time></trkpt><trkpt lat="39.197705" lon="16.3025633"><ele>666.3333333333334</ele><time>2026-04-12T11:22:43.881Z</time></trkpt><trkpt lat="39.197855" lon="16.3026317"><ele>666.0</ele><time>2026-04-12T11:22:44.882Z</time></trkpt><trkpt lat="39.1980017" lon="16.3027183"><ele>666.0</ele><time>2026-04-12T11:22:45.882Z</time></trkpt><trkpt lat="39.1981583" lon="16.3027967"><ele>666.0</ele><time>2026-04-12T11:22:46.881Z</time></trkpt><trkpt lat="39.1982983" lon="16.3028833"><ele>666.0</ele><time>2026-04-12T11:22:47.882Z</time></trkpt><trkpt lat="39.1984267" lon="16.3029717"><ele>666.5</ele><time>2026-04-12T11:22:48.882Z</time></trkpt><trkpt lat="39.1985469" lon="16.3030713"><ele>667.0</ele><time>2026-04-12T11:22:49.882Z</time></trkpt><trkpt lat="39.1986646" lon="16.3031793"><ele>667.5</ele><time>2026-04-12T11:22:50.882Z</time></trkpt><trkpt lat="39.1987864" lon="16.3032741"><ele>668.0</ele><time>2026-04-12T11:22:51.882Z</time></trkpt><trkpt lat="39.1989027" lon="16.3033702"><ele>665.0</ele><time>2026-04-12T11:22:52.882Z</time></trkpt><trkpt lat="39.1990147" lon="16.3034686"><ele>662.0</ele><time>2026-04-12T11:22:53.882Z</time></trkpt><trkpt lat="39.1991212" lon="16.3035746"><ele>659.0</ele><time>2026-04-12T11:22:54.882Z</time></trkpt><trkpt lat="39.1996496" lon="16.3041069"><ele>657.0</ele><time>2026-04-12T11:22:59.883Z</time></trkpt><trkpt lat="39.1997291" lon="16.3042369"><ele>655.0</ele><time>2026-04-12T11:23:00.883Z</time></trkpt><trkpt lat="39.1998111" lon="16.3043633"><ele>653.0</ele><time>2026-04-12T11:23:01.883Z</time></trkpt><trkpt lat="39.1998931" lon="16.3044938"><ele>651.0</ele><time>2026-04-12T11:23:02.883Z</time></trkpt><trkpt lat="39.1999773" lon="16.3046253"><ele>649.0</ele><time>2026-04-12T11:23:03.883Z</time></trkpt><trkpt lat="39.2000626" lon="16.3047593"><ele>647.0</ele><time>2026-04-12T11:23:04.883Z</time></trkpt><trkpt lat="39.2000663" lon="16.3050374"><ele>645.0</ele><time>2026-04-12T11:23:05.882Z</time></trkpt><trkpt lat="39.2002155" lon="16.3053664"><ele>638.0</ele><time>2026-04-12T11:23:07.883Z</time></trkpt><trkpt lat="39.2006305" lon="16.3060967"><ele>638.0</ele><time>2026-04-12T11:23:13.599Z</time></trkpt><trkpt lat="39.1992212" lon="16.3066706"><ele>638.0</ele><time>2026-04-12T11:23:14.881Z</time></trkpt><trkpt lat="39.1990716" lon="16.3068562"><ele>638.0</ele><time>2026-04-12T11:23:15.881Z</time></trkpt><trkpt lat="39.198974" lon="16.3070408"><ele>638.0</ele><time>2026-04-12T11:23:16.882Z</time></trkpt><trkpt lat="39.1989209" lon="16.3072111"><ele>622.0</ele><time>2026-04-12T11:23:17.882Z</time></trkpt><trkpt lat="39.19789" lon="16.3111417"><ele>622.0</ele><time>2026-04-12T11:23:44.882Z</time></trkpt><trkpt lat="39.1980267" lon="16.311205"><ele>622.0</ele><time>2026-04-12T11:23:45.881Z</time></trkpt><trkpt lat="39.1981167" lon="16.3113067"><ele>622.0</ele><time>2026-04-12T11:23:46.882Z</time></trkpt><trkpt lat="39.1981683" lon="16.3114183"><ele>622.0</ele><time>2026-04-12T11:23:47.881Z</time></trkpt><trkpt lat="39.198835" lon="16.3138567"><ele>622.0</ele><time>2026-04-12T11:24:08.881Z</time></trkpt><trkpt lat="39.19866" lon="16.3138517"><ele>622.0</ele><time>2026-04-12T11:24:10.881Z</time></trkpt><trkpt lat="39.1986717" lon="16.3139683"><ele>622.0</ele><time>2026-04-12T11:24:12.881Z</time></trkpt><trkpt lat="39.1987817" lon="16.3143917"><ele>622.0</ele><time>2026-04-12T11:24:19.882Z</time></trkpt><trkpt lat="39.19881" lon="16.3145433"><ele>622.0</ele><time>2026-04-12T11:24:21.882Z</time></trkpt><trkpt lat="39.1987074" lon="16.3145506"><ele>622.0</ele><time>2026-04-12T11:24:37.047Z</time></trkpt></trkseg></trk></gpx>